<?xml version='1.0' encoding='UTF-8'?><gpx version="1.1" creator="JPX - https://github.com/jenetics/jpx" xmlns="http://www.topografix.com/GPX/1/1"><trk><trkseg><trkpt lat="43.4661497" lon="11.4342934"><ele>348.0</ele><time>2026-04-04T09:14:03.933Z</time></trkpt><trkpt lat="43.4660472" lon="11.4342644"><ele>348.0</ele><time>2026-04-04T09:14:04.95Z</time></trkpt><trkpt lat="43.4659545" lon="11.4342353"><ele>348.0</ele><time>2026-04-04T09:14:05.933Z</time></trkpt><trkpt lat="43.465855" lon="11.4341982"><ele>348.0</ele><time>2026-04-04T09:14:06.94Z</time></trkpt><trkpt lat="43.4657548" lon="11.4341523"><ele>348.0</ele><time>2026-04-04T09:14:07.931Z</time></trkpt><trkpt lat="43.4656542" lon="11.4340997"><ele>348.0</ele><time>2026-04-04T09:14:08.932Z</time></trkpt><trkpt lat="43.4655575" lon="11.4340139"><ele>348.0</ele><time>2026-04-04T09:14:09.934Z</time></trkpt><trkpt lat="43.4654674" lon="11.4338978"><ele>348.0</ele><time>2026-04-04T09:14:10.929Z</time></trkpt><trkpt lat="43.4653773" lon="11.4337694"><ele>348.0</ele><time>2026-04-04T09:14:11.934Z</time></trkpt><trkpt lat="43.4652889" lon="11.4336366"><ele>348.0</ele><time>2026-04-04T09:14:12.924Z</time></trkpt><trkpt lat="43.4651966" lon="11.4335009"><ele>348.0</ele><time>2026-04-04T09:14:13.936Z</time></trkpt><trkpt lat="43.4650958" lon="11.4333718"><ele>348.0</ele><time>2026-04-04T09:14:14.936Z</time></trkpt><trkpt lat="43.4649841" lon="11.4332599"><ele>348.0</ele><time>2026-04-04T09:14:15.931Z</time></trkpt><trkpt lat="43.4648628" lon="11.4331652"><ele>348.0</ele><time>2026-04-04T09:14:16.929Z</time></trkpt><trkpt lat="43.4647323" lon="11.4330709"><ele>348.0</ele><time>2026-04-04T09:14:17.937Z</time></trkpt><trkpt lat="43.4645975" lon="11.4329657"><ele>348.0</ele><time>2026-04-04T09:14:18.932Z</time></trkpt><trkpt lat="43.4644767" lon="11.4328388"><ele>348.3333333333333</ele><time>2026-04-04T09:14:19.962Z</time></trkpt><trkpt lat="43.4643632" lon="11.432691"><ele>348.66666666666663</ele><time>2026-04-04T09:14:20.94Z</time></trkpt><trkpt lat="43.4642597" lon="11.4325226"><ele>349.0</ele><time>2026-04-04T09:14:21.932Z</time></trkpt><trkpt lat="43.4641712" lon="11.4323341"><ele>351.0</ele><time>2026-04-04T09:14:22.931Z</time></trkpt><trkpt lat="43.4640917" lon="11.4321268"><ele>353.0</ele><time>2026-04-04T09:14:23.934Z</time></trkpt><trkpt lat="43.4640181" lon="11.4319263"><ele>355.0</ele><time>2026-04-04T09:14:24.933Z</time></trkpt><trkpt lat="43.4639419" lon="11.4317232"><ele>355.0</ele><time>2026-04-04T09:14:25.934Z</time></trkpt><trkpt lat="43.4638667" lon="11.4315259"><ele>355.0</ele><time>2026-04-04T09:14:26.937Z</time></trkpt><trkpt lat="43.4637921" lon="11.431339"><ele>355.0</ele><time>2026-04-04T09:14:27.934Z</time></trkpt><trkpt lat="43.4637192" lon="11.4311655"><ele>353.0</ele><time>2026-04-04T09:14:28.94Z</time></trkpt><trkpt lat="43.4636401" lon="11.4309942"><ele>351.0</ele><time>2026-04-04T09:14:29.931Z</time></trkpt><trkpt lat="43.4635493" lon="11.4308319"><ele>349.0</ele><time>2026-04-04T09:14:30.938Z</time></trkpt><trkpt lat="43.4634446" lon="11.4306776"><ele>347.0</ele><time>2026-04-04T09:14:31.94Z</time></trkpt><trkpt lat="43.4633378" lon="11.430524"><ele>349.0</ele><time>2026-04-04T09:14:32.932Z</time></trkpt><trkpt lat="43.4632363" lon="11.4303559"><ele>351.0</ele><time>2026-04-04T09:14:33.93Z</time></trkpt><trkpt lat="43.4631308" lon="11.4301827"><ele>353.0</ele><time>2026-04-04T09:14:34.927Z</time></trkpt><trkpt lat="43.4630324" lon="11.4299971"><ele>350.6666666666667</ele><time>2026-04-04T09:14:35.933Z</time></trkpt><trkpt lat="43.4629305" lon="11.4298155"><ele>348.3333333333333</ele><time>2026-04-04T09:14:36.934Z</time></trkpt><trkpt lat="43.46282" lon="11.4296406"><ele>346.0</ele><time>2026-04-04T09:14:37.933Z</time></trkpt><trkpt lat="43.4626995" lon="11.4294761"><ele>346.0</ele><time>2026-04-04T09:14:38.935Z</time></trkpt><trkpt lat="43.4625718" lon="11.4293142"><ele>346.0</ele><time>2026-04-04T09:14:39.952Z</time></trkpt><trkpt lat="43.4624412" lon="11.4291524"><ele>346.0</ele><time>2026-04-04T09:14:40.932Z</time></trkpt><trkpt lat="43.4623056" lon="11.4289919"><ele>346.0</ele><time>2026-04-04T09:14:41.94Z</time></trkpt><trkpt lat="43.4621709" lon="11.4288302"><ele>346.0</ele><time>2026-04-04T09:14:42.93Z</time></trkpt><trkpt lat="43.4620283" lon="11.4286673"><ele>346.0</ele><time>2026-04-04T09:14:43.93Z</time></trkpt><trkpt lat="43.4618896" lon="11.4285038"><ele>344.66666666666663</ele><time>2026-04-04T09:14:44.926Z</time></trkpt><trkpt lat="43.4617492" lon="11.4283397"><ele>343.3333333333333</ele><time>2026-04-04T09:14:45.933Z</time></trkpt><trkpt lat="43.4616013" lon="11.4281735"><ele>342.0</ele><time>2026-04-04T09:14:46.928Z</time></trkpt><trkpt lat="43.461452" lon="11.428009"><ele>341.3333333333333</ele><time>2026-04-04T09:14:47.932Z</time></trkpt><trkpt lat="43.4613016" lon="11.427845"><ele>340.66666666666663</ele><time>2026-04-04T09:14:48.929Z</time></trkpt><trkpt lat="43.461146" lon="11.4276776"><ele>340.0</ele><time>2026-04-04T09:14:49.935Z</time></trkpt><trkpt lat="43.4609923" lon="11.427512"><ele>340.0</ele><time>2026-04-04T09:14:50.925Z</time></trkpt><trkpt lat="43.460834" lon="11.4273415"><ele>340.0</ele><time>2026-04-04T09:14:51.937Z</time></trkpt><trkpt lat="43.4606627" lon="11.4271933"><ele>340.0</ele><time>2026-04-04T09:14:52.933Z</time></trkpt><trkpt lat="43.460478" lon="11.4270804"><ele>341.0</ele><time>2026-04-04T09:14:53.936Z</time></trkpt><trkpt lat="43.4602813" lon="11.4269891"><ele>342.0</ele><time>2026-04-04T09:14:54.931Z</time></trkpt><trkpt lat="43.4600822" lon="11.4268979"><ele>343.0</ele><time>2026-04-04T09:14:55.936Z</time></trkpt><trkpt lat="43.459881" lon="11.4268079"><ele>343.0</ele><time>2026-04-04T09:14:56.931Z</time></trkpt><trkpt lat="43.4596796" lon="11.4267147"><ele>343.0</ele><time>2026-04-04T09:14:57.944Z</time></trkpt><trkpt lat="43.4594829" lon="11.4266298"><ele>343.0</ele><time>2026-04-04T09:14:58.93Z</time></trkpt><trkpt lat="43.4592811" lon="11.4265459"><ele>341.66666666666663</ele><time>2026-04-04T09:14:59.932Z</time></trkpt><trkpt lat="43.4590751" lon="11.4264599"><ele>340.3333333333333</ele><time>2026-04-04T09:15:00.931Z</time></trkpt><trkpt lat="43.4588659" lon="11.426368"><ele>339.0</ele><time>2026-04-04T09:15:01.93Z</time></trkpt><trkpt lat="43.4586621" lon="11.4262811"><ele>338.0</ele><time>2026-04-04T09:15:02.932Z</time></trkpt><trkpt lat="43.4584565" lon="11.4261921"><ele>337.0</ele><time>2026-04-04T09:15:03.934Z</time></trkpt><trkpt lat="43.4582611" lon="11.4261066"><ele>336.0</ele><time>2026-04-04T09:15:04.937Z</time></trkpt><trkpt lat="43.4580659" lon="11.4260214"><ele>336.0</ele><time>2026-04-04T09:15:05.934Z</time></trkpt><trkpt lat="43.4578729" lon="11.4259374"><ele>336.0</ele><time>2026-04-04T09:15:06.934Z</time></trkpt><trkpt lat="43.4576772" lon="11.4258489"><ele>336.0</ele><time>2026-04-04T09:15:07.929Z</time></trkpt><trkpt lat="43.4574865" lon="11.4257651"><ele>336.0</ele><time>2026-04-04T09:15:08.944Z</time></trkpt><trkpt lat="43.4572911" lon="11.4256828"><ele>336.0</ele><time>2026-04-04T09:15:09.938Z</time></trkpt><trkpt lat="43.4571114" lon="11.4256114"><ele>336.0</ele><time>2026-04-04T09:15:10.932Z</time></trkpt><trkpt lat="43.4569338" lon="11.4255606"><ele>338.0</ele><time>2026-04-04T09:15:11.935Z</time></trkpt><trkpt lat="43.456765" lon="11.4255263"><ele>340.0</ele><time>2026-04-04T09:15:12.937Z</time></trkpt><trkpt lat="43.4566024" lon="11.425503"><ele>342.0</ele><time>2026-04-04T09:15:13.93Z</time></trkpt><trkpt lat="43.4564535" lon="11.4254878"><ele>340.75</ele><time>2026-04-04T09:15:14.928Z</time></trkpt><trkpt lat="43.4563173" lon="11.425456"><ele>339.5</ele><time>2026-04-04T09:15:15.935Z</time></trkpt><trkpt lat="43.4561895" lon="11.4253984"><ele>338.25</ele><time>2026-04-04T09:15:16.934Z</time></trkpt><trkpt lat="43.4560633" lon="11.4252975"><ele>337.0</ele><time>2026-04-04T09:15:17.923Z</time></trkpt><trkpt lat="43.4559446" lon="11.4251673"><ele>337.0</ele><time>2026-04-04T09:15:18.931Z</time></trkpt><trkpt lat="43.4558205" lon="11.4250279"><ele>337.0</ele><time>2026-04-04T09:15:19.931Z</time></trkpt><trkpt lat="43.4556829" lon="11.4248824"><ele>337.0</ele><time>2026-04-04T09:15:20.962Z</time></trkpt><trkpt lat="43.4555361" lon="11.4247327"><ele>335.66666666666663</ele><time>2026-04-04T09:15:21.931Z</time></trkpt><trkpt lat="43.4553875" lon="11.4245834"><ele>334.3333333333333</ele><time>2026-04-04T09:15:22.928Z</time></trkpt><trkpt lat="43.4552355" lon="11.4244229"><ele>333.0</ele><time>2026-04-04T09:15:23.936Z</time></trkpt><trkpt lat="43.4550793" lon="11.4242614"><ele>333.0</ele><time>2026-04-04T09:15:24.933Z</time></trkpt><trkpt lat="43.4549219" lon="11.4240991"><ele>333.0</ele><time>2026-04-04T09:15:25.932Z</time></trkpt><trkpt lat="43.4547704" lon="11.4239407"><ele>333.0</ele><time>2026-04-04T09:15:26.931Z</time></trkpt><trkpt lat="43.4546216" lon="11.4237848"><ele>332.3333333333333</ele><time>2026-04-04T09:15:27.926Z</time></trkpt><trkpt lat="43.4544721" lon="11.4236268"><ele>331.66666666666663</ele><time>2026-04-04T09:15:28.932Z</time></trkpt><trkpt lat="43.4543249" lon="11.4234551"><ele>331.0</ele><time>2026-04-04T09:15:29.937Z</time></trkpt><trkpt lat="43.4541882" lon="11.4232643"><ele>331.0</ele><time>2026-04-04T09:15:30.931Z</time></trkpt><trkpt lat="43.4540544" lon="11.4230533"><ele>331.0</ele><time>2026-04-04T09:15:31.935Z</time></trkpt><trkpt lat="43.4539236" lon="11.4228395"><ele>331.0</ele><time>2026-04-04T09:15:32.932Z</time></trkpt><trkpt lat="43.4537868" lon="11.4226261"><ele>331.3333333333333</ele><time>2026-04-04T09:15:33.937Z</time></trkpt><trkpt lat="43.453649" lon="11.4224148"><ele>331.6666666666667</ele><time>2026-04-04T09:15:34.932Z</time></trkpt><trkpt lat="43.4535132" lon="11.4222012"><ele>332.0</ele><time>2026-04-04T09:15:35.939Z</time></trkpt><trkpt lat="43.4533777" lon="11.4219948"><ele>332.0</ele><time>2026-04-04T09:15:36.934Z</time></trkpt><trkpt lat="43.4532509" lon="11.4217913"><ele>332.0</ele><time>2026-04-04T09:15:37.934Z</time></trkpt><trkpt lat="43.4531331" lon="11.421604"><ele>332.0</ele><time>2026-04-04T09:15:38.93Z</time></trkpt><trkpt lat="43.4530011" lon="11.4214419"><ele>333.0</ele><time>2026-04-04T09:15:39.934Z</time></trkpt><trkpt lat="43.4528544" lon="11.4213242"><ele>334.0</ele><time>2026-04-04T09:15:40.925Z</time></trkpt><trkpt lat="43.4526972" lon="11.4212196"><ele>335.0</ele><time>2026-04-04T09:15:41.932Z</time></trkpt><trkpt lat="43.4525463" lon="11.4210904"><ele>335.0</ele><time>2026-04-04T09:15:42.93Z</time></trkpt><trkpt lat="43.4524101" lon="11.4209367"><ele>335.0</ele><time>2026-04-04T09:15:43.935Z</time></trkpt><trkpt lat="43.4522825" lon="11.4207483"><ele>335.0</ele><time>2026-04-04T09:15:44.921Z</time></trkpt><trkpt lat="43.4521585" lon="11.4205603"><ele>333.6666666666667</ele><time>2026-04-04T09:15:45.935Z</time></trkpt><trkpt lat="43.4520339" lon="11.4203605"><ele>332.3333333333333</ele><time>2026-04-04T09:15:46.928Z</time></trkpt><trkpt lat="43.4519088" lon="11.4201629"><ele>331.0</ele><time>2026-04-04T09:15:47.921Z</time></trkpt><trkpt lat="43.4517935" lon="11.4199735"><ele>331.0</ele><time>2026-04-04T09:15:48.927Z</time></trkpt><trkpt lat="43.4516836" lon="11.4198027"><ele>331.0</ele><time>2026-04-04T09:15:49.927Z</time></trkpt><trkpt lat="43.4515695" lon="11.4196485"><ele>331.0</ele><time>2026-04-04T09:15:50.926Z</time></trkpt><trkpt lat="43.4514351" lon="11.4195092"><ele>332.0</ele><time>2026-04-04T09:15:51.93Z</time></trkpt><trkpt lat="43.4513059" lon="11.4193783"><ele>333.0</ele><time>2026-04-04T09:15:52.939Z</time></trkpt><trkpt lat="43.4511744" lon="11.4192671"><ele>334.0</ele><time>2026-04-04T09:15:53.945Z</time></trkpt><trkpt lat="43.4510489" lon="11.4191717"><ele>331.3333333333333</ele><time>2026-04-04T09:15:54.933Z</time></trkpt><trkpt lat="43.4509004" lon="11.4191044"><ele>328.6666666666667</ele><time>2026-04-04T09:15:55.937Z</time></trkpt><trkpt lat="43.4507463" lon="11.4190565"><ele>326.0</ele><time>2026-04-04T09:15:56.932Z</time></trkpt><trkpt lat="43.4505793" lon="11.4190131"><ele>325.33333333333337</ele><time>2026-04-04T09:15:57.938Z</time></trkpt><trkpt lat="43.4504036" lon="11.4189834"><ele>324.6666666666667</ele><time>2026-04-04T09:15:58.925Z</time></trkpt><trkpt lat="43.4502308" lon="11.4189613"><ele>324.0</ele><time>2026-04-04T09:15:59.934Z</time></trkpt><trkpt lat="43.4500588" lon="11.4189172"><ele>324.0</ele><time>2026-04-04T09:16:00.939Z</time></trkpt><trkpt lat="43.4498851" lon="11.4188606"><ele>324.0</ele><time>2026-04-04T09:16:01.935Z</time></trkpt><trkpt lat="43.4497133" lon="11.4187938"><ele>324.0</ele><time>2026-04-04T09:16:02.934Z</time></trkpt><trkpt lat="43.4495429" lon="11.4187063"><ele>326.3333333333333</ele><time>2026-04-04T09:16:03.929Z</time></trkpt><trkpt lat="43.4493695" lon="11.4186294"><ele>328.66666666666663</ele><time>2026-04-04T09:16:04.936Z</time></trkpt><trkpt lat="43.449198" lon="11.4185762"><ele>331.0</ele><time>2026-04-04T09:16:05.923Z</time></trkpt><trkpt lat="43.4490243" lon="11.4185393"><ele>331.0</ele><time>2026-04-04T09:16:06.925Z</time></trkpt><trkpt lat="43.4488465" lon="11.4185162"><ele>331.0</ele><time>2026-04-04T09:16:07.933Z</time></trkpt><trkpt lat="43.4486831" lon="11.4185059"><ele>331.0</ele><time>2026-04-04T09:16:08.93Z</time></trkpt><trkpt lat="43.4485157" lon="11.4184741"><ele>331.0</ele><time>2026-04-04T09:16:09.932Z</time></trkpt><trkpt lat="43.4483582" lon="11.4184115"><ele>331.0</ele><time>2026-04-04T09:16:10.933Z</time></trkpt><trkpt lat="43.4482078" lon="11.4182975"><ele>331.0</ele><time>2026-04-04T09:16:11.94Z</time></trkpt><trkpt lat="43.4480691" lon="11.4181642"><ele>329.0</ele><time>2026-04-04T09:16:12.926Z</time></trkpt><trkpt lat="43.4479285" lon="11.4180296"><ele>327.0</ele><time>2026-04-04T09:16:13.931Z</time></trkpt><trkpt lat="43.4477881" lon="11.4179059"><ele>325.0</ele><time>2026-04-04T09:16:14.924Z</time></trkpt><trkpt lat="43.4476442" lon="11.4177981"><ele>329.3333333333333</ele><time>2026-04-04T09:16:15.922Z</time></trkpt><trkpt lat="43.4474825" lon="11.4177174"><ele>333.6666666666667</ele><time>2026-04-04T09:16:16.934Z</time></trkpt><trkpt lat="43.4473139" lon="11.4176635"><ele>338.0</ele><time>2026-04-04T09:16:17.928Z</time></trkpt><trkpt lat="43.4471425" lon="11.4176129"><ele>338.6666666666667</ele><time>2026-04-04T09:16:18.933Z</time></trkpt><trkpt lat="43.4469701" lon="11.4175691"><ele>339.3333333333333</ele><time>2026-04-04T09:16:19.921Z</time></trkpt><trkpt lat="43.446789" lon="11.4175351"><ele>340.0</ele><time>2026-04-04T09:16:20.933Z</time></trkpt><trkpt lat="43.4466077" lon="11.4174957"><ele>340.0</ele><time>2026-04-04T09:16:21.931Z</time></trkpt><trkpt lat="43.4464397" lon="11.4174565"><ele>340.0</ele><time>2026-04-04T09:16:22.932Z</time></trkpt><trkpt lat="43.4462737" lon="11.4174499"><ele>340.0</ele><time>2026-04-04T09:16:23.931Z</time></trkpt><trkpt lat="43.4461255" lon="11.4174954"><ele>340.5</ele><time>2026-04-04T09:16:24.932Z</time></trkpt><trkpt lat="43.4460075" lon="11.4175956"><ele>341.0</ele><time>2026-04-04T09:16:25.921Z</time></trkpt><trkpt lat="43.4459168" lon="11.4177423"><ele>341.5</ele><time>2026-04-04T09:16:26.927Z</time></trkpt><trkpt lat="43.445834" lon="11.4179096"><ele>342.0</ele><time>2026-04-04T09:16:27.928Z</time></trkpt><trkpt lat="43.445774" lon="11.4181084"><ele>342.0</ele><time>2026-04-04T09:16:28.924Z</time></trkpt><trkpt lat="43.4457227" lon="11.418326"><ele>342.0</ele><time>2026-04-04T09:16:29.94Z</time></trkpt><trkpt lat="43.4456849" lon="11.4185512"><ele>342.0</ele><time>2026-04-04T09:16:30.935Z</time></trkpt><trkpt lat="43.4456601" lon="11.4187913"><ele>339.3333333333333</ele><time>2026-04-04T09:16:31.92Z</time></trkpt><trkpt lat="43.4456573" lon="11.4190217"><ele>336.66666666666663</ele><time>2026-04-04T09:16:32.931Z</time></trkpt><trkpt lat="43.4456556" lon="11.4192287"><ele>334.0</ele><time>2026-04-04T09:16:33.936Z</time></trkpt><trkpt lat="43.4456387" lon="11.4194158"><ele>334.0</ele><time>2026-04-04T09:16:34.927Z</time></trkpt><trkpt lat="43.4456073" lon="11.4195552"><ele>334.0</ele><time>2026-04-04T09:16:35.934Z</time></trkpt><trkpt lat="43.4455392" lon="11.4196658"><ele>334.0</ele><time>2026-04-04T09:16:36.937Z</time></trkpt><trkpt lat="43.4454464" lon="11.4197452"><ele>334.0</ele><time>2026-04-04T09:16:37.935Z</time></trkpt><trkpt lat="43.4453249" lon="11.4198188"><ele>335.25</ele><time>2026-04-04T09:16:38.933Z</time></trkpt><trkpt lat="43.4452031" lon="11.4198894"><ele>336.5</ele><time>2026-04-04T09:16:39.933Z</time></trkpt><trkpt lat="43.4450636" lon="11.4199677"><ele>337.75</ele><time>2026-04-04T09:16:40.923Z</time></trkpt><trkpt lat="43.444919" lon="11.4200531"><ele>339.0</ele><time>2026-04-04T09:16:41.933Z</time></trkpt><trkpt lat="43.4447713" lon="11.420146"><ele>339.0</ele><time>2026-04-04T09:16:42.928Z</time></trkpt><trkpt lat="43.4446398" lon="11.4202566"><ele>339.0</ele><time>2026-04-04T09:16:43.935Z</time></trkpt><trkpt lat="43.4445119" lon="11.4204151"><ele>339.0</ele><time>2026-04-04T09:16:44.93Z</time></trkpt><trkpt lat="43.4443893" lon="11.4206052"><ele>338.3333333333333</ele><time>2026-04-04T09:16:45.919Z</time></trkpt><trkpt lat="43.4442613" lon="11.4207959"><ele>337.66666666666663</ele><time>2026-04-04T09:16:46.937Z</time></trkpt><trkpt lat="43.444118" lon="11.420946"><ele>337.0</ele><time>2026-04-04T09:16:47.925Z</time></trkpt><trkpt lat="43.4439522" lon="11.4210673"><ele>340.0</ele><time>2026-04-04T09:16:48.932Z</time></trkpt><trkpt lat="43.4437771" lon="11.4211866"><ele>343.0</ele><time>2026-04-04T09:16:49.938Z</time></trkpt><trkpt lat="43.4436093" lon="11.4213135"><ele>346.0</ele><time>2026-04-04T09:16:50.931Z</time></trkpt><trkpt lat="43.4434453" lon="11.4214377"><ele>340.0</ele><time>2026-04-04T09:16:51.931Z</time></trkpt><trkpt lat="43.4432734" lon="11.4215269"><ele>334.0</ele><time>2026-04-04T09:16:52.936Z</time></trkpt><trkpt lat="43.4430918" lon="11.4215578"><ele>328.0</ele><time>2026-04-04T09:16:53.929Z</time></trkpt><trkpt lat="43.4429001" lon="11.4215614"><ele>328.0</ele><time>2026-04-04T09:16:54.93Z</time></trkpt><trkpt lat="43.4427084" lon="11.4215566"><ele>328.0</ele><time>2026-04-04T09:16:55.924Z</time></trkpt><trkpt lat="43.442504" lon="11.4215562"><ele>328.0</ele><time>2026-04-04T09:16:56.929Z</time></trkpt><trkpt lat="43.4423002" lon="11.4215424"><ele>326.3333333333333</ele><time>2026-04-04T09:16:57.927Z</time></trkpt><trkpt lat="43.442092" lon="11.4215154"><ele>324.6666666666667</ele><time>2026-04-04T09:16:58.925Z</time></trkpt><trkpt lat="43.4418902" lon="11.4214891"><ele>323.0</ele><time>2026-04-04T09:16:59.928Z</time></trkpt><trkpt lat="43.441689" lon="11.4214579"><ele>323.0</ele><time>2026-04-04T09:17:00.927Z</time></trkpt><trkpt lat="43.4415134" lon="11.4214315"><ele>323.0</ele><time>2026-04-04T09:17:01.928Z</time></trkpt><trkpt lat="43.4413588" lon="11.4214022"><ele>323.0</ele><time>2026-04-04T09:17:02.933Z</time></trkpt><trkpt lat="43.4412193" lon="11.4213584"><ele>324.75</ele><time>2026-04-04T09:17:03.938Z</time></trkpt><trkpt lat="43.441094" lon="11.4212931"><ele>326.5</ele><time>2026-04-04T09:17:04.93Z</time></trkpt><trkpt lat="43.440963" lon="11.421198"><ele>328.25</ele><time>2026-04-04T09:17:05.929Z</time></trkpt><trkpt lat="43.4408312" lon="11.4210771"><ele>330.0</ele><time>2026-04-04T09:17:06.931Z</time></trkpt><trkpt lat="43.4406942" lon="11.4209646"><ele>330.0</ele><time>2026-04-04T09:17:07.925Z</time></trkpt><trkpt lat="43.440549" lon="11.4208394"><ele>330.0</ele><time>2026-04-04T09:17:08.926Z</time></trkpt><trkpt lat="43.4404" lon="11.4207119"><ele>330.0</ele><time>2026-04-04T09:17:09.916Z</time></trkpt><trkpt lat="43.4402414" lon="11.4205709"><ele>329.6666666666667</ele><time>2026-04-04T09:17:10.926Z</time></trkpt><trkpt lat="43.4400769" lon="11.4204253"><ele>329.33333333333337</ele><time>2026-04-04T09:17:11.935Z</time></trkpt><trkpt lat="43.439915" lon="11.4202844"><ele>329.0</ele><time>2026-04-04T09:17:12.932Z</time></trkpt><trkpt lat="43.4397467" lon="11.4201412"><ele>325.33333333333337</ele><time>2026-04-04T09:17:13.927Z</time></trkpt><trkpt lat="43.4395718" lon="11.4200054"><ele>321.6666666666667</ele><time>2026-04-04T09:17:14.927Z</time></trkpt><trkpt lat="43.4393954" lon="11.4198728"><ele>318.0</ele><time>2026-04-04T09:17:15.921Z</time></trkpt><trkpt lat="43.4392075" lon="11.4197622"><ele>318.0</ele><time>2026-04-04T09:17:16.922Z</time></trkpt><trkpt lat="43.4390108" lon="11.4196812"><ele>318.0</ele><time>2026-04-04T09:17:17.927Z</time></trkpt><trkpt lat="43.4388015" lon="11.4196343"><ele>318.0</ele><time>2026-04-04T09:17:18.926Z</time></trkpt><trkpt lat="43.4385774" lon="11.4195998"><ele>319.6666666666667</ele><time>2026-04-04T09:17:19.926Z</time></trkpt><trkpt lat="43.4383529" lon="11.4195745"><ele>321.33333333333337</ele><time>2026-04-04T09:17:20.93Z</time></trkpt><trkpt lat="43.4381309" lon="11.4195515"><ele>323.0</ele><time>2026-04-04T09:17:21.932Z</time></trkpt><trkpt lat="43.4379077" lon="11.4195169"><ele>323.0</ele><time>2026-04-04T09:17:22.932Z</time></trkpt><trkpt lat="43.4376757" lon="11.4194836"><ele>323.0</ele><time>2026-04-04T09:17:23.927Z</time></trkpt><trkpt lat="43.4374447" lon="11.4194423"><ele>323.0</ele><time>2026-04-04T09:17:24.926Z</time></trkpt><trkpt lat="43.4372183" lon="11.419394"><ele>323.0</ele><time>2026-04-04T09:17:25.933Z</time></trkpt><trkpt lat="43.4369918" lon="11.4193502"><ele>321.5</ele><time>2026-04-04T09:17:26.923Z</time></trkpt><trkpt lat="43.4367575" lon="11.4193062"><ele>320.0</ele><time>2026-04-04T09:17:27.929Z</time></trkpt><trkpt lat="43.4365296" lon="11.4192631"><ele>318.0</ele><time>2026-04-04T09:17:28.926Z</time></trkpt><trkpt lat="43.4363009" lon="11.4192205"><ele>316.0</ele><time>2026-04-04T09:17:29.931Z</time></trkpt><trkpt lat="43.436072" lon="11.4191803"><ele>316.0</ele><time>2026-04-04T09:17:30.93Z</time></trkpt><trkpt lat="43.4358532" lon="11.4191404"><ele>316.0</ele><time>2026-04-04T09:17:31.93Z</time></trkpt><trkpt lat="43.4356417" lon="11.4190977"><ele>316.0</ele><time>2026-04-04T09:17:32.922Z</time></trkpt><trkpt lat="43.4354636" lon="11.4190772"><ele>317.0</ele><time>2026-04-04T09:17:33.922Z</time></trkpt><trkpt lat="43.4353047" lon="11.4190849"><ele>318.0</ele><time>2026-04-04T09:17:34.93Z</time></trkpt><trkpt lat="43.4351651" lon="11.4191371"><ele>319.0</ele><time>2026-04-04T09:17:35.927Z</time></trkpt><trkpt lat="43.4350296" lon="11.4192408"><ele>319.0</ele><time>2026-04-04T09:17:36.928Z</time></trkpt><trkpt lat="43.4348937" lon="11.4193718"><ele>319.0</ele><time>2026-04-04T09:17:37.925Z</time></trkpt><trkpt lat="43.4347505" lon="11.4195035"><ele>319.0</ele><time>2026-04-04T09:17:38.925Z</time></trkpt><trkpt lat="43.4346098" lon="11.419632"><ele>318.0</ele><time>2026-04-04T09:17:39.92Z</time></trkpt><trkpt lat="43.4344691" lon="11.4197895"><ele>317.0</ele><time>2026-04-04T09:17:40.93Z</time></trkpt><trkpt lat="43.4343273" lon="11.4199547"><ele>316.0</ele><time>2026-04-04T09:17:41.927Z</time></trkpt><trkpt lat="43.4341847" lon="11.4201225"><ele>316.0</ele><time>2026-04-04T09:17:42.921Z</time></trkpt><trkpt lat="43.4340391" lon="11.4202852"><ele>316.0</ele><time>2026-04-04T09:17:43.925Z</time></trkpt><trkpt lat="43.4339029" lon="11.4204519"><ele>316.0</ele><time>2026-04-04T09:17:44.93Z</time></trkpt><trkpt lat="43.4337767" lon="11.4206062"><ele>313.40000000000003</ele><time>2026-04-04T09:17:45.941Z</time></trkpt><trkpt lat="43.4336788" lon="11.4207277"><ele>310.8</ele><time>2026-04-04T09:17:46.931Z</time></trkpt><trkpt lat="43.4335838" lon="11.420815"><ele>308.20000000000005</ele><time>2026-04-04T09:17:47.923Z</time></trkpt><trkpt lat="43.4334902" lon="11.4208731"><ele>305.6</ele><time>2026-04-04T09:17:48.926Z</time></trkpt><trkpt lat="43.4333935" lon="11.4208791"><ele>303.0</ele><time>2026-04-04T09:17:49.931Z</time></trkpt><trkpt lat="43.4332987" lon="11.4208261"><ele>303.0</ele><time>2026-04-04T09:17:50.934Z</time></trkpt><trkpt lat="43.4332166" lon="11.4207367"><ele>303.0</ele><time>2026-04-04T09:17:51.923Z</time></trkpt><trkpt lat="43.4331428" lon="11.4206245"><ele>303.0</ele><time>2026-04-04T09:17:52.922Z</time></trkpt><trkpt lat="43.4330812" lon="11.4204877"><ele>303.0</ele><time>2026-04-04T09:17:53.928Z</time></trkpt><trkpt lat="43.4330192" lon="11.4203257"><ele>303.25</ele><time>2026-04-04T09:17:54.932Z</time></trkpt><trkpt lat="43.4329536" lon="11.4201547"><ele>303.5</ele><time>2026-04-04T09:17:55.929Z</time></trkpt><trkpt lat="43.4328825" lon="11.4199816"><ele>303.75</ele><time>2026-04-04T09:17:56.93Z</time></trkpt><trkpt lat="43.4328046" lon="11.4198071"><ele>304.0</ele><time>2026-04-04T09:17:57.928Z</time></trkpt><trkpt lat="43.4327199" lon="11.4196313"><ele>304.0</ele><time>2026-04-04T09:17:58.929Z</time></trkpt><trkpt lat="43.4326231" lon="11.4194577"><ele>304.0</ele><time>2026-04-04T09:17:59.927Z</time></trkpt><trkpt lat="43.4325155" lon="11.4192818"><ele>304.0</ele><time>2026-04-04T09:18:00.936Z</time></trkpt><trkpt lat="43.4323995" lon="11.4191081"><ele>304.0</ele><time>2026-04-04T09:18:01.931Z</time></trkpt><trkpt lat="43.4322835" lon="11.4189319"><ele>304.0</ele><time>2026-04-04T09:18:02.933Z</time></trkpt><trkpt lat="43.4321645" lon="11.4187544"><ele>304.0</ele><time>2026-04-04T09:18:03.943Z</time></trkpt><trkpt lat="43.4320439" lon="11.4185647"><ele>302.3333333333333</ele><time>2026-04-04T09:18:04.932Z</time></trkpt><trkpt lat="43.4319255" lon="11.4183854"><ele>300.6666666666667</ele><time>2026-04-04T09:18:05.929Z</time></trkpt><trkpt lat="43.431811" lon="11.4182107"><ele>299.0</ele><time>2026-04-04T09:18:06.931Z</time></trkpt><trkpt lat="43.4317036" lon="11.4180494"><ele>301.75</ele><time>2026-04-04T09:18:07.933Z</time></trkpt><trkpt lat="43.4316111" lon="11.4179069"><ele>304.5</ele><time>2026-04-04T09:18:08.931Z</time></trkpt><trkpt lat="43.4315221" lon="11.4177755"><ele>307.25</ele><time>2026-04-04T09:18:09.93Z</time></trkpt><trkpt lat="43.4314456" lon="11.4176765"><ele>310.0</ele><time>2026-04-04T09:18:10.932Z</time></trkpt><trkpt lat="43.4313807" lon="11.4176016"><ele>310.0</ele><time>2026-04-04T09:18:11.932Z</time></trkpt><trkpt lat="43.4313157" lon="11.4175679"><ele>310.0</ele><time>2026-04-04T09:18:12.928Z</time></trkpt><trkpt lat="43.4312399" lon="11.4175893"><ele>310.0</ele><time>2026-04-04T09:18:13.935Z</time></trkpt><trkpt lat="43.4311619" lon="11.4176389"><ele>310.0</ele><time>2026-04-04T09:18:14.936Z</time></trkpt><trkpt lat="43.4310855" lon="11.4176986"><ele>310.0</ele><time>2026-04-04T09:18:15.926Z</time></trkpt><trkpt lat="43.4309993" lon="11.4177655"><ele>310.0</ele><time>2026-04-04T09:18:16.922Z</time></trkpt><trkpt lat="43.4308951" lon="11.4178371"><ele>308.25</ele><time>2026-04-04T09:18:17.929Z</time></trkpt><trkpt lat="43.4307826" lon="11.4179114"><ele>306.5</ele><time>2026-04-04T09:18:18.926Z</time></trkpt><trkpt lat="43.4306632" lon="11.417986"><ele>304.75</ele><time>2026-04-04T09:18:19.927Z</time></trkpt><trkpt lat="43.4305403" lon="11.4180759"><ele>303.0</ele><time>2026-04-04T09:18:20.929Z</time></trkpt><trkpt lat="43.4304165" lon="11.4181753"><ele>302.6666666666667</ele><time>2026-04-04T09:18:21.941Z</time></trkpt><trkpt lat="43.4302902" lon="11.4182805"><ele>302.33333333333337</ele><time>2026-04-04T09:18:22.926Z</time></trkpt><trkpt lat="43.430152" lon="11.4183849"><ele>302.0</ele><time>2026-04-04T09:18:23.928Z</time></trkpt><trkpt lat="43.4300184" lon="11.4184871"><ele>302.0</ele><time>2026-04-04T09:18:24.931Z</time></trkpt><trkpt lat="43.4298777" lon="11.4185895"><ele>302.0</ele><time>2026-04-04T09:18:25.93Z</time></trkpt><trkpt lat="43.4297327" lon="11.4186976"><ele>302.0</ele><time>2026-04-04T09:18:26.931Z</time></trkpt><trkpt lat="43.4295881" lon="11.4188052"><ele>304.6666666666667</ele><time>2026-04-04T09:18:27.93Z</time></trkpt><trkpt lat="43.4294373" lon="11.4189004"><ele>307.3333333333333</ele><time>2026-04-04T09:18:28.941Z</time></trkpt><trkpt lat="43.429283" lon="11.4189889"><ele>310.0</ele><time>2026-04-04T09:18:29.926Z</time></trkpt><trkpt lat="43.4291267" lon="11.4190654"><ele>310.0</ele><time>2026-04-04T09:18:30.922Z</time></trkpt><trkpt lat="43.4289571" lon="11.4191299"><ele>310.0</ele><time>2026-04-04T09:18:31.928Z</time></trkpt><trkpt lat="43.4287928" lon="11.4191681"><ele>310.0</ele><time>2026-04-04T09:18:32.928Z</time></trkpt><trkpt lat="43.4286327" lon="11.419202"><ele>310.3333333333333</ele><time>2026-04-04T09:18:33.933Z</time></trkpt><trkpt lat="43.4284831" lon="11.4192566"><ele>310.6666666666667</ele><time>2026-04-04T09:18:34.922Z</time></trkpt><trkpt lat="43.4283415" lon="11.419328"><ele>311.0</ele><time>2026-04-04T09:18:35.93Z</time></trkpt><trkpt lat="43.4282027" lon="11.4194291"><ele>311.0</ele><time>2026-04-04T09:18:36.929Z</time></trkpt><trkpt lat="43.4280703" lon="11.4195616"><ele>311.0</ele><time>2026-04-04T09:18:37.926Z</time></trkpt><trkpt lat="43.4279507" lon="11.4197174"><ele>311.0</ele><time>2026-04-04T09:18:38.925Z</time></trkpt><trkpt lat="43.4278458" lon="11.4198782"><ele>311.0</ele><time>2026-04-04T09:18:39.927Z</time></trkpt><trkpt lat="43.4277693" lon="11.4200304"><ele>311.0</ele><time>2026-04-04T09:18:40.926Z</time></trkpt><trkpt lat="43.4277241" lon="11.420178"><ele>311.0</ele><time>2026-04-04T09:18:41.936Z</time></trkpt><trkpt lat="43.4277288" lon="11.4203497"><ele>311.0</ele><time>2026-04-04T09:18:42.927Z</time></trkpt><trkpt lat="43.4277588" lon="11.420526"><ele>311.0</ele><time>2026-04-04T09:18:43.934Z</time></trkpt><trkpt lat="43.4278011" lon="11.4207099"><ele>311.0</ele><time>2026-04-04T09:18:44.927Z</time></trkpt><trkpt lat="43.4278357" lon="11.4209077"><ele>311.0</ele><time>2026-04-04T09:18:45.937Z</time></trkpt><trkpt lat="43.4278576" lon="11.4211084"><ele>311.0</ele><time>2026-04-04T09:18:46.927Z</time></trkpt><trkpt lat="43.4278658" lon="11.4213413"><ele>310.6666666666667</ele><time>2026-04-04T09:18:47.937Z</time></trkpt><trkpt lat="43.4278504" lon="11.421569"><ele>310.3333333333333</ele><time>2026-04-04T09:18:48.926Z</time></trkpt><trkpt lat="43.427823" lon="11.4217991"><ele>310.0</ele><time>2026-04-04T09:18:49.931Z</time></trkpt><trkpt lat="43.4277809" lon="11.4220197"><ele>312.66666666666663</ele><time>2026-04-04T09:18:50.923Z</time></trkpt><trkpt lat="43.4277222" lon="11.4222261"><ele>315.3333333333333</ele><time>2026-04-04T09:18:51.933Z</time></trkpt><trkpt lat="43.4276479" lon="11.4224085"><ele>318.0</ele><time>2026-04-04T09:18:52.924Z</time></trkpt><trkpt lat="43.4275624" lon="11.4225591"><ele>318.0</ele><time>2026-04-04T09:18:53.929Z</time></trkpt><trkpt lat="43.4274632" lon="11.4226671"><ele>318.0</ele><time>2026-04-04T09:18:54.925Z</time></trkpt><trkpt lat="43.4273401" lon="11.4227294"><ele>318.0</ele><time>2026-04-04T09:18:55.928Z</time></trkpt><trkpt lat="43.4272007" lon="11.4227659"><ele>318.0</ele><time>2026-04-04T09:18:56.927Z</time></trkpt><trkpt lat="43.4270587" lon="11.4227863"><ele>316.6666666666667</ele><time>2026-04-04T09:18:57.923Z</time></trkpt><trkpt lat="43.4269125" lon="11.4228219"><ele>315.33333333333337</ele><time>2026-04-04T09:18:58.929Z</time></trkpt><trkpt lat="43.4267602" lon="11.4228436"><ele>314.0</ele><time>2026-04-04T09:18:59.925Z</time></trkpt><trkpt lat="43.426602" lon="11.422878"><ele>314.0</ele><time>2026-04-04T09:19:00.927Z</time></trkpt><trkpt lat="43.4264443" lon="11.4229324"><ele>314.0</ele><time>2026-04-04T09:19:01.925Z</time></trkpt><trkpt lat="43.426312" lon="11.4230093"><ele>314.0</ele><time>2026-04-04T09:19:02.936Z</time></trkpt><trkpt lat="43.4262168" lon="11.4231135"><ele>314.0</ele><time>2026-04-04T09:19:03.936Z</time></trkpt><trkpt lat="43.4261688" lon="11.4232514"><ele>314.25</ele><time>2026-04-04T09:19:04.923Z</time></trkpt><trkpt lat="43.4261632" lon="11.4234116"><ele>314.5</ele><time>2026-04-04T09:19:05.928Z</time></trkpt><trkpt lat="43.4261886" lon="11.4235672"><ele>314.75</ele><time>2026-04-04T09:19:06.937Z</time></trkpt><trkpt lat="43.426224" lon="11.4237405"><ele>315.0</ele><time>2026-04-04T09:19:07.936Z</time></trkpt><trkpt lat="43.4262699" lon="11.423926"><ele>321.0</ele><time>2026-04-04T09:19:08.931Z</time></trkpt><trkpt lat="43.4263196" lon="11.4241169"><ele>327.0</ele><time>2026-04-04T09:19:09.932Z</time></trkpt><trkpt lat="43.4263699" lon="11.4243357"><ele>333.0</ele><time>2026-04-04T09:19:10.933Z</time></trkpt><trkpt lat="43.4264141" lon="11.4245589"><ele>331.6666666666667</ele><time>2026-04-04T09:19:11.925Z</time></trkpt><trkpt lat="43.4264637" lon="11.4247882"><ele>330.33333333333337</ele><time>2026-04-04T09:19:12.935Z</time></trkpt><trkpt lat="43.4265058" lon="11.4250199"><ele>329.0</ele><time>2026-04-04T09:19:13.93Z</time></trkpt><trkpt lat="43.4265464" lon="11.4252586"><ele>329.33333333333337</ele><time>2026-04-04T09:19:14.926Z</time></trkpt><trkpt lat="43.4265641" lon="11.4254998"><ele>329.6666666666667</ele><time>2026-04-04T09:19:15.93Z</time></trkpt><trkpt lat="43.4265622" lon="11.4257446"><ele>330.0</ele><time>2026-04-04T09:19:16.923Z</time></trkpt><trkpt lat="43.42654" lon="11.4259881"><ele>330.0</ele><time>2026-04-04T09:19:17.927Z</time></trkpt><trkpt lat="43.4265027" lon="11.4262324"><ele>330.0</ele><time>2026-04-04T09:19:18.934Z</time></trkpt><trkpt lat="43.4264497" lon="11.4264803"><ele>330.0</ele><time>2026-04-04T09:19:19.932Z</time></trkpt><trkpt lat="43.4263873" lon="11.4267116"><ele>330.3333333333333</ele><time>2026-04-04T09:19:20.928Z</time></trkpt><trkpt lat="43.4263082" lon="11.4269235"><ele>330.66666666666663</ele><time>2026-04-04T09:19:21.929Z</time></trkpt><trkpt lat="43.4262196" lon="11.4270977"><ele>331.0</ele><time>2026-04-04T09:19:22.935Z</time></trkpt><trkpt lat="43.4261228" lon="11.4272405"><ele>330.0</ele><time>2026-04-04T09:19:23.928Z</time></trkpt><trkpt lat="43.4260179" lon="11.4273701"><ele>329.0</ele><time>2026-04-04T09:19:24.933Z</time></trkpt><trkpt lat="43.4259445" lon="11.4275215"><ele>328.0</ele><time>2026-04-04T09:19:25.929Z</time></trkpt><trkpt lat="43.4259186" lon="11.4277096"><ele>327.0</ele><time>2026-04-04T09:19:26.927Z</time></trkpt><trkpt lat="43.4259151" lon="11.4279201"><ele>327.3333333333333</ele><time>2026-04-04T09:19:27.933Z</time></trkpt><trkpt lat="43.4259155" lon="11.4281369"><ele>327.66666666666663</ele><time>2026-04-04T09:19:28.926Z</time></trkpt><trkpt lat="43.4259202" lon="11.4283725"><ele>328.0</ele><time>2026-04-04T09:19:29.928Z</time></trkpt><trkpt lat="43.4259269" lon="11.4286089"><ele>329.3333333333333</ele><time>2026-04-04T09:19:30.935Z</time></trkpt><trkpt lat="43.4259305" lon="11.4288589"><ele>330.6666666666667</ele><time>2026-04-04T09:19:31.927Z</time></trkpt><trkpt lat="43.4259317" lon="11.4291152"><ele>332.0</ele><time>2026-04-04T09:19:32.932Z</time></trkpt><trkpt lat="43.425932" lon="11.4293782"><ele>332.0</ele><time>2026-04-04T09:19:33.931Z</time></trkpt><trkpt lat="43.4259282" lon="11.429642"><ele>332.0</ele><time>2026-04-04T09:19:34.928Z</time></trkpt><trkpt lat="43.4259308" lon="11.4299062"><ele>332.0</ele><time>2026-04-04T09:19:35.933Z</time></trkpt><trkpt lat="43.4259236" lon="11.4301618"><ele>332.0</ele><time>2026-04-04T09:19:36.928Z</time></trkpt><trkpt lat="43.4258977" lon="11.4304112"><ele>332.0</ele><time>2026-04-04T09:19:37.937Z</time></trkpt><trkpt lat="43.4258416" lon="11.4306479"><ele>332.0</ele><time>2026-04-04T09:19:38.932Z</time></trkpt><trkpt lat="43.4257612" lon="11.4308846"><ele>332.6666666666667</ele><time>2026-04-04T09:19:39.937Z</time></trkpt><trkpt lat="43.4256698" lon="11.4311188"><ele>333.3333333333333</ele><time>2026-04-04T09:19:40.931Z</time></trkpt><trkpt lat="43.4255848" lon="11.4313544"><ele>334.0</ele><time>2026-04-04T09:19:41.933Z</time></trkpt><trkpt lat="43.4255119" lon="11.4315589"><ele>335.5</ele><time>2026-04-04T09:19:42.929Z</time></trkpt><trkpt lat="43.4254504" lon="11.4317434"><ele>337.0</ele><time>2026-04-04T09:19:43.928Z</time></trkpt><trkpt lat="43.4253916" lon="11.4319095"><ele>338.5</ele><time>2026-04-04T09:19:44.934Z</time></trkpt><trkpt lat="43.425334" lon="11.4320485"><ele>340.0</ele><time>2026-04-04T09:19:45.928Z</time></trkpt><trkpt lat="43.4252688" lon="11.4321507"><ele>340.0</ele><time>2026-04-04T09:19:46.938Z</time></trkpt><trkpt lat="43.4251823" lon="11.4321978"><ele>340.0</ele><time>2026-04-04T09:19:47.932Z</time></trkpt><trkpt lat="43.425097" lon="11.4322318"><ele>340.0</ele><time>2026-04-04T09:19:48.925Z</time></trkpt><trkpt lat="43.4250129" lon="11.4323095"><ele>340.0</ele><time>2026-04-04T09:19:49.919Z</time></trkpt><trkpt lat="43.424937" lon="11.4324517"><ele>340.0</ele><time>2026-04-04T09:19:50.921Z</time></trkpt><trkpt lat="43.4248668" lon="11.4326178"><ele>340.0</ele><time>2026-04-04T09:19:51.924Z</time></trkpt><trkpt lat="43.4248022" lon="11.4328054"><ele>340.0</ele><time>2026-04-04T09:19:52.923Z</time></trkpt><trkpt lat="43.4247372" lon="11.432995"><ele>340.0</ele><time>2026-04-04T09:19:53.923Z</time></trkpt><trkpt lat="43.4246607" lon="11.4331872"><ele>348.0</ele><time>2026-04-04T09:19:54.926Z</time></trkpt><trkpt lat="43.424586" lon="11.4333899"><ele>356.0</ele><time>2026-04-04T09:19:55.927Z</time></trkpt><trkpt lat="43.4245094" lon="11.4336005"><ele>364.0</ele><time>2026-04-04T09:19:56.926Z</time></trkpt><trkpt lat="43.4244417" lon="11.4338008"><ele>360.75</ele><time>2026-04-04T09:19:57.928Z</time></trkpt><trkpt lat="43.4243985" lon="11.434017"><ele>357.5</ele><time>2026-04-04T09:19:58.924Z</time></trkpt><trkpt lat="43.4243749" lon="11.4342186"><ele>354.25</ele><time>2026-04-04T09:19:59.929Z</time></trkpt><trkpt lat="43.4243656" lon="11.4343996"><ele>351.0</ele><time>2026-04-04T09:20:00.932Z</time></trkpt><trkpt lat="43.4243649" lon="11.4345649"><ele>350.5</ele><time>2026-04-04T09:20:01.93Z</time></trkpt><trkpt lat="43.4243992" lon="11.4347198"><ele>350.0</ele><time>2026-04-04T09:20:02.925Z</time></trkpt><trkpt lat="43.4244558" lon="11.4348604"><ele>349.5</ele><time>2026-04-04T09:20:03.931Z</time></trkpt><trkpt lat="43.4245496" lon="11.4349889"><ele>349.0</ele><time>2026-04-04T09:20:04.927Z</time></trkpt><trkpt lat="43.4246694" lon="11.4350901"><ele>347.0</ele><time>2026-04-04T09:20:05.93Z</time></trkpt><trkpt lat="43.4248025" lon="11.435177"><ele>345.0</ele><time>2026-04-04T09:20:06.915Z</time></trkpt><trkpt lat="43.4249417" lon="11.4352676"><ele>343.0</ele><time>2026-04-04T09:20:07.928Z</time></trkpt><trkpt lat="43.4250883" lon="11.4353667"><ele>343.0</ele><time>2026-04-04T09:20:08.936Z</time></trkpt><trkpt lat="43.4252133" lon="11.435461"><ele>343.0</ele><time>2026-04-04T09:20:09.927Z</time></trkpt><trkpt lat="43.4252965" lon="11.4355771"><ele>343.0</ele><time>2026-04-04T09:20:10.921Z</time></trkpt><trkpt lat="43.4253348" lon="11.4356903"><ele>343.0</ele><time>2026-04-04T09:20:11.932Z</time></trkpt><trkpt lat="43.4253304" lon="11.435815"><ele>343.0</ele><time>2026-04-04T09:20:12.93Z</time></trkpt><trkpt lat="43.4252872" lon="11.4359358"><ele>345.25</ele><time>2026-04-04T09:20:13.932Z</time></trkpt><trkpt lat="43.4252157" lon="11.4360472"><ele>347.5</ele><time>2026-04-04T09:20:14.929Z</time></trkpt><trkpt lat="43.4251292" lon="11.4361673"><ele>349.75</ele><time>2026-04-04T09:20:15.93Z</time></trkpt><trkpt lat="43.4250551" lon="11.4363122"><ele>352.0</ele><time>2026-04-04T09:20:16.929Z</time></trkpt><trkpt lat="43.4249957" lon="11.4364774"><ele>352.75</ele><time>2026-04-04T09:20:17.93Z</time></trkpt><trkpt lat="43.4249418" lon="11.4366483"><ele>353.5</ele><time>2026-04-04T09:20:18.929Z</time></trkpt><trkpt lat="43.4249148" lon="11.436848"><ele>354.25</ele><time>2026-04-04T09:20:19.923Z</time></trkpt><trkpt lat="43.4249021" lon="11.4370739"><ele>355.0</ele><time>2026-04-04T09:20:20.932Z</time></trkpt><trkpt lat="43.4248922" lon="11.4372973"><ele>355.0</ele><time>2026-04-04T09:20:21.943Z</time></trkpt><trkpt lat="43.4249" lon="11.4375369"><ele>355.0</ele><time>2026-04-04T09:20:22.93Z</time></trkpt><trkpt lat="43.4249327" lon="11.4377907"><ele>355.0</ele><time>2026-04-04T09:20:23.93Z</time></trkpt><trkpt lat="43.4249748" lon="11.4380334"><ele>357.0</ele><time>2026-04-04T09:20:24.937Z</time></trkpt><trkpt lat="43.4250291" lon="11.4382826"><ele>359.0</ele><time>2026-04-04T09:20:25.934Z</time></trkpt><trkpt lat="43.4250941" lon="11.4385274"><ele>361.0</ele><time>2026-04-04T09:20:26.933Z</time></trkpt><trkpt lat="43.425151" lon="11.4387402"><ele>362.75</ele><time>2026-04-04T09:20:27.929Z</time></trkpt><trkpt lat="43.4252012" lon="11.4389415"><ele>364.5</ele><time>2026-04-04T09:20:28.935Z</time></trkpt><trkpt lat="43.4252708" lon="11.4391173"><ele>366.25</ele><time>2026-04-04T09:20:29.924Z</time></trkpt><trkpt lat="43.4253545" lon="11.4392399"><ele>368.0</ele><time>2026-04-04T09:20:30.929Z</time></trkpt><trkpt lat="43.4254737" lon="11.4393159"><ele>364.75</ele><time>2026-04-04T09:20:31.931Z</time></trkpt><trkpt lat="43.4256009" lon="11.4393276"><ele>361.5</ele><time>2026-04-04T09:20:32.927Z</time></trkpt><trkpt lat="43.4257333" lon="11.439331"><ele>358.25</ele><time>2026-04-04T09:20:33.931Z</time></trkpt><trkpt lat="43.4258453" lon="11.4393682"><ele>355.0</ele><time>2026-04-04T09:20:34.928Z</time></trkpt><trkpt lat="43.4259567" lon="11.4394258"><ele>355.0</ele><time>2026-04-04T09:20:35.933Z</time></trkpt><trkpt lat="43.4260433" lon="11.4395381"><ele>355.0</ele><time>2026-04-04T09:20:36.932Z</time></trkpt><trkpt lat="43.4261007" lon="11.4397001"><ele>355.0</ele><time>2026-04-04T09:20:37.929Z</time></trkpt><trkpt lat="43.4261203" lon="11.4398757"><ele>355.0</ele><time>2026-04-04T09:20:38.925Z</time></trkpt><trkpt lat="43.4261246" lon="11.4400581"><ele>356.5</ele><time>2026-04-04T09:20:39.927Z</time></trkpt><trkpt lat="43.4261258" lon="11.4402482"><ele>358.0</ele><time>2026-04-04T09:20:40.932Z</time></trkpt><trkpt lat="43.4261367" lon="11.4404535"><ele>359.5</ele><time>2026-04-04T09:20:41.933Z</time></trkpt><trkpt lat="43.426144" lon="11.4406652"><ele>361.0</ele><time>2026-04-04T09:20:42.928Z</time></trkpt><trkpt lat="43.4261534" lon="11.4408701"><ele>361.75</ele><time>2026-04-04T09:20:43.933Z</time></trkpt><trkpt lat="43.4261563" lon="11.4410706"><ele>362.5</ele><time>2026-04-04T09:20:44.93Z</time></trkpt><trkpt lat="43.4261443" lon="11.4412342"><ele>363.25</ele><time>2026-04-04T09:20:45.942Z</time></trkpt><trkpt lat="43.4261067" lon="11.4413669"><ele>364.0</ele><time>2026-04-04T09:20:46.928Z</time></trkpt><trkpt lat="43.4260225" lon="11.4414702"><ele>364.0</ele><time>2026-04-04T09:20:47.933Z</time></trkpt><trkpt lat="43.4259134" lon="11.4415544"><ele>364.0</ele><time>2026-04-04T09:20:48.93Z</time></trkpt><trkpt lat="43.4257835" lon="11.4416172"><ele>364.0</ele><time>2026-04-04T09:20:49.921Z</time></trkpt><trkpt lat="43.4256512" lon="11.4416798"><ele>364.0</ele><time>2026-04-04T09:20:50.932Z</time></trkpt><trkpt lat="43.4255133" lon="11.4417406"><ele>365.66666666666663</ele><time>2026-04-04T09:20:51.932Z</time></trkpt><trkpt lat="43.4253766" lon="11.4418308"><ele>367.3333333333333</ele><time>2026-04-04T09:20:52.93Z</time></trkpt><trkpt lat="43.425249" lon="11.4419589"><ele>369.0</ele><time>2026-04-04T09:20:53.936Z</time></trkpt><trkpt lat="43.4251395" lon="11.4421435"><ele>369.0</ele><time>2026-04-04T09:20:54.932Z</time></trkpt><trkpt lat="43.4250445" lon="11.4423597"><ele>369.0</ele><time>2026-04-04T09:20:55.942Z</time></trkpt><trkpt lat="43.4249701" lon="11.4425821"><ele>369.0</ele><time>2026-04-04T09:20:56.929Z</time></trkpt><trkpt lat="43.4249056" lon="11.4428182"><ele>368.6666666666667</ele><time>2026-04-04T09:20:57.929Z</time></trkpt><trkpt lat="43.4248688" lon="11.4430615"><ele>368.33333333333337</ele><time>2026-04-04T09:20:58.936Z</time></trkpt><trkpt lat="43.4248595" lon="11.4433164"><ele>368.0</ele><time>2026-04-04T09:20:59.941Z</time></trkpt><trkpt lat="43.4248487" lon="11.4435526"><ele>368.0</ele><time>2026-04-04T09:21:00.929Z</time></trkpt><trkpt lat="43.424805" lon="11.4437637"><ele>368.0</ele><time>2026-04-04T09:21:01.931Z</time></trkpt><trkpt lat="43.4247412" lon="11.4439344"><ele>368.0</ele><time>2026-04-04T09:21:02.925Z</time></trkpt><trkpt lat="43.4246467" lon="11.4440859"><ele>368.0</ele><time>2026-04-04T09:21:03.935Z</time></trkpt><trkpt lat="43.4245271" lon="11.4442344"><ele>372.0</ele><time>2026-04-04T09:21:04.931Z</time></trkpt><trkpt lat="43.4244193" lon="11.4443884"><ele>376.0</ele><time>2026-04-04T09:21:05.931Z</time></trkpt><trkpt lat="43.4243159" lon="11.444571"><ele>380.0</ele><time>2026-04-04T09:21:06.928Z</time></trkpt><trkpt lat="43.4242262" lon="11.4447688"><ele>380.0</ele><time>2026-04-04T09:21:07.94Z</time></trkpt><trkpt lat="43.4241395" lon="11.444973"><ele>380.0</ele><time>2026-04-04T09:21:08.928Z</time></trkpt><trkpt lat="43.4240554" lon="11.4451779"><ele>380.0</ele><time>2026-04-04T09:21:09.93Z</time></trkpt><trkpt lat="43.4239831" lon="11.4453765"><ele>380.0</ele><time>2026-04-04T09:21:10.933Z</time></trkpt><trkpt lat="43.4239189" lon="11.4455455"><ele>380.0</ele><time>2026-04-04T09:21:11.93Z</time></trkpt><trkpt lat="43.4238724" lon="11.4457074"><ele>380.0</ele><time>2026-04-04T09:21:12.927Z</time></trkpt><trkpt lat="43.4238632" lon="11.4458595"><ele>380.0</ele><time>2026-04-04T09:21:13.931Z</time></trkpt><trkpt lat="43.4239051" lon="11.4460014"><ele>380.0</ele><time>2026-04-04T09:21:14.93Z</time></trkpt><trkpt lat="43.4239808" lon="11.446099"><ele>380.0</ele><time>2026-04-04T09:21:15.931Z</time></trkpt><trkpt lat="43.4240861" lon="11.4461701"><ele>380.0</ele><time>2026-04-04T09:21:16.93Z</time></trkpt><trkpt lat="43.4242056" lon="11.4462157"><ele>380.0</ele><time>2026-04-04T09:21:17.927Z</time></trkpt><trkpt lat="43.424325" lon="11.4462868"><ele>382.5</ele><time>2026-04-04T09:21:18.926Z</time></trkpt><trkpt lat="43.4244169" lon="11.4463764"><ele>385.0</ele><time>2026-04-04T09:21:19.923Z</time></trkpt><trkpt lat="43.4244672" lon="11.446527"><ele>387.5</ele><time>2026-04-04T09:21:20.928Z</time></trkpt><trkpt lat="43.4244896" lon="11.4467123"><ele>390.0</ele><time>2026-04-04T09:21:21.935Z</time></trkpt><trkpt lat="43.4244893" lon="11.4469041"><ele>390.0</ele><time>2026-04-04T09:21:22.924Z</time></trkpt><trkpt lat="43.4244665" lon="11.4470899"><ele>390.0</ele><time>2026-04-04T09:21:23.927Z</time></trkpt><trkpt lat="43.4244253" lon="11.4472725"><ele>390.0</ele><time>2026-04-04T09:21:24.93Z</time></trkpt><trkpt lat="43.4243643" lon="11.4474427"><ele>390.0</ele><time>2026-04-04T09:21:25.931Z</time></trkpt><trkpt lat="43.4242744" lon="11.4475828"><ele>390.66666666666663</ele><time>2026-04-04T09:21:26.928Z</time></trkpt><trkpt lat="43.4241479" lon="11.4477146"><ele>391.3333333333333</ele><time>2026-04-04T09:21:27.931Z</time></trkpt><trkpt lat="43.4240185" lon="11.4478486"><ele>392.0</ele><time>2026-04-04T09:21:28.93Z</time></trkpt><trkpt lat="43.4239153" lon="11.4479674"><ele>392.0</ele><time>2026-04-04T09:21:29.93Z</time></trkpt><trkpt lat="43.4238511" lon="11.4481107"><ele>392.0</ele><time>2026-04-04T09:21:30.931Z</time></trkpt><trkpt lat="43.423832" lon="11.4482751"><ele>392.0</ele><time>2026-04-04T09:21:31.932Z</time></trkpt><trkpt lat="43.4238432" lon="11.4484628"><ele>392.0</ele><time>2026-04-04T09:21:32.933Z</time></trkpt><trkpt lat="43.4238854" lon="11.4486476"><ele>392.0</ele><time>2026-04-04T09:21:33.937Z</time></trkpt><trkpt lat="43.4239411" lon="11.4488322"><ele>392.0</ele><time>2026-04-04T09:21:34.926Z</time></trkpt><trkpt lat="43.423991" lon="11.4490143"><ele>392.0</ele><time>2026-04-04T09:21:35.94Z</time></trkpt><trkpt lat="43.4240137" lon="11.4491981"><ele>392.0</ele><time>2026-04-04T09:21:36.932Z</time></trkpt><trkpt lat="43.4240086" lon="11.4493799"><ele>392.0</ele><time>2026-04-04T09:21:37.933Z</time></trkpt><trkpt lat="43.42398" lon="11.4495652"><ele>392.0</ele><time>2026-04-04T09:21:38.941Z</time></trkpt><trkpt lat="43.4239263" lon="11.4497511"><ele>392.0</ele><time>2026-04-04T09:21:39.934Z</time></trkpt><trkpt lat="43.4238485" lon="11.4499195"><ele>392.0</ele><time>2026-04-04T09:21:40.938Z</time></trkpt><trkpt lat="43.4237487" lon="11.4500793"><ele>393.66666666666663</ele><time>2026-04-04T09:21:41.931Z</time></trkpt><trkpt lat="43.423639" lon="11.4502339"><ele>395.33333333333337</ele><time>2026-04-04T09:21:42.929Z</time></trkpt><trkpt lat="43.4235209" lon="11.4503868"><ele>397.0</ele><time>2026-04-04T09:21:43.935Z</time></trkpt><trkpt lat="43.4234035" lon="11.450535"><ele>397.0</ele><time>2026-04-04T09:21:44.928Z</time></trkpt><trkpt lat="43.4232815" lon="11.4506698"><ele>397.0</ele><time>2026-04-04T09:21:45.933Z</time></trkpt><trkpt lat="43.4231467" lon="11.4507962"><ele>397.0</ele><time>2026-04-04T09:21:46.928Z</time></trkpt><trkpt lat="43.4230183" lon="11.4509249"><ele>404.6666666666667</ele><time>2026-04-04T09:21:47.928Z</time></trkpt><trkpt lat="43.4228878" lon="11.4510473"><ele>412.33333333333337</ele><time>2026-04-04T09:21:48.934Z</time></trkpt><trkpt lat="43.4227467" lon="11.4511594"><ele>420.0</ele><time>2026-04-04T09:21:49.935Z</time></trkpt><trkpt lat="43.4226014" lon="11.4512562"><ele>422.66666666666663</ele><time>2026-04-04T09:21:50.936Z</time></trkpt><trkpt lat="43.4224423" lon="11.4513183"><ele>425.3333333333333</ele><time>2026-04-04T09:21:51.925Z</time></trkpt><trkpt lat="43.4222816" lon="11.4513341"><ele>428.0</ele><time>2026-04-04T09:21:52.931Z</time></trkpt><trkpt lat="43.4221388" lon="11.4513454"><ele>428.0</ele><time>2026-04-04T09:21:53.925Z</time></trkpt><trkpt lat="43.4219997" lon="11.4513571"><ele>428.0</ele><time>2026-04-04T09:21:54.936Z</time></trkpt><trkpt lat="43.4218961" lon="11.4514005"><ele>428.0</ele><time>2026-04-04T09:21:55.935Z</time></trkpt><trkpt lat="43.4218259" lon="11.451513"><ele>428.0</ele><time>2026-04-04T09:21:56.929Z</time></trkpt><trkpt lat="43.4217721" lon="11.4516746"><ele>428.0</ele><time>2026-04-04T09:21:57.921Z</time></trkpt><trkpt lat="43.4217641" lon="11.4518509"><ele>428.0</ele><time>2026-04-04T09:21:58.922Z</time></trkpt><trkpt lat="43.421768" lon="11.452024"><ele>428.0</ele><time>2026-04-04T09:21:59.928Z</time></trkpt><trkpt lat="43.4217511" lon="11.4521952"><ele>428.0</ele><time>2026-04-04T09:22:00.925Z</time></trkpt><trkpt lat="43.4217039" lon="11.4523697"><ele>425.75</ele><time>2026-04-04T09:22:01.925Z</time></trkpt><trkpt lat="43.4216424" lon="11.4525341"><ele>423.5</ele><time>2026-04-04T09:22:02.923Z</time></trkpt><trkpt lat="43.4215845" lon="11.4527007"><ele>421.25</ele><time>2026-04-04T09:22:03.922Z</time></trkpt><trkpt lat="43.4215584" lon="11.4528623"><ele>419.0</ele><time>2026-04-04T09:22:04.923Z</time></trkpt><trkpt lat="43.4215871" lon="11.4530312"><ele>418.0</ele><time>2026-04-04T09:22:05.935Z</time></trkpt><trkpt lat="43.4216546" lon="11.4531865"><ele>417.0</ele><time>2026-04-04T09:22:06.922Z</time></trkpt><trkpt lat="43.4217372" lon="11.4533369"><ele>416.0</ele><time>2026-04-04T09:22:07.924Z</time></trkpt><trkpt lat="43.4218136" lon="11.4534926"><ele>415.0</ele><time>2026-04-04T09:22:08.927Z</time></trkpt><trkpt lat="43.4218391" lon="11.4536466"><ele>414.5</ele><time>2026-04-04T09:22:09.924Z</time></trkpt><trkpt lat="43.4218243" lon="11.4538159"><ele>414.0</ele><time>2026-04-04T09:22:10.931Z</time></trkpt><trkpt lat="43.4217811" lon="11.4539688"><ele>413.5</ele><time>2026-04-04T09:22:11.927Z</time></trkpt><trkpt lat="43.4217044" lon="11.4541065"><ele>413.0</ele><time>2026-04-04T09:22:12.936Z</time></trkpt><trkpt lat="43.4216057" lon="11.4542276"><ele>413.0</ele><time>2026-04-04T09:22:13.924Z</time></trkpt><trkpt lat="43.4214896" lon="11.4543335"><ele>413.0</ele><time>2026-04-04T09:22:14.925Z</time></trkpt><trkpt lat="43.4213594" lon="11.4544313"><ele>413.0</ele><time>2026-04-04T09:22:15.933Z</time></trkpt><trkpt lat="43.4212284" lon="11.4545303"><ele>413.0</ele><time>2026-04-04T09:22:16.936Z</time></trkpt><trkpt lat="43.4210978" lon="11.4546344"><ele>416.0</ele><time>2026-04-04T09:22:17.945Z</time></trkpt><trkpt lat="43.4209765" lon="11.4547775"><ele>419.0</ele><time>2026-04-04T09:22:18.931Z</time></trkpt><trkpt lat="43.4208699" lon="11.4549734"><ele>422.0</ele><time>2026-04-04T09:22:19.923Z</time></trkpt><trkpt lat="43.4207588" lon="11.4551769"><ele>422.0</ele><time>2026-04-04T09:22:20.929Z</time></trkpt><trkpt lat="43.4206363" lon="11.4553772"><ele>422.0</ele><time>2026-04-04T09:22:21.936Z</time></trkpt><trkpt lat="43.4205044" lon="11.4555692"><ele>422.0</ele><time>2026-04-04T09:22:22.931Z</time></trkpt><trkpt lat="43.420353" lon="11.4557644"><ele>422.3333333333333</ele><time>2026-04-04T09:22:23.933Z</time></trkpt><trkpt lat="43.4202176" lon="11.4559554"><ele>422.66666666666663</ele><time>2026-04-04T09:22:24.923Z</time></trkpt><trkpt lat="43.4200837" lon="11.4561497"><ele>423.0</ele><time>2026-04-04T09:22:25.926Z</time></trkpt><trkpt lat="43.4199595" lon="11.4563344"><ele>423.0</ele><time>2026-04-04T09:22:26.928Z</time></trkpt><trkpt lat="43.4198433" lon="11.4564975"><ele>423.0</ele><time>2026-04-04T09:22:27.928Z</time></trkpt><trkpt lat="43.4197328" lon="11.4566406"><ele>423.0</ele><time>2026-04-04T09:22:28.931Z</time></trkpt><trkpt lat="43.4196134" lon="11.4567453"><ele>426.25</ele><time>2026-04-04T09:22:29.92Z</time></trkpt><trkpt lat="43.4194741" lon="11.4568137"><ele>429.5</ele><time>2026-04-04T09:22:30.924Z</time></trkpt><trkpt lat="43.4193358" lon="11.4568549"><ele>432.75</ele><time>2026-04-04T09:22:31.93Z</time></trkpt><trkpt lat="43.419211" lon="11.4568931"><ele>436.0</ele><time>2026-04-04T09:22:32.926Z</time></trkpt><trkpt lat="43.419112" lon="11.4569675"><ele>436.0</ele><time>2026-04-04T09:22:33.929Z</time></trkpt><trkpt lat="43.4190466" lon="11.4570891"><ele>436.0</ele><time>2026-04-04T09:22:34.929Z</time></trkpt><trkpt lat="43.4190089" lon="11.4572368"><ele>436.0</ele><time>2026-04-04T09:22:35.93Z</time></trkpt><trkpt lat="43.4189943" lon="11.4573913"><ele>436.0</ele><time>2026-04-04T09:22:36.934Z</time></trkpt><trkpt lat="43.4189727" lon="11.4575343"><ele>436.0</ele><time>2026-04-04T09:22:37.934Z</time></trkpt><trkpt lat="43.4189245" lon="11.4576588"><ele>435.25</ele><time>2026-04-04T09:22:38.936Z</time></trkpt><trkpt lat="43.4188311" lon="11.4577721"><ele>434.5</ele><time>2026-04-04T09:22:39.938Z</time></trkpt><trkpt lat="43.4187144" lon="11.4578799"><ele>433.75</ele><time>2026-04-04T09:22:40.929Z</time></trkpt><trkpt lat="43.4185943" lon="11.4579766"><ele>433.0</ele><time>2026-04-04T09:22:41.926Z</time></trkpt><trkpt lat="43.4184687" lon="11.4580706"><ele>433.0</ele><time>2026-04-04T09:22:42.93Z</time></trkpt><trkpt lat="43.4183354" lon="11.4581675"><ele>433.0</ele><time>2026-04-04T09:22:43.939Z</time></trkpt><trkpt lat="43.418191" lon="11.4582643"><ele>433.0</ele><time>2026-04-04T09:22:44.937Z</time></trkpt><trkpt lat="43.4180499" lon="11.4583604"><ele>434.5</ele><time>2026-04-04T09:22:45.931Z</time></trkpt><trkpt lat="43.4179225" lon="11.4584109"><ele>436.0</ele><time>2026-04-04T09:22:46.929Z</time></trkpt><trkpt lat="43.4177866" lon="11.4584084"><ele>437.5</ele><time>2026-04-04T09:22:47.932Z</time></trkpt><trkpt lat="43.4176659" lon="11.4583558"><ele>439.0</ele><time>2026-04-04T09:22:48.928Z</time></trkpt><trkpt lat="43.417545" lon="11.4582591"><ele>439.0</ele><time>2026-04-04T09:22:49.925Z</time></trkpt><trkpt lat="43.4174197" lon="11.4581598"><ele>439.0</ele><time>2026-04-04T09:22:50.928Z</time></trkpt><trkpt lat="43.4172977" lon="11.458073"><ele>439.0</ele><time>2026-04-04T09:22:51.934Z</time></trkpt><trkpt lat="43.4171729" lon="11.4580208"><ele>439.0</ele><time>2026-04-04T09:22:52.934Z</time></trkpt><trkpt lat="43.4170249" lon="11.4579885"><ele>439.5</ele><time>2026-04-04T09:22:53.931Z</time></trkpt><trkpt lat="43.4168759" lon="11.4579678"><ele>440.0</ele><time>2026-04-04T09:22:54.94Z</time></trkpt><trkpt lat="43.4167261" lon="11.4579541"><ele>440.5</ele><time>2026-04-04T09:22:55.937Z</time></trkpt><trkpt lat="43.4165846" lon="11.4579552"><ele>441.0</ele><time>2026-04-04T09:22:56.939Z</time></trkpt><trkpt lat="43.416467" lon="11.4579866"><ele>441.0</ele><time>2026-04-04T09:22:57.932Z</time></trkpt><trkpt lat="43.4163588" lon="11.45806"><ele>441.0</ele><time>2026-04-04T09:22:58.931Z</time></trkpt><trkpt lat="43.4162567" lon="11.458158"><ele>441.0</ele><time>2026-04-04T09:22:59.927Z</time></trkpt><trkpt lat="43.4161643" lon="11.4582521"><ele>441.0</ele><time>2026-04-04T09:23:00.933Z</time></trkpt><trkpt lat="43.4160987" lon="11.4583423"><ele>441.8333333333333</ele><time>2026-04-04T09:23:01.935Z</time></trkpt><trkpt lat="43.4160444" lon="11.458423"><ele>442.66666666666663</ele><time>2026-04-04T09:23:02.935Z</time></trkpt><trkpt lat="43.4159901" lon="11.4585164"><ele>443.5</ele><time>2026-04-04T09:23:04.931Z</time></trkpt><trkpt lat="43.4159483" lon="11.4586035"><ele>444.3333333333333</ele><time>2026-04-04T09:23:07.933Z</time></trkpt><trkpt lat="43.4159162" lon="11.4587151"><ele>445.16666666666663</ele><time>2026-04-04T09:23:09.936Z</time></trkpt><trkpt lat="43.4158939" lon="11.4588247"><ele>446.0</ele><time>2026-04-04T09:23:11.931Z</time></trkpt><trkpt lat="43.4158637" lon="11.4589355"><ele>446.57142857142856</ele><time>2026-04-04T09:23:13.94Z</time></trkpt><trkpt lat="43.415849" lon="11.4590213"><ele>447.1428571428571</ele><time>2026-04-04T09:23:14.932Z</time></trkpt><trkpt lat="43.4158382" lon="11.4591104"><ele>447.7142857142858</ele><time>2026-04-04T09:23:15.935Z</time></trkpt><trkpt lat="43.4158365" lon="11.4592102"><ele>448.28571428571433</ele><time>2026-04-04T09:23:16.927Z</time></trkpt><trkpt lat="43.4158431" lon="11.4593098"><ele>448.8571428571429</ele><time>2026-04-04T09:23:17.936Z</time></trkpt><trkpt lat="43.4158544" lon="11.4594033"><ele>449.4285714285715</ele><time>2026-04-04T09:23:18.935Z</time></trkpt><trkpt lat="43.4158684" lon="11.4594916"><ele>450.00000000000006</ele><time>2026-04-04T09:23:19.934Z</time></trkpt><trkpt lat="43.4158776" lon="11.4596675"><ele>451.4</ele><time>2026-04-04T09:23:21.932Z</time></trkpt><trkpt lat="43.415885" lon="11.4598527"><ele>452.8</ele><time>2026-04-04T09:23:23.94Z</time></trkpt><trkpt lat="43.4158863" lon="11.4599592"><ele>454.20000000000005</ele><time>2026-04-04T09:23:24.932Z</time></trkpt><trkpt lat="43.41589" lon="11.4600797"><ele>455.6</ele><time>2026-04-04T09:23:25.939Z</time></trkpt><trkpt lat="43.4158922" lon="11.4601954"><ele>457.0</ele><time>2026-04-04T09:23:26.951Z</time></trkpt><trkpt lat="43.4158952" lon="11.4603251"><ele>459.33333333333337</ele><time>2026-04-04T09:23:27.932Z</time></trkpt><trkpt lat="43.4159018" lon="11.4604497"><ele>461.6666666666667</ele><time>2026-04-04T09:23:28.932Z</time></trkpt><trkpt lat="43.4159099" lon="11.4605679"><ele>464.0</ele><time>2026-04-04T09:23:29.928Z</time></trkpt><trkpt lat="43.4159182" lon="11.460688"><ele>466.33333333333337</ele><time>2026-04-04T09:23:30.933Z</time></trkpt><trkpt lat="43.4159472" lon="11.460794"><ele>468.6666666666667</ele><time>2026-04-04T09:23:31.928Z</time></trkpt><trkpt lat="43.4159915" lon="11.4608898"><ele>471.0</ele><time>2026-04-04T09:23:32.932Z</time></trkpt><trkpt lat="43.4160404" lon="11.4609795"><ele>471.0</ele><time>2026-04-04T09:23:33.937Z</time></trkpt><trkpt lat="43.4160907" lon="11.4610632"><ele>471.0</ele><time>2026-04-04T09:23:34.937Z</time></trkpt><trkpt lat="43.416127" lon="11.4611372"><ele>471.0</ele><time>2026-04-04T09:23:35.933Z</time></trkpt><trkpt lat="43.4161466" lon="11.4612731"><ele>471.0</ele><time>2026-04-04T09:23:37.927Z</time></trkpt><trkpt lat="43.416071" lon="11.4614192"><ele>471.0</ele><time>2026-04-04T09:23:39.929Z</time></trkpt><trkpt lat="43.4160056" lon="11.4614651"><ele>471.0</ele><time>2026-04-04T09:23:40.925Z</time></trkpt><trkpt lat="43.4159325" lon="11.461474"><ele>471.0</ele><time>2026-04-04T09:23:41.932Z</time></trkpt><trkpt lat="43.4158636" lon="11.4614662"><ele>471.0</ele><time>2026-04-04T09:23:42.928Z</time></trkpt><trkpt lat="43.4157704" lon="11.4613674"><ele>471.0</ele><time>2026-04-04T09:23:44.926Z</time></trkpt><trkpt lat="43.4157297" lon="11.4612735"><ele>471.0</ele><time>2026-04-04T09:23:45.936Z</time></trkpt><trkpt lat="43.4156989" lon="11.4611796"><ele>471.0</ele><time>2026-04-04T09:23:46.927Z</time></trkpt><trkpt lat="43.4156686" lon="11.4610866"><ele>471.0</ele><time>2026-04-04T09:23:47.935Z</time></trkpt><trkpt lat="43.4156474" lon="11.4609959"><ele>471.0</ele><time>2026-04-04T09:23:48.931Z</time></trkpt><trkpt lat="43.4156142" lon="11.4609127"><ele>471.0</ele><time>2026-04-04T09:23:49.935Z</time></trkpt><trkpt lat="43.4155636" lon="11.4608279"><ele>471.0</ele><time>2026-04-04T09:23:50.929Z</time></trkpt><trkpt lat="43.4154995" lon="11.4607426"><ele>471.0</ele><time>2026-04-04T09:23:51.928Z</time></trkpt><trkpt lat="43.4154233" lon="11.4606679"><ele>471.0</ele><time>2026-04-04T09:23:52.929Z</time></trkpt><trkpt lat="43.415357" lon="11.4606224"><ele>471.0</ele><time>2026-04-04T09:23:53.934Z</time></trkpt><trkpt lat="43.4152788" lon="11.4606371"><ele>472.8</ele><time>2026-04-04T09:23:55.93Z</time></trkpt><trkpt lat="43.4153124" lon="11.4607724"><ele>474.6</ele><time>2026-04-04T09:23:58.924Z</time></trkpt><trkpt lat="43.4153772" lon="11.4608593"><ele>476.4</ele><time>2026-04-04T09:24:00.936Z</time></trkpt><trkpt lat="43.4154306" lon="11.4609561"><ele>478.2</ele><time>2026-04-04T09:24:02.937Z</time></trkpt><trkpt lat="43.4154743" lon="11.4610942"><ele>480.0</ele><time>2026-04-04T09:24:04.934Z</time></trkpt><trkpt lat="43.4154818" lon="11.4611805"><ele>482.0</ele><time>2026-04-04T09:24:05.932Z</time></trkpt><trkpt lat="43.415457" lon="11.4613376"><ele>484.0</ele><time>2026-04-04T09:24:07.937Z</time></trkpt><trkpt lat="43.4154097" lon="11.4614926"><ele>486.0</ele><time>2026-04-04T09:24:09.934Z</time></trkpt><trkpt lat="43.4153901" lon="11.4615788"><ele>488.0</ele><time>2026-04-04T09:24:10.933Z</time></trkpt><trkpt lat="43.4153554" lon="11.4617053"><ele>490.0</ele><time>2026-04-04T09:24:12.939Z</time></trkpt><trkpt lat="43.4153043" lon="11.4617721"><ele>490.0</ele><time>2026-04-04T09:24:14.93Z</time></trkpt><trkpt lat="43.4152385" lon="11.4617191"><ele>490.0</ele><time>2026-04-04T09:24:17.929Z</time></trkpt><trkpt lat="43.4152302" lon="11.4616006"><ele>490.0</ele><time>2026-04-04T09:24:19.93Z</time></trkpt><trkpt lat="43.4152021" lon="11.4614426"><ele>490.0</ele><time>2026-04-04T09:24:21.934Z</time></trkpt><trkpt lat="43.4151254" lon="11.4613509"><ele>490.0</ele><time>2026-04-04T09:24:23.933Z</time></trkpt><trkpt lat="43.4150355" lon="11.4613575"><ele>490.00000000000006</ele><time>2026-04-04T09:24:25.93Z</time></trkpt><trkpt lat="43.4150002" lon="11.4614347"><ele>490.0</ele><time>2026-04-04T09:24:27.93Z</time></trkpt><trkpt lat="43.4149719" lon="11.4615565"><ele>490.0</ele><time>2026-04-04T09:24:29.926Z</time></trkpt><trkpt lat="43.4149493" lon="11.4616795"><ele>490.0</ele><time>2026-04-04T09:24:31.927Z</time></trkpt><trkpt lat="43.4149345" lon="11.4618"><ele>490.00000000000006</ele><time>2026-04-04T09:24:33.934Z</time></trkpt><trkpt lat="43.4149069" lon="11.4619135"><ele>490.0</ele><time>2026-04-04T09:24:35.937Z</time></trkpt><trkpt lat="43.4148605" lon="11.4620163"><ele>491.6</ele><time>2026-04-04T09:24:37.935Z</time></trkpt><trkpt lat="43.414813" lon="11.4621238"><ele>493.2</ele><time>2026-04-04T09:24:39.933Z</time></trkpt><trkpt lat="43.4147427" lon="11.4622213"><ele>494.79999999999995</ele><time>2026-04-04T09:24:41.936Z</time></trkpt><trkpt lat="43.4147039" lon="11.4623258"><ele>496.4</ele><time>2026-04-04T09:24:43.932Z</time></trkpt><trkpt lat="43.4146836" lon="11.4624615"><ele>498.0</ele><time>2026-04-04T09:24:45.937Z</time></trkpt><trkpt lat="43.4146588" lon="11.4626055"><ele>500.0</ele><time>2026-04-04T09:24:47.939Z</time></trkpt><trkpt lat="43.4146104" lon="11.4627523"><ele>502.0</ele><time>2026-04-04T09:24:49.935Z</time></trkpt><trkpt lat="43.4145839" lon="11.4628325"><ele>504.0</ele><time>2026-04-04T09:24:50.935Z</time></trkpt><trkpt lat="43.4145613" lon="11.4629939"><ele>506.0</ele><time>2026-04-04T09:24:52.92Z</time></trkpt><trkpt lat="43.4145617" lon="11.4630874"><ele>508.0</ele><time>2026-04-04T09:24:53.925Z</time></trkpt><trkpt lat="43.4145742" lon="11.4631788"><ele>510.0</ele><time>2026-04-04T09:24:54.933Z</time></trkpt><trkpt lat="43.4145809" lon="11.4632664"><ele>512.3333333333334</ele><time>2026-04-04T09:24:55.927Z</time></trkpt><trkpt lat="43.41458" lon="11.4634404"><ele>514.6666666666666</ele><time>2026-04-04T09:24:57.933Z</time></trkpt><trkpt lat="43.4145721" lon="11.4635271"><ele>517.0</ele><time>2026-04-04T09:24:58.929Z</time></trkpt><trkpt lat="43.4145545" lon="11.4636488"><ele>519.3333333333333</ele><time>2026-04-04T09:25:00.932Z</time></trkpt><trkpt lat="43.4145479" lon="11.4637358"><ele>521.6666666666666</ele><time>2026-04-04T09:25:02.932Z</time></trkpt><trkpt lat="43.4145261" lon="11.46382"><ele>524.0</ele><time>2026-04-04T09:25:04.931Z</time></trkpt><trkpt lat="43.4144839" lon="11.4639161"><ele>524.0</ele><time>2026-04-04T09:25:06.934Z</time></trkpt><trkpt lat="43.4144499" lon="11.4640187"><ele>524.0</ele><time>2026-04-04T09:25:08.933Z</time></trkpt><trkpt lat="43.4143944" lon="11.4641114"><ele>524.0</ele><time>2026-04-04T09:25:10.931Z</time></trkpt><trkpt lat="43.4143165" lon="11.4641903"><ele>524.0</ele><time>2026-04-04T09:25:12.935Z</time></trkpt><trkpt lat="43.4142607" lon="11.4642505"><ele>524.0</ele><time>2026-04-04T09:25:14.928Z</time></trkpt><trkpt lat="43.4141941" lon="11.464322"><ele>524.0</ele><time>2026-04-04T09:25:16.929Z</time></trkpt><trkpt lat="43.4141325" lon="11.4643953"><ele>524.0</ele><time>2026-04-04T09:25:18.926Z</time></trkpt><trkpt lat="43.4140596" lon="11.4644534"><ele>524.0</ele><time>2026-04-04T09:25:20.933Z</time></trkpt><trkpt lat="43.4139869" lon="11.4644808"><ele>524.0</ele><time>2026-04-04T09:25:22.936Z</time></trkpt><trkpt lat="43.4139137" lon="11.4645184"><ele>524.0</ele><time>2026-04-04T09:25:24.935Z</time></trkpt><trkpt lat="43.4138555" lon="11.4645591"><ele>524.0</ele><time>2026-04-04T09:25:26.928Z</time></trkpt><trkpt lat="43.4137821" lon="11.4645873"><ele>524.0</ele><time>2026-04-04T09:25:28.928Z</time></trkpt><trkpt lat="43.4137019" lon="11.4646046"><ele>522.8333333333333</ele><time>2026-04-04T09:25:30.932Z</time></trkpt><trkpt lat="43.4136151" lon="11.4646163"><ele>521.6666666666666</ele><time>2026-04-04T09:25:32.924Z</time></trkpt><trkpt lat="43.4135141" lon="11.4646168"><ele>520.5</ele><time>2026-04-04T09:25:34.923Z</time></trkpt><trkpt lat="43.4134324" lon="11.4646095"><ele>519.3333333333334</ele><time>2026-04-04T09:25:36.923Z</time></trkpt><trkpt lat="43.4133539" lon="11.4645949"><ele>518.1666666666667</ele><time>2026-04-04T09:25:38.923Z</time></trkpt><trkpt lat="43.4132765" lon="11.4645521"><ele>517.0</ele><time>2026-04-04T09:25:40.926Z</time></trkpt><trkpt lat="43.4132068" lon="11.4645064"><ele>516.4</ele><time>2026-04-04T09:25:42.921Z</time></trkpt><trkpt lat="43.4131357" lon="11.4644527"><ele>515.8000000000001</ele><time>2026-04-04T09:25:44.931Z</time></trkpt><trkpt lat="43.4130559" lon="11.4643839"><ele>515.2</ele><time>2026-04-04T09:25:46.925Z</time></trkpt><trkpt lat="43.4129787" lon="11.4643574"><ele>514.6</ele><time>2026-04-04T09:25:48.923Z</time></trkpt><trkpt lat="43.4128856" lon="11.4643531"><ele>514.0</ele><time>2026-04-04T09:25:50.93Z</time></trkpt><trkpt lat="43.4127789" lon="11.464366"><ele>514.0</ele><time>2026-04-04T09:25:52.928Z</time></trkpt><trkpt lat="43.4126857" lon="11.4643696"><ele>514.0</ele><time>2026-04-04T09:25:54.932Z</time></trkpt><trkpt lat="43.4125835" lon="11.4643539"><ele>514.0</ele><time>2026-04-04T09:25:56.936Z</time></trkpt><trkpt lat="43.4124876" lon="11.4643735"><ele>514.0</ele><time>2026-04-04T09:25:58.931Z</time></trkpt><trkpt lat="43.4123949" lon="11.464414"><ele>514.0</ele><time>2026-04-04T09:26:00.934Z</time></trkpt><trkpt lat="43.4123062" lon="11.4644634"><ele>514.0</ele><time>2026-04-04T09:26:02.938Z</time></trkpt><trkpt lat="43.4122237" lon="11.4645113"><ele>514.0</ele><time>2026-04-04T09:26:04.938Z</time></trkpt><trkpt lat="43.4121506" lon="11.4645703"><ele>514.0</ele><time>2026-04-04T09:26:06.93Z</time></trkpt><trkpt lat="43.412057" lon="11.4646313"><ele>514.0</ele><time>2026-04-04T09:26:08.932Z</time></trkpt><trkpt lat="43.4119579" lon="11.4646887"><ele>514.0</ele><time>2026-04-04T09:26:10.938Z</time></trkpt><trkpt lat="43.4118623" lon="11.4647443"><ele>511.79999999999995</ele><time>2026-04-04T09:26:12.935Z</time></trkpt><trkpt lat="43.4117684" lon="11.4647994"><ele>509.59999999999997</ele><time>2026-04-04T09:26:14.927Z</time></trkpt><trkpt lat="43.4116699" lon="11.464835"><ele>507.4</ele><time>2026-04-04T09:26:16.93Z</time></trkpt><trkpt lat="43.4115661" lon="11.4648278"><ele>505.2</ele><time>2026-04-04T09:26:18.927Z</time></trkpt><trkpt lat="43.4114691" lon="11.4647884"><ele>503.0</ele><time>2026-04-04T09:26:20.934Z</time></trkpt><trkpt lat="43.4113697" lon="11.4647449"><ele>501.59999999999997</ele><time>2026-04-04T09:26:22.936Z</time></trkpt><trkpt lat="43.411281" lon="11.4646814"><ele>500.19999999999993</ele><time>2026-04-04T09:26:24.932Z</time></trkpt><trkpt lat="43.4111921" lon="11.4645993"><ele>498.8</ele><time>2026-04-04T09:26:26.932Z</time></trkpt><trkpt lat="43.4111096" lon="11.4645246"><ele>497.4</ele><time>2026-04-04T09:26:28.938Z</time></trkpt><trkpt lat="43.411022" lon="11.4644857"><ele>496.0</ele><time>2026-04-04T09:26:30.929Z</time></trkpt><trkpt lat="43.4109147" lon="11.4644834"><ele>495.6</ele><time>2026-04-04T09:26:32.928Z</time></trkpt><trkpt lat="43.4107804" lon="11.4644891"><ele>495.20000000000005</ele><time>2026-04-04T09:26:34.932Z</time></trkpt><trkpt lat="43.4106964" lon="11.4644903"><ele>494.79999999999995</ele><time>2026-04-04T09:26:35.938Z</time></trkpt><trkpt lat="43.4105953" lon="11.4644937"><ele>494.4</ele><time>2026-04-04T09:26:36.931Z</time></trkpt><trkpt lat="43.4104856" lon="11.4644943"><ele>494.0</ele><time>2026-04-04T09:26:37.933Z</time></trkpt><trkpt lat="43.4103719" lon="11.4644979"><ele>493.5</ele><time>2026-04-04T09:26:38.936Z</time></trkpt><trkpt lat="43.4102552" lon="11.4644932"><ele>493.0</ele><time>2026-04-04T09:26:39.94Z</time></trkpt><trkpt lat="43.4101341" lon="11.4644767"><ele>492.5</ele><time>2026-04-04T09:26:40.932Z</time></trkpt><trkpt lat="43.4100116" lon="11.4644747"><ele>492.0</ele><time>2026-04-04T09:26:41.931Z</time></trkpt><trkpt lat="43.4098903" lon="11.4644768"><ele>492.0</ele><time>2026-04-04T09:26:42.934Z</time></trkpt><trkpt lat="43.4097715" lon="11.4644821"><ele>492.0</ele><time>2026-04-04T09:26:43.937Z</time></trkpt><trkpt lat="43.4096488" lon="11.4644871"><ele>492.0</ele><time>2026-04-04T09:26:44.937Z</time></trkpt><trkpt lat="43.4095309" lon="11.464498"><ele>492.0</ele><time>2026-04-04T09:26:45.937Z</time></trkpt><trkpt lat="43.4094125" lon="11.4645068"><ele>492.20000000000005</ele><time>2026-04-04T09:26:46.927Z</time></trkpt><trkpt lat="43.409296" lon="11.4645182"><ele>492.40000000000003</ele><time>2026-04-04T09:26:47.926Z</time></trkpt><trkpt lat="43.4091861" lon="11.4645294"><ele>492.59999999999997</ele><time>2026-04-04T09:26:48.933Z</time></trkpt><trkpt lat="43.4090854" lon="11.4645477"><ele>492.79999999999995</ele><time>2026-04-04T09:26:49.929Z</time></trkpt><trkpt lat="43.4089878" lon="11.4645615"><ele>493.0</ele><time>2026-04-04T09:26:50.935Z</time></trkpt><trkpt lat="43.4088914" lon="11.4645745"><ele>492.2</ele><time>2026-04-04T09:26:51.938Z</time></trkpt><trkpt lat="43.4087947" lon="11.4645802"><ele>491.4</ele><time>2026-04-04T09:26:52.926Z</time></trkpt><trkpt lat="43.4087025" lon="11.4645854"><ele>490.59999999999997</ele><time>2026-04-04T09:26:53.931Z</time></trkpt><trkpt lat="43.4086106" lon="11.4645889"><ele>489.79999999999995</ele><time>2026-04-04T09:26:54.938Z</time></trkpt><trkpt lat="43.4085175" lon="11.4645854"><ele>489.0</ele><time>2026-04-04T09:26:55.924Z</time></trkpt><trkpt lat="43.4084287" lon="11.4645812"><ele>489.0</ele><time>2026-04-04T09:26:56.921Z</time></trkpt><trkpt lat="43.4083306" lon="11.464575"><ele>489.0</ele><time>2026-04-04T09:26:57.928Z</time></trkpt><trkpt lat="43.4082235" lon="11.4645706"><ele>489.0</ele><time>2026-04-04T09:26:58.937Z</time></trkpt><trkpt lat="43.4081134" lon="11.46457"><ele>489.0</ele><time>2026-04-04T09:26:59.935Z</time></trkpt><trkpt lat="43.4080048" lon="11.4645693"><ele>489.0</ele><time>2026-04-04T09:27:00.938Z</time></trkpt><trkpt lat="43.4078917" lon="11.4645754"><ele>487.0</ele><time>2026-04-04T09:27:01.937Z</time></trkpt><trkpt lat="43.4077719" lon="11.4645924"><ele>485.0</ele><time>2026-04-04T09:27:02.933Z</time></trkpt><trkpt lat="43.4076579" lon="11.4646066"><ele>483.0</ele><time>2026-04-04T09:27:03.93Z</time></trkpt><trkpt lat="43.4075401" lon="11.4646158"><ele>481.0</ele><time>2026-04-04T09:27:04.935Z</time></trkpt><trkpt lat="43.4074254" lon="11.4646331"><ele>481.0</ele><time>2026-04-04T09:27:05.927Z</time></trkpt><trkpt lat="43.4073063" lon="11.4646476"><ele>481.0</ele><time>2026-04-04T09:27:06.933Z</time></trkpt><trkpt lat="43.407194" lon="11.4646646"><ele>481.0</ele><time>2026-04-04T09:27:07.938Z</time></trkpt><trkpt lat="43.4070866" lon="11.4646729"><ele>481.0</ele><time>2026-04-04T09:27:08.934Z</time></trkpt><trkpt lat="43.4069843" lon="11.4646704"><ele>481.0</ele><time>2026-04-04T09:27:09.936Z</time></trkpt><trkpt lat="43.4068867" lon="11.4646465"><ele>480.4</ele><time>2026-04-04T09:27:10.932Z</time></trkpt><trkpt lat="43.4067924" lon="11.4646149"><ele>479.8</ele><time>2026-04-04T09:27:11.938Z</time></trkpt><trkpt lat="43.406698" lon="11.4645812"><ele>479.19999999999993</ele><time>2026-04-04T09:27:12.933Z</time></trkpt><trkpt lat="43.40661" lon="11.4645482"><ele>478.59999999999997</ele><time>2026-04-04T09:27:13.938Z</time></trkpt><trkpt lat="43.4065219" lon="11.4645224"><ele>478.0</ele><time>2026-04-04T09:27:14.944Z</time></trkpt><trkpt lat="43.4064307" lon="11.4644935"><ele>477.2</ele><time>2026-04-04T09:27:15.939Z</time></trkpt><trkpt lat="43.4063386" lon="11.4644582"><ele>476.4</ele><time>2026-04-04T09:27:16.938Z</time></trkpt><trkpt lat="43.4062444" lon="11.4644293"><ele>475.59999999999997</ele><time>2026-04-04T09:27:17.934Z</time></trkpt><trkpt lat="43.4061545" lon="11.464387"><ele>474.79999999999995</ele><time>2026-04-04T09:27:18.938Z</time></trkpt><trkpt lat="43.4060578" lon="11.4643356"><ele>474.0</ele><time>2026-04-04T09:27:19.935Z</time></trkpt><trkpt lat="43.4059577" lon="11.4642777"><ele>472.79999999999995</ele><time>2026-04-04T09:27:20.925Z</time></trkpt><trkpt lat="43.405867" lon="11.4642116"><ele>471.59999999999997</ele><time>2026-04-04T09:27:21.934Z</time></trkpt><trkpt lat="43.405781" lon="11.464142"><ele>470.4</ele><time>2026-04-04T09:27:22.928Z</time></trkpt><trkpt lat="43.4056945" lon="11.4640648"><ele>469.2</ele><time>2026-04-04T09:27:23.952Z</time></trkpt><trkpt lat="43.4056175" lon="11.4639857"><ele>468.0</ele><time>2026-04-04T09:27:24.925Z</time></trkpt><trkpt lat="43.4055419" lon="11.4639114"><ele>465.0</ele><time>2026-04-04T09:27:25.934Z</time></trkpt><trkpt lat="43.4054684" lon="11.4638415"><ele>461.99999999999994</ele><time>2026-04-04T09:27:26.927Z</time></trkpt><trkpt lat="43.4053935" lon="11.4637664"><ele>458.99999999999994</ele><time>2026-04-04T09:27:27.93Z</time></trkpt><trkpt lat="43.4053181" lon="11.463675"><ele>456.0</ele><time>2026-04-04T09:27:28.929Z</time></trkpt><trkpt lat="43.4052419" lon="11.4635762"><ele>453.0</ele><time>2026-04-04T09:27:29.928Z</time></trkpt><trkpt lat="43.4051674" lon="11.4634757"><ele>453.0</ele><time>2026-04-04T09:27:30.933Z</time></trkpt><trkpt lat="43.4050931" lon="11.4633787"><ele>452.99999999999994</ele><time>2026-04-04T09:27:31.929Z</time></trkpt><trkpt lat="43.4050242" lon="11.4632867"><ele>452.99999999999994</ele><time>2026-04-04T09:27:32.939Z</time></trkpt><trkpt lat="43.4049602" lon="11.4631908"><ele>453.0</ele><time>2026-04-04T09:27:33.934Z</time></trkpt><trkpt lat="43.4048971" lon="11.4630982"><ele>453.0</ele><time>2026-04-04T09:27:34.938Z</time></trkpt><trkpt lat="43.4048416" lon="11.4629977"><ele>452.2</ele><time>2026-04-04T09:27:35.942Z</time></trkpt><trkpt lat="43.4047934" lon="11.4628952"><ele>451.4</ele><time>2026-04-04T09:27:36.939Z</time></trkpt><trkpt lat="43.4047553" lon="11.462784"><ele>450.59999999999997</ele><time>2026-04-04T09:27:37.937Z</time></trkpt><trkpt lat="43.4047267" lon="11.4626627"><ele>449.79999999999995</ele><time>2026-04-04T09:27:38.935Z</time></trkpt><trkpt lat="43.4047055" lon="11.462539"><ele>449.0</ele><time>2026-04-04T09:27:39.939Z</time></trkpt><trkpt lat="43.4046846" lon="11.4624082"><ele>449.0</ele><time>2026-04-04T09:27:40.929Z</time></trkpt><trkpt lat="43.4046662" lon="11.462276"><ele>449.0</ele><time>2026-04-04T09:27:41.925Z</time></trkpt><trkpt lat="43.404647" lon="11.4621438"><ele>449.0</ele><time>2026-04-04T09:27:42.933Z</time></trkpt><trkpt lat="43.4046265" lon="11.4620138"><ele>449.0</ele><time>2026-04-04T09:27:43.927Z</time></trkpt><trkpt lat="43.4046062" lon="11.4618855"><ele>449.0</ele><time>2026-04-04T09:27:44.931Z</time></trkpt><trkpt lat="43.4045819" lon="11.4617647"><ele>450.4</ele><time>2026-04-04T09:27:45.924Z</time></trkpt><trkpt lat="43.4045524" lon="11.4616553"><ele>451.79999999999995</ele><time>2026-04-04T09:27:46.929Z</time></trkpt><trkpt lat="43.4045149" lon="11.4615465"><ele>453.20000000000005</ele><time>2026-04-04T09:27:47.932Z</time></trkpt><trkpt lat="43.4044651" lon="11.4614372"><ele>454.6</ele><time>2026-04-04T09:27:48.929Z</time></trkpt><trkpt lat="43.4044122" lon="11.461329"><ele>456.0</ele><time>2026-04-04T09:27:49.941Z</time></trkpt><trkpt lat="43.4043566" lon="11.4612145"><ele>456.4</ele><time>2026-04-04T09:27:50.937Z</time></trkpt><trkpt lat="43.4042988" lon="11.4610966"><ele>456.8</ele><time>2026-04-04T09:27:51.927Z</time></trkpt><trkpt lat="43.404244" lon="11.4609681"><ele>457.19999999999993</ele><time>2026-04-04T09:27:52.934Z</time></trkpt><trkpt lat="43.404193" lon="11.4608354"><ele>457.59999999999997</ele><time>2026-04-04T09:27:53.934Z</time></trkpt><trkpt lat="43.4041498" lon="11.4607137"><ele>458.0</ele><time>2026-04-04T09:27:54.94Z</time></trkpt><trkpt lat="43.4041147" lon="11.4605944"><ele>457.99999999999994</ele><time>2026-04-04T09:27:55.922Z</time></trkpt><trkpt lat="43.4040886" lon="11.460484"><ele>458.0</ele><time>2026-04-04T09:27:56.93Z</time></trkpt><trkpt lat="43.4040773" lon="11.4603714"><ele>458.0</ele><time>2026-04-04T09:27:57.94Z</time></trkpt><trkpt lat="43.4040886" lon="11.4602497"><ele>458.0</ele><time>2026-04-04T09:27:58.936Z</time></trkpt><trkpt lat="43.4041066" lon="11.4601239"><ele>457.99999999999994</ele><time>2026-04-04T09:27:59.929Z</time></trkpt><trkpt lat="43.4041268" lon="11.4599909"><ele>458.0</ele><time>2026-04-04T09:28:00.932Z</time></trkpt><trkpt lat="43.4041508" lon="11.4598587"><ele>457.59999999999997</ele><time>2026-04-04T09:28:01.928Z</time></trkpt><trkpt lat="43.404176" lon="11.4597251"><ele>457.19999999999993</ele><time>2026-04-04T09:28:02.932Z</time></trkpt><trkpt lat="43.4042085" lon="11.4596006"><ele>456.8</ele><time>2026-04-04T09:28:03.936Z</time></trkpt><trkpt lat="43.4042543" lon="11.4594818"><ele>456.4</ele><time>2026-04-04T09:28:04.937Z</time></trkpt><trkpt lat="43.4043061" lon="11.4593825"><ele>456.0</ele><time>2026-04-04T09:28:05.939Z</time></trkpt><trkpt lat="43.404367" lon="11.4592814"><ele>455.8</ele><time>2026-04-04T09:28:06.929Z</time></trkpt><trkpt lat="43.4044343" lon="11.4591831"><ele>455.6</ele><time>2026-04-04T09:28:07.928Z</time></trkpt><trkpt lat="43.4045002" lon="11.4590832"><ele>455.4</ele><time>2026-04-04T09:28:08.933Z</time></trkpt><trkpt lat="43.4045662" lon="11.4589878"><ele>455.2</ele><time>2026-04-04T09:28:09.938Z</time></trkpt><trkpt lat="43.4046272" lon="11.4589064"><ele>455.0</ele><time>2026-04-04T09:28:10.934Z</time></trkpt><trkpt lat="43.4046828" lon="11.4588202"><ele>454.3333333333333</ele><time>2026-04-04T09:28:11.935Z</time></trkpt><trkpt lat="43.4047337" lon="11.4587304"><ele>453.66666666666663</ele><time>2026-04-04T09:28:12.934Z</time></trkpt><trkpt lat="43.4047742" lon="11.4586376"><ele>453.0</ele><time>2026-04-04T09:28:13.931Z</time></trkpt><trkpt lat="43.404807" lon="11.4585488"><ele>452.33333333333337</ele><time>2026-04-04T09:28:14.933Z</time></trkpt><trkpt lat="43.4048306" lon="11.4584591"><ele>451.6666666666667</ele><time>2026-04-04T09:28:15.926Z</time></trkpt><trkpt lat="43.4048516" lon="11.4583717"><ele>451.0</ele><time>2026-04-04T09:28:16.931Z</time></trkpt><trkpt lat="43.4048977" lon="11.4582216"><ele>451.00000000000006</ele><time>2026-04-04T09:28:18.933Z</time></trkpt><trkpt lat="43.4049342" lon="11.4581478"><ele>451.0</ele><time>2026-04-04T09:28:19.924Z</time></trkpt><trkpt lat="43.4049968" lon="11.4580263"><ele>451.0</ele><time>2026-04-04T09:28:21.931Z</time></trkpt><trkpt lat="43.4050222" lon="11.4579454"><ele>451.0</ele><time>2026-04-04T09:28:22.923Z</time></trkpt><trkpt lat="43.4050334" lon="11.4578506"><ele>451.00000000000006</ele><time>2026-04-04T09:28:23.928Z</time></trkpt><trkpt lat="43.4050322" lon="11.4577391"><ele>451.0</ele><time>2026-04-04T09:28:24.927Z</time></trkpt><trkpt lat="43.4050217" lon="11.4576258"><ele>449.4</ele><time>2026-04-04T09:28:25.929Z</time></trkpt><trkpt lat="43.4050108" lon="11.4575047"><ele>447.8</ele><time>2026-04-04T09:28:26.93Z</time></trkpt><trkpt lat="43.4050013" lon="11.4573731"><ele>446.19999999999993</ele><time>2026-04-04T09:28:27.926Z</time></trkpt><trkpt lat="43.4049868" lon="11.457238"><ele>444.59999999999997</ele><time>2026-04-04T09:28:28.926Z</time></trkpt><trkpt lat="43.4049648" lon="11.4571199"><ele>443.0</ele><time>2026-04-04T09:28:29.926Z</time></trkpt><trkpt lat="43.4049421" lon="11.4570031"><ele>441.8333333333333</ele><time>2026-04-04T09:28:30.931Z</time></trkpt><trkpt lat="43.4049158" lon="11.4568941"><ele>440.66666666666663</ele><time>2026-04-04T09:28:31.931Z</time></trkpt><trkpt lat="43.4048848" lon="11.4567872"><ele>439.5</ele><time>2026-04-04T09:28:32.927Z</time></trkpt><trkpt lat="43.4048553" lon="11.4566993"><ele>438.33333333333337</ele><time>2026-04-04T09:28:33.932Z</time></trkpt><trkpt lat="43.4048203" lon="11.4565538"><ele>437.1666666666667</ele><time>2026-04-04T09:28:35.938Z</time></trkpt><trkpt lat="43.4048266" lon="11.456441"><ele>436.0</ele><time>2026-04-04T09:28:37.94Z</time></trkpt><trkpt lat="43.4049001" lon="11.4563744"><ele>436.00000000000006</ele><time>2026-04-04T09:28:39.928Z</time></trkpt><trkpt lat="43.40501" lon="11.4563692"><ele>436.0</ele><time>2026-04-04T09:28:41.933Z</time></trkpt><trkpt lat="43.4050751" lon="11.456375"><ele>436.0</ele><time>2026-04-04T09:28:42.927Z</time></trkpt><trkpt lat="43.4051456" lon="11.4563782"><ele>436.0</ele><time>2026-04-04T09:28:43.934Z</time></trkpt><trkpt lat="43.4052208" lon="11.456385"><ele>436.00000000000006</ele><time>2026-04-04T09:28:44.931Z</time></trkpt><trkpt lat="43.405294" lon="11.4563915"><ele>436.0</ele><time>2026-04-04T09:28:45.927Z</time></trkpt><trkpt lat="43.4053694" lon="11.4563973"><ele>436.0</ele><time>2026-04-04T09:28:46.931Z</time></trkpt><trkpt lat="43.405444" lon="11.4564023"><ele>436.0</ele><time>2026-04-04T09:28:47.935Z</time></trkpt><trkpt lat="43.4055116" lon="11.4564007"><ele>436.0</ele><time>2026-04-04T09:28:48.927Z</time></trkpt><trkpt lat="43.4055788" lon="11.4563855"><ele>436.0</ele><time>2026-04-04T09:28:49.92Z</time></trkpt><trkpt lat="43.4056516" lon="11.4563581"><ele>436.0</ele><time>2026-04-04T09:28:50.933Z</time></trkpt><trkpt lat="43.4057181" lon="11.4563132"><ele>436.0</ele><time>2026-04-04T09:28:51.929Z</time></trkpt><trkpt lat="43.4057775" lon="11.4562541"><ele>436.0</ele><time>2026-04-04T09:28:52.935Z</time></trkpt><trkpt lat="43.4058345" lon="11.4561716"><ele>434.33333333333337</ele><time>2026-04-04T09:28:53.936Z</time></trkpt><trkpt lat="43.4058939" lon="11.4560892"><ele>432.6666666666667</ele><time>2026-04-04T09:28:54.928Z</time></trkpt><trkpt lat="43.4059533" lon="11.4559995"><ele>431.0</ele><time>2026-04-04T09:28:55.928Z</time></trkpt><trkpt lat="43.4059999" lon="11.455904"><ele>429.33333333333337</ele><time>2026-04-04T09:28:56.935Z</time></trkpt><trkpt lat="43.4060267" lon="11.4557981"><ele>427.6666666666667</ele><time>2026-04-04T09:28:57.935Z</time></trkpt><trkpt lat="43.4060482" lon="11.4556963"><ele>426.0</ele><time>2026-04-04T09:28:58.927Z</time></trkpt><trkpt lat="43.4060653" lon="11.4555875"><ele>426.0</ele><time>2026-04-04T09:28:59.926Z</time></trkpt><trkpt lat="43.4060879" lon="11.4554697"><ele>426.0</ele><time>2026-04-04T09:29:00.93Z</time></trkpt><trkpt lat="43.4061107" lon="11.4553431"><ele>426.0</ele><time>2026-04-04T09:29:01.928Z</time></trkpt><trkpt lat="43.4061312" lon="11.4552229"><ele>426.0</ele><time>2026-04-04T09:29:02.925Z</time></trkpt><trkpt lat="43.4061579" lon="11.4550981"><ele>426.0</ele><time>2026-04-04T09:29:03.925Z</time></trkpt><trkpt lat="43.4061851" lon="11.4549777"><ele>425.3333333333333</ele><time>2026-04-04T09:29:04.931Z</time></trkpt><trkpt lat="43.4062113" lon="11.4548703"><ele>424.66666666666663</ele><time>2026-04-04T09:29:05.93Z</time></trkpt><trkpt lat="43.4062454" lon="11.4547686"><ele>424.0</ele><time>2026-04-04T09:29:06.929Z</time></trkpt><trkpt lat="43.4062887" lon="11.4546665"><ele>423.3333333333333</ele><time>2026-04-04T09:29:07.934Z</time></trkpt><trkpt lat="43.406341" lon="11.4545712"><ele>422.66666666666663</ele><time>2026-04-04T09:29:08.922Z</time></trkpt><trkpt lat="43.4063985" lon="11.4544842"><ele>422.0</ele><time>2026-04-04T09:29:09.932Z</time></trkpt><trkpt lat="43.406446" lon="11.4543843"><ele>420.3333333333333</ele><time>2026-04-04T09:29:10.931Z</time></trkpt><trkpt lat="43.4064831" lon="11.4542719"><ele>418.66666666666663</ele><time>2026-04-04T09:29:11.944Z</time></trkpt><trkpt lat="43.4065167" lon="11.4541584"><ele>417.0</ele><time>2026-04-04T09:29:12.932Z</time></trkpt><trkpt lat="43.4065382" lon="11.4540495"><ele>415.33333333333337</ele><time>2026-04-04T09:29:13.929Z</time></trkpt><trkpt lat="43.4065552" lon="11.4539395"><ele>413.6666666666667</ele><time>2026-04-04T09:29:14.926Z</time></trkpt><trkpt lat="43.4065659" lon="11.4538367"><ele>412.0</ele><time>2026-04-04T09:29:15.925Z</time></trkpt><trkpt lat="43.4065573" lon="11.4537303"><ele>412.00000000000006</ele><time>2026-04-04T09:29:16.931Z</time></trkpt><trkpt lat="43.406543" lon="11.4536259"><ele>412.0</ele><time>2026-04-04T09:29:17.924Z</time></trkpt><trkpt lat="43.4065132" lon="11.4535231"><ele>412.0</ele><time>2026-04-04T09:29:18.929Z</time></trkpt><trkpt lat="43.4064837" lon="11.4534116"><ele>412.0</ele><time>2026-04-04T09:29:19.933Z</time></trkpt><trkpt lat="43.406463" lon="11.4532798"><ele>412.00000000000006</ele><time>2026-04-04T09:29:20.926Z</time></trkpt><trkpt lat="43.4064521" lon="11.4531497"><ele>412.0</ele><time>2026-04-04T09:29:21.932Z</time></trkpt><trkpt lat="43.406454" lon="11.453024"><ele>411.40000000000003</ele><time>2026-04-04T09:29:22.929Z</time></trkpt><trkpt lat="43.4064707" lon="11.4529018"><ele>410.8</ele><time>2026-04-04T09:29:23.931Z</time></trkpt><trkpt lat="43.4064843" lon="11.4527745"><ele>410.2</ele><time>2026-04-04T09:29:24.927Z</time></trkpt><trkpt lat="43.406504" lon="11.4526467"><ele>409.6</ele><time>2026-04-04T09:29:25.932Z</time></trkpt><trkpt lat="43.4065173" lon="11.452508"><ele>409.0</ele><time>2026-04-04T09:29:26.936Z</time></trkpt><trkpt lat="43.4065255" lon="11.4523684"><ele>409.0</ele><time>2026-04-04T09:29:27.933Z</time></trkpt><trkpt lat="43.4065219" lon="11.4522276"><ele>409.0</ele><time>2026-04-04T09:29:28.932Z</time></trkpt><trkpt lat="43.4065077" lon="11.452093"><ele>409.0</ele><time>2026-04-04T09:29:29.929Z</time></trkpt><trkpt lat="43.4064829" lon="11.4519697"><ele>409.0</ele><time>2026-04-04T09:29:30.927Z</time></trkpt><trkpt lat="43.4064416" lon="11.4518478"><ele>409.0</ele><time>2026-04-04T09:29:31.928Z</time></trkpt><trkpt lat="43.4063893" lon="11.4517245"><ele>409.4</ele><time>2026-04-04T09:29:32.93Z</time></trkpt><trkpt lat="43.4063346" lon="11.4516092"><ele>409.79999999999995</ele><time>2026-04-04T09:29:33.935Z</time></trkpt><trkpt lat="43.4062756" lon="11.4514979"><ele>410.20000000000005</ele><time>2026-04-04T09:29:34.928Z</time></trkpt><trkpt lat="43.4062137" lon="11.4513807"><ele>410.6</ele><time>2026-04-04T09:29:35.94Z</time></trkpt><trkpt lat="43.406154" lon="11.4512642"><ele>411.0</ele><time>2026-04-04T09:29:36.932Z</time></trkpt><trkpt lat="43.4060965" lon="11.451158"><ele>411.0</ele><time>2026-04-04T09:29:37.937Z</time></trkpt><trkpt lat="43.4060437" lon="11.4510442"><ele>411.0</ele><time>2026-04-04T09:29:38.935Z</time></trkpt><trkpt lat="43.4060006" lon="11.4509394"><ele>411.0</ele><time>2026-04-04T09:29:39.933Z</time></trkpt><trkpt lat="43.4059625" lon="11.4508186"><ele>411.0</ele><time>2026-04-04T09:29:40.929Z</time></trkpt><trkpt lat="43.405931" lon="11.4506949"><ele>411.0</ele><time>2026-04-04T09:29:41.931Z</time></trkpt><trkpt lat="43.4058984" lon="11.4505719"><ele>411.0</ele><time>2026-04-04T09:29:42.936Z</time></trkpt><trkpt lat="43.4058671" lon="11.4504613"><ele>411.0</ele><time>2026-04-04T09:29:43.936Z</time></trkpt><trkpt lat="43.4058386" lon="11.4503484"><ele>411.0</ele><time>2026-04-04T09:29:44.928Z</time></trkpt><trkpt lat="43.4058055" lon="11.450242"><ele>411.0</ele><time>2026-04-04T09:29:45.934Z</time></trkpt><trkpt lat="43.405766" lon="11.4501413"><ele>411.0</ele><time>2026-04-04T09:29:46.936Z</time></trkpt><trkpt lat="43.4057246" lon="11.4500374"><ele>411.0</ele><time>2026-04-04T09:29:47.942Z</time></trkpt><trkpt lat="43.4056719" lon="11.4499296"><ele>410.4</ele><time>2026-04-04T09:29:48.935Z</time></trkpt><trkpt lat="43.4056214" lon="11.4498221"><ele>409.8</ele><time>2026-04-04T09:29:49.935Z</time></trkpt><trkpt lat="43.4055622" lon="11.4497154"><ele>409.2</ele><time>2026-04-04T09:29:50.92Z</time></trkpt><trkpt lat="43.4054992" lon="11.4496025"><ele>408.59999999999997</ele><time>2026-04-04T09:29:51.936Z</time></trkpt><trkpt lat="43.4054311" lon="11.4494836"><ele>408.0</ele><time>2026-04-04T09:29:52.928Z</time></trkpt><trkpt lat="43.4053581" lon="11.4493713"><ele>406.8333333333333</ele><time>2026-04-04T09:29:53.936Z</time></trkpt><trkpt lat="43.4052923" lon="11.4492622"><ele>405.66666666666663</ele><time>2026-04-04T09:29:54.932Z</time></trkpt><trkpt lat="43.4052305" lon="11.449165"><ele>404.5</ele><time>2026-04-04T09:29:55.932Z</time></trkpt><trkpt lat="43.4051721" lon="11.4490739"><ele>403.3333333333333</ele><time>2026-04-04T09:29:56.932Z</time></trkpt><trkpt lat="43.4051221" lon="11.4489938"><ele>402.16666666666663</ele><time>2026-04-04T09:29:57.937Z</time></trkpt><trkpt lat="43.4050814" lon="11.44892"><ele>401.0</ele><time>2026-04-04T09:29:58.937Z</time></trkpt><trkpt lat="43.4050411" lon="11.4488515"><ele>400.6</ele><time>2026-04-04T09:29:59.94Z</time></trkpt><trkpt lat="43.4049639" lon="11.4487244"><ele>400.20000000000005</ele><time>2026-04-04T09:30:01.93Z</time></trkpt><trkpt lat="43.4049122" lon="11.4486502"><ele>399.79999999999995</ele><time>2026-04-04T09:30:02.928Z</time></trkpt><trkpt lat="43.4048467" lon="11.4485774"><ele>399.4</ele><time>2026-04-04T09:30:03.935Z</time></trkpt><trkpt lat="43.4047724" lon="11.4484926"><ele>399.0</ele><time>2026-04-04T09:30:04.936Z</time></trkpt><trkpt lat="43.4046865" lon="11.4484131"><ele>398.75</ele><time>2026-04-04T09:30:05.938Z</time></trkpt><trkpt lat="43.4045908" lon="11.4483382"><ele>398.5</ele><time>2026-04-04T09:30:06.934Z</time></trkpt><trkpt lat="43.4044965" lon="11.4482569"><ele>398.25</ele><time>2026-04-04T09:30:07.933Z</time></trkpt><trkpt lat="43.4043901" lon="11.4481665"><ele>398.0</ele><time>2026-04-04T09:30:08.931Z</time></trkpt><trkpt lat="43.4042716" lon="11.4480766"><ele>398.0</ele><time>2026-04-04T09:30:09.931Z</time></trkpt><trkpt lat="43.4041395" lon="11.4479783"><ele>398.0</ele><time>2026-04-04T09:30:10.928Z</time></trkpt><trkpt lat="43.4039963" lon="11.4478968"><ele>398.0</ele><time>2026-04-04T09:30:11.918Z</time></trkpt><trkpt lat="43.4038497" lon="11.4478142"><ele>398.3333333333333</ele><time>2026-04-04T09:30:12.93Z</time></trkpt><trkpt lat="43.4036965" lon="11.4477452"><ele>398.66666666666663</ele><time>2026-04-04T09:30:13.931Z</time></trkpt><trkpt lat="43.4035345" lon="11.4476779"><ele>399.0</ele><time>2026-04-04T09:30:14.931Z</time></trkpt><trkpt lat="43.4033679" lon="11.4476033"><ele>399.0</ele><time>2026-04-04T09:30:15.93Z</time></trkpt><trkpt lat="43.4032039" lon="11.4475129"><ele>399.0</ele><time>2026-04-04T09:30:16.938Z</time></trkpt><trkpt lat="43.403041" lon="11.4474234"><ele>399.0</ele><time>2026-04-04T09:30:17.931Z</time></trkpt><trkpt lat="43.4028761" lon="11.4473324"><ele>399.0</ele><time>2026-04-04T09:30:18.93Z</time></trkpt><trkpt lat="43.4027178" lon="11.4472358"><ele>399.0</ele><time>2026-04-04T09:30:19.932Z</time></trkpt><trkpt lat="43.4025575" lon="11.4471445"><ele>399.0</ele><time>2026-04-04T09:30:20.936Z</time></trkpt><trkpt lat="43.4023939" lon="11.4470541"><ele>399.0</ele><time>2026-04-04T09:30:21.93Z</time></trkpt><trkpt lat="43.4022381" lon="11.4469575"><ele>399.0</ele><time>2026-04-04T09:30:22.925Z</time></trkpt><trkpt lat="43.4020927" lon="11.4468529"><ele>399.0</ele><time>2026-04-04T09:30:23.928Z</time></trkpt><trkpt lat="43.4019514" lon="11.446742"><ele>395.33333333333337</ele><time>2026-04-04T09:30:24.926Z</time></trkpt><trkpt lat="43.401818" lon="11.4466221"><ele>391.6666666666667</ele><time>2026-04-04T09:30:25.928Z</time></trkpt><trkpt lat="43.4016929" lon="11.4464809"><ele>388.0</ele><time>2026-04-04T09:30:26.933Z</time></trkpt><trkpt lat="43.4015679" lon="11.4463228"><ele>388.6666666666667</ele><time>2026-04-04T09:30:27.931Z</time></trkpt><trkpt lat="43.4014467" lon="11.4461598"><ele>389.33333333333337</ele><time>2026-04-04T09:30:28.932Z</time></trkpt><trkpt lat="43.4013264" lon="11.446001"><ele>390.0</ele><time>2026-04-04T09:30:29.929Z</time></trkpt><trkpt lat="43.4012209" lon="11.4458329"><ele>387.6666666666667</ele><time>2026-04-04T09:30:30.936Z</time></trkpt><trkpt lat="43.4011275" lon="11.4456623"><ele>385.33333333333337</ele><time>2026-04-04T09:30:31.934Z</time></trkpt><trkpt lat="43.4010323" lon="11.4454946"><ele>383.0</ele><time>2026-04-04T09:30:32.94Z</time></trkpt><trkpt lat="43.4009277" lon="11.4453402"><ele>382.6666666666667</ele><time>2026-04-04T09:30:33.933Z</time></trkpt><trkpt lat="43.4008113" lon="11.4451896"><ele>382.3333333333333</ele><time>2026-04-04T09:30:34.937Z</time></trkpt><trkpt lat="43.4006951" lon="11.4450258"><ele>382.0</ele><time>2026-04-04T09:30:35.925Z</time></trkpt><trkpt lat="43.4005795" lon="11.4448649"><ele>380.3333333333333</ele><time>2026-04-04T09:30:36.934Z</time></trkpt><trkpt lat="43.4004591" lon="11.4447"><ele>378.6666666666667</ele><time>2026-04-04T09:30:37.929Z</time></trkpt><trkpt lat="43.4003387" lon="11.444527"><ele>377.0</ele><time>2026-04-04T09:30:38.934Z</time></trkpt><trkpt lat="43.4002198" lon="11.4443574"><ele>377.0</ele><time>2026-04-04T09:30:39.929Z</time></trkpt><trkpt lat="43.4001004" lon="11.4441994"><ele>377.0</ele><time>2026-04-04T09:30:40.931Z</time></trkpt><trkpt lat="43.3999835" lon="11.4440452"><ele>377.0</ele><time>2026-04-04T09:30:41.929Z</time></trkpt><trkpt lat="43.3998733" lon="11.4438992"><ele>376.75</ele><time>2026-04-04T09:30:42.933Z</time></trkpt><trkpt lat="43.3997635" lon="11.4437827"><ele>376.5</ele><time>2026-04-04T09:30:43.924Z</time></trkpt><trkpt lat="43.3996397" lon="11.4436928"><ele>376.25</ele><time>2026-04-04T09:30:44.92Z</time></trkpt><trkpt lat="43.3995185" lon="11.4436423"><ele>376.0</ele><time>2026-04-04T09:30:45.933Z</time></trkpt><trkpt lat="43.3994012" lon="11.4435925"><ele>376.0</ele><time>2026-04-04T09:30:46.928Z</time></trkpt><trkpt lat="43.3992952" lon="11.4435425"><ele>376.0</ele><time>2026-04-04T09:30:47.931Z</time></trkpt><trkpt lat="43.3991903" lon="11.4434954"><ele>376.0</ele><time>2026-04-04T09:30:48.929Z</time></trkpt><trkpt lat="43.3990901" lon="11.4434647"><ele>376.0</ele><time>2026-04-04T09:30:49.923Z</time></trkpt><trkpt lat="43.3989836" lon="11.4434582"><ele>376.0</ele><time>2026-04-04T09:30:50.931Z</time></trkpt><trkpt lat="43.398877" lon="11.4434638"><ele>376.0</ele><time>2026-04-04T09:30:51.931Z</time></trkpt><trkpt lat="43.3987677" lon="11.4434759"><ele>376.0</ele><time>2026-04-04T09:30:52.936Z</time></trkpt><trkpt lat="43.3986511" lon="11.4434934"><ele>376.0</ele><time>2026-04-04T09:30:53.923Z</time></trkpt><trkpt lat="43.3985317" lon="11.4435192"><ele>376.0</ele><time>2026-04-04T09:30:54.933Z</time></trkpt><trkpt lat="43.3984045" lon="11.4435521"><ele>376.0</ele><time>2026-04-04T09:30:55.931Z</time></trkpt><trkpt lat="43.3982764" lon="11.4435764"><ele>376.0</ele><time>2026-04-04T09:30:56.93Z</time></trkpt><trkpt lat="43.3981464" lon="11.4436073"><ele>376.0</ele><time>2026-04-04T09:30:57.934Z</time></trkpt><trkpt lat="43.3980175" lon="11.4436334"><ele>376.0</ele><time>2026-04-04T09:30:58.936Z</time></trkpt><trkpt lat="43.3978924" lon="11.443638"><ele>375.25</ele><time>2026-04-04T09:30:59.928Z</time></trkpt><trkpt lat="43.3977646" lon="11.4436049"><ele>374.5</ele><time>2026-04-04T09:31:00.929Z</time></trkpt><trkpt lat="43.3976397" lon="11.4435474"><ele>373.75</ele><time>2026-04-04T09:31:01.942Z</time></trkpt><trkpt lat="43.3975058" lon="11.4434907"><ele>373.0</ele><time>2026-04-04T09:31:02.925Z</time></trkpt><trkpt lat="43.3973634" lon="11.4434394"><ele>373.0</ele><time>2026-04-04T09:31:03.929Z</time></trkpt><trkpt lat="43.3972127" lon="11.4433872"><ele>373.0</ele><time>2026-04-04T09:31:04.932Z</time></trkpt><trkpt lat="43.3970593" lon="11.4433268"><ele>373.0</ele><time>2026-04-04T09:31:05.932Z</time></trkpt><trkpt lat="43.3968947" lon="11.4432575"><ele>372.3333333333333</ele><time>2026-04-04T09:31:06.929Z</time></trkpt><trkpt lat="43.3967245" lon="11.4431891"><ele>371.6666666666667</ele><time>2026-04-04T09:31:07.939Z</time></trkpt><trkpt lat="43.3965473" lon="11.4431254"><ele>371.0</ele><time>2026-04-04T09:31:08.93Z</time></trkpt><trkpt lat="43.3963716" lon="11.4430605"><ele>369.6666666666667</ele><time>2026-04-04T09:31:09.935Z</time></trkpt><trkpt lat="43.3962028" lon="11.4429907"><ele>368.3333333333333</ele><time>2026-04-04T09:31:10.931Z</time></trkpt><trkpt lat="43.3960413" lon="11.4429251"><ele>367.0</ele><time>2026-04-04T09:31:11.927Z</time></trkpt><trkpt lat="43.3958798" lon="11.4428606"><ele>367.0</ele><time>2026-04-04T09:31:12.931Z</time></trkpt><trkpt lat="43.3957193" lon="11.4427978"><ele>367.0</ele><time>2026-04-04T09:31:13.937Z</time></trkpt><trkpt lat="43.3955551" lon="11.4427398"><ele>367.0</ele><time>2026-04-04T09:31:14.927Z</time></trkpt><trkpt lat="43.3953839" lon="11.4426939"><ele>367.3333333333333</ele><time>2026-04-04T09:31:15.936Z</time></trkpt><trkpt lat="43.3952095" lon="11.4426694"><ele>367.6666666666667</ele><time>2026-04-04T09:31:16.925Z</time></trkpt><trkpt lat="43.3950386" lon="11.4426824"><ele>368.0</ele><time>2026-04-04T09:31:17.934Z</time></trkpt><trkpt lat="43.3948661" lon="11.4427"><ele>368.0</ele><time>2026-04-04T09:31:18.926Z</time></trkpt><trkpt lat="43.3946945" lon="11.4427075"><ele>368.0</ele><time>2026-04-04T09:31:19.938Z</time></trkpt><trkpt lat="43.3945275" lon="11.4427033"><ele>368.0</ele><time>2026-04-04T09:31:20.93Z</time></trkpt><trkpt lat="43.3943607" lon="11.4426863"><ele>368.0</ele><time>2026-04-04T09:31:21.928Z</time></trkpt><trkpt lat="43.3941892" lon="11.44266"><ele>368.0</ele><time>2026-04-04T09:31:22.934Z</time></trkpt><trkpt lat="43.3940164" lon="11.4426373"><ele>368.0</ele><time>2026-04-04T09:31:23.928Z</time></trkpt><trkpt lat="43.3938417" lon="11.4426137"><ele>368.0</ele><time>2026-04-04T09:31:24.927Z</time></trkpt><trkpt lat="43.3936743" lon="11.4425818"><ele>368.0</ele><time>2026-04-04T09:31:25.935Z</time></trkpt><trkpt lat="43.3935004" lon="11.4425151"><ele>368.0</ele><time>2026-04-04T09:31:26.937Z</time></trkpt><trkpt lat="43.3933247" lon="11.4424329"><ele>368.0</ele><time>2026-04-04T09:31:27.927Z</time></trkpt><trkpt lat="43.3931508" lon="11.4423528"><ele>368.0</ele><time>2026-04-04T09:31:28.936Z</time></trkpt><trkpt lat="43.392966" lon="11.4423037"><ele>368.0</ele><time>2026-04-04T09:31:29.928Z</time></trkpt><trkpt lat="43.3927878" lon="11.4423095"><ele>368.33333333333337</ele><time>2026-04-04T09:31:30.935Z</time></trkpt><trkpt lat="43.3926092" lon="11.44235"><ele>368.6666666666667</ele><time>2026-04-04T09:31:31.927Z</time></trkpt><trkpt lat="43.3924314" lon="11.4424058"><ele>369.0</ele><time>2026-04-04T09:31:32.929Z</time></trkpt><trkpt lat="43.3922608" lon="11.4424871"><ele>368.0</ele><time>2026-04-04T09:31:33.929Z</time></trkpt><trkpt lat="43.3920881" lon="11.4425883"><ele>367.0</ele><time>2026-04-04T09:31:34.924Z</time></trkpt><trkpt lat="43.3919256" lon="11.4426997"><ele>366.0</ele><time>2026-04-04T09:31:35.925Z</time></trkpt><trkpt lat="43.3917629" lon="11.442791"><ele>366.0</ele><time>2026-04-04T09:31:36.941Z</time></trkpt><trkpt lat="43.391607" lon="11.4428487"><ele>366.0</ele><time>2026-04-04T09:31:37.925Z</time></trkpt><trkpt lat="43.391455" lon="11.4428586"><ele>366.0</ele><time>2026-04-04T09:31:38.925Z</time></trkpt><trkpt lat="43.3913048" lon="11.4428496"><ele>366.6666666666667</ele><time>2026-04-04T09:31:39.927Z</time></trkpt><trkpt lat="43.3911512" lon="11.4428568"><ele>367.33333333333337</ele><time>2026-04-04T09:31:40.927Z</time></trkpt><trkpt lat="43.3910018" lon="11.4428843"><ele>368.0</ele><time>2026-04-04T09:31:41.923Z</time></trkpt><trkpt lat="43.3908562" lon="11.4429248"><ele>368.0</ele><time>2026-04-04T09:31:42.93Z</time></trkpt><trkpt lat="43.3907077" lon="11.4429538"><ele>368.0</ele><time>2026-04-04T09:31:43.927Z</time></trkpt><trkpt lat="43.3905726" lon="11.4429603"><ele>368.0</ele><time>2026-04-04T09:31:44.932Z</time></trkpt><trkpt lat="43.3904289" lon="11.4429437"><ele>368.0</ele><time>2026-04-04T09:31:45.926Z</time></trkpt><trkpt lat="43.3902822" lon="11.442922"><ele>367.25</ele><time>2026-04-04T09:31:46.93Z</time></trkpt><trkpt lat="43.3901428" lon="11.442901"><ele>366.5</ele><time>2026-04-04T09:31:47.924Z</time></trkpt><trkpt lat="43.3900096" lon="11.4428724"><ele>365.75</ele><time>2026-04-04T09:31:48.928Z</time></trkpt><trkpt lat="43.3898881" lon="11.4428186"><ele>365.0</ele><time>2026-04-04T09:31:49.939Z</time></trkpt><trkpt lat="43.3898052" lon="11.4427186"><ele>365.0</ele><time>2026-04-04T09:31:50.937Z</time></trkpt><trkpt lat="43.3897315" lon="11.4425852"><ele>365.0</ele><time>2026-04-04T09:31:51.932Z</time></trkpt><trkpt lat="43.3896635" lon="11.4424335"><ele>365.0</ele><time>2026-04-04T09:31:52.924Z</time></trkpt><trkpt lat="43.3895991" lon="11.44227"><ele>365.0</ele><time>2026-04-04T09:31:53.923Z</time></trkpt><trkpt lat="43.3895194" lon="11.4421291"><ele>363.0</ele><time>2026-04-04T09:31:54.93Z</time></trkpt><trkpt lat="43.3894294" lon="11.4419898"><ele>361.0</ele><time>2026-04-04T09:31:55.92Z</time></trkpt><trkpt lat="43.3893365" lon="11.4418582"><ele>359.0</ele><time>2026-04-04T09:31:56.925Z</time></trkpt><trkpt lat="43.3892589" lon="11.4417289"><ele>357.0</ele><time>2026-04-04T09:31:57.932Z</time></trkpt><trkpt lat="43.3891776" lon="11.4416021"><ele>357.0</ele><time>2026-04-04T09:31:58.928Z</time></trkpt><trkpt lat="43.3890914" lon="11.441468"><ele>357.0</ele><time>2026-04-04T09:31:59.933Z</time></trkpt><trkpt lat="43.3890066" lon="11.4413336"><ele>357.0</ele><time>2026-04-04T09:32:00.928Z</time></trkpt><trkpt lat="43.3889184" lon="11.4412006"><ele>357.0</ele><time>2026-04-04T09:32:01.925Z</time></trkpt><trkpt lat="43.3888309" lon="11.4410776"><ele>356.25</ele><time>2026-04-04T09:32:02.923Z</time></trkpt><trkpt lat="43.3887399" lon="11.4409584"><ele>355.5</ele><time>2026-04-04T09:32:03.929Z</time></trkpt><trkpt lat="43.3886443" lon="11.4408395"><ele>354.75</ele><time>2026-04-04T09:32:04.933Z</time></trkpt><trkpt lat="43.388535" lon="11.4407258"><ele>354.0</ele><time>2026-04-04T09:32:05.926Z</time></trkpt><trkpt lat="43.3884224" lon="11.440604"><ele>351.0</ele><time>2026-04-04T09:32:06.925Z</time></trkpt><trkpt lat="43.3883153" lon="11.4404632"><ele>348.0</ele><time>2026-04-04T09:32:07.929Z</time></trkpt><trkpt lat="43.3882026" lon="11.4403063"><ele>345.0</ele><time>2026-04-04T09:32:08.928Z</time></trkpt><trkpt lat="43.3880955" lon="11.4401445"><ele>345.3333333333333</ele><time>2026-04-04T09:32:09.935Z</time></trkpt><trkpt lat="43.3879806" lon="11.4399644"><ele>345.66666666666663</ele><time>2026-04-04T09:32:10.929Z</time></trkpt><trkpt lat="43.387872" lon="11.4397802"><ele>346.0</ele><time>2026-04-04T09:32:11.935Z</time></trkpt><trkpt lat="43.3877691" lon="11.4396013"><ele>344.66666666666663</ele><time>2026-04-04T09:32:12.943Z</time></trkpt><trkpt lat="43.3876651" lon="11.4394173"><ele>343.3333333333333</ele><time>2026-04-04T09:32:13.935Z</time></trkpt><trkpt lat="43.3875608" lon="11.4392355"><ele>342.0</ele><time>2026-04-04T09:32:14.935Z</time></trkpt><trkpt lat="43.3874579" lon="11.4390641"><ele>342.0</ele><time>2026-04-04T09:32:15.93Z</time></trkpt><trkpt lat="43.3873601" lon="11.4388997"><ele>342.0</ele><time>2026-04-04T09:32:16.931Z</time></trkpt><trkpt lat="43.3872657" lon="11.4387398"><ele>342.0</ele><time>2026-04-04T09:32:17.928Z</time></trkpt><trkpt lat="43.3871794" lon="11.438581"><ele>342.0</ele><time>2026-04-04T09:32:18.931Z</time></trkpt><trkpt lat="43.3871085" lon="11.438415"><ele>342.25</ele><time>2026-04-04T09:32:19.935Z</time></trkpt><trkpt lat="43.3870596" lon="11.438228"><ele>342.5</ele><time>2026-04-04T09:32:20.929Z</time></trkpt><trkpt lat="43.3870105" lon="11.438032"><ele>342.75</ele><time>2026-04-04T09:32:21.93Z</time></trkpt><trkpt lat="43.3869617" lon="11.437834"><ele>343.0</ele><time>2026-04-04T09:32:22.933Z</time></trkpt><trkpt lat="43.3869122" lon="11.4376313"><ele>343.25</ele><time>2026-04-04T09:32:23.929Z</time></trkpt><trkpt lat="43.3868608" lon="11.4374326"><ele>343.5</ele><time>2026-04-04T09:32:24.934Z</time></trkpt><trkpt lat="43.3868098" lon="11.4372541"><ele>343.75</ele><time>2026-04-04T09:32:25.94Z</time></trkpt><trkpt lat="43.3867446" lon="11.4370759"><ele>344.0</ele><time>2026-04-04T09:32:26.932Z</time></trkpt><trkpt lat="43.3866485" lon="11.4369243"><ele>342.33333333333337</ele><time>2026-04-04T09:32:27.927Z</time></trkpt><trkpt lat="43.3865355" lon="11.4367884"><ele>340.6666666666667</ele><time>2026-04-04T09:32:28.928Z</time></trkpt><trkpt lat="43.3864115" lon="11.4366575"><ele>339.0</ele><time>2026-04-04T09:32:29.938Z</time></trkpt><trkpt lat="43.3862909" lon="11.4365265"><ele>339.0</ele><time>2026-04-04T09:32:30.932Z</time></trkpt><trkpt lat="43.3861775" lon="11.4363986"><ele>339.0</ele><time>2026-04-04T09:32:31.934Z</time></trkpt><trkpt lat="43.386078" lon="11.4362807"><ele>339.0</ele><time>2026-04-04T09:32:32.932Z</time></trkpt><trkpt lat="43.3859921" lon="11.4361623"><ele>339.0</ele><time>2026-04-04T09:32:33.939Z</time></trkpt><trkpt lat="43.385916" lon="11.4360376"><ele>338.25</ele><time>2026-04-04T09:32:34.932Z</time></trkpt><trkpt lat="43.3858325" lon="11.4359363"><ele>337.5</ele><time>2026-04-04T09:32:35.933Z</time></trkpt><trkpt lat="43.3857381" lon="11.4358494"><ele>336.75</ele><time>2026-04-04T09:32:36.931Z</time></trkpt><trkpt lat="43.3856382" lon="11.4357636"><ele>336.0</ele><time>2026-04-04T09:32:37.933Z</time></trkpt><trkpt lat="43.3855317" lon="11.4356752"><ele>334.75</ele><time>2026-04-04T09:32:38.936Z</time></trkpt><trkpt lat="43.385418" lon="11.4355835"><ele>333.5</ele><time>2026-04-04T09:32:39.931Z</time></trkpt><trkpt lat="43.3852966" lon="11.4354904"><ele>332.25</ele><time>2026-04-04T09:32:40.938Z</time></trkpt><trkpt lat="43.3851736" lon="11.4354"><ele>331.0</ele><time>2026-04-04T09:32:41.932Z</time></trkpt><trkpt lat="43.3850509" lon="11.4353194"><ele>330.5</ele><time>2026-04-04T09:32:42.935Z</time></trkpt><trkpt lat="43.3849297" lon="11.4352546"><ele>330.0</ele><time>2026-04-04T09:32:43.934Z</time></trkpt><trkpt lat="43.3847962" lon="11.4352023"><ele>329.5</ele><time>2026-04-04T09:32:44.938Z</time></trkpt><trkpt lat="43.3846562" lon="11.4351654"><ele>329.0</ele><time>2026-04-04T09:32:45.939Z</time></trkpt><trkpt lat="43.3845097" lon="11.4351363"><ele>328.0</ele><time>2026-04-04T09:32:46.93Z</time></trkpt><trkpt lat="43.3843691" lon="11.4351034"><ele>327.0</ele><time>2026-04-04T09:32:47.933Z</time></trkpt><trkpt lat="43.3842363" lon="11.4350606"><ele>326.0</ele><time>2026-04-04T09:32:48.932Z</time></trkpt><trkpt lat="43.3841047" lon="11.43502"><ele>325.0</ele><time>2026-04-04T09:32:49.93Z</time></trkpt><trkpt lat="43.3839775" lon="11.4349759"><ele>325.0</ele><time>2026-04-04T09:32:50.928Z</time></trkpt><trkpt lat="43.383847" lon="11.4349389"><ele>325.0</ele><time>2026-04-04T09:32:51.934Z</time></trkpt><trkpt lat="43.3837174" lon="11.4348948"><ele>325.0</ele><time>2026-04-04T09:32:52.938Z</time></trkpt><trkpt lat="43.3835844" lon="11.4348353"><ele>325.0</ele><time>2026-04-04T09:32:53.935Z</time></trkpt><trkpt lat="43.383448" lon="11.4347608"><ele>324.75</ele><time>2026-04-04T09:32:54.925Z</time></trkpt><trkpt lat="43.3833187" lon="11.4346754"><ele>324.5</ele><time>2026-04-04T09:32:55.93Z</time></trkpt><trkpt lat="43.3831947" lon="11.4345712"><ele>324.25</ele><time>2026-04-04T09:32:56.923Z</time></trkpt><trkpt lat="43.3830714" lon="11.43446"><ele>324.0</ele><time>2026-04-04T09:32:57.93Z</time></trkpt><trkpt lat="43.3829537" lon="11.4343543"><ele>324.75</ele><time>2026-04-04T09:32:58.932Z</time></trkpt><trkpt lat="43.3828385" lon="11.4342589"><ele>325.5</ele><time>2026-04-04T09:32:59.934Z</time></trkpt><trkpt lat="43.3827215" lon="11.4341803"><ele>326.25</ele><time>2026-04-04T09:33:00.935Z</time></trkpt><trkpt lat="43.3826016" lon="11.43412"><ele>327.0</ele><time>2026-04-04T09:33:01.933Z</time></trkpt><trkpt lat="43.3824727" lon="11.4340833"><ele>327.0</ele><time>2026-04-04T09:33:02.928Z</time></trkpt><trkpt lat="43.3823437" lon="11.4340547"><ele>327.0</ele><time>2026-04-04T09:33:03.927Z</time></trkpt><trkpt lat="43.382213" lon="11.4340354"><ele>327.0</ele><time>2026-04-04T09:33:04.936Z</time></trkpt><trkpt lat="43.3820864" lon="11.4340203"><ele>327.0</ele><time>2026-04-04T09:33:05.921Z</time></trkpt><trkpt lat="43.3819675" lon="11.4340078"><ele>326.5</ele><time>2026-04-04T09:33:06.933Z</time></trkpt><trkpt lat="43.3818553" lon="11.4339925"><ele>326.0</ele><time>2026-04-04T09:33:07.931Z</time></trkpt><trkpt lat="43.3817462" lon="11.4339564"><ele>325.5</ele><time>2026-04-04T09:33:08.933Z</time></trkpt><trkpt lat="43.3816389" lon="11.4339083"><ele>325.0</ele><time>2026-04-04T09:33:09.934Z</time></trkpt><trkpt lat="43.3815343" lon="11.4338446"><ele>323.75</ele><time>2026-04-04T09:33:10.931Z</time></trkpt><trkpt lat="43.3814177" lon="11.4337771"><ele>322.5</ele><time>2026-04-04T09:33:11.926Z</time></trkpt><trkpt lat="43.381291" lon="11.4337011"><ele>321.25</ele><time>2026-04-04T09:33:12.938Z</time></trkpt><trkpt lat="43.3811684" lon="11.4336024"><ele>320.0</ele><time>2026-04-04T09:33:13.938Z</time></trkpt><trkpt lat="43.3810499" lon="11.433495"><ele>319.0</ele><time>2026-04-04T09:33:14.933Z</time></trkpt><trkpt lat="43.3809345" lon="11.4333569"><ele>318.0</ele><time>2026-04-04T09:33:15.934Z</time></trkpt><trkpt lat="43.3808336" lon="11.4332026"><ele>317.0</ele><time>2026-04-04T09:33:16.93Z</time></trkpt><trkpt lat="43.3807487" lon="11.4330391"><ele>317.25</ele><time>2026-04-04T09:33:17.934Z</time></trkpt><trkpt lat="43.3806657" lon="11.4329034"><ele>317.5</ele><time>2026-04-04T09:33:18.937Z</time></trkpt><trkpt lat="43.3805677" lon="11.4327888"><ele>317.75</ele><time>2026-04-04T09:33:19.935Z</time></trkpt><trkpt lat="43.3804442" lon="11.4327182"><ele>318.0</ele><time>2026-04-04T09:33:20.93Z</time></trkpt><trkpt lat="43.3803232" lon="11.4326703"><ele>318.75</ele><time>2026-04-04T09:33:21.924Z</time></trkpt><trkpt lat="43.3801936" lon="11.4326405"><ele>319.5</ele><time>2026-04-04T09:33:22.926Z</time></trkpt><trkpt lat="43.3800596" lon="11.4326172"><ele>320.25</ele><time>2026-04-04T09:33:23.937Z</time></trkpt><trkpt lat="43.3799218" lon="11.4325981"><ele>321.0</ele><time>2026-04-04T09:33:24.933Z</time></trkpt><trkpt lat="43.3797832" lon="11.4325748"><ele>320.25</ele><time>2026-04-04T09:33:25.94Z</time></trkpt><trkpt lat="43.3796435" lon="11.4325346"><ele>319.5</ele><time>2026-04-04T09:33:26.934Z</time></trkpt><trkpt lat="43.3795066" lon="11.4324729"><ele>318.75</ele><time>2026-04-04T09:33:27.933Z</time></trkpt><trkpt lat="43.3793682" lon="11.4324083"><ele>318.0</ele><time>2026-04-04T09:33:28.93Z</time></trkpt><trkpt lat="43.3792273" lon="11.4323411"><ele>318.0</ele><time>2026-04-04T09:33:29.929Z</time></trkpt><trkpt lat="43.3790817" lon="11.432274"><ele>318.0</ele><time>2026-04-04T09:33:30.935Z</time></trkpt><trkpt lat="43.3789344" lon="11.4322077"><ele>318.0</ele><time>2026-04-04T09:33:31.934Z</time></trkpt><trkpt lat="43.3787858" lon="11.4321356"><ele>317.6666666666667</ele><time>2026-04-04T09:33:32.932Z</time></trkpt><trkpt lat="43.3786321" lon="11.4320611"><ele>317.33333333333337</ele><time>2026-04-04T09:33:33.923Z</time></trkpt><trkpt lat="43.3784775" lon="11.4319809"><ele>317.0</ele><time>2026-04-04T09:33:34.931Z</time></trkpt><trkpt lat="43.3783311" lon="11.4319045"><ele>317.0</ele><time>2026-04-04T09:33:35.931Z</time></trkpt><trkpt lat="43.378177" lon="11.4318244"><ele>317.0</ele><time>2026-04-04T09:33:36.931Z</time></trkpt><trkpt lat="43.3780229" lon="11.4317395"><ele>317.0</ele><time>2026-04-04T09:33:37.93Z</time></trkpt><trkpt lat="43.3778628" lon="11.4316574"><ele>317.6666666666667</ele><time>2026-04-04T09:33:38.928Z</time></trkpt><trkpt lat="43.3777024" lon="11.4315767"><ele>318.3333333333333</ele><time>2026-04-04T09:33:39.932Z</time></trkpt><trkpt lat="43.3775443" lon="11.4314923"><ele>319.0</ele><time>2026-04-04T09:33:40.929Z</time></trkpt><trkpt lat="43.3773848" lon="11.4314372"><ele>319.0</ele><time>2026-04-04T09:33:41.93Z</time></trkpt><trkpt lat="43.3772225" lon="11.4313916"><ele>319.0</ele><time>2026-04-04T09:33:42.926Z</time></trkpt><trkpt lat="43.3770545" lon="11.4313604"><ele>319.0</ele><time>2026-04-04T09:33:43.924Z</time></trkpt><trkpt lat="43.3768862" lon="11.4313334"><ele>318.0</ele><time>2026-04-04T09:33:44.933Z</time></trkpt><trkpt lat="43.3767185" lon="11.4313147"><ele>317.0</ele><time>2026-04-04T09:33:45.935Z</time></trkpt><trkpt lat="43.3765572" lon="11.4313033"><ele>316.0</ele><time>2026-04-04T09:33:46.93Z</time></trkpt><trkpt lat="43.3763968" lon="11.4312915"><ele>315.0</ele><time>2026-04-04T09:33:47.931Z</time></trkpt><trkpt lat="43.3762375" lon="11.4312773"><ele>314.0</ele><time>2026-04-04T09:33:48.93Z</time></trkpt><trkpt lat="43.3760803" lon="11.4312487"><ele>313.0</ele><time>2026-04-04T09:33:49.929Z</time></trkpt><trkpt lat="43.3759286" lon="11.4312029"><ele>313.0</ele><time>2026-04-04T09:33:50.934Z</time></trkpt><trkpt lat="43.3757769" lon="11.4311409"><ele>313.0</ele><time>2026-04-04T09:33:51.931Z</time></trkpt><trkpt lat="43.3756295" lon="11.4310616"><ele>313.0</ele><time>2026-04-04T09:33:52.923Z</time></trkpt><trkpt lat="43.375487" lon="11.4309698"><ele>310.0</ele><time>2026-04-04T09:33:53.93Z</time></trkpt><trkpt lat="43.3753374" lon="11.4308591"><ele>307.0</ele><time>2026-04-04T09:33:54.935Z</time></trkpt><trkpt lat="43.3751881" lon="11.4307397"><ele>304.0</ele><time>2026-04-04T09:33:55.93Z</time></trkpt><trkpt lat="43.375033" lon="11.4306257"><ele>304.0</ele><time>2026-04-04T09:33:56.932Z</time></trkpt><trkpt lat="43.3748777" lon="11.4305395"><ele>304.0</ele><time>2026-04-04T09:33:57.927Z</time></trkpt><trkpt lat="43.3747136" lon="11.4304695"><ele>304.0</ele><time>2026-04-04T09:33:58.925Z</time></trkpt><trkpt lat="43.3745527" lon="11.4304138"><ele>304.3333333333333</ele><time>2026-04-04T09:33:59.938Z</time></trkpt><trkpt lat="43.3743857" lon="11.4303538"><ele>304.6666666666667</ele><time>2026-04-04T09:34:00.922Z</time></trkpt><trkpt lat="43.3742231" lon="11.4302957"><ele>305.0</ele><time>2026-04-04T09:34:01.927Z</time></trkpt><trkpt lat="43.3740614" lon="11.4302402"><ele>305.0</ele><time>2026-04-04T09:34:02.934Z</time></trkpt><trkpt lat="43.3738991" lon="11.430169"><ele>305.0</ele><time>2026-04-04T09:34:03.929Z</time></trkpt><trkpt lat="43.3737385" lon="11.4301004"><ele>305.0</ele><time>2026-04-04T09:34:04.928Z</time></trkpt><trkpt lat="43.3735798" lon="11.4300233"><ele>304.6666666666667</ele><time>2026-04-04T09:34:05.932Z</time></trkpt><trkpt lat="43.3734199" lon="11.4299416"><ele>304.3333333333333</ele><time>2026-04-04T09:34:06.934Z</time></trkpt><trkpt lat="43.3732541" lon="11.4298605"><ele>304.0</ele><time>2026-04-04T09:34:07.932Z</time></trkpt><trkpt lat="43.3730936" lon="11.4297689"><ele>301.66666666666663</ele><time>2026-04-04T09:34:08.94Z</time></trkpt><trkpt lat="43.372931" lon="11.4296803"><ele>299.3333333333333</ele><time>2026-04-04T09:34:09.929Z</time></trkpt><trkpt lat="43.3727667" lon="11.4295891"><ele>297.0</ele><time>2026-04-04T09:34:10.926Z</time></trkpt><trkpt lat="43.372603" lon="11.4294982"><ele>297.0</ele><time>2026-04-04T09:34:11.931Z</time></trkpt><trkpt lat="43.3724452" lon="11.4294021"><ele>297.0</ele><time>2026-04-04T09:34:12.922Z</time></trkpt><trkpt lat="43.3722877" lon="11.4293141"><ele>297.0</ele><time>2026-04-04T09:34:13.928Z</time></trkpt><trkpt lat="43.3721307" lon="11.429226"><ele>295.6666666666667</ele><time>2026-04-04T09:34:14.925Z</time></trkpt><trkpt lat="43.3719738" lon="11.4291333"><ele>294.33333333333337</ele><time>2026-04-04T09:34:15.931Z</time></trkpt><trkpt lat="43.3718168" lon="11.4290425"><ele>293.0</ele><time>2026-04-04T09:34:16.929Z</time></trkpt><trkpt lat="43.3716604" lon="11.4289504"><ele>293.0</ele><time>2026-04-04T09:34:17.926Z</time></trkpt><trkpt lat="43.3715039" lon="11.4288691"><ele>293.0</ele><time>2026-04-04T09:34:18.936Z</time></trkpt><trkpt lat="43.3713444" lon="11.4287981"><ele>293.0</ele><time>2026-04-04T09:34:19.934Z</time></trkpt><trkpt lat="43.3711818" lon="11.4287426"><ele>293.33333333333337</ele><time>2026-04-04T09:34:20.934Z</time></trkpt><trkpt lat="43.3710148" lon="11.4287065"><ele>293.6666666666667</ele><time>2026-04-04T09:34:21.938Z</time></trkpt><trkpt lat="43.3708528" lon="11.4286731"><ele>294.0</ele><time>2026-04-04T09:34:22.926Z</time></trkpt><trkpt lat="43.3706807" lon="11.4286496"><ele>291.6666666666667</ele><time>2026-04-04T09:34:23.924Z</time></trkpt><trkpt lat="43.3705084" lon="11.4286259"><ele>289.33333333333337</ele><time>2026-04-04T09:34:24.924Z</time></trkpt><trkpt lat="43.3703363" lon="11.4285982"><ele>287.0</ele><time>2026-04-04T09:34:25.931Z</time></trkpt><trkpt lat="43.3701607" lon="11.4285764"><ele>287.0</ele><time>2026-04-04T09:34:26.933Z</time></trkpt><trkpt lat="43.3699767" lon="11.4285524"><ele>287.0</ele><time>2026-04-04T09:34:27.932Z</time></trkpt><trkpt lat="43.3697933" lon="11.4285324"><ele>287.0</ele><time>2026-04-04T09:34:28.932Z</time></trkpt><trkpt lat="43.3696084" lon="11.4285163"><ele>285.33333333333337</ele><time>2026-04-04T09:34:29.924Z</time></trkpt><trkpt lat="43.3694252" lon="11.428503"><ele>283.6666666666667</ele><time>2026-04-04T09:34:30.929Z</time></trkpt><trkpt lat="43.3692404" lon="11.428498"><ele>282.0</ele><time>2026-04-04T09:34:31.927Z</time></trkpt><trkpt lat="43.3690577" lon="11.4284894"><ele>282.0</ele><time>2026-04-04T09:34:32.927Z</time></trkpt><trkpt lat="43.3688804" lon="11.4284599"><ele>282.0</ele><time>2026-04-04T09:34:33.932Z</time></trkpt><trkpt lat="43.3687205" lon="11.4284118"><ele>282.0</ele><time>2026-04-04T09:34:34.922Z</time></trkpt><trkpt lat="43.3685748" lon="11.4283289"><ele>282.6666666666667</ele><time>2026-04-04T09:34:35.939Z</time></trkpt><trkpt lat="43.3684409" lon="11.4282207"><ele>283.33333333333337</ele><time>2026-04-04T09:34:36.93Z</time></trkpt><trkpt lat="43.3683154" lon="11.4280812"><ele>284.0</ele><time>2026-04-04T09:34:37.934Z</time></trkpt><trkpt lat="43.3682082" lon="11.4279234"><ele>283.6666666666667</ele><time>2026-04-04T09:34:38.931Z</time></trkpt><trkpt lat="43.3681246" lon="11.4277544"><ele>283.3333333333333</ele><time>2026-04-04T09:34:39.929Z</time></trkpt><trkpt lat="43.3680652" lon="11.4275588"><ele>283.0</ele><time>2026-04-04T09:34:40.929Z</time></trkpt><trkpt lat="43.368017" lon="11.4273658"><ele>283.0</ele><time>2026-04-04T09:34:41.933Z</time></trkpt><trkpt lat="43.367958" lon="11.4271898"><ele>283.0</ele><time>2026-04-04T09:34:42.93Z</time></trkpt><trkpt lat="43.3678841" lon="11.4270365"><ele>283.0</ele><time>2026-04-04T09:34:43.931Z</time></trkpt><trkpt lat="43.3678021" lon="11.426915"><ele>283.0</ele><time>2026-04-04T09:34:44.93Z</time></trkpt><trkpt lat="43.3677035" lon="11.4268196"><ele>283.25</ele><time>2026-04-04T09:34:45.939Z</time></trkpt><trkpt lat="43.3675827" lon="11.4267485"><ele>283.5</ele><time>2026-04-04T09:34:46.922Z</time></trkpt><trkpt lat="43.3674634" lon="11.4266883"><ele>283.75</ele><time>2026-04-04T09:34:47.938Z</time></trkpt><trkpt lat="43.3673354" lon="11.4266292"><ele>284.0</ele><time>2026-04-04T09:34:48.936Z</time></trkpt><trkpt lat="43.3672073" lon="11.4265677"><ele>285.25</ele><time>2026-04-04T09:34:49.922Z</time></trkpt><trkpt lat="43.3670719" lon="11.4265111"><ele>286.5</ele><time>2026-04-04T09:34:50.926Z</time></trkpt><trkpt lat="43.3669287" lon="11.4264523"><ele>287.75</ele><time>2026-04-04T09:34:51.928Z</time></trkpt><trkpt lat="43.3667909" lon="11.4263966"><ele>289.0</ele><time>2026-04-04T09:34:52.928Z</time></trkpt><trkpt lat="43.3666452" lon="11.4263459"><ele>289.0</ele><time>2026-04-04T09:34:53.93Z</time></trkpt><trkpt lat="43.3664993" lon="11.4263292"><ele>289.0</ele><time>2026-04-04T09:34:54.93Z</time></trkpt><trkpt lat="43.3663597" lon="11.4263454"><ele>289.0</ele><time>2026-04-04T09:34:55.927Z</time></trkpt><trkpt lat="43.3662268" lon="11.4263749"><ele>289.0</ele><time>2026-04-04T09:34:56.935Z</time></trkpt><trkpt lat="43.3660934" lon="11.4263992"><ele>289.2</ele><time>2026-04-04T09:34:57.926Z</time></trkpt><trkpt lat="43.3659852" lon="11.4263992"><ele>289.4</ele><time>2026-04-04T09:34:58.934Z</time></trkpt><trkpt lat="43.3658959" lon="11.4263631"><ele>289.6</ele><time>2026-04-04T09:34:59.925Z</time></trkpt><trkpt lat="43.3658117" lon="11.426295"><ele>289.8</ele><time>2026-04-04T09:35:00.927Z</time></trkpt><trkpt lat="43.3657378" lon="11.4261884"><ele>290.0</ele><time>2026-04-04T09:35:01.925Z</time></trkpt><trkpt lat="43.3656541" lon="11.4260664"><ele>290.0</ele><time>2026-04-04T09:35:02.928Z</time></trkpt><trkpt lat="43.3655516" lon="11.425928"><ele>290.0</ele><time>2026-04-04T09:35:03.932Z</time></trkpt><trkpt lat="43.3654625" lon="11.4257776"><ele>290.0</ele><time>2026-04-04T09:35:04.928Z</time></trkpt><trkpt lat="43.3653738" lon="11.4256258"><ele>290.0</ele><time>2026-04-04T09:35:05.931Z</time></trkpt><trkpt lat="43.3652826" lon="11.4254765"><ele>287.75</ele><time>2026-04-04T09:35:06.923Z</time></trkpt><trkpt lat="43.3651916" lon="11.4253244"><ele>285.5</ele><time>2026-04-04T09:35:07.928Z</time></trkpt><trkpt lat="43.3651014" lon="11.4251701"><ele>283.25</ele><time>2026-04-04T09:35:08.925Z</time></trkpt><trkpt lat="43.3650103" lon="11.4250259"><ele>281.0</ele><time>2026-04-04T09:35:09.929Z</time></trkpt><trkpt lat="43.3649232" lon="11.4248817"><ele>281.0</ele><time>2026-04-04T09:35:10.93Z</time></trkpt><trkpt lat="43.3648433" lon="11.4247344"><ele>281.0</ele><time>2026-04-04T09:35:11.925Z</time></trkpt><trkpt lat="43.3647779" lon="11.4246014"><ele>281.0</ele><time>2026-04-04T09:35:12.927Z</time></trkpt><trkpt lat="43.3647184" lon="11.4244749"><ele>281.0</ele><time>2026-04-04T09:35:13.932Z</time></trkpt><trkpt lat="43.3646732" lon="11.424336"><ele>280.25</ele><time>2026-04-04T09:35:14.932Z</time></trkpt><trkpt lat="43.3646356" lon="11.4241969"><ele>279.5</ele><time>2026-04-04T09:35:15.932Z</time></trkpt><trkpt lat="43.3646057" lon="11.4240438"><ele>278.75</ele><time>2026-04-04T09:35:16.923Z</time></trkpt><trkpt lat="43.3645766" lon="11.4238866"><ele>278.0</ele><time>2026-04-04T09:35:17.925Z</time></trkpt><trkpt lat="43.3645529" lon="11.42373"><ele>276.25</ele><time>2026-04-04T09:35:18.924Z</time></trkpt><trkpt lat="43.3645363" lon="11.4235719"><ele>274.5</ele><time>2026-04-04T09:35:19.931Z</time></trkpt><trkpt lat="43.3645233" lon="11.4234057"><ele>272.75</ele><time>2026-04-04T09:35:20.927Z</time></trkpt><trkpt lat="43.3645111" lon="11.423226"><ele>271.0</ele><time>2026-04-04T09:35:21.93Z</time></trkpt><trkpt lat="43.3645039" lon="11.4230419"><ele>269.25</ele><time>2026-04-04T09:35:22.919Z</time></trkpt><trkpt lat="43.3644935" lon="11.4228492"><ele>267.5</ele><time>2026-04-04T09:35:23.918Z</time></trkpt><trkpt lat="43.3644797" lon="11.4226665"><ele>265.75</ele><time>2026-04-04T09:35:24.922Z</time></trkpt><trkpt lat="43.3644724" lon="11.422474"><ele>264.0</ele><time>2026-04-04T09:35:25.932Z</time></trkpt><trkpt lat="43.3644672" lon="11.4222738"><ele>262.25</ele><time>2026-04-04T09:35:26.938Z</time></trkpt><trkpt lat="43.3644621" lon="11.4220805"><ele>260.5</ele><time>2026-04-04T09:35:27.931Z</time></trkpt><trkpt lat="43.364454" lon="11.4218829"><ele>258.75</ele><time>2026-04-04T09:35:28.939Z</time></trkpt><trkpt lat="43.3644412" lon="11.4217009"><ele>257.0</ele><time>2026-04-04T09:35:29.935Z</time></trkpt><trkpt lat="43.3644252" lon="11.4215281"><ele>257.0</ele><time>2026-04-04T09:35:30.938Z</time></trkpt><trkpt lat="43.3643918" lon="11.4213636"><ele>257.0</ele><time>2026-04-04T09:35:31.935Z</time></trkpt><trkpt lat="43.3643575" lon="11.4212099"><ele>257.0</ele><time>2026-04-04T09:35:32.93Z</time></trkpt><trkpt lat="43.3643231" lon="11.4210605"><ele>257.0</ele><time>2026-04-04T09:35:33.936Z</time></trkpt><trkpt lat="43.3642775" lon="11.4209116"><ele>256.75</ele><time>2026-04-04T09:35:34.929Z</time></trkpt><trkpt lat="43.3642289" lon="11.420756"><ele>256.5</ele><time>2026-04-04T09:35:35.928Z</time></trkpt><trkpt lat="43.3641771" lon="11.4206003"><ele>256.25</ele><time>2026-04-04T09:35:36.931Z</time></trkpt><trkpt lat="43.3641323" lon="11.4204467"><ele>256.0</ele><time>2026-04-04T09:35:37.937Z</time></trkpt><trkpt lat="43.3641075" lon="11.4202866"><ele>255.60000000000002</ele><time>2026-04-04T09:35:38.932Z</time></trkpt><trkpt lat="43.364093" lon="11.4201234"><ele>255.20000000000002</ele><time>2026-04-04T09:35:39.923Z</time></trkpt><trkpt lat="43.3640861" lon="11.4199852"><ele>254.79999999999998</ele><time>2026-04-04T09:35:40.93Z</time></trkpt><trkpt lat="43.3640773" lon="11.4198665"><ele>254.39999999999998</ele><time>2026-04-04T09:35:41.931Z</time></trkpt><trkpt lat="43.3640692" lon="11.4197609"><ele>254.0</ele><time>2026-04-04T09:35:42.931Z</time></trkpt><trkpt lat="43.3640586" lon="11.4196458"><ele>253.2</ele><time>2026-04-04T09:35:43.934Z</time></trkpt><trkpt lat="43.3640465" lon="11.4195239"><ele>252.39999999999998</ele><time>2026-04-04T09:35:44.923Z</time></trkpt><trkpt lat="43.3640336" lon="11.4193853"><ele>251.6</ele><time>2026-04-04T09:35:45.923Z</time></trkpt><trkpt lat="43.3640253" lon="11.4192353"><ele>250.8</ele><time>2026-04-04T09:35:46.929Z</time></trkpt><trkpt lat="43.3640211" lon="11.4190803"><ele>250.0</ele><time>2026-04-04T09:35:47.928Z</time></trkpt><trkpt lat="43.3640185" lon="11.4189467"><ele>250.0</ele><time>2026-04-04T09:35:48.932Z</time></trkpt><trkpt lat="43.3640128" lon="11.4188368"><ele>250.0</ele><time>2026-04-04T09:35:49.925Z</time></trkpt><trkpt lat="43.3639785" lon="11.4186905"><ele>250.0</ele><time>2026-04-04T09:35:51.93Z</time></trkpt><trkpt lat="43.3638604" lon="11.4186036"><ele>250.0</ele><time>2026-04-04T09:35:53.93Z</time></trkpt><trkpt lat="43.3637519" lon="11.4185498"><ele>250.0</ele><time>2026-04-04T09:35:55.93Z</time></trkpt><trkpt lat="43.3636527" lon="11.4185034"><ele>248.0</ele><time>2026-04-04T09:35:57.921Z</time></trkpt><trkpt lat="43.3635777" lon="11.4184853"><ele>246.0</ele><time>2026-04-04T09:35:58.935Z</time></trkpt><trkpt lat="43.3634896" lon="11.4184739"><ele>244.0</ele><time>2026-04-04T09:35:59.927Z</time></trkpt><trkpt lat="43.3633884" lon="11.4184597"><ele>242.0</ele><time>2026-04-04T09:36:00.92Z</time></trkpt><trkpt lat="43.3632754" lon="11.4184549"><ele>240.0</ele><time>2026-04-04T09:36:01.928Z</time></trkpt><trkpt lat="43.3631519" lon="11.4184469"><ele>239.25</ele><time>2026-04-04T09:36:02.931Z</time></trkpt><trkpt lat="43.36302" lon="11.4184214"><ele>238.5</ele><time>2026-04-04T09:36:03.921Z</time></trkpt><trkpt lat="43.362882" lon="11.4183771"><ele>237.75</ele><time>2026-04-04T09:36:04.923Z</time></trkpt><trkpt lat="43.3627414" lon="11.4183293"><ele>237.0</ele><time>2026-04-04T09:36:05.934Z</time></trkpt><trkpt lat="43.3625956" lon="11.4182825"><ele>237.0</ele><time>2026-04-04T09:36:06.931Z</time></trkpt><trkpt lat="43.3624584" lon="11.4182489"><ele>237.0</ele><time>2026-04-04T09:36:07.934Z</time></trkpt><trkpt lat="43.3623272" lon="11.4182472"><ele>237.0</ele><time>2026-04-04T09:36:08.923Z</time></trkpt><trkpt lat="43.3621951" lon="11.4183149"><ele>237.0</ele><time>2026-04-04T09:36:09.929Z</time></trkpt><trkpt lat="43.3620746" lon="11.4184312"><ele>237.33333333333331</ele><time>2026-04-04T09:36:10.932Z</time></trkpt><trkpt lat="43.3619613" lon="11.4185848"><ele>237.66666666666666</ele><time>2026-04-04T09:36:11.923Z</time></trkpt><trkpt lat="43.3618589" lon="11.4187328"><ele>238.0</ele><time>2026-04-04T09:36:12.934Z</time></trkpt><trkpt lat="43.3617618" lon="11.4188758"><ele>238.0</ele><time>2026-04-04T09:36:13.93Z</time></trkpt><trkpt lat="43.3616704" lon="11.4190066"><ele>238.0</ele><time>2026-04-04T09:36:14.93Z</time></trkpt><trkpt lat="43.3615625" lon="11.4191113"><ele>238.0</ele><time>2026-04-04T09:36:15.935Z</time></trkpt><trkpt lat="43.3614155" lon="11.4191858"><ele>238.0</ele><time>2026-04-04T09:36:16.931Z</time></trkpt><trkpt lat="43.3612643" lon="11.4192395"><ele>236.0</ele><time>2026-04-04T09:36:17.924Z</time></trkpt><trkpt lat="43.361101" lon="11.419293"><ele>234.0</ele><time>2026-04-04T09:36:18.932Z</time></trkpt><trkpt lat="43.360943" lon="11.4193443"><ele>232.0</ele><time>2026-04-04T09:36:19.938Z</time></trkpt><trkpt lat="43.360781" lon="11.4193972"><ele>232.0</ele><time>2026-04-04T09:36:20.925Z</time></trkpt><trkpt lat="43.3606137" lon="11.4194579"><ele>232.0</ele><time>2026-04-04T09:36:21.925Z</time></trkpt><trkpt lat="43.3604424" lon="11.4195183"><ele>232.0</ele><time>2026-04-04T09:36:22.929Z</time></trkpt><trkpt lat="43.3602664" lon="11.4195779"><ele>232.0</ele><time>2026-04-04T09:36:23.928Z</time></trkpt><trkpt lat="43.3600885" lon="11.4196437"><ele>232.0</ele><time>2026-04-04T09:36:24.931Z</time></trkpt><trkpt lat="43.359911" lon="11.419713"><ele>232.0</ele><time>2026-04-04T09:36:25.931Z</time></trkpt><trkpt lat="43.3597315" lon="11.4197831"><ele>230.66666666666666</ele><time>2026-04-04T09:36:26.932Z</time></trkpt><trkpt lat="43.3595603" lon="11.4198535"><ele>229.33333333333331</ele><time>2026-04-04T09:36:27.922Z</time></trkpt><trkpt lat="43.3593985" lon="11.4199132"><ele>228.0</ele><time>2026-04-04T09:36:28.936Z</time></trkpt><trkpt lat="43.3592581" lon="11.4199467"><ele>228.0</ele><time>2026-04-04T09:36:29.934Z</time></trkpt><trkpt lat="43.3591325" lon="11.4199403"><ele>228.0</ele><time>2026-04-04T09:36:30.931Z</time></trkpt><trkpt lat="43.359014" lon="11.4198749"><ele>228.0</ele><time>2026-04-04T09:36:31.934Z</time></trkpt><trkpt lat="43.3589028" lon="11.4197568"><ele>228.0</ele><time>2026-04-04T09:36:32.931Z</time></trkpt><trkpt lat="43.358799" lon="11.4196086"><ele>226.0</ele><time>2026-04-04T09:36:33.931Z</time></trkpt><trkpt lat="43.3586925" lon="11.4194404"><ele>224.0</ele><time>2026-04-04T09:36:34.925Z</time></trkpt><trkpt lat="43.3585805" lon="11.4192717"><ele>222.0</ele><time>2026-04-04T09:36:35.93Z</time></trkpt><trkpt lat="43.3584629" lon="11.4190947"><ele>222.0</ele><time>2026-04-04T09:36:36.939Z</time></trkpt><trkpt lat="43.3583481" lon="11.4189181"><ele>222.0</ele><time>2026-04-04T09:36:37.934Z</time></trkpt><trkpt lat="43.3582301" lon="11.4187408"><ele>222.0</ele><time>2026-04-04T09:36:38.927Z</time></trkpt><trkpt lat="43.3581194" lon="11.4185649"><ele>221.0</ele><time>2026-04-04T09:36:39.922Z</time></trkpt><trkpt lat="43.3580082" lon="11.4183983"><ele>220.0</ele><time>2026-04-04T09:36:40.927Z</time></trkpt><trkpt lat="43.3579014" lon="11.4182302"><ele>219.0</ele><time>2026-04-04T09:36:41.929Z</time></trkpt><trkpt lat="43.3577939" lon="11.4180623"><ele>219.33333333333331</ele><time>2026-04-04T09:36:42.93Z</time></trkpt><trkpt lat="43.357685" lon="11.4179018"><ele>219.66666666666666</ele><time>2026-04-04T09:36:43.946Z</time></trkpt><trkpt lat="43.357576" lon="11.4177302"><ele>220.0</ele><time>2026-04-04T09:36:44.926Z</time></trkpt><trkpt lat="43.3574686" lon="11.4175686"><ele>220.0</ele><time>2026-04-04T09:36:45.93Z</time></trkpt><trkpt lat="43.3573684" lon="11.4174163"><ele>220.0</ele><time>2026-04-04T09:36:46.931Z</time></trkpt><trkpt lat="43.3572706" lon="11.4172748"><ele>220.0</ele><time>2026-04-04T09:36:47.925Z</time></trkpt><trkpt lat="43.3571785" lon="11.4171336"><ele>220.0</ele><time>2026-04-04T09:36:48.923Z</time></trkpt><trkpt lat="43.3570906" lon="11.416994"><ele>219.75</ele><time>2026-04-04T09:36:49.928Z</time></trkpt><trkpt lat="43.3570027" lon="11.4168482"><ele>219.5</ele><time>2026-04-04T09:36:50.928Z</time></trkpt><trkpt lat="43.3569177" lon="11.4167073"><ele>219.25</ele><time>2026-04-04T09:36:51.926Z</time></trkpt><trkpt lat="43.3568332" lon="11.4165751"><ele>219.0</ele><time>2026-04-04T09:36:52.935Z</time></trkpt><trkpt lat="43.3567511" lon="11.4164424"><ele>219.5</ele><time>2026-04-04T09:36:53.934Z</time></trkpt><trkpt lat="43.3566731" lon="11.4163154"><ele>220.0</ele><time>2026-04-04T09:36:54.928Z</time></trkpt><trkpt lat="43.356597" lon="11.416185"><ele>220.5</ele><time>2026-04-04T09:36:55.928Z</time></trkpt><trkpt lat="43.3565257" lon="11.4160648"><ele>221.0</ele><time>2026-04-04T09:36:56.929Z</time></trkpt><trkpt lat="43.3564591" lon="11.4159605"><ele>221.0</ele><time>2026-04-04T09:36:57.93Z</time></trkpt><trkpt lat="43.3564017" lon="11.4158535"><ele>221.00000000000003</ele><time>2026-04-04T09:36:58.933Z</time></trkpt><trkpt lat="43.3563609" lon="11.4157353"><ele>221.00000000000003</ele><time>2026-04-04T09:36:59.931Z</time></trkpt><trkpt lat="43.3563502" lon="11.41562"><ele>221.0</ele><time>2026-04-04T09:37:00.928Z</time></trkpt><trkpt lat="43.35637" lon="11.415483"><ele>221.0</ele><time>2026-04-04T09:37:01.938Z</time></trkpt><trkpt lat="43.356401" lon="11.4153379"><ele>222.5</ele><time>2026-04-04T09:37:02.936Z</time></trkpt><trkpt lat="43.3564297" lon="11.4151829"><ele>224.0</ele><time>2026-04-04T09:37:03.923Z</time></trkpt><trkpt lat="43.3564617" lon="11.4150301"><ele>225.5</ele><time>2026-04-04T09:37:04.931Z</time></trkpt><trkpt lat="43.3564965" lon="11.4148729"><ele>227.0</ele><time>2026-04-04T09:37:05.913Z</time></trkpt><trkpt lat="43.3565352" lon="11.4147088"><ele>228.0</ele><time>2026-04-04T09:37:06.926Z</time></trkpt><trkpt lat="43.3565757" lon="11.4145358"><ele>229.0</ele><time>2026-04-04T09:37:07.926Z</time></trkpt><trkpt lat="43.3566171" lon="11.4143604"><ele>230.0</ele><time>2026-04-04T09:37:08.929Z</time></trkpt><trkpt lat="43.3566635" lon="11.4141744"><ele>231.0</ele><time>2026-04-04T09:37:09.923Z</time></trkpt><trkpt lat="43.3567075" lon="11.4139928"><ele>231.75</ele><time>2026-04-04T09:37:10.933Z</time></trkpt><trkpt lat="43.3567541" lon="11.413818"><ele>232.5</ele><time>2026-04-04T09:37:11.929Z</time></trkpt><trkpt lat="43.3567951" lon="11.4136443"><ele>233.25</ele><time>2026-04-04T09:37:12.93Z</time></trkpt><trkpt lat="43.3568436" lon="11.4134728"><ele>234.0</ele><time>2026-04-04T09:37:13.932Z</time></trkpt><trkpt lat="43.3568876" lon="11.4133209"><ele>234.0</ele><time>2026-04-04T09:37:14.923Z</time></trkpt><trkpt lat="43.3569272" lon="11.4131803"><ele>233.99999999999997</ele><time>2026-04-04T09:37:15.932Z</time></trkpt><trkpt lat="43.3569636" lon="11.4130634"><ele>233.99999999999997</ele><time>2026-04-04T09:37:16.936Z</time></trkpt><trkpt lat="43.3570006" lon="11.4129698"><ele>234.0</ele><time>2026-04-04T09:37:17.932Z</time></trkpt><trkpt lat="43.3570574" lon="11.412846"><ele>234.0</ele><time>2026-04-04T09:37:19.923Z</time></trkpt><trkpt lat="43.3570967" lon="11.4127593"><ele>234.0</ele><time>2026-04-04T09:37:21.928Z</time></trkpt><trkpt lat="43.3571248" lon="11.4126707"><ele>233.99999999999997</ele><time>2026-04-04T09:37:25.929Z</time></trkpt><trkpt lat="43.3570715" lon="11.4127339"><ele>233.99999999999997</ele><time>2026-04-04T09:37:34.929Z</time></trkpt><trkpt lat="43.3570157" lon="11.412854"><ele>234.0</ele><time>2026-04-04T09:37:36.924Z</time></trkpt><trkpt lat="43.3569788" lon="11.4129804"><ele>234.0</ele><time>2026-04-04T09:37:37.932Z</time></trkpt><trkpt lat="43.3569307" lon="11.41312"><ele>234.0</ele><time>2026-04-04T09:37:38.924Z</time></trkpt><trkpt lat="43.3568778" lon="11.4132678"><ele>234.0</ele><time>2026-04-04T09:37:39.928Z</time></trkpt><trkpt lat="43.3568297" lon="11.4134276"><ele>234.0</ele><time>2026-04-04T09:37:40.925Z</time></trkpt><trkpt lat="43.3567858" lon="11.41359"><ele>234.0</ele><time>2026-04-04T09:37:41.922Z</time></trkpt><trkpt lat="43.3567429" lon="11.4137469"><ele>233.39999999999998</ele><time>2026-04-04T09:37:42.926Z</time></trkpt><trkpt lat="43.3566995" lon="11.4139021"><ele>232.79999999999998</ele><time>2026-04-04T09:37:43.927Z</time></trkpt><trkpt lat="43.3566617" lon="11.4140481"><ele>232.20000000000002</ele><time>2026-04-04T09:37:44.93Z</time></trkpt><trkpt lat="43.3566264" lon="11.4141907"><ele>231.60000000000002</ele><time>2026-04-04T09:37:45.936Z</time></trkpt><trkpt lat="43.3565967" lon="11.4143266"><ele>231.0</ele><time>2026-04-04T09:37:46.931Z</time></trkpt><trkpt lat="43.3565658" lon="11.4144493"><ele>231.0</ele><time>2026-04-04T09:37:47.93Z</time></trkpt><trkpt lat="43.3565355" lon="11.414571"><ele>231.00000000000003</ele><time>2026-04-04T09:37:48.93Z</time></trkpt><trkpt lat="43.3565082" lon="11.4146966"><ele>231.00000000000003</ele><time>2026-04-04T09:37:49.924Z</time></trkpt><trkpt lat="43.3564805" lon="11.4148227"><ele>231.0</ele><time>2026-04-04T09:37:50.933Z</time></trkpt><trkpt lat="43.3564541" lon="11.4149559"><ele>231.0</ele><time>2026-04-04T09:37:51.929Z</time></trkpt><trkpt lat="43.3564281" lon="11.4150971"><ele>230.66666666666666</ele><time>2026-04-04T09:37:52.925Z</time></trkpt><trkpt lat="43.3563991" lon="11.4152299"><ele>230.33333333333331</ele><time>2026-04-04T09:37:53.929Z</time></trkpt><trkpt lat="43.3563688" lon="11.4153647"><ele>230.0</ele><time>2026-04-04T09:37:54.929Z</time></trkpt><trkpt lat="43.3563467" lon="11.415492"><ele>229.66666666666666</ele><time>2026-04-04T09:37:55.93Z</time></trkpt><trkpt lat="43.3563217" lon="11.415595"><ele>229.33333333333331</ele><time>2026-04-04T09:37:56.929Z</time></trkpt><trkpt lat="43.356307" lon="11.4156793"><ele>229.0</ele><time>2026-04-04T09:37:57.928Z</time></trkpt><trkpt lat="43.3562637" lon="11.4157703"><ele>227.6</ele><time>2026-04-04T09:37:59.929Z</time></trkpt><trkpt lat="43.3561463" lon="11.4158377"><ele>226.2</ele><time>2026-04-04T09:38:01.926Z</time></trkpt><trkpt lat="43.3560616" lon="11.415872"><ele>224.79999999999998</ele><time>2026-04-04T09:38:02.93Z</time></trkpt><trkpt lat="43.35597" lon="11.4159196"><ele>223.39999999999998</ele><time>2026-04-04T09:38:03.929Z</time></trkpt><trkpt lat="43.3558705" lon="11.4159786"><ele>222.0</ele><time>2026-04-04T09:38:04.93Z</time></trkpt><trkpt lat="43.3557691" lon="11.4160437"><ele>222.0</ele><time>2026-04-04T09:38:05.934Z</time></trkpt><trkpt lat="43.3556661" lon="11.4161164"><ele>222.0</ele><time>2026-04-04T09:38:06.93Z</time></trkpt><trkpt lat="43.3555581" lon="11.4161893"><ele>222.0</ele><time>2026-04-04T09:38:07.929Z</time></trkpt><trkpt lat="43.3554507" lon="11.4162311"><ele>222.0</ele><time>2026-04-04T09:38:08.932Z</time></trkpt><trkpt lat="43.3553386" lon="11.4162606"><ele>223.25</ele><time>2026-04-04T09:38:09.928Z</time></trkpt><trkpt lat="43.3552195" lon="11.4162514"><ele>224.5</ele><time>2026-04-04T09:38:10.932Z</time></trkpt><trkpt lat="43.3550919" lon="11.4162307"><ele>225.75</ele><time>2026-04-04T09:38:11.928Z</time></trkpt><trkpt lat="43.354952" lon="11.4162107"><ele>227.0</ele><time>2026-04-04T09:38:12.931Z</time></trkpt><trkpt lat="43.3548049" lon="11.4161955"><ele>226.33333333333334</ele><time>2026-04-04T09:38:13.923Z</time></trkpt><trkpt lat="43.3546518" lon="11.4161809"><ele>225.66666666666669</ele><time>2026-04-04T09:38:14.922Z</time></trkpt><trkpt lat="43.3544957" lon="11.4161606"><ele>225.0</ele><time>2026-04-04T09:38:15.934Z</time></trkpt><trkpt lat="43.3543296" lon="11.4161387"><ele>225.0</ele><time>2026-04-04T09:38:16.93Z</time></trkpt><trkpt lat="43.3541593" lon="11.4161171"><ele>225.0</ele><time>2026-04-04T09:38:17.931Z</time></trkpt><trkpt lat="43.3539775" lon="11.416095"><ele>225.0</ele><time>2026-04-04T09:38:18.93Z</time></trkpt><trkpt lat="43.3537955" lon="11.416065"><ele>224.33333333333331</ele><time>2026-04-04T09:38:19.917Z</time></trkpt><trkpt lat="43.3536102" lon="11.416031"><ele>223.66666666666666</ele><time>2026-04-04T09:38:20.923Z</time></trkpt><trkpt lat="43.353425" lon="11.4159872"><ele>223.0</ele><time>2026-04-04T09:38:21.936Z</time></trkpt><trkpt lat="43.3532418" lon="11.4159279"><ele>223.0</ele><time>2026-04-04T09:38:22.947Z</time></trkpt><trkpt lat="43.3530581" lon="11.4158696"><ele>223.0</ele><time>2026-04-04T09:38:23.933Z</time></trkpt><trkpt lat="43.3528708" lon="11.4158147"><ele>223.0</ele><time>2026-04-04T09:38:24.928Z</time></trkpt><trkpt lat="43.3526931" lon="11.4157636"><ele>223.0</ele><time>2026-04-04T09:38:25.916Z</time></trkpt><trkpt lat="43.3525177" lon="11.4157178"><ele>223.0</ele><time>2026-04-04T09:38:26.926Z</time></trkpt><trkpt lat="43.3523537" lon="11.4156719"><ele>223.0</ele><time>2026-04-04T09:38:27.928Z</time></trkpt><trkpt lat="43.3522056" lon="11.4156326"><ele>222.25</ele><time>2026-04-04T09:38:28.926Z</time></trkpt><trkpt lat="43.3520825" lon="11.4155998"><ele>221.5</ele><time>2026-04-04T09:38:29.935Z</time></trkpt><trkpt lat="43.3519712" lon="11.415564"><ele>220.75</ele><time>2026-04-04T09:38:30.933Z</time></trkpt><trkpt lat="43.3518566" lon="11.4155268"><ele>220.0</ele><time>2026-04-04T09:38:31.938Z</time></trkpt><trkpt lat="43.3517385" lon="11.4154895"><ele>220.0</ele><time>2026-04-04T09:38:32.925Z</time></trkpt><trkpt lat="43.3516128" lon="11.4154463"><ele>220.0</ele><time>2026-04-04T09:38:33.927Z</time></trkpt><trkpt lat="43.3514771" lon="11.4154131"><ele>220.0</ele><time>2026-04-04T09:38:34.931Z</time></trkpt><trkpt lat="43.3513331" lon="11.4153768"><ele>220.0</ele><time>2026-04-04T09:38:35.932Z</time></trkpt><trkpt lat="43.3511835" lon="11.4153374"><ele>220.0</ele><time>2026-04-04T09:38:36.926Z</time></trkpt><trkpt lat="43.351037" lon="11.4152988"><ele>220.0</ele><time>2026-04-04T09:38:37.926Z</time></trkpt><trkpt lat="43.3508872" lon="11.4152522"><ele>220.0</ele><time>2026-04-04T09:38:38.944Z</time></trkpt><trkpt lat="43.3507347" lon="11.4152076"><ele>220.0</ele><time>2026-04-04T09:38:39.933Z</time></trkpt><trkpt lat="43.3505752" lon="11.4151607"><ele>220.0</ele><time>2026-04-04T09:38:40.932Z</time></trkpt><trkpt lat="43.3504189" lon="11.4151173"><ele>220.0</ele><time>2026-04-04T09:38:41.935Z</time></trkpt><trkpt lat="43.3502755" lon="11.415069"><ele>220.5</ele><time>2026-04-04T09:38:42.926Z</time></trkpt><trkpt lat="43.3501409" lon="11.4150013"><ele>221.0</ele><time>2026-04-04T09:38:43.936Z</time></trkpt><trkpt lat="43.3500251" lon="11.4148938"><ele>221.5</ele><time>2026-04-04T09:38:44.937Z</time></trkpt><trkpt lat="43.3499425" lon="11.4147384"><ele>222.0</ele><time>2026-04-04T09:38:45.926Z</time></trkpt><trkpt lat="43.349851" lon="11.4145738"><ele>222.0</ele><time>2026-04-04T09:38:46.939Z</time></trkpt><trkpt lat="43.3497562" lon="11.4143918"><ele>222.0</ele><time>2026-04-04T09:38:47.93Z</time></trkpt><trkpt lat="43.3496645" lon="11.4142138"><ele>222.0</ele><time>2026-04-04T09:38:48.93Z</time></trkpt><trkpt lat="43.3495726" lon="11.4140309"><ele>223.66666666666669</ele><time>2026-04-04T09:38:49.931Z</time></trkpt><trkpt lat="43.349496" lon="11.4138318"><ele>225.33333333333334</ele><time>2026-04-04T09:38:50.924Z</time></trkpt><trkpt lat="43.349434" lon="11.4136206"><ele>227.0</ele><time>2026-04-04T09:38:51.923Z</time></trkpt><trkpt lat="43.3493757" lon="11.4134214"><ele>227.0</ele><time>2026-04-04T09:38:52.931Z</time></trkpt><trkpt lat="43.3492845" lon="11.4132179"><ele>227.0</ele><time>2026-04-04T09:38:53.936Z</time></trkpt><trkpt lat="43.3491662" lon="11.4130387"><ele>227.0</ele><time>2026-04-04T09:38:54.933Z</time></trkpt><trkpt lat="43.3490398" lon="11.4128768"><ele>226.33333333333334</ele><time>2026-04-04T09:38:55.924Z</time></trkpt><trkpt lat="43.3489193" lon="11.4126983"><ele>225.66666666666669</ele><time>2026-04-04T09:38:56.935Z</time></trkpt><trkpt lat="43.3488107" lon="11.4124987"><ele>225.0</ele><time>2026-04-04T09:38:57.93Z</time></trkpt><trkpt lat="43.3487165" lon="11.4122692"><ele>227.33333333333331</ele><time>2026-04-04T09:38:58.927Z</time></trkpt><trkpt lat="43.3486352" lon="11.4120368"><ele>229.66666666666666</ele><time>2026-04-04T09:38:59.929Z</time></trkpt><trkpt lat="43.3485816" lon="11.4117936"><ele>232.0</ele><time>2026-04-04T09:39:00.927Z</time></trkpt><trkpt lat="43.3485438" lon="11.411535"><ele>234.0</ele><time>2026-04-04T09:39:01.933Z</time></trkpt><trkpt lat="43.3485224" lon="11.4112621"><ele>236.0</ele><time>2026-04-04T09:39:02.927Z</time></trkpt><trkpt lat="43.3485026" lon="11.4109853"><ele>238.0</ele><time>2026-04-04T09:39:03.928Z</time></trkpt><trkpt lat="43.348463" lon="11.4107079"><ele>238.66666666666666</ele><time>2026-04-04T09:39:04.929Z</time></trkpt><trkpt lat="43.3484061" lon="11.4104441"><ele>239.33333333333331</ele><time>2026-04-04T09:39:05.93Z</time></trkpt><trkpt lat="43.3483415" lon="11.4101724"><ele>240.0</ele><time>2026-04-04T09:39:06.933Z</time></trkpt><trkpt lat="43.3482744" lon="11.4099043"><ele>240.0</ele><time>2026-04-04T09:39:07.933Z</time></trkpt><trkpt lat="43.3482059" lon="11.4096348"><ele>240.0</ele><time>2026-04-04T09:39:08.938Z</time></trkpt><trkpt lat="43.3481412" lon="11.4093668"><ele>240.0</ele><time>2026-04-04T09:39:09.931Z</time></trkpt><trkpt lat="43.3480807" lon="11.409105"><ele>247.0</ele><time>2026-04-04T09:39:10.928Z</time></trkpt><trkpt lat="43.3480377" lon="11.4088482"><ele>254.0</ele><time>2026-04-04T09:39:11.927Z</time></trkpt><trkpt lat="43.3480227" lon="11.4085775"><ele>261.0</ele><time>2026-04-04T09:39:12.934Z</time></trkpt><trkpt lat="43.348016" lon="11.4083107"><ele>262.0</ele><time>2026-04-04T09:39:13.922Z</time></trkpt><trkpt lat="43.3480175" lon="11.4080403"><ele>263.0</ele><time>2026-04-04T09:39:14.926Z</time></trkpt><trkpt lat="43.3480262" lon="11.4077666"><ele>264.0</ele><time>2026-04-04T09:39:15.927Z</time></trkpt><trkpt lat="43.3480402" lon="11.4074911"><ele>259.0</ele><time>2026-04-04T09:39:16.93Z</time></trkpt><trkpt lat="43.3480546" lon="11.4072136"><ele>254.0</ele><time>2026-04-04T09:39:17.929Z</time></trkpt><trkpt lat="43.3480684" lon="11.4069317"><ele>249.0</ele><time>2026-04-04T09:39:18.926Z</time></trkpt><trkpt lat="43.3480953" lon="11.4066606"><ele>249.0</ele><time>2026-04-04T09:39:19.927Z</time></trkpt><trkpt lat="43.3481411" lon="11.4064009"><ele>249.0</ele><time>2026-04-04T09:39:20.933Z</time></trkpt><trkpt lat="43.3482027" lon="11.4061381"><ele>249.0</ele><time>2026-04-04T09:39:21.929Z</time></trkpt><trkpt lat="43.3482721" lon="11.4058791"><ele>251.33333333333331</ele><time>2026-04-04T09:39:22.927Z</time></trkpt><trkpt lat="43.3483472" lon="11.4056293"><ele>253.66666666666666</ele><time>2026-04-04T09:39:23.926Z</time></trkpt><trkpt lat="43.3484095" lon="11.4053716"><ele>256.0</ele><time>2026-04-04T09:39:24.932Z</time></trkpt><trkpt lat="43.3484472" lon="11.4051077"><ele>259.66666666666663</ele><time>2026-04-04T09:39:25.927Z</time></trkpt><trkpt lat="43.3484751" lon="11.4048407"><ele>263.3333333333333</ele><time>2026-04-04T09:39:26.928Z</time></trkpt><trkpt lat="43.3485157" lon="11.4046082"><ele>267.0</ele><time>2026-04-04T09:39:27.924Z</time></trkpt><trkpt lat="43.3485896" lon="11.404392"><ele>267.6666666666667</ele><time>2026-04-04T09:39:28.934Z</time></trkpt><trkpt lat="43.3486777" lon="11.4042011"><ele>268.33333333333337</ele><time>2026-04-04T09:39:29.93Z</time></trkpt><trkpt lat="43.3487849" lon="11.4040178"><ele>269.0</ele><time>2026-04-04T09:39:30.927Z</time></trkpt><trkpt lat="43.3489112" lon="11.4038518"><ele>270.0</ele><time>2026-04-04T09:39:31.935Z</time></trkpt><trkpt lat="43.3490203" lon="11.4036717"><ele>271.0</ele><time>2026-04-04T09:39:32.925Z</time></trkpt><trkpt lat="43.3490915" lon="11.4034793"><ele>272.0</ele><time>2026-04-04T09:39:33.928Z</time></trkpt><trkpt lat="43.3491329" lon="11.4032809"><ele>272.0</ele><time>2026-04-04T09:39:34.937Z</time></trkpt><trkpt lat="43.3491478" lon="11.4030615"><ele>272.0</ele><time>2026-04-04T09:39:35.929Z</time></trkpt><trkpt lat="43.3491553" lon="11.402834"><ele>272.0</ele><time>2026-04-04T09:39:36.919Z</time></trkpt><trkpt lat="43.3491648" lon="11.4026084"><ele>273.75</ele><time>2026-04-04T09:39:37.933Z</time></trkpt><trkpt lat="43.3491841" lon="11.4023919"><ele>275.5</ele><time>2026-04-04T09:39:38.929Z</time></trkpt><trkpt lat="43.3492023" lon="11.4021992"><ele>277.25</ele><time>2026-04-04T09:39:39.922Z</time></trkpt><trkpt lat="43.3492333" lon="11.4020188"><ele>279.0</ele><time>2026-04-04T09:39:40.928Z</time></trkpt><trkpt lat="43.3492669" lon="11.4018375"><ele>281.0</ele><time>2026-04-04T09:39:41.926Z</time></trkpt><trkpt lat="43.3493293" lon="11.4016914"><ele>283.0</ele><time>2026-04-04T09:39:42.924Z</time></trkpt><trkpt lat="43.3494135" lon="11.4015771"><ele>285.0</ele><time>2026-04-04T09:39:43.934Z</time></trkpt><trkpt lat="43.3495236" lon="11.4015077"><ele>287.0</ele><time>2026-04-04T09:39:44.928Z</time></trkpt><trkpt lat="43.3496396" lon="11.4015017"><ele>286.0</ele><time>2026-04-04T09:39:45.93Z</time></trkpt><trkpt lat="43.3497431" lon="11.401544"><ele>285.0</ele><time>2026-04-04T09:39:46.928Z</time></trkpt><trkpt lat="43.3498472" lon="11.4015992"><ele>284.0</ele><time>2026-04-04T09:39:47.925Z</time></trkpt><trkpt lat="43.3499435" lon="11.4016427"><ele>283.0</ele><time>2026-04-04T09:39:48.924Z</time></trkpt><trkpt lat="43.3500276" lon="11.4016648"><ele>282.0</ele><time>2026-04-04T09:39:49.927Z</time></trkpt><trkpt lat="43.3501128" lon="11.4016349"><ele>282.0</ele><time>2026-04-04T09:39:50.923Z</time></trkpt><trkpt lat="43.3501874" lon="11.4015643"><ele>282.0</ele><time>2026-04-04T09:39:51.932Z</time></trkpt><trkpt lat="43.3502297" lon="11.4014832"><ele>282.0</ele><time>2026-04-04T09:39:52.926Z</time></trkpt><trkpt lat="43.3502452" lon="11.401384"><ele>282.0</ele><time>2026-04-04T09:39:53.935Z</time></trkpt><trkpt lat="43.3502509" lon="11.4012954"><ele>282.0</ele><time>2026-04-04T09:39:54.927Z</time></trkpt><trkpt lat="43.350226" lon="11.4012053"><ele>282.0</ele><time>2026-04-04T09:39:55.929Z</time></trkpt><trkpt lat="43.3501833" lon="11.401102"><ele>284.0</ele><time>2026-04-04T09:39:56.928Z</time></trkpt><trkpt lat="43.3501241" lon="11.4010119"><ele>286.0</ele><time>2026-04-04T09:39:57.928Z</time></trkpt><trkpt lat="43.3500548" lon="11.4009059"><ele>288.0</ele><time>2026-04-04T09:39:58.923Z</time></trkpt><trkpt lat="43.3499773" lon="11.4007993"><ele>290.0</ele><time>2026-04-04T09:39:59.933Z</time></trkpt><trkpt lat="43.3498872" lon="11.4007038"><ele>292.0</ele><time>2026-04-04T09:40:00.927Z</time></trkpt><trkpt lat="43.3497919" lon="11.4006236"><ele>292.5</ele><time>2026-04-04T09:40:01.933Z</time></trkpt><trkpt lat="43.3496764" lon="11.4005904"><ele>293.0</ele><time>2026-04-04T09:40:02.931Z</time></trkpt><trkpt lat="43.3495512" lon="11.4005901"><ele>293.5</ele><time>2026-04-04T09:40:03.93Z</time></trkpt><trkpt lat="43.3494269" lon="11.4006515"><ele>294.0</ele><time>2026-04-04T09:40:04.92Z</time></trkpt><trkpt lat="43.349303" lon="11.4007238"><ele>294.0</ele><time>2026-04-04T09:40:05.933Z</time></trkpt><trkpt lat="43.3491953" lon="11.4007954"><ele>294.0</ele><time>2026-04-04T09:40:06.931Z</time></trkpt><trkpt lat="43.3490987" lon="11.4008561"><ele>294.0</ele><time>2026-04-04T09:40:07.934Z</time></trkpt><trkpt lat="43.3490017" lon="11.4009152"><ele>294.0</ele><time>2026-04-04T09:40:08.923Z</time></trkpt><trkpt lat="43.3489112" lon="11.4009691"><ele>294.0</ele><time>2026-04-04T09:40:09.926Z</time></trkpt><trkpt lat="43.3488262" lon="11.4010209"><ele>295.2</ele><time>2026-04-04T09:40:10.928Z</time></trkpt><trkpt lat="43.348742" lon="11.4010568"><ele>296.4</ele><time>2026-04-04T09:40:11.928Z</time></trkpt><trkpt lat="43.3486557" lon="11.4010504"><ele>297.6</ele><time>2026-04-04T09:40:12.925Z</time></trkpt><trkpt lat="43.3485727" lon="11.4010033"><ele>298.8</ele><time>2026-04-04T09:40:13.93Z</time></trkpt><trkpt lat="43.3484974" lon="11.4009286"><ele>300.0</ele><time>2026-04-04T09:40:14.922Z</time></trkpt><trkpt lat="43.3484238" lon="11.4008493"><ele>300.0</ele><time>2026-04-04T09:40:15.934Z</time></trkpt><trkpt lat="43.3483509" lon="11.4007679"><ele>300.0</ele><time>2026-04-04T09:40:16.925Z</time></trkpt><trkpt lat="43.3482754" lon="11.4006736"><ele>300.0</ele><time>2026-04-04T09:40:17.931Z</time></trkpt><trkpt lat="43.3481936" lon="11.4005819"><ele>300.0</ele><time>2026-04-04T09:40:18.931Z</time></trkpt><trkpt lat="43.3481002" lon="11.4004952"><ele>300.0</ele><time>2026-04-04T09:40:19.926Z</time></trkpt><trkpt lat="43.3480013" lon="11.400413"><ele>301.4</ele><time>2026-04-04T09:40:20.938Z</time></trkpt><trkpt lat="43.3478915" lon="11.4003393"><ele>302.8</ele><time>2026-04-04T09:40:21.932Z</time></trkpt><trkpt lat="43.3477867" lon="11.4002784"><ele>304.2</ele><time>2026-04-04T09:40:22.937Z</time></trkpt><trkpt lat="43.3476858" lon="11.4002211"><ele>305.6</ele><time>2026-04-04T09:40:23.946Z</time></trkpt><trkpt lat="43.3475931" lon="11.4001633"><ele>307.0</ele><time>2026-04-04T09:40:24.935Z</time></trkpt><trkpt lat="43.347519" lon="11.4000915"><ele>307.0</ele><time>2026-04-04T09:40:25.939Z</time></trkpt><trkpt lat="43.347465" lon="11.4000017"><ele>307.0</ele><time>2026-04-04T09:40:26.931Z</time></trkpt><trkpt lat="43.3474238" lon="11.3999033"><ele>307.0</ele><time>2026-04-04T09:40:27.931Z</time></trkpt><trkpt lat="43.3474048" lon="11.3997782"><ele>307.0</ele><time>2026-04-04T09:40:28.939Z</time></trkpt><trkpt lat="43.3474179" lon="11.3996613"><ele>307.0</ele><time>2026-04-04T09:40:29.926Z</time></trkpt><trkpt lat="43.3474546" lon="11.3995549"><ele>307.0</ele><time>2026-04-04T09:40:30.933Z</time></trkpt><trkpt lat="43.3475046" lon="11.3994592"><ele>307.2</ele><time>2026-04-04T09:40:31.937Z</time></trkpt><trkpt lat="43.3475611" lon="11.3993758"><ele>307.4</ele><time>2026-04-04T09:40:32.932Z</time></trkpt><trkpt lat="43.3476336" lon="11.3993086"><ele>307.6</ele><time>2026-04-04T09:40:33.947Z</time></trkpt><trkpt lat="43.3477169" lon="11.3992451"><ele>307.8</ele><time>2026-04-04T09:40:34.93Z</time></trkpt><trkpt lat="43.3478028" lon="11.3991923"><ele>308.0</ele><time>2026-04-04T09:40:35.938Z</time></trkpt><trkpt lat="43.3478973" lon="11.3991378"><ele>308.0</ele><time>2026-04-04T09:40:36.938Z</time></trkpt><trkpt lat="43.347991" lon="11.3990891"><ele>308.0</ele><time>2026-04-04T09:40:37.935Z</time></trkpt><trkpt lat="43.348094" lon="11.3990456"><ele>308.0</ele><time>2026-04-04T09:40:38.933Z</time></trkpt><trkpt lat="43.3481907" lon="11.3990148"><ele>308.0</ele><time>2026-04-04T09:40:39.939Z</time></trkpt><trkpt lat="43.3482844" lon="11.3989919"><ele>308.0</ele><time>2026-04-04T09:40:40.93Z</time></trkpt><trkpt lat="43.3483656" lon="11.3989805"><ele>308.4</ele><time>2026-04-04T09:40:41.924Z</time></trkpt><trkpt lat="43.3484381" lon="11.3989295"><ele>308.8</ele><time>2026-04-04T09:40:43.924Z</time></trkpt><trkpt lat="43.3483985" lon="11.3988313"><ele>309.2</ele><time>2026-04-04T09:40:45.933Z</time></trkpt><trkpt lat="43.348325" lon="11.3986769"><ele>309.6</ele><time>2026-04-04T09:40:47.927Z</time></trkpt><trkpt lat="43.348278" lon="11.3985897"><ele>310.0</ele><time>2026-04-04T09:40:48.927Z</time></trkpt><trkpt lat="43.3482202" lon="11.3985267"><ele>309.16666666666663</ele><time>2026-04-04T09:40:49.927Z</time></trkpt><trkpt lat="43.3481502" lon="11.398495"><ele>308.3333333333333</ele><time>2026-04-04T09:40:50.924Z</time></trkpt><trkpt lat="43.3480755" lon="11.3984821"><ele>307.5</ele><time>2026-04-04T09:40:51.929Z</time></trkpt><trkpt lat="43.347995" lon="11.3985096"><ele>306.6666666666667</ele><time>2026-04-04T09:40:52.926Z</time></trkpt><trkpt lat="43.3479078" lon="11.398553"><ele>305.83333333333337</ele><time>2026-04-04T09:40:53.926Z</time></trkpt><trkpt lat="43.3478094" lon="11.3986064"><ele>305.0</ele><time>2026-04-04T09:40:54.924Z</time></trkpt><trkpt lat="43.3477075" lon="11.3986488"><ele>303.5</ele><time>2026-04-04T09:40:55.925Z</time></trkpt><trkpt lat="43.3476009" lon="11.3986778"><ele>302.0</ele><time>2026-04-04T09:40:56.929Z</time></trkpt><trkpt lat="43.3474837" lon="11.3986994"><ele>300.5</ele><time>2026-04-04T09:40:57.931Z</time></trkpt><trkpt lat="43.3473536" lon="11.3987142"><ele>299.0</ele><time>2026-04-04T09:40:58.938Z</time></trkpt><trkpt lat="43.3472246" lon="11.3987393"><ele>299.75</ele><time>2026-04-04T09:40:59.924Z</time></trkpt><trkpt lat="43.3471029" lon="11.3987556"><ele>300.5</ele><time>2026-04-04T09:41:00.927Z</time></trkpt><trkpt lat="43.3469805" lon="11.3987821"><ele>301.25</ele><time>2026-04-04T09:41:01.928Z</time></trkpt><trkpt lat="43.3468728" lon="11.3988333"><ele>302.0</ele><time>2026-04-04T09:41:02.923Z</time></trkpt><trkpt lat="43.3467849" lon="11.3989227"><ele>302.0</ele><time>2026-04-04T09:41:03.931Z</time></trkpt><trkpt lat="43.3467039" lon="11.399024"><ele>302.0</ele><time>2026-04-04T09:41:04.932Z</time></trkpt><trkpt lat="43.3466215" lon="11.3991426"><ele>302.0</ele><time>2026-04-04T09:41:05.931Z</time></trkpt><trkpt lat="43.3465443" lon="11.399271"><ele>302.0</ele><time>2026-04-04T09:41:06.924Z</time></trkpt><trkpt lat="43.3464642" lon="11.3994078"><ele>301.25</ele><time>2026-04-04T09:41:07.93Z</time></trkpt><trkpt lat="43.3463772" lon="11.3995416"><ele>300.5</ele><time>2026-04-04T09:41:08.927Z</time></trkpt><trkpt lat="43.3462944" lon="11.3996834"><ele>299.75</ele><time>2026-04-04T09:41:09.927Z</time></trkpt><trkpt lat="43.346211" lon="11.3998101"><ele>299.0</ele><time>2026-04-04T09:41:10.932Z</time></trkpt><trkpt lat="43.3461267" lon="11.3999357"><ele>299.0</ele><time>2026-04-04T09:41:11.929Z</time></trkpt><trkpt lat="43.3460433" lon="11.4000641"><ele>299.0</ele><time>2026-04-04T09:41:12.934Z</time></trkpt><trkpt lat="43.3459629" lon="11.4001848"><ele>299.0</ele><time>2026-04-04T09:41:13.93Z</time></trkpt><trkpt lat="43.3458851" lon="11.4003069"><ele>299.0</ele><time>2026-04-04T09:41:14.926Z</time></trkpt><trkpt lat="43.3458097" lon="11.4004194"><ele>299.0</ele><time>2026-04-04T09:41:15.929Z</time></trkpt><trkpt lat="43.345738" lon="11.4005208"><ele>299.0</ele><time>2026-04-04T09:41:16.929Z</time></trkpt><trkpt lat="43.345678" lon="11.4006062"><ele>299.0</ele><time>2026-04-04T09:41:17.939Z</time></trkpt><trkpt lat="43.3456314" lon="11.4006742"><ele>299.0</ele><time>2026-04-04T09:41:18.931Z</time></trkpt><trkpt lat="43.3455893" lon="11.4007464"><ele>299.0</ele><time>2026-04-04T09:41:19.934Z</time></trkpt><trkpt lat="43.3455043" lon="11.4008775"><ele>299.0</ele><time>2026-04-04T09:41:21.931Z</time></trkpt><trkpt lat="43.3454592" lon="11.4009476"><ele>299.0</ele><time>2026-04-04T09:41:22.929Z</time></trkpt><trkpt lat="43.3454041" lon="11.4010166"><ele>299.0</ele><time>2026-04-04T09:41:23.942Z</time></trkpt><trkpt lat="43.3453437" lon="11.401081"><ele>299.0</ele><time>2026-04-04T09:41:24.926Z</time></trkpt><trkpt lat="43.3452729" lon="11.4011348"><ele>299.0</ele><time>2026-04-04T09:41:25.935Z</time></trkpt><trkpt lat="43.345185" lon="11.4011749"><ele>299.0</ele><time>2026-04-04T09:41:26.93Z</time></trkpt><trkpt lat="43.345094" lon="11.4012107"><ele>299.0</ele><time>2026-04-04T09:41:27.926Z</time></trkpt><trkpt lat="43.3449941" lon="11.401253"><ele>299.0</ele><time>2026-04-04T09:41:28.936Z</time></trkpt><trkpt lat="43.3448913" lon="11.4012929"><ele>299.0</ele><time>2026-04-04T09:41:29.935Z</time></trkpt><trkpt lat="43.3447799" lon="11.401324"><ele>299.0</ele><time>2026-04-04T09:41:30.932Z</time></trkpt><trkpt lat="43.3446687" lon="11.401342"><ele>299.0</ele><time>2026-04-04T09:41:31.933Z</time></trkpt><trkpt lat="43.344552" lon="11.4013493"><ele>297.8</ele><time>2026-04-04T09:41:32.933Z</time></trkpt><trkpt lat="43.3444369" lon="11.4013545"><ele>296.59999999999997</ele><time>2026-04-04T09:41:33.94Z</time></trkpt><trkpt lat="43.344323" lon="11.4013551"><ele>295.4</ele><time>2026-04-04T09:41:34.927Z</time></trkpt><trkpt lat="43.3442138" lon="11.4013638"><ele>294.2</ele><time>2026-04-04T09:41:35.943Z</time></trkpt><trkpt lat="43.3441061" lon="11.401384"><ele>293.0</ele><time>2026-04-04T09:41:36.934Z</time></trkpt><trkpt lat="43.3439969" lon="11.4014228"><ele>293.0</ele><time>2026-04-04T09:41:37.936Z</time></trkpt><trkpt lat="43.3438823" lon="11.4014845"><ele>293.0</ele><time>2026-04-04T09:41:38.93Z</time></trkpt><trkpt lat="43.3437698" lon="11.4015396"><ele>293.0</ele><time>2026-04-04T09:41:39.93Z</time></trkpt><trkpt lat="43.3436634" lon="11.4016079"><ele>293.0</ele><time>2026-04-04T09:41:40.938Z</time></trkpt><trkpt lat="43.3435593" lon="11.4016729"><ele>292.8</ele><time>2026-04-04T09:41:41.928Z</time></trkpt><trkpt lat="43.3434654" lon="11.4017432"><ele>292.6</ele><time>2026-04-04T09:41:42.923Z</time></trkpt><trkpt lat="43.3433725" lon="11.4018187"><ele>292.4</ele><time>2026-04-04T09:41:43.931Z</time></trkpt><trkpt lat="43.3432948" lon="11.4019122"><ele>292.2</ele><time>2026-04-04T09:41:44.933Z</time></trkpt><trkpt lat="43.3432303" lon="11.4020123"><ele>292.0</ele><time>2026-04-04T09:41:45.932Z</time></trkpt><trkpt lat="43.3431757" lon="11.402121"><ele>291.5</ele><time>2026-04-04T09:41:46.92Z</time></trkpt><trkpt lat="43.3431376" lon="11.4022341"><ele>291.0</ele><time>2026-04-04T09:41:47.934Z</time></trkpt><trkpt lat="43.3431068" lon="11.4023474"><ele>290.5</ele><time>2026-04-04T09:41:48.93Z</time></trkpt><trkpt lat="43.3430832" lon="11.402462"><ele>290.0</ele><time>2026-04-04T09:41:49.931Z</time></trkpt><trkpt lat="43.3430696" lon="11.4025811"><ele>289.5</ele><time>2026-04-04T09:41:50.937Z</time></trkpt><trkpt lat="43.3430635" lon="11.4027009"><ele>289.0</ele><time>2026-04-04T09:41:51.933Z</time></trkpt><trkpt lat="43.3430572" lon="11.4028303"><ele>289.0</ele><time>2026-04-04T09:41:52.93Z</time></trkpt><trkpt lat="43.3430388" lon="11.4029591"><ele>289.0</ele><time>2026-04-04T09:41:53.933Z</time></trkpt><trkpt lat="43.3430045" lon="11.4030719"><ele>289.0</ele><time>2026-04-04T09:41:54.934Z</time></trkpt><trkpt lat="43.3429501" lon="11.4031691"><ele>289.0</ele><time>2026-04-04T09:41:55.94Z</time></trkpt><trkpt lat="43.3428885" lon="11.4032376"><ele>289.0</ele><time>2026-04-04T09:41:56.932Z</time></trkpt><trkpt lat="43.3428062" lon="11.4032835"><ele>289.0</ele><time>2026-04-04T09:41:57.934Z</time></trkpt><trkpt lat="43.3427164" lon="11.4033031"><ele>289.0</ele><time>2026-04-04T09:41:58.937Z</time></trkpt><trkpt lat="43.3426187" lon="11.4033193"><ele>289.0</ele><time>2026-04-04T09:41:59.926Z</time></trkpt><trkpt lat="43.3425188" lon="11.4033478"><ele>289.0</ele><time>2026-04-04T09:42:00.932Z</time></trkpt><trkpt lat="43.3424214" lon="11.4033875"><ele>289.0</ele><time>2026-04-04T09:42:01.929Z</time></trkpt><trkpt lat="43.3423326" lon="11.4034454"><ele>289.0</ele><time>2026-04-04T09:42:02.93Z</time></trkpt><trkpt lat="43.3422382" lon="11.4035333"><ele>287.75</ele><time>2026-04-04T09:42:03.928Z</time></trkpt><trkpt lat="43.342132" lon="11.4036504"><ele>286.5</ele><time>2026-04-04T09:42:04.934Z</time></trkpt><trkpt lat="43.3420238" lon="11.4037808"><ele>285.25</ele><time>2026-04-04T09:42:05.935Z</time></trkpt><trkpt lat="43.3419122" lon="11.4039066"><ele>284.0</ele><time>2026-04-04T09:42:06.929Z</time></trkpt><trkpt lat="43.3418067" lon="11.4040225"><ele>284.0</ele><time>2026-04-04T09:42:07.926Z</time></trkpt><trkpt lat="43.3417015" lon="11.4041345"><ele>284.0</ele><time>2026-04-04T09:42:08.933Z</time></trkpt><trkpt lat="43.3416008" lon="11.4042513"><ele>284.0</ele><time>2026-04-04T09:42:09.935Z</time></trkpt><trkpt lat="43.3414986" lon="11.4043665"><ele>284.0</ele><time>2026-04-04T09:42:10.933Z</time></trkpt><trkpt lat="43.3413996" lon="11.4044802"><ele>285.5</ele><time>2026-04-04T09:42:11.926Z</time></trkpt><trkpt lat="43.3413081" lon="11.4046105"><ele>287.0</ele><time>2026-04-04T09:42:12.925Z</time></trkpt><trkpt lat="43.3412274" lon="11.4047478"><ele>288.5</ele><time>2026-04-04T09:42:13.932Z</time></trkpt><trkpt lat="43.3411533" lon="11.4048895"><ele>290.0</ele><time>2026-04-04T09:42:14.94Z</time></trkpt><trkpt lat="43.3410708" lon="11.4050197"><ele>290.0</ele><time>2026-04-04T09:42:15.931Z</time></trkpt><trkpt lat="43.3409829" lon="11.4051354"><ele>290.0</ele><time>2026-04-04T09:42:16.932Z</time></trkpt><trkpt lat="43.3408906" lon="11.4052427"><ele>290.0</ele><time>2026-04-04T09:42:17.929Z</time></trkpt><trkpt lat="43.340796" lon="11.4053328"><ele>290.0</ele><time>2026-04-04T09:42:18.925Z</time></trkpt><trkpt lat="43.3406958" lon="11.4054136"><ele>290.0</ele><time>2026-04-04T09:42:19.933Z</time></trkpt><trkpt lat="43.3405861" lon="11.4054867"><ele>290.0</ele><time>2026-04-04T09:42:20.933Z</time></trkpt><trkpt lat="43.3404689" lon="11.4055556"><ele>290.0</ele><time>2026-04-04T09:42:21.931Z</time></trkpt><trkpt lat="43.340346" lon="11.4056296"><ele>290.0</ele><time>2026-04-04T09:42:22.925Z</time></trkpt><trkpt lat="43.3402198" lon="11.4056946"><ele>290.0</ele><time>2026-04-04T09:42:23.936Z</time></trkpt><trkpt lat="43.3400982" lon="11.4057685"><ele>290.0</ele><time>2026-04-04T09:42:24.922Z</time></trkpt><trkpt lat="43.3399847" lon="11.405845"><ele>290.0</ele><time>2026-04-04T09:42:25.937Z</time></trkpt><trkpt lat="43.3398782" lon="11.4059158"><ele>290.0</ele><time>2026-04-04T09:42:26.929Z</time></trkpt><trkpt lat="43.3397814" lon="11.4059766"><ele>289.5</ele><time>2026-04-04T09:42:27.931Z</time></trkpt><trkpt lat="43.3397036" lon="11.4060498"><ele>289.0</ele><time>2026-04-04T09:42:28.932Z</time></trkpt><trkpt lat="43.3396413" lon="11.4061112"><ele>288.5</ele><time>2026-04-04T09:42:29.93Z</time></trkpt><trkpt lat="43.3395845" lon="11.4061808"><ele>288.0</ele><time>2026-04-04T09:42:30.935Z</time></trkpt><trkpt lat="43.339542" lon="11.4062606"><ele>287.5</ele><time>2026-04-04T09:42:31.935Z</time></trkpt><trkpt lat="43.339502" lon="11.4063523"><ele>287.0</ele><time>2026-04-04T09:42:32.929Z</time></trkpt><trkpt lat="43.3394605" lon="11.40646"><ele>287.0</ele><time>2026-04-04T09:42:33.931Z</time></trkpt><trkpt lat="43.3394047" lon="11.406581"><ele>287.0</ele><time>2026-04-04T09:42:34.931Z</time></trkpt><trkpt lat="43.3393399" lon="11.4066948"><ele>287.0</ele><time>2026-04-04T09:42:35.934Z</time></trkpt><trkpt lat="43.3392686" lon="11.4068039"><ele>287.0</ele><time>2026-04-04T09:42:36.93Z</time></trkpt><trkpt lat="43.3391838" lon="11.4069103"><ele>287.0</ele><time>2026-04-04T09:42:37.932Z</time></trkpt><trkpt lat="43.3390884" lon="11.4070282"><ele>287.0</ele><time>2026-04-04T09:42:38.925Z</time></trkpt><trkpt lat="43.3389867" lon="11.4071469"><ele>287.0</ele><time>2026-04-04T09:42:39.934Z</time></trkpt><trkpt lat="43.3388874" lon="11.407266"><ele>287.0</ele><time>2026-04-04T09:42:40.932Z</time></trkpt><trkpt lat="43.3387788" lon="11.4073795"><ele>287.0</ele><time>2026-04-04T09:42:41.934Z</time></trkpt><trkpt lat="43.338673" lon="11.4074864"><ele>287.4</ele><time>2026-04-04T09:42:42.928Z</time></trkpt><trkpt lat="43.3385735" lon="11.4075768"><ele>287.79999999999995</ele><time>2026-04-04T09:42:43.927Z</time></trkpt><trkpt lat="43.33848" lon="11.4076563"><ele>288.2</ele><time>2026-04-04T09:42:44.929Z</time></trkpt><trkpt lat="43.3383902" lon="11.4077184"><ele>288.59999999999997</ele><time>2026-04-04T09:42:45.936Z</time></trkpt><trkpt lat="43.3382993" lon="11.4077666"><ele>289.0</ele><time>2026-04-04T09:42:46.931Z</time></trkpt><trkpt lat="43.338219" lon="11.4078045"><ele>289.0</ele><time>2026-04-04T09:42:47.923Z</time></trkpt><trkpt lat="43.3381526" lon="11.4078249"><ele>289.0</ele><time>2026-04-04T09:42:48.928Z</time></trkpt><trkpt lat="43.3380873" lon="11.4078192"><ele>289.0</ele><time>2026-04-04T09:42:49.945Z</time></trkpt><trkpt lat="43.3380223" lon="11.4077838"><ele>289.0</ele><time>2026-04-04T09:42:50.933Z</time></trkpt><trkpt lat="43.3379556" lon="11.4077255"><ele>289.0</ele><time>2026-04-04T09:42:51.927Z</time></trkpt><trkpt lat="43.3378761" lon="11.4076492"><ele>289.0</ele><time>2026-04-04T09:42:52.929Z</time></trkpt><trkpt lat="43.3377875" lon="11.4075727"><ele>289.4</ele><time>2026-04-04T09:42:53.935Z</time></trkpt><trkpt lat="43.3377065" lon="11.4074882"><ele>289.79999999999995</ele><time>2026-04-04T09:42:54.932Z</time></trkpt><trkpt lat="43.3376303" lon="11.4074099"><ele>290.20000000000005</ele><time>2026-04-04T09:42:55.932Z</time></trkpt><trkpt lat="43.3375545" lon="11.4073363"><ele>290.6</ele><time>2026-04-04T09:42:56.931Z</time></trkpt><trkpt lat="43.3374729" lon="11.4072622"><ele>291.0</ele><time>2026-04-04T09:42:57.925Z</time></trkpt><trkpt lat="43.3373933" lon="11.4071833"><ele>290.75</ele><time>2026-04-04T09:42:58.93Z</time></trkpt><trkpt lat="43.337304" lon="11.4071041"><ele>290.5</ele><time>2026-04-04T09:42:59.924Z</time></trkpt><trkpt lat="43.3372083" lon="11.4070325"><ele>290.25</ele><time>2026-04-04T09:43:00.937Z</time></trkpt><trkpt lat="43.3371046" lon="11.4069704"><ele>290.0</ele><time>2026-04-04T09:43:01.922Z</time></trkpt><trkpt lat="43.3369836" lon="11.406914"><ele>290.5</ele><time>2026-04-04T09:43:02.932Z</time></trkpt><trkpt lat="43.3368452" lon="11.4068599"><ele>291.0</ele><time>2026-04-04T09:43:03.928Z</time></trkpt><trkpt lat="43.336708" lon="11.4068049"><ele>291.5</ele><time>2026-04-04T09:43:04.935Z</time></trkpt><trkpt lat="43.3365806" lon="11.4067532"><ele>292.0</ele><time>2026-04-04T09:43:05.932Z</time></trkpt><trkpt lat="43.3364708" lon="11.4067152"><ele>293.4</ele><time>2026-04-04T09:43:06.932Z</time></trkpt><trkpt lat="43.3363674" lon="11.4066879"><ele>294.79999999999995</ele><time>2026-04-04T09:43:07.935Z</time></trkpt><trkpt lat="43.3362701" lon="11.4066694"><ele>296.2</ele><time>2026-04-04T09:43:08.926Z</time></trkpt><trkpt lat="43.3361782" lon="11.4066827"><ele>297.59999999999997</ele><time>2026-04-04T09:43:09.933Z</time></trkpt><trkpt lat="43.3360893" lon="11.4067052"><ele>299.0</ele><time>2026-04-04T09:43:10.929Z</time></trkpt><trkpt lat="43.3360035" lon="11.4067538"><ele>299.0</ele><time>2026-04-04T09:43:11.931Z</time></trkpt><trkpt lat="43.3359173" lon="11.4068441"><ele>299.0</ele><time>2026-04-04T09:43:12.927Z</time></trkpt><trkpt lat="43.3358347" lon="11.406944"><ele>299.0</ele><time>2026-04-04T09:43:13.926Z</time></trkpt><trkpt lat="43.3357411" lon="11.4070562"><ele>299.0</ele><time>2026-04-04T09:43:14.927Z</time></trkpt><trkpt lat="43.3356457" lon="11.4071577"><ele>298.59999999999997</ele><time>2026-04-04T09:43:15.929Z</time></trkpt><trkpt lat="43.3355586" lon="11.407254"><ele>298.2</ele><time>2026-04-04T09:43:16.925Z</time></trkpt><trkpt lat="43.335473" lon="11.4073235"><ele>297.79999999999995</ele><time>2026-04-04T09:43:17.934Z</time></trkpt><trkpt lat="43.3353849" lon="11.4073666"><ele>297.4</ele><time>2026-04-04T09:43:18.93Z</time></trkpt><trkpt lat="43.3352893" lon="11.4073832"><ele>297.0</ele><time>2026-04-04T09:43:19.933Z</time></trkpt><trkpt lat="43.3351895" lon="11.4073858"><ele>297.0</ele><time>2026-04-04T09:43:20.931Z</time></trkpt><trkpt lat="43.3350892" lon="11.4073947"><ele>297.0</ele><time>2026-04-04T09:43:21.926Z</time></trkpt><trkpt lat="43.3349865" lon="11.4074271"><ele>297.0</ele><time>2026-04-04T09:43:22.929Z</time></trkpt><trkpt lat="43.334881" lon="11.4074548"><ele>297.0</ele><time>2026-04-04T09:43:23.925Z</time></trkpt><trkpt lat="43.334782" lon="11.40748"><ele>297.0</ele><time>2026-04-04T09:43:24.93Z</time></trkpt><trkpt lat="43.3346761" lon="11.4074985"><ele>295.6</ele><time>2026-04-04T09:43:25.934Z</time></trkpt><trkpt lat="43.3345692" lon="11.4075051"><ele>294.2</ele><time>2026-04-04T09:43:26.924Z</time></trkpt><trkpt lat="43.3344784" lon="11.407497"><ele>292.8</ele><time>2026-04-04T09:43:27.927Z</time></trkpt><trkpt lat="43.3344034" lon="11.4074852"><ele>291.4</ele><time>2026-04-04T09:43:28.932Z</time></trkpt><trkpt lat="43.3343042" lon="11.4074243"><ele>290.0</ele><time>2026-04-04T09:43:30.935Z</time></trkpt><trkpt lat="43.3342541" lon="11.4072754"><ele>290.0</ele><time>2026-04-04T09:43:32.927Z</time></trkpt><trkpt lat="43.33423" lon="11.4071629"><ele>290.0</ele><time>2026-04-04T09:43:33.936Z</time></trkpt><trkpt lat="43.3342155" lon="11.4070375"><ele>290.0</ele><time>2026-04-04T09:43:34.929Z</time></trkpt><trkpt lat="43.3342034" lon="11.4069074"><ele>290.0</ele><time>2026-04-04T09:43:35.936Z</time></trkpt><trkpt lat="43.3341886" lon="11.4067827"><ele>290.0</ele><time>2026-04-04T09:43:36.93Z</time></trkpt><trkpt lat="43.3341752" lon="11.4066556"><ele>289.8</ele><time>2026-04-04T09:43:37.935Z</time></trkpt><trkpt lat="43.334161" lon="11.4065216"><ele>289.6</ele><time>2026-04-04T09:43:38.931Z</time></trkpt><trkpt lat="43.3341471" lon="11.4063877"><ele>289.4</ele><time>2026-04-04T09:43:39.93Z</time></trkpt><trkpt lat="43.3341238" lon="11.4062494"><ele>289.2</ele><time>2026-04-04T09:43:40.932Z</time></trkpt><trkpt lat="43.3341041" lon="11.4061097"><ele>289.0</ele><time>2026-04-04T09:43:41.946Z</time></trkpt><trkpt lat="43.3340909" lon="11.4059814"><ele>288.4</ele><time>2026-04-04T09:43:42.93Z</time></trkpt><trkpt lat="43.3340825" lon="11.4058481"><ele>287.79999999999995</ele><time>2026-04-04T09:43:43.942Z</time></trkpt><trkpt lat="43.334088" lon="11.405703"><ele>287.20000000000005</ele><time>2026-04-04T09:43:44.933Z</time></trkpt><trkpt lat="43.3341021" lon="11.4055455"><ele>286.6</ele><time>2026-04-04T09:43:45.932Z</time></trkpt><trkpt lat="43.3341133" lon="11.4053849"><ele>286.0</ele><time>2026-04-04T09:43:46.933Z</time></trkpt><trkpt lat="43.3341259" lon="11.4052213"><ele>285.2</ele><time>2026-04-04T09:43:47.931Z</time></trkpt><trkpt lat="43.334147" lon="11.4050544"><ele>284.40000000000003</ele><time>2026-04-04T09:43:48.936Z</time></trkpt><trkpt lat="43.3341628" lon="11.4048951"><ele>283.6</ele><time>2026-04-04T09:43:49.929Z</time></trkpt><trkpt lat="43.3341812" lon="11.404746"><ele>282.8</ele><time>2026-04-04T09:43:50.927Z</time></trkpt><trkpt lat="43.334194" lon="11.4046174"><ele>282.0</ele><time>2026-04-04T09:43:51.937Z</time></trkpt><trkpt lat="43.3342011" lon="11.4044993"><ele>282.0</ele><time>2026-04-04T09:43:52.931Z</time></trkpt><trkpt lat="43.3342122" lon="11.4044025"><ele>282.0</ele><time>2026-04-04T09:43:53.931Z</time></trkpt><trkpt lat="43.3342166" lon="11.4042552"><ele>282.0</ele><time>2026-04-04T09:43:55.931Z</time></trkpt><trkpt lat="43.3342047" lon="11.4041671"><ele>282.0</ele><time>2026-04-04T09:43:57.931Z</time></trkpt><trkpt lat="43.334148" lon="11.4040924"><ele>282.0</ele><time>2026-04-04T09:43:59.931Z</time></trkpt><trkpt lat="43.3340629" lon="11.4040374"><ele>282.0</ele><time>2026-04-04T09:44:01.93Z</time></trkpt><trkpt lat="43.3340003" lon="11.4040528"><ele>282.0</ele><time>2026-04-04T09:44:02.918Z</time></trkpt><trkpt lat="43.3339222" lon="11.4040817"><ele>282.0</ele><time>2026-04-04T09:44:03.933Z</time></trkpt><trkpt lat="43.3338312" lon="11.4041199"><ele>282.0</ele><time>2026-04-04T09:44:04.929Z</time></trkpt><trkpt lat="43.3337402" lon="11.4041745"><ele>282.0</ele><time>2026-04-04T09:44:05.931Z</time></trkpt><trkpt lat="43.3336401" lon="11.4042283"><ele>282.0</ele><time>2026-04-04T09:44:06.935Z</time></trkpt><trkpt lat="43.3335372" lon="11.4042873"><ele>281.75</ele><time>2026-04-04T09:44:07.929Z</time></trkpt><trkpt lat="43.3334088" lon="11.4043609"><ele>281.5</ele><time>2026-04-04T09:44:08.923Z</time></trkpt><trkpt lat="43.3332862" lon="11.4044254"><ele>281.25</ele><time>2026-04-04T09:44:09.934Z</time></trkpt><trkpt lat="43.3331537" lon="11.4044911"><ele>281.0</ele><time>2026-04-04T09:44:10.927Z</time></trkpt><trkpt lat="43.3330181" lon="11.4045628"><ele>281.0</ele><time>2026-04-04T09:44:11.931Z</time></trkpt><trkpt lat="43.3328808" lon="11.4046339"><ele>281.0</ele><time>2026-04-04T09:44:12.935Z</time></trkpt><trkpt lat="43.3327473" lon="11.4047128"><ele>281.0</ele><time>2026-04-04T09:44:13.94Z</time></trkpt><trkpt lat="43.3326165" lon="11.4047837"><ele>281.0</ele><time>2026-04-04T09:44:14.927Z</time></trkpt><trkpt lat="43.3324952" lon="11.4048506"><ele>280.40000000000003</ele><time>2026-04-04T09:44:15.927Z</time></trkpt><trkpt lat="43.3323819" lon="11.4049103"><ele>279.8</ele><time>2026-04-04T09:44:16.942Z</time></trkpt><trkpt lat="43.3322764" lon="11.4049613"><ele>279.20000000000005</ele><time>2026-04-04T09:44:17.929Z</time></trkpt><trkpt lat="43.3321793" lon="11.4050133"><ele>278.6</ele><time>2026-04-04T09:44:18.933Z</time></trkpt><trkpt lat="43.3320846" lon="11.40506"><ele>278.0</ele><time>2026-04-04T09:44:19.934Z</time></trkpt><trkpt lat="43.3319999" lon="11.4051081"><ele>278.0</ele><time>2026-04-04T09:44:20.931Z</time></trkpt><trkpt lat="43.3319204" lon="11.4051578"><ele>278.0</ele><time>2026-04-04T09:44:21.932Z</time></trkpt><trkpt lat="43.3318424" lon="11.4051895"><ele>278.0</ele><time>2026-04-04T09:44:22.93Z</time></trkpt><trkpt lat="43.3317705" lon="11.4052137"><ele>278.0</ele><time>2026-04-04T09:44:23.934Z</time></trkpt><trkpt lat="43.3317036" lon="11.4052266"><ele>278.0</ele><time>2026-04-04T09:44:24.929Z</time></trkpt><trkpt lat="43.3316363" lon="11.4052423"><ele>278.0</ele><time>2026-04-04T09:44:25.93Z</time></trkpt><trkpt lat="43.3315682" lon="11.4052516"><ele>278.0</ele><time>2026-04-04T09:44:26.93Z</time></trkpt><trkpt lat="43.3314992" lon="11.4052646"><ele>278.0</ele><time>2026-04-04T09:44:27.937Z</time></trkpt><trkpt lat="43.3314263" lon="11.4052846"><ele>278.0</ele><time>2026-04-04T09:44:28.929Z</time></trkpt><trkpt lat="43.3313493" lon="11.4053084"><ele>278.0</ele><time>2026-04-04T09:44:29.929Z</time></trkpt><trkpt lat="43.3312633" lon="11.4053278"><ele>278.0</ele><time>2026-04-04T09:44:30.93Z</time></trkpt><trkpt lat="43.3311685" lon="11.4053556"><ele>278.0</ele><time>2026-04-04T09:44:31.933Z</time></trkpt><trkpt lat="43.3310621" lon="11.4053786"><ele>278.0</ele><time>2026-04-04T09:44:32.933Z</time></trkpt><trkpt lat="43.3309501" lon="11.4054131"><ele>276.8</ele><time>2026-04-04T09:44:33.928Z</time></trkpt><trkpt lat="43.3308439" lon="11.405453"><ele>275.6</ele><time>2026-04-04T09:44:34.932Z</time></trkpt><trkpt lat="43.3307334" lon="11.405489"><ele>274.4</ele><time>2026-04-04T09:44:35.933Z</time></trkpt><trkpt lat="43.3306249" lon="11.4055245"><ele>273.2</ele><time>2026-04-04T09:44:36.938Z</time></trkpt><trkpt lat="43.3305142" lon="11.4055634"><ele>272.0</ele><time>2026-04-04T09:44:37.94Z</time></trkpt><trkpt lat="43.3304027" lon="11.4056087"><ele>270.0</ele><time>2026-04-04T09:44:38.932Z</time></trkpt><trkpt lat="43.3302935" lon="11.4056529"><ele>268.0</ele><time>2026-04-04T09:44:39.931Z</time></trkpt><trkpt lat="43.3301801" lon="11.4057011"><ele>266.0</ele><time>2026-04-04T09:44:40.928Z</time></trkpt><trkpt lat="43.330068" lon="11.4057615"><ele>264.0</ele><time>2026-04-04T09:44:41.933Z</time></trkpt><trkpt lat="43.3299563" lon="11.4058274"><ele>264.0</ele><time>2026-04-04T09:44:42.933Z</time></trkpt><trkpt lat="43.3298464" lon="11.4059081"><ele>264.0</ele><time>2026-04-04T09:44:43.935Z</time></trkpt><trkpt lat="43.3297424" lon="11.405985"><ele>264.0</ele><time>2026-04-04T09:44:44.941Z</time></trkpt><trkpt lat="43.3296398" lon="11.406059"><ele>264.0</ele><time>2026-04-04T09:44:45.934Z</time></trkpt><trkpt lat="43.3295402" lon="11.4061481"><ele>262.75</ele><time>2026-04-04T09:44:46.935Z</time></trkpt><trkpt lat="43.3294478" lon="11.4062528"><ele>261.5</ele><time>2026-04-04T09:44:47.943Z</time></trkpt><trkpt lat="43.3293514" lon="11.406374"><ele>260.25</ele><time>2026-04-04T09:44:48.932Z</time></trkpt><trkpt lat="43.3292525" lon="11.406503"><ele>259.0</ele><time>2026-04-04T09:44:49.938Z</time></trkpt><trkpt lat="43.3291473" lon="11.4066263"><ele>258.66666666666663</ele><time>2026-04-04T09:44:50.931Z</time></trkpt><trkpt lat="43.3290406" lon="11.4067684"><ele>258.3333333333333</ele><time>2026-04-04T09:44:51.93Z</time></trkpt><trkpt lat="43.3289266" lon="11.4069056"><ele>258.0</ele><time>2026-04-04T09:44:52.93Z</time></trkpt><trkpt lat="43.3288107" lon="11.4070451"><ele>256.3333333333333</ele><time>2026-04-04T09:44:53.932Z</time></trkpt><trkpt lat="43.3286941" lon="11.4071825"><ele>254.66666666666666</ele><time>2026-04-04T09:44:54.927Z</time></trkpt><trkpt lat="43.3285714" lon="11.4073204"><ele>253.0</ele><time>2026-04-04T09:44:55.933Z</time></trkpt><trkpt lat="43.3284522" lon="11.4074588"><ele>253.0</ele><time>2026-04-04T09:44:56.927Z</time></trkpt><trkpt lat="43.328326" lon="11.4076046"><ele>253.0</ele><time>2026-04-04T09:44:57.932Z</time></trkpt><trkpt lat="43.3282012" lon="11.4077487"><ele>253.0</ele><time>2026-04-04T09:44:58.937Z</time></trkpt><trkpt lat="43.3280766" lon="11.4078872"><ele>253.0</ele><time>2026-04-04T09:44:59.932Z</time></trkpt><trkpt lat="43.3279584" lon="11.4080249"><ele>253.0</ele><time>2026-04-04T09:45:00.928Z</time></trkpt><trkpt lat="43.3278448" lon="11.408155"><ele>253.0</ele><time>2026-04-04T09:45:01.935Z</time></trkpt><trkpt lat="43.3277337" lon="11.4082865"><ele>253.0</ele><time>2026-04-04T09:45:02.928Z</time></trkpt><trkpt lat="43.3276269" lon="11.4084072"><ele>253.0</ele><time>2026-04-04T09:45:03.934Z</time></trkpt><trkpt lat="43.3275229" lon="11.4085303"><ele>253.0</ele><time>2026-04-04T09:45:04.94Z</time></trkpt><trkpt lat="43.3274289" lon="11.4086488"><ele>253.0</ele><time>2026-04-04T09:45:05.936Z</time></trkpt><trkpt lat="43.3273359" lon="11.4087573"><ele>253.0</ele><time>2026-04-04T09:45:06.934Z</time></trkpt><trkpt lat="43.3272517" lon="11.4088553"><ele>251.60000000000002</ele><time>2026-04-04T09:45:07.945Z</time></trkpt><trkpt lat="43.3271699" lon="11.4089476"><ele>250.20000000000002</ele><time>2026-04-04T09:45:08.932Z</time></trkpt><trkpt lat="43.3270907" lon="11.4090475"><ele>248.8</ele><time>2026-04-04T09:45:09.936Z</time></trkpt><trkpt lat="43.327014" lon="11.4091492"><ele>247.4</ele><time>2026-04-04T09:45:10.935Z</time></trkpt><trkpt lat="43.3269453" lon="11.409249"><ele>246.0</ele><time>2026-04-04T09:45:11.928Z</time></trkpt><trkpt lat="43.3268791" lon="11.4093592"><ele>246.0</ele><time>2026-04-04T09:45:12.924Z</time></trkpt><trkpt lat="43.3268125" lon="11.4094823"><ele>246.00000000000003</ele><time>2026-04-04T09:45:13.937Z</time></trkpt><trkpt lat="43.3267442" lon="11.409595"><ele>246.00000000000003</ele><time>2026-04-04T09:45:14.928Z</time></trkpt><trkpt lat="43.3266753" lon="11.4097105"><ele>246.0</ele><time>2026-04-04T09:45:15.929Z</time></trkpt><trkpt lat="43.3265944" lon="11.4098125"><ele>246.0</ele><time>2026-04-04T09:45:16.931Z</time></trkpt><trkpt lat="43.3265059" lon="11.409899"><ele>245.5</ele><time>2026-04-04T09:45:17.935Z</time></trkpt><trkpt lat="43.3264217" lon="11.4099767"><ele>245.0</ele><time>2026-04-04T09:45:18.93Z</time></trkpt><trkpt lat="43.3263397" lon="11.4100492"><ele>244.5</ele><time>2026-04-04T09:45:19.936Z</time></trkpt><trkpt lat="43.3262734" lon="11.4101224"><ele>244.0</ele><time>2026-04-04T09:45:20.934Z</time></trkpt><trkpt lat="43.3262178" lon="11.4101864"><ele>243.5</ele><time>2026-04-04T09:45:21.938Z</time></trkpt><trkpt lat="43.326166" lon="11.4102473"><ele>243.0</ele><time>2026-04-04T09:45:22.927Z</time></trkpt><trkpt lat="43.326066" lon="11.4103248"><ele>243.0</ele><time>2026-04-04T09:45:24.927Z</time></trkpt><trkpt lat="43.3259648" lon="11.4102602"><ele>243.0</ele><time>2026-04-04T09:45:26.931Z</time></trkpt><trkpt lat="43.3259101" lon="11.4101705"><ele>243.0</ele><time>2026-04-04T09:45:27.929Z</time></trkpt><trkpt lat="43.3258609" lon="11.4100459"><ele>243.0</ele><time>2026-04-04T09:45:28.932Z</time></trkpt><trkpt lat="43.3258256" lon="11.4098893"><ele>243.0</ele><time>2026-04-04T09:45:29.931Z</time></trkpt><trkpt lat="43.3258136" lon="11.4097102"><ele>240.33333333333331</ele><time>2026-04-04T09:45:30.931Z</time></trkpt><trkpt lat="43.3258168" lon="11.4095023"><ele>237.66666666666666</ele><time>2026-04-04T09:45:31.923Z</time></trkpt><trkpt lat="43.3258267" lon="11.4092728"><ele>235.0</ele><time>2026-04-04T09:45:32.926Z</time></trkpt><trkpt lat="43.3258181" lon="11.4090174"><ele>233.66666666666666</ele><time>2026-04-04T09:45:33.929Z</time></trkpt><trkpt lat="43.3257982" lon="11.4087442"><ele>232.33333333333331</ele><time>2026-04-04T09:45:34.932Z</time></trkpt><trkpt lat="43.3257726" lon="11.4084549"><ele>231.0</ele><time>2026-04-04T09:45:35.933Z</time></trkpt><trkpt lat="43.3257414" lon="11.4081576"><ele>229.66666666666669</ele><time>2026-04-04T09:45:36.931Z</time></trkpt><trkpt lat="43.3257059" lon="11.4078649"><ele>228.33333333333334</ele><time>2026-04-04T09:45:37.934Z</time></trkpt><trkpt lat="43.3256727" lon="11.4075761"><ele>227.0</ele><time>2026-04-04T09:45:38.932Z</time></trkpt><trkpt lat="43.3256425" lon="11.4072919"><ele>225.66666666666669</ele><time>2026-04-04T09:45:39.931Z</time></trkpt><trkpt lat="43.3256015" lon="11.4070256"><ele>224.33333333333331</ele><time>2026-04-04T09:45:40.935Z</time></trkpt><trkpt lat="43.3255544" lon="11.4067784"><ele>223.0</ele><time>2026-04-04T09:45:41.933Z</time></trkpt><trkpt lat="43.3254811" lon="11.4065541"><ele>223.0</ele><time>2026-04-04T09:45:42.924Z</time></trkpt><trkpt lat="43.3253817" lon="11.4063403"><ele>223.0</ele><time>2026-04-04T09:45:43.932Z</time></trkpt><trkpt lat="43.3252834" lon="11.4061324"><ele>223.0</ele><time>2026-04-04T09:45:44.932Z</time></trkpt><trkpt lat="43.3251973" lon="11.4059185"><ele>221.0</ele><time>2026-04-04T09:45:45.931Z</time></trkpt><trkpt lat="43.3251245" lon="11.4056939"><ele>219.0</ele><time>2026-04-04T09:45:46.928Z</time></trkpt><trkpt lat="43.3250645" lon="11.4054516"><ele>217.0</ele><time>2026-04-04T09:45:47.927Z</time></trkpt><trkpt lat="43.3250113" lon="11.4052106"><ele>216.33333333333331</ele><time>2026-04-04T09:45:48.93Z</time></trkpt><trkpt lat="43.3249811" lon="11.4049682"><ele>215.66666666666669</ele><time>2026-04-04T09:45:49.934Z</time></trkpt><trkpt lat="43.3249629" lon="11.4047148"><ele>215.0</ele><time>2026-04-04T09:45:50.928Z</time></trkpt><trkpt lat="43.3249511" lon="11.4044551"><ele>214.66666666666669</ele><time>2026-04-04T09:45:51.926Z</time></trkpt><trkpt lat="43.3249421" lon="11.404215"><ele>214.33333333333331</ele><time>2026-04-04T09:45:52.929Z</time></trkpt><trkpt lat="43.3249348" lon="11.4039803"><ele>214.0</ele><time>2026-04-04T09:45:53.932Z</time></trkpt><trkpt lat="43.3249461" lon="11.4037406"><ele>213.33333333333331</ele><time>2026-04-04T09:45:54.938Z</time></trkpt><trkpt lat="43.32496" lon="11.4034884"><ele>212.66666666666669</ele><time>2026-04-04T09:45:55.932Z</time></trkpt><trkpt lat="43.3249773" lon="11.4032357"><ele>212.0</ele><time>2026-04-04T09:45:56.928Z</time></trkpt><trkpt lat="43.3249984" lon="11.4029735"><ele>213.33333333333334</ele><time>2026-04-04T09:45:57.928Z</time></trkpt><trkpt lat="43.3250196" lon="11.4027113"><ele>214.66666666666669</ele><time>2026-04-04T09:45:58.933Z</time></trkpt><trkpt lat="43.3250424" lon="11.4024642"><ele>216.0</ele><time>2026-04-04T09:45:59.927Z</time></trkpt><trkpt lat="43.3250641" lon="11.402218"><ele>219.33333333333331</ele><time>2026-04-04T09:46:00.924Z</time></trkpt><trkpt lat="43.3250748" lon="11.4019784"><ele>222.66666666666666</ele><time>2026-04-04T09:46:01.946Z</time></trkpt><trkpt lat="43.3250857" lon="11.4017476"><ele>226.0</ele><time>2026-04-04T09:46:02.93Z</time></trkpt><trkpt lat="43.3250909" lon="11.4015285"><ele>227.25</ele><time>2026-04-04T09:46:03.935Z</time></trkpt><trkpt lat="43.3250883" lon="11.4013232"><ele>228.5</ele><time>2026-04-04T09:46:04.929Z</time></trkpt><trkpt lat="43.3250847" lon="11.4011488"><ele>229.75</ele><time>2026-04-04T09:46:05.931Z</time></trkpt><trkpt lat="43.3250882" lon="11.4009784"><ele>231.0</ele><time>2026-04-04T09:46:06.931Z</time></trkpt><trkpt lat="43.325094" lon="11.4008231"><ele>231.0</ele><time>2026-04-04T09:46:07.931Z</time></trkpt><trkpt lat="43.3251069" lon="11.4006625"><ele>231.0</ele><time>2026-04-04T09:46:08.937Z</time></trkpt><trkpt lat="43.325126" lon="11.4005081"><ele>231.0</ele><time>2026-04-04T09:46:09.93Z</time></trkpt><trkpt lat="43.3251413" lon="11.4003454"><ele>231.0</ele><time>2026-04-04T09:46:10.935Z</time></trkpt><trkpt lat="43.3251579" lon="11.4001882"><ele>232.25</ele><time>2026-04-04T09:46:11.931Z</time></trkpt><trkpt lat="43.3251716" lon="11.4000303"><ele>233.5</ele><time>2026-04-04T09:46:12.924Z</time></trkpt><trkpt lat="43.3251739" lon="11.399871"><ele>234.75</ele><time>2026-04-04T09:46:13.923Z</time></trkpt><trkpt lat="43.3251699" lon="11.3997064"><ele>236.0</ele><time>2026-04-04T09:46:14.937Z</time></trkpt><trkpt lat="43.3251546" lon="11.3995408"><ele>237.25</ele><time>2026-04-04T09:46:15.925Z</time></trkpt><trkpt lat="43.3251381" lon="11.3993758"><ele>238.5</ele><time>2026-04-04T09:46:16.931Z</time></trkpt><trkpt lat="43.3251262" lon="11.3992139"><ele>239.75</ele><time>2026-04-04T09:46:17.941Z</time></trkpt><trkpt lat="43.3251179" lon="11.3990431"><ele>241.0</ele><time>2026-04-04T09:46:18.928Z</time></trkpt><trkpt lat="43.3251115" lon="11.3988696"><ele>242.5</ele><time>2026-04-04T09:46:19.925Z</time></trkpt><trkpt lat="43.3251007" lon="11.3986935"><ele>244.0</ele><time>2026-04-04T09:46:20.934Z</time></trkpt><trkpt lat="43.325089" lon="11.3985205"><ele>245.5</ele><time>2026-04-04T09:46:21.929Z</time></trkpt><trkpt lat="43.3250843" lon="11.3983446"><ele>247.0</ele><time>2026-04-04T09:46:22.935Z</time></trkpt><trkpt lat="43.3250852" lon="11.3981741"><ele>247.0</ele><time>2026-04-04T09:46:23.929Z</time></trkpt><trkpt lat="43.3250824" lon="11.3980058"><ele>247.0</ele><time>2026-04-04T09:46:24.936Z</time></trkpt><trkpt lat="43.3250912" lon="11.3978456"><ele>247.0</ele><time>2026-04-04T09:46:25.93Z</time></trkpt><trkpt lat="43.3251223" lon="11.3976825"><ele>247.0</ele><time>2026-04-04T09:46:26.934Z</time></trkpt><trkpt lat="43.325174" lon="11.3975293"><ele>247.0</ele><time>2026-04-04T09:46:27.932Z</time></trkpt><trkpt lat="43.325232" lon="11.3973757"><ele>247.0</ele><time>2026-04-04T09:46:28.933Z</time></trkpt><trkpt lat="43.3252885" lon="11.3972192"><ele>247.0</ele><time>2026-04-04T09:46:29.93Z</time></trkpt><trkpt lat="43.3253481" lon="11.3970462"><ele>247.0</ele><time>2026-04-04T09:46:30.937Z</time></trkpt><trkpt lat="43.3254098" lon="11.3968579"><ele>247.0</ele><time>2026-04-04T09:46:31.929Z</time></trkpt><trkpt lat="43.3254703" lon="11.3966629"><ele>247.0</ele><time>2026-04-04T09:46:32.938Z</time></trkpt><trkpt lat="43.3255343" lon="11.3964635"><ele>247.0</ele><time>2026-04-04T09:46:33.934Z</time></trkpt><trkpt lat="43.3255957" lon="11.3962541"><ele>248.0</ele><time>2026-04-04T09:46:34.932Z</time></trkpt><trkpt lat="43.325647" lon="11.396034"><ele>249.0</ele><time>2026-04-04T09:46:35.933Z</time></trkpt><trkpt lat="43.3256802" lon="11.395791"><ele>250.0</ele><time>2026-04-04T09:46:36.933Z</time></trkpt><trkpt lat="43.3256954" lon="11.3955306"><ele>250.66666666666666</ele><time>2026-04-04T09:46:37.94Z</time></trkpt><trkpt lat="43.3256974" lon="11.3952682"><ele>251.33333333333331</ele><time>2026-04-04T09:46:38.943Z</time></trkpt><trkpt lat="43.3256963" lon="11.3950054"><ele>252.0</ele><time>2026-04-04T09:46:39.926Z</time></trkpt><trkpt lat="43.3256853" lon="11.3947578"><ele>253.0</ele><time>2026-04-04T09:46:40.932Z</time></trkpt><trkpt lat="43.3256534" lon="11.3945214"><ele>254.0</ele><time>2026-04-04T09:46:41.93Z</time></trkpt><trkpt lat="43.3256018" lon="11.3942818"><ele>255.0</ele><time>2026-04-04T09:46:42.926Z</time></trkpt><trkpt lat="43.325543" lon="11.3940505"><ele>256.6666666666667</ele><time>2026-04-04T09:46:43.929Z</time></trkpt><trkpt lat="43.3254759" lon="11.3938242"><ele>258.33333333333337</ele><time>2026-04-04T09:46:44.932Z</time></trkpt><trkpt lat="43.3254145" lon="11.3936194"><ele>260.0</ele><time>2026-04-04T09:46:45.933Z</time></trkpt><trkpt lat="43.3253555" lon="11.3934197"><ele>260.0</ele><time>2026-04-04T09:46:46.927Z</time></trkpt><trkpt lat="43.3252999" lon="11.393239"><ele>260.0</ele><time>2026-04-04T09:46:47.932Z</time></trkpt><trkpt lat="43.3252444" lon="11.3930666"><ele>260.0</ele><time>2026-04-04T09:46:48.928Z</time></trkpt><trkpt lat="43.3251945" lon="11.3929067"><ele>260.0</ele><time>2026-04-04T09:46:49.93Z</time></trkpt><trkpt lat="43.3251421" lon="11.3927617"><ele>260.6666666666667</ele><time>2026-04-04T09:46:50.931Z</time></trkpt><trkpt lat="43.3250885" lon="11.392651"><ele>261.33333333333337</ele><time>2026-04-04T09:46:51.933Z</time></trkpt><trkpt lat="43.32503" lon="11.3925711"><ele>262.0</ele><time>2026-04-04T09:46:52.931Z</time></trkpt><trkpt lat="43.3249617" lon="11.392522"><ele>262.6666666666667</ele><time>2026-04-04T09:46:53.934Z</time></trkpt><trkpt lat="43.32488" lon="11.3925167"><ele>263.3333333333333</ele><time>2026-04-04T09:46:54.938Z</time></trkpt><trkpt lat="43.3247997" lon="11.3925341"><ele>264.0</ele><time>2026-04-04T09:46:55.926Z</time></trkpt><trkpt lat="43.324715" lon="11.3925512"><ele>264.2</ele><time>2026-04-04T09:46:56.931Z</time></trkpt><trkpt lat="43.3246269" lon="11.3925648"><ele>264.4</ele><time>2026-04-04T09:46:57.935Z</time></trkpt><trkpt lat="43.3245365" lon="11.3925686"><ele>264.6</ele><time>2026-04-04T09:46:58.934Z</time></trkpt><trkpt lat="43.3244419" lon="11.3925498"><ele>264.8</ele><time>2026-04-04T09:46:59.933Z</time></trkpt><trkpt lat="43.3243452" lon="11.3925096"><ele>265.0</ele><time>2026-04-04T09:47:00.929Z</time></trkpt><trkpt lat="43.3242434" lon="11.3924535"><ele>265.0</ele><time>2026-04-04T09:47:01.932Z</time></trkpt><trkpt lat="43.3241373" lon="11.3923953"><ele>265.0</ele><time>2026-04-04T09:47:02.931Z</time></trkpt><trkpt lat="43.324034" lon="11.3923525"><ele>265.0</ele><time>2026-04-04T09:47:03.932Z</time></trkpt><trkpt lat="43.3239417" lon="11.3923308"><ele>265.0</ele><time>2026-04-04T09:47:04.938Z</time></trkpt><trkpt lat="43.3238588" lon="11.3923207"><ele>265.0</ele><time>2026-04-04T09:47:05.935Z</time></trkpt><trkpt lat="43.3237768" lon="11.3923059"><ele>264.8</ele><time>2026-04-04T09:47:06.934Z</time></trkpt><trkpt lat="43.323687" lon="11.392289"><ele>264.6</ele><time>2026-04-04T09:47:07.924Z</time></trkpt><trkpt lat="43.3235911" lon="11.3922496"><ele>264.4</ele><time>2026-04-04T09:47:08.926Z</time></trkpt><trkpt lat="43.3234784" lon="11.3922189"><ele>264.2</ele><time>2026-04-04T09:47:09.925Z</time></trkpt><trkpt lat="43.3233525" lon="11.3921859"><ele>264.0</ele><time>2026-04-04T09:47:10.927Z</time></trkpt><trkpt lat="43.323222" lon="11.3921598"><ele>262.25</ele><time>2026-04-04T09:47:11.923Z</time></trkpt><trkpt lat="43.3230862" lon="11.3921292"><ele>260.5</ele><time>2026-04-04T09:47:12.933Z</time></trkpt><trkpt lat="43.3229543" lon="11.3920949"><ele>258.75</ele><time>2026-04-04T09:47:13.934Z</time></trkpt><trkpt lat="43.3228435" lon="11.3920538"><ele>257.0</ele><time>2026-04-04T09:47:14.921Z</time></trkpt><trkpt lat="43.3227297" lon="11.3920205"><ele>257.0</ele><time>2026-04-04T09:47:15.931Z</time></trkpt><trkpt lat="43.3226069" lon="11.391992"><ele>257.0</ele><time>2026-04-04T09:47:16.927Z</time></trkpt><trkpt lat="43.3224759" lon="11.391949"><ele>257.0</ele><time>2026-04-04T09:47:17.931Z</time></trkpt><trkpt lat="43.3223349" lon="11.3919123"><ele>257.0</ele><time>2026-04-04T09:47:18.928Z</time></trkpt><trkpt lat="43.3221809" lon="11.3918708"><ele>255.66666666666669</ele><time>2026-04-04T09:47:19.924Z</time></trkpt><trkpt lat="43.3220209" lon="11.3918262"><ele>254.33333333333331</ele><time>2026-04-04T09:47:20.931Z</time></trkpt><trkpt lat="43.3218565" lon="11.391772"><ele>253.0</ele><time>2026-04-04T09:47:21.933Z</time></trkpt><trkpt lat="43.3216944" lon="11.391711"><ele>253.0</ele><time>2026-04-04T09:47:22.936Z</time></trkpt><trkpt lat="43.3215338" lon="11.3916408"><ele>253.0</ele><time>2026-04-04T09:47:23.934Z</time></trkpt><trkpt lat="43.3213888" lon="11.3915539"><ele>253.0</ele><time>2026-04-04T09:47:24.927Z</time></trkpt><trkpt lat="43.3212453" lon="11.3914612"><ele>251.66666666666666</ele><time>2026-04-04T09:47:25.933Z</time></trkpt><trkpt lat="43.3211129" lon="11.39136"><ele>250.33333333333331</ele><time>2026-04-04T09:47:26.936Z</time></trkpt><trkpt lat="43.3209732" lon="11.3912577"><ele>249.0</ele><time>2026-04-04T09:47:27.927Z</time></trkpt><trkpt lat="43.3208318" lon="11.3911527"><ele>249.0</ele><time>2026-04-04T09:47:28.935Z</time></trkpt><trkpt lat="43.3206894" lon="11.3910675"><ele>249.0</ele><time>2026-04-04T09:47:29.925Z</time></trkpt><trkpt lat="43.3205568" lon="11.3909989"><ele>249.0</ele><time>2026-04-04T09:47:30.923Z</time></trkpt><trkpt lat="43.3204314" lon="11.3909489"><ele>249.0</ele><time>2026-04-04T09:47:31.93Z</time></trkpt><trkpt lat="43.3203166" lon="11.3909213"><ele>249.0</ele><time>2026-04-04T09:47:32.93Z</time></trkpt><trkpt lat="43.3202139" lon="11.3908868"><ele>248.99999999999997</ele><time>2026-04-04T09:47:33.932Z</time></trkpt><trkpt lat="43.3201465" lon="11.3908379"><ele>248.99999999999997</ele><time>2026-04-04T09:47:34.928Z</time></trkpt><trkpt lat="43.3201088" lon="11.3907498"><ele>249.0</ele><time>2026-04-04T09:47:35.93Z</time></trkpt><trkpt lat="43.320084" lon="11.390626"><ele>249.0</ele><time>2026-04-04T09:47:36.931Z</time></trkpt><trkpt lat="43.3200666" lon="11.3904763"><ele>248.5</ele><time>2026-04-04T09:47:37.938Z</time></trkpt><trkpt lat="43.3200408" lon="11.3903197"><ele>248.0</ele><time>2026-04-04T09:47:38.93Z</time></trkpt><trkpt lat="43.3200113" lon="11.3901528"><ele>247.5</ele><time>2026-04-04T09:47:39.923Z</time></trkpt><trkpt lat="43.3199794" lon="11.3899912"><ele>247.0</ele><time>2026-04-04T09:47:40.925Z</time></trkpt><trkpt lat="43.3199447" lon="11.3898375"><ele>247.0</ele><time>2026-04-04T09:47:41.936Z</time></trkpt><trkpt lat="43.3199109" lon="11.3896998"><ele>247.0</ele><time>2026-04-04T09:47:42.935Z</time></trkpt><trkpt lat="43.3198738" lon="11.3895653"><ele>247.0</ele><time>2026-04-04T09:47:43.938Z</time></trkpt><trkpt lat="43.3198273" lon="11.3894302"><ele>247.0</ele><time>2026-04-04T09:47:44.94Z</time></trkpt><trkpt lat="43.3197898" lon="11.3892944"><ele>247.0</ele><time>2026-04-04T09:47:45.934Z</time></trkpt><trkpt lat="43.319761" lon="11.3891509"><ele>244.39999999999998</ele><time>2026-04-04T09:47:46.926Z</time></trkpt><trkpt lat="43.3197275" lon="11.3890145"><ele>241.79999999999998</ele><time>2026-04-04T09:47:47.935Z</time></trkpt><trkpt lat="43.3196933" lon="11.388878"><ele>239.2</ele><time>2026-04-04T09:47:48.933Z</time></trkpt><trkpt lat="43.3196591" lon="11.388743"><ele>236.6</ele><time>2026-04-04T09:47:49.925Z</time></trkpt><trkpt lat="43.3196297" lon="11.3886016"><ele>234.0</ele><time>2026-04-04T09:47:50.923Z</time></trkpt><trkpt lat="43.3196012" lon="11.388468"><ele>233.0</ele><time>2026-04-04T09:47:51.93Z</time></trkpt><trkpt lat="43.3195746" lon="11.3883288"><ele>231.99999999999997</ele><time>2026-04-04T09:47:52.927Z</time></trkpt><trkpt lat="43.3195447" lon="11.3881921"><ele>230.99999999999997</ele><time>2026-04-04T09:47:53.925Z</time></trkpt><trkpt lat="43.3195224" lon="11.38805"><ele>230.0</ele><time>2026-04-04T09:47:54.924Z</time></trkpt><trkpt lat="43.3195047" lon="11.3879069"><ele>229.0</ele><time>2026-04-04T09:47:55.935Z</time></trkpt><trkpt lat="43.3194815" lon="11.3877665"><ele>229.0</ele><time>2026-04-04T09:47:56.928Z</time></trkpt><trkpt lat="43.3194433" lon="11.387625"><ele>228.99999999999997</ele><time>2026-04-04T09:47:57.927Z</time></trkpt><trkpt lat="43.3193768" lon="11.3875096"><ele>228.99999999999997</ele><time>2026-04-04T09:47:58.93Z</time></trkpt><trkpt lat="43.3192878" lon="11.3874366"><ele>229.0</ele><time>2026-04-04T09:47:59.934Z</time></trkpt><trkpt lat="43.3191907" lon="11.3873765"><ele>229.0</ele><time>2026-04-04T09:48:00.924Z</time></trkpt><trkpt lat="43.3191097" lon="11.3873092"><ele>229.0</ele><time>2026-04-04T09:48:01.93Z</time></trkpt><trkpt lat="43.3190545" lon="11.3872186"><ele>228.99999999999997</ele><time>2026-04-04T09:48:02.92Z</time></trkpt><trkpt lat="43.3190441" lon="11.3871025"><ele>228.99999999999997</ele><time>2026-04-04T09:48:03.927Z</time></trkpt><trkpt lat="43.3190516" lon="11.3869616"><ele>229.0</ele><time>2026-04-04T09:48:04.925Z</time></trkpt><trkpt lat="43.3190848" lon="11.3868168"><ele>229.0</ele><time>2026-04-04T09:48:05.931Z</time></trkpt><trkpt lat="43.3191408" lon="11.3866853"><ele>228.5</ele><time>2026-04-04T09:48:06.928Z</time></trkpt><trkpt lat="43.3192029" lon="11.3865736"><ele>228.0</ele><time>2026-04-04T09:48:07.938Z</time></trkpt><trkpt lat="43.319289" lon="11.3864935"><ele>227.5</ele><time>2026-04-04T09:48:08.92Z</time></trkpt><trkpt lat="43.3194037" lon="11.3864138"><ele>227.0</ele><time>2026-04-04T09:48:09.919Z</time></trkpt><trkpt lat="43.3195264" lon="11.3863368"><ele>226.0</ele><time>2026-04-04T09:48:10.924Z</time></trkpt><trkpt lat="43.3196499" lon="11.3862664"><ele>225.0</ele><time>2026-04-04T09:48:11.927Z</time></trkpt><trkpt lat="43.3197544" lon="11.3861989"><ele>224.0</ele><time>2026-04-04T09:48:12.927Z</time></trkpt><trkpt lat="43.3198581" lon="11.3861408"><ele>223.0</ele><time>2026-04-04T09:48:13.935Z</time></trkpt><trkpt lat="43.3199432" lon="11.3860737"><ele>222.8</ele><time>2026-04-04T09:48:14.921Z</time></trkpt><trkpt lat="43.3200259" lon="11.3859758"><ele>222.60000000000002</ele><time>2026-04-04T09:48:15.924Z</time></trkpt><trkpt lat="43.3200826" lon="11.3858598"><ele>222.39999999999998</ele><time>2026-04-04T09:48:16.929Z</time></trkpt><trkpt lat="43.3201076" lon="11.3857292"><ele>222.2</ele><time>2026-04-04T09:48:17.931Z</time></trkpt><trkpt lat="43.3201102" lon="11.3855783"><ele>222.0</ele><time>2026-04-04T09:48:18.925Z</time></trkpt><trkpt lat="43.320104" lon="11.3854171"><ele>220.75</ele><time>2026-04-04T09:48:19.926Z</time></trkpt><trkpt lat="43.3201084" lon="11.3852489"><ele>219.5</ele><time>2026-04-04T09:48:20.923Z</time></trkpt><trkpt lat="43.3201348" lon="11.3851127"><ele>218.25</ele><time>2026-04-04T09:48:21.923Z</time></trkpt><trkpt lat="43.3201775" lon="11.3849798"><ele>217.0</ele><time>2026-04-04T09:48:22.922Z</time></trkpt><trkpt lat="43.3202482" lon="11.3848449"><ele>217.0</ele><time>2026-04-04T09:48:23.93Z</time></trkpt><trkpt lat="43.3203252" lon="11.3847135"><ele>217.0</ele><time>2026-04-04T09:48:24.925Z</time></trkpt><trkpt lat="43.3204049" lon="11.3845902"><ele>217.0</ele><time>2026-04-04T09:48:25.929Z</time></trkpt><trkpt lat="43.3204784" lon="11.3844874"><ele>217.0</ele><time>2026-04-04T09:48:26.927Z</time></trkpt><trkpt lat="43.3205615" lon="11.3844051"><ele>215.6</ele><time>2026-04-04T09:48:27.922Z</time></trkpt><trkpt lat="43.3206415" lon="11.384319"><ele>214.2</ele><time>2026-04-04T09:48:28.925Z</time></trkpt><trkpt lat="43.3207117" lon="11.3842119"><ele>212.8</ele><time>2026-04-04T09:48:29.928Z</time></trkpt><trkpt lat="43.3207603" lon="11.38409"><ele>211.4</ele><time>2026-04-04T09:48:30.921Z</time></trkpt><trkpt lat="43.3207828" lon="11.3839597"><ele>210.0</ele><time>2026-04-04T09:48:31.925Z</time></trkpt><trkpt lat="43.3207806" lon="11.3838395"><ele>208.0</ele><time>2026-04-04T09:48:32.923Z</time></trkpt><trkpt lat="43.320753" lon="11.3837069"><ele>206.0</ele><time>2026-04-04T09:48:33.934Z</time></trkpt><trkpt lat="43.3207075" lon="11.3835518"><ele>204.0</ele><time>2026-04-04T09:48:34.925Z</time></trkpt><trkpt lat="43.3206613" lon="11.3833941"><ele>202.0</ele><time>2026-04-04T09:48:35.924Z</time></trkpt><trkpt lat="43.3206282" lon="11.3832389"><ele>202.0</ele><time>2026-04-04T09:48:36.928Z</time></trkpt><trkpt lat="43.3206037" lon="11.3830752"><ele>202.0</ele><time>2026-04-04T09:48:37.924Z</time></trkpt><trkpt lat="43.3205831" lon="11.3829059"><ele>202.0</ele><time>2026-04-04T09:48:38.928Z</time></trkpt><trkpt lat="43.3205628" lon="11.3827345"><ele>202.0</ele><time>2026-04-04T09:48:39.921Z</time></trkpt><trkpt lat="43.3205458" lon="11.3825595"><ele>201.25</ele><time>2026-04-04T09:48:40.927Z</time></trkpt><trkpt lat="43.3205231" lon="11.3823845"><ele>200.5</ele><time>2026-04-04T09:48:41.925Z</time></trkpt><trkpt lat="43.3204966" lon="11.3822068"><ele>199.75</ele><time>2026-04-04T09:48:42.929Z</time></trkpt><trkpt lat="43.3204696" lon="11.3820194"><ele>199.0</ele><time>2026-04-04T09:48:43.931Z</time></trkpt><trkpt lat="43.320438" lon="11.3818293"><ele>198.66666666666666</ele><time>2026-04-04T09:48:44.925Z</time></trkpt><trkpt lat="43.3204036" lon="11.3816344"><ele>198.33333333333331</ele><time>2026-04-04T09:48:45.93Z</time></trkpt><trkpt lat="43.3203698" lon="11.3814305"><ele>198.0</ele><time>2026-04-04T09:48:46.92Z</time></trkpt><trkpt lat="43.3203396" lon="11.381222"><ele>197.66666666666669</ele><time>2026-04-04T09:48:47.926Z</time></trkpt><trkpt lat="43.3203199" lon="11.3810206"><ele>197.33333333333334</ele><time>2026-04-04T09:48:48.93Z</time></trkpt><trkpt lat="43.3203173" lon="11.3808097"><ele>197.0</ele><time>2026-04-04T09:48:49.929Z</time></trkpt><trkpt lat="43.3203331" lon="11.3805905"><ele>197.0</ele><time>2026-04-04T09:48:50.932Z</time></trkpt><trkpt lat="43.3203713" lon="11.3803947"><ele>197.0</ele><time>2026-04-04T09:48:51.932Z</time></trkpt><trkpt lat="43.3203972" lon="11.3802101"><ele>197.0</ele><time>2026-04-04T09:48:52.923Z</time></trkpt><trkpt lat="43.3204194" lon="11.380019"><ele>197.0</ele><time>2026-04-04T09:48:53.927Z</time></trkpt><trkpt lat="43.3204465" lon="11.3798296"><ele>197.75</ele><time>2026-04-04T09:48:54.931Z</time></trkpt><trkpt lat="43.3204741" lon="11.3796415"><ele>198.5</ele><time>2026-04-04T09:48:55.933Z</time></trkpt><trkpt lat="43.3205018" lon="11.3794574"><ele>199.25</ele><time>2026-04-04T09:48:56.931Z</time></trkpt><trkpt lat="43.3205262" lon="11.379268"><ele>200.0</ele><time>2026-04-04T09:48:57.926Z</time></trkpt><trkpt lat="43.320551" lon="11.3790714"><ele>199.75</ele><time>2026-04-04T09:48:58.923Z</time></trkpt><trkpt lat="43.3205743" lon="11.3788724"><ele>199.5</ele><time>2026-04-04T09:48:59.926Z</time></trkpt><trkpt lat="43.3205904" lon="11.3786705"><ele>199.25</ele><time>2026-04-04T09:49:00.931Z</time></trkpt><trkpt lat="43.320595" lon="11.3784595"><ele>199.0</ele><time>2026-04-04T09:49:01.927Z</time></trkpt><trkpt lat="43.3205848" lon="11.3782477"><ele>199.66666666666666</ele><time>2026-04-04T09:49:02.927Z</time></trkpt><trkpt lat="43.3205546" lon="11.3780364"><ele>200.33333333333331</ele><time>2026-04-04T09:49:03.933Z</time></trkpt><trkpt lat="43.3205233" lon="11.3778115"><ele>201.0</ele><time>2026-04-04T09:49:04.931Z</time></trkpt><trkpt lat="43.320492" lon="11.3775861"><ele>205.33333333333331</ele><time>2026-04-04T09:49:05.921Z</time></trkpt><trkpt lat="43.3204634" lon="11.3773537"><ele>209.66666666666666</ele><time>2026-04-04T09:49:06.926Z</time></trkpt><trkpt lat="43.3204458" lon="11.3771088"><ele>214.0</ele><time>2026-04-04T09:49:07.927Z</time></trkpt><trkpt lat="43.3204419" lon="11.37687"><ele>216.33333333333331</ele><time>2026-04-04T09:49:08.927Z</time></trkpt><trkpt lat="43.320448" lon="11.3766251"><ele>218.66666666666669</ele><time>2026-04-04T09:49:09.923Z</time></trkpt><trkpt lat="43.3204608" lon="11.3763776"><ele>221.0</ele><time>2026-04-04T09:49:10.923Z</time></trkpt><trkpt lat="43.320473" lon="11.3761404"><ele>221.0</ele><time>2026-04-04T09:49:11.924Z</time></trkpt><trkpt lat="43.3204894" lon="11.375922"><ele>221.0</ele><time>2026-04-04T09:49:12.918Z</time></trkpt><trkpt lat="43.3204904" lon="11.3757421"><ele>221.0</ele><time>2026-04-04T09:49:13.926Z</time></trkpt><trkpt lat="43.3204774" lon="11.3755829"><ele>221.0</ele><time>2026-04-04T09:49:14.928Z</time></trkpt><trkpt lat="43.320435" lon="11.375441"><ele>220.60000000000002</ele><time>2026-04-04T09:49:15.925Z</time></trkpt><trkpt lat="43.3203665" lon="11.375325"><ele>220.20000000000002</ele><time>2026-04-04T09:49:16.923Z</time></trkpt><trkpt lat="43.3202941" lon="11.3752112"><ele>219.79999999999998</ele><time>2026-04-04T09:49:17.929Z</time></trkpt><trkpt lat="43.3202308" lon="11.3750874"><ele>219.39999999999998</ele><time>2026-04-04T09:49:18.925Z</time></trkpt><trkpt lat="43.3202172" lon="11.3749417"><ele>219.0</ele><time>2026-04-04T09:49:19.928Z</time></trkpt><trkpt lat="43.3202277" lon="11.3747951"><ele>219.5</ele><time>2026-04-04T09:49:20.929Z</time></trkpt><trkpt lat="43.3202617" lon="11.3746505"><ele>220.0</ele><time>2026-04-04T09:49:21.924Z</time></trkpt><trkpt lat="43.3203003" lon="11.3744942"><ele>220.5</ele><time>2026-04-04T09:49:22.924Z</time></trkpt><trkpt lat="43.3203395" lon="11.3743354"><ele>221.0</ele><time>2026-04-04T09:49:23.926Z</time></trkpt><trkpt lat="43.3203816" lon="11.3741658"><ele>221.0</ele><time>2026-04-04T09:49:24.934Z</time></trkpt><trkpt lat="43.320435" lon="11.3739916"><ele>221.0</ele><time>2026-04-04T09:49:25.93Z</time></trkpt><trkpt lat="43.3205022" lon="11.3738162"><ele>221.0</ele><time>2026-04-04T09:49:26.928Z</time></trkpt><trkpt lat="43.3205726" lon="11.3736466"><ele>221.0</ele><time>2026-04-04T09:49:27.928Z</time></trkpt><trkpt lat="43.32065" lon="11.3734695"><ele>223.0</ele><time>2026-04-04T09:49:28.93Z</time></trkpt><trkpt lat="43.3207344" lon="11.3733015"><ele>225.0</ele><time>2026-04-04T09:49:29.928Z</time></trkpt><trkpt lat="43.320817" lon="11.3731433"><ele>227.0</ele><time>2026-04-04T09:49:30.924Z</time></trkpt><trkpt lat="43.3208898" lon="11.3730088"><ele>229.0</ele><time>2026-04-04T09:49:31.923Z</time></trkpt><trkpt lat="43.3209508" lon="11.3728792"><ele>230.79999999999998</ele><time>2026-04-04T09:49:32.933Z</time></trkpt><trkpt lat="43.3209974" lon="11.3727438"><ele>232.59999999999997</ele><time>2026-04-04T09:49:33.919Z</time></trkpt><trkpt lat="43.3210223" lon="11.3726017"><ele>234.4</ele><time>2026-04-04T09:49:34.92Z</time></trkpt><trkpt lat="43.3210481" lon="11.372448"><ele>236.2</ele><time>2026-04-04T09:49:35.935Z</time></trkpt><trkpt lat="43.3210757" lon="11.3722891"><ele>238.0</ele><time>2026-04-04T09:49:36.933Z</time></trkpt><trkpt lat="43.321101" lon="11.3721259"><ele>240.25</ele><time>2026-04-04T09:49:37.931Z</time></trkpt><trkpt lat="43.321128" lon="11.3719622"><ele>242.5</ele><time>2026-04-04T09:49:38.925Z</time></trkpt><trkpt lat="43.3211542" lon="11.3717929"><ele>244.75</ele><time>2026-04-04T09:49:39.932Z</time></trkpt><trkpt lat="43.3211821" lon="11.3716181"><ele>247.0</ele><time>2026-04-04T09:49:40.928Z</time></trkpt><trkpt lat="43.3212053" lon="11.3714372"><ele>248.25</ele><time>2026-04-04T09:49:41.922Z</time></trkpt><trkpt lat="43.3212273" lon="11.3712507"><ele>249.5</ele><time>2026-04-04T09:49:42.927Z</time></trkpt><trkpt lat="43.3212651" lon="11.3710544"><ele>250.75</ele><time>2026-04-04T09:49:43.928Z</time></trkpt><trkpt lat="43.3213161" lon="11.3708578"><ele>252.0</ele><time>2026-04-04T09:49:44.934Z</time></trkpt><trkpt lat="43.3213855" lon="11.3706665"><ele>252.0</ele><time>2026-04-04T09:49:45.925Z</time></trkpt><trkpt lat="43.3214635" lon="11.3704882"><ele>252.0</ele><time>2026-04-04T09:49:46.924Z</time></trkpt><trkpt lat="43.3215588" lon="11.3702941"><ele>252.0</ele><time>2026-04-04T09:49:47.924Z</time></trkpt><trkpt lat="43.3216569" lon="11.3701093"><ele>252.0</ele><time>2026-04-04T09:49:48.926Z</time></trkpt><trkpt lat="43.3217584" lon="11.3699236"><ele>252.0</ele><time>2026-04-04T09:49:49.921Z</time></trkpt><trkpt lat="43.3218416" lon="11.3697488"><ele>252.0</ele><time>2026-04-04T09:49:50.924Z</time></trkpt><trkpt lat="43.3219239" lon="11.369589"><ele>253.8</ele><time>2026-04-04T09:49:51.929Z</time></trkpt><trkpt lat="43.3219875" lon="11.3694564"><ele>255.6</ele><time>2026-04-04T09:49:52.924Z</time></trkpt><trkpt lat="43.3220349" lon="11.3693415"><ele>257.40000000000003</ele><time>2026-04-04T09:49:53.928Z</time></trkpt><trkpt lat="43.322029" lon="11.3692381"><ele>259.2</ele><time>2026-04-04T09:49:54.928Z</time></trkpt><trkpt lat="43.3219165" lon="11.3691674"><ele>261.0</ele><time>2026-04-04T09:49:56.921Z</time></trkpt><trkpt lat="43.3218278" lon="11.3691994"><ele>261.0</ele><time>2026-04-04T09:49:57.927Z</time></trkpt><trkpt lat="43.3217468" lon="11.369285"><ele>261.0</ele><time>2026-04-04T09:49:58.929Z</time></trkpt><trkpt lat="43.3216619" lon="11.3693673"><ele>261.0</ele><time>2026-04-04T09:49:59.938Z</time></trkpt><trkpt lat="43.3215705" lon="11.3694253"><ele>261.0</ele><time>2026-04-04T09:50:00.928Z</time></trkpt><trkpt lat="43.3214847" lon="11.3694286"><ele>261.0</ele><time>2026-04-04T09:50:01.926Z</time></trkpt><trkpt lat="43.3213974" lon="11.3693873"><ele>261.40000000000003</ele><time>2026-04-04T09:50:02.922Z</time></trkpt><trkpt lat="43.3213227" lon="11.3693096"><ele>261.8</ele><time>2026-04-04T09:50:03.927Z</time></trkpt><trkpt lat="43.3212436" lon="11.3692166"><ele>262.20000000000005</ele><time>2026-04-04T09:50:04.916Z</time></trkpt><trkpt lat="43.3211599" lon="11.3691223"><ele>262.6</ele><time>2026-04-04T09:50:05.925Z</time></trkpt><trkpt lat="43.3210802" lon="11.3690296"><ele>263.0</ele><time>2026-04-04T09:50:06.929Z</time></trkpt><trkpt lat="43.321018" lon="11.3689549"><ele>263.0</ele><time>2026-04-04T09:50:07.924Z</time></trkpt><trkpt lat="43.3209621" lon="11.3688846"><ele>263.0</ele><time>2026-04-04T09:50:08.934Z</time></trkpt><trkpt lat="43.320939" lon="11.3687991"><ele>263.0</ele><time>2026-04-04T09:50:09.927Z</time></trkpt><trkpt lat="43.3209442" lon="11.3686974"><ele>263.0</ele><time>2026-04-04T09:50:10.925Z</time></trkpt><trkpt lat="43.3209697" lon="11.3685919"><ele>263.0</ele><time>2026-04-04T09:50:11.929Z</time></trkpt><trkpt lat="43.3209977" lon="11.3684882"><ele>263.0</ele><time>2026-04-04T09:50:12.933Z</time></trkpt><trkpt lat="43.3210296" lon="11.3683821"><ele>263.0</ele><time>2026-04-04T09:50:13.927Z</time></trkpt><trkpt lat="43.3210572" lon="11.3682523"><ele>263.0</ele><time>2026-04-04T09:50:14.922Z</time></trkpt><trkpt lat="43.3210724" lon="11.3681043"><ele>263.0</ele><time>2026-04-04T09:50:15.925Z</time></trkpt><trkpt lat="43.3210837" lon="11.3679267"><ele>263.0</ele><time>2026-04-04T09:50:16.925Z</time></trkpt><trkpt lat="43.3210934" lon="11.3677319"><ele>264.0</ele><time>2026-04-04T09:50:17.923Z</time></trkpt><trkpt lat="43.3211038" lon="11.3675347"><ele>265.0</ele><time>2026-04-04T09:50:18.927Z</time></trkpt><trkpt lat="43.3211103" lon="11.3673254"><ele>266.0</ele><time>2026-04-04T09:50:19.927Z</time></trkpt><trkpt lat="43.3211183" lon="11.3671176"><ele>267.0</ele><time>2026-04-04T09:50:20.925Z</time></trkpt><trkpt lat="43.321117" lon="11.3669156"><ele>268.0</ele><time>2026-04-04T09:50:21.918Z</time></trkpt><trkpt lat="43.3211164" lon="11.3667338"><ele>269.0</ele><time>2026-04-04T09:50:22.926Z</time></trkpt><trkpt lat="43.3211075" lon="11.3665771"><ele>270.0</ele><time>2026-04-04T09:50:23.924Z</time></trkpt><trkpt lat="43.3210911" lon="11.3664323"><ele>271.0</ele><time>2026-04-04T09:50:24.928Z</time></trkpt><trkpt lat="43.3210691" lon="11.3662944"><ele>271.0</ele><time>2026-04-04T09:50:25.929Z</time></trkpt><trkpt lat="43.3210456" lon="11.3661539"><ele>271.0</ele><time>2026-04-04T09:50:26.922Z</time></trkpt><trkpt lat="43.3210265" lon="11.3660118"><ele>271.0</ele><time>2026-04-04T09:50:27.918Z</time></trkpt><trkpt lat="43.3209992" lon="11.3658693"><ele>271.0</ele><time>2026-04-04T09:50:28.927Z</time></trkpt><trkpt lat="43.3209647" lon="11.3657218"><ele>271.0</ele><time>2026-04-04T09:50:29.928Z</time></trkpt><trkpt lat="43.3209142" lon="11.3655711"><ele>271.25</ele><time>2026-04-04T09:50:30.931Z</time></trkpt><trkpt lat="43.3208551" lon="11.3654139"><ele>271.5</ele><time>2026-04-04T09:50:31.929Z</time></trkpt><trkpt lat="43.3207943" lon="11.36525"><ele>271.75</ele><time>2026-04-04T09:50:32.932Z</time></trkpt><trkpt lat="43.3207271" lon="11.365078"><ele>272.0</ele><time>2026-04-04T09:50:33.922Z</time></trkpt><trkpt lat="43.3206572" lon="11.3649108"><ele>272.0</ele><time>2026-04-04T09:50:34.93Z</time></trkpt><trkpt lat="43.3205881" lon="11.364757"><ele>272.0</ele><time>2026-04-04T09:50:35.924Z</time></trkpt><trkpt lat="43.3205127" lon="11.3646161"><ele>272.0</ele><time>2026-04-04T09:50:36.927Z</time></trkpt><trkpt lat="43.3204365" lon="11.364487"><ele>272.0</ele><time>2026-04-04T09:50:37.924Z</time></trkpt><trkpt lat="43.3203656" lon="11.3643733"><ele>272.4</ele><time>2026-04-04T09:50:38.926Z</time></trkpt><trkpt lat="43.3202973" lon="11.3642645"><ele>272.79999999999995</ele><time>2026-04-04T09:50:39.934Z</time></trkpt><trkpt lat="43.3202335" lon="11.3641613"><ele>273.2</ele><time>2026-04-04T09:50:40.927Z</time></trkpt><trkpt lat="43.3201669" lon="11.3640555"><ele>273.59999999999997</ele><time>2026-04-04T09:50:41.938Z</time></trkpt><trkpt lat="43.3200978" lon="11.3639483"><ele>274.0</ele><time>2026-04-04T09:50:42.932Z</time></trkpt><trkpt lat="43.3200273" lon="11.3638358"><ele>274.59999999999997</ele><time>2026-04-04T09:50:43.927Z</time></trkpt><trkpt lat="43.3199521" lon="11.3637283"><ele>275.2</ele><time>2026-04-04T09:50:44.931Z</time></trkpt><trkpt lat="43.3198768" lon="11.3636237"><ele>275.79999999999995</ele><time>2026-04-04T09:50:45.929Z</time></trkpt><trkpt lat="43.3197999" lon="11.3635184"><ele>276.4</ele><time>2026-04-04T09:50:46.925Z</time></trkpt><trkpt lat="43.3197266" lon="11.3634217"><ele>277.0</ele><time>2026-04-04T09:50:47.928Z</time></trkpt><trkpt lat="43.319656" lon="11.3633275"><ele>277.0</ele><time>2026-04-04T09:50:48.932Z</time></trkpt><trkpt lat="43.3195854" lon="11.3632241"><ele>277.0</ele><time>2026-04-04T09:50:49.924Z</time></trkpt><trkpt lat="43.3195203" lon="11.36311"><ele>277.0</ele><time>2026-04-04T09:50:50.925Z</time></trkpt><trkpt lat="43.3194539" lon="11.3629931"><ele>277.0</ele><time>2026-04-04T09:50:51.925Z</time></trkpt><trkpt lat="43.3193947" lon="11.3628741"><ele>277.0</ele><time>2026-04-04T09:50:52.917Z</time></trkpt><trkpt lat="43.3193459" lon="11.3627374"><ele>275.25</ele><time>2026-04-04T09:50:53.922Z</time></trkpt><trkpt lat="43.3192986" lon="11.3625986"><ele>273.5</ele><time>2026-04-04T09:50:54.929Z</time></trkpt><trkpt lat="43.3192404" lon="11.3624626"><ele>271.75</ele><time>2026-04-04T09:50:55.927Z</time></trkpt><trkpt lat="43.3191734" lon="11.3623428"><ele>270.0</ele><time>2026-04-04T09:50:56.926Z</time></trkpt><trkpt lat="43.3190943" lon="11.3622175"><ele>269.0</ele><time>2026-04-04T09:50:57.929Z</time></trkpt><trkpt lat="43.319013" lon="11.3621002"><ele>268.0</ele><time>2026-04-04T09:50:58.938Z</time></trkpt><trkpt lat="43.3189321" lon="11.3619655"><ele>267.0</ele><time>2026-04-04T09:50:59.929Z</time></trkpt><trkpt lat="43.3188488" lon="11.3618297"><ele>266.0</ele><time>2026-04-04T09:51:00.924Z</time></trkpt><trkpt lat="43.3187726" lon="11.3616886"><ele>266.0</ele><time>2026-04-04T09:51:01.922Z</time></trkpt><trkpt lat="43.3187066" lon="11.3615333"><ele>266.0</ele><time>2026-04-04T09:51:02.933Z</time></trkpt><trkpt lat="43.3186468" lon="11.3613707"><ele>266.0</ele><time>2026-04-04T09:51:03.932Z</time></trkpt><trkpt lat="43.3185961" lon="11.3612031"><ele>266.0</ele><time>2026-04-04T09:51:04.926Z</time></trkpt><trkpt lat="43.3185429" lon="11.3610419"><ele>264.0</ele><time>2026-04-04T09:51:05.923Z</time></trkpt><trkpt lat="43.3184852" lon="11.3608874"><ele>262.0</ele><time>2026-04-04T09:51:06.932Z</time></trkpt><trkpt lat="43.3184157" lon="11.3607416"><ele>260.0</ele><time>2026-04-04T09:51:07.925Z</time></trkpt><trkpt lat="43.3183454" lon="11.3605947"><ele>258.0</ele><time>2026-04-04T09:51:08.926Z</time></trkpt><trkpt lat="43.3182791" lon="11.3604494"><ele>256.25</ele><time>2026-04-04T09:51:09.925Z</time></trkpt><trkpt lat="43.318215" lon="11.3602997"><ele>254.5</ele><time>2026-04-04T09:51:10.928Z</time></trkpt><trkpt lat="43.3181429" lon="11.3601572"><ele>252.75</ele><time>2026-04-04T09:51:11.923Z</time></trkpt><trkpt lat="43.3180679" lon="11.3600225"><ele>251.0</ele><time>2026-04-04T09:51:12.931Z</time></trkpt><trkpt lat="43.3179932" lon="11.3598894"><ele>251.0</ele><time>2026-04-04T09:51:13.922Z</time></trkpt><trkpt lat="43.3179235" lon="11.3597605"><ele>251.0</ele><time>2026-04-04T09:51:14.925Z</time></trkpt><trkpt lat="43.3178595" lon="11.3596213"><ele>251.0</ele><time>2026-04-04T09:51:15.933Z</time></trkpt><trkpt lat="43.3178038" lon="11.359477"><ele>251.0</ele><time>2026-04-04T09:51:16.929Z</time></trkpt><trkpt lat="43.317769" lon="11.3593181"><ele>248.5</ele><time>2026-04-04T09:51:17.932Z</time></trkpt><trkpt lat="43.3177434" lon="11.3591561"><ele>246.0</ele><time>2026-04-04T09:51:18.921Z</time></trkpt><trkpt lat="43.3177187" lon="11.3589912"><ele>243.5</ele><time>2026-04-04T09:51:19.927Z</time></trkpt><trkpt lat="43.3176837" lon="11.3588354"><ele>241.0</ele><time>2026-04-04T09:51:20.929Z</time></trkpt><trkpt lat="43.3176267" lon="11.3586986"><ele>240.20000000000002</ele><time>2026-04-04T09:51:21.925Z</time></trkpt><trkpt lat="43.3175572" lon="11.3585778"><ele>239.40000000000003</ele><time>2026-04-04T09:51:22.924Z</time></trkpt><trkpt lat="43.3174692" lon="11.3584861"><ele>238.6</ele><time>2026-04-04T09:51:23.935Z</time></trkpt><trkpt lat="43.3173715" lon="11.3584073"><ele>237.8</ele><time>2026-04-04T09:51:24.935Z</time></trkpt><trkpt lat="43.3172671" lon="11.3583535"><ele>237.0</ele><time>2026-04-04T09:51:25.926Z</time></trkpt><trkpt lat="43.3171573" lon="11.3583364"><ele>235.6</ele><time>2026-04-04T09:51:26.927Z</time></trkpt><trkpt lat="43.3170403" lon="11.358334"><ele>234.2</ele><time>2026-04-04T09:51:27.93Z</time></trkpt><trkpt lat="43.3169296" lon="11.3583259"><ele>232.8</ele><time>2026-04-04T09:51:28.92Z</time></trkpt><trkpt lat="43.3168257" lon="11.3583003"><ele>231.4</ele><time>2026-04-04T09:51:29.934Z</time></trkpt><trkpt lat="43.3167334" lon="11.3582425"><ele>230.0</ele><time>2026-04-04T09:51:30.941Z</time></trkpt><trkpt lat="43.316646" lon="11.358157"><ele>230.0</ele><time>2026-04-04T09:51:31.936Z</time></trkpt><trkpt lat="43.3165636" lon="11.3580511"><ele>230.0</ele><time>2026-04-04T09:51:32.927Z</time></trkpt><trkpt lat="43.3164905" lon="11.357924"><ele>230.0</ele><time>2026-04-04T09:51:33.946Z</time></trkpt><trkpt lat="43.3164101" lon="11.3577952"><ele>230.0</ele><time>2026-04-04T09:51:34.929Z</time></trkpt><trkpt lat="43.316338" lon="11.3576717"><ele>229.4</ele><time>2026-04-04T09:51:35.937Z</time></trkpt><trkpt lat="43.3162662" lon="11.3575571"><ele>228.8</ele><time>2026-04-04T09:51:36.935Z</time></trkpt><trkpt lat="43.3161972" lon="11.3574458"><ele>228.2</ele><time>2026-04-04T09:51:37.933Z</time></trkpt><trkpt lat="43.3161406" lon="11.3573151"><ele>227.6</ele><time>2026-04-04T09:51:38.927Z</time></trkpt><trkpt lat="43.3160951" lon="11.3571758"><ele>227.0</ele><time>2026-04-04T09:51:39.939Z</time></trkpt><trkpt lat="43.3160569" lon="11.3570142"><ele>226.8</ele><time>2026-04-04T09:51:40.939Z</time></trkpt><trkpt lat="43.3160439" lon="11.3568472"><ele>226.6</ele><time>2026-04-04T09:51:41.939Z</time></trkpt><trkpt lat="43.3160412" lon="11.3566906"><ele>226.40000000000003</ele><time>2026-04-04T09:51:42.931Z</time></trkpt><trkpt lat="43.3160386" lon="11.3565565"><ele>226.20000000000002</ele><time>2026-04-04T09:51:43.928Z</time></trkpt><trkpt lat="43.3160321" lon="11.3564437"><ele>226.0</ele><time>2026-04-04T09:51:44.927Z</time></trkpt><trkpt lat="43.3160212" lon="11.3563553"><ele>225.83333333333331</ele><time>2026-04-04T09:51:45.933Z</time></trkpt><trkpt lat="43.3160095" lon="11.3562551"><ele>225.66666666666666</ele><time>2026-04-04T09:51:47.935Z</time></trkpt><trkpt lat="43.3160327" lon="11.3561656"><ele>225.5</ele><time>2026-04-04T09:51:57.94Z</time></trkpt><trkpt lat="43.3160753" lon="11.3560708"><ele>225.33333333333331</ele><time>2026-04-04T09:51:59.923Z</time></trkpt><trkpt lat="43.3161292" lon="11.355942"><ele>225.16666666666666</ele><time>2026-04-04T09:52:01.928Z</time></trkpt><trkpt lat="43.316206" lon="11.355827"><ele>225.0</ele><time>2026-04-04T09:52:03.932Z</time></trkpt><trkpt lat="43.3162622" lon="11.3557359"><ele>225.0</ele><time>2026-04-04T09:52:05.926Z</time></trkpt><trkpt lat="43.3163181" lon="11.3556591"><ele>225.0</ele><time>2026-04-04T09:52:07.923Z</time></trkpt><trkpt lat="43.3163773" lon="11.3555118"><ele>225.0</ele><time>2026-04-04T09:52:09.932Z</time></trkpt><trkpt lat="43.3163642" lon="11.355363"><ele>225.0</ele><time>2026-04-04T09:52:11.935Z</time></trkpt><trkpt lat="43.3162714" lon="11.3552705"><ele>225.0</ele><time>2026-04-04T09:52:13.935Z</time></trkpt><trkpt lat="43.3162069" lon="11.3552583"><ele>225.0</ele><time>2026-04-04T09:52:14.928Z</time></trkpt><trkpt lat="43.3161112" lon="11.3553544"><ele>225.0</ele><time>2026-04-04T09:52:16.932Z</time></trkpt><trkpt lat="43.3160733" lon="11.3555228"><ele>225.0</ele><time>2026-04-04T09:52:18.927Z</time></trkpt><trkpt lat="43.3160653" lon="11.3556248"><ele>225.0</ele><time>2026-04-04T09:52:19.928Z</time></trkpt><trkpt lat="43.3160476" lon="11.3557265"><ele>225.0</ele><time>2026-04-04T09:52:20.924Z</time></trkpt><trkpt lat="43.3160122" lon="11.3558069"><ele>225.0</ele><time>2026-04-04T09:52:21.922Z</time></trkpt><trkpt lat="43.3159364" lon="11.3559373"><ele>225.0</ele><time>2026-04-04T09:52:23.924Z</time></trkpt><trkpt lat="43.3158853" lon="11.3559952"><ele>225.0</ele><time>2026-04-04T09:52:24.923Z</time></trkpt><trkpt lat="43.3157551" lon="11.3559783"><ele>225.0</ele><time>2026-04-04T09:52:26.927Z</time></trkpt><trkpt lat="43.3156835" lon="11.3559185"><ele>225.0</ele><time>2026-04-04T09:52:27.919Z</time></trkpt><trkpt lat="43.3155994" lon="11.3558724"><ele>225.8</ele><time>2026-04-04T09:52:28.924Z</time></trkpt><trkpt lat="43.315502" lon="11.3558383"><ele>226.6</ele><time>2026-04-04T09:52:29.93Z</time></trkpt><trkpt lat="43.3154025" lon="11.3558078"><ele>227.39999999999998</ele><time>2026-04-04T09:52:30.926Z</time></trkpt><trkpt lat="43.3153025" lon="11.355812"><ele>228.2</ele><time>2026-04-04T09:52:31.932Z</time></trkpt><trkpt lat="43.315197" lon="11.3558345"><ele>229.0</ele><time>2026-04-04T09:52:32.927Z</time></trkpt><trkpt lat="43.3151018" lon="11.355889"><ele>229.0</ele><time>2026-04-04T09:52:33.929Z</time></trkpt><trkpt lat="43.3150037" lon="11.3559579"><ele>228.99999999999997</ele><time>2026-04-04T09:52:34.935Z</time></trkpt><trkpt lat="43.3149191" lon="11.3560405"><ele>228.99999999999997</ele><time>2026-04-04T09:52:35.932Z</time></trkpt><trkpt lat="43.314836" lon="11.3561239"><ele>229.0</ele><time>2026-04-04T09:52:36.928Z</time></trkpt><trkpt lat="43.3147511" lon="11.3562099"><ele>229.0</ele><time>2026-04-04T09:52:37.931Z</time></trkpt><trkpt lat="43.3146674" lon="11.3562949"><ele>229.79999999999998</ele><time>2026-04-04T09:52:38.932Z</time></trkpt><trkpt lat="43.314587" lon="11.3563668"><ele>230.59999999999997</ele><time>2026-04-04T09:52:39.933Z</time></trkpt><trkpt lat="43.3145182" lon="11.3563978"><ele>231.4</ele><time>2026-04-04T09:52:40.928Z</time></trkpt><trkpt lat="43.3144323" lon="11.3563067"><ele>232.2</ele><time>2026-04-04T09:52:42.93Z</time></trkpt><trkpt lat="43.3144287" lon="11.3561364"><ele>233.0</ele><time>2026-04-04T09:52:44.93Z</time></trkpt><trkpt lat="43.3144598" lon="11.3560369"><ele>235.0</ele><time>2026-04-04T09:52:45.924Z</time></trkpt><trkpt lat="43.3145043" lon="11.3559304"><ele>237.0</ele><time>2026-04-04T09:52:46.929Z</time></trkpt><trkpt lat="43.3145572" lon="11.3558204"><ele>239.0</ele><time>2026-04-04T09:52:47.933Z</time></trkpt><trkpt lat="43.3146038" lon="11.355675"><ele>241.0</ele><time>2026-04-04T09:52:48.928Z</time></trkpt><trkpt lat="43.3146347" lon="11.3555156"><ele>243.0</ele><time>2026-04-04T09:52:49.926Z</time></trkpt><trkpt lat="43.3146558" lon="11.3553438"><ele>245.75</ele><time>2026-04-04T09:52:50.921Z</time></trkpt><trkpt lat="43.3146721" lon="11.3551749"><ele>248.5</ele><time>2026-04-04T09:52:51.925Z</time></trkpt><trkpt lat="43.314685" lon="11.3549994"><ele>251.25</ele><time>2026-04-04T09:52:52.92Z</time></trkpt><trkpt lat="43.3146815" lon="11.3548275"><ele>254.0</ele><time>2026-04-04T09:52:53.927Z</time></trkpt><trkpt lat="43.3146538" lon="11.3546646"><ele>255.0</ele><time>2026-04-04T09:52:54.927Z</time></trkpt><trkpt lat="43.3146074" lon="11.3545235"><ele>255.99999999999997</ele><time>2026-04-04T09:52:55.925Z</time></trkpt><trkpt lat="43.3145496" lon="11.354399"><ele>257.0</ele><time>2026-04-04T09:52:56.926Z</time></trkpt><trkpt lat="43.3144756" lon="11.354287"><ele>258.0</ele><time>2026-04-04T09:52:57.933Z</time></trkpt><trkpt lat="43.3143967" lon="11.3541825"><ele>259.0</ele><time>2026-04-04T09:52:58.931Z</time></trkpt><trkpt lat="43.3143216" lon="11.3540716"><ele>259.0</ele><time>2026-04-04T09:52:59.924Z</time></trkpt><trkpt lat="43.3142694" lon="11.3539451"><ele>259.0</ele><time>2026-04-04T09:53:00.932Z</time></trkpt><trkpt lat="43.3142238" lon="11.3538038"><ele>259.0</ele><time>2026-04-04T09:53:01.919Z</time></trkpt><trkpt lat="43.3141622" lon="11.3536877"><ele>259.0</ele><time>2026-04-04T09:53:02.927Z</time></trkpt><trkpt lat="43.3140863" lon="11.3535916"><ele>259.0</ele><time>2026-04-04T09:53:03.915Z</time></trkpt><trkpt lat="43.3140006" lon="11.3535083"><ele>258.0</ele><time>2026-04-04T09:53:04.928Z</time></trkpt><trkpt lat="43.3139116" lon="11.3534127"><ele>257.0</ele><time>2026-04-04T09:53:05.921Z</time></trkpt><trkpt lat="43.3138196" lon="11.3533093"><ele>256.0</ele><time>2026-04-04T09:53:06.923Z</time></trkpt><trkpt lat="43.313725" lon="11.3531975"><ele>255.0</ele><time>2026-04-04T09:53:07.921Z</time></trkpt><trkpt lat="43.3136319" lon="11.3530796"><ele>258.5</ele><time>2026-04-04T09:53:08.932Z</time></trkpt><trkpt lat="43.3135349" lon="11.3529556"><ele>262.0</ele><time>2026-04-04T09:53:09.915Z</time></trkpt><trkpt lat="43.3134523" lon="11.3528192"><ele>265.5</ele><time>2026-04-04T09:53:10.923Z</time></trkpt><trkpt lat="43.313372" lon="11.3526888"><ele>269.0</ele><time>2026-04-04T09:53:11.919Z</time></trkpt><trkpt lat="43.3133012" lon="11.3525521"><ele>269.0</ele><time>2026-04-04T09:53:12.929Z</time></trkpt><trkpt lat="43.3132338" lon="11.352424"><ele>269.0</ele><time>2026-04-04T09:53:13.919Z</time></trkpt><trkpt lat="43.3131751" lon="11.3523084"><ele>269.0</ele><time>2026-04-04T09:53:14.936Z</time></trkpt><trkpt lat="43.3131218" lon="11.3521976"><ele>269.0</ele><time>2026-04-04T09:53:15.929Z</time></trkpt><trkpt lat="43.3130653" lon="11.3520871"><ele>269.0</ele><time>2026-04-04T09:53:16.921Z</time></trkpt><trkpt lat="43.3130121" lon="11.3519633"><ele>270.75</ele><time>2026-04-04T09:53:17.921Z</time></trkpt><trkpt lat="43.3129582" lon="11.3518229"><ele>272.5</ele><time>2026-04-04T09:53:18.937Z</time></trkpt><trkpt lat="43.312912" lon="11.3516685"><ele>274.25</ele><time>2026-04-04T09:53:19.924Z</time></trkpt><trkpt lat="43.3128678" lon="11.3515055"><ele>276.0</ele><time>2026-04-04T09:53:20.931Z</time></trkpt><trkpt lat="43.3128326" lon="11.3513447"><ele>277.0</ele><time>2026-04-04T09:53:21.921Z</time></trkpt><trkpt lat="43.3128069" lon="11.3511947"><ele>278.0</ele><time>2026-04-04T09:53:22.927Z</time></trkpt><trkpt lat="43.3127837" lon="11.351051"><ele>279.0</ele><time>2026-04-04T09:53:23.927Z</time></trkpt><trkpt lat="43.3127542" lon="11.3509126"><ele>280.0</ele><time>2026-04-04T09:53:24.923Z</time></trkpt><trkpt lat="43.3127149" lon="11.3507727"><ele>281.0</ele><time>2026-04-04T09:53:25.923Z</time></trkpt><trkpt lat="43.3126783" lon="11.3506387"><ele>280.6</ele><time>2026-04-04T09:53:26.933Z</time></trkpt><trkpt lat="43.3126374" lon="11.3504947"><ele>280.20000000000005</ele><time>2026-04-04T09:53:27.931Z</time></trkpt><trkpt lat="43.3125885" lon="11.3503486"><ele>279.79999999999995</ele><time>2026-04-04T09:53:28.925Z</time></trkpt><trkpt lat="43.3125381" lon="11.3502026"><ele>279.4</ele><time>2026-04-04T09:53:29.927Z</time></trkpt><trkpt lat="43.3124931" lon="11.3500795"><ele>279.0</ele><time>2026-04-04T09:53:30.931Z</time></trkpt><trkpt lat="43.312468" lon="11.3499772"><ele>279.0</ele><time>2026-04-04T09:53:31.932Z</time></trkpt><trkpt lat="43.3124588" lon="11.3498851"><ele>279.0</ele><time>2026-04-04T09:53:32.935Z</time></trkpt><trkpt lat="43.3125008" lon="11.3497215"><ele>279.0</ele><time>2026-04-04T09:53:34.928Z</time></trkpt><trkpt lat="43.3125403" lon="11.3496354"><ele>279.0</ele><time>2026-04-04T09:53:35.93Z</time></trkpt><trkpt lat="43.312591" lon="11.3495417"><ele>279.0</ele><time>2026-04-04T09:53:36.925Z</time></trkpt><trkpt lat="43.3126493" lon="11.3494364"><ele>279.0</ele><time>2026-04-04T09:53:37.93Z</time></trkpt><trkpt lat="43.3127078" lon="11.3493235"><ele>278.1666666666667</ele><time>2026-04-04T09:53:38.936Z</time></trkpt><trkpt lat="43.3127473" lon="11.3492088"><ele>277.3333333333333</ele><time>2026-04-04T09:53:39.931Z</time></trkpt><trkpt lat="43.3127601" lon="11.3490969"><ele>276.5</ele><time>2026-04-04T09:53:40.927Z</time></trkpt><trkpt lat="43.3127564" lon="11.348985"><ele>275.66666666666663</ele><time>2026-04-04T09:53:41.93Z</time></trkpt><trkpt lat="43.3127443" lon="11.3488683"><ele>274.8333333333333</ele><time>2026-04-04T09:53:42.927Z</time></trkpt><trkpt lat="43.3127159" lon="11.3487438"><ele>274.0</ele><time>2026-04-04T09:53:43.921Z</time></trkpt><trkpt lat="43.3126903" lon="11.3486156"><ele>273.3333333333333</ele><time>2026-04-04T09:53:44.93Z</time></trkpt><trkpt lat="43.3126467" lon="11.348496"><ele>272.66666666666663</ele><time>2026-04-04T09:53:45.935Z</time></trkpt><trkpt lat="43.3125913" lon="11.3484034"><ele>272.0</ele><time>2026-04-04T09:53:46.934Z</time></trkpt><trkpt lat="43.3125442" lon="11.3483162"><ele>271.3333333333333</ele><time>2026-04-04T09:53:47.934Z</time></trkpt><trkpt lat="43.3124979" lon="11.3482509"><ele>270.6666666666667</ele><time>2026-04-04T09:53:48.936Z</time></trkpt><trkpt lat="43.3124483" lon="11.3481852"><ele>270.0</ele><time>2026-04-04T09:53:49.931Z</time></trkpt><trkpt lat="43.3123965" lon="11.3481146"><ele>270.0</ele><time>2026-04-04T09:53:50.929Z</time></trkpt><trkpt lat="43.3123286" lon="11.3480317"><ele>270.0</ele><time>2026-04-04T09:53:52.926Z</time></trkpt><trkpt lat="43.3122499" lon="11.3480861"><ele>270.0</ele><time>2026-04-04T09:53:58.929Z</time></trkpt><trkpt lat="43.3122071" lon="11.3481605"><ele>270.0</ele><time>2026-04-04T09:53:59.928Z</time></trkpt><trkpt lat="43.3121519" lon="11.3482406"><ele>270.0</ele><time>2026-04-04T09:54:00.933Z</time></trkpt><trkpt lat="43.3121028" lon="11.3483439"><ele>270.0</ele><time>2026-04-04T09:54:01.93Z</time></trkpt><trkpt lat="43.312055" lon="11.3484674"><ele>268.75</ele><time>2026-04-04T09:54:02.923Z</time></trkpt><trkpt lat="43.3120121" lon="11.3485932"><ele>267.5</ele><time>2026-04-04T09:54:03.923Z</time></trkpt><trkpt lat="43.3119751" lon="11.3487408"><ele>266.25</ele><time>2026-04-04T09:54:04.928Z</time></trkpt><trkpt lat="43.3119277" lon="11.3489138"><ele>265.0</ele><time>2026-04-04T09:54:05.926Z</time></trkpt><trkpt lat="43.3118866" lon="11.3490956"><ele>264.25</ele><time>2026-04-04T09:54:06.927Z</time></trkpt><trkpt lat="43.311844" lon="11.3492589"><ele>263.5</ele><time>2026-04-04T09:54:07.939Z</time></trkpt><trkpt lat="43.3117975" lon="11.3494117"><ele>262.75</ele><time>2026-04-04T09:54:08.926Z</time></trkpt><trkpt lat="43.3117345" lon="11.3495377"><ele>262.0</ele><time>2026-04-04T09:54:09.946Z</time></trkpt><trkpt lat="43.3116515" lon="11.3496475"><ele>262.0</ele><time>2026-04-04T09:54:10.933Z</time></trkpt><trkpt lat="43.3115589" lon="11.3497396"><ele>262.0</ele><time>2026-04-04T09:54:11.924Z</time></trkpt><trkpt lat="43.3114504" lon="11.3498177"><ele>262.0</ele><time>2026-04-04T09:54:12.926Z</time></trkpt><trkpt lat="43.3113495" lon="11.3498726"><ele>262.0</ele><time>2026-04-04T09:54:13.926Z</time></trkpt><trkpt lat="43.3112497" lon="11.3499154"><ele>262.0</ele><time>2026-04-04T09:54:14.922Z</time></trkpt><trkpt lat="43.311152" lon="11.3499394"><ele>262.0</ele><time>2026-04-04T09:54:15.921Z</time></trkpt><trkpt lat="43.3110667" lon="11.3499535"><ele>262.0</ele><time>2026-04-04T09:54:16.927Z</time></trkpt><trkpt lat="43.3109571" lon="11.3499819"><ele>262.0</ele><time>2026-04-04T09:54:18.927Z</time></trkpt><trkpt lat="43.3108535" lon="11.3500208"><ele>262.0</ele><time>2026-04-04T09:54:20.924Z</time></trkpt><trkpt lat="43.3107871" lon="11.3500539"><ele>262.0</ele><time>2026-04-04T09:54:21.931Z</time></trkpt><trkpt lat="43.3107159" lon="11.3500877"><ele>262.0</ele><time>2026-04-04T09:54:22.927Z</time></trkpt><trkpt lat="43.3106375" lon="11.3501196"><ele>262.0</ele><time>2026-04-04T09:54:23.921Z</time></trkpt><trkpt lat="43.3105642" lon="11.3501634"><ele>262.0</ele><time>2026-04-04T09:54:24.934Z</time></trkpt><trkpt lat="43.3104928" lon="11.3502098"><ele>262.0</ele><time>2026-04-04T09:54:25.926Z</time></trkpt><trkpt lat="43.3104172" lon="11.3502694"><ele>262.0</ele><time>2026-04-04T09:54:26.932Z</time></trkpt><trkpt lat="43.3103506" lon="11.3503295"><ele>262.0</ele><time>2026-04-04T09:54:27.917Z</time></trkpt><trkpt lat="43.3102815" lon="11.3503962"><ele>262.0</ele><time>2026-04-04T09:54:28.916Z</time></trkpt><trkpt lat="43.3102212" lon="11.3504725"><ele>262.0</ele><time>2026-04-04T09:54:29.93Z</time></trkpt><trkpt lat="43.3101568" lon="11.3505517"><ele>262.0</ele><time>2026-04-04T09:54:30.922Z</time></trkpt><trkpt lat="43.3100962" lon="11.3506356"><ele>262.0</ele><time>2026-04-04T09:54:31.922Z</time></trkpt><trkpt lat="43.3100342" lon="11.3507146"><ele>262.0</ele><time>2026-04-04T09:54:32.93Z</time></trkpt><trkpt lat="43.3099801" lon="11.3507952"><ele>261.8</ele><time>2026-04-04T09:54:33.925Z</time></trkpt><trkpt lat="43.3099292" lon="11.3508724"><ele>261.6</ele><time>2026-04-04T09:54:34.922Z</time></trkpt><trkpt lat="43.3098719" lon="11.3509569"><ele>261.40000000000003</ele><time>2026-04-04T09:54:35.937Z</time></trkpt><trkpt lat="43.3098084" lon="11.3510512"><ele>261.2</ele><time>2026-04-04T09:54:36.933Z</time></trkpt><trkpt lat="43.3097492" lon="11.3511553"><ele>261.0</ele><time>2026-04-04T09:54:37.93Z</time></trkpt><trkpt lat="43.3097013" lon="11.3512837"><ele>262.0</ele><time>2026-04-04T09:54:38.934Z</time></trkpt><trkpt lat="43.3096528" lon="11.3514323"><ele>263.0</ele><time>2026-04-04T09:54:39.932Z</time></trkpt><trkpt lat="43.309615" lon="11.3516011"><ele>264.0</ele><time>2026-04-04T09:54:40.935Z</time></trkpt><trkpt lat="43.3095749" lon="11.351771"><ele>265.0</ele><time>2026-04-04T09:54:41.924Z</time></trkpt><trkpt lat="43.309541" lon="11.3519463"><ele>265.0</ele><time>2026-04-04T09:54:42.927Z</time></trkpt><trkpt lat="43.3095054" lon="11.3521312"><ele>265.0</ele><time>2026-04-04T09:54:43.931Z</time></trkpt><trkpt lat="43.3094703" lon="11.3523119"><ele>265.0</ele><time>2026-04-04T09:54:44.93Z</time></trkpt><trkpt lat="43.3094323" lon="11.3524956"><ele>265.0</ele><time>2026-04-04T09:54:45.923Z</time></trkpt><trkpt lat="43.3094036" lon="11.352679"><ele>265.0</ele><time>2026-04-04T09:54:46.93Z</time></trkpt><trkpt lat="43.3093791" lon="11.3528516"><ele>265.0</ele><time>2026-04-04T09:54:47.917Z</time></trkpt><trkpt lat="43.309353" lon="11.3530148"><ele>265.0</ele><time>2026-04-04T09:54:48.922Z</time></trkpt><trkpt lat="43.3093275" lon="11.353171"><ele>265.0</ele><time>2026-04-04T09:54:49.921Z</time></trkpt><trkpt lat="43.3093023" lon="11.3533217"><ele>265.0</ele><time>2026-04-04T09:54:50.925Z</time></trkpt><trkpt lat="43.309276" lon="11.353466"><ele>265.0</ele><time>2026-04-04T09:54:51.924Z</time></trkpt><trkpt lat="43.309254" lon="11.3536009"><ele>265.0</ele><time>2026-04-04T09:54:52.924Z</time></trkpt><trkpt lat="43.3092341" lon="11.3537308"><ele>265.0</ele><time>2026-04-04T09:54:53.919Z</time></trkpt><trkpt lat="43.3092276" lon="11.3538674"><ele>265.0</ele><time>2026-04-04T09:54:54.924Z</time></trkpt><trkpt lat="43.3092284" lon="11.3540054"><ele>264.4</ele><time>2026-04-04T09:54:55.935Z</time></trkpt><trkpt lat="43.3092316" lon="11.3541439"><ele>263.8</ele><time>2026-04-04T09:54:56.937Z</time></trkpt><trkpt lat="43.3092301" lon="11.3542838"><ele>263.2</ele><time>2026-04-04T09:54:57.933Z</time></trkpt><trkpt lat="43.3092282" lon="11.3544196"><ele>262.6</ele><time>2026-04-04T09:54:58.919Z</time></trkpt><trkpt lat="43.3092214" lon="11.3545583"><ele>262.0</ele><time>2026-04-04T09:54:59.935Z</time></trkpt><trkpt lat="43.3092177" lon="11.3547012"><ele>262.2</ele><time>2026-04-04T09:55:00.925Z</time></trkpt><trkpt lat="43.309223" lon="11.3548351"><ele>262.4</ele><time>2026-04-04T09:55:01.92Z</time></trkpt><trkpt lat="43.3092318" lon="11.3549735"><ele>262.6</ele><time>2026-04-04T09:55:02.926Z</time></trkpt><trkpt lat="43.3092508" lon="11.3550957"><ele>262.8</ele><time>2026-04-04T09:55:03.924Z</time></trkpt><trkpt lat="43.3092726" lon="11.35522"><ele>263.0</ele><time>2026-04-04T09:55:04.927Z</time></trkpt><trkpt lat="43.3093044" lon="11.3553444"><ele>263.0</ele><time>2026-04-04T09:55:05.925Z</time></trkpt><trkpt lat="43.3093394" lon="11.3554879"><ele>263.0</ele><time>2026-04-04T09:55:06.934Z</time></trkpt><trkpt lat="43.3093739" lon="11.3556307"><ele>263.0</ele><time>2026-04-04T09:55:07.934Z</time></trkpt><trkpt lat="43.3094179" lon="11.3557786"><ele>263.0</ele><time>2026-04-04T09:55:08.933Z</time></trkpt><trkpt lat="43.3094561" lon="11.355931"><ele>262.6</ele><time>2026-04-04T09:55:09.925Z</time></trkpt><trkpt lat="43.3094885" lon="11.3560829"><ele>262.20000000000005</ele><time>2026-04-04T09:55:10.93Z</time></trkpt><trkpt lat="43.3095126" lon="11.3562234"><ele>261.8</ele><time>2026-04-04T09:55:11.921Z</time></trkpt><trkpt lat="43.3095311" lon="11.3563551"><ele>261.40000000000003</ele><time>2026-04-04T09:55:12.928Z</time></trkpt><trkpt lat="43.3095313" lon="11.3564891"><ele>261.0</ele><time>2026-04-04T09:55:13.926Z</time></trkpt><trkpt lat="43.3095148" lon="11.356629"><ele>259.8</ele><time>2026-04-04T09:55:14.928Z</time></trkpt><trkpt lat="43.3094824" lon="11.356769"><ele>258.6</ele><time>2026-04-04T09:55:15.93Z</time></trkpt><trkpt lat="43.309448" lon="11.3569123"><ele>257.4</ele><time>2026-04-04T09:55:16.929Z</time></trkpt><trkpt lat="43.3094037" lon="11.3570586"><ele>256.2</ele><time>2026-04-04T09:55:17.932Z</time></trkpt><trkpt lat="43.3093548" lon="11.3571988"><ele>255.0</ele><time>2026-04-04T09:55:18.933Z</time></trkpt><trkpt lat="43.309284" lon="11.357326"><ele>254.5</ele><time>2026-04-04T09:55:19.935Z</time></trkpt><trkpt lat="43.3091955" lon="11.3574447"><ele>254.0</ele><time>2026-04-04T09:55:20.929Z</time></trkpt><trkpt lat="43.3090897" lon="11.3575531"><ele>253.5</ele><time>2026-04-04T09:55:21.925Z</time></trkpt><trkpt lat="43.3089818" lon="11.3576593"><ele>253.0</ele><time>2026-04-04T09:55:22.939Z</time></trkpt><trkpt lat="43.3088601" lon="11.3577637"><ele>251.5</ele><time>2026-04-04T09:55:23.929Z</time></trkpt><trkpt lat="43.3087532" lon="11.3578652"><ele>250.0</ele><time>2026-04-04T09:55:24.931Z</time></trkpt><trkpt lat="43.3086528" lon="11.3579603"><ele>248.5</ele><time>2026-04-04T09:55:25.925Z</time></trkpt><trkpt lat="43.3085563" lon="11.3580576"><ele>247.0</ele><time>2026-04-04T09:55:26.931Z</time></trkpt><trkpt lat="43.3084563" lon="11.3581492"><ele>247.0</ele><time>2026-04-04T09:55:27.929Z</time></trkpt><trkpt lat="43.3083516" lon="11.3582338"><ele>247.0</ele><time>2026-04-04T09:55:28.932Z</time></trkpt><trkpt lat="43.3082462" lon="11.3583073"><ele>247.0</ele><time>2026-04-04T09:55:29.925Z</time></trkpt><trkpt lat="43.3081416" lon="11.3583925"><ele>247.0</ele><time>2026-04-04T09:55:30.928Z</time></trkpt><trkpt lat="43.3080326" lon="11.3584807"><ele>244.75</ele><time>2026-04-04T09:55:31.931Z</time></trkpt><trkpt lat="43.3079253" lon="11.358588"><ele>242.5</ele><time>2026-04-04T09:55:32.927Z</time></trkpt><trkpt lat="43.3078175" lon="11.358718"><ele>240.25</ele><time>2026-04-04T09:55:33.932Z</time></trkpt><trkpt lat="43.3077051" lon="11.358854"><ele>238.0</ele><time>2026-04-04T09:55:34.94Z</time></trkpt><trkpt lat="43.3075878" lon="11.3589827"><ele>238.0</ele><time>2026-04-04T09:55:35.934Z</time></trkpt><trkpt lat="43.3074671" lon="11.3591266"><ele>238.0</ele><time>2026-04-04T09:55:36.933Z</time></trkpt><trkpt lat="43.3073507" lon="11.3592724"><ele>238.0</ele><time>2026-04-04T09:55:37.932Z</time></trkpt><trkpt lat="43.3072301" lon="11.3594123"><ele>239.0</ele><time>2026-04-04T09:55:38.928Z</time></trkpt><trkpt lat="43.3071092" lon="11.3595476"><ele>240.0</ele><time>2026-04-04T09:55:39.934Z</time></trkpt><trkpt lat="43.3069905" lon="11.3596842"><ele>241.0</ele><time>2026-04-04T09:55:40.93Z</time></trkpt><trkpt lat="43.3068753" lon="11.3598274"><ele>241.0</ele><time>2026-04-04T09:55:41.928Z</time></trkpt><trkpt lat="43.3067717" lon="11.3599748"><ele>241.0</ele><time>2026-04-04T09:55:42.934Z</time></trkpt><trkpt lat="43.3066708" lon="11.3601274"><ele>241.0</ele><time>2026-04-04T09:55:43.928Z</time></trkpt><trkpt lat="43.3065751" lon="11.360275"><ele>241.0</ele><time>2026-04-04T09:55:44.928Z</time></trkpt><trkpt lat="43.3064762" lon="11.3604213"><ele>243.75</ele><time>2026-04-04T09:55:45.932Z</time></trkpt><trkpt lat="43.3063792" lon="11.3605628"><ele>246.5</ele><time>2026-04-04T09:55:46.931Z</time></trkpt><trkpt lat="43.3062905" lon="11.3606974"><ele>249.25</ele><time>2026-04-04T09:55:47.928Z</time></trkpt><trkpt lat="43.3062091" lon="11.3608166"><ele>252.0</ele><time>2026-04-04T09:55:48.934Z</time></trkpt><trkpt lat="43.3061385" lon="11.3609319"><ele>252.0</ele><time>2026-04-04T09:55:49.933Z</time></trkpt><trkpt lat="43.3060764" lon="11.361047"><ele>252.0</ele><time>2026-04-04T09:55:50.931Z</time></trkpt><trkpt lat="43.3060263" lon="11.3611748"><ele>252.0</ele><time>2026-04-04T09:55:51.929Z</time></trkpt><trkpt lat="43.3059737" lon="11.3613045"><ele>252.0</ele><time>2026-04-04T09:55:52.936Z</time></trkpt><trkpt lat="43.3059072" lon="11.3614206"><ele>252.0</ele><time>2026-04-04T09:55:53.936Z</time></trkpt><trkpt lat="43.3058397" lon="11.3615201"><ele>251.0</ele><time>2026-04-04T09:55:54.932Z</time></trkpt><trkpt lat="43.3057529" lon="11.3615957"><ele>250.0</ele><time>2026-04-04T09:55:55.925Z</time></trkpt><trkpt lat="43.3056603" lon="11.3616518"><ele>249.0</ele><time>2026-04-04T09:55:56.932Z</time></trkpt><trkpt lat="43.305561" lon="11.3616865"><ele>248.0</ele><time>2026-04-04T09:55:57.923Z</time></trkpt><trkpt lat="43.3054531" lon="11.3617065"><ele>247.0</ele><time>2026-04-04T09:55:58.931Z</time></trkpt><trkpt lat="43.3053368" lon="11.3617252"><ele>247.0</ele><time>2026-04-04T09:55:59.928Z</time></trkpt><trkpt lat="43.3052148" lon="11.3617483"><ele>247.0</ele><time>2026-04-04T09:56:00.925Z</time></trkpt><trkpt lat="43.3050958" lon="11.3617738"><ele>247.0</ele><time>2026-04-04T09:56:01.929Z</time></trkpt><trkpt lat="43.3049857" lon="11.3617953"><ele>247.0</ele><time>2026-04-04T09:56:02.93Z</time></trkpt><trkpt lat="43.3048803" lon="11.361806"><ele>247.0</ele><time>2026-04-04T09:56:03.925Z</time></trkpt><trkpt lat="43.304791" lon="11.3618172"><ele>247.0</ele><time>2026-04-04T09:56:04.93Z</time></trkpt><trkpt lat="43.3046961" lon="11.3618262"><ele>247.0</ele><time>2026-04-04T09:56:05.922Z</time></trkpt><trkpt lat="43.3045986" lon="11.3618361"><ele>247.0</ele><time>2026-04-04T09:56:06.935Z</time></trkpt><trkpt lat="43.3044906" lon="11.3618544"><ele>247.0</ele><time>2026-04-04T09:56:07.927Z</time></trkpt><trkpt lat="43.3043663" lon="11.3618984"><ele>246.75</ele><time>2026-04-04T09:56:08.932Z</time></trkpt><trkpt lat="43.3042402" lon="11.3619862"><ele>246.5</ele><time>2026-04-04T09:56:09.935Z</time></trkpt><trkpt lat="43.3041081" lon="11.3620859"><ele>246.25</ele><time>2026-04-04T09:56:10.931Z</time></trkpt><trkpt lat="43.303972" lon="11.3621828"><ele>246.0</ele><time>2026-04-04T09:56:11.941Z</time></trkpt><trkpt lat="43.3038366" lon="11.3622924"><ele>246.0</ele><time>2026-04-04T09:56:12.932Z</time></trkpt><trkpt lat="43.3037012" lon="11.3624091"><ele>246.0</ele><time>2026-04-04T09:56:13.939Z</time></trkpt><trkpt lat="43.3035883" lon="11.3625336"><ele>246.0</ele><time>2026-04-04T09:56:14.94Z</time></trkpt><trkpt lat="43.3035079" lon="11.3626686"><ele>246.0</ele><time>2026-04-04T09:56:15.931Z</time></trkpt><trkpt lat="43.3034531" lon="11.3628223"><ele>246.0</ele><time>2026-04-04T09:56:16.935Z</time></trkpt><trkpt lat="43.3034145" lon="11.3629813"><ele>246.0</ele><time>2026-04-04T09:56:17.937Z</time></trkpt><trkpt lat="43.3033938" lon="11.363152"><ele>246.0</ele><time>2026-04-04T09:56:18.936Z</time></trkpt><trkpt lat="43.3033735" lon="11.3633138"><ele>246.0</ele><time>2026-04-04T09:56:19.937Z</time></trkpt><trkpt lat="43.3033535" lon="11.3634657"><ele>246.0</ele><time>2026-04-04T09:56:20.927Z</time></trkpt><trkpt lat="43.3033238" lon="11.3636023"><ele>246.00000000000003</ele><time>2026-04-04T09:56:21.932Z</time></trkpt><trkpt lat="43.3032886" lon="11.3637179"><ele>246.00000000000003</ele><time>2026-04-04T09:56:22.939Z</time></trkpt><trkpt lat="43.3032403" lon="11.3638163"><ele>246.0</ele><time>2026-04-04T09:56:23.935Z</time></trkpt><trkpt lat="43.3031594" lon="11.3638982"><ele>246.0</ele><time>2026-04-04T09:56:24.935Z</time></trkpt><trkpt lat="43.3030657" lon="11.3639408"><ele>247.4</ele><time>2026-04-04T09:56:25.935Z</time></trkpt><trkpt lat="43.3029631" lon="11.3639563"><ele>248.8</ele><time>2026-04-04T09:56:26.929Z</time></trkpt><trkpt lat="43.3028659" lon="11.3639609"><ele>250.20000000000002</ele><time>2026-04-04T09:56:27.93Z</time></trkpt><trkpt lat="43.3027713" lon="11.3639609"><ele>251.60000000000002</ele><time>2026-04-04T09:56:28.931Z</time></trkpt><trkpt lat="43.3026763" lon="11.3639659"><ele>253.0</ele><time>2026-04-04T09:56:29.936Z</time></trkpt><trkpt lat="43.3025617" lon="11.3639991"><ele>253.0</ele><time>2026-04-04T09:56:30.929Z</time></trkpt><trkpt lat="43.3024362" lon="11.3640436"><ele>253.0</ele><time>2026-04-04T09:56:31.925Z</time></trkpt><trkpt lat="43.3023133" lon="11.3641017"><ele>253.0</ele><time>2026-04-04T09:56:32.938Z</time></trkpt><trkpt lat="43.3021835" lon="11.3641904"><ele>253.0</ele><time>2026-04-04T09:56:33.94Z</time></trkpt><trkpt lat="43.3020706" lon="11.3642834"><ele>250.5</ele><time>2026-04-04T09:56:34.931Z</time></trkpt><trkpt lat="43.3019761" lon="11.3643944"><ele>248.0</ele><time>2026-04-04T09:56:35.925Z</time></trkpt><trkpt lat="43.3019019" lon="11.3645234"><ele>245.5</ele><time>2026-04-04T09:56:36.931Z</time></trkpt><trkpt lat="43.3018523" lon="11.3646623"><ele>243.0</ele><time>2026-04-04T09:56:37.934Z</time></trkpt><trkpt lat="43.3018177" lon="11.3647951"><ele>243.0</ele><time>2026-04-04T09:56:38.934Z</time></trkpt><trkpt lat="43.3017767" lon="11.3649276"><ele>243.0</ele><time>2026-04-04T09:56:39.934Z</time></trkpt><trkpt lat="43.3017307" lon="11.3650409"><ele>243.0</ele><time>2026-04-04T09:56:40.928Z</time></trkpt><trkpt lat="43.301674" lon="11.3651463"><ele>243.0</ele><time>2026-04-04T09:56:41.93Z</time></trkpt><trkpt lat="43.3015962" lon="11.3652557"><ele>243.0</ele><time>2026-04-04T09:56:42.936Z</time></trkpt><trkpt lat="43.301496" lon="11.3653362"><ele>242.5</ele><time>2026-04-04T09:56:43.947Z</time></trkpt><trkpt lat="43.3013805" lon="11.3654037"><ele>242.0</ele><time>2026-04-04T09:56:44.924Z</time></trkpt><trkpt lat="43.3012556" lon="11.3654725"><ele>241.5</ele><time>2026-04-04T09:56:45.927Z</time></trkpt><trkpt lat="43.3011341" lon="11.3655384"><ele>241.0</ele><time>2026-04-04T09:56:46.927Z</time></trkpt><trkpt lat="43.3010151" lon="11.3656057"><ele>241.0</ele><time>2026-04-04T09:56:47.932Z</time></trkpt><trkpt lat="43.3009042" lon="11.3656674"><ele>241.0</ele><time>2026-04-04T09:56:48.932Z</time></trkpt><trkpt lat="43.3008016" lon="11.3657133"><ele>241.0</ele><time>2026-04-04T09:56:49.93Z</time></trkpt><trkpt lat="43.3006902" lon="11.3657248"><ele>241.0</ele><time>2026-04-04T09:56:50.934Z</time></trkpt><trkpt lat="43.3005661" lon="11.3657289"><ele>241.60000000000002</ele><time>2026-04-04T09:56:51.93Z</time></trkpt><trkpt lat="43.3004518" lon="11.3657367"><ele>242.20000000000002</ele><time>2026-04-04T09:56:52.935Z</time></trkpt><trkpt lat="43.3003408" lon="11.365746"><ele>242.79999999999998</ele><time>2026-04-04T09:56:53.929Z</time></trkpt><trkpt lat="43.3002251" lon="11.3657492"><ele>243.39999999999998</ele><time>2026-04-04T09:56:54.929Z</time></trkpt><trkpt lat="43.3001257" lon="11.3657914"><ele>244.0</ele><time>2026-04-04T09:56:55.928Z</time></trkpt><trkpt lat="43.3000211" lon="11.3658566"><ele>244.0</ele><time>2026-04-04T09:56:56.939Z</time></trkpt><trkpt lat="43.2999157" lon="11.3659444"><ele>244.0</ele><time>2026-04-04T09:56:57.938Z</time></trkpt><trkpt lat="43.2998198" lon="11.3660352"><ele>244.0</ele><time>2026-04-04T09:56:58.931Z</time></trkpt><trkpt lat="43.2997283" lon="11.3661433"><ele>244.0</ele><time>2026-04-04T09:56:59.937Z</time></trkpt><trkpt lat="43.2996359" lon="11.3662593"><ele>242.25</ele><time>2026-04-04T09:57:00.933Z</time></trkpt><trkpt lat="43.299542" lon="11.3663749"><ele>240.5</ele><time>2026-04-04T09:57:01.928Z</time></trkpt><trkpt lat="43.2994416" lon="11.3664917"><ele>238.75</ele><time>2026-04-04T09:57:02.936Z</time></trkpt><trkpt lat="43.2993466" lon="11.3666094"><ele>237.0</ele><time>2026-04-04T09:57:03.929Z</time></trkpt><trkpt lat="43.2992542" lon="11.3667293"><ele>237.0</ele><time>2026-04-04T09:57:04.927Z</time></trkpt><trkpt lat="43.2991634" lon="11.3668489"><ele>237.0</ele><time>2026-04-04T09:57:05.924Z</time></trkpt><trkpt lat="43.2990835" lon="11.3669793"><ele>237.0</ele><time>2026-04-04T09:57:06.924Z</time></trkpt><trkpt lat="43.2990192" lon="11.3671125"><ele>237.0</ele><time>2026-04-04T09:57:07.931Z</time></trkpt><trkpt lat="43.2989754" lon="11.367257"><ele>235.5</ele><time>2026-04-04T09:57:08.943Z</time></trkpt><trkpt lat="43.2989156" lon="11.3674058"><ele>234.0</ele><time>2026-04-04T09:57:09.932Z</time></trkpt><trkpt lat="43.2988546" lon="11.3675663"><ele>232.5</ele><time>2026-04-04T09:57:10.928Z</time></trkpt><trkpt lat="43.2987952" lon="11.3677244"><ele>231.0</ele><time>2026-04-04T09:57:11.931Z</time></trkpt><trkpt lat="43.2987319" lon="11.3678734"><ele>231.0</ele><time>2026-04-04T09:57:12.938Z</time></trkpt><trkpt lat="43.2986725" lon="11.36802"><ele>231.0</ele><time>2026-04-04T09:57:13.93Z</time></trkpt><trkpt lat="43.2986075" lon="11.3681563"><ele>231.0</ele><time>2026-04-04T09:57:14.933Z</time></trkpt><trkpt lat="43.2985358" lon="11.3682733"><ele>231.0</ele><time>2026-04-04T09:57:15.935Z</time></trkpt><trkpt lat="43.2984655" lon="11.3683676"><ele>231.8</ele><time>2026-04-04T09:57:16.937Z</time></trkpt><trkpt lat="43.2983895" lon="11.368432"><ele>232.60000000000002</ele><time>2026-04-04T09:57:17.932Z</time></trkpt><trkpt lat="43.298302" lon="11.3684765"><ele>233.4</ele><time>2026-04-04T09:57:18.929Z</time></trkpt><trkpt lat="43.2982134" lon="11.3685007"><ele>234.2</ele><time>2026-04-04T09:57:19.921Z</time></trkpt><trkpt lat="43.2981252" lon="11.3685247"><ele>235.0</ele><time>2026-04-04T09:57:20.924Z</time></trkpt><trkpt lat="43.2980307" lon="11.3685447"><ele>235.6</ele><time>2026-04-04T09:57:21.928Z</time></trkpt><trkpt lat="43.2979415" lon="11.3685454"><ele>236.2</ele><time>2026-04-04T09:57:22.924Z</time></trkpt><trkpt lat="43.2978525" lon="11.36852"><ele>236.8</ele><time>2026-04-04T09:57:23.93Z</time></trkpt><trkpt lat="43.2977642" lon="11.3684792"><ele>237.4</ele><time>2026-04-04T09:57:24.927Z</time></trkpt><trkpt lat="43.2976783" lon="11.368435"><ele>238.0</ele><time>2026-04-04T09:57:25.936Z</time></trkpt><trkpt lat="43.2975901" lon="11.3683875"><ele>238.0</ele><time>2026-04-04T09:57:26.929Z</time></trkpt><trkpt lat="43.2975022" lon="11.3683355"><ele>238.0</ele><time>2026-04-04T09:57:27.922Z</time></trkpt><trkpt lat="43.2974125" lon="11.3682851"><ele>238.0</ele><time>2026-04-04T09:57:28.922Z</time></trkpt><trkpt lat="43.2973281" lon="11.3682382"><ele>238.0</ele><time>2026-04-04T09:57:29.924Z</time></trkpt><trkpt lat="43.2972372" lon="11.368192"><ele>238.0</ele><time>2026-04-04T09:57:30.935Z</time></trkpt><trkpt lat="43.2971472" lon="11.368147"><ele>237.4</ele><time>2026-04-04T09:57:31.93Z</time></trkpt><trkpt lat="43.2970484" lon="11.3680942"><ele>236.8</ele><time>2026-04-04T09:57:32.934Z</time></trkpt><trkpt lat="43.2969504" lon="11.3680554"><ele>236.2</ele><time>2026-04-04T09:57:33.933Z</time></trkpt><trkpt lat="43.2968441" lon="11.368029"><ele>235.6</ele><time>2026-04-04T09:57:34.926Z</time></trkpt><trkpt lat="43.2967298" lon="11.3680157"><ele>235.0</ele><time>2026-04-04T09:57:35.927Z</time></trkpt><trkpt lat="43.2966183" lon="11.3680089"><ele>234.8</ele><time>2026-04-04T09:57:36.931Z</time></trkpt><trkpt lat="43.2965081" lon="11.3680125"><ele>234.6</ele><time>2026-04-04T09:57:37.936Z</time></trkpt><trkpt lat="43.2963995" lon="11.3680297"><ele>234.39999999999998</ele><time>2026-04-04T09:57:38.934Z</time></trkpt><trkpt lat="43.2962936" lon="11.3680474"><ele>234.2</ele><time>2026-04-04T09:57:39.935Z</time></trkpt><trkpt lat="43.2961889" lon="11.3680741"><ele>234.0</ele><time>2026-04-04T09:57:40.93Z</time></trkpt><trkpt lat="43.2960893" lon="11.3681017"><ele>236.2</ele><time>2026-04-04T09:57:41.929Z</time></trkpt><trkpt lat="43.2959951" lon="11.3681374"><ele>238.39999999999998</ele><time>2026-04-04T09:57:42.931Z</time></trkpt><trkpt lat="43.2959044" lon="11.3681927"><ele>240.6</ele><time>2026-04-04T09:57:43.922Z</time></trkpt><trkpt lat="43.2958186" lon="11.368251"><ele>242.8</ele><time>2026-04-04T09:57:44.925Z</time></trkpt><trkpt lat="43.2957393" lon="11.3682897"><ele>245.0</ele><time>2026-04-04T09:57:45.935Z</time></trkpt><trkpt lat="43.2956643" lon="11.3683075"><ele>243.6</ele><time>2026-04-04T09:57:46.931Z</time></trkpt><trkpt lat="43.2955813" lon="11.368318"><ele>242.2</ele><time>2026-04-04T09:57:47.934Z</time></trkpt><trkpt lat="43.2954876" lon="11.3683268"><ele>240.8</ele><time>2026-04-04T09:57:48.923Z</time></trkpt><trkpt lat="43.2953842" lon="11.3683493"><ele>239.4</ele><time>2026-04-04T09:57:49.943Z</time></trkpt><trkpt lat="43.2952716" lon="11.3683956"><ele>238.0</ele><time>2026-04-04T09:57:50.928Z</time></trkpt><trkpt lat="43.2951663" lon="11.368458"><ele>238.0</ele><time>2026-04-04T09:57:51.934Z</time></trkpt><trkpt lat="43.2950673" lon="11.3685258"><ele>238.0</ele><time>2026-04-04T09:57:52.931Z</time></trkpt><trkpt lat="43.2949872" lon="11.3686219"><ele>238.0</ele><time>2026-04-04T09:57:53.928Z</time></trkpt><trkpt lat="43.294918" lon="11.3687278"><ele>238.0</ele><time>2026-04-04T09:57:54.929Z</time></trkpt><trkpt lat="43.2948627" lon="11.3688353"><ele>238.0</ele><time>2026-04-04T09:57:55.93Z</time></trkpt><trkpt lat="43.294816" lon="11.3689408"><ele>238.60000000000002</ele><time>2026-04-04T09:57:56.925Z</time></trkpt><trkpt lat="43.2947658" lon="11.3690349"><ele>239.20000000000002</ele><time>2026-04-04T09:57:57.924Z</time></trkpt><trkpt lat="43.2946968" lon="11.3691131"><ele>239.8</ele><time>2026-04-04T09:57:58.923Z</time></trkpt><trkpt lat="43.2946185" lon="11.3691844"><ele>240.4</ele><time>2026-04-04T09:57:59.936Z</time></trkpt><trkpt lat="43.2945407" lon="11.3692533"><ele>241.0</ele><time>2026-04-04T09:58:00.927Z</time></trkpt><trkpt lat="43.2944534" lon="11.3693053"><ele>239.16666666666666</ele><time>2026-04-04T09:58:01.928Z</time></trkpt><trkpt lat="43.2943672" lon="11.3693617"><ele>237.33333333333331</ele><time>2026-04-04T09:58:02.927Z</time></trkpt><trkpt lat="43.2942813" lon="11.3694149"><ele>235.5</ele><time>2026-04-04T09:58:03.925Z</time></trkpt><trkpt lat="43.2942071" lon="11.3694645"><ele>233.66666666666669</ele><time>2026-04-04T09:58:04.927Z</time></trkpt><trkpt lat="43.2941486" lon="11.3694979"><ele>231.83333333333334</ele><time>2026-04-04T09:58:05.93Z</time></trkpt><trkpt lat="43.2940834" lon="11.3695356"><ele>230.0</ele><time>2026-04-04T09:58:08.93Z</time></trkpt><trkpt lat="43.2940145" lon="11.3696141"><ele>230.0</ele><time>2026-04-04T09:58:25.93Z</time></trkpt><trkpt lat="43.2939522" lon="11.3696588"><ele>230.0</ele><time>2026-04-04T09:58:26.93Z</time></trkpt><trkpt lat="43.293875" lon="11.3697056"><ele>230.0</ele><time>2026-04-04T09:58:27.919Z</time></trkpt><trkpt lat="43.2937958" lon="11.3697566"><ele>230.0</ele><time>2026-04-04T09:58:28.923Z</time></trkpt><trkpt lat="43.2937081" lon="11.3698127"><ele>230.0</ele><time>2026-04-04T09:58:29.923Z</time></trkpt><trkpt lat="43.2936044" lon="11.3698668"><ele>228.75</ele><time>2026-04-04T09:58:30.933Z</time></trkpt><trkpt lat="43.2934972" lon="11.3699207"><ele>227.5</ele><time>2026-04-04T09:58:31.926Z</time></trkpt><trkpt lat="43.2933829" lon="11.3699666"><ele>226.25</ele><time>2026-04-04T09:58:32.93Z</time></trkpt><trkpt lat="43.2932699" lon="11.370005"><ele>225.0</ele><time>2026-04-04T09:58:33.928Z</time></trkpt><trkpt lat="43.2931599" lon="11.3700377"><ele>224.25</ele><time>2026-04-04T09:58:34.931Z</time></trkpt><trkpt lat="43.2930534" lon="11.3700589"><ele>223.5</ele><time>2026-04-04T09:58:35.931Z</time></trkpt><trkpt lat="43.2929436" lon="11.3700807"><ele>222.75</ele><time>2026-04-04T09:58:36.921Z</time></trkpt><trkpt lat="43.2928242" lon="11.3700858"><ele>222.0</ele><time>2026-04-04T09:58:37.928Z</time></trkpt><trkpt lat="43.2926974" lon="11.3700894"><ele>222.0</ele><time>2026-04-04T09:58:38.929Z</time></trkpt><trkpt lat="43.2925673" lon="11.3700818"><ele>222.0</ele><time>2026-04-04T09:58:39.927Z</time></trkpt><trkpt lat="43.2924241" lon="11.3700722"><ele>222.0</ele><time>2026-04-04T09:58:40.928Z</time></trkpt><trkpt lat="43.2922863" lon="11.3700644"><ele>222.0</ele><time>2026-04-04T09:58:41.931Z</time></trkpt><trkpt lat="43.2921411" lon="11.3700574"><ele>222.25</ele><time>2026-04-04T09:58:42.926Z</time></trkpt><trkpt lat="43.2919987" lon="11.3700692"><ele>222.5</ele><time>2026-04-04T09:58:43.942Z</time></trkpt><trkpt lat="43.2918607" lon="11.3700965"><ele>222.75</ele><time>2026-04-04T09:58:44.928Z</time></trkpt><trkpt lat="43.2917257" lon="11.3701367"><ele>223.0</ele><time>2026-04-04T09:58:45.923Z</time></trkpt><trkpt lat="43.2915894" lon="11.3701956"><ele>223.0</ele><time>2026-04-04T09:58:46.94Z</time></trkpt><trkpt lat="43.2914668" lon="11.3702652"><ele>223.0</ele><time>2026-04-04T09:58:47.927Z</time></trkpt><trkpt lat="43.2913565" lon="11.3703407"><ele>223.0</ele><time>2026-04-04T09:58:48.929Z</time></trkpt><trkpt lat="43.2912522" lon="11.3704271"><ele>223.0</ele><time>2026-04-04T09:58:49.925Z</time></trkpt><trkpt lat="43.2911492" lon="11.3705013"><ele>223.4</ele><time>2026-04-04T09:58:50.924Z</time></trkpt><trkpt lat="43.291044" lon="11.3705593"><ele>223.8</ele><time>2026-04-04T09:58:51.929Z</time></trkpt><trkpt lat="43.29094" lon="11.3706067"><ele>224.2</ele><time>2026-04-04T09:58:52.932Z</time></trkpt><trkpt lat="43.2908341" lon="11.370634"><ele>224.6</ele><time>2026-04-04T09:58:53.931Z</time></trkpt><trkpt lat="43.2907337" lon="11.3706744"><ele>225.0</ele><time>2026-04-04T09:58:54.931Z</time></trkpt><trkpt lat="43.2906361" lon="11.3707326"><ele>224.2</ele><time>2026-04-04T09:58:55.932Z</time></trkpt><trkpt lat="43.2905379" lon="11.3708265"><ele>223.4</ele><time>2026-04-04T09:58:56.929Z</time></trkpt><trkpt lat="43.2904591" lon="11.3709323"><ele>222.60000000000002</ele><time>2026-04-04T09:58:57.927Z</time></trkpt><trkpt lat="43.2904025" lon="11.3710598"><ele>221.8</ele><time>2026-04-04T09:58:58.93Z</time></trkpt><trkpt lat="43.2903573" lon="11.3711969"><ele>221.0</ele><time>2026-04-04T09:58:59.937Z</time></trkpt><trkpt lat="43.2902902" lon="11.3713229"><ele>221.66666666666669</ele><time>2026-04-04T09:59:00.924Z</time></trkpt><trkpt lat="43.2901986" lon="11.3714166"><ele>222.33333333333334</ele><time>2026-04-04T09:59:01.925Z</time></trkpt><trkpt lat="43.2901075" lon="11.3714856"><ele>223.0</ele><time>2026-04-04T09:59:02.935Z</time></trkpt><trkpt lat="43.2900242" lon="11.3715293"><ele>223.66666666666669</ele><time>2026-04-04T09:59:03.925Z</time></trkpt><trkpt lat="43.2899634" lon="11.3715885"><ele>224.33333333333334</ele><time>2026-04-04T09:59:04.926Z</time></trkpt><trkpt lat="43.289927" lon="11.3716632"><ele>225.0</ele><time>2026-04-04T09:59:05.936Z</time></trkpt><trkpt lat="43.2899102" lon="11.3717597"><ele>225.0</ele><time>2026-04-04T09:59:06.932Z</time></trkpt><trkpt lat="43.2899096" lon="11.3718554"><ele>225.0</ele><time>2026-04-04T09:59:07.932Z</time></trkpt><trkpt lat="43.2898877" lon="11.3720075"><ele>225.0</ele><time>2026-04-04T09:59:09.926Z</time></trkpt><trkpt lat="43.2898097" lon="11.3721405"><ele>225.0</ele><time>2026-04-04T09:59:11.93Z</time></trkpt><trkpt lat="43.2897507" lon="11.3721843"><ele>225.0</ele><time>2026-04-04T09:59:12.923Z</time></trkpt><trkpt lat="43.2896881" lon="11.3722188"><ele>225.0</ele><time>2026-04-04T09:59:13.925Z</time></trkpt><trkpt lat="43.2896154" lon="11.3722544"><ele>223.66666666666666</ele><time>2026-04-04T09:59:14.929Z</time></trkpt><trkpt lat="43.2895361" lon="11.3722978"><ele>222.33333333333331</ele><time>2026-04-04T09:59:15.925Z</time></trkpt><trkpt lat="43.2894597" lon="11.372338"><ele>221.0</ele><time>2026-04-04T09:59:16.928Z</time></trkpt><trkpt lat="43.2893933" lon="11.3723755"><ele>219.66666666666666</ele><time>2026-04-04T09:59:17.928Z</time></trkpt><trkpt lat="43.2893322" lon="11.3724098"><ele>218.33333333333331</ele><time>2026-04-04T09:59:18.928Z</time></trkpt><trkpt lat="43.2892705" lon="11.3724382"><ele>217.0</ele><time>2026-04-04T09:59:19.929Z</time></trkpt><trkpt lat="43.2891725" lon="11.3725281"><ele>217.0</ele><time>2026-04-04T09:59:21.93Z</time></trkpt><trkpt lat="43.2891189" lon="11.3726809"><ele>217.0</ele><time>2026-04-04T09:59:23.937Z</time></trkpt><trkpt lat="43.2891081" lon="11.372788"><ele>217.0</ele><time>2026-04-04T09:59:24.925Z</time></trkpt><trkpt lat="43.2891056" lon="11.3729048"><ele>217.0</ele><time>2026-04-04T09:59:25.928Z</time></trkpt><trkpt lat="43.2891026" lon="11.3730308"><ele>217.0</ele><time>2026-04-04T09:59:26.934Z</time></trkpt><trkpt lat="43.2891042" lon="11.3731546"><ele>215.83333333333331</ele><time>2026-04-04T09:59:27.928Z</time></trkpt><trkpt lat="43.2891021" lon="11.3732679"><ele>214.66666666666666</ele><time>2026-04-04T09:59:28.934Z</time></trkpt><trkpt lat="43.2890959" lon="11.3733749"><ele>213.5</ele><time>2026-04-04T09:59:29.927Z</time></trkpt><trkpt lat="43.2890929" lon="11.3734771"><ele>212.33333333333331</ele><time>2026-04-04T09:59:30.933Z</time></trkpt><trkpt lat="43.2890876" lon="11.3735894"><ele>211.16666666666666</ele><time>2026-04-04T09:59:31.926Z</time></trkpt><trkpt lat="43.2890863" lon="11.3736989"><ele>210.0</ele><time>2026-04-04T09:59:32.925Z</time></trkpt><trkpt lat="43.2890909" lon="11.3738147"><ele>208.4</ele><time>2026-04-04T09:59:33.933Z</time></trkpt><trkpt lat="43.2890926" lon="11.3739261"><ele>206.8</ele><time>2026-04-04T09:59:34.93Z</time></trkpt><trkpt lat="43.2890938" lon="11.3740486"><ele>205.2</ele><time>2026-04-04T09:59:35.928Z</time></trkpt><trkpt lat="43.2890975" lon="11.3741836"><ele>203.6</ele><time>2026-04-04T09:59:36.925Z</time></trkpt><trkpt lat="43.2891056" lon="11.3743252"><ele>202.0</ele><time>2026-04-04T09:59:37.924Z</time></trkpt><trkpt lat="43.2891116" lon="11.3744821"><ele>202.0</ele><time>2026-04-04T09:59:38.929Z</time></trkpt><trkpt lat="43.2891197" lon="11.3746494"><ele>202.0</ele><time>2026-04-04T09:59:39.926Z</time></trkpt><trkpt lat="43.289127" lon="11.374826"><ele>202.0</ele><time>2026-04-04T09:59:40.933Z</time></trkpt><trkpt lat="43.289134" lon="11.3750064"><ele>202.0</ele><time>2026-04-04T09:59:41.924Z</time></trkpt><trkpt lat="43.289135" lon="11.3751906"><ele>200.0</ele><time>2026-04-04T09:59:42.925Z</time></trkpt><trkpt lat="43.2891395" lon="11.3753716"><ele>198.0</ele><time>2026-04-04T09:59:43.93Z</time></trkpt><trkpt lat="43.2891454" lon="11.3755571"><ele>196.0</ele><time>2026-04-04T09:59:44.927Z</time></trkpt><trkpt lat="43.289153" lon="11.3757493"><ele>194.0</ele><time>2026-04-04T09:59:45.932Z</time></trkpt><trkpt lat="43.2891573" lon="11.3759355"><ele>192.0</ele><time>2026-04-04T09:59:46.931Z</time></trkpt><trkpt lat="43.2891624" lon="11.376115"><ele>190.0</ele><time>2026-04-04T09:59:47.928Z</time></trkpt><trkpt lat="43.289164" lon="11.3762935"><ele>188.0</ele><time>2026-04-04T09:59:48.932Z</time></trkpt><trkpt lat="43.2891702" lon="11.3764708"><ele>186.0</ele><time>2026-04-04T09:59:49.924Z</time></trkpt><trkpt lat="43.289179" lon="11.3766361"><ele>185.75</ele><time>2026-04-04T09:59:50.924Z</time></trkpt><trkpt lat="43.2891919" lon="11.3768029"><ele>185.5</ele><time>2026-04-04T09:59:51.931Z</time></trkpt><trkpt lat="43.2892018" lon="11.3769582"><ele>185.25</ele><time>2026-04-04T09:59:52.927Z</time></trkpt><trkpt lat="43.2892141" lon="11.3771152"><ele>185.0</ele><time>2026-04-04T09:59:53.931Z</time></trkpt><trkpt lat="43.289226" lon="11.3772692"><ele>185.0</ele><time>2026-04-04T09:59:54.929Z</time></trkpt><trkpt lat="43.2892313" lon="11.3774261"><ele>185.0</ele><time>2026-04-04T09:59:55.929Z</time></trkpt><trkpt lat="43.2892384" lon="11.3775748"><ele>185.0</ele><time>2026-04-04T09:59:56.926Z</time></trkpt><trkpt lat="43.2892289" lon="11.3777012"><ele>185.0</ele><time>2026-04-04T09:59:57.932Z</time></trkpt><trkpt lat="43.2891691" lon="11.3778331"><ele>185.0</ele><time>2026-04-04T09:59:59.932Z</time></trkpt><trkpt lat="43.289071" lon="11.3779219"><ele>185.0</ele><time>2026-04-04T10:00:01.931Z</time></trkpt><trkpt lat="43.289014" lon="11.3779657"><ele>185.0</ele><time>2026-04-04T10:00:02.932Z</time></trkpt><trkpt lat="43.2889511" lon="11.3780061"><ele>185.0</ele><time>2026-04-04T10:00:03.932Z</time></trkpt><trkpt lat="43.2888799" lon="11.3780483"><ele>185.0</ele><time>2026-04-04T10:00:04.934Z</time></trkpt><trkpt lat="43.288808" lon="11.3780924"><ele>185.0</ele><time>2026-04-04T10:00:05.931Z</time></trkpt><trkpt lat="43.2887286" lon="11.3781424"><ele>185.0</ele><time>2026-04-04T10:00:06.933Z</time></trkpt><trkpt lat="43.2886446" lon="11.3781943"><ele>187.16666666666666</ele><time>2026-04-04T10:00:07.932Z</time></trkpt><trkpt lat="43.2885648" lon="11.3782466"><ele>189.33333333333331</ele><time>2026-04-04T10:00:08.917Z</time></trkpt><trkpt lat="43.2884806" lon="11.3782942"><ele>191.5</ele><time>2026-04-04T10:00:09.935Z</time></trkpt><trkpt lat="43.2883964" lon="11.3783472"><ele>193.66666666666666</ele><time>2026-04-04T10:00:10.936Z</time></trkpt><trkpt lat="43.2883218" lon="11.3784159"><ele>195.83333333333334</ele><time>2026-04-04T10:00:11.928Z</time></trkpt><trkpt lat="43.2882584" lon="11.3784914"><ele>198.0</ele><time>2026-04-04T10:00:12.946Z</time></trkpt><trkpt lat="43.2882047" lon="11.37857"><ele>198.0</ele><time>2026-04-04T10:00:13.937Z</time></trkpt><trkpt lat="43.2881574" lon="11.378651"><ele>198.0</ele><time>2026-04-04T10:00:14.932Z</time></trkpt><trkpt lat="43.2881041" lon="11.3787216"><ele>198.0</ele><time>2026-04-04T10:00:15.926Z</time></trkpt><trkpt lat="43.2880539" lon="11.3788043"><ele>198.0</ele><time>2026-04-04T10:00:16.922Z</time></trkpt><trkpt lat="43.2880105" lon="11.3788844"><ele>198.0</ele><time>2026-04-04T10:00:17.926Z</time></trkpt><trkpt lat="43.2879894" lon="11.3789715"><ele>198.0</ele><time>2026-04-04T10:00:18.924Z</time></trkpt><trkpt lat="43.2879786" lon="11.3790705"><ele>198.0</ele><time>2026-04-04T10:00:19.936Z</time></trkpt><trkpt lat="43.2879829" lon="11.3791669"><ele>198.33333333333334</ele><time>2026-04-04T10:00:20.924Z</time></trkpt><trkpt lat="43.2879866" lon="11.3792624"><ele>198.66666666666669</ele><time>2026-04-04T10:00:21.927Z</time></trkpt><trkpt lat="43.2879949" lon="11.3793878"><ele>199.0</ele><time>2026-04-04T10:00:23.927Z</time></trkpt><trkpt lat="43.2879785" lon="11.3794961"><ele>199.33333333333334</ele><time>2026-04-04T10:00:27.932Z</time></trkpt><trkpt lat="43.2879275" lon="11.379554"><ele>199.66666666666669</ele><time>2026-04-04T10:00:29.921Z</time></trkpt><trkpt lat="43.2878669" lon="11.3795908"><ele>200.0</ele><time>2026-04-04T10:00:30.922Z</time></trkpt><trkpt lat="43.2877928" lon="11.3796273"><ele>200.0</ele><time>2026-04-04T10:00:31.923Z</time></trkpt><trkpt lat="43.2877079" lon="11.3796757"><ele>200.0</ele><time>2026-04-04T10:00:32.928Z</time></trkpt><trkpt lat="43.2876132" lon="11.3797297"><ele>200.0</ele><time>2026-04-04T10:00:33.922Z</time></trkpt><trkpt lat="43.2875136" lon="11.3797815"><ele>200.0</ele><time>2026-04-04T10:00:34.922Z</time></trkpt><trkpt lat="43.2873955" lon="11.3798369"><ele>200.0</ele><time>2026-04-04T10:00:35.923Z</time></trkpt><trkpt lat="43.2872701" lon="11.3798878"><ele>198.75</ele><time>2026-04-04T10:00:36.936Z</time></trkpt><trkpt lat="43.2871374" lon="11.3799156"><ele>197.5</ele><time>2026-04-04T10:00:37.921Z</time></trkpt><trkpt lat="43.2869989" lon="11.3798939"><ele>196.25</ele><time>2026-04-04T10:00:38.918Z</time></trkpt><trkpt lat="43.2868559" lon="11.3798579"><ele>195.0</ele><time>2026-04-04T10:00:39.93Z</time></trkpt><trkpt lat="43.286722" lon="11.3798244"><ele>195.0</ele><time>2026-04-04T10:00:40.925Z</time></trkpt><trkpt lat="43.2865907" lon="11.3797873"><ele>195.0</ele><time>2026-04-04T10:00:41.926Z</time></trkpt><trkpt lat="43.2864641" lon="11.3797351"><ele>195.0</ele><time>2026-04-04T10:00:42.919Z</time></trkpt><trkpt lat="43.2863499" lon="11.3796856"><ele>195.0</ele><time>2026-04-04T10:00:43.92Z</time></trkpt><trkpt lat="43.2862473" lon="11.3796297"><ele>195.4</ele><time>2026-04-04T10:00:44.929Z</time></trkpt><trkpt lat="43.2861522" lon="11.3795608"><ele>195.8</ele><time>2026-04-04T10:00:45.92Z</time></trkpt><trkpt lat="43.2860526" lon="11.3794859"><ele>196.2</ele><time>2026-04-04T10:00:46.917Z</time></trkpt><trkpt lat="43.2859523" lon="11.3794165"><ele>196.6</ele><time>2026-04-04T10:00:47.928Z</time></trkpt><trkpt lat="43.2858631" lon="11.3793551"><ele>197.0</ele><time>2026-04-04T10:00:48.929Z</time></trkpt><trkpt lat="43.2857903" lon="11.3793119"><ele>197.00000000000003</ele><time>2026-04-04T10:00:49.925Z</time></trkpt><trkpt lat="43.2857169" lon="11.3792477"><ele>197.0</ele><time>2026-04-04T10:00:51.915Z</time></trkpt><trkpt lat="43.2856327" lon="11.3791896"><ele>197.0</ele><time>2026-04-04T10:00:53.917Z</time></trkpt><trkpt lat="43.28557" lon="11.3791495"><ele>197.0</ele><time>2026-04-04T10:00:54.931Z</time></trkpt><trkpt lat="43.2854929" lon="11.3791053"><ele>197.00000000000003</ele><time>2026-04-04T10:00:55.921Z</time></trkpt><trkpt lat="43.2854125" lon="11.3790698"><ele>197.0</ele><time>2026-04-04T10:00:56.928Z</time></trkpt><trkpt lat="43.2853165" lon="11.3790344"><ele>196.25</ele><time>2026-04-04T10:00:57.925Z</time></trkpt><trkpt lat="43.2852165" lon="11.3790013"><ele>195.5</ele><time>2026-04-04T10:00:58.919Z</time></trkpt><trkpt lat="43.2851014" lon="11.3789823"><ele>194.75</ele><time>2026-04-04T10:00:59.933Z</time></trkpt><trkpt lat="43.2849742" lon="11.3789668"><ele>194.0</ele><time>2026-04-04T10:01:00.926Z</time></trkpt><trkpt lat="43.2848385" lon="11.3789546"><ele>193.75</ele><time>2026-04-04T10:01:01.927Z</time></trkpt><trkpt lat="43.2846975" lon="11.3789474"><ele>193.5</ele><time>2026-04-04T10:01:02.922Z</time></trkpt><trkpt lat="43.2845547" lon="11.378934"><ele>193.25</ele><time>2026-04-04T10:01:03.93Z</time></trkpt><trkpt lat="43.2844232" lon="11.3789139"><ele>193.0</ele><time>2026-04-04T10:01:04.924Z</time></trkpt><trkpt lat="43.2842924" lon="11.3788698"><ele>191.5</ele><time>2026-04-04T10:01:05.934Z</time></trkpt><trkpt lat="43.2841694" lon="11.3787781"><ele>190.0</ele><time>2026-04-04T10:01:06.95Z</time></trkpt><trkpt lat="43.2840684" lon="11.3786585"><ele>188.5</ele><time>2026-04-04T10:01:07.925Z</time></trkpt><trkpt lat="43.2839834" lon="11.3785102"><ele>187.0</ele><time>2026-04-04T10:01:08.935Z</time></trkpt><trkpt lat="43.2839184" lon="11.3783498"><ele>185.5</ele><time>2026-04-04T10:01:09.934Z</time></trkpt><trkpt lat="43.2838521" lon="11.3781937"><ele>184.0</ele><time>2026-04-04T10:01:10.931Z</time></trkpt><trkpt lat="43.2837633" lon="11.3780611"><ele>182.5</ele><time>2026-04-04T10:01:11.923Z</time></trkpt><trkpt lat="43.2836534" lon="11.3779492"><ele>181.0</ele><time>2026-04-04T10:01:12.924Z</time></trkpt><trkpt lat="43.283527" lon="11.377863"><ele>180.5</ele><time>2026-04-04T10:01:13.927Z</time></trkpt><trkpt lat="43.2833817" lon="11.3778032"><ele>180.0</ele><time>2026-04-04T10:01:14.945Z</time></trkpt><trkpt lat="43.2832364" lon="11.3777742"><ele>179.5</ele><time>2026-04-04T10:01:15.943Z</time></trkpt><trkpt lat="43.2830863" lon="11.3777824"><ele>179.0</ele><time>2026-04-04T10:01:16.929Z</time></trkpt><trkpt lat="43.2829437" lon="11.3778257"><ele>178.75</ele><time>2026-04-04T10:01:17.93Z</time></trkpt><trkpt lat="43.2828006" lon="11.3778684"><ele>178.5</ele><time>2026-04-04T10:01:18.932Z</time></trkpt><trkpt lat="43.2826632" lon="11.3779083"><ele>178.25</ele><time>2026-04-04T10:01:19.922Z</time></trkpt><trkpt lat="43.2825282" lon="11.377927"><ele>178.0</ele><time>2026-04-04T10:01:20.928Z</time></trkpt><trkpt lat="43.2824034" lon="11.3779064"><ele>178.0</ele><time>2026-04-04T10:01:21.93Z</time></trkpt><trkpt lat="43.282289" lon="11.3778495"><ele>178.0</ele><time>2026-04-04T10:01:22.928Z</time></trkpt><trkpt lat="43.2821869" lon="11.3777675"><ele>178.0</ele><time>2026-04-04T10:01:23.929Z</time></trkpt><trkpt lat="43.282098" lon="11.3776375"><ele>178.0</ele><time>2026-04-04T10:01:24.927Z</time></trkpt><trkpt lat="43.2820279" lon="11.3774954"><ele>177.75</ele><time>2026-04-04T10:01:25.932Z</time></trkpt><trkpt lat="43.2819813" lon="11.3773333"><ele>177.5</ele><time>2026-04-04T10:01:26.931Z</time></trkpt><trkpt lat="43.2819354" lon="11.3771616"><ele>177.25</ele><time>2026-04-04T10:01:27.925Z</time></trkpt><trkpt lat="43.2819029" lon="11.3770108"><ele>177.0</ele><time>2026-04-04T10:01:28.932Z</time></trkpt><trkpt lat="43.2818726" lon="11.3768834"><ele>177.0</ele><time>2026-04-04T10:01:29.933Z</time></trkpt><trkpt lat="43.2818583" lon="11.3767759"><ele>177.0</ele><time>2026-04-04T10:01:30.933Z</time></trkpt><trkpt lat="43.2818722" lon="11.3766531"><ele>177.0</ele><time>2026-04-04T10:01:31.926Z</time></trkpt><trkpt lat="43.2819121" lon="11.3765263"><ele>177.0</ele><time>2026-04-04T10:01:32.922Z</time></trkpt><trkpt lat="43.2819454" lon="11.3763975"><ele>177.0</ele><time>2026-04-04T10:01:33.925Z</time></trkpt><trkpt lat="43.2819618" lon="11.3762734"><ele>177.0</ele><time>2026-04-04T10:01:34.927Z</time></trkpt><trkpt lat="43.2819248" lon="11.3761549"><ele>177.0</ele><time>2026-04-04T10:01:35.925Z</time></trkpt><trkpt lat="43.2818677" lon="11.3760525"><ele>177.0</ele><time>2026-04-04T10:01:36.923Z</time></trkpt><trkpt lat="43.2817802" lon="11.3759723"><ele>177.0</ele><time>2026-04-04T10:01:37.932Z</time></trkpt><trkpt lat="43.2816992" lon="11.3758897"><ele>177.0</ele><time>2026-04-04T10:01:38.92Z</time></trkpt><trkpt lat="43.2816301" lon="11.3757747"><ele>177.0</ele><time>2026-04-04T10:01:39.931Z</time></trkpt><trkpt lat="43.2815837" lon="11.375612"><ele>177.0</ele><time>2026-04-04T10:01:40.924Z</time></trkpt><trkpt lat="43.2815544" lon="11.3754311"><ele>177.0</ele><time>2026-04-04T10:01:41.922Z</time></trkpt><trkpt lat="43.2815497" lon="11.375224"><ele>177.0</ele><time>2026-04-04T10:01:42.922Z</time></trkpt><trkpt lat="43.2815524" lon="11.3750057"><ele>178.66666666666666</ele><time>2026-04-04T10:01:43.933Z</time></trkpt><trkpt lat="43.2815904" lon="11.3747783"><ele>180.33333333333331</ele><time>2026-04-04T10:01:44.925Z</time></trkpt><trkpt lat="43.2816583" lon="11.3745529"><ele>182.0</ele><time>2026-04-04T10:01:45.921Z</time></trkpt><trkpt lat="43.2817479" lon="11.374305"><ele>184.33333333333331</ele><time>2026-04-04T10:01:46.923Z</time></trkpt><trkpt lat="43.2818592" lon="11.3740591"><ele>186.66666666666666</ele><time>2026-04-04T10:01:47.923Z</time></trkpt><trkpt lat="43.2819725" lon="11.3738378"><ele>189.0</ele><time>2026-04-04T10:01:48.923Z</time></trkpt><trkpt lat="43.2820823" lon="11.37362"><ele>190.33333333333331</ele><time>2026-04-04T10:01:49.918Z</time></trkpt><trkpt lat="43.2821739" lon="11.373399"><ele>191.66666666666666</ele><time>2026-04-04T10:01:50.935Z</time></trkpt><trkpt lat="43.282239" lon="11.3731634"><ele>193.0</ele><time>2026-04-04T10:01:51.916Z</time></trkpt><trkpt lat="43.2822732" lon="11.3729022"><ele>193.66666666666666</ele><time>2026-04-04T10:01:52.919Z</time></trkpt><trkpt lat="43.2822939" lon="11.372629"><ele>194.33333333333331</ele><time>2026-04-04T10:01:53.92Z</time></trkpt><trkpt lat="43.2823113" lon="11.3723583"><ele>195.0</ele><time>2026-04-04T10:01:54.919Z</time></trkpt><trkpt lat="43.2823293" lon="11.372079"><ele>196.33333333333331</ele><time>2026-04-04T10:01:55.922Z</time></trkpt><trkpt lat="43.2823514" lon="11.3717857"><ele>197.66666666666666</ele><time>2026-04-04T10:01:56.921Z</time></trkpt><trkpt lat="43.2823698" lon="11.3714882"><ele>199.0</ele><time>2026-04-04T10:01:57.922Z</time></trkpt><trkpt lat="43.2823943" lon="11.37118"><ele>199.66666666666666</ele><time>2026-04-04T10:01:58.923Z</time></trkpt><trkpt lat="43.282429" lon="11.3708753"><ele>200.33333333333331</ele><time>2026-04-04T10:01:59.924Z</time></trkpt><trkpt lat="43.282474" lon="11.3705752"><ele>201.0</ele><time>2026-04-04T10:02:00.923Z</time></trkpt><trkpt lat="43.2825459" lon="11.3702941"><ele>202.0</ele><time>2026-04-04T10:02:01.919Z</time></trkpt><trkpt lat="43.2826288" lon="11.3700273"><ele>203.0</ele><time>2026-04-04T10:02:02.919Z</time></trkpt><trkpt lat="43.2827323" lon="11.3697773"><ele>204.0</ele><time>2026-04-04T10:02:03.922Z</time></trkpt><trkpt lat="43.2828527" lon="11.3695342"><ele>204.0</ele><time>2026-04-04T10:02:04.921Z</time></trkpt><trkpt lat="43.2829755" lon="11.3692933"><ele>204.0</ele><time>2026-04-04T10:02:05.936Z</time></trkpt><trkpt lat="43.2830996" lon="11.369054"><ele>204.0</ele><time>2026-04-04T10:02:06.922Z</time></trkpt><trkpt lat="43.2832147" lon="11.3688151"><ele>205.33333333333331</ele><time>2026-04-04T10:02:07.923Z</time></trkpt><trkpt lat="43.2833129" lon="11.36858"><ele>206.66666666666666</ele><time>2026-04-04T10:02:08.921Z</time></trkpt><trkpt lat="43.2833838" lon="11.3683517"><ele>208.0</ele><time>2026-04-04T10:02:09.921Z</time></trkpt><trkpt lat="43.2834376" lon="11.3681159"><ele>208.0</ele><time>2026-04-04T10:02:10.929Z</time></trkpt><trkpt lat="43.2834711" lon="11.3678805"><ele>208.0</ele><time>2026-04-04T10:02:11.92Z</time></trkpt><trkpt lat="43.2834874" lon="11.3676346"><ele>208.0</ele><time>2026-04-04T10:02:12.928Z</time></trkpt><trkpt lat="43.28348" lon="11.3673822"><ele>209.0</ele><time>2026-04-04T10:02:13.928Z</time></trkpt><trkpt lat="43.2834337" lon="11.367132"><ele>210.0</ele><time>2026-04-04T10:02:14.931Z</time></trkpt><trkpt lat="43.2833629" lon="11.3668887"><ele>211.0</ele><time>2026-04-04T10:02:15.926Z</time></trkpt><trkpt lat="43.2832701" lon="11.3666527"><ele>211.0</ele><time>2026-04-04T10:02:16.926Z</time></trkpt><trkpt lat="43.2831623" lon="11.3664179"><ele>211.0</ele><time>2026-04-04T10:02:17.927Z</time></trkpt><trkpt lat="43.2830306" lon="11.366209"><ele>211.0</ele><time>2026-04-04T10:02:18.927Z</time></trkpt><trkpt lat="43.2828789" lon="11.3660201"><ele>212.33333333333331</ele><time>2026-04-04T10:02:19.931Z</time></trkpt><trkpt lat="43.2827093" lon="11.3658372"><ele>213.66666666666669</ele><time>2026-04-04T10:02:20.921Z</time></trkpt><trkpt lat="43.2825454" lon="11.365671"><ele>215.0</ele><time>2026-04-04T10:02:21.926Z</time></trkpt><trkpt lat="43.2824032" lon="11.3655048"><ele>215.0</ele><time>2026-04-04T10:02:22.926Z</time></trkpt><trkpt lat="43.2822924" lon="11.3653191"><ele>215.0</ele><time>2026-04-04T10:02:23.926Z</time></trkpt><trkpt lat="43.2822133" lon="11.3651169"><ele>215.0</ele><time>2026-04-04T10:02:24.933Z</time></trkpt><trkpt lat="43.2821761" lon="11.3648997"><ele>213.66666666666669</ele><time>2026-04-04T10:02:25.933Z</time></trkpt><trkpt lat="43.2821716" lon="11.3646649"><ele>212.33333333333331</ele><time>2026-04-04T10:02:26.927Z</time></trkpt><trkpt lat="43.2821923" lon="11.3644224"><ele>211.0</ele><time>2026-04-04T10:02:27.925Z</time></trkpt><trkpt lat="43.282218" lon="11.3641853"><ele>214.0</ele><time>2026-04-04T10:02:28.922Z</time></trkpt><trkpt lat="43.2822681" lon="11.3639579"><ele>217.0</ele><time>2026-04-04T10:02:29.918Z</time></trkpt><trkpt lat="43.2823397" lon="11.3637354"><ele>220.0</ele><time>2026-04-04T10:02:30.929Z</time></trkpt><trkpt lat="43.282424" lon="11.3635169"><ele>220.0</ele><time>2026-04-04T10:02:31.925Z</time></trkpt><trkpt lat="43.282516" lon="11.3633004"><ele>220.0</ele><time>2026-04-04T10:02:32.927Z</time></trkpt><trkpt lat="43.2826131" lon="11.3630875"><ele>220.0</ele><time>2026-04-04T10:02:33.926Z</time></trkpt><trkpt lat="43.2827234" lon="11.3628804"><ele>217.33333333333331</ele><time>2026-04-04T10:02:34.928Z</time></trkpt><trkpt lat="43.2828393" lon="11.3626691"><ele>214.66666666666669</ele><time>2026-04-04T10:02:35.933Z</time></trkpt><trkpt lat="43.2829498" lon="11.3624484"><ele>212.0</ele><time>2026-04-04T10:02:36.928Z</time></trkpt><trkpt lat="43.2830463" lon="11.3622153"><ele>216.66666666666669</ele><time>2026-04-04T10:02:37.924Z</time></trkpt><trkpt lat="43.2831388" lon="11.3619762"><ele>221.33333333333331</ele><time>2026-04-04T10:02:38.926Z</time></trkpt><trkpt lat="43.2832091" lon="11.3617212"><ele>226.0</ele><time>2026-04-04T10:02:39.934Z</time></trkpt><trkpt lat="43.2832649" lon="11.3614517"><ele>225.0</ele><time>2026-04-04T10:02:40.929Z</time></trkpt><trkpt lat="43.2833165" lon="11.3611678"><ele>224.0</ele><time>2026-04-04T10:02:41.931Z</time></trkpt><trkpt lat="43.2833699" lon="11.3608782"><ele>223.0</ele><time>2026-04-04T10:02:42.93Z</time></trkpt><trkpt lat="43.2834324" lon="11.3605871"><ele>220.0</ele><time>2026-04-04T10:02:43.926Z</time></trkpt><trkpt lat="43.2835116" lon="11.3602953"><ele>217.0</ele><time>2026-04-04T10:02:44.93Z</time></trkpt><trkpt lat="43.2836091" lon="11.3600055"><ele>217.0</ele><time>2026-04-04T10:02:45.937Z</time></trkpt><trkpt lat="43.2837134" lon="11.3597061"><ele>217.0</ele><time>2026-04-04T10:02:46.932Z</time></trkpt><trkpt lat="43.2838071" lon="11.3594016"><ele>216.0</ele><time>2026-04-04T10:02:47.927Z</time></trkpt><trkpt lat="43.2838987" lon="11.3590821"><ele>215.0</ele><time>2026-04-04T10:02:48.924Z</time></trkpt><trkpt lat="43.2839882" lon="11.3587567"><ele>222.0</ele><time>2026-04-04T10:02:49.928Z</time></trkpt><trkpt lat="43.2840744" lon="11.3584279"><ele>229.0</ele><time>2026-04-04T10:02:50.929Z</time></trkpt><trkpt lat="43.2841506" lon="11.3580918"><ele>228.5</ele><time>2026-04-04T10:02:51.928Z</time></trkpt><trkpt lat="43.2842187" lon="11.357772"><ele>228.0</ele><time>2026-04-04T10:02:52.925Z</time></trkpt><trkpt lat="43.2842791" lon="11.3574666"><ele>227.66666666666669</ele><time>2026-04-04T10:02:53.92Z</time></trkpt><trkpt lat="43.2843478" lon="11.3571831"><ele>227.33333333333334</ele><time>2026-04-04T10:02:54.928Z</time></trkpt><trkpt lat="43.284422" lon="11.3569036"><ele>227.0</ele><time>2026-04-04T10:02:55.929Z</time></trkpt><trkpt lat="43.2845043" lon="11.3566355"><ele>227.0</ele><time>2026-04-04T10:02:56.925Z</time></trkpt><trkpt lat="43.2845905" lon="11.3563783"><ele>227.0</ele><time>2026-04-04T10:02:57.929Z</time></trkpt><trkpt lat="43.2846798" lon="11.3561183"><ele>227.0</ele><time>2026-04-04T10:02:58.928Z</time></trkpt><trkpt lat="43.2847679" lon="11.355864"><ele>230.0</ele><time>2026-04-04T10:02:59.926Z</time></trkpt><trkpt lat="43.2848555" lon="11.3556194"><ele>233.0</ele><time>2026-04-04T10:03:00.926Z</time></trkpt><trkpt lat="43.2849341" lon="11.3553895"><ele>236.0</ele><time>2026-04-04T10:03:01.926Z</time></trkpt><trkpt lat="43.285012" lon="11.3551706"><ele>236.0</ele><time>2026-04-04T10:03:02.922Z</time></trkpt><trkpt lat="43.2850668" lon="11.3549603"><ele>236.0</ele><time>2026-04-04T10:03:03.927Z</time></trkpt><trkpt lat="43.2850913" lon="11.354762"><ele>236.0</ele><time>2026-04-04T10:03:04.933Z</time></trkpt><trkpt lat="43.2850806" lon="11.3545942"><ele>236.0</ele><time>2026-04-04T10:03:05.927Z</time></trkpt><trkpt lat="43.2850409" lon="11.3544348"><ele>236.0</ele><time>2026-04-04T10:03:06.922Z</time></trkpt><trkpt lat="43.2849711" lon="11.3542827"><ele>236.0</ele><time>2026-04-04T10:03:07.934Z</time></trkpt><trkpt lat="43.2848943" lon="11.3541347"><ele>236.0</ele><time>2026-04-04T10:03:08.927Z</time></trkpt><trkpt lat="43.2848093" lon="11.3539955"><ele>236.0</ele><time>2026-04-04T10:03:09.929Z</time></trkpt><trkpt lat="43.2847218" lon="11.3538639"><ele>236.00000000000003</ele><time>2026-04-04T10:03:10.924Z</time></trkpt><trkpt lat="43.284642" lon="11.3537442"><ele>236.0</ele><time>2026-04-04T10:03:11.93Z</time></trkpt><trkpt lat="43.2845771" lon="11.3536363"><ele>236.0</ele><time>2026-04-04T10:03:12.928Z</time></trkpt><trkpt lat="43.2845237" lon="11.353543"><ele>236.0</ele><time>2026-04-04T10:03:13.922Z</time></trkpt><trkpt lat="43.2844829" lon="11.3534687"><ele>236.00000000000003</ele><time>2026-04-04T10:03:14.929Z</time></trkpt><trkpt lat="43.2844438" lon="11.353391"><ele>236.0</ele><time>2026-04-04T10:03:17.925Z</time></trkpt><trkpt lat="43.2843437" lon="11.3533587"><ele>236.0</ele><time>2026-04-04T10:03:32.926Z</time></trkpt><trkpt lat="43.284259" lon="11.3533875"><ele>236.00000000000003</ele><time>2026-04-04T10:03:33.923Z</time></trkpt><trkpt lat="43.2841678" lon="11.3534282"><ele>236.00000000000003</ele><time>2026-04-04T10:03:34.928Z</time></trkpt><trkpt lat="43.2840543" lon="11.353501"><ele>236.0</ele><time>2026-04-04T10:03:35.928Z</time></trkpt><trkpt lat="43.2839261" lon="11.3535805"><ele>236.0</ele><time>2026-04-04T10:03:36.924Z</time></trkpt><trkpt lat="43.2837888" lon="11.3536392"><ele>236.66666666666669</ele><time>2026-04-04T10:03:37.936Z</time></trkpt><trkpt lat="43.2836337" lon="11.3536836"><ele>237.33333333333331</ele><time>2026-04-04T10:03:38.925Z</time></trkpt><trkpt lat="43.2834628" lon="11.3537063"><ele>238.0</ele><time>2026-04-04T10:03:39.922Z</time></trkpt><trkpt lat="43.2832829" lon="11.3536846"><ele>238.0</ele><time>2026-04-04T10:03:40.92Z</time></trkpt><trkpt lat="43.2831027" lon="11.3536552"><ele>238.0</ele><time>2026-04-04T10:03:41.927Z</time></trkpt><trkpt lat="43.2829182" lon="11.3536232"><ele>238.0</ele><time>2026-04-04T10:03:42.932Z</time></trkpt><trkpt lat="43.2827438" lon="11.3535869"><ele>238.0</ele><time>2026-04-04T10:03:43.926Z</time></trkpt><trkpt lat="43.2825698" lon="11.3535514"><ele>238.0</ele><time>2026-04-04T10:03:44.921Z</time></trkpt><trkpt lat="43.2823976" lon="11.3535099"><ele>238.0</ele><time>2026-04-04T10:03:45.918Z</time></trkpt><trkpt lat="43.2822225" lon="11.3534741"><ele>238.0</ele><time>2026-04-04T10:03:46.926Z</time></trkpt><trkpt lat="43.28205" lon="11.353442"><ele>238.0</ele><time>2026-04-04T10:03:47.932Z</time></trkpt><trkpt lat="43.2818834" lon="11.3534049"><ele>238.0</ele><time>2026-04-04T10:03:48.926Z</time></trkpt><trkpt lat="43.2817172" lon="11.3533698"><ele>238.0</ele><time>2026-04-04T10:03:49.928Z</time></trkpt><trkpt lat="43.2815497" lon="11.3533331"><ele>238.0</ele><time>2026-04-04T10:03:50.928Z</time></trkpt><trkpt lat="43.2813876" lon="11.3532918"><ele>238.0</ele><time>2026-04-04T10:03:51.928Z</time></trkpt><trkpt lat="43.2812246" lon="11.3532388"><ele>238.0</ele><time>2026-04-04T10:03:52.922Z</time></trkpt><trkpt lat="43.2810602" lon="11.3531766"><ele>238.0</ele><time>2026-04-04T10:03:53.932Z</time></trkpt><trkpt lat="43.2808927" lon="11.3531155"><ele>238.0</ele><time>2026-04-04T10:03:54.934Z</time></trkpt><trkpt lat="43.2807181" lon="11.3530545"><ele>235.33333333333331</ele><time>2026-04-04T10:03:55.936Z</time></trkpt><trkpt lat="43.28054" lon="11.3529908"><ele>232.66666666666669</ele><time>2026-04-04T10:03:56.921Z</time></trkpt><trkpt lat="43.2803564" lon="11.3529268"><ele>230.0</ele><time>2026-04-04T10:03:57.928Z</time></trkpt><trkpt lat="43.2801701" lon="11.352865"><ele>230.0</ele><time>2026-04-04T10:03:58.919Z</time></trkpt><trkpt lat="43.279981" lon="11.352804"><ele>230.0</ele><time>2026-04-04T10:03:59.927Z</time></trkpt><trkpt lat="43.2797951" lon="11.3527549"><ele>230.0</ele><time>2026-04-04T10:04:00.925Z</time></trkpt><trkpt lat="43.2796033" lon="11.3527091"><ele>229.0</ele><time>2026-04-04T10:04:01.928Z</time></trkpt><trkpt lat="43.279416" lon="11.3526726"><ele>228.0</ele><time>2026-04-04T10:04:02.929Z</time></trkpt><trkpt lat="43.2792379" lon="11.35265"><ele>227.0</ele><time>2026-04-04T10:04:03.929Z</time></trkpt><trkpt lat="43.2790648" lon="11.3526351"><ele>227.0</ele><time>2026-04-04T10:04:04.92Z</time></trkpt><trkpt lat="43.2788836" lon="11.3526452"><ele>227.0</ele><time>2026-04-04T10:04:05.928Z</time></trkpt><trkpt lat="43.2786963" lon="11.3526986"><ele>227.0</ele><time>2026-04-04T10:04:06.922Z</time></trkpt><trkpt lat="43.2785215" lon="11.3527895"><ele>227.0</ele><time>2026-04-04T10:04:07.923Z</time></trkpt><trkpt lat="43.2783401" lon="11.3529028"><ele>227.0</ele><time>2026-04-04T10:04:08.918Z</time></trkpt><trkpt lat="43.2781545" lon="11.3530164"><ele>227.0</ele><time>2026-04-04T10:04:09.929Z</time></trkpt><trkpt lat="43.2779616" lon="11.3531229"><ele>228.33333333333334</ele><time>2026-04-04T10:04:10.923Z</time></trkpt><trkpt lat="43.2777688" lon="11.3532474"><ele>229.66666666666669</ele><time>2026-04-04T10:04:11.93Z</time></trkpt><trkpt lat="43.2775841" lon="11.353364"><ele>231.0</ele><time>2026-04-04T10:04:12.926Z</time></trkpt><trkpt lat="43.2774027" lon="11.3534743"><ele>231.33333333333331</ele><time>2026-04-04T10:04:13.925Z</time></trkpt><trkpt lat="43.2772202" lon="11.3535667"><ele>231.66666666666666</ele><time>2026-04-04T10:04:14.93Z</time></trkpt><trkpt lat="43.2770355" lon="11.3536414"><ele>232.0</ele><time>2026-04-04T10:04:15.924Z</time></trkpt><trkpt lat="43.2768367" lon="11.3536948"><ele>232.0</ele><time>2026-04-04T10:04:16.925Z</time></trkpt><trkpt lat="43.276635" lon="11.353739"><ele>232.0</ele><time>2026-04-04T10:04:17.925Z</time></trkpt><trkpt lat="43.276428" lon="11.3537775"><ele>232.0</ele><time>2026-04-04T10:04:18.925Z</time></trkpt><trkpt lat="43.2762145" lon="11.3538152"><ele>230.33333333333331</ele><time>2026-04-04T10:04:19.919Z</time></trkpt><trkpt lat="43.2760057" lon="11.3538582"><ele>228.66666666666669</ele><time>2026-04-04T10:04:20.925Z</time></trkpt><trkpt lat="43.2757966" lon="11.3538994"><ele>227.0</ele><time>2026-04-04T10:04:21.928Z</time></trkpt><trkpt lat="43.2755863" lon="11.3539441"><ele>225.33333333333334</ele><time>2026-04-04T10:04:22.94Z</time></trkpt><trkpt lat="43.2753805" lon="11.3539902"><ele>223.66666666666669</ele><time>2026-04-04T10:04:23.923Z</time></trkpt><trkpt lat="43.2751709" lon="11.3540295"><ele>222.0</ele><time>2026-04-04T10:04:24.928Z</time></trkpt><trkpt lat="43.2749717" lon="11.3540747"><ele>222.0</ele><time>2026-04-04T10:04:25.924Z</time></trkpt><trkpt lat="43.2747925" lon="11.3541317"><ele>222.0</ele><time>2026-04-04T10:04:26.924Z</time></trkpt><trkpt lat="43.2746188" lon="11.3542439"><ele>222.0</ele><time>2026-04-04T10:04:27.924Z</time></trkpt><trkpt lat="43.2744578" lon="11.3543977"><ele>222.0</ele><time>2026-04-04T10:04:28.92Z</time></trkpt><trkpt lat="43.274311" lon="11.3545753"><ele>222.0</ele><time>2026-04-04T10:04:29.923Z</time></trkpt><trkpt lat="43.2741763" lon="11.3547704"><ele>222.0</ele><time>2026-04-04T10:04:30.923Z</time></trkpt><trkpt lat="43.274041" lon="11.354964"><ele>220.33333333333331</ele><time>2026-04-04T10:04:31.922Z</time></trkpt><trkpt lat="43.2739031" lon="11.3551516"><ele>218.66666666666666</ele><time>2026-04-04T10:04:32.929Z</time></trkpt><trkpt lat="43.2737613" lon="11.3553128"><ele>217.0</ele><time>2026-04-04T10:04:33.929Z</time></trkpt><trkpt lat="43.2736337" lon="11.355458"><ele>219.0</ele><time>2026-04-04T10:04:34.924Z</time></trkpt><trkpt lat="43.2735045" lon="11.3556071"><ele>221.0</ele><time>2026-04-04T10:04:35.931Z</time></trkpt><trkpt lat="43.273372" lon="11.3557445"><ele>223.0</ele><time>2026-04-04T10:04:36.926Z</time></trkpt><trkpt lat="43.2732382" lon="11.3558929"><ele>221.33333333333331</ele><time>2026-04-04T10:04:37.928Z</time></trkpt><trkpt lat="43.2731038" lon="11.3560444"><ele>219.66666666666669</ele><time>2026-04-04T10:04:38.928Z</time></trkpt><trkpt lat="43.2729654" lon="11.3561933"><ele>218.0</ele><time>2026-04-04T10:04:39.93Z</time></trkpt><trkpt lat="43.2728236" lon="11.3563474"><ele>221.0</ele><time>2026-04-04T10:04:40.921Z</time></trkpt><trkpt lat="43.2726797" lon="11.3565021"><ele>224.0</ele><time>2026-04-04T10:04:41.922Z</time></trkpt><trkpt lat="43.2725457" lon="11.3566544"><ele>227.0</ele><time>2026-04-04T10:04:42.921Z</time></trkpt><trkpt lat="43.2724146" lon="11.35679"><ele>227.0</ele><time>2026-04-04T10:04:43.928Z</time></trkpt><trkpt lat="43.2722926" lon="11.3569258"><ele>227.0</ele><time>2026-04-04T10:04:44.93Z</time></trkpt><trkpt lat="43.2721793" lon="11.3570488"><ele>227.0</ele><time>2026-04-04T10:04:45.926Z</time></trkpt><trkpt lat="43.2720803" lon="11.3571568"><ele>227.0</ele><time>2026-04-04T10:04:46.924Z</time></trkpt><trkpt lat="43.2720019" lon="11.357262"><ele>226.33333333333334</ele><time>2026-04-04T10:04:47.925Z</time></trkpt><trkpt lat="43.27194" lon="11.3573395"><ele>225.66666666666669</ele><time>2026-04-04T10:04:48.927Z</time></trkpt><trkpt lat="43.2718745" lon="11.3573884"><ele>225.0</ele><time>2026-04-04T10:04:49.932Z</time></trkpt><trkpt lat="43.2717991" lon="11.3573869"><ele>224.33333333333331</ele><time>2026-04-04T10:04:50.928Z</time></trkpt><trkpt lat="43.2717247" lon="11.3573426"><ele>223.66666666666666</ele><time>2026-04-04T10:04:51.936Z</time></trkpt><trkpt lat="43.2716417" lon="11.3572648"><ele>223.0</ele><time>2026-04-04T10:04:52.919Z</time></trkpt><trkpt lat="43.2715636" lon="11.3571807"><ele>223.0</ele><time>2026-04-04T10:04:53.92Z</time></trkpt><trkpt lat="43.2714799" lon="11.3570885"><ele>223.0</ele><time>2026-04-04T10:04:54.926Z</time></trkpt><trkpt lat="43.27139" lon="11.356988"><ele>223.0</ele><time>2026-04-04T10:04:55.938Z</time></trkpt><trkpt lat="43.2713005" lon="11.3568967"><ele>223.0</ele><time>2026-04-04T10:04:56.921Z</time></trkpt><trkpt lat="43.2712143" lon="11.3568061"><ele>223.0</ele><time>2026-04-04T10:04:57.933Z</time></trkpt><trkpt lat="43.2711291" lon="11.3567173"><ele>222.8</ele><time>2026-04-04T10:04:58.927Z</time></trkpt><trkpt lat="43.2710508" lon="11.3566305"><ele>222.60000000000002</ele><time>2026-04-04T10:04:59.925Z</time></trkpt><trkpt lat="43.2709708" lon="11.3565427"><ele>222.39999999999998</ele><time>2026-04-04T10:05:00.928Z</time></trkpt><trkpt lat="43.2708921" lon="11.3564586"><ele>222.2</ele><time>2026-04-04T10:05:01.926Z</time></trkpt><trkpt lat="43.2708076" lon="11.3563764"><ele>222.0</ele><time>2026-04-04T10:05:02.922Z</time></trkpt><trkpt lat="43.2707275" lon="11.3562922"><ele>220.33333333333334</ele><time>2026-04-04T10:05:03.942Z</time></trkpt><trkpt lat="43.2706507" lon="11.3562109"><ele>218.66666666666669</ele><time>2026-04-04T10:05:04.922Z</time></trkpt><trkpt lat="43.2705747" lon="11.3561312"><ele>217.0</ele><time>2026-04-04T10:05:05.92Z</time></trkpt><trkpt lat="43.2705039" lon="11.3560678"><ele>215.33333333333334</ele><time>2026-04-04T10:05:06.923Z</time></trkpt><trkpt lat="43.2704308" lon="11.3560063"><ele>213.66666666666669</ele><time>2026-04-04T10:05:07.926Z</time></trkpt><trkpt lat="43.2703544" lon="11.355954"><ele>212.0</ele><time>2026-04-04T10:05:08.927Z</time></trkpt><trkpt lat="43.270273" lon="11.3559193"><ele>211.6</ele><time>2026-04-04T10:05:09.926Z</time></trkpt><trkpt lat="43.2701828" lon="11.355907"><ele>211.2</ele><time>2026-04-04T10:05:10.931Z</time></trkpt><trkpt lat="43.2700868" lon="11.3559028"><ele>210.8</ele><time>2026-04-04T10:05:11.925Z</time></trkpt><trkpt lat="43.269986" lon="11.3559071"><ele>210.4</ele><time>2026-04-04T10:05:12.926Z</time></trkpt><trkpt lat="43.2698793" lon="11.3559251"><ele>210.0</ele><time>2026-04-04T10:05:13.925Z</time></trkpt><trkpt lat="43.26977" lon="11.3559559"><ele>207.0</ele><time>2026-04-04T10:05:14.926Z</time></trkpt><trkpt lat="43.2696653" lon="11.3560084"><ele>204.0</ele><time>2026-04-04T10:05:15.94Z</time></trkpt><trkpt lat="43.269566" lon="11.3560721"><ele>201.0</ele><time>2026-04-04T10:05:16.923Z</time></trkpt><trkpt lat="43.2694668" lon="11.3561571"><ele>198.0</ele><time>2026-04-04T10:05:17.927Z</time></trkpt><trkpt lat="43.2693741" lon="11.3562518"><ele>198.0</ele><time>2026-04-04T10:05:18.917Z</time></trkpt><trkpt lat="43.2692819" lon="11.3563622"><ele>198.0</ele><time>2026-04-04T10:05:19.937Z</time></trkpt><trkpt lat="43.2691923" lon="11.356479"><ele>198.0</ele><time>2026-04-04T10:05:20.94Z</time></trkpt><trkpt lat="43.2691111" lon="11.3566123"><ele>198.0</ele><time>2026-04-04T10:05:21.932Z</time></trkpt><trkpt lat="43.2690484" lon="11.3567657"><ele>199.0</ele><time>2026-04-04T10:05:22.923Z</time></trkpt><trkpt lat="43.2689991" lon="11.3569259"><ele>200.0</ele><time>2026-04-04T10:05:23.929Z</time></trkpt><trkpt lat="43.2689631" lon="11.3570991"><ele>201.0</ele><time>2026-04-04T10:05:24.927Z</time></trkpt><trkpt lat="43.2689422" lon="11.3572805"><ele>202.0</ele><time>2026-04-04T10:05:25.923Z</time></trkpt><trkpt lat="43.2689344" lon="11.3574692"><ele>198.75</ele><time>2026-04-04T10:05:26.925Z</time></trkpt><trkpt lat="43.26893" lon="11.3576573"><ele>195.5</ele><time>2026-04-04T10:05:27.927Z</time></trkpt><trkpt lat="43.2689274" lon="11.3578488"><ele>192.25</ele><time>2026-04-04T10:05:28.919Z</time></trkpt><trkpt lat="43.2689248" lon="11.3580202"><ele>189.0</ele><time>2026-04-04T10:05:29.927Z</time></trkpt><trkpt lat="43.2689133" lon="11.35819"><ele>189.0</ele><time>2026-04-04T10:05:30.929Z</time></trkpt><trkpt lat="43.2688935" lon="11.3583557"><ele>189.0</ele><time>2026-04-04T10:05:31.935Z</time></trkpt><trkpt lat="43.2688645" lon="11.3585152"><ele>189.0</ele><time>2026-04-04T10:05:32.926Z</time></trkpt><trkpt lat="43.2688244" lon="11.3586605"><ele>189.0</ele><time>2026-04-04T10:05:33.924Z</time></trkpt><trkpt lat="43.2687709" lon="11.3588014"><ele>189.25</ele><time>2026-04-04T10:05:34.922Z</time></trkpt><trkpt lat="43.2687029" lon="11.3589295"><ele>189.5</ele><time>2026-04-04T10:05:35.932Z</time></trkpt><trkpt lat="43.2686226" lon="11.3590562"><ele>189.75</ele><time>2026-04-04T10:05:36.929Z</time></trkpt><trkpt lat="43.268526" lon="11.3591684"><ele>190.0</ele><time>2026-04-04T10:05:37.929Z</time></trkpt><trkpt lat="43.2684133" lon="11.3592564"><ele>190.0</ele><time>2026-04-04T10:05:38.928Z</time></trkpt><trkpt lat="43.2682888" lon="11.359319"><ele>190.0</ele><time>2026-04-04T10:05:39.922Z</time></trkpt><trkpt lat="43.2681634" lon="11.3593719"><ele>190.0</ele><time>2026-04-04T10:05:40.932Z</time></trkpt><trkpt lat="43.2680376" lon="11.3593957"><ele>190.0</ele><time>2026-04-04T10:05:41.923Z</time></trkpt><trkpt lat="43.2679147" lon="11.3593999"><ele>189.0</ele><time>2026-04-04T10:05:42.928Z</time></trkpt><trkpt lat="43.2677915" lon="11.3593747"><ele>188.0</ele><time>2026-04-04T10:05:43.928Z</time></trkpt><trkpt lat="43.2676675" lon="11.3593331"><ele>187.0</ele><time>2026-04-04T10:05:44.935Z</time></trkpt><trkpt lat="43.2675498" lon="11.3592867"><ele>186.0</ele><time>2026-04-04T10:05:45.928Z</time></trkpt><trkpt lat="43.2674478" lon="11.3592399"><ele>186.0</ele><time>2026-04-04T10:05:46.924Z</time></trkpt><trkpt lat="43.2673519" lon="11.3591957"><ele>186.0</ele><time>2026-04-04T10:05:47.931Z</time></trkpt><trkpt lat="43.2672587" lon="11.3591535"><ele>186.0</ele><time>2026-04-04T10:05:48.925Z</time></trkpt><trkpt lat="43.2671714" lon="11.3591164"><ele>186.0</ele><time>2026-04-04T10:05:49.921Z</time></trkpt><trkpt lat="43.2670859" lon="11.3590844"><ele>186.0</ele><time>2026-04-04T10:05:50.923Z</time></trkpt><trkpt lat="43.2670046" lon="11.3590522"><ele>185.83333333333334</ele><time>2026-04-04T10:05:51.921Z</time></trkpt><trkpt lat="43.2669191" lon="11.3590155"><ele>185.66666666666666</ele><time>2026-04-04T10:05:52.919Z</time></trkpt><trkpt lat="43.266839" lon="11.3589838"><ele>185.5</ele><time>2026-04-04T10:05:53.929Z</time></trkpt><trkpt lat="43.2667579" lon="11.358952"><ele>185.33333333333331</ele><time>2026-04-04T10:05:54.938Z</time></trkpt><trkpt lat="43.2666794" lon="11.3589234"><ele>185.16666666666666</ele><time>2026-04-04T10:05:55.923Z</time></trkpt><trkpt lat="43.2666079" lon="11.3588934"><ele>185.0</ele><time>2026-04-04T10:05:56.932Z</time></trkpt><trkpt lat="43.2665426" lon="11.3588719"><ele>185.0</ele><time>2026-04-04T10:05:57.922Z</time></trkpt><trkpt lat="43.2664779" lon="11.3588458"><ele>185.0</ele><time>2026-04-04T10:05:58.923Z</time></trkpt><trkpt lat="43.2664134" lon="11.3588091"><ele>185.0</ele><time>2026-04-04T10:05:59.923Z</time></trkpt><trkpt lat="43.2663372" lon="11.3587816"><ele>185.0</ele><time>2026-04-04T10:06:00.935Z</time></trkpt><trkpt lat="43.2662582" lon="11.3587533"><ele>185.0</ele><time>2026-04-04T10:06:01.928Z</time></trkpt><trkpt lat="43.266166" lon="11.3587117"><ele>185.0</ele><time>2026-04-04T10:06:02.924Z</time></trkpt><trkpt lat="43.2660679" lon="11.3586629"><ele>185.0</ele><time>2026-04-04T10:06:03.931Z</time></trkpt><trkpt lat="43.2659644" lon="11.3586149"><ele>185.0</ele><time>2026-04-04T10:06:04.924Z</time></trkpt><trkpt lat="43.2658605" lon="11.3585624"><ele>185.0</ele><time>2026-04-04T10:06:05.919Z</time></trkpt><trkpt lat="43.2657485" lon="11.3585218"><ele>185.0</ele><time>2026-04-04T10:06:06.933Z</time></trkpt><trkpt lat="43.26564" lon="11.3584781"><ele>185.0</ele><time>2026-04-04T10:06:07.919Z</time></trkpt><trkpt lat="43.2655336" lon="11.3584323"><ele>184.8</ele><time>2026-04-04T10:06:08.921Z</time></trkpt><trkpt lat="43.2654238" lon="11.3583841"><ele>184.6</ele><time>2026-04-04T10:06:09.921Z</time></trkpt><trkpt lat="43.2653211" lon="11.3583384"><ele>184.39999999999998</ele><time>2026-04-04T10:06:10.929Z</time></trkpt><trkpt lat="43.2652182" lon="11.3582868"><ele>184.2</ele><time>2026-04-04T10:06:11.931Z</time></trkpt><trkpt lat="43.265119" lon="11.3582478"><ele>184.0</ele><time>2026-04-04T10:06:12.926Z</time></trkpt><trkpt lat="43.2650245" lon="11.3582251"><ele>184.0</ele><time>2026-04-04T10:06:13.925Z</time></trkpt><trkpt lat="43.2649282" lon="11.3582137"><ele>184.0</ele><time>2026-04-04T10:06:14.922Z</time></trkpt><trkpt lat="43.2648365" lon="11.3582158"><ele>184.0</ele><time>2026-04-04T10:06:15.922Z</time></trkpt><trkpt lat="43.2647526" lon="11.3582439"><ele>184.0</ele><time>2026-04-04T10:06:16.927Z</time></trkpt><trkpt lat="43.2646727" lon="11.3583054"><ele>184.0</ele><time>2026-04-04T10:06:17.929Z</time></trkpt><trkpt lat="43.2645941" lon="11.3583728"><ele>184.0</ele><time>2026-04-04T10:06:18.932Z</time></trkpt><trkpt lat="43.2645262" lon="11.3584567"><ele>184.0</ele><time>2026-04-04T10:06:19.931Z</time></trkpt><trkpt lat="43.2644684" lon="11.35856"><ele>184.0</ele><time>2026-04-04T10:06:20.923Z</time></trkpt><trkpt lat="43.2644102" lon="11.358674"><ele>184.0</ele><time>2026-04-04T10:06:21.93Z</time></trkpt><trkpt lat="43.2643476" lon="11.3587912"><ele>184.0</ele><time>2026-04-04T10:06:22.927Z</time></trkpt><trkpt lat="43.2642754" lon="11.3589152"><ele>184.0</ele><time>2026-04-04T10:06:23.931Z</time></trkpt><trkpt lat="43.2641996" lon="11.3590429"><ele>184.0</ele><time>2026-04-04T10:06:24.924Z</time></trkpt><trkpt lat="43.2641193" lon="11.3591684"><ele>184.0</ele><time>2026-04-04T10:06:25.931Z</time></trkpt><trkpt lat="43.264027" lon="11.3592686"><ele>184.0</ele><time>2026-04-04T10:06:26.93Z</time></trkpt><trkpt lat="43.2639144" lon="11.3593603"><ele>183.75</ele><time>2026-04-04T10:06:27.929Z</time></trkpt><trkpt lat="43.2637977" lon="11.3594462"><ele>183.5</ele><time>2026-04-04T10:06:28.924Z</time></trkpt><trkpt lat="43.2636703" lon="11.3595347"><ele>183.25</ele><time>2026-04-04T10:06:29.932Z</time></trkpt><trkpt lat="43.2635351" lon="11.3596366"><ele>183.0</ele><time>2026-04-04T10:06:30.926Z</time></trkpt><trkpt lat="43.263398" lon="11.3597511"><ele>182.66666666666666</ele><time>2026-04-04T10:06:31.928Z</time></trkpt><trkpt lat="43.2632718" lon="11.3598593"><ele>182.33333333333331</ele><time>2026-04-04T10:06:32.93Z</time></trkpt><trkpt lat="43.2631495" lon="11.3599751"><ele>182.0</ele><time>2026-04-04T10:06:33.925Z</time></trkpt><trkpt lat="43.2630269" lon="11.3601069"><ele>183.33333333333331</ele><time>2026-04-04T10:06:34.931Z</time></trkpt><trkpt lat="43.2629067" lon="11.3602468"><ele>184.66666666666666</ele><time>2026-04-04T10:06:35.935Z</time></trkpt><trkpt lat="43.2627856" lon="11.3603809"><ele>186.0</ele><time>2026-04-04T10:06:36.925Z</time></trkpt><trkpt lat="43.2626687" lon="11.3605167"><ele>185.25</ele><time>2026-04-04T10:06:37.932Z</time></trkpt><trkpt lat="43.2625516" lon="11.3606472"><ele>184.5</ele><time>2026-04-04T10:06:38.919Z</time></trkpt><trkpt lat="43.2624418" lon="11.3607829"><ele>183.75</ele><time>2026-04-04T10:06:39.929Z</time></trkpt><trkpt lat="43.2623436" lon="11.3609083"><ele>183.0</ele><time>2026-04-04T10:06:40.925Z</time></trkpt><trkpt lat="43.2622498" lon="11.3610378"><ele>182.75</ele><time>2026-04-04T10:06:41.936Z</time></trkpt><trkpt lat="43.2621577" lon="11.3611556"><ele>182.5</ele><time>2026-04-04T10:06:42.926Z</time></trkpt><trkpt lat="43.2620608" lon="11.3612795"><ele>182.25</ele><time>2026-04-04T10:06:43.927Z</time></trkpt><trkpt lat="43.2619514" lon="11.3613869"><ele>182.0</ele><time>2026-04-04T10:06:44.928Z</time></trkpt><trkpt lat="43.2618313" lon="11.3614839"><ele>182.0</ele><time>2026-04-04T10:06:45.929Z</time></trkpt><trkpt lat="43.2617045" lon="11.3615763"><ele>182.0</ele><time>2026-04-04T10:06:46.929Z</time></trkpt><trkpt lat="43.2615759" lon="11.3616686"><ele>182.0</ele><time>2026-04-04T10:06:47.937Z</time></trkpt><trkpt lat="43.2614459" lon="11.3617528"><ele>182.0</ele><time>2026-04-04T10:06:48.931Z</time></trkpt><trkpt lat="43.2613241" lon="11.3618207"><ele>182.0</ele><time>2026-04-04T10:06:49.929Z</time></trkpt><trkpt lat="43.261215" lon="11.3618733"><ele>182.0</ele><time>2026-04-04T10:06:50.926Z</time></trkpt><trkpt lat="43.2611241" lon="11.3619065"><ele>182.0</ele><time>2026-04-04T10:06:51.936Z</time></trkpt><trkpt lat="43.2610579" lon="11.3619288"><ele>182.0</ele><time>2026-04-04T10:06:52.935Z</time></trkpt><trkpt lat="43.2609707" lon="11.3619598"><ele>182.0</ele><time>2026-04-04T10:06:54.926Z</time></trkpt><trkpt lat="43.2608918" lon="11.3619862"><ele>182.0</ele><time>2026-04-04T10:06:56.924Z</time></trkpt><trkpt lat="43.2608196" lon="11.3619969"><ele>182.0</ele><time>2026-04-04T10:06:58.927Z</time></trkpt><trkpt lat="43.2607306" lon="11.3619947"><ele>182.0</ele><time>2026-04-04T10:07:00.93Z</time></trkpt><trkpt lat="43.2606643" lon="11.3619783"><ele>182.0</ele><time>2026-04-04T10:07:01.934Z</time></trkpt><trkpt lat="43.2605815" lon="11.3619632"><ele>182.0</ele><time>2026-04-04T10:07:02.927Z</time></trkpt><trkpt lat="43.2604886" lon="11.3619396"><ele>182.0</ele><time>2026-04-04T10:07:03.927Z</time></trkpt><trkpt lat="43.260387" lon="11.3619108"><ele>182.0</ele><time>2026-04-04T10:07:04.931Z</time></trkpt><trkpt lat="43.2602772" lon="11.361878"><ele>182.75</ele><time>2026-04-04T10:07:05.934Z</time></trkpt><trkpt lat="43.260156" lon="11.3618433"><ele>183.5</ele><time>2026-04-04T10:07:06.924Z</time></trkpt><trkpt lat="43.2600325" lon="11.3618044"><ele>184.25</ele><time>2026-04-04T10:07:07.929Z</time></trkpt><trkpt lat="43.2599003" lon="11.3617717"><ele>185.0</ele><time>2026-04-04T10:07:08.933Z</time></trkpt><trkpt lat="43.2597815" lon="11.3617412"><ele>186.6</ele><time>2026-04-04T10:07:09.93Z</time></trkpt><trkpt lat="43.2596682" lon="11.361705"><ele>188.2</ele><time>2026-04-04T10:07:10.929Z</time></trkpt><trkpt lat="43.2595595" lon="11.3616617"><ele>189.8</ele><time>2026-04-04T10:07:11.928Z</time></trkpt><trkpt lat="43.2594596" lon="11.36162"><ele>191.4</ele><time>2026-04-04T10:07:12.921Z</time></trkpt><trkpt lat="43.2593612" lon="11.3615687"><ele>193.0</ele><time>2026-04-04T10:07:13.93Z</time></trkpt><trkpt lat="43.259264" lon="11.361521"><ele>192.99999999999997</ele><time>2026-04-04T10:07:14.926Z</time></trkpt><trkpt lat="43.2591841" lon="11.3614776"><ele>193.0</ele><time>2026-04-04T10:07:15.93Z</time></trkpt><trkpt lat="43.2591086" lon="11.3614435"><ele>193.0</ele><time>2026-04-04T10:07:16.924Z</time></trkpt><trkpt lat="43.2590428" lon="11.361417"><ele>193.0</ele><time>2026-04-04T10:07:17.922Z</time></trkpt><trkpt lat="43.2589827" lon="11.3613798"><ele>192.99999999999997</ele><time>2026-04-04T10:07:18.932Z</time></trkpt><trkpt lat="43.2588629" lon="11.3612885"><ele>193.0</ele><time>2026-04-04T10:07:20.92Z</time></trkpt><trkpt lat="43.258796" lon="11.3612318"><ele>193.4</ele><time>2026-04-04T10:07:21.924Z</time></trkpt><trkpt lat="43.2587237" lon="11.3611626"><ele>193.8</ele><time>2026-04-04T10:07:22.93Z</time></trkpt><trkpt lat="43.2586447" lon="11.3610869"><ele>194.2</ele><time>2026-04-04T10:07:23.93Z</time></trkpt><trkpt lat="43.2585589" lon="11.3609973"><ele>194.6</ele><time>2026-04-04T10:07:24.926Z</time></trkpt><trkpt lat="43.2584645" lon="11.360903"><ele>195.0</ele><time>2026-04-04T10:07:25.935Z</time></trkpt><trkpt lat="43.2583676" lon="11.3608076"><ele>195.0</ele><time>2026-04-04T10:07:26.934Z</time></trkpt><trkpt lat="43.2582629" lon="11.3607109"><ele>195.0</ele><time>2026-04-04T10:07:27.925Z</time></trkpt><trkpt lat="43.2581653" lon="11.3606152"><ele>195.0</ele><time>2026-04-04T10:07:28.927Z</time></trkpt><trkpt lat="43.2580709" lon="11.3605268"><ele>195.0</ele><time>2026-04-04T10:07:29.929Z</time></trkpt><trkpt lat="43.2579776" lon="11.3604479"><ele>195.0</ele><time>2026-04-04T10:07:30.926Z</time></trkpt><trkpt lat="43.2578682" lon="11.3603784"><ele>195.0</ele><time>2026-04-04T10:07:31.93Z</time></trkpt><trkpt lat="43.257752" lon="11.3603205"><ele>195.0</ele><time>2026-04-04T10:07:32.928Z</time></trkpt><trkpt lat="43.2576294" lon="11.360265"><ele>195.0</ele><time>2026-04-04T10:07:33.929Z</time></trkpt><trkpt lat="43.257507" lon="11.3602115"><ele>195.0</ele><time>2026-04-04T10:07:34.927Z</time></trkpt><trkpt lat="43.2573934" lon="11.3601596"><ele>195.0</ele><time>2026-04-04T10:07:35.933Z</time></trkpt><trkpt lat="43.2572806" lon="11.3601211"><ele>195.0</ele><time>2026-04-04T10:07:36.922Z</time></trkpt><trkpt lat="43.25717" lon="11.3600929"><ele>195.0</ele><time>2026-04-04T10:07:37.92Z</time></trkpt><trkpt lat="43.2570583" lon="11.3600758"><ele>196.0</ele><time>2026-04-04T10:07:38.932Z</time></trkpt><trkpt lat="43.2569395" lon="11.3600652"><ele>197.0</ele><time>2026-04-04T10:07:39.922Z</time></trkpt><trkpt lat="43.2568158" lon="11.360066"><ele>198.0</ele><time>2026-04-04T10:07:40.926Z</time></trkpt><trkpt lat="43.2566874" lon="11.3600784"><ele>199.0</ele><time>2026-04-04T10:07:41.932Z</time></trkpt><trkpt lat="43.2565615" lon="11.3601015"><ele>200.0</ele><time>2026-04-04T10:07:42.923Z</time></trkpt><trkpt lat="43.2564342" lon="11.360123"><ele>201.0</ele><time>2026-04-04T10:07:43.929Z</time></trkpt><trkpt lat="43.2563043" lon="11.360162"><ele>202.0</ele><time>2026-04-04T10:07:44.929Z</time></trkpt><trkpt lat="43.2561849" lon="11.3602051"><ele>203.0</ele><time>2026-04-04T10:07:45.928Z</time></trkpt><trkpt lat="43.2560634" lon="11.3602633"><ele>203.0</ele><time>2026-04-04T10:07:46.924Z</time></trkpt><trkpt lat="43.2559422" lon="11.3603423"><ele>203.0</ele><time>2026-04-04T10:07:47.939Z</time></trkpt><trkpt lat="43.2558189" lon="11.3604348"><ele>203.0</ele><time>2026-04-04T10:07:48.923Z</time></trkpt><trkpt lat="43.2556907" lon="11.3605283"><ele>203.0</ele><time>2026-04-04T10:07:49.927Z</time></trkpt><trkpt lat="43.2555685" lon="11.3606196"><ele>205.75</ele><time>2026-04-04T10:07:50.922Z</time></trkpt><trkpt lat="43.2554494" lon="11.3607053"><ele>208.5</ele><time>2026-04-04T10:07:51.93Z</time></trkpt><trkpt lat="43.2553374" lon="11.3608051"><ele>211.25</ele><time>2026-04-04T10:07:52.933Z</time></trkpt><trkpt lat="43.2552393" lon="11.3609196"><ele>214.0</ele><time>2026-04-04T10:07:53.93Z</time></trkpt><trkpt lat="43.2551445" lon="11.3610523"><ele>214.0</ele><time>2026-04-04T10:07:54.932Z</time></trkpt><trkpt lat="43.2550551" lon="11.3611941"><ele>214.0</ele><time>2026-04-04T10:07:55.931Z</time></trkpt><trkpt lat="43.2549681" lon="11.3613486"><ele>214.0</ele><time>2026-04-04T10:07:56.925Z</time></trkpt><trkpt lat="43.2548879" lon="11.3615043"><ele>214.0</ele><time>2026-04-04T10:07:57.928Z</time></trkpt><trkpt lat="43.2548136" lon="11.361655"><ele>216.75</ele><time>2026-04-04T10:07:58.939Z</time></trkpt><trkpt lat="43.2547384" lon="11.3618007"><ele>219.5</ele><time>2026-04-04T10:07:59.929Z</time></trkpt><trkpt lat="43.2546605" lon="11.361935"><ele>222.25</ele><time>2026-04-04T10:08:00.931Z</time></trkpt><trkpt lat="43.2545708" lon="11.3620505"><ele>225.0</ele><time>2026-04-04T10:08:01.925Z</time></trkpt><trkpt lat="43.2544653" lon="11.362147"><ele>223.75</ele><time>2026-04-04T10:08:02.925Z</time></trkpt><trkpt lat="43.2543587" lon="11.3622254"><ele>222.5</ele><time>2026-04-04T10:08:03.923Z</time></trkpt><trkpt lat="43.2542498" lon="11.3622903"><ele>221.25</ele><time>2026-04-04T10:08:04.929Z</time></trkpt><trkpt lat="43.2541347" lon="11.3623408"><ele>220.0</ele><time>2026-04-04T10:08:05.93Z</time></trkpt><trkpt lat="43.2540093" lon="11.3623825"><ele>221.25</ele><time>2026-04-04T10:08:06.933Z</time></trkpt><trkpt lat="43.2538852" lon="11.362401"><ele>222.5</ele><time>2026-04-04T10:08:07.927Z</time></trkpt><trkpt lat="43.2537603" lon="11.3624093"><ele>223.75</ele><time>2026-04-04T10:08:08.934Z</time></trkpt><trkpt lat="43.2536388" lon="11.3624207"><ele>225.0</ele><time>2026-04-04T10:08:09.932Z</time></trkpt><trkpt lat="43.2535011" lon="11.3624472"><ele>225.0</ele><time>2026-04-04T10:08:10.93Z</time></trkpt><trkpt lat="43.2533711" lon="11.3624884"><ele>225.0</ele><time>2026-04-04T10:08:11.933Z</time></trkpt><trkpt lat="43.253236" lon="11.3625305"><ele>225.0</ele><time>2026-04-04T10:08:12.929Z</time></trkpt><trkpt lat="43.2531017" lon="11.3625918"><ele>225.0</ele><time>2026-04-04T10:08:13.923Z</time></trkpt><trkpt lat="43.2529725" lon="11.3626607"><ele>225.75</ele><time>2026-04-04T10:08:14.927Z</time></trkpt><trkpt lat="43.2528473" lon="11.3627216"><ele>226.5</ele><time>2026-04-04T10:08:15.928Z</time></trkpt><trkpt lat="43.2527268" lon="11.362785"><ele>227.25</ele><time>2026-04-04T10:08:16.939Z</time></trkpt><trkpt lat="43.2526174" lon="11.3628451"><ele>228.0</ele><time>2026-04-04T10:08:17.927Z</time></trkpt><trkpt lat="43.2525238" lon="11.3629125"><ele>228.0</ele><time>2026-04-04T10:08:18.93Z</time></trkpt><trkpt lat="43.2524386" lon="11.362981"><ele>228.0</ele><time>2026-04-04T10:08:19.928Z</time></trkpt><trkpt lat="43.2523657" lon="11.363045"><ele>228.0</ele><time>2026-04-04T10:08:20.924Z</time></trkpt><trkpt lat="43.2523076" lon="11.3631189"><ele>228.0</ele><time>2026-04-04T10:08:21.93Z</time></trkpt><trkpt lat="43.2522558" lon="11.3631862"><ele>228.0</ele><time>2026-04-04T10:08:22.929Z</time></trkpt><trkpt lat="43.2521855" lon="11.3632854"><ele>228.0</ele><time>2026-04-04T10:08:24.925Z</time></trkpt><trkpt lat="43.2521228" lon="11.3633566"><ele>228.83333333333334</ele><time>2026-04-04T10:08:26.926Z</time></trkpt><trkpt lat="43.2520581" lon="11.3634049"><ele>229.66666666666669</ele><time>2026-04-04T10:08:28.924Z</time></trkpt><trkpt lat="43.2519838" lon="11.3634644"><ele>230.5</ele><time>2026-04-04T10:08:30.928Z</time></trkpt><trkpt lat="43.2518968" lon="11.3635239"><ele>231.33333333333334</ele><time>2026-04-04T10:08:32.93Z</time></trkpt><trkpt lat="43.251784" lon="11.3635814"><ele>232.16666666666669</ele><time>2026-04-04T10:08:34.924Z</time></trkpt><trkpt lat="43.2517139" lon="11.363603"><ele>233.0</ele><time>2026-04-04T10:08:35.925Z</time></trkpt><trkpt lat="43.2516324" lon="11.3636185"><ele>233.0</ele><time>2026-04-04T10:08:36.924Z</time></trkpt><trkpt lat="43.2515466" lon="11.363617"><ele>233.0</ele><time>2026-04-04T10:08:37.929Z</time></trkpt><trkpt lat="43.2514568" lon="11.3636072"><ele>233.0</ele><time>2026-04-04T10:08:38.927Z</time></trkpt><trkpt lat="43.2513591" lon="11.3635871"><ele>233.0</ele><time>2026-04-04T10:08:39.928Z</time></trkpt><trkpt lat="43.2512636" lon="11.3635593"><ele>233.0</ele><time>2026-04-04T10:08:40.927Z</time></trkpt><trkpt lat="43.2511624" lon="11.3635194"><ele>231.0</ele><time>2026-04-04T10:08:41.932Z</time></trkpt><trkpt lat="43.251054" lon="11.3634678"><ele>229.0</ele><time>2026-04-04T10:08:42.937Z</time></trkpt><trkpt lat="43.2509365" lon="11.3634218"><ele>227.0</ele><time>2026-04-04T10:08:43.928Z</time></trkpt><trkpt lat="43.2508081" lon="11.3633704"><ele>225.0</ele><time>2026-04-04T10:08:44.933Z</time></trkpt><trkpt lat="43.2506797" lon="11.3633207"><ele>224.5</ele><time>2026-04-04T10:08:45.928Z</time></trkpt><trkpt lat="43.2505419" lon="11.3632826"><ele>224.0</ele><time>2026-04-04T10:08:46.925Z</time></trkpt><trkpt lat="43.250396" lon="11.3632453"><ele>223.5</ele><time>2026-04-04T10:08:47.927Z</time></trkpt><trkpt lat="43.2502475" lon="11.3632109"><ele>223.0</ele><time>2026-04-04T10:08:48.927Z</time></trkpt><trkpt lat="43.2500981" lon="11.3631682"><ele>223.0</ele><time>2026-04-04T10:08:49.93Z</time></trkpt><trkpt lat="43.2499564" lon="11.3631287"><ele>223.0</ele><time>2026-04-04T10:08:50.927Z</time></trkpt><trkpt lat="43.2498251" lon="11.3630903"><ele>223.0</ele><time>2026-04-04T10:08:51.933Z</time></trkpt><trkpt lat="43.2496945" lon="11.3630666"><ele>223.0</ele><time>2026-04-04T10:08:52.939Z</time></trkpt><trkpt lat="43.2495679" lon="11.3630699"><ele>224.25</ele><time>2026-04-04T10:08:53.928Z</time></trkpt><trkpt lat="43.249448" lon="11.3630954"><ele>225.5</ele><time>2026-04-04T10:08:54.923Z</time></trkpt><trkpt lat="43.2493252" lon="11.3631492"><ele>226.75</ele><time>2026-04-04T10:08:55.939Z</time></trkpt><trkpt lat="43.2492103" lon="11.3632228"><ele>228.0</ele><time>2026-04-04T10:08:56.92Z</time></trkpt><trkpt lat="43.249103" lon="11.3633149"><ele>228.0</ele><time>2026-04-04T10:08:57.925Z</time></trkpt><trkpt lat="43.2490062" lon="11.3634196"><ele>228.0</ele><time>2026-04-04T10:08:58.925Z</time></trkpt><trkpt lat="43.2489194" lon="11.3635364"><ele>228.0</ele><time>2026-04-04T10:08:59.929Z</time></trkpt><trkpt lat="43.2488286" lon="11.3636682"><ele>228.0</ele><time>2026-04-04T10:09:00.931Z</time></trkpt><trkpt lat="43.2487375" lon="11.3638048"><ele>227.75</ele><time>2026-04-04T10:09:01.924Z</time></trkpt><trkpt lat="43.2486458" lon="11.3639376"><ele>227.5</ele><time>2026-04-04T10:09:02.922Z</time></trkpt><trkpt lat="43.2485545" lon="11.3640702"><ele>227.25</ele><time>2026-04-04T10:09:03.934Z</time></trkpt><trkpt lat="43.2484728" lon="11.3641868"><ele>227.0</ele><time>2026-04-04T10:09:04.928Z</time></trkpt><trkpt lat="43.2484007" lon="11.3642894"><ele>227.0</ele><time>2026-04-04T10:09:05.924Z</time></trkpt><trkpt lat="43.2483456" lon="11.3643971"><ele>227.0</ele><time>2026-04-04T10:09:06.931Z</time></trkpt><trkpt lat="43.2483031" lon="11.3645105"><ele>227.0</ele><time>2026-04-04T10:09:07.932Z</time></trkpt><trkpt lat="43.248276" lon="11.364648"><ele>227.0</ele><time>2026-04-04T10:09:08.925Z</time></trkpt><trkpt lat="43.2482618" lon="11.3647957"><ele>227.0</ele><time>2026-04-04T10:09:09.927Z</time></trkpt><trkpt lat="43.2482532" lon="11.3649412"><ele>226.6</ele><time>2026-04-04T10:09:10.925Z</time></trkpt><trkpt lat="43.2482504" lon="11.3650891"><ele>226.2</ele><time>2026-04-04T10:09:11.935Z</time></trkpt><trkpt lat="43.2482392" lon="11.3652248"><ele>225.8</ele><time>2026-04-04T10:09:12.944Z</time></trkpt><trkpt lat="43.2482112" lon="11.3653489"><ele>225.4</ele><time>2026-04-04T10:09:13.936Z</time></trkpt><trkpt lat="43.2481675" lon="11.3654644"><ele>225.0</ele><time>2026-04-04T10:09:14.923Z</time></trkpt><trkpt lat="43.2481126" lon="11.3655678"><ele>224.6</ele><time>2026-04-04T10:09:15.932Z</time></trkpt><trkpt lat="43.2480519" lon="11.3656712"><ele>224.2</ele><time>2026-04-04T10:09:16.923Z</time></trkpt><trkpt lat="43.2479808" lon="11.3657749"><ele>223.8</ele><time>2026-04-04T10:09:17.934Z</time></trkpt><trkpt lat="43.247907" lon="11.3658657"><ele>223.4</ele><time>2026-04-04T10:09:18.921Z</time></trkpt><trkpt lat="43.247825" lon="11.365937"><ele>223.0</ele><time>2026-04-04T10:09:19.933Z</time></trkpt><trkpt lat="43.2477278" lon="11.3659987"><ele>223.0</ele><time>2026-04-04T10:09:20.927Z</time></trkpt><trkpt lat="43.2476255" lon="11.3660418"><ele>223.0</ele><time>2026-04-04T10:09:21.929Z</time></trkpt><trkpt lat="43.2475191" lon="11.3660672"><ele>223.0</ele><time>2026-04-04T10:09:22.932Z</time></trkpt><trkpt lat="43.2474019" lon="11.3661034"><ele>223.0</ele><time>2026-04-04T10:09:23.927Z</time></trkpt><trkpt lat="43.2472837" lon="11.3661275"><ele>222.5</ele><time>2026-04-04T10:09:24.922Z</time></trkpt><trkpt lat="43.2471584" lon="11.366155"><ele>222.0</ele><time>2026-04-04T10:09:25.922Z</time></trkpt><trkpt lat="43.2470346" lon="11.3661935"><ele>221.5</ele><time>2026-04-04T10:09:26.927Z</time></trkpt><trkpt lat="43.2469086" lon="11.3662371"><ele>221.0</ele><time>2026-04-04T10:09:27.931Z</time></trkpt><trkpt lat="43.2467832" lon="11.3662901"><ele>221.0</ele><time>2026-04-04T10:09:28.919Z</time></trkpt><trkpt lat="43.2466552" lon="11.3663494"><ele>221.0</ele><time>2026-04-04T10:09:29.93Z</time></trkpt><trkpt lat="43.24653" lon="11.3664077"><ele>221.0</ele><time>2026-04-04T10:09:30.925Z</time></trkpt><trkpt lat="43.2464123" lon="11.3664625"><ele>221.0</ele><time>2026-04-04T10:09:31.925Z</time></trkpt><trkpt lat="43.246308" lon="11.3665368"><ele>221.75</ele><time>2026-04-04T10:09:32.926Z</time></trkpt><trkpt lat="43.246209" lon="11.3666149"><ele>222.5</ele><time>2026-04-04T10:09:33.921Z</time></trkpt><trkpt lat="43.2461145" lon="11.3667145"><ele>223.25</ele><time>2026-04-04T10:09:34.927Z</time></trkpt><trkpt lat="43.2460182" lon="11.3668156"><ele>224.0</ele><time>2026-04-04T10:09:35.92Z</time></trkpt><trkpt lat="43.2459179" lon="11.3669307"><ele>224.0</ele><time>2026-04-04T10:09:36.927Z</time></trkpt><trkpt lat="43.2458094" lon="11.3670488"><ele>224.0</ele><time>2026-04-04T10:09:37.929Z</time></trkpt><trkpt lat="43.2456918" lon="11.3671591"><ele>224.0</ele><time>2026-04-04T10:09:38.92Z</time></trkpt><trkpt lat="43.2455588" lon="11.3672607"><ele>224.0</ele><time>2026-04-04T10:09:39.919Z</time></trkpt><trkpt lat="43.245407" lon="11.3673474"><ele>222.66666666666669</ele><time>2026-04-04T10:09:40.932Z</time></trkpt><trkpt lat="43.2452412" lon="11.3674219"><ele>221.33333333333331</ele><time>2026-04-04T10:09:41.925Z</time></trkpt><trkpt lat="43.2450708" lon="11.3674804"><ele>220.0</ele><time>2026-04-04T10:09:42.925Z</time></trkpt><trkpt lat="43.2448949" lon="11.3675326"><ele>221.0</ele><time>2026-04-04T10:09:43.928Z</time></trkpt><trkpt lat="43.2447289" lon="11.3675811"><ele>222.0</ele><time>2026-04-04T10:09:44.933Z</time></trkpt><trkpt lat="43.2445758" lon="11.3676277"><ele>223.0</ele><time>2026-04-04T10:09:45.929Z</time></trkpt><trkpt lat="43.2444336" lon="11.3676691"><ele>223.0</ele><time>2026-04-04T10:09:46.919Z</time></trkpt><trkpt lat="43.2442966" lon="11.367713"><ele>223.0</ele><time>2026-04-04T10:09:47.922Z</time></trkpt><trkpt lat="43.2441595" lon="11.3677614"><ele>223.0</ele><time>2026-04-04T10:09:48.923Z</time></trkpt><trkpt lat="43.244029" lon="11.3678082"><ele>223.0</ele><time>2026-04-04T10:09:49.931Z</time></trkpt><trkpt lat="43.2439016" lon="11.3678517"><ele>223.75</ele><time>2026-04-04T10:09:50.925Z</time></trkpt><trkpt lat="43.2437801" lon="11.3678945"><ele>224.5</ele><time>2026-04-04T10:09:51.941Z</time></trkpt><trkpt lat="43.2436608" lon="11.3679276"><ele>225.25</ele><time>2026-04-04T10:09:52.926Z</time></trkpt><trkpt lat="43.2435338" lon="11.3679566"><ele>226.0</ele><time>2026-04-04T10:09:53.924Z</time></trkpt><trkpt lat="43.2434009" lon="11.3679777"><ele>226.0</ele><time>2026-04-04T10:09:54.927Z</time></trkpt><trkpt lat="43.243263" lon="11.3680051"><ele>226.0</ele><time>2026-04-04T10:09:55.928Z</time></trkpt><trkpt lat="43.2431203" lon="11.3680416"><ele>226.0</ele><time>2026-04-04T10:09:56.926Z</time></trkpt><trkpt lat="43.2429845" lon="11.3680926"><ele>226.0</ele><time>2026-04-04T10:09:57.922Z</time></trkpt><trkpt lat="43.2428585" lon="11.3681636"><ele>225.0</ele><time>2026-04-04T10:09:58.929Z</time></trkpt><trkpt lat="43.2427379" lon="11.368241"><ele>224.0</ele><time>2026-04-04T10:09:59.919Z</time></trkpt><trkpt lat="43.2426262" lon="11.3683326"><ele>223.0</ele><time>2026-04-04T10:10:00.927Z</time></trkpt><trkpt lat="43.2425118" lon="11.3684468"><ele>222.0</ele><time>2026-04-04T10:10:01.928Z</time></trkpt><trkpt lat="43.242394" lon="11.3685821"><ele>222.33333333333331</ele><time>2026-04-04T10:10:02.921Z</time></trkpt><trkpt lat="43.2422826" lon="11.3687296"><ele>222.66666666666666</ele><time>2026-04-04T10:10:03.928Z</time></trkpt><trkpt lat="43.2421704" lon="11.3688808"><ele>223.0</ele><time>2026-04-04T10:10:04.931Z</time></trkpt><trkpt lat="43.242061" lon="11.3690337"><ele>222.0</ele><time>2026-04-04T10:10:05.924Z</time></trkpt><trkpt lat="43.2419505" lon="11.3691809"><ele>221.0</ele><time>2026-04-04T10:10:06.924Z</time></trkpt><trkpt lat="43.2418351" lon="11.3693281"><ele>220.0</ele><time>2026-04-04T10:10:07.933Z</time></trkpt><trkpt lat="43.2417159" lon="11.3694771"><ele>220.0</ele><time>2026-04-04T10:10:08.926Z</time></trkpt><trkpt lat="43.2415898" lon="11.3696222"><ele>220.0</ele><time>2026-04-04T10:10:09.924Z</time></trkpt><trkpt lat="43.2414574" lon="11.3697709"><ele>220.0</ele><time>2026-04-04T10:10:10.927Z</time></trkpt><trkpt lat="43.2413162" lon="11.3699192"><ele>218.33333333333331</ele><time>2026-04-04T10:10:11.927Z</time></trkpt><trkpt lat="43.2411665" lon="11.370065"><ele>216.66666666666669</ele><time>2026-04-04T10:10:12.919Z</time></trkpt><trkpt lat="43.2410217" lon="11.3701946"><ele>215.0</ele><time>2026-04-04T10:10:13.92Z</time></trkpt><trkpt lat="43.2408829" lon="11.3703114"><ele>215.0</ele><time>2026-04-04T10:10:14.925Z</time></trkpt><trkpt lat="43.2407556" lon="11.3704233"><ele>215.0</ele><time>2026-04-04T10:10:15.921Z</time></trkpt><trkpt lat="43.2406384" lon="11.370541"><ele>215.0</ele><time>2026-04-04T10:10:16.926Z</time></trkpt><trkpt lat="43.2405386" lon="11.3706715"><ele>215.0</ele><time>2026-04-04T10:10:17.933Z</time></trkpt><trkpt lat="43.240442" lon="11.3708201"><ele>215.66666666666669</ele><time>2026-04-04T10:10:18.919Z</time></trkpt><trkpt lat="43.2403392" lon="11.3709731"><ele>216.33333333333331</ele><time>2026-04-04T10:10:19.93Z</time></trkpt><trkpt lat="43.2402403" lon="11.3711445"><ele>217.0</ele><time>2026-04-04T10:10:20.923Z</time></trkpt><trkpt lat="43.2401375" lon="11.371327"><ele>216.0</ele><time>2026-04-04T10:10:21.923Z</time></trkpt><trkpt lat="43.2400374" lon="11.3715173"><ele>215.0</ele><time>2026-04-04T10:10:22.925Z</time></trkpt><trkpt lat="43.2399366" lon="11.3717155"><ele>214.0</ele><time>2026-04-04T10:10:23.927Z</time></trkpt><trkpt lat="43.2398423" lon="11.3719043"><ele>213.75</ele><time>2026-04-04T10:10:24.923Z</time></trkpt><trkpt lat="43.2397538" lon="11.3720824"><ele>213.5</ele><time>2026-04-04T10:10:25.929Z</time></trkpt><trkpt lat="43.2396773" lon="11.3722353"><ele>213.25</ele><time>2026-04-04T10:10:26.922Z</time></trkpt><trkpt lat="43.2396178" lon="11.3723682"><ele>213.0</ele><time>2026-04-04T10:10:27.924Z</time></trkpt><trkpt lat="43.2395596" lon="11.3724839"><ele>213.0</ele><time>2026-04-04T10:10:28.929Z</time></trkpt><trkpt lat="43.2394892" lon="11.3725752"><ele>213.0</ele><time>2026-04-04T10:10:29.932Z</time></trkpt><trkpt lat="43.2394112" lon="11.3726408"><ele>213.0</ele><time>2026-04-04T10:10:30.927Z</time></trkpt><trkpt lat="43.2393234" lon="11.3726735"><ele>213.0</ele><time>2026-04-04T10:10:31.924Z</time></trkpt><trkpt lat="43.2392235" lon="11.3726884"><ele>213.0</ele><time>2026-04-04T10:10:32.92Z</time></trkpt><trkpt lat="43.2391173" lon="11.3726937"><ele>213.0</ele><time>2026-04-04T10:10:33.922Z</time></trkpt><trkpt lat="43.2389932" lon="11.3726971"><ele>213.0</ele><time>2026-04-04T10:10:34.927Z</time></trkpt><trkpt lat="43.238871" lon="11.372705"><ele>213.0</ele><time>2026-04-04T10:10:35.928Z</time></trkpt><trkpt lat="43.2387413" lon="11.3727374"><ele>213.0</ele><time>2026-04-04T10:10:36.93Z</time></trkpt><trkpt lat="43.2386233" lon="11.3727868"><ele>213.0</ele><time>2026-04-04T10:10:37.929Z</time></trkpt><trkpt lat="43.2385072" lon="11.3728539"><ele>213.0</ele><time>2026-04-04T10:10:38.933Z</time></trkpt><trkpt lat="43.2384114" lon="11.3729226"><ele>213.0</ele><time>2026-04-04T10:10:39.919Z</time></trkpt><trkpt lat="43.2383318" lon="11.3729852"><ele>213.0</ele><time>2026-04-04T10:10:40.921Z</time></trkpt><trkpt lat="43.2382772" lon="11.3730743"><ele>213.0</ele><time>2026-04-04T10:10:41.925Z</time></trkpt><trkpt lat="43.2382408" lon="11.3731765"><ele>211.4</ele><time>2026-04-04T10:10:42.928Z</time></trkpt><trkpt lat="43.2382232" lon="11.3732962"><ele>209.8</ele><time>2026-04-04T10:10:43.929Z</time></trkpt><trkpt lat="43.238217" lon="11.3734221"><ele>208.2</ele><time>2026-04-04T10:10:44.921Z</time></trkpt><trkpt lat="43.2382211" lon="11.373555"><ele>206.6</ele><time>2026-04-04T10:10:45.93Z</time></trkpt><trkpt lat="43.2382303" lon="11.3737012"><ele>205.0</ele><time>2026-04-04T10:10:46.929Z</time></trkpt><trkpt lat="43.2382393" lon="11.3738503"><ele>204.75</ele><time>2026-04-04T10:10:47.929Z</time></trkpt><trkpt lat="43.2382471" lon="11.3740035"><ele>204.5</ele><time>2026-04-04T10:10:48.927Z</time></trkpt><trkpt lat="43.2382561" lon="11.3741682"><ele>204.25</ele><time>2026-04-04T10:10:49.926Z</time></trkpt><trkpt lat="43.2382662" lon="11.3743323"><ele>204.0</ele><time>2026-04-04T10:10:50.925Z</time></trkpt><trkpt lat="43.2382749" lon="11.3744989"><ele>204.0</ele><time>2026-04-04T10:10:51.933Z</time></trkpt><trkpt lat="43.2382835" lon="11.3746539"><ele>204.0</ele><time>2026-04-04T10:10:52.921Z</time></trkpt><trkpt lat="43.2382761" lon="11.3747949"><ele>204.0</ele><time>2026-04-04T10:10:53.928Z</time></trkpt><trkpt lat="43.2382535" lon="11.3749136"><ele>204.0</ele><time>2026-04-04T10:10:54.932Z</time></trkpt><trkpt lat="43.2382098" lon="11.3750183"><ele>204.0</ele><time>2026-04-04T10:10:55.929Z</time></trkpt><trkpt lat="43.2381538" lon="11.3751037"><ele>204.0</ele><time>2026-04-04T10:10:56.919Z</time></trkpt><trkpt lat="43.2380902" lon="11.3751823"><ele>204.0</ele><time>2026-04-04T10:10:57.931Z</time></trkpt><trkpt lat="43.2380059" lon="11.375266"><ele>204.0</ele><time>2026-04-04T10:10:58.929Z</time></trkpt><trkpt lat="43.2379088" lon="11.3753613"><ele>204.0</ele><time>2026-04-04T10:10:59.929Z</time></trkpt><trkpt lat="43.2377938" lon="11.3754511"><ele>204.0</ele><time>2026-04-04T10:11:00.928Z</time></trkpt><trkpt lat="43.237675" lon="11.3755607"><ele>202.75</ele><time>2026-04-04T10:11:01.928Z</time></trkpt><trkpt lat="43.2375591" lon="11.3756781"><ele>201.5</ele><time>2026-04-04T10:11:02.922Z</time></trkpt><trkpt lat="43.2374512" lon="11.3758031"><ele>200.25</ele><time>2026-04-04T10:11:03.923Z</time></trkpt><trkpt lat="43.2373476" lon="11.3759254"><ele>199.0</ele><time>2026-04-04T10:11:04.93Z</time></trkpt><trkpt lat="43.2372502" lon="11.3760325"><ele>198.39999999999998</ele><time>2026-04-04T10:11:05.927Z</time></trkpt><trkpt lat="43.2371637" lon="11.3761236"><ele>197.8</ele><time>2026-04-04T10:11:06.921Z</time></trkpt><trkpt lat="43.2370874" lon="11.3762046"><ele>197.2</ele><time>2026-04-04T10:11:07.933Z</time></trkpt><trkpt lat="43.237011" lon="11.3762694"><ele>196.60000000000002</ele><time>2026-04-04T10:11:08.928Z</time></trkpt><trkpt lat="43.2369209" lon="11.3763222"><ele>196.0</ele><time>2026-04-04T10:11:09.936Z</time></trkpt><trkpt lat="43.2368214" lon="11.3763529"><ele>196.0</ele><time>2026-04-04T10:11:10.924Z</time></trkpt><trkpt lat="43.2367195" lon="11.3763577"><ele>196.0</ele><time>2026-04-04T10:11:11.933Z</time></trkpt><trkpt lat="43.2366135" lon="11.3763406"><ele>196.0</ele><time>2026-04-04T10:11:12.929Z</time></trkpt><trkpt lat="43.2365168" lon="11.3763037"><ele>196.0</ele><time>2026-04-04T10:11:13.931Z</time></trkpt><trkpt lat="43.2364292" lon="11.3762522"><ele>196.0</ele><time>2026-04-04T10:11:14.93Z</time></trkpt><trkpt lat="43.2363502" lon="11.3761727"><ele>194.0</ele><time>2026-04-04T10:11:15.932Z</time></trkpt><trkpt lat="43.2362894" lon="11.3760747"><ele>192.0</ele><time>2026-04-04T10:11:16.921Z</time></trkpt><trkpt lat="43.2362426" lon="11.3759615"><ele>190.0</ele><time>2026-04-04T10:11:17.929Z</time></trkpt><trkpt lat="43.2362105" lon="11.3758487"><ele>188.0</ele><time>2026-04-04T10:11:18.926Z</time></trkpt><trkpt lat="43.2361918" lon="11.3757249"><ele>186.0</ele><time>2026-04-04T10:11:19.927Z</time></trkpt><trkpt lat="43.2361841" lon="11.3756037"><ele>185.20000000000002</ele><time>2026-04-04T10:11:20.921Z</time></trkpt><trkpt lat="43.2361838" lon="11.3754832"><ele>184.4</ele><time>2026-04-04T10:11:21.92Z</time></trkpt><trkpt lat="43.2361994" lon="11.3753683"><ele>183.6</ele><time>2026-04-04T10:11:22.924Z</time></trkpt><trkpt lat="43.2362287" lon="11.3752565"><ele>182.8</ele><time>2026-04-04T10:11:23.927Z</time></trkpt><trkpt lat="43.2362696" lon="11.3751411"><ele>182.0</ele><time>2026-04-04T10:11:24.924Z</time></trkpt><trkpt lat="43.2363233" lon="11.3750228"><ele>182.0</ele><time>2026-04-04T10:11:25.928Z</time></trkpt><trkpt lat="43.2363848" lon="11.3749049"><ele>182.0</ele><time>2026-04-04T10:11:26.935Z</time></trkpt><trkpt lat="43.2364339" lon="11.374773"><ele>182.0</ele><time>2026-04-04T10:11:27.928Z</time></trkpt><trkpt lat="43.2364778" lon="11.3746347"><ele>182.0</ele><time>2026-04-04T10:11:28.927Z</time></trkpt><trkpt lat="43.2365029" lon="11.3745151"><ele>182.0</ele><time>2026-04-04T10:11:29.927Z</time></trkpt><trkpt lat="43.2365196" lon="11.3744257"><ele>182.83333333333331</ele><time>2026-04-04T10:11:30.925Z</time></trkpt><trkpt lat="43.2365372" lon="11.3743407"><ele>183.66666666666666</ele><time>2026-04-04T10:11:31.925Z</time></trkpt><trkpt lat="43.2365489" lon="11.3742402"><ele>184.5</ele><time>2026-04-04T10:11:32.923Z</time></trkpt><trkpt lat="43.2365674" lon="11.3741217"><ele>185.33333333333334</ele><time>2026-04-04T10:11:33.927Z</time></trkpt><trkpt lat="43.2365739" lon="11.3739958"><ele>186.16666666666669</ele><time>2026-04-04T10:11:34.925Z</time></trkpt><trkpt lat="43.2365604" lon="11.3738663"><ele>187.0</ele><time>2026-04-04T10:11:35.925Z</time></trkpt><trkpt lat="43.2365424" lon="11.3737494"><ele>187.0</ele><time>2026-04-04T10:11:36.925Z</time></trkpt><trkpt lat="43.236507" lon="11.373641"><ele>187.0</ele><time>2026-04-04T10:11:37.917Z</time></trkpt><trkpt lat="43.236445" lon="11.3735508"><ele>187.0</ele><time>2026-04-04T10:11:38.917Z</time></trkpt><trkpt lat="43.2363698" lon="11.3734867"><ele>187.0</ele><time>2026-04-04T10:11:39.924Z</time></trkpt><trkpt lat="43.236287" lon="11.3734403"><ele>187.0</ele><time>2026-04-04T10:11:40.921Z</time></trkpt><trkpt lat="43.2361918" lon="11.373413"><ele>185.75</ele><time>2026-04-04T10:11:41.94Z</time></trkpt><trkpt lat="43.2360833" lon="11.3734108"><ele>184.5</ele><time>2026-04-04T10:11:42.926Z</time></trkpt><trkpt lat="43.235962" lon="11.3734186"><ele>183.25</ele><time>2026-04-04T10:11:43.925Z</time></trkpt><trkpt lat="43.2358303" lon="11.3734346"><ele>182.0</ele><time>2026-04-04T10:11:44.924Z</time></trkpt><trkpt lat="43.2356893" lon="11.3734433"><ele>180.33333333333331</ele><time>2026-04-04T10:11:45.931Z</time></trkpt><trkpt lat="43.2355337" lon="11.373461"><ele>178.66666666666666</ele><time>2026-04-04T10:11:46.923Z</time></trkpt><trkpt lat="43.2353682" lon="11.3734795"><ele>177.0</ele><time>2026-04-04T10:11:47.933Z</time></trkpt><trkpt lat="43.2351975" lon="11.3734986"><ele>177.0</ele><time>2026-04-04T10:11:48.934Z</time></trkpt><trkpt lat="43.235023" lon="11.3735154"><ele>177.0</ele><time>2026-04-04T10:11:49.928Z</time></trkpt><trkpt lat="43.2348402" lon="11.3735299"><ele>177.0</ele><time>2026-04-04T10:11:50.921Z</time></trkpt><trkpt lat="43.2346535" lon="11.3735467"><ele>177.33333333333334</ele><time>2026-04-04T10:11:51.928Z</time></trkpt><trkpt lat="43.2344756" lon="11.3735603"><ele>177.66666666666669</ele><time>2026-04-04T10:11:52.923Z</time></trkpt><trkpt lat="43.2343094" lon="11.3735769"><ele>178.0</ele><time>2026-04-04T10:11:53.93Z</time></trkpt><trkpt lat="43.2341574" lon="11.3735848"><ele>178.0</ele><time>2026-04-04T10:11:54.925Z</time></trkpt><trkpt lat="43.2340194" lon="11.3735949"><ele>178.0</ele><time>2026-04-04T10:11:55.925Z</time></trkpt><trkpt lat="43.2338882" lon="11.3736187"><ele>178.0</ele><time>2026-04-04T10:11:56.928Z</time></trkpt><trkpt lat="43.2337571" lon="11.3736575"><ele>178.0</ele><time>2026-04-04T10:11:57.926Z</time></trkpt><trkpt lat="43.2336157" lon="11.3737203"><ele>178.33333333333334</ele><time>2026-04-04T10:11:58.918Z</time></trkpt><trkpt lat="43.2334748" lon="11.3738054"><ele>178.66666666666666</ele><time>2026-04-04T10:11:59.93Z</time></trkpt><trkpt lat="43.2333235" lon="11.3739077"><ele>179.0</ele><time>2026-04-04T10:12:00.922Z</time></trkpt><trkpt lat="43.2331679" lon="11.374017"><ele>179.0</ele><time>2026-04-04T10:12:01.925Z</time></trkpt><trkpt lat="43.2330028" lon="11.374134"><ele>179.0</ele><time>2026-04-04T10:12:02.918Z</time></trkpt><trkpt lat="43.2328261" lon="11.37425"><ele>179.0</ele><time>2026-04-04T10:12:03.923Z</time></trkpt><trkpt lat="43.2326438" lon="11.374373"><ele>179.0</ele><time>2026-04-04T10:12:04.931Z</time></trkpt><trkpt lat="43.2324622" lon="11.3745001"><ele>179.0</ele><time>2026-04-04T10:12:05.923Z</time></trkpt><trkpt lat="43.2322808" lon="11.3746276"><ele>179.0</ele><time>2026-04-04T10:12:06.935Z</time></trkpt><trkpt lat="43.2320978" lon="11.3747544"><ele>179.0</ele><time>2026-04-04T10:12:07.92Z</time></trkpt><trkpt lat="43.2319056" lon="11.3748863"><ele>179.0</ele><time>2026-04-04T10:12:08.927Z</time></trkpt><trkpt lat="43.2317147" lon="11.3750203"><ele>179.0</ele><time>2026-04-04T10:12:09.934Z</time></trkpt><trkpt lat="43.2315199" lon="11.3751555"><ele>181.5</ele><time>2026-04-04T10:12:10.93Z</time></trkpt><trkpt lat="43.2313212" lon="11.3753038"><ele>184.0</ele><time>2026-04-04T10:12:11.935Z</time></trkpt><trkpt lat="43.2311171" lon="11.3754442"><ele>181.5</ele><time>2026-04-04T10:12:12.921Z</time></trkpt><trkpt lat="43.2309139" lon="11.3755932"><ele>179.0</ele><time>2026-04-04T10:12:13.931Z</time></trkpt><trkpt lat="43.2307123" lon="11.3757382"><ele>180.66666666666666</ele><time>2026-04-04T10:12:14.935Z</time></trkpt><trkpt lat="43.2305211" lon="11.3758785"><ele>182.33333333333334</ele><time>2026-04-04T10:12:15.924Z</time></trkpt><trkpt lat="43.2303396" lon="11.3760136"><ele>184.0</ele><time>2026-04-04T10:12:16.93Z</time></trkpt><trkpt lat="43.2301671" lon="11.3761341"><ele>184.0</ele><time>2026-04-04T10:12:17.921Z</time></trkpt><trkpt lat="43.2300065" lon="11.3762491"><ele>184.0</ele><time>2026-04-04T10:12:18.922Z</time></trkpt><trkpt lat="43.2298545" lon="11.3763647"><ele>184.0</ele><time>2026-04-04T10:12:19.923Z</time></trkpt><trkpt lat="43.2297098" lon="11.3764745"><ele>184.66666666666669</ele><time>2026-04-04T10:12:20.922Z</time></trkpt><trkpt lat="43.229569" lon="11.3765812"><ele>185.33333333333334</ele><time>2026-04-04T10:12:21.92Z</time></trkpt><trkpt lat="43.2294355" lon="11.376688"><ele>186.0</ele><time>2026-04-04T10:12:22.919Z</time></trkpt><trkpt lat="43.2293153" lon="11.3767987"><ele>186.0</ele><time>2026-04-04T10:12:23.932Z</time></trkpt><trkpt lat="43.2291979" lon="11.3768988"><ele>186.0</ele><time>2026-04-04T10:12:24.926Z</time></trkpt><trkpt lat="43.229081" lon="11.3769901"><ele>186.0</ele><time>2026-04-04T10:12:25.92Z</time></trkpt><trkpt lat="43.2289627" lon="11.3770691"><ele>186.0</ele><time>2026-04-04T10:12:26.927Z</time></trkpt><trkpt lat="43.2288432" lon="11.3771382"><ele>184.0</ele><time>2026-04-04T10:12:27.923Z</time></trkpt><trkpt lat="43.2287155" lon="11.3771973"><ele>182.0</ele><time>2026-04-04T10:12:28.934Z</time></trkpt><trkpt lat="43.2285794" lon="11.3772339"><ele>180.0</ele><time>2026-04-04T10:12:29.931Z</time></trkpt><trkpt lat="43.2284381" lon="11.377261"><ele>178.0</ele><time>2026-04-04T10:12:30.925Z</time></trkpt><trkpt lat="43.2282934" lon="11.3772723"><ele>178.0</ele><time>2026-04-04T10:12:31.931Z</time></trkpt><trkpt lat="43.228145" lon="11.3772877"><ele>178.0</ele><time>2026-04-04T10:12:32.933Z</time></trkpt><trkpt lat="43.2279942" lon="11.3773008"><ele>178.0</ele><time>2026-04-04T10:12:33.929Z</time></trkpt><trkpt lat="43.227847" lon="11.3773136"><ele>178.0</ele><time>2026-04-04T10:12:34.923Z</time></trkpt><trkpt lat="43.2277036" lon="11.3773142"><ele>178.0</ele><time>2026-04-04T10:12:35.933Z</time></trkpt><trkpt lat="43.2275617" lon="11.377317"><ele>178.0</ele><time>2026-04-04T10:12:36.925Z</time></trkpt><trkpt lat="43.2274253" lon="11.377309"><ele>178.0</ele><time>2026-04-04T10:12:37.927Z</time></trkpt><trkpt lat="43.2272876" lon="11.3772839"><ele>178.0</ele><time>2026-04-04T10:12:38.927Z</time></trkpt><trkpt lat="43.2271502" lon="11.3772378"><ele>178.75</ele><time>2026-04-04T10:12:39.932Z</time></trkpt><trkpt lat="43.2270171" lon="11.3771632"><ele>179.5</ele><time>2026-04-04T10:12:40.922Z</time></trkpt><trkpt lat="43.2268852" lon="11.3770808"><ele>180.25</ele><time>2026-04-04T10:12:41.925Z</time></trkpt><trkpt lat="43.226758" lon="11.3769866"><ele>181.0</ele><time>2026-04-04T10:12:42.921Z</time></trkpt><trkpt lat="43.2266412" lon="11.3768826"><ele>181.0</ele><time>2026-04-04T10:12:43.921Z</time></trkpt><trkpt lat="43.2265269" lon="11.3767726"><ele>181.0</ele><time>2026-04-04T10:12:44.93Z</time></trkpt><trkpt lat="43.2264177" lon="11.3766457"><ele>181.0</ele><time>2026-04-04T10:12:45.928Z</time></trkpt><trkpt lat="43.2263216" lon="11.3765009"><ele>181.0</ele><time>2026-04-04T10:12:46.927Z</time></trkpt><trkpt lat="43.2262401" lon="11.3763508"><ele>180.5</ele><time>2026-04-04T10:12:47.932Z</time></trkpt><trkpt lat="43.2261711" lon="11.3761916"><ele>180.0</ele><time>2026-04-04T10:12:48.924Z</time></trkpt><trkpt lat="43.2261178" lon="11.3760199"><ele>179.5</ele><time>2026-04-04T10:12:49.932Z</time></trkpt><trkpt lat="43.2260727" lon="11.3758487"><ele>179.0</ele><time>2026-04-04T10:12:50.931Z</time></trkpt><trkpt lat="43.2260355" lon="11.3756795"><ele>178.75</ele><time>2026-04-04T10:12:51.923Z</time></trkpt><trkpt lat="43.2260208" lon="11.3755182"><ele>178.5</ele><time>2026-04-04T10:12:52.927Z</time></trkpt><trkpt lat="43.2260194" lon="11.3753466"><ele>178.25</ele><time>2026-04-04T10:12:53.927Z</time></trkpt><trkpt lat="43.2260217" lon="11.3751656"><ele>178.0</ele><time>2026-04-04T10:12:54.93Z</time></trkpt><trkpt lat="43.2260354" lon="11.3749743"><ele>178.0</ele><time>2026-04-04T10:12:55.92Z</time></trkpt><trkpt lat="43.2260546" lon="11.3747704"><ele>178.0</ele><time>2026-04-04T10:12:56.929Z</time></trkpt><trkpt lat="43.2260827" lon="11.3745669"><ele>178.0</ele><time>2026-04-04T10:12:57.928Z</time></trkpt><trkpt lat="43.2261039" lon="11.3743667"><ele>178.0</ele><time>2026-04-04T10:12:58.924Z</time></trkpt><trkpt lat="43.2261163" lon="11.3741789"><ele>178.0</ele><time>2026-04-04T10:12:59.922Z</time></trkpt><trkpt lat="43.2261232" lon="11.3740013"><ele>178.0</ele><time>2026-04-04T10:13:00.933Z</time></trkpt><trkpt lat="43.2261196" lon="11.3738294"><ele>178.0</ele><time>2026-04-04T10:13:01.923Z</time></trkpt><trkpt lat="43.2261002" lon="11.3736569"><ele>178.0</ele><time>2026-04-04T10:13:02.928Z</time></trkpt><trkpt lat="43.2260714" lon="11.3734893"><ele>178.0</ele><time>2026-04-04T10:13:03.935Z</time></trkpt><trkpt lat="43.2260296" lon="11.3733261"><ele>178.0</ele><time>2026-04-04T10:13:04.923Z</time></trkpt><trkpt lat="43.2259806" lon="11.373173"><ele>178.0</ele><time>2026-04-04T10:13:05.925Z</time></trkpt><trkpt lat="43.225933" lon="11.373024"><ele>178.0</ele><time>2026-04-04T10:13:06.926Z</time></trkpt><trkpt lat="43.2258889" lon="11.3728831"><ele>178.66666666666669</ele><time>2026-04-04T10:13:07.934Z</time></trkpt><trkpt lat="43.2258525" lon="11.3727609"><ele>179.33333333333334</ele><time>2026-04-04T10:13:08.925Z</time></trkpt><trkpt lat="43.2258157" lon="11.3726347"><ele>180.0</ele><time>2026-04-04T10:13:09.932Z</time></trkpt><trkpt lat="43.2257785" lon="11.3725184"><ele>180.66666666666666</ele><time>2026-04-04T10:13:10.92Z</time></trkpt><trkpt lat="43.225742" lon="11.3724198"><ele>181.33333333333331</ele><time>2026-04-04T10:13:11.929Z</time></trkpt><trkpt lat="43.2257077" lon="11.3723399"><ele>182.0</ele><time>2026-04-04T10:13:12.924Z</time></trkpt><trkpt lat="43.2256656" lon="11.3722744"><ele>181.8</ele><time>2026-04-04T10:13:13.924Z</time></trkpt><trkpt lat="43.2255606" lon="11.3721873"><ele>181.6</ele><time>2026-04-04T10:13:15.923Z</time></trkpt><trkpt lat="43.2254426" lon="11.3721868"><ele>181.4</ele><time>2026-04-04T10:13:17.923Z</time></trkpt><trkpt lat="43.2253498" lon="11.372276"><ele>181.20000000000002</ele><time>2026-04-04T10:13:19.929Z</time></trkpt><trkpt lat="43.2253117" lon="11.3723487"><ele>181.0</ele><time>2026-04-04T10:13:20.92Z</time></trkpt><trkpt lat="43.2252705" lon="11.3724571"><ele>180.75</ele><time>2026-04-04T10:13:21.925Z</time></trkpt><trkpt lat="43.2252199" lon="11.3725711"><ele>180.5</ele><time>2026-04-04T10:13:22.919Z</time></trkpt><trkpt lat="43.2251681" lon="11.3727059"><ele>180.25</ele><time>2026-04-04T10:13:23.939Z</time></trkpt><trkpt lat="43.225105" lon="11.3728573"><ele>180.0</ele><time>2026-04-04T10:13:24.934Z</time></trkpt><trkpt lat="43.2250467" lon="11.3730041"><ele>180.0</ele><time>2026-04-04T10:13:25.924Z</time></trkpt><trkpt lat="43.2249802" lon="11.3731334"><ele>180.0</ele><time>2026-04-04T10:13:26.924Z</time></trkpt><trkpt lat="43.2249075" lon="11.3732442"><ele>180.0</ele><time>2026-04-04T10:13:27.933Z</time></trkpt><trkpt lat="43.2248287" lon="11.3733357"><ele>180.0</ele><time>2026-04-04T10:13:28.925Z</time></trkpt><trkpt lat="43.2247422" lon="11.3734111"><ele>180.0</ele><time>2026-04-04T10:13:29.928Z</time></trkpt><trkpt lat="43.2246496" lon="11.3734647"><ele>181.6</ele><time>2026-04-04T10:13:30.929Z</time></trkpt><trkpt lat="43.2245486" lon="11.3735027"><ele>183.2</ele><time>2026-04-04T10:13:31.921Z</time></trkpt><trkpt lat="43.2244495" lon="11.3735265"><ele>184.8</ele><time>2026-04-04T10:13:32.917Z</time></trkpt><trkpt lat="43.2243509" lon="11.3735351"><ele>186.4</ele><time>2026-04-04T10:13:33.932Z</time></trkpt><trkpt lat="43.2242439" lon="11.373522"><ele>188.0</ele><time>2026-04-04T10:13:34.918Z</time></trkpt><trkpt lat="43.2241506" lon="11.3734849"><ele>188.0</ele><time>2026-04-04T10:13:35.928Z</time></trkpt><trkpt lat="43.2240523" lon="11.3734406"><ele>188.0</ele><time>2026-04-04T10:13:36.925Z</time></trkpt><trkpt lat="43.2239582" lon="11.3733814"><ele>188.0</ele><time>2026-04-04T10:13:37.924Z</time></trkpt><trkpt lat="43.2238743" lon="11.3733081"><ele>188.0</ele><time>2026-04-04T10:13:38.929Z</time></trkpt><trkpt lat="43.2237972" lon="11.3732197"><ele>188.0</ele><time>2026-04-04T10:13:39.926Z</time></trkpt><trkpt lat="43.2237328" lon="11.3731245"><ele>191.60000000000002</ele><time>2026-04-04T10:13:40.935Z</time></trkpt><trkpt lat="43.2236738" lon="11.3730055"><ele>195.20000000000002</ele><time>2026-04-04T10:13:41.92Z</time></trkpt><trkpt lat="43.2236195" lon="11.3728842"><ele>198.8</ele><time>2026-04-04T10:13:42.931Z</time></trkpt><trkpt lat="43.2235884" lon="11.372767"><ele>202.4</ele><time>2026-04-04T10:13:43.932Z</time></trkpt><trkpt lat="43.2235691" lon="11.3726516"><ele>206.0</ele><time>2026-04-04T10:13:44.926Z</time></trkpt><trkpt lat="43.2235603" lon="11.3725379"><ele>206.0</ele><time>2026-04-04T10:13:45.929Z</time></trkpt><trkpt lat="43.2235749" lon="11.3724218"><ele>206.0</ele><time>2026-04-04T10:13:46.925Z</time></trkpt><trkpt lat="43.2235978" lon="11.3723001"><ele>206.0</ele><time>2026-04-04T10:13:47.928Z</time></trkpt><trkpt lat="43.2236169" lon="11.3721698"><ele>206.0</ele><time>2026-04-04T10:13:48.928Z</time></trkpt><trkpt lat="43.2236326" lon="11.3720441"><ele>206.0</ele><time>2026-04-04T10:13:49.926Z</time></trkpt><trkpt lat="43.2236408" lon="11.3719072"><ele>206.00000000000003</ele><time>2026-04-04T10:13:50.929Z</time></trkpt><trkpt lat="43.2236375" lon="11.3717848"><ele>206.0</ele><time>2026-04-04T10:13:51.922Z</time></trkpt><trkpt lat="43.2236194" lon="11.3716656"><ele>206.0</ele><time>2026-04-04T10:13:52.929Z</time></trkpt><trkpt lat="43.2235795" lon="11.3715693"><ele>206.0</ele><time>2026-04-04T10:13:53.92Z</time></trkpt><trkpt lat="43.2235186" lon="11.3714725"><ele>206.00000000000003</ele><time>2026-04-04T10:13:54.929Z</time></trkpt><trkpt lat="43.2234518" lon="11.3713778"><ele>206.0</ele><time>2026-04-04T10:13:55.925Z</time></trkpt><trkpt lat="43.2233829" lon="11.3712877"><ele>205.33333333333334</ele><time>2026-04-04T10:13:56.928Z</time></trkpt><trkpt lat="43.2233125" lon="11.3712136"><ele>204.66666666666669</ele><time>2026-04-04T10:13:57.929Z</time></trkpt><trkpt lat="43.2232446" lon="11.3711699"><ele>204.0</ele><time>2026-04-04T10:13:58.923Z</time></trkpt><trkpt lat="43.2231745" lon="11.3711593"><ele>203.33333333333331</ele><time>2026-04-04T10:13:59.934Z</time></trkpt><trkpt lat="43.2230942" lon="11.3711699"><ele>202.66666666666666</ele><time>2026-04-04T10:14:00.924Z</time></trkpt><trkpt lat="43.223032" lon="11.3712029"><ele>202.0</ele><time>2026-04-04T10:14:01.926Z</time></trkpt><trkpt lat="43.2229711" lon="11.371255"><ele>201.8</ele><time>2026-04-04T10:14:02.93Z</time></trkpt><trkpt lat="43.2229149" lon="11.3713254"><ele>201.6</ele><time>2026-04-04T10:14:03.929Z</time></trkpt><trkpt lat="43.2228574" lon="11.3714203"><ele>201.4</ele><time>2026-04-04T10:14:04.929Z</time></trkpt><trkpt lat="43.2227958" lon="11.3715205"><ele>201.20000000000002</ele><time>2026-04-04T10:14:05.923Z</time></trkpt><trkpt lat="43.2227348" lon="11.3716237"><ele>201.0</ele><time>2026-04-04T10:14:06.928Z</time></trkpt><trkpt lat="43.222671" lon="11.3717194"><ele>202.4</ele><time>2026-04-04T10:14:07.931Z</time></trkpt><trkpt lat="43.2226123" lon="11.3718227"><ele>203.8</ele><time>2026-04-04T10:14:08.935Z</time></trkpt><trkpt lat="43.2225514" lon="11.3719243"><ele>205.20000000000002</ele><time>2026-04-04T10:14:09.934Z</time></trkpt><trkpt lat="43.2224788" lon="11.3720339"><ele>206.60000000000002</ele><time>2026-04-04T10:14:10.925Z</time></trkpt><trkpt lat="43.2223989" lon="11.3721434"><ele>208.0</ele><time>2026-04-04T10:14:11.938Z</time></trkpt><trkpt lat="43.2223121" lon="11.3722595"><ele>211.25</ele><time>2026-04-04T10:14:12.928Z</time></trkpt><trkpt lat="43.2222139" lon="11.3723695"><ele>214.5</ele><time>2026-04-04T10:14:13.938Z</time></trkpt><trkpt lat="43.2221131" lon="11.3724704"><ele>217.75</ele><time>2026-04-04T10:14:14.923Z</time></trkpt><trkpt lat="43.2219995" lon="11.3725582"><ele>221.0</ele><time>2026-04-04T10:14:15.929Z</time></trkpt><trkpt lat="43.2218774" lon="11.3726205"><ele>221.0</ele><time>2026-04-04T10:14:16.932Z</time></trkpt><trkpt lat="43.221752" lon="11.3726592"><ele>221.0</ele><time>2026-04-04T10:14:17.938Z</time></trkpt><trkpt lat="43.221629" lon="11.3726896"><ele>221.0</ele><time>2026-04-04T10:14:18.93Z</time></trkpt><trkpt lat="43.2214983" lon="11.3727152"><ele>221.0</ele><time>2026-04-04T10:14:19.93Z</time></trkpt><trkpt lat="43.2213678" lon="11.3727391"><ele>222.5</ele><time>2026-04-04T10:14:20.927Z</time></trkpt><trkpt lat="43.2212268" lon="11.3727775"><ele>224.0</ele><time>2026-04-04T10:14:21.927Z</time></trkpt><trkpt lat="43.2210883" lon="11.3728064"><ele>225.5</ele><time>2026-04-04T10:14:22.925Z</time></trkpt><trkpt lat="43.2209496" lon="11.3728339"><ele>227.0</ele><time>2026-04-04T10:14:23.929Z</time></trkpt><trkpt lat="43.2207928" lon="11.372866"><ele>229.66666666666669</ele><time>2026-04-04T10:14:24.926Z</time></trkpt><trkpt lat="43.2206333" lon="11.3728976"><ele>232.33333333333331</ele><time>2026-04-04T10:14:25.932Z</time></trkpt><trkpt lat="43.2204677" lon="11.3729309"><ele>235.0</ele><time>2026-04-04T10:14:26.934Z</time></trkpt><trkpt lat="43.2202983" lon="11.3729685"><ele>235.0</ele><time>2026-04-04T10:14:27.933Z</time></trkpt><trkpt lat="43.2201377" lon="11.3729943"><ele>235.0</ele><time>2026-04-04T10:14:28.93Z</time></trkpt><trkpt lat="43.2200006" lon="11.3730323"><ele>235.0</ele><time>2026-04-04T10:14:29.934Z</time></trkpt><trkpt lat="43.2198761" lon="11.3730547"><ele>235.0</ele><time>2026-04-04T10:14:30.923Z</time></trkpt><trkpt lat="43.2197618" lon="11.3730736"><ele>236.8</ele><time>2026-04-04T10:14:31.93Z</time></trkpt><trkpt lat="43.2196578" lon="11.3730793"><ele>238.6</ele><time>2026-04-04T10:14:32.929Z</time></trkpt><trkpt lat="43.2195616" lon="11.3730867"><ele>240.39999999999998</ele><time>2026-04-04T10:14:33.923Z</time></trkpt><trkpt lat="43.2194759" lon="11.373086"><ele>242.2</ele><time>2026-04-04T10:14:34.921Z</time></trkpt><trkpt lat="43.2193836" lon="11.3730779"><ele>244.0</ele><time>2026-04-04T10:14:35.935Z</time></trkpt><trkpt lat="43.2192917" lon="11.3730673"><ele>243.99999999999997</ele><time>2026-04-04T10:14:36.927Z</time></trkpt><trkpt lat="43.2192032" lon="11.373052"><ele>244.0</ele><time>2026-04-04T10:14:37.935Z</time></trkpt><trkpt lat="43.2191229" lon="11.3730382"><ele>244.0</ele><time>2026-04-04T10:14:38.921Z</time></trkpt><trkpt lat="43.2190422" lon="11.3730212"><ele>244.0</ele><time>2026-04-04T10:14:39.931Z</time></trkpt><trkpt lat="43.2189653" lon="11.3730007"><ele>243.99999999999997</ele><time>2026-04-04T10:14:40.934Z</time></trkpt><trkpt lat="43.2188915" lon="11.3729774"><ele>244.0</ele><time>2026-04-04T10:14:41.934Z</time></trkpt><trkpt lat="43.2188147" lon="11.3729473"><ele>245.6</ele><time>2026-04-04T10:14:42.932Z</time></trkpt><trkpt lat="43.2187343" lon="11.3729106"><ele>247.2</ele><time>2026-04-04T10:14:43.92Z</time></trkpt><trkpt lat="43.2186503" lon="11.3728774"><ele>248.79999999999998</ele><time>2026-04-04T10:14:44.923Z</time></trkpt><trkpt lat="43.2185647" lon="11.3728341"><ele>250.39999999999998</ele><time>2026-04-04T10:14:45.915Z</time></trkpt><trkpt lat="43.2184739" lon="11.3727841"><ele>252.0</ele><time>2026-04-04T10:14:46.925Z</time></trkpt><trkpt lat="43.2183767" lon="11.3727378"><ele>252.0</ele><time>2026-04-04T10:14:47.923Z</time></trkpt><trkpt lat="43.2182766" lon="11.3726826"><ele>252.0</ele><time>2026-04-04T10:14:48.921Z</time></trkpt><trkpt lat="43.2181724" lon="11.3726316"><ele>252.0</ele><time>2026-04-04T10:14:49.925Z</time></trkpt><trkpt lat="43.2180674" lon="11.3725796"><ele>252.0</ele><time>2026-04-04T10:14:50.928Z</time></trkpt><trkpt lat="43.2179598" lon="11.3725221"><ele>252.0</ele><time>2026-04-04T10:14:51.925Z</time></trkpt><trkpt lat="43.2178605" lon="11.3724744"><ele>250.33333333333334</ele><time>2026-04-04T10:14:52.927Z</time></trkpt><trkpt lat="43.2177796" lon="11.3724373"><ele>248.66666666666669</ele><time>2026-04-04T10:14:53.928Z</time></trkpt><trkpt lat="43.2177188" lon="11.372403"><ele>247.0</ele><time>2026-04-04T10:14:54.924Z</time></trkpt><trkpt lat="43.2176528" lon="11.3723596"><ele>245.33333333333334</ele><time>2026-04-04T10:14:56.926Z</time></trkpt><trkpt lat="43.2175713" lon="11.3723396"><ele>243.66666666666669</ele><time>2026-04-04T10:15:12.933Z</time></trkpt><trkpt lat="43.217504" lon="11.3722981"><ele>242.0</ele><time>2026-04-04T10:15:14.938Z</time></trkpt><trkpt lat="43.2173967" lon="11.3722526"><ele>242.0</ele><time>2026-04-04T10:15:16.965Z</time></trkpt><trkpt lat="43.2173326" lon="11.3722268"><ele>242.0</ele><time>2026-04-04T10:15:17.942Z</time></trkpt><trkpt lat="43.2172486" lon="11.3721743"><ele>242.0</ele><time>2026-04-04T10:15:18.937Z</time></trkpt><trkpt lat="43.2171559" lon="11.3721351"><ele>242.0</ele><time>2026-04-04T10:15:19.944Z</time></trkpt><trkpt lat="43.2170623" lon="11.3720839"><ele>242.0</ele><time>2026-04-04T10:15:20.939Z</time></trkpt><trkpt lat="43.21697" lon="11.3720255"><ele>241.2</ele><time>2026-04-04T10:15:21.933Z</time></trkpt><trkpt lat="43.2168807" lon="11.371977"><ele>240.39999999999998</ele><time>2026-04-04T10:15:22.931Z</time></trkpt><trkpt lat="43.2167912" lon="11.3719244"><ele>239.60000000000002</ele><time>2026-04-04T10:15:23.94Z</time></trkpt><trkpt lat="43.2167034" lon="11.3718794"><ele>238.8</ele><time>2026-04-04T10:15:24.937Z</time></trkpt><trkpt lat="43.2166145" lon="11.3718319"><ele>238.0</ele><time>2026-04-04T10:15:25.927Z</time></trkpt><trkpt lat="43.2165216" lon="11.3717871"><ele>239.2</ele><time>2026-04-04T10:15:26.931Z</time></trkpt><trkpt lat="43.2164327" lon="11.3717422"><ele>240.4</ele><time>2026-04-04T10:15:27.943Z</time></trkpt><trkpt lat="43.2163304" lon="11.3716881"><ele>241.59999999999997</ele><time>2026-04-04T10:15:28.941Z</time></trkpt><trkpt lat="43.216227" lon="11.3716329"><ele>242.79999999999998</ele><time>2026-04-04T10:15:29.932Z</time></trkpt><trkpt lat="43.2161245" lon="11.3715865"><ele>244.0</ele><time>2026-04-04T10:15:30.945Z</time></trkpt><trkpt lat="43.2160268" lon="11.3715381"><ele>243.99999999999997</ele><time>2026-04-04T10:15:31.936Z</time></trkpt><trkpt lat="43.2159383" lon="11.3714888"><ele>244.0</ele><time>2026-04-04T10:15:32.936Z</time></trkpt><trkpt lat="43.2158547" lon="11.3714331"><ele>244.0</ele><time>2026-04-04T10:15:33.938Z</time></trkpt><trkpt lat="43.2157808" lon="11.3713738"><ele>244.0</ele><time>2026-04-04T10:15:34.938Z</time></trkpt><trkpt lat="43.2157146" lon="11.3713013"><ele>243.99999999999997</ele><time>2026-04-04T10:15:35.929Z</time></trkpt><trkpt lat="43.2156498" lon="11.371234"><ele>244.0</ele><time>2026-04-04T10:15:36.928Z</time></trkpt><trkpt lat="43.2155876" lon="11.371146"><ele>243.2</ele><time>2026-04-04T10:15:37.933Z</time></trkpt><trkpt lat="43.2155187" lon="11.3710628"><ele>242.39999999999998</ele><time>2026-04-04T10:15:38.93Z</time></trkpt><trkpt lat="43.2154411" lon="11.3709864"><ele>241.6</ele><time>2026-04-04T10:15:39.931Z</time></trkpt><trkpt lat="43.2153535" lon="11.3709123"><ele>240.8</ele><time>2026-04-04T10:15:40.946Z</time></trkpt><trkpt lat="43.2152638" lon="11.3708327"><ele>240.0</ele><time>2026-04-04T10:15:41.935Z</time></trkpt><trkpt lat="43.2151671" lon="11.3707667"><ele>240.0</ele><time>2026-04-04T10:15:42.948Z</time></trkpt><trkpt lat="43.215051" lon="11.3707117"><ele>240.0</ele><time>2026-04-04T10:15:43.933Z</time></trkpt><trkpt lat="43.2149408" lon="11.3706867"><ele>240.0</ele><time>2026-04-04T10:15:44.931Z</time></trkpt><trkpt lat="43.2148325" lon="11.3706813"><ele>240.0</ele><time>2026-04-04T10:15:45.948Z</time></trkpt><trkpt lat="43.214728" lon="11.3707159"><ele>237.6</ele><time>2026-04-04T10:15:46.935Z</time></trkpt><trkpt lat="43.214626" lon="11.370754"><ele>235.2</ele><time>2026-04-04T10:15:47.934Z</time></trkpt><trkpt lat="43.2145206" lon="11.3708043"><ele>232.8</ele><time>2026-04-04T10:15:48.934Z</time></trkpt><trkpt lat="43.2144131" lon="11.3708639"><ele>230.4</ele><time>2026-04-04T10:15:49.939Z</time></trkpt><trkpt lat="43.2143099" lon="11.3709297"><ele>228.0</ele><time>2026-04-04T10:15:50.932Z</time></trkpt><trkpt lat="43.2142056" lon="11.3710033"><ele>228.0</ele><time>2026-04-04T10:15:51.927Z</time></trkpt><trkpt lat="43.2140959" lon="11.3710675"><ele>228.0</ele><time>2026-04-04T10:15:52.941Z</time></trkpt><trkpt lat="43.213987" lon="11.3711373"><ele>228.0</ele><time>2026-04-04T10:15:53.944Z</time></trkpt><trkpt lat="43.2138735" lon="11.3712083"><ele>228.0</ele><time>2026-04-04T10:15:54.942Z</time></trkpt><trkpt lat="43.213762" lon="11.371274"><ele>226.8</ele><time>2026-04-04T10:15:55.947Z</time></trkpt><trkpt lat="43.2136443" lon="11.3713409"><ele>225.60000000000002</ele><time>2026-04-04T10:15:56.955Z</time></trkpt><trkpt lat="43.2135309" lon="11.3713826"><ele>224.39999999999998</ele><time>2026-04-04T10:15:57.937Z</time></trkpt><trkpt lat="43.2134332" lon="11.3713741"><ele>223.2</ele><time>2026-04-04T10:15:58.943Z</time></trkpt><trkpt lat="43.213347" lon="11.3713327"><ele>222.0</ele><time>2026-04-04T10:15:59.937Z</time></trkpt><trkpt lat="43.2132661" lon="11.3712458"><ele>222.0</ele><time>2026-04-04T10:16:00.929Z</time></trkpt><trkpt lat="43.2131993" lon="11.3711482"><ele>222.0</ele><time>2026-04-04T10:16:01.929Z</time></trkpt><trkpt lat="43.21313" lon="11.3710414"><ele>222.0</ele><time>2026-04-04T10:16:02.938Z</time></trkpt><trkpt lat="43.2130645" lon="11.3709263"><ele>222.0</ele><time>2026-04-04T10:16:03.931Z</time></trkpt><trkpt lat="43.2130024" lon="11.3708109"><ele>222.0</ele><time>2026-04-04T10:16:04.93Z</time></trkpt><trkpt lat="43.2129412" lon="11.3706949"><ele>222.0</ele><time>2026-04-04T10:16:05.931Z</time></trkpt><trkpt lat="43.2128816" lon="11.3705827"><ele>222.0</ele><time>2026-04-04T10:16:06.928Z</time></trkpt><trkpt lat="43.2128301" lon="11.3704645"><ele>222.0</ele><time>2026-04-04T10:16:07.929Z</time></trkpt><trkpt lat="43.2127744" lon="11.3703487"><ele>222.0</ele><time>2026-04-04T10:16:08.935Z</time></trkpt><trkpt lat="43.2127184" lon="11.3702451"><ele>222.0</ele><time>2026-04-04T10:16:09.941Z</time></trkpt><trkpt lat="43.2126654" lon="11.3701372"><ele>222.6</ele><time>2026-04-04T10:16:10.958Z</time></trkpt><trkpt lat="43.2126095" lon="11.3700348"><ele>223.2</ele><time>2026-04-04T10:16:11.936Z</time></trkpt><trkpt lat="43.2125542" lon="11.3699347"><ele>223.8</ele><time>2026-04-04T10:16:12.948Z</time></trkpt><trkpt lat="43.2124988" lon="11.3698396"><ele>224.4</ele><time>2026-04-04T10:16:13.94Z</time></trkpt><trkpt lat="43.2124417" lon="11.3697456"><ele>225.0</ele><time>2026-04-04T10:16:14.926Z</time></trkpt><trkpt lat="43.212382" lon="11.3696507"><ele>225.0</ele><time>2026-04-04T10:16:15.934Z</time></trkpt><trkpt lat="43.2123254" lon="11.3695568"><ele>225.0</ele><time>2026-04-04T10:16:16.96Z</time></trkpt><trkpt lat="43.2122642" lon="11.369469"><ele>225.0</ele><time>2026-04-04T10:16:17.938Z</time></trkpt><trkpt lat="43.2122079" lon="11.3693865"><ele>225.0</ele><time>2026-04-04T10:16:18.941Z</time></trkpt><trkpt lat="43.2121565" lon="11.3693184"><ele>225.0</ele><time>2026-04-04T10:16:19.929Z</time></trkpt><trkpt lat="43.2120688" lon="11.3692244"><ele>225.0</ele><time>2026-04-04T10:16:21.929Z</time></trkpt><trkpt lat="43.2119696" lon="11.3691147"><ele>225.33333333333334</ele><time>2026-04-04T10:16:23.963Z</time></trkpt><trkpt lat="43.2119064" lon="11.369063"><ele>225.66666666666669</ele><time>2026-04-04T10:16:24.933Z</time></trkpt><trkpt lat="43.2118352" lon="11.3690086"><ele>226.0</ele><time>2026-04-04T10:16:25.942Z</time></trkpt><trkpt lat="43.2117642" lon="11.3689503"><ele>226.33333333333334</ele><time>2026-04-04T10:16:26.929Z</time></trkpt><trkpt lat="43.2116844" lon="11.3688944"><ele>226.66666666666669</ele><time>2026-04-04T10:16:27.931Z</time></trkpt><trkpt lat="43.2116064" lon="11.3688497"><ele>227.0</ele><time>2026-04-04T10:16:28.932Z</time></trkpt><trkpt lat="43.2115255" lon="11.3688141"><ele>228.00000000000003</ele><time>2026-04-04T10:16:29.932Z</time></trkpt><trkpt lat="43.2114497" lon="11.3687777"><ele>229.0</ele><time>2026-04-04T10:16:30.937Z</time></trkpt><trkpt lat="43.2113723" lon="11.3687447"><ele>230.0</ele><time>2026-04-04T10:16:31.938Z</time></trkpt><trkpt lat="43.2112883" lon="11.3687114"><ele>231.0</ele><time>2026-04-04T10:16:32.931Z</time></trkpt><trkpt lat="43.2112038" lon="11.3686773"><ele>232.00000000000003</ele><time>2026-04-04T10:16:33.94Z</time></trkpt><trkpt lat="43.2111118" lon="11.3686444"><ele>233.0</ele><time>2026-04-04T10:16:34.947Z</time></trkpt><trkpt lat="43.211022" lon="11.3686041"><ele>233.0</ele><time>2026-04-04T10:16:35.933Z</time></trkpt><trkpt lat="43.2109211" lon="11.3685716"><ele>233.0</ele><time>2026-04-04T10:16:36.926Z</time></trkpt><trkpt lat="43.2108142" lon="11.3685399"><ele>233.0</ele><time>2026-04-04T10:16:37.931Z</time></trkpt><trkpt lat="43.2107049" lon="11.3685071"><ele>233.0</ele><time>2026-04-04T10:16:38.94Z</time></trkpt><trkpt lat="43.2105917" lon="11.3684723"><ele>233.0</ele><time>2026-04-04T10:16:39.936Z</time></trkpt><trkpt lat="43.2104757" lon="11.3684329"><ele>232.5</ele><time>2026-04-04T10:16:40.939Z</time></trkpt><trkpt lat="43.210354" lon="11.3683915"><ele>232.0</ele><time>2026-04-04T10:16:41.931Z</time></trkpt><trkpt lat="43.2102322" lon="11.3683427"><ele>231.5</ele><time>2026-04-04T10:16:42.934Z</time></trkpt><trkpt lat="43.210121" lon="11.3682996"><ele>231.0</ele><time>2026-04-04T10:16:43.934Z</time></trkpt><trkpt lat="43.210014" lon="11.368268"><ele>231.0</ele><time>2026-04-04T10:16:44.942Z</time></trkpt><trkpt lat="43.2099176" lon="11.3682406"><ele>231.0</ele><time>2026-04-04T10:16:45.941Z</time></trkpt><trkpt lat="43.2098291" lon="11.3682228"><ele>231.0</ele><time>2026-04-04T10:16:46.93Z</time></trkpt><trkpt lat="43.2097526" lon="11.3682236"><ele>231.0</ele><time>2026-04-04T10:16:47.938Z</time></trkpt><trkpt lat="43.2096755" lon="11.3682508"><ele>231.0</ele><time>2026-04-04T10:16:48.932Z</time></trkpt><trkpt lat="43.2096103" lon="11.3683029"><ele>231.0</ele><time>2026-04-04T10:16:49.939Z</time></trkpt><trkpt lat="43.2095469" lon="11.3683704"><ele>232.33333333333334</ele><time>2026-04-04T10:16:50.941Z</time></trkpt><trkpt lat="43.2094939" lon="11.3684566"><ele>233.66666666666669</ele><time>2026-04-04T10:16:51.941Z</time></trkpt><trkpt lat="43.2094416" lon="11.3685476"><ele>235.0</ele><time>2026-04-04T10:16:52.937Z</time></trkpt><trkpt lat="43.2093835" lon="11.368641"><ele>236.33333333333334</ele><time>2026-04-04T10:16:53.941Z</time></trkpt><trkpt lat="43.2093216" lon="11.3687398"><ele>237.66666666666669</ele><time>2026-04-04T10:16:54.938Z</time></trkpt><trkpt lat="43.2092597" lon="11.368843"><ele>239.0</ele><time>2026-04-04T10:16:55.932Z</time></trkpt><trkpt lat="43.2091926" lon="11.3689444"><ele>239.0</ele><time>2026-04-04T10:16:56.933Z</time></trkpt><trkpt lat="43.2091218" lon="11.3690453"><ele>238.99999999999997</ele><time>2026-04-04T10:16:57.928Z</time></trkpt><trkpt lat="43.2090476" lon="11.3691513"><ele>238.99999999999997</ele><time>2026-04-04T10:16:58.937Z</time></trkpt><trkpt lat="43.2089735" lon="11.3692482"><ele>239.0</ele><time>2026-04-04T10:16:59.938Z</time></trkpt><trkpt lat="43.2088961" lon="11.3693531"><ele>239.0</ele><time>2026-04-04T10:17:00.941Z</time></trkpt><trkpt lat="43.2088138" lon="11.3694696"><ele>242.5</ele><time>2026-04-04T10:17:01.941Z</time></trkpt><trkpt lat="43.2087336" lon="11.3695808"><ele>246.0</ele><time>2026-04-04T10:17:02.922Z</time></trkpt><trkpt lat="43.2086476" lon="11.3696956"><ele>249.5</ele><time>2026-04-04T10:17:03.948Z</time></trkpt><trkpt lat="43.2085614" lon="11.3698172"><ele>253.0</ele><time>2026-04-04T10:17:04.929Z</time></trkpt><trkpt lat="43.2084767" lon="11.3699434"><ele>253.0</ele><time>2026-04-04T10:17:05.928Z</time></trkpt><trkpt lat="43.2083899" lon="11.3700667"><ele>253.0</ele><time>2026-04-04T10:17:06.924Z</time></trkpt><trkpt lat="43.2082994" lon="11.3701905"><ele>253.0</ele><time>2026-04-04T10:17:07.928Z</time></trkpt><trkpt lat="43.2082102" lon="11.3703159"><ele>253.0</ele><time>2026-04-04T10:17:08.921Z</time></trkpt><trkpt lat="43.2081157" lon="11.3704429"><ele>257.25</ele><time>2026-04-04T10:17:09.925Z</time></trkpt><trkpt lat="43.2080163" lon="11.3705603"><ele>261.5</ele><time>2026-04-04T10:17:10.917Z</time></trkpt><trkpt lat="43.2079259" lon="11.3706841"><ele>265.75</ele><time>2026-04-04T10:17:11.92Z</time></trkpt><trkpt lat="43.2078298" lon="11.3708142"><ele>270.0</ele><time>2026-04-04T10:17:12.919Z</time></trkpt><trkpt lat="43.207731" lon="11.370941"><ele>270.0</ele><time>2026-04-04T10:17:13.92Z</time></trkpt><trkpt lat="43.2076347" lon="11.3710753"><ele>270.0</ele><time>2026-04-04T10:17:14.923Z</time></trkpt><trkpt lat="43.2075374" lon="11.3712019"><ele>270.0</ele><time>2026-04-04T10:17:15.923Z</time></trkpt><trkpt lat="43.2074434" lon="11.3713224"><ele>270.0</ele><time>2026-04-04T10:17:16.921Z</time></trkpt><trkpt lat="43.2073527" lon="11.3714417"><ele>274.25</ele><time>2026-04-04T10:17:17.928Z</time></trkpt><trkpt lat="43.2072647" lon="11.3715589"><ele>278.5</ele><time>2026-04-04T10:17:18.928Z</time></trkpt><trkpt lat="43.2071822" lon="11.3716796"><ele>282.75</ele><time>2026-04-04T10:17:19.924Z</time></trkpt><trkpt lat="43.2070995" lon="11.3718041"><ele>287.0</ele><time>2026-04-04T10:17:20.929Z</time></trkpt><trkpt lat="43.2070266" lon="11.371939"><ele>287.0</ele><time>2026-04-04T10:17:21.921Z</time></trkpt><trkpt lat="43.2069613" lon="11.3720838"><ele>287.0</ele><time>2026-04-04T10:17:22.921Z</time></trkpt><trkpt lat="43.206894" lon="11.3722205"><ele>287.0</ele><time>2026-04-04T10:17:23.935Z</time></trkpt><trkpt lat="43.2068183" lon="11.3723623"><ele>287.0</ele><time>2026-04-04T10:17:24.93Z</time></trkpt><trkpt lat="43.2067431" lon="11.3724899"><ele>287.5</ele><time>2026-04-04T10:17:25.922Z</time></trkpt><trkpt lat="43.2066577" lon="11.3726039"><ele>288.0</ele><time>2026-04-04T10:17:26.92Z</time></trkpt><trkpt lat="43.2065731" lon="11.372718"><ele>288.5</ele><time>2026-04-04T10:17:27.922Z</time></trkpt><trkpt lat="43.2064764" lon="11.372818"><ele>289.0</ele><time>2026-04-04T10:17:28.921Z</time></trkpt><trkpt lat="43.2063683" lon="11.3729158"><ele>289.0</ele><time>2026-04-04T10:17:29.929Z</time></trkpt><trkpt lat="43.206249" lon="11.3730045"><ele>289.0</ele><time>2026-04-04T10:17:30.929Z</time></trkpt><trkpt lat="43.206132" lon="11.3730893"><ele>289.0</ele><time>2026-04-04T10:17:31.918Z</time></trkpt><trkpt lat="43.2060092" lon="11.3731635"><ele>289.0</ele><time>2026-04-04T10:17:32.929Z</time></trkpt><trkpt lat="43.2058889" lon="11.3732436"><ele>283.75</ele><time>2026-04-04T10:17:33.927Z</time></trkpt><trkpt lat="43.2057813" lon="11.3733301"><ele>278.5</ele><time>2026-04-04T10:17:34.929Z</time></trkpt><trkpt lat="43.2056852" lon="11.373425"><ele>273.25</ele><time>2026-04-04T10:17:35.924Z</time></trkpt><trkpt lat="43.2056012" lon="11.3735104"><ele>268.0</ele><time>2026-04-04T10:17:36.936Z</time></trkpt><trkpt lat="43.2055145" lon="11.3736018"><ele>268.0</ele><time>2026-04-04T10:17:37.92Z</time></trkpt><trkpt lat="43.2054292" lon="11.3736826"><ele>268.0</ele><time>2026-04-04T10:17:38.931Z</time></trkpt><trkpt lat="43.2053394" lon="11.373737"><ele>268.0</ele><time>2026-04-04T10:17:39.925Z</time></trkpt><trkpt lat="43.2052397" lon="11.3737746"><ele>268.0</ele><time>2026-04-04T10:17:40.925Z</time></trkpt><trkpt lat="43.2051319" lon="11.3737907"><ele>268.0</ele><time>2026-04-04T10:17:41.917Z</time></trkpt><trkpt lat="43.2050242" lon="11.3737794"><ele>268.0</ele><time>2026-04-04T10:17:42.926Z</time></trkpt><trkpt lat="43.2049124" lon="11.373771"><ele>268.0</ele><time>2026-04-04T10:17:43.93Z</time></trkpt><trkpt lat="43.2047883" lon="11.3737741"><ele>268.0</ele><time>2026-04-04T10:17:44.924Z</time></trkpt><trkpt lat="43.2046659" lon="11.3737888"><ele>268.0</ele><time>2026-04-04T10:17:45.927Z</time></trkpt><trkpt lat="43.2045438" lon="11.3738181"><ele>267.75</ele><time>2026-04-04T10:17:46.92Z</time></trkpt><trkpt lat="43.204407" lon="11.3738545"><ele>267.5</ele><time>2026-04-04T10:17:47.927Z</time></trkpt><trkpt lat="43.2042702" lon="11.3738997"><ele>267.25</ele><time>2026-04-04T10:17:48.931Z</time></trkpt><trkpt lat="43.2041273" lon="11.3739509"><ele>267.0</ele><time>2026-04-04T10:17:49.928Z</time></trkpt><trkpt lat="43.2039796" lon="11.3739976"><ele>264.75</ele><time>2026-04-04T10:17:50.924Z</time></trkpt><trkpt lat="43.2038383" lon="11.3740562"><ele>262.5</ele><time>2026-04-04T10:17:51.937Z</time></trkpt><trkpt lat="43.2037177" lon="11.374116"><ele>260.25</ele><time>2026-04-04T10:17:52.928Z</time></trkpt><trkpt lat="43.2036083" lon="11.3742033"><ele>258.0</ele><time>2026-04-04T10:17:53.928Z</time></trkpt><trkpt lat="43.2035039" lon="11.3742952"><ele>258.0</ele><time>2026-04-04T10:17:54.928Z</time></trkpt><trkpt lat="43.2034003" lon="11.3743744"><ele>258.0</ele><time>2026-04-04T10:17:55.926Z</time></trkpt><trkpt lat="43.2032947" lon="11.3744519"><ele>258.0</ele><time>2026-04-04T10:17:56.934Z</time></trkpt><trkpt lat="43.2031881" lon="11.3745126"><ele>258.0</ele><time>2026-04-04T10:17:57.929Z</time></trkpt><trkpt lat="43.2030659" lon="11.3745604"><ele>256.5</ele><time>2026-04-04T10:17:58.933Z</time></trkpt><trkpt lat="43.202937" lon="11.3745946"><ele>255.0</ele><time>2026-04-04T10:17:59.926Z</time></trkpt><trkpt lat="43.202797" lon="11.3746333"><ele>253.5</ele><time>2026-04-04T10:18:00.927Z</time></trkpt><trkpt lat="43.2026494" lon="11.3746634"><ele>252.0</ele><time>2026-04-04T10:18:01.93Z</time></trkpt><trkpt lat="43.2024955" lon="11.3746946"><ele>252.0</ele><time>2026-04-04T10:18:02.926Z</time></trkpt><trkpt lat="43.2023373" lon="11.3747445"><ele>252.0</ele><time>2026-04-04T10:18:03.932Z</time></trkpt><trkpt lat="43.2021939" lon="11.3747838"><ele>252.0</ele><time>2026-04-04T10:18:04.925Z</time></trkpt><trkpt lat="43.2020654" lon="11.3748188"><ele>252.0</ele><time>2026-04-04T10:18:05.922Z</time></trkpt><trkpt lat="43.2019467" lon="11.3748515"><ele>254.8</ele><time>2026-04-04T10:18:06.92Z</time></trkpt><trkpt lat="43.201841" lon="11.3748967"><ele>257.6</ele><time>2026-04-04T10:18:07.928Z</time></trkpt><trkpt lat="43.2017402" lon="11.3749512"><ele>260.40000000000003</ele><time>2026-04-04T10:18:08.925Z</time></trkpt><trkpt lat="43.2016543" lon="11.3750064"><ele>263.2</ele><time>2026-04-04T10:18:09.918Z</time></trkpt><trkpt lat="43.2015818" lon="11.3750632"><ele>266.0</ele><time>2026-04-04T10:18:10.921Z</time></trkpt><trkpt lat="43.2015222" lon="11.3751041"><ele>266.7142857142857</ele><time>2026-04-04T10:18:11.936Z</time></trkpt><trkpt lat="43.2014595" lon="11.3751511"><ele>267.42857142857144</ele><time>2026-04-04T10:18:12.927Z</time></trkpt><trkpt lat="43.2013959" lon="11.3751879"><ele>268.1428571428571</ele><time>2026-04-04T10:18:13.923Z</time></trkpt><trkpt lat="43.2013286" lon="11.3752214"><ele>268.8571428571429</ele><time>2026-04-04T10:18:14.919Z</time></trkpt><trkpt lat="43.2012637" lon="11.3752644"><ele>269.57142857142856</ele><time>2026-04-04T10:18:15.926Z</time></trkpt><trkpt lat="43.2011989" lon="11.3753048"><ele>270.2857142857143</ele><time>2026-04-04T10:18:16.93Z</time></trkpt><trkpt lat="43.2011338" lon="11.3753408"><ele>271.0</ele><time>2026-04-04T10:18:17.932Z</time></trkpt><trkpt lat="43.2010737" lon="11.3753739"><ele>271.0</ele><time>2026-04-04T10:18:18.923Z</time></trkpt><trkpt lat="43.2010063" lon="11.375414"><ele>271.0</ele><time>2026-04-04T10:18:20.924Z</time></trkpt><trkpt lat="43.2009162" lon="11.3753886"><ele>271.0</ele><time>2026-04-04T10:18:23.931Z</time></trkpt><trkpt lat="43.2007975" lon="11.3753285"><ele>271.0</ele><time>2026-04-04T10:18:25.927Z</time></trkpt><trkpt lat="43.2006933" lon="11.3752784"><ele>271.0</ele><time>2026-04-04T10:18:27.922Z</time></trkpt><trkpt lat="43.2006298" lon="11.3752311"><ele>268.0</ele><time>2026-04-04T10:18:30.925Z</time></trkpt><trkpt lat="43.2005644" lon="11.3751843"><ele>265.0</ele><time>2026-04-04T10:18:39.929Z</time></trkpt><trkpt lat="43.2004644" lon="11.375118"><ele>262.0</ele><time>2026-04-04T10:18:41.922Z</time></trkpt><trkpt lat="43.2003723" lon="11.3750702"><ele>259.0</ele><time>2026-04-04T10:18:43.929Z</time></trkpt><trkpt lat="43.2002789" lon="11.3750318"><ele>256.0</ele><time>2026-04-04T10:18:45.932Z</time></trkpt><trkpt lat="43.2001966" lon="11.3749986"><ele>255.99999999999997</ele><time>2026-04-04T10:18:47.929Z</time></trkpt><trkpt lat="43.200097" lon="11.3750126"><ele>256.0</ele><time>2026-04-04T10:18:49.926Z</time></trkpt><trkpt lat="43.2000036" lon="11.3751171"><ele>256.0</ele><time>2026-04-04T10:18:51.924Z</time></trkpt><trkpt lat="43.1999606" lon="11.3751949"><ele>256.0</ele><time>2026-04-04T10:18:52.926Z</time></trkpt><trkpt lat="43.1999225" lon="11.3752738"><ele>255.99999999999997</ele><time>2026-04-04T10:18:53.931Z</time></trkpt><trkpt lat="43.1998729" lon="11.3753744"><ele>256.0</ele><time>2026-04-04T10:18:54.93Z</time></trkpt><trkpt lat="43.1998147" lon="11.3754846"><ele>253.60000000000002</ele><time>2026-04-04T10:18:55.937Z</time></trkpt><trkpt lat="43.1997383" lon="11.3755941"><ele>251.20000000000002</ele><time>2026-04-04T10:18:56.925Z</time></trkpt><trkpt lat="43.1996592" lon="11.3756937"><ele>248.79999999999998</ele><time>2026-04-04T10:18:57.937Z</time></trkpt><trkpt lat="43.1995796" lon="11.37579"><ele>246.39999999999998</ele><time>2026-04-04T10:18:58.919Z</time></trkpt><trkpt lat="43.1995004" lon="11.3758829"><ele>244.0</ele><time>2026-04-04T10:18:59.933Z</time></trkpt><trkpt lat="43.1994206" lon="11.375973"><ele>244.0</ele><time>2026-04-04T10:19:00.924Z</time></trkpt><trkpt lat="43.1993404" lon="11.3760596"><ele>243.99999999999997</ele><time>2026-04-04T10:19:01.921Z</time></trkpt><trkpt lat="43.1992522" lon="11.3761309"><ele>243.99999999999997</ele><time>2026-04-04T10:19:02.923Z</time></trkpt><trkpt lat="43.1991459" lon="11.3761859"><ele>244.0</ele><time>2026-04-04T10:19:03.925Z</time></trkpt><trkpt lat="43.1990256" lon="11.3762257"><ele>244.0</ele><time>2026-04-04T10:19:04.926Z</time></trkpt><trkpt lat="43.1989005" lon="11.3762548"><ele>243.0</ele><time>2026-04-04T10:19:05.922Z</time></trkpt><trkpt lat="43.1987788" lon="11.3762722"><ele>242.0</ele><time>2026-04-04T10:19:06.929Z</time></trkpt><trkpt lat="43.1986526" lon="11.3763025"><ele>241.0</ele><time>2026-04-04T10:19:07.925Z</time></trkpt><trkpt lat="43.1985271" lon="11.376345"><ele>240.0</ele><time>2026-04-04T10:19:08.927Z</time></trkpt><trkpt lat="43.1984119" lon="11.3764043"><ele>240.0</ele><time>2026-04-04T10:19:09.927Z</time></trkpt><trkpt lat="43.198293" lon="11.3764931"><ele>240.0</ele><time>2026-04-04T10:19:10.923Z</time></trkpt><trkpt lat="43.198186" lon="11.3765945"><ele>240.0</ele><time>2026-04-04T10:19:11.927Z</time></trkpt><trkpt lat="43.198083" lon="11.3767139"><ele>240.0</ele><time>2026-04-04T10:19:12.924Z</time></trkpt><trkpt lat="43.1979755" lon="11.3768354"><ele>238.66666666666669</ele><time>2026-04-04T10:19:13.926Z</time></trkpt><trkpt lat="43.1978518" lon="11.3769524"><ele>237.33333333333334</ele><time>2026-04-04T10:19:14.921Z</time></trkpt><trkpt lat="43.197714" lon="11.3770622"><ele>236.0</ele><time>2026-04-04T10:19:15.927Z</time></trkpt><trkpt lat="43.1975681" lon="11.3771614"><ele>237.33333333333334</ele><time>2026-04-04T10:19:16.933Z</time></trkpt><trkpt lat="43.1974246" lon="11.3772674"><ele>238.66666666666669</ele><time>2026-04-04T10:19:17.921Z</time></trkpt><trkpt lat="43.197278" lon="11.3773695"><ele>240.0</ele><time>2026-04-04T10:19:18.924Z</time></trkpt><trkpt lat="43.1971305" lon="11.3774655"><ele>238.0</ele><time>2026-04-04T10:19:19.924Z</time></trkpt><trkpt lat="43.1969915" lon="11.3775612"><ele>236.0</ele><time>2026-04-04T10:19:20.919Z</time></trkpt><trkpt lat="43.1968578" lon="11.3776489"><ele>234.0</ele><time>2026-04-04T10:19:21.935Z</time></trkpt><trkpt lat="43.1967269" lon="11.3777359"><ele>232.0</ele><time>2026-04-04T10:19:22.928Z</time></trkpt><trkpt lat="43.1965975" lon="11.3778274"><ele>231.33333333333331</ele><time>2026-04-04T10:19:23.935Z</time></trkpt><trkpt lat="43.1964573" lon="11.3779192"><ele>230.66666666666669</ele><time>2026-04-04T10:19:24.929Z</time></trkpt><trkpt lat="43.196315" lon="11.3780171"><ele>230.0</ele><time>2026-04-04T10:19:25.931Z</time></trkpt><trkpt lat="43.1961615" lon="11.3781112"><ele>231.33333333333334</ele><time>2026-04-04T10:19:26.932Z</time></trkpt><trkpt lat="43.196009" lon="11.3782089"><ele>232.66666666666669</ele><time>2026-04-04T10:19:27.934Z</time></trkpt><trkpt lat="43.1958542" lon="11.378302"><ele>234.0</ele><time>2026-04-04T10:19:28.924Z</time></trkpt><trkpt lat="43.1957012" lon="11.3783742"><ele>233.0</ele><time>2026-04-04T10:19:29.934Z</time></trkpt><trkpt lat="43.1955541" lon="11.3784347"><ele>232.0</ele><time>2026-04-04T10:19:30.928Z</time></trkpt><trkpt lat="43.1954223" lon="11.3784817"><ele>231.0</ele><time>2026-04-04T10:19:31.926Z</time></trkpt><trkpt lat="43.1953114" lon="11.3785385"><ele>230.0</ele><time>2026-04-04T10:19:32.923Z</time></trkpt><trkpt lat="43.1952201" lon="11.378613"><ele>230.0</ele><time>2026-04-04T10:19:33.93Z</time></trkpt><trkpt lat="43.1951341" lon="11.3787164"><ele>230.0</ele><time>2026-04-04T10:19:34.923Z</time></trkpt><trkpt lat="43.1950551" lon="11.3788327"><ele>230.0</ele><time>2026-04-04T10:19:35.928Z</time></trkpt><trkpt lat="43.1949715" lon="11.3789463"><ele>230.0</ele><time>2026-04-04T10:19:36.919Z</time></trkpt><trkpt lat="43.1948894" lon="11.3790671"><ele>229.4</ele><time>2026-04-04T10:19:37.926Z</time></trkpt><trkpt lat="43.1948125" lon="11.3791864"><ele>228.8</ele><time>2026-04-04T10:19:38.924Z</time></trkpt><trkpt lat="43.194754" lon="11.3793101"><ele>228.2</ele><time>2026-04-04T10:19:39.92Z</time></trkpt><trkpt lat="43.1946981" lon="11.3794326"><ele>227.6</ele><time>2026-04-04T10:19:40.923Z</time></trkpt><trkpt lat="43.1946561" lon="11.3795624"><ele>227.0</ele><time>2026-04-04T10:19:41.922Z</time></trkpt><trkpt lat="43.1946172" lon="11.3797022"><ele>227.0</ele><time>2026-04-04T10:19:42.923Z</time></trkpt><trkpt lat="43.1945803" lon="11.3798542"><ele>227.0</ele><time>2026-04-04T10:19:43.934Z</time></trkpt><trkpt lat="43.1945572" lon="11.3800212"><ele>227.0</ele><time>2026-04-04T10:19:44.925Z</time></trkpt><trkpt lat="43.1945358" lon="11.380194"><ele>227.0</ele><time>2026-04-04T10:19:45.927Z</time></trkpt><trkpt lat="43.1945232" lon="11.3803634"><ele>227.25</ele><time>2026-04-04T10:19:46.929Z</time></trkpt><trkpt lat="43.1945141" lon="11.3805346"><ele>227.5</ele><time>2026-04-04T10:19:47.93Z</time></trkpt><trkpt lat="43.1945013" lon="11.3807018"><ele>227.75</ele><time>2026-04-04T10:19:48.927Z</time></trkpt><trkpt lat="43.1944764" lon="11.3808588"><ele>228.0</ele><time>2026-04-04T10:19:49.93Z</time></trkpt><trkpt lat="43.1944406" lon="11.3810095"><ele>228.0</ele><time>2026-04-04T10:19:50.928Z</time></trkpt><trkpt lat="43.1943967" lon="11.3811644"><ele>228.0</ele><time>2026-04-04T10:19:51.93Z</time></trkpt><trkpt lat="43.194347" lon="11.3813242"><ele>228.0</ele><time>2026-04-04T10:19:52.918Z</time></trkpt><trkpt lat="43.1942931" lon="11.3814928"><ele>228.0</ele><time>2026-04-04T10:19:53.94Z</time></trkpt><trkpt lat="43.1942313" lon="11.3816661"><ele>228.0</ele><time>2026-04-04T10:19:54.927Z</time></trkpt><trkpt lat="43.1941617" lon="11.3818404"><ele>228.0</ele><time>2026-04-04T10:19:55.929Z</time></trkpt><trkpt lat="43.1940896" lon="11.3820394"><ele>228.0</ele><time>2026-04-04T10:19:56.924Z</time></trkpt><trkpt lat="43.1940173" lon="11.3822359"><ele>225.66666666666669</ele><time>2026-04-04T10:19:57.923Z</time></trkpt><trkpt lat="43.1939499" lon="11.3824258"><ele>223.33333333333334</ele><time>2026-04-04T10:19:58.926Z</time></trkpt><trkpt lat="43.1938859" lon="11.3826186"><ele>221.0</ele><time>2026-04-04T10:19:59.925Z</time></trkpt><trkpt lat="43.1938239" lon="11.3827939"><ele>221.0</ele><time>2026-04-04T10:20:00.926Z</time></trkpt><trkpt lat="43.1937646" lon="11.3829545"><ele>221.0</ele><time>2026-04-04T10:20:01.925Z</time></trkpt><trkpt lat="43.1937038" lon="11.3830978"><ele>221.0</ele><time>2026-04-04T10:20:02.927Z</time></trkpt><trkpt lat="43.1936428" lon="11.3832355"><ele>221.0</ele><time>2026-04-04T10:20:03.934Z</time></trkpt><trkpt lat="43.1935759" lon="11.3833485"><ele>221.0</ele><time>2026-04-04T10:20:04.928Z</time></trkpt><trkpt lat="43.1934994" lon="11.3834313"><ele>221.00000000000003</ele><time>2026-04-04T10:20:05.929Z</time></trkpt><trkpt lat="43.193421" lon="11.3834959"><ele>221.00000000000003</ele><time>2026-04-04T10:20:06.925Z</time></trkpt><trkpt lat="43.1933311" lon="11.3835436"><ele>221.0</ele><time>2026-04-04T10:20:07.923Z</time></trkpt><trkpt lat="43.1932338" lon="11.3835788"><ele>221.0</ele><time>2026-04-04T10:20:08.931Z</time></trkpt><trkpt lat="43.19313" lon="11.383621"><ele>221.0</ele><time>2026-04-04T10:20:09.923Z</time></trkpt><trkpt lat="43.1930258" lon="11.3836666"><ele>221.0</ele><time>2026-04-04T10:20:10.923Z</time></trkpt><trkpt lat="43.1929056" lon="11.3837219"><ele>221.0</ele><time>2026-04-04T10:20:11.923Z</time></trkpt><trkpt lat="43.1927748" lon="11.3837913"><ele>221.0</ele><time>2026-04-04T10:20:12.929Z</time></trkpt><trkpt lat="43.1926442" lon="11.3838557"><ele>221.75</ele><time>2026-04-04T10:20:13.925Z</time></trkpt><trkpt lat="43.1925044" lon="11.3839143"><ele>222.5</ele><time>2026-04-04T10:20:14.918Z</time></trkpt><trkpt lat="43.1923666" lon="11.3839479"><ele>223.25</ele><time>2026-04-04T10:20:15.924Z</time></trkpt><trkpt lat="43.1922198" lon="11.3839711"><ele>224.0</ele><time>2026-04-04T10:20:16.923Z</time></trkpt><trkpt lat="43.1920908" lon="11.3839806"><ele>224.25</ele><time>2026-04-04T10:20:17.94Z</time></trkpt><trkpt lat="43.1919638" lon="11.3839652"><ele>224.5</ele><time>2026-04-04T10:20:18.923Z</time></trkpt><trkpt lat="43.1918447" lon="11.3839654"><ele>224.75</ele><time>2026-04-04T10:20:19.923Z</time></trkpt><trkpt lat="43.1917337" lon="11.3840226"><ele>225.0</ele><time>2026-04-04T10:20:20.939Z</time></trkpt><trkpt lat="43.1916347" lon="11.3841142"><ele>225.0</ele><time>2026-04-04T10:20:21.928Z</time></trkpt><trkpt lat="43.1915433" lon="11.3842377"><ele>225.0</ele><time>2026-04-04T10:20:22.923Z</time></trkpt><trkpt lat="43.1914439" lon="11.3843715"><ele>225.0</ele><time>2026-04-04T10:20:23.93Z</time></trkpt><trkpt lat="43.1913481" lon="11.3845189"><ele>225.0</ele><time>2026-04-04T10:20:24.926Z</time></trkpt><trkpt lat="43.1912524" lon="11.3846599"><ele>225.75</ele><time>2026-04-04T10:20:25.93Z</time></trkpt><trkpt lat="43.1911482" lon="11.3847997"><ele>226.5</ele><time>2026-04-04T10:20:26.934Z</time></trkpt><trkpt lat="43.1910401" lon="11.3849267"><ele>227.25</ele><time>2026-04-04T10:20:27.932Z</time></trkpt><trkpt lat="43.1909245" lon="11.3850548"><ele>228.0</ele><time>2026-04-04T10:20:28.928Z</time></trkpt><trkpt lat="43.1908005" lon="11.3851692"><ele>229.33333333333331</ele><time>2026-04-04T10:20:29.921Z</time></trkpt><trkpt lat="43.1906722" lon="11.3852739"><ele>230.66666666666666</ele><time>2026-04-04T10:20:30.927Z</time></trkpt><trkpt lat="43.1905331" lon="11.3853731"><ele>232.0</ele><time>2026-04-04T10:20:31.929Z</time></trkpt><trkpt lat="43.190389" lon="11.385461"><ele>228.66666666666666</ele><time>2026-04-04T10:20:32.929Z</time></trkpt><trkpt lat="43.1902414" lon="11.3855322"><ele>225.33333333333331</ele><time>2026-04-04T10:20:33.926Z</time></trkpt><trkpt lat="43.1900884" lon="11.3855932"><ele>222.0</ele><time>2026-04-04T10:20:34.924Z</time></trkpt><trkpt lat="43.1899289" lon="11.3856425"><ele>221.0</ele><time>2026-04-04T10:20:35.921Z</time></trkpt><trkpt lat="43.18977" lon="11.3856759"><ele>220.0</ele><time>2026-04-04T10:20:36.924Z</time></trkpt><trkpt lat="43.1896071" lon="11.3857102"><ele>219.0</ele><time>2026-04-04T10:20:37.932Z</time></trkpt><trkpt lat="43.1894416" lon="11.3857501"><ele>219.0</ele><time>2026-04-04T10:20:38.919Z</time></trkpt><trkpt lat="43.1892884" lon="11.3857918"><ele>219.0</ele><time>2026-04-04T10:20:39.925Z</time></trkpt><trkpt lat="43.1891366" lon="11.3858396"><ele>219.0</ele><time>2026-04-04T10:20:40.92Z</time></trkpt><trkpt lat="43.1889932" lon="11.3858866"><ele>220.75</ele><time>2026-04-04T10:20:41.921Z</time></trkpt><trkpt lat="43.1888509" lon="11.3859317"><ele>222.5</ele><time>2026-04-04T10:20:42.921Z</time></trkpt><trkpt lat="43.1887153" lon="11.3859541"><ele>224.25</ele><time>2026-04-04T10:20:43.929Z</time></trkpt><trkpt lat="43.1886051" lon="11.3859588"><ele>226.0</ele><time>2026-04-04T10:20:44.927Z</time></trkpt><trkpt lat="43.1884985" lon="11.3859219"><ele>226.0</ele><time>2026-04-04T10:20:45.925Z</time></trkpt><trkpt lat="43.1884077" lon="11.3858701"><ele>226.00000000000003</ele><time>2026-04-04T10:20:46.918Z</time></trkpt><trkpt lat="43.1883251" lon="11.3858039"><ele>226.00000000000003</ele><time>2026-04-04T10:20:47.929Z</time></trkpt><trkpt lat="43.1882397" lon="11.3857312"><ele>226.0</ele><time>2026-04-04T10:20:48.928Z</time></trkpt><trkpt lat="43.1881537" lon="11.385653"><ele>226.0</ele><time>2026-04-04T10:20:49.926Z</time></trkpt><trkpt lat="43.1880651" lon="11.3855809"><ele>228.8</ele><time>2026-04-04T10:20:50.925Z</time></trkpt><trkpt lat="43.1879695" lon="11.3855138"><ele>231.60000000000002</ele><time>2026-04-04T10:20:51.925Z</time></trkpt><trkpt lat="43.1878685" lon="11.3854532"><ele>234.4</ele><time>2026-04-04T10:20:52.928Z</time></trkpt><trkpt lat="43.1877702" lon="11.3853927"><ele>237.2</ele><time>2026-04-04T10:20:53.929Z</time></trkpt><trkpt lat="43.1876763" lon="11.3853404"><ele>240.0</ele><time>2026-04-04T10:20:54.918Z</time></trkpt><trkpt lat="43.1875925" lon="11.3853012"><ele>240.0</ele><time>2026-04-04T10:20:55.933Z</time></trkpt><trkpt lat="43.1875114" lon="11.3852707"><ele>240.0</ele><time>2026-04-04T10:20:56.923Z</time></trkpt><trkpt lat="43.1874297" lon="11.3852531"><ele>240.0</ele><time>2026-04-04T10:20:57.928Z</time></trkpt><trkpt lat="43.1873553" lon="11.3852427"><ele>240.0</ele><time>2026-04-04T10:20:58.919Z</time></trkpt><trkpt lat="43.1872726" lon="11.3852387"><ele>240.0</ele><time>2026-04-04T10:20:59.925Z</time></trkpt><trkpt lat="43.1871886" lon="11.385245"><ele>240.0</ele><time>2026-04-04T10:21:00.932Z</time></trkpt><trkpt lat="43.1871004" lon="11.3852533"><ele>241.6</ele><time>2026-04-04T10:21:01.923Z</time></trkpt><trkpt lat="43.1870043" lon="11.3852685"><ele>243.2</ele><time>2026-04-04T10:21:02.926Z</time></trkpt><trkpt lat="43.186896" lon="11.3852883"><ele>244.8</ele><time>2026-04-04T10:21:03.923Z</time></trkpt><trkpt lat="43.1867887" lon="11.3853156"><ele>246.4</ele><time>2026-04-04T10:21:04.928Z</time></trkpt><trkpt lat="43.1866726" lon="11.3853423"><ele>248.0</ele><time>2026-04-04T10:21:05.927Z</time></trkpt><trkpt lat="43.1865557" lon="11.3853651"><ele>250.0</ele><time>2026-04-04T10:21:06.929Z</time></trkpt><trkpt lat="43.1864334" lon="11.3853936"><ele>252.0</ele><time>2026-04-04T10:21:07.933Z</time></trkpt><trkpt lat="43.1863018" lon="11.3854153"><ele>254.0</ele><time>2026-04-04T10:21:08.929Z</time></trkpt><trkpt lat="43.1861666" lon="11.3854253"><ele>256.0</ele><time>2026-04-04T10:21:09.949Z</time></trkpt><trkpt lat="43.1860271" lon="11.3854329"><ele>256.0</ele><time>2026-04-04T10:21:10.929Z</time></trkpt><trkpt lat="43.1859033" lon="11.3854385"><ele>256.0</ele><time>2026-04-04T10:21:11.921Z</time></trkpt><trkpt lat="43.1857867" lon="11.3854376"><ele>256.0</ele><time>2026-04-04T10:21:12.927Z</time></trkpt><trkpt lat="43.1856853" lon="11.3854367"><ele>256.0</ele><time>2026-04-04T10:21:13.926Z</time></trkpt><trkpt lat="43.1855913" lon="11.3854332"><ele>256.0</ele><time>2026-04-04T10:21:14.93Z</time></trkpt><trkpt lat="43.1855021" lon="11.3854178"><ele>257.8333333333333</ele><time>2026-04-04T10:21:15.916Z</time></trkpt><trkpt lat="43.1854209" lon="11.3853836"><ele>259.66666666666663</ele><time>2026-04-04T10:21:16.928Z</time></trkpt><trkpt lat="43.1853476" lon="11.3853332"><ele>261.5</ele><time>2026-04-04T10:21:17.927Z</time></trkpt><trkpt lat="43.1852834" lon="11.3852743"><ele>263.3333333333333</ele><time>2026-04-04T10:21:18.923Z</time></trkpt><trkpt lat="43.1852184" lon="11.3852035"><ele>265.1666666666667</ele><time>2026-04-04T10:21:19.924Z</time></trkpt><trkpt lat="43.1851616" lon="11.3851218"><ele>267.0</ele><time>2026-04-04T10:21:20.92Z</time></trkpt><trkpt lat="43.1851039" lon="11.385032"><ele>267.0</ele><time>2026-04-04T10:21:21.925Z</time></trkpt><trkpt lat="43.1850459" lon="11.3849376"><ele>267.0</ele><time>2026-04-04T10:21:22.927Z</time></trkpt><trkpt lat="43.1849872" lon="11.3848424"><ele>267.0</ele><time>2026-04-04T10:21:23.926Z</time></trkpt><trkpt lat="43.1849246" lon="11.3847447"><ele>267.0</ele><time>2026-04-04T10:21:24.927Z</time></trkpt><trkpt lat="43.1848617" lon="11.3846414"><ele>267.0</ele><time>2026-04-04T10:21:25.919Z</time></trkpt><trkpt lat="43.1847935" lon="11.3845393"><ele>268.6</ele><time>2026-04-04T10:21:26.929Z</time></trkpt><trkpt lat="43.1847186" lon="11.3844471"><ele>270.2</ele><time>2026-04-04T10:21:27.923Z</time></trkpt><trkpt lat="43.1846325" lon="11.3843548"><ele>271.8</ele><time>2026-04-04T10:21:28.924Z</time></trkpt><trkpt lat="43.184548" lon="11.3842695"><ele>273.4</ele><time>2026-04-04T10:21:29.929Z</time></trkpt><trkpt lat="43.1844639" lon="11.3841916"><ele>275.0</ele><time>2026-04-04T10:21:30.925Z</time></trkpt><trkpt lat="43.1843721" lon="11.3841118"><ele>275.0</ele><time>2026-04-04T10:21:31.921Z</time></trkpt><trkpt lat="43.1842774" lon="11.384039"><ele>275.0</ele><time>2026-04-04T10:21:32.92Z</time></trkpt><trkpt lat="43.1841773" lon="11.3839765"><ele>275.0</ele><time>2026-04-04T10:21:33.929Z</time></trkpt><trkpt lat="43.1840779" lon="11.3839201"><ele>275.0</ele><time>2026-04-04T10:21:34.924Z</time></trkpt><trkpt lat="43.1839759" lon="11.3838734"><ele>275.0</ele><time>2026-04-04T10:21:35.924Z</time></trkpt><trkpt lat="43.1838737" lon="11.3838293"><ele>274.8</ele><time>2026-04-04T10:21:36.932Z</time></trkpt><trkpt lat="43.1837767" lon="11.3837929"><ele>274.6</ele><time>2026-04-04T10:21:37.916Z</time></trkpt><trkpt lat="43.1836819" lon="11.3837535"><ele>274.4</ele><time>2026-04-04T10:21:38.925Z</time></trkpt><trkpt lat="43.1835922" lon="11.3837181"><ele>274.2</ele><time>2026-04-04T10:21:39.93Z</time></trkpt><trkpt lat="43.1835073" lon="11.3836836"><ele>274.0</ele><time>2026-04-04T10:21:40.941Z</time></trkpt><trkpt lat="43.1834265" lon="11.3836516"><ele>274.0</ele><time>2026-04-04T10:21:41.922Z</time></trkpt><trkpt lat="43.1833505" lon="11.3836193"><ele>274.0</ele><time>2026-04-04T10:21:42.928Z</time></trkpt><trkpt lat="43.1832772" lon="11.3835874"><ele>274.0</ele><time>2026-04-04T10:21:43.92Z</time></trkpt><trkpt lat="43.183196" lon="11.3835554"><ele>274.0</ele><time>2026-04-04T10:21:44.926Z</time></trkpt><trkpt lat="43.1831022" lon="11.3835131"><ele>274.0</ele><time>2026-04-04T10:21:45.925Z</time></trkpt><trkpt lat="43.1829902" lon="11.3834697"><ele>273.25</ele><time>2026-04-04T10:21:46.927Z</time></trkpt><trkpt lat="43.1828663" lon="11.3834096"><ele>272.5</ele><time>2026-04-04T10:21:47.927Z</time></trkpt><trkpt lat="43.1827393" lon="11.3833535"><ele>271.75</ele><time>2026-04-04T10:21:48.927Z</time></trkpt><trkpt lat="43.1826139" lon="11.3832968"><ele>271.0</ele><time>2026-04-04T10:21:49.929Z</time></trkpt><trkpt lat="43.182478" lon="11.3832355"><ele>270.5</ele><time>2026-04-04T10:21:50.934Z</time></trkpt><trkpt lat="43.1823426" lon="11.3831787"><ele>270.0</ele><time>2026-04-04T10:21:51.935Z</time></trkpt><trkpt lat="43.1822048" lon="11.3831363"><ele>269.5</ele><time>2026-04-04T10:21:52.929Z</time></trkpt><trkpt lat="43.1820652" lon="11.3831051"><ele>269.0</ele><time>2026-04-04T10:21:53.931Z</time></trkpt><trkpt lat="43.1819336" lon="11.3830729"><ele>269.0</ele><time>2026-04-04T10:21:54.928Z</time></trkpt><trkpt lat="43.1818108" lon="11.3830453"><ele>269.0</ele><time>2026-04-04T10:21:55.935Z</time></trkpt><trkpt lat="43.1816894" lon="11.383014"><ele>269.0</ele><time>2026-04-04T10:21:56.924Z</time></trkpt><trkpt lat="43.1815738" lon="11.3829846"><ele>269.0</ele><time>2026-04-04T10:21:57.927Z</time></trkpt><trkpt lat="43.1814671" lon="11.3829642"><ele>268.5</ele><time>2026-04-04T10:21:58.931Z</time></trkpt><trkpt lat="43.1813736" lon="11.3829436"><ele>268.0</ele><time>2026-04-04T10:21:59.927Z</time></trkpt><trkpt lat="43.1812853" lon="11.3829304"><ele>267.5</ele><time>2026-04-04T10:22:00.929Z</time></trkpt><trkpt lat="43.1812071" lon="11.3829046"><ele>267.0</ele><time>2026-04-04T10:22:01.927Z</time></trkpt><trkpt lat="43.1811392" lon="11.3828688"><ele>266.5</ele><time>2026-04-04T10:22:02.928Z</time></trkpt><trkpt lat="43.1810725" lon="11.3828282"><ele>266.0</ele><time>2026-04-04T10:22:03.932Z</time></trkpt><trkpt lat="43.1810121" lon="11.3827887"><ele>266.0</ele><time>2026-04-04T10:22:04.933Z</time></trkpt><trkpt lat="43.1809561" lon="11.3827486"><ele>266.0</ele><time>2026-04-04T10:22:05.937Z</time></trkpt><trkpt lat="43.1808787" lon="11.3827079"><ele>266.0</ele><time>2026-04-04T10:22:07.931Z</time></trkpt><trkpt lat="43.1807935" lon="11.3827118"><ele>266.0</ele><time>2026-04-04T10:22:10.927Z</time></trkpt><trkpt lat="43.1806936" lon="11.3828104"><ele>266.0</ele><time>2026-04-04T10:22:12.931Z</time></trkpt><trkpt lat="43.1806292" lon="11.3828779"><ele>266.0</ele><time>2026-04-04T10:22:13.921Z</time></trkpt><trkpt lat="43.1805599" lon="11.3829557"><ele>266.0</ele><time>2026-04-04T10:22:14.927Z</time></trkpt><trkpt lat="43.180467" lon="11.3830408"><ele>266.0</ele><time>2026-04-04T10:22:15.94Z</time></trkpt><trkpt lat="43.1803579" lon="11.3831307"><ele>266.0</ele><time>2026-04-04T10:22:16.936Z</time></trkpt><trkpt lat="43.1802442" lon="11.383231"><ele>266.0</ele><time>2026-04-04T10:22:17.925Z</time></trkpt><trkpt lat="43.1801238" lon="11.3833297"><ele>266.0</ele><time>2026-04-04T10:22:18.932Z</time></trkpt><trkpt lat="43.1799867" lon="11.3834224"><ele>266.0</ele><time>2026-04-04T10:22:19.923Z</time></trkpt><trkpt lat="43.1798383" lon="11.3835098"><ele>266.0</ele><time>2026-04-04T10:22:20.918Z</time></trkpt><trkpt lat="43.1796863" lon="11.3835961"><ele>265.0</ele><time>2026-04-04T10:22:21.931Z</time></trkpt><trkpt lat="43.179532" lon="11.3836795"><ele>264.0</ele><time>2026-04-04T10:22:22.923Z</time></trkpt><trkpt lat="43.1793725" lon="11.38376"><ele>263.0</ele><time>2026-04-04T10:22:23.93Z</time></trkpt><trkpt lat="43.1792073" lon="11.3838477"><ele>265.0</ele><time>2026-04-04T10:22:24.92Z</time></trkpt><trkpt lat="43.1790328" lon="11.3839411"><ele>267.0</ele><time>2026-04-04T10:22:25.922Z</time></trkpt><trkpt lat="43.1788651" lon="11.3840506"><ele>269.0</ele><time>2026-04-04T10:22:26.926Z</time></trkpt><trkpt lat="43.178708" lon="11.384184"><ele>269.0</ele><time>2026-04-04T10:22:27.932Z</time></trkpt><trkpt lat="43.1785693" lon="11.3843514"><ele>269.0</ele><time>2026-04-04T10:22:28.926Z</time></trkpt><trkpt lat="43.1784312" lon="11.384545"><ele>269.0</ele><time>2026-04-04T10:22:29.922Z</time></trkpt><trkpt lat="43.17829" lon="11.384733"><ele>269.0</ele><time>2026-04-04T10:22:30.929Z</time></trkpt><trkpt lat="43.1781404" lon="11.384892"><ele>269.0</ele><time>2026-04-04T10:22:31.921Z</time></trkpt><trkpt lat="43.1779849" lon="11.3850167"><ele>269.0</ele><time>2026-04-04T10:22:32.927Z</time></trkpt><trkpt lat="43.177824" lon="11.3851332"><ele>269.0</ele><time>2026-04-04T10:22:33.923Z</time></trkpt><trkpt lat="43.1776722" lon="11.3852472"><ele>269.0</ele><time>2026-04-04T10:22:34.922Z</time></trkpt><trkpt lat="43.1775353" lon="11.385375"><ele>269.0</ele><time>2026-04-04T10:22:35.93Z</time></trkpt><trkpt lat="43.1774086" lon="11.3855303"><ele>270.6666666666667</ele><time>2026-04-04T10:22:36.923Z</time></trkpt><trkpt lat="43.1772945" lon="11.3856969"><ele>272.3333333333333</ele><time>2026-04-04T10:22:37.925Z</time></trkpt><trkpt lat="43.1771975" lon="11.3858834"><ele>274.0</ele><time>2026-04-04T10:22:38.923Z</time></trkpt><trkpt lat="43.1771088" lon="11.3860831"><ele>274.0</ele><time>2026-04-04T10:22:39.924Z</time></trkpt><trkpt lat="43.1770226" lon="11.3862926"><ele>274.0</ele><time>2026-04-04T10:22:40.928Z</time></trkpt><trkpt lat="43.1769369" lon="11.3865053"><ele>274.0</ele><time>2026-04-04T10:22:41.928Z</time></trkpt><trkpt lat="43.1768496" lon="11.3867186"><ele>273.3333333333333</ele><time>2026-04-04T10:22:42.935Z</time></trkpt><trkpt lat="43.1767602" lon="11.3869374"><ele>272.6666666666667</ele><time>2026-04-04T10:22:43.929Z</time></trkpt><trkpt lat="43.1766706" lon="11.3871571"><ele>272.0</ele><time>2026-04-04T10:22:44.925Z</time></trkpt><trkpt lat="43.1765825" lon="11.3873751"><ele>274.0</ele><time>2026-04-04T10:22:45.913Z</time></trkpt><trkpt lat="43.1764915" lon="11.3875837"><ele>276.0</ele><time>2026-04-04T10:22:46.925Z</time></trkpt><trkpt lat="43.1763999" lon="11.387776"><ele>278.0</ele><time>2026-04-04T10:22:47.919Z</time></trkpt><trkpt lat="43.1762815" lon="11.3879428"><ele>276.6666666666667</ele><time>2026-04-04T10:22:48.924Z</time></trkpt><trkpt lat="43.1761602" lon="11.388094"><ele>275.3333333333333</ele><time>2026-04-04T10:22:49.926Z</time></trkpt><trkpt lat="43.176019" lon="11.3882284"><ele>274.0</ele><time>2026-04-04T10:22:50.918Z</time></trkpt><trkpt lat="43.1758634" lon="11.3883345"><ele>274.0</ele><time>2026-04-04T10:22:51.923Z</time></trkpt><trkpt lat="43.1756902" lon="11.3884229"><ele>274.0</ele><time>2026-04-04T10:22:52.923Z</time></trkpt><trkpt lat="43.1755105" lon="11.3885006"><ele>274.0</ele><time>2026-04-04T10:22:53.923Z</time></trkpt><trkpt lat="43.1753266" lon="11.388571"><ele>273.66666666666663</ele><time>2026-04-04T10:22:54.925Z</time></trkpt><trkpt lat="43.1751488" lon="11.3886566"><ele>273.3333333333333</ele><time>2026-04-04T10:22:55.932Z</time></trkpt><trkpt lat="43.17497" lon="11.388734"><ele>273.0</ele><time>2026-04-04T10:22:56.935Z</time></trkpt><trkpt lat="43.1747916" lon="11.3888158"><ele>275.0</ele><time>2026-04-04T10:22:57.93Z</time></trkpt><trkpt lat="43.1746148" lon="11.3888896"><ele>277.0</ele><time>2026-04-04T10:22:58.927Z</time></trkpt><trkpt lat="43.1744414" lon="11.3889656"><ele>279.0</ele><time>2026-04-04T10:22:59.929Z</time></trkpt><trkpt lat="43.1742734" lon="11.3890386"><ele>279.0</ele><time>2026-04-04T10:23:00.934Z</time></trkpt><trkpt lat="43.1741122" lon="11.3891305"><ele>279.0</ele><time>2026-04-04T10:23:01.934Z</time></trkpt><trkpt lat="43.1739629" lon="11.3892422"><ele>279.0</ele><time>2026-04-04T10:23:02.929Z</time></trkpt><trkpt lat="43.1738297" lon="11.3893835"><ele>281.3333333333333</ele><time>2026-04-04T10:23:03.932Z</time></trkpt><trkpt lat="43.1737199" lon="11.3895504"><ele>283.66666666666663</ele><time>2026-04-04T10:23:04.936Z</time></trkpt><trkpt lat="43.1736147" lon="11.3897147"><ele>286.0</ele><time>2026-04-04T10:23:05.927Z</time></trkpt><trkpt lat="43.173516" lon="11.389873"><ele>286.0</ele><time>2026-04-04T10:23:06.919Z</time></trkpt><trkpt lat="43.1734263" lon="11.3900231"><ele>286.0</ele><time>2026-04-04T10:23:07.926Z</time></trkpt><trkpt lat="43.17335" lon="11.3901631"><ele>286.0</ele><time>2026-04-04T10:23:08.917Z</time></trkpt><trkpt lat="43.1732837" lon="11.3902683"><ele>286.0</ele><time>2026-04-04T10:23:09.93Z</time></trkpt><trkpt lat="43.1732367" lon="11.3903334"><ele>286.0</ele><time>2026-04-04T10:23:10.925Z</time></trkpt><trkpt lat="43.173155" lon="11.3904499"><ele>288.0</ele><time>2026-04-04T10:23:12.926Z</time></trkpt><trkpt lat="43.1731006" lon="11.3905126"><ele>290.0</ele><time>2026-04-04T10:23:13.92Z</time></trkpt><trkpt lat="43.1730331" lon="11.3905851"><ele>292.0</ele><time>2026-04-04T10:23:14.92Z</time></trkpt><trkpt lat="43.1729599" lon="11.3906505"><ele>294.0</ele><time>2026-04-04T10:23:15.925Z</time></trkpt><trkpt lat="43.172876" lon="11.3907125"><ele>296.0</ele><time>2026-04-04T10:23:16.928Z</time></trkpt><trkpt lat="43.1727876" lon="11.3907722"><ele>298.0</ele><time>2026-04-04T10:23:17.929Z</time></trkpt><trkpt lat="43.1726899" lon="11.3908223"><ele>298.0</ele><time>2026-04-04T10:23:18.926Z</time></trkpt><trkpt lat="43.1725831" lon="11.3908759"><ele>298.0</ele><time>2026-04-04T10:23:19.93Z</time></trkpt><trkpt lat="43.1724773" lon="11.3909236"><ele>298.0</ele><time>2026-04-04T10:23:20.928Z</time></trkpt><trkpt lat="43.172363" lon="11.3909781"><ele>298.0</ele><time>2026-04-04T10:23:21.926Z</time></trkpt><trkpt lat="43.1722442" lon="11.391034"><ele>299.75</ele><time>2026-04-04T10:23:22.921Z</time></trkpt><trkpt lat="43.1721243" lon="11.3910919"><ele>301.5</ele><time>2026-04-04T10:23:23.925Z</time></trkpt><trkpt lat="43.1720092" lon="11.3911486"><ele>303.25</ele><time>2026-04-04T10:23:24.92Z</time></trkpt><trkpt lat="43.1718994" lon="11.3912007"><ele>305.0</ele><time>2026-04-04T10:23:25.932Z</time></trkpt><trkpt lat="43.1717911" lon="11.3912449"><ele>305.0</ele><time>2026-04-04T10:23:26.93Z</time></trkpt><trkpt lat="43.1716816" lon="11.3912809"><ele>305.0</ele><time>2026-04-04T10:23:27.925Z</time></trkpt><trkpt lat="43.1715976" lon="11.391299"><ele>305.0</ele><time>2026-04-04T10:23:28.927Z</time></trkpt><trkpt lat="43.1715325" lon="11.3913004"><ele>305.0</ele><time>2026-04-04T10:23:29.923Z</time></trkpt><trkpt lat="43.1714678" lon="11.3912962"><ele>305.0</ele><time>2026-04-04T10:23:30.921Z</time></trkpt><trkpt lat="43.171397" lon="11.3912995"><ele>305.0</ele><time>2026-04-04T10:23:31.929Z</time></trkpt><trkpt lat="43.1713112" lon="11.3912974"><ele>304.4</ele><time>2026-04-04T10:23:32.945Z</time></trkpt><trkpt lat="43.1712154" lon="11.3912833"><ele>303.8</ele><time>2026-04-04T10:23:33.929Z</time></trkpt><trkpt lat="43.1711128" lon="11.3912524"><ele>303.2</ele><time>2026-04-04T10:23:34.922Z</time></trkpt><trkpt lat="43.171011" lon="11.3911918"><ele>302.6</ele><time>2026-04-04T10:23:35.926Z</time></trkpt><trkpt lat="43.1709116" lon="11.3911316"><ele>302.0</ele><time>2026-04-04T10:23:36.933Z</time></trkpt><trkpt lat="43.1708095" lon="11.3910736"><ele>302.0</ele><time>2026-04-04T10:23:37.922Z</time></trkpt><trkpt lat="43.1707091" lon="11.391018"><ele>302.0</ele><time>2026-04-04T10:23:38.929Z</time></trkpt><trkpt lat="43.1706214" lon="11.390959"><ele>302.0</ele><time>2026-04-04T10:23:39.924Z</time></trkpt><trkpt lat="43.1705427" lon="11.3909203"><ele>302.0</ele><time>2026-04-04T10:23:40.927Z</time></trkpt><trkpt lat="43.1704559" lon="11.3908685"><ele>302.0</ele><time>2026-04-04T10:23:42.928Z</time></trkpt><trkpt lat="43.1703932" lon="11.390847"><ele>302.0</ele><time>2026-04-04T10:23:46.933Z</time></trkpt><trkpt lat="43.1703348" lon="11.390776"><ele>302.0</ele><time>2026-04-04T10:23:56.917Z</time></trkpt><trkpt lat="43.1703665" lon="11.3908767"><ele>302.0</ele><time>2026-04-04T10:24:00.923Z</time></trkpt><trkpt lat="43.1704299" lon="11.3909376"><ele>302.0</ele><time>2026-04-04T10:24:03.924Z</time></trkpt><trkpt lat="43.1704993" lon="11.3910064"><ele>302.0</ele><time>2026-04-04T10:24:10.924Z</time></trkpt><trkpt lat="43.1705637" lon="11.391044"><ele>302.0</ele><time>2026-04-04T10:24:14.922Z</time></trkpt><trkpt lat="43.170493" lon="11.3910843"><ele>302.0</ele><time>2026-04-04T10:46:06.928Z</time></trkpt><trkpt lat="43.1705763" lon="11.3910787"><ele>302.0</ele><time>2026-04-04T11:05:28.937Z</time></trkpt><trkpt lat="43.1706091" lon="11.3909938"><ele>302.0</ele><time>2026-04-04T11:12:24.915Z</time></trkpt><trkpt lat="43.1705634" lon="11.3909297"><ele>302.0</ele><time>2026-04-04T11:12:29.871Z</time></trkpt><trkpt lat="43.1704796" lon="11.3908889"><ele>302.0</ele><time>2026-04-04T11:12:40.93Z</time></trkpt><trkpt lat="43.1703565" lon="11.3907971"><ele>302.0</ele><time>2026-04-04T11:12:42.933Z</time></trkpt><trkpt lat="43.1702848" lon="11.3907497"><ele>302.0</ele><time>2026-04-04T11:12:43.926Z</time></trkpt><trkpt lat="43.17021" lon="11.3906809"><ele>302.0</ele><time>2026-04-04T11:12:44.928Z</time></trkpt><trkpt lat="43.1701196" lon="11.3906025"><ele>302.0</ele><time>2026-04-04T11:12:45.924Z</time></trkpt><trkpt lat="43.170024" lon="11.3905169"><ele>302.0</ele><time>2026-04-04T11:12:46.936Z</time></trkpt><trkpt lat="43.1699244" lon="11.3904385"><ele>302.0</ele><time>2026-04-04T11:12:47.928Z</time></trkpt><trkpt lat="43.1698184" lon="11.3903596"><ele>299.0</ele><time>2026-04-04T11:12:48.932Z</time></trkpt><trkpt lat="43.1697155" lon="11.3902812"><ele>296.0</ele><time>2026-04-04T11:12:49.935Z</time></trkpt><trkpt lat="43.1696094" lon="11.3902026"><ele>293.0</ele><time>2026-04-04T11:12:50.925Z</time></trkpt><trkpt lat="43.1694967" lon="11.390141"><ele>290.0</ele><time>2026-04-04T11:12:51.919Z</time></trkpt><trkpt lat="43.1693763" lon="11.3900768"><ele>290.0</ele><time>2026-04-04T11:12:52.921Z</time></trkpt><trkpt lat="43.1692525" lon="11.3900304"><ele>290.0</ele><time>2026-04-04T11:12:53.924Z</time></trkpt><trkpt lat="43.1691311" lon="11.3899972"><ele>290.0</ele><time>2026-04-04T11:12:54.931Z</time></trkpt><trkpt lat="43.1690204" lon="11.3899823"><ele>290.0</ele><time>2026-04-04T11:12:55.929Z</time></trkpt><trkpt lat="43.1689185" lon="11.3899733"><ele>287.25</ele><time>2026-04-04T11:12:56.934Z</time></trkpt><trkpt lat="43.1688174" lon="11.3899626"><ele>284.5</ele><time>2026-04-04T11:12:57.923Z</time></trkpt><trkpt lat="43.1687073" lon="11.389956"><ele>281.75</ele><time>2026-04-04T11:12:58.985Z</time></trkpt><trkpt lat="43.1685886" lon="11.3899427"><ele>279.0</ele><time>2026-04-04T11:12:59.934Z</time></trkpt><trkpt lat="43.1684597" lon="11.3899346"><ele>279.0</ele><time>2026-04-04T11:13:00.936Z</time></trkpt><trkpt lat="43.1683272" lon="11.3899329"><ele>279.0</ele><time>2026-04-04T11:13:01.928Z</time></trkpt><trkpt lat="43.1681893" lon="11.38992"><ele>279.0</ele><time>2026-04-04T11:13:02.928Z</time></trkpt><trkpt lat="43.1680434" lon="11.3899083"><ele>279.0</ele><time>2026-04-04T11:13:03.933Z</time></trkpt><trkpt lat="43.1678878" lon="11.3898965"><ele>277.0</ele><time>2026-04-04T11:13:04.953Z</time></trkpt><trkpt lat="43.1677303" lon="11.3898902"><ele>275.0</ele><time>2026-04-04T11:13:05.937Z</time></trkpt><trkpt lat="43.1675633" lon="11.3898749"><ele>273.0</ele><time>2026-04-04T11:13:06.938Z</time></trkpt><trkpt lat="43.1674005" lon="11.38986"><ele>273.3333333333333</ele><time>2026-04-04T11:13:07.936Z</time></trkpt><trkpt lat="43.1672355" lon="11.3898451"><ele>273.66666666666663</ele><time>2026-04-04T11:13:08.935Z</time></trkpt><trkpt lat="43.167072" lon="11.3898456"><ele>274.0</ele><time>2026-04-04T11:13:09.933Z</time></trkpt><trkpt lat="43.166918" lon="11.3898721"><ele>274.0</ele><time>2026-04-04T11:13:10.935Z</time></trkpt><trkpt lat="43.1667668" lon="11.3899334"><ele>274.0</ele><time>2026-04-04T11:13:11.941Z</time></trkpt><trkpt lat="43.16663" lon="11.3900182"><ele>274.0</ele><time>2026-04-04T11:13:12.934Z</time></trkpt><trkpt lat="43.1665074" lon="11.3901449"><ele>274.75</ele><time>2026-04-04T11:13:13.932Z</time></trkpt><trkpt lat="43.1664173" lon="11.3902812"><ele>275.5</ele><time>2026-04-04T11:13:14.933Z</time></trkpt><trkpt lat="43.1663399" lon="11.3904024"><ele>276.25</ele><time>2026-04-04T11:13:15.934Z</time></trkpt><trkpt lat="43.1662603" lon="11.3904961"><ele>277.0</ele><time>2026-04-04T11:13:16.931Z</time></trkpt><trkpt lat="43.1661714" lon="11.3905743"><ele>275.5</ele><time>2026-04-04T11:13:17.932Z</time></trkpt><trkpt lat="43.1660754" lon="11.3906446"><ele>274.0</ele><time>2026-04-04T11:13:18.952Z</time></trkpt><trkpt lat="43.1659709" lon="11.3907044"><ele>272.5</ele><time>2026-04-04T11:13:19.928Z</time></trkpt><trkpt lat="43.1658567" lon="11.3907645"><ele>271.0</ele><time>2026-04-04T11:13:20.935Z</time></trkpt><trkpt lat="43.1657287" lon="11.3908144"><ele>271.75</ele><time>2026-04-04T11:13:21.932Z</time></trkpt><trkpt lat="43.1655994" lon="11.3908678"><ele>272.5</ele><time>2026-04-04T11:13:22.927Z</time></trkpt><trkpt lat="43.1654621" lon="11.3909106"><ele>273.25</ele><time>2026-04-04T11:13:23.931Z</time></trkpt><trkpt lat="43.1653236" lon="11.3909461"><ele>274.0</ele><time>2026-04-04T11:13:24.931Z</time></trkpt><trkpt lat="43.1651772" lon="11.3909881"><ele>274.0</ele><time>2026-04-04T11:13:25.93Z</time></trkpt><trkpt lat="43.1650302" lon="11.3910265"><ele>274.0</ele><time>2026-04-04T11:13:26.934Z</time></trkpt><trkpt lat="43.164888" lon="11.3910627"><ele>274.0</ele><time>2026-04-04T11:13:27.929Z</time></trkpt><trkpt lat="43.164749" lon="11.3910995"><ele>274.0</ele><time>2026-04-04T11:13:28.932Z</time></trkpt><trkpt lat="43.1646073" lon="11.3911347"><ele>274.3333333333333</ele><time>2026-04-04T11:13:29.932Z</time></trkpt><trkpt lat="43.1644631" lon="11.39117"><ele>274.6666666666667</ele><time>2026-04-04T11:13:30.932Z</time></trkpt><trkpt lat="43.1643173" lon="11.3912101"><ele>275.0</ele><time>2026-04-04T11:13:31.93Z</time></trkpt><trkpt lat="43.1641652" lon="11.3912476"><ele>275.6666666666667</ele><time>2026-04-04T11:13:32.94Z</time></trkpt><trkpt lat="43.1640146" lon="11.3912858"><ele>276.3333333333333</ele><time>2026-04-04T11:13:33.935Z</time></trkpt><trkpt lat="43.1638581" lon="11.3913277"><ele>277.0</ele><time>2026-04-04T11:13:34.931Z</time></trkpt><trkpt lat="43.1637043" lon="11.3913608"><ele>277.0</ele><time>2026-04-04T11:13:35.933Z</time></trkpt><trkpt lat="43.1635475" lon="11.3913992"><ele>277.0</ele><time>2026-04-04T11:13:36.929Z</time></trkpt><trkpt lat="43.163386" lon="11.3914377"><ele>277.0</ele><time>2026-04-04T11:13:37.932Z</time></trkpt><trkpt lat="43.1632195" lon="11.3914776"><ele>278.66666666666663</ele><time>2026-04-04T11:13:38.93Z</time></trkpt><trkpt lat="43.1630569" lon="11.3915173"><ele>280.3333333333333</ele><time>2026-04-04T11:13:39.928Z</time></trkpt><trkpt lat="43.1628873" lon="11.3915537"><ele>282.0</ele><time>2026-04-04T11:13:40.929Z</time></trkpt><trkpt lat="43.162721" lon="11.3915822"><ele>282.0</ele><time>2026-04-04T11:13:41.93Z</time></trkpt><trkpt lat="43.1625523" lon="11.39161"><ele>282.0</ele><time>2026-04-04T11:13:42.928Z</time></trkpt><trkpt lat="43.1623864" lon="11.3916273"><ele>282.0</ele><time>2026-04-04T11:13:43.927Z</time></trkpt><trkpt lat="43.1622356" lon="11.3916454"><ele>283.0</ele><time>2026-04-04T11:13:44.938Z</time></trkpt><trkpt lat="43.1620913" lon="11.3916729"><ele>284.0</ele><time>2026-04-04T11:13:45.927Z</time></trkpt><trkpt lat="43.1619703" lon="11.3917142"><ele>285.0</ele><time>2026-04-04T11:13:46.938Z</time></trkpt><trkpt lat="43.1618636" lon="11.3917873"><ele>286.0</ele><time>2026-04-04T11:13:47.928Z</time></trkpt><trkpt lat="43.1617765" lon="11.3918975"><ele>286.0</ele><time>2026-04-04T11:13:48.931Z</time></trkpt><trkpt lat="43.1617146" lon="11.3920235"><ele>286.0</ele><time>2026-04-04T11:13:49.922Z</time></trkpt><trkpt lat="43.1616621" lon="11.3921949"><ele>286.0</ele><time>2026-04-04T11:13:50.939Z</time></trkpt><trkpt lat="43.1616237" lon="11.3923667"><ele>286.0</ele><time>2026-04-04T11:13:51.938Z</time></trkpt><trkpt lat="43.1615774" lon="11.3925386"><ele>284.25</ele><time>2026-04-04T11:13:53.025Z</time></trkpt><trkpt lat="43.1615263" lon="11.392697"><ele>282.5</ele><time>2026-04-04T11:13:53.99Z</time></trkpt><trkpt lat="43.1614528" lon="11.3928237"><ele>280.75</ele><time>2026-04-04T11:13:54.983Z</time></trkpt><trkpt lat="43.1613554" lon="11.3929405"><ele>279.0</ele><time>2026-04-04T11:13:55.972Z</time></trkpt><trkpt lat="43.1612306" lon="11.3930349"><ele>279.0</ele><time>2026-04-04T11:13:56.987Z</time></trkpt><trkpt lat="43.1610961" lon="11.3931004"><ele>279.0</ele><time>2026-04-04T11:13:57.992Z</time></trkpt><trkpt lat="43.1609474" lon="11.3931712"><ele>279.0</ele><time>2026-04-04T11:13:58.977Z</time></trkpt><trkpt lat="43.1607965" lon="11.3932362"><ele>278.3333333333333</ele><time>2026-04-04T11:13:59.977Z</time></trkpt><trkpt lat="43.1606271" lon="11.3933032"><ele>277.66666666666663</ele><time>2026-04-04T11:14:00.987Z</time></trkpt><trkpt lat="43.1604601" lon="11.3933838"><ele>277.0</ele><time>2026-04-04T11:14:01.992Z</time></trkpt><trkpt lat="43.1602945" lon="11.3934556"><ele>277.0</ele><time>2026-04-04T11:14:02.938Z</time></trkpt><trkpt lat="43.16012" lon="11.3935262"><ele>277.0</ele><time>2026-04-04T11:14:03.929Z</time></trkpt><trkpt lat="43.1599535" lon="11.3936049"><ele>277.0</ele><time>2026-04-04T11:14:04.928Z</time></trkpt><trkpt lat="43.1597878" lon="11.3936992"><ele>276.66666666666663</ele><time>2026-04-04T11:14:05.933Z</time></trkpt><trkpt lat="43.1596277" lon="11.3938182"><ele>276.3333333333333</ele><time>2026-04-04T11:14:06.93Z</time></trkpt><trkpt lat="43.1594737" lon="11.3939499"><ele>276.0</ele><time>2026-04-04T11:14:07.936Z</time></trkpt><trkpt lat="43.1593265" lon="11.3940955"><ele>276.0</ele><time>2026-04-04T11:14:08.938Z</time></trkpt><trkpt lat="43.1591829" lon="11.3942638"><ele>276.0</ele><time>2026-04-04T11:14:09.935Z</time></trkpt><trkpt lat="43.1590505" lon="11.3944537"><ele>276.0</ele><time>2026-04-04T11:14:10.934Z</time></trkpt><trkpt lat="43.1589344" lon="11.3946649"><ele>277.0</ele><time>2026-04-04T11:14:11.993Z</time></trkpt><trkpt lat="43.1588354" lon="11.394882"><ele>278.0</ele><time>2026-04-04T11:14:12.982Z</time></trkpt><trkpt lat="43.1587581" lon="11.3951294"><ele>279.0</ele><time>2026-04-04T11:14:13.985Z</time></trkpt><trkpt lat="43.1587076" lon="11.3953746"><ele>279.0</ele><time>2026-04-04T11:14:14.978Z</time></trkpt><trkpt lat="43.1586901" lon="11.3956328"><ele>279.0</ele><time>2026-04-04T11:14:15.988Z</time></trkpt><trkpt lat="43.158679" lon="11.3958993"><ele>279.0</ele><time>2026-04-04T11:14:16.979Z</time></trkpt><trkpt lat="43.1586721" lon="11.396163"><ele>279.3333333333333</ele><time>2026-04-04T11:14:17.984Z</time></trkpt><trkpt lat="43.1586717" lon="11.396424"><ele>279.66666666666663</ele><time>2026-04-04T11:14:18.981Z</time></trkpt><trkpt lat="43.1586686" lon="11.3966851"><ele>280.0</ele><time>2026-04-04T11:14:20.002Z</time></trkpt><trkpt lat="43.1586656" lon="11.3969522"><ele>280.0</ele><time>2026-04-04T11:14:20.988Z</time></trkpt><trkpt lat="43.158661" lon="11.3972224"><ele>280.0</ele><time>2026-04-04T11:14:21.985Z</time></trkpt><trkpt lat="43.158661" lon="11.3974869"><ele>280.0</ele><time>2026-04-04T11:14:22.995Z</time></trkpt><trkpt lat="43.1586765" lon="11.397749"><ele>280.66666666666663</ele><time>2026-04-04T11:14:23.988Z</time></trkpt><trkpt lat="43.1587133" lon="11.3980115"><ele>281.3333333333333</ele><time>2026-04-04T11:14:24.986Z</time></trkpt><trkpt lat="43.158761" lon="11.3982657"><ele>282.0</ele><time>2026-04-04T11:14:25.991Z</time></trkpt><trkpt lat="43.1588203" lon="11.3985063"><ele>282.0</ele><time>2026-04-04T11:14:26.979Z</time></trkpt><trkpt lat="43.1588734" lon="11.3987343"><ele>282.0</ele><time>2026-04-04T11:14:27.988Z</time></trkpt><trkpt lat="43.1589103" lon="11.3989524"><ele>282.0</ele><time>2026-04-04T11:14:28.979Z</time></trkpt><trkpt lat="43.1589156" lon="11.3991605"><ele>282.4</ele><time>2026-04-04T11:14:29.984Z</time></trkpt><trkpt lat="43.1588868" lon="11.399359"><ele>282.79999999999995</ele><time>2026-04-04T11:14:30.979Z</time></trkpt><trkpt lat="43.1588421" lon="11.3994904"><ele>283.2</ele><time>2026-04-04T11:14:31.981Z</time></trkpt><trkpt lat="43.158781" lon="11.3995798"><ele>283.59999999999997</ele><time>2026-04-04T11:14:32.978Z</time></trkpt><trkpt lat="43.1586983" lon="11.3996228"><ele>284.0</ele><time>2026-04-04T11:14:33.98Z</time></trkpt><trkpt lat="43.1586099" lon="11.3996346"><ele>284.0</ele><time>2026-04-04T11:14:34.98Z</time></trkpt><trkpt lat="43.1585101" lon="11.3996229"><ele>284.0</ele><time>2026-04-04T11:14:35.99Z</time></trkpt><trkpt lat="43.158396" lon="11.3995998"><ele>284.0</ele><time>2026-04-04T11:14:37Z</time></trkpt><trkpt lat="43.1582732" lon="11.3995893"><ele>284.0</ele><time>2026-04-04T11:14:37.984Z</time></trkpt><trkpt lat="43.1581443" lon="11.3996093"><ele>285.5</ele><time>2026-04-04T11:14:38.984Z</time></trkpt><trkpt lat="43.1580075" lon="11.3996522"><ele>287.0</ele><time>2026-04-04T11:14:39.98Z</time></trkpt><trkpt lat="43.1578733" lon="11.3997259"><ele>288.5</ele><time>2026-04-04T11:14:40.985Z</time></trkpt><trkpt lat="43.1577486" lon="11.3998294"><ele>290.0</ele><time>2026-04-04T11:14:41.982Z</time></trkpt><trkpt lat="43.1576207" lon="11.3999574"><ele>290.0</ele><time>2026-04-04T11:14:42.931Z</time></trkpt><trkpt lat="43.1574788" lon="11.4000621"><ele>290.0</ele><time>2026-04-04T11:14:43.944Z</time></trkpt><trkpt lat="43.1573214" lon="11.4001339"><ele>290.0</ele><time>2026-04-04T11:14:44.939Z</time></trkpt><trkpt lat="43.1571686" lon="11.400156"><ele>291.33333333333337</ele><time>2026-04-04T11:14:45.938Z</time></trkpt><trkpt lat="43.1570104" lon="11.4001211"><ele>292.6666666666667</ele><time>2026-04-04T11:14:46.929Z</time></trkpt><trkpt lat="43.1568673" lon="11.4000602"><ele>294.0</ele><time>2026-04-04T11:14:47.926Z</time></trkpt><trkpt lat="43.1567302" lon="11.4000067"><ele>294.0</ele><time>2026-04-04T11:14:48.932Z</time></trkpt><trkpt lat="43.1566013" lon="11.3999616"><ele>294.0</ele><time>2026-04-04T11:14:49.923Z</time></trkpt><trkpt lat="43.1564833" lon="11.3999665"><ele>294.0</ele><time>2026-04-04T11:14:50.929Z</time></trkpt><trkpt lat="43.156382" lon="11.4000275"><ele>294.0</ele><time>2026-04-04T11:14:51.928Z</time></trkpt><trkpt lat="43.156304" lon="11.4001257"><ele>297.25</ele><time>2026-04-04T11:14:52.924Z</time></trkpt><trkpt lat="43.15626" lon="11.4002491"><ele>300.5</ele><time>2026-04-04T11:14:53.932Z</time></trkpt><trkpt lat="43.1562592" lon="11.4004034"><ele>303.75</ele><time>2026-04-04T11:14:54.93Z</time></trkpt><trkpt lat="43.1562989" lon="11.4005466"><ele>307.0</ele><time>2026-04-04T11:14:55.93Z</time></trkpt><trkpt lat="43.1563628" lon="11.4006977"><ele>307.25</ele><time>2026-04-04T11:14:56.938Z</time></trkpt><trkpt lat="43.1564404" lon="11.4008599"><ele>307.5</ele><time>2026-04-04T11:14:57.923Z</time></trkpt><trkpt lat="43.1565181" lon="11.4010309"><ele>307.75</ele><time>2026-04-04T11:14:58.962Z</time></trkpt><trkpt lat="43.156587" lon="11.4011998"><ele>308.0</ele><time>2026-04-04T11:14:59.931Z</time></trkpt><trkpt lat="43.1566469" lon="11.4013695"><ele>302.25</ele><time>2026-04-04T11:15:00.988Z</time></trkpt><trkpt lat="43.1566864" lon="11.401554"><ele>296.5</ele><time>2026-04-04T11:15:01.986Z</time></trkpt><trkpt lat="43.1566929" lon="11.4017541"><ele>290.75</ele><time>2026-04-04T11:15:02.977Z</time></trkpt><trkpt lat="43.1566743" lon="11.4019642"><ele>285.0</ele><time>2026-04-04T11:15:03.981Z</time></trkpt><trkpt lat="43.1566324" lon="11.40217"><ele>284.3333333333333</ele><time>2026-04-04T11:15:04.924Z</time></trkpt><trkpt lat="43.1565922" lon="11.4023796"><ele>283.66666666666663</ele><time>2026-04-04T11:15:05.941Z</time></trkpt><trkpt lat="43.1565568" lon="11.4025998"><ele>283.0</ele><time>2026-04-04T11:15:06.931Z</time></trkpt><trkpt lat="43.1565206" lon="11.402836"><ele>288.0</ele><time>2026-04-04T11:15:07.928Z</time></trkpt><trkpt lat="43.1564829" lon="11.4030689"><ele>293.0</ele><time>2026-04-04T11:15:08.984Z</time></trkpt><trkpt lat="43.1564438" lon="11.403315"><ele>298.0</ele><time>2026-04-04T11:15:09.977Z</time></trkpt><trkpt lat="43.1564132" lon="11.4035649"><ele>298.0</ele><time>2026-04-04T11:15:10.978Z</time></trkpt><trkpt lat="43.1563872" lon="11.4038051"><ele>298.0</ele><time>2026-04-04T11:15:11.983Z</time></trkpt><trkpt lat="43.1563647" lon="11.4040236"><ele>298.0</ele><time>2026-04-04T11:15:12.986Z</time></trkpt><trkpt lat="43.1563137" lon="11.4042217"><ele>296.5</ele><time>2026-04-04T11:15:13.988Z</time></trkpt><trkpt lat="43.1562346" lon="11.4043846"><ele>295.0</ele><time>2026-04-04T11:15:14.99Z</time></trkpt><trkpt lat="43.1561324" lon="11.4045328"><ele>293.5</ele><time>2026-04-04T11:15:15.978Z</time></trkpt><trkpt lat="43.1560082" lon="11.4046609"><ele>292.0</ele><time>2026-04-04T11:15:16.979Z</time></trkpt><trkpt lat="43.1558702" lon="11.4047581"><ele>289.66666666666663</ele><time>2026-04-04T11:15:17.982Z</time></trkpt><trkpt lat="43.1557227" lon="11.4048203"><ele>287.3333333333333</ele><time>2026-04-04T11:15:18.981Z</time></trkpt><trkpt lat="43.1555564" lon="11.4048515"><ele>285.0</ele><time>2026-04-04T11:15:19.988Z</time></trkpt><trkpt lat="43.1553768" lon="11.404879"><ele>285.0</ele><time>2026-04-04T11:15:20.982Z</time></trkpt><trkpt lat="43.1552025" lon="11.4049214"><ele>285.0</ele><time>2026-04-04T11:15:21.982Z</time></trkpt><trkpt lat="43.1550289" lon="11.4049816"><ele>285.0</ele><time>2026-04-04T11:15:23.032Z</time></trkpt><trkpt lat="43.1548552" lon="11.4050535"><ele>288.0</ele><time>2026-04-04T11:15:23.985Z</time></trkpt><trkpt lat="43.1546834" lon="11.4051425"><ele>291.0</ele><time>2026-04-04T11:15:24.981Z</time></trkpt><trkpt lat="43.1545133" lon="11.405244"><ele>294.0</ele><time>2026-04-04T11:15:25.975Z</time></trkpt><trkpt lat="43.1543426" lon="11.405351"><ele>294.0</ele><time>2026-04-04T11:15:26.978Z</time></trkpt><trkpt lat="43.1541847" lon="11.4054825"><ele>294.0</ele><time>2026-04-04T11:15:27.981Z</time></trkpt><trkpt lat="43.1540306" lon="11.4055845"><ele>294.0</ele><time>2026-04-04T11:15:28.98Z</time></trkpt><trkpt lat="43.1538684" lon="11.4056353"><ele>291.3333333333333</ele><time>2026-04-04T11:15:29.987Z</time></trkpt><trkpt lat="43.1536981" lon="11.4056607"><ele>288.66666666666663</ele><time>2026-04-04T11:15:30.992Z</time></trkpt><trkpt lat="43.153533" lon="11.4056828"><ele>286.0</ele><time>2026-04-04T11:15:31.98Z</time></trkpt><trkpt lat="43.1533642" lon="11.4057398"><ele>286.0</ele><time>2026-04-04T11:15:32.974Z</time></trkpt><trkpt lat="43.1532062" lon="11.4058384"><ele>286.0</ele><time>2026-04-04T11:15:33.98Z</time></trkpt><trkpt lat="43.1530574" lon="11.4059618"><ele>286.0</ele><time>2026-04-04T11:15:34.977Z</time></trkpt><trkpt lat="43.1529211" lon="11.4061133"><ele>285.0</ele><time>2026-04-04T11:15:35.983Z</time></trkpt><trkpt lat="43.1527683" lon="11.4062506"><ele>284.0</ele><time>2026-04-04T11:15:36.989Z</time></trkpt><trkpt lat="43.1526111" lon="11.4063687"><ele>283.0</ele><time>2026-04-04T11:15:37.986Z</time></trkpt><trkpt lat="43.1524461" lon="11.406472"><ele>283.0</ele><time>2026-04-04T11:15:38.976Z</time></trkpt><trkpt lat="43.152266" lon="11.4065409"><ele>283.0</ele><time>2026-04-04T11:15:39.98Z</time></trkpt><trkpt lat="43.1520797" lon="11.4065879"><ele>283.0</ele><time>2026-04-04T11:15:40.982Z</time></trkpt><trkpt lat="43.1518984" lon="11.4066038"><ele>283.0</ele><time>2026-04-04T11:15:41.99Z</time></trkpt><trkpt lat="43.1517174" lon="11.4066218"><ele>283.0</ele><time>2026-04-04T11:15:42.988Z</time></trkpt><trkpt lat="43.1515363" lon="11.406644"><ele>283.0</ele><time>2026-04-04T11:15:43.987Z</time></trkpt><trkpt lat="43.1513547" lon="11.4066801"><ele>284.0</ele><time>2026-04-04T11:15:44.99Z</time></trkpt><trkpt lat="43.1511721" lon="11.4067294"><ele>285.0</ele><time>2026-04-04T11:15:45.975Z</time></trkpt><trkpt lat="43.1509869" lon="11.4067692"><ele>286.0</ele><time>2026-04-04T11:15:46.975Z</time></trkpt><trkpt lat="43.1507991" lon="11.4067893"><ele>284.3333333333333</ele><time>2026-04-04T11:15:47.984Z</time></trkpt><trkpt lat="43.1506111" lon="11.406777"><ele>282.6666666666667</ele><time>2026-04-04T11:15:48.978Z</time></trkpt><trkpt lat="43.1504351" lon="11.4067312"><ele>281.0</ele><time>2026-04-04T11:15:49.983Z</time></trkpt><trkpt lat="43.1502692" lon="11.4066596"><ele>281.0</ele><time>2026-04-04T11:15:50.991Z</time></trkpt><trkpt lat="43.1501283" lon="11.4065529"><ele>281.0</ele><time>2026-04-04T11:15:51.975Z</time></trkpt><trkpt lat="43.1500187" lon="11.4064322"><ele>281.0</ele><time>2026-04-04T11:15:52.98Z</time></trkpt><trkpt lat="43.1499233" lon="11.4063029"><ele>281.0</ele><time>2026-04-04T11:15:53.98Z</time></trkpt><trkpt lat="43.1498245" lon="11.4062072"><ele>282.0</ele><time>2026-04-04T11:15:54.976Z</time></trkpt><trkpt lat="43.1496984" lon="11.4061754"><ele>283.0</ele><time>2026-04-04T11:15:55.992Z</time></trkpt><trkpt lat="43.1495677" lon="11.4062044"><ele>284.0</ele><time>2026-04-04T11:15:56.987Z</time></trkpt><trkpt lat="43.1494404" lon="11.4063016"><ele>285.0</ele><time>2026-04-04T11:15:57.982Z</time></trkpt><trkpt lat="43.149349" lon="11.40642"><ele>285.0</ele><time>2026-04-04T11:15:58.979Z</time></trkpt><trkpt lat="43.1492631" lon="11.4065522"><ele>285.0</ele><time>2026-04-04T11:15:59.982Z</time></trkpt><trkpt lat="43.1491636" lon="11.4066483"><ele>285.0</ele><time>2026-04-04T11:16:00.988Z</time></trkpt><trkpt lat="43.1490462" lon="11.4066968"><ele>285.0</ele><time>2026-04-04T11:16:01.983Z</time></trkpt><trkpt lat="43.1489208" lon="11.4067522"><ele>286.0</ele><time>2026-04-04T11:16:02.975Z</time></trkpt><trkpt lat="43.148781" lon="11.4067795"><ele>287.0</ele><time>2026-04-04T11:16:03.979Z</time></trkpt><trkpt lat="43.1486494" lon="11.4068224"><ele>288.0</ele><time>2026-04-04T11:16:04.987Z</time></trkpt><trkpt lat="43.1485248" lon="11.4069003"><ele>289.0</ele><time>2026-04-04T11:16:05.987Z</time></trkpt><trkpt lat="43.1484149" lon="11.4070249"><ele>289.75</ele><time>2026-04-04T11:16:06.989Z</time></trkpt><trkpt lat="43.1483259" lon="11.4071763"><ele>290.5</ele><time>2026-04-04T11:16:07.985Z</time></trkpt><trkpt lat="43.1482441" lon="11.4073415"><ele>291.25</ele><time>2026-04-04T11:16:08.983Z</time></trkpt><trkpt lat="43.1481649" lon="11.4075203"><ele>292.0</ele><time>2026-04-04T11:16:09.986Z</time></trkpt><trkpt lat="43.1480838" lon="11.4077021"><ele>292.0</ele><time>2026-04-04T11:16:10.981Z</time></trkpt><trkpt lat="43.1480092" lon="11.407896"><ele>292.0</ele><time>2026-04-04T11:16:11.981Z</time></trkpt><trkpt lat="43.147952" lon="11.4081098"><ele>292.0</ele><time>2026-04-04T11:16:12.983Z</time></trkpt><trkpt lat="43.1479173" lon="11.4083345"><ele>290.0</ele><time>2026-04-04T11:16:13.985Z</time></trkpt><trkpt lat="43.1478956" lon="11.4085652"><ele>288.0</ele><time>2026-04-04T11:16:14.984Z</time></trkpt><trkpt lat="43.1478659" lon="11.4087965"><ele>286.0</ele><time>2026-04-04T11:16:15.994Z</time></trkpt><trkpt lat="43.1478366" lon="11.4090273"><ele>284.0</ele><time>2026-04-04T11:16:16.986Z</time></trkpt><trkpt lat="43.1478006" lon="11.4092583"><ele>282.0</ele><time>2026-04-04T11:16:17.978Z</time></trkpt><trkpt lat="43.1477631" lon="11.4094831"><ele>280.0</ele><time>2026-04-04T11:16:18.977Z</time></trkpt><trkpt lat="43.1477301" lon="11.4097091"><ele>277.66666666666663</ele><time>2026-04-04T11:16:19.986Z</time></trkpt><trkpt lat="43.1476929" lon="11.4099277"><ele>275.3333333333333</ele><time>2026-04-04T11:16:20.985Z</time></trkpt><trkpt lat="43.1476375" lon="11.4101253"><ele>273.0</ele><time>2026-04-04T11:16:21.983Z</time></trkpt><trkpt lat="43.1475534" lon="11.4102993"><ele>273.0</ele><time>2026-04-04T11:16:22.987Z</time></trkpt><trkpt lat="43.1474442" lon="11.4104549"><ele>273.0</ele><time>2026-04-04T11:16:23.986Z</time></trkpt><trkpt lat="43.147311" lon="11.4105797"><ele>273.0</ele><time>2026-04-04T11:16:24.985Z</time></trkpt><trkpt lat="43.1471679" lon="11.4106709"><ele>270.6666666666667</ele><time>2026-04-04T11:16:25.988Z</time></trkpt><trkpt lat="43.1470228" lon="11.4107603"><ele>268.33333333333337</ele><time>2026-04-04T11:16:26.987Z</time></trkpt><trkpt lat="43.1468824" lon="11.4108615"><ele>266.0</ele><time>2026-04-04T11:16:27.986Z</time></trkpt><trkpt lat="43.1467467" lon="11.4109873"><ele>266.0</ele><time>2026-04-04T11:16:28.995Z</time></trkpt><trkpt lat="43.1466332" lon="11.4111342"><ele>266.0</ele><time>2026-04-04T11:16:29.991Z</time></trkpt><trkpt lat="43.146537" lon="11.411282"><ele>266.0</ele><time>2026-04-04T11:16:30.985Z</time></trkpt><trkpt lat="43.1464541" lon="11.4114344"><ele>266.0</ele><time>2026-04-04T11:16:31.994Z</time></trkpt><trkpt lat="43.1463715" lon="11.4115764"><ele>264.75</ele><time>2026-04-04T11:16:32.984Z</time></trkpt><trkpt lat="43.1462839" lon="11.4117025"><ele>263.5</ele><time>2026-04-04T11:16:33.988Z</time></trkpt><trkpt lat="43.1462006" lon="11.4118338"><ele>262.25</ele><time>2026-04-04T11:16:34.984Z</time></trkpt><trkpt lat="43.1461236" lon="11.4119724"><ele>261.0</ele><time>2026-04-04T11:16:35.986Z</time></trkpt><trkpt lat="43.1460579" lon="11.4121206"><ele>259.0</ele><time>2026-04-04T11:16:36.992Z</time></trkpt><trkpt lat="43.1459993" lon="11.41228"><ele>257.0</ele><time>2026-04-04T11:16:37.985Z</time></trkpt><trkpt lat="43.1459478" lon="11.4124503"><ele>255.0</ele><time>2026-04-04T11:16:38.984Z</time></trkpt><trkpt lat="43.1459089" lon="11.4126279"><ele>253.0</ele><time>2026-04-04T11:16:39.994Z</time></trkpt><trkpt lat="43.1458754" lon="11.4128098"><ele>253.0</ele><time>2026-04-04T11:16:40.987Z</time></trkpt><trkpt lat="43.1458356" lon="11.4129864"><ele>253.0</ele><time>2026-04-04T11:16:41.994Z</time></trkpt><trkpt lat="43.1457848" lon="11.4131555"><ele>253.0</ele><time>2026-04-04T11:16:42.991Z</time></trkpt><trkpt lat="43.1457194" lon="11.4133173"><ele>253.0</ele><time>2026-04-04T11:16:43.987Z</time></trkpt><trkpt lat="43.1456408" lon="11.4134685"><ele>251.25</ele><time>2026-04-04T11:16:44.998Z</time></trkpt><trkpt lat="43.1455527" lon="11.4136055"><ele>249.5</ele><time>2026-04-04T11:16:45.984Z</time></trkpt><trkpt lat="43.1454604" lon="11.4137272"><ele>247.75</ele><time>2026-04-04T11:16:46.988Z</time></trkpt><trkpt lat="43.1453764" lon="11.4138455"><ele>246.0</ele><time>2026-04-04T11:16:47.991Z</time></trkpt><trkpt lat="43.1453114" lon="11.4139684"><ele>245.0</ele><time>2026-04-04T11:16:48.981Z</time></trkpt><trkpt lat="43.1452576" lon="11.4141095"><ele>244.0</ele><time>2026-04-04T11:16:49.988Z</time></trkpt><trkpt lat="43.1452246" lon="11.4142592"><ele>243.0</ele><time>2026-04-04T11:16:50.991Z</time></trkpt><trkpt lat="43.1452121" lon="11.4144202"><ele>242.0</ele><time>2026-04-04T11:16:51.983Z</time></trkpt><trkpt lat="43.1452274" lon="11.4145848"><ele>240.5</ele><time>2026-04-04T11:16:52.992Z</time></trkpt><trkpt lat="43.145277" lon="11.4147378"><ele>239.0</ele><time>2026-04-04T11:16:53.994Z</time></trkpt><trkpt lat="43.1453531" lon="11.414874"><ele>237.5</ele><time>2026-04-04T11:16:54.999Z</time></trkpt><trkpt lat="43.1454401" lon="11.4150075"><ele>236.0</ele><time>2026-04-04T11:16:55.989Z</time></trkpt><trkpt lat="43.1455226" lon="11.4151395"><ele>236.0</ele><time>2026-04-04T11:16:56.99Z</time></trkpt><trkpt lat="43.1456006" lon="11.4152707"><ele>236.0</ele><time>2026-04-04T11:16:57.989Z</time></trkpt><trkpt lat="43.1456667" lon="11.4154067"><ele>236.0</ele><time>2026-04-04T11:16:58.987Z</time></trkpt><trkpt lat="43.1457161" lon="11.4155496"><ele>236.0</ele><time>2026-04-04T11:16:59.984Z</time></trkpt><trkpt lat="43.1457527" lon="11.4156968"><ele>236.0</ele><time>2026-04-04T11:17:00.991Z</time></trkpt><trkpt lat="43.1457744" lon="11.4158486"><ele>236.00000000000003</ele><time>2026-04-04T11:17:01.984Z</time></trkpt><trkpt lat="43.145779" lon="11.4160002"><ele>236.00000000000003</ele><time>2026-04-04T11:17:02.99Z</time></trkpt><trkpt lat="43.1457686" lon="11.4161481"><ele>236.0</ele><time>2026-04-04T11:17:03.99Z</time></trkpt><trkpt lat="43.145754" lon="11.4162955"><ele>236.0</ele><time>2026-04-04T11:17:04.995Z</time></trkpt><trkpt lat="43.1457387" lon="11.4164426"><ele>236.0</ele><time>2026-04-04T11:17:05.995Z</time></trkpt><trkpt lat="43.1457227" lon="11.4165944"><ele>236.0</ele><time>2026-04-04T11:17:06.99Z</time></trkpt><trkpt lat="43.1457081" lon="11.41675"><ele>236.0</ele><time>2026-04-04T11:17:07.986Z</time></trkpt><trkpt lat="43.1456887" lon="11.4169072"><ele>236.0</ele><time>2026-04-04T11:17:08.993Z</time></trkpt><trkpt lat="43.1456632" lon="11.4170667"><ele>231.25</ele><time>2026-04-04T11:17:09.985Z</time></trkpt><trkpt lat="43.1456229" lon="11.4172263"><ele>226.5</ele><time>2026-04-04T11:17:11.001Z</time></trkpt><trkpt lat="43.1455766" lon="11.4173837"><ele>221.75</ele><time>2026-04-04T11:17:11.994Z</time></trkpt><trkpt lat="43.1455292" lon="11.4175474"><ele>217.0</ele><time>2026-04-04T11:17:12.998Z</time></trkpt><trkpt lat="43.1454832" lon="11.4177162"><ele>217.0</ele><time>2026-04-04T11:17:14.001Z</time></trkpt><trkpt lat="43.1454372" lon="11.4178849"><ele>217.0</ele><time>2026-04-04T11:17:14.993Z</time></trkpt><trkpt lat="43.1453953" lon="11.4180605"><ele>217.0</ele><time>2026-04-04T11:17:15.994Z</time></trkpt><trkpt lat="43.1453665" lon="11.4182411"><ele>217.0</ele><time>2026-04-04T11:17:16.995Z</time></trkpt><trkpt lat="43.1453523" lon="11.4184251"><ele>216.25</ele><time>2026-04-04T11:17:17.989Z</time></trkpt><trkpt lat="43.145344" lon="11.4186061"><ele>215.5</ele><time>2026-04-04T11:17:18.998Z</time></trkpt><trkpt lat="43.1453391" lon="11.4187845"><ele>214.75</ele><time>2026-04-04T11:17:19.991Z</time></trkpt><trkpt lat="43.1453311" lon="11.4189589"><ele>214.0</ele><time>2026-04-04T11:17:21.003Z</time></trkpt><trkpt lat="43.1453182" lon="11.4191332"><ele>213.75</ele><time>2026-04-04T11:17:22Z</time></trkpt><trkpt lat="43.1453029" lon="11.4193053"><ele>213.5</ele><time>2026-04-04T11:17:22.994Z</time></trkpt><trkpt lat="43.1452732" lon="11.419472"><ele>213.25</ele><time>2026-04-04T11:17:23.997Z</time></trkpt><trkpt lat="43.1452344" lon="11.4196335"><ele>213.0</ele><time>2026-04-04T11:17:25.001Z</time></trkpt><trkpt lat="43.1451956" lon="11.4197933"><ele>212.25</ele><time>2026-04-04T11:17:25.998Z</time></trkpt><trkpt lat="43.1451627" lon="11.4199576"><ele>211.5</ele><time>2026-04-04T11:17:26.995Z</time></trkpt><trkpt lat="43.1451448" lon="11.4201256"><ele>210.75</ele><time>2026-04-04T11:17:28.002Z</time></trkpt><trkpt lat="43.1451374" lon="11.4202924"><ele>210.0</ele><time>2026-04-04T11:17:28.997Z</time></trkpt><trkpt lat="43.1451394" lon="11.420452"><ele>209.4</ele><time>2026-04-04T11:17:30.006Z</time></trkpt><trkpt lat="43.1451424" lon="11.4206069"><ele>208.8</ele><time>2026-04-04T11:17:30.998Z</time></trkpt><trkpt lat="43.1451493" lon="11.4207568"><ele>208.2</ele><time>2026-04-04T11:17:31.989Z</time></trkpt><trkpt lat="43.1451539" lon="11.4209"><ele>207.6</ele><time>2026-04-04T11:17:32.993Z</time></trkpt><trkpt lat="43.145158" lon="11.4210305"><ele>207.0</ele><time>2026-04-04T11:17:33.981Z</time></trkpt><trkpt lat="43.145173" lon="11.4211455"><ele>207.00000000000003</ele><time>2026-04-04T11:17:34.99Z</time></trkpt><trkpt lat="43.1451923" lon="11.4212555"><ele>207.0</ele><time>2026-04-04T11:17:35.995Z</time></trkpt><trkpt lat="43.1452125" lon="11.421359"><ele>207.0</ele><time>2026-04-04T11:17:36.998Z</time></trkpt><trkpt lat="43.1452381" lon="11.4214544"><ele>207.0</ele><time>2026-04-04T11:17:37.991Z</time></trkpt><trkpt lat="43.1452673" lon="11.4215442"><ele>207.0</ele><time>2026-04-04T11:17:38.992Z</time></trkpt><trkpt lat="43.1452921" lon="11.4216294"><ele>207.00000000000003</ele><time>2026-04-04T11:17:39.997Z</time></trkpt><trkpt lat="43.1453187" lon="11.4217121"><ele>207.0</ele><time>2026-04-04T11:17:40.993Z</time></trkpt><trkpt lat="43.1453666" lon="11.4218579"><ele>206.8</ele><time>2026-04-04T11:17:42.994Z</time></trkpt><trkpt lat="43.1454133" lon="11.4219959"><ele>206.6</ele><time>2026-04-04T11:17:44.996Z</time></trkpt><trkpt lat="43.1454617" lon="11.4221356"><ele>206.4</ele><time>2026-04-04T11:17:46.997Z</time></trkpt><trkpt lat="43.1455094" lon="11.4222873"><ele>206.20000000000002</ele><time>2026-04-04T11:17:48.992Z</time></trkpt><trkpt lat="43.1455398" lon="11.4223688"><ele>206.0</ele><time>2026-04-04T11:17:49.996Z</time></trkpt><trkpt lat="43.1455778" lon="11.4224561"><ele>206.16666666666669</ele><time>2026-04-04T11:17:50.989Z</time></trkpt><trkpt lat="43.1456135" lon="11.422548"><ele>206.33333333333334</ele><time>2026-04-04T11:17:51.99Z</time></trkpt><trkpt lat="43.1456493" lon="11.4226431"><ele>206.5</ele><time>2026-04-04T11:17:52.988Z</time></trkpt><trkpt lat="43.1456879" lon="11.4227475"><ele>206.66666666666669</ele><time>2026-04-04T11:17:53.994Z</time></trkpt><trkpt lat="43.1457245" lon="11.4228552"><ele>206.83333333333334</ele><time>2026-04-04T11:17:54.986Z</time></trkpt><trkpt lat="43.1457643" lon="11.4229684"><ele>207.0</ele><time>2026-04-04T11:17:55.99Z</time></trkpt><trkpt lat="43.1458013" lon="11.4230814"><ele>207.0</ele><time>2026-04-04T11:17:56.989Z</time></trkpt><trkpt lat="43.1458384" lon="11.4231944"><ele>207.0</ele><time>2026-04-04T11:17:57.991Z</time></trkpt><trkpt lat="43.1458737" lon="11.4233108"><ele>207.0</ele><time>2026-04-04T11:17:58.981Z</time></trkpt><trkpt lat="43.1459064" lon="11.4234306"><ele>207.0</ele><time>2026-04-04T11:17:59.989Z</time></trkpt><trkpt lat="43.1459326" lon="11.4235535"><ele>207.0</ele><time>2026-04-04T11:18:00.984Z</time></trkpt><trkpt lat="43.1459493" lon="11.4236739"><ele>207.0</ele><time>2026-04-04T11:18:01.989Z</time></trkpt><trkpt lat="43.145958" lon="11.4237983"><ele>207.0</ele><time>2026-04-04T11:18:02.993Z</time></trkpt><trkpt lat="43.1459545" lon="11.4239221"><ele>207.0</ele><time>2026-04-04T11:18:03.991Z</time></trkpt><trkpt lat="43.1459409" lon="11.4240413"><ele>207.0</ele><time>2026-04-04T11:18:04.993Z</time></trkpt><trkpt lat="43.1459142" lon="11.424158"><ele>207.0</ele><time>2026-04-04T11:18:05.995Z</time></trkpt><trkpt lat="43.1458806" lon="11.42427"><ele>207.0</ele><time>2026-04-04T11:18:06.99Z</time></trkpt><trkpt lat="43.1458315" lon="11.4243784"><ele>206.83333333333334</ele><time>2026-04-04T11:18:07.994Z</time></trkpt><trkpt lat="43.1457795" lon="11.4244846"><ele>206.66666666666669</ele><time>2026-04-04T11:18:08.991Z</time></trkpt><trkpt lat="43.1457252" lon="11.424589"><ele>206.5</ele><time>2026-04-04T11:18:09.995Z</time></trkpt><trkpt lat="43.1456677" lon="11.4246888"><ele>206.33333333333334</ele><time>2026-04-04T11:18:10.992Z</time></trkpt><trkpt lat="43.1456126" lon="11.4247762"><ele>206.16666666666669</ele><time>2026-04-04T11:18:11.998Z</time></trkpt><trkpt lat="43.1455722" lon="11.4248607"><ele>206.0</ele><time>2026-04-04T11:18:12.995Z</time></trkpt><trkpt lat="43.1455495" lon="11.4249459"><ele>206.0</ele><time>2026-04-04T11:18:13.998Z</time></trkpt><trkpt lat="43.1455411" lon="11.4250403"><ele>206.0</ele><time>2026-04-04T11:18:14.987Z</time></trkpt><trkpt lat="43.1455802" lon="11.4251851"><ele>206.0</ele><time>2026-04-04T11:18:16.993Z</time></trkpt><trkpt lat="43.1456418" lon="11.4252749"><ele>206.0</ele><time>2026-04-04T11:18:18.996Z</time></trkpt><trkpt lat="43.1457256" lon="11.4253211"><ele>206.0</ele><time>2026-04-04T11:18:28.989Z</time></trkpt><trkpt lat="43.1458245" lon="11.4253614"><ele>206.00000000000003</ele><time>2026-04-04T11:18:30.986Z</time></trkpt><trkpt lat="43.1459336" lon="11.4254249"><ele>206.0</ele><time>2026-04-04T11:18:32.997Z</time></trkpt><trkpt lat="43.1459923" lon="11.4254729"><ele>206.0</ele><time>2026-04-04T11:18:33.98Z</time></trkpt><trkpt lat="43.146057" lon="11.4255261"><ele>206.0</ele><time>2026-04-04T11:18:34.992Z</time></trkpt><trkpt lat="43.1461221" lon="11.4255883"><ele>206.00000000000003</ele><time>2026-04-04T11:18:35.999Z</time></trkpt><trkpt lat="43.1461865" lon="11.4256566"><ele>206.0</ele><time>2026-04-04T11:18:36.992Z</time></trkpt><trkpt lat="43.1462494" lon="11.4257341"><ele>205.0</ele><time>2026-04-04T11:18:37.993Z</time></trkpt><trkpt lat="43.1463123" lon="11.4258133"><ele>204.0</ele><time>2026-04-04T11:18:39Z</time></trkpt><trkpt lat="43.1463779" lon="11.4258907"><ele>203.0</ele><time>2026-04-04T11:18:39.992Z</time></trkpt><trkpt lat="43.1464509" lon="11.4259695"><ele>202.0</ele><time>2026-04-04T11:18:40.988Z</time></trkpt><trkpt lat="43.1465235" lon="11.4260484"><ele>201.0</ele><time>2026-04-04T11:18:41.996Z</time></trkpt><trkpt lat="43.1466012" lon="11.4261231"><ele>201.0</ele><time>2026-04-04T11:18:42.991Z</time></trkpt><trkpt lat="43.1466808" lon="11.4261989"><ele>201.0</ele><time>2026-04-04T11:18:43.989Z</time></trkpt><trkpt lat="43.146765" lon="11.4262682"><ele>201.0</ele><time>2026-04-04T11:18:44.987Z</time></trkpt><trkpt lat="43.1468531" lon="11.4263296"><ele>201.0</ele><time>2026-04-04T11:18:45.987Z</time></trkpt><trkpt lat="43.1469406" lon="11.4263889"><ele>201.0</ele><time>2026-04-04T11:18:46.988Z</time></trkpt><trkpt lat="43.14703" lon="11.4264534"><ele>201.0</ele><time>2026-04-04T11:18:47.995Z</time></trkpt><trkpt lat="43.1471169" lon="11.4265296"><ele>201.0</ele><time>2026-04-04T11:18:48.995Z</time></trkpt><trkpt lat="43.1471972" lon="11.4266193"><ele>201.0</ele><time>2026-04-04T11:18:49.992Z</time></trkpt><trkpt lat="43.1472706" lon="11.4267184"><ele>201.0</ele><time>2026-04-04T11:18:50.994Z</time></trkpt><trkpt lat="43.1473512" lon="11.4268169"><ele>201.0</ele><time>2026-04-04T11:18:51.988Z</time></trkpt><trkpt lat="43.1474235" lon="11.4269098"><ele>201.0</ele><time>2026-04-04T11:18:52.995Z</time></trkpt><trkpt lat="43.147496" lon="11.4269947"><ele>201.0</ele><time>2026-04-04T11:18:53.988Z</time></trkpt><trkpt lat="43.1475744" lon="11.4270655"><ele>201.0</ele><time>2026-04-04T11:18:54.999Z</time></trkpt><trkpt lat="43.1476543" lon="11.4271214"><ele>201.0</ele><time>2026-04-04T11:18:55.993Z</time></trkpt><trkpt lat="43.1477414" lon="11.4271664"><ele>201.0</ele><time>2026-04-04T11:18:56.994Z</time></trkpt><trkpt lat="43.1478341" lon="11.4271993"><ele>201.66666666666666</ele><time>2026-04-04T11:18:57.994Z</time></trkpt><trkpt lat="43.1479251" lon="11.4272205"><ele>202.33333333333331</ele><time>2026-04-04T11:18:58.997Z</time></trkpt><trkpt lat="43.1480097" lon="11.4272379"><ele>203.0</ele><time>2026-04-04T11:18:59.985Z</time></trkpt><trkpt lat="43.1480856" lon="11.4272581"><ele>203.66666666666666</ele><time>2026-04-04T11:19:00.992Z</time></trkpt><trkpt lat="43.1481584" lon="11.427285"><ele>204.33333333333331</ele><time>2026-04-04T11:19:01.985Z</time></trkpt><trkpt lat="43.1482257" lon="11.4273132"><ele>205.0</ele><time>2026-04-04T11:19:02.996Z</time></trkpt><trkpt lat="43.1482882" lon="11.4273489"><ele>205.0</ele><time>2026-04-04T11:19:03.989Z</time></trkpt><trkpt lat="43.1483482" lon="11.4273867"><ele>205.0</ele><time>2026-04-04T11:19:05.003Z</time></trkpt><trkpt lat="43.1484089" lon="11.4274275"><ele>205.0</ele><time>2026-04-04T11:19:05.992Z</time></trkpt><trkpt lat="43.1484733" lon="11.4274669"><ele>205.0</ele><time>2026-04-04T11:19:06.986Z</time></trkpt><trkpt lat="43.1485452" lon="11.4274928"><ele>205.0</ele><time>2026-04-04T11:19:07.985Z</time></trkpt><trkpt lat="43.1486211" lon="11.4275294"><ele>205.0</ele><time>2026-04-04T11:19:08.985Z</time></trkpt><trkpt lat="43.1487028" lon="11.4275686"><ele>205.0</ele><time>2026-04-04T11:19:09.986Z</time></trkpt><trkpt lat="43.1487911" lon="11.4276103"><ele>205.0</ele><time>2026-04-04T11:19:11.007Z</time></trkpt><trkpt lat="43.1488836" lon="11.4276631"><ele>205.0</ele><time>2026-04-04T11:19:11.986Z</time></trkpt><trkpt lat="43.1489783" lon="11.4277155"><ele>205.0</ele><time>2026-04-04T11:19:12.996Z</time></trkpt><trkpt lat="43.149073" lon="11.4277691"><ele>205.0</ele><time>2026-04-04T11:19:14Z</time></trkpt><trkpt lat="43.1491684" lon="11.4278287"><ele>205.0</ele><time>2026-04-04T11:19:14.987Z</time></trkpt><trkpt lat="43.1492603" lon="11.4279016"><ele>202.8</ele><time>2026-04-04T11:19:15.991Z</time></trkpt><trkpt lat="43.1493482" lon="11.4279869"><ele>200.6</ele><time>2026-04-04T11:19:16.984Z</time></trkpt><trkpt lat="43.1494319" lon="11.4280778"><ele>198.39999999999998</ele><time>2026-04-04T11:19:17.991Z</time></trkpt><trkpt lat="43.1495152" lon="11.4281698"><ele>196.2</ele><time>2026-04-04T11:19:18.985Z</time></trkpt><trkpt lat="43.1495974" lon="11.4282651"><ele>194.0</ele><time>2026-04-04T11:19:19.984Z</time></trkpt><trkpt lat="43.149681" lon="11.4283576"><ele>194.0</ele><time>2026-04-04T11:19:20.994Z</time></trkpt><trkpt lat="43.1497685" lon="11.428445"><ele>194.0</ele><time>2026-04-04T11:19:21.99Z</time></trkpt><trkpt lat="43.1498582" lon="11.4285283"><ele>194.0</ele><time>2026-04-04T11:19:23.004Z</time></trkpt><trkpt lat="43.1499413" lon="11.4286189"><ele>194.0</ele><time>2026-04-04T11:19:23.997Z</time></trkpt><trkpt lat="43.15002" lon="11.428717"><ele>194.0</ele><time>2026-04-04T11:19:24.984Z</time></trkpt><trkpt lat="43.1500899" lon="11.4288239"><ele>193.0</ele><time>2026-04-04T11:19:25.989Z</time></trkpt><trkpt lat="43.1501529" lon="11.4289386"><ele>192.0</ele><time>2026-04-04T11:19:26.982Z</time></trkpt><trkpt lat="43.1502118" lon="11.4290562"><ele>191.0</ele><time>2026-04-04T11:19:27.978Z</time></trkpt><trkpt lat="43.1502716" lon="11.4291716"><ele>190.0</ele><time>2026-04-04T11:19:28.993Z</time></trkpt><trkpt lat="43.1503383" lon="11.4292797"><ele>189.0</ele><time>2026-04-04T11:19:29.992Z</time></trkpt><trkpt lat="43.1504116" lon="11.4293843"><ele>189.0</ele><time>2026-04-04T11:19:30.995Z</time></trkpt><trkpt lat="43.1504912" lon="11.4294867"><ele>189.0</ele><time>2026-04-04T11:19:31.993Z</time></trkpt><trkpt lat="43.1505714" lon="11.4295863"><ele>189.0</ele><time>2026-04-04T11:19:32.991Z</time></trkpt><trkpt lat="43.1506547" lon="11.4296819"><ele>189.0</ele><time>2026-04-04T11:19:33.986Z</time></trkpt><trkpt lat="43.1507436" lon="11.4297726"><ele>189.0</ele><time>2026-04-04T11:19:34.996Z</time></trkpt><trkpt lat="43.1508342" lon="11.4298575"><ele>189.2</ele><time>2026-04-04T11:19:35.981Z</time></trkpt><trkpt lat="43.1509255" lon="11.4299406"><ele>189.39999999999998</ele><time>2026-04-04T11:19:36.977Z</time></trkpt><trkpt lat="43.1510063" lon="11.4300417"><ele>189.6</ele><time>2026-04-04T11:19:37.987Z</time></trkpt><trkpt lat="43.1510695" lon="11.4301577"><ele>189.8</ele><time>2026-04-04T11:19:38.981Z</time></trkpt><trkpt lat="43.1511113" lon="11.4302874"><ele>190.0</ele><time>2026-04-04T11:19:39.985Z</time></trkpt><trkpt lat="43.1511325" lon="11.4304215"><ele>188.6</ele><time>2026-04-04T11:19:40.987Z</time></trkpt><trkpt lat="43.1511374" lon="11.4305566"><ele>187.2</ele><time>2026-04-04T11:19:41.981Z</time></trkpt><trkpt lat="43.1511326" lon="11.4306838"><ele>185.8</ele><time>2026-04-04T11:19:42.985Z</time></trkpt><trkpt lat="43.1511187" lon="11.4308121"><ele>184.4</ele><time>2026-04-04T11:19:43.98Z</time></trkpt><trkpt lat="43.1511069" lon="11.4309418"><ele>183.0</ele><time>2026-04-04T11:19:44.983Z</time></trkpt><trkpt lat="43.1510965" lon="11.4310737"><ele>183.0</ele><time>2026-04-04T11:19:45.99Z</time></trkpt><trkpt lat="43.1510868" lon="11.4312072"><ele>183.0</ele><time>2026-04-04T11:19:46.978Z</time></trkpt><trkpt lat="43.1510803" lon="11.4313444"><ele>183.0</ele><time>2026-04-04T11:19:47.975Z</time></trkpt><trkpt lat="43.1510784" lon="11.4314819"><ele>183.0</ele><time>2026-04-04T11:19:48.988Z</time></trkpt><trkpt lat="43.151086" lon="11.4316187"><ele>183.0</ele><time>2026-04-04T11:19:49.98Z</time></trkpt><trkpt lat="43.1510977" lon="11.4317562"><ele>181.8</ele><time>2026-04-04T11:19:50.989Z</time></trkpt><trkpt lat="43.1511168" lon="11.4318999"><ele>180.60000000000002</ele><time>2026-04-04T11:19:51.987Z</time></trkpt><trkpt lat="43.1511291" lon="11.432042"><ele>179.39999999999998</ele><time>2026-04-04T11:19:52.981Z</time></trkpt><trkpt lat="43.1511247" lon="11.4321839"><ele>178.2</ele><time>2026-04-04T11:19:53.989Z</time></trkpt><trkpt lat="43.1511113" lon="11.432323"><ele>177.0</ele><time>2026-04-04T11:19:54.984Z</time></trkpt><trkpt lat="43.1511013" lon="11.432456"><ele>176.39999999999998</ele><time>2026-04-04T11:19:55.982Z</time></trkpt><trkpt lat="43.1511081" lon="11.4325852"><ele>175.79999999999998</ele><time>2026-04-04T11:19:56.988Z</time></trkpt><trkpt lat="43.1511276" lon="11.4327077"><ele>175.2</ele><time>2026-04-04T11:19:57.983Z</time></trkpt><trkpt lat="43.1511649" lon="11.4328198"><ele>174.6</ele><time>2026-04-04T11:19:58.991Z</time></trkpt><trkpt lat="43.1512171" lon="11.432923"><ele>174.0</ele><time>2026-04-04T11:19:59.991Z</time></trkpt><trkpt lat="43.1512809" lon="11.4330238"><ele>173.2</ele><time>2026-04-04T11:20:00.99Z</time></trkpt><trkpt lat="43.151353" lon="11.4331225"><ele>172.39999999999998</ele><time>2026-04-04T11:20:01.998Z</time></trkpt><trkpt lat="43.1514307" lon="11.4332194"><ele>171.6</ele><time>2026-04-04T11:20:02.984Z</time></trkpt><trkpt lat="43.1515141" lon="11.4333089"><ele>170.8</ele><time>2026-04-04T11:20:03.991Z</time></trkpt><trkpt lat="43.151601" lon="11.4333884"><ele>170.0</ele><time>2026-04-04T11:20:04.994Z</time></trkpt><trkpt lat="43.1516831" lon="11.433455"><ele>171.33333333333331</ele><time>2026-04-04T11:20:05.994Z</time></trkpt><trkpt lat="43.151768" lon="11.4335035"><ele>172.66666666666666</ele><time>2026-04-04T11:20:06.988Z</time></trkpt><trkpt lat="43.1518546" lon="11.4335318"><ele>174.0</ele><time>2026-04-04T11:20:07.99Z</time></trkpt><trkpt lat="43.1519374" lon="11.4335322"><ele>175.33333333333334</ele><time>2026-04-04T11:20:08.99Z</time></trkpt><trkpt lat="43.1520213" lon="11.4335132"><ele>176.66666666666669</ele><time>2026-04-04T11:20:09.98Z</time></trkpt><trkpt lat="43.1520998" lon="11.433468"><ele>178.0</ele><time>2026-04-04T11:20:10.998Z</time></trkpt><trkpt lat="43.152174" lon="11.4334027"><ele>178.0</ele><time>2026-04-04T11:20:11.987Z</time></trkpt><trkpt lat="43.1522471" lon="11.4333217"><ele>178.0</ele><time>2026-04-04T11:20:12.978Z</time></trkpt><trkpt lat="43.1523184" lon="11.4332318"><ele>178.0</ele><time>2026-04-04T11:20:13.989Z</time></trkpt><trkpt lat="43.1523878" lon="11.4331346"><ele>178.0</ele><time>2026-04-04T11:20:14.988Z</time></trkpt><trkpt lat="43.1524524" lon="11.433056"><ele>178.0</ele><time>2026-04-04T11:20:15.988Z</time></trkpt><trkpt lat="43.1525171" lon="11.4329946"><ele>178.28571428571428</ele><time>2026-04-04T11:20:16.99Z</time></trkpt><trkpt lat="43.1525834" lon="11.4329636"><ele>178.57142857142856</ele><time>2026-04-04T11:20:17.983Z</time></trkpt><trkpt lat="43.1526506" lon="11.4329669"><ele>178.85714285714283</ele><time>2026-04-04T11:20:18.984Z</time></trkpt><trkpt lat="43.1527165" lon="11.4330246"><ele>179.14285714285714</ele><time>2026-04-04T11:20:19.985Z</time></trkpt><trkpt lat="43.1527637" lon="11.4331028"><ele>179.42857142857144</ele><time>2026-04-04T11:20:20.987Z</time></trkpt><trkpt lat="43.1527831" lon="11.4332018"><ele>179.7142857142857</ele><time>2026-04-04T11:20:21.99Z</time></trkpt><trkpt lat="43.1527748" lon="11.4332961"><ele>180.0</ele><time>2026-04-04T11:20:22.986Z</time></trkpt><trkpt lat="43.1527442" lon="11.4333727"><ele>179.66666666666666</ele><time>2026-04-04T11:20:23.995Z</time></trkpt><trkpt lat="43.1527022" lon="11.4334427"><ele>179.33333333333334</ele><time>2026-04-04T11:20:24.998Z</time></trkpt><trkpt lat="43.152649" lon="11.4335104"><ele>179.0</ele><time>2026-04-04T11:20:25.982Z</time></trkpt><trkpt lat="43.1525845" lon="11.4335749"><ele>178.66666666666669</ele><time>2026-04-04T11:20:26.99Z</time></trkpt><trkpt lat="43.1525133" lon="11.4336421"><ele>178.33333333333334</ele><time>2026-04-04T11:20:27.985Z</time></trkpt><trkpt lat="43.1524384" lon="11.4337202"><ele>178.0</ele><time>2026-04-04T11:20:28.999Z</time></trkpt><trkpt lat="43.1523683" lon="11.4338023"><ele>176.0</ele><time>2026-04-04T11:20:29.99Z</time></trkpt><trkpt lat="43.1522956" lon="11.4338879"><ele>174.0</ele><time>2026-04-04T11:20:30.989Z</time></trkpt><trkpt lat="43.1522167" lon="11.4339793"><ele>172.0</ele><time>2026-04-04T11:20:31.989Z</time></trkpt><trkpt lat="43.1521273" lon="11.4340796"><ele>170.0</ele><time>2026-04-04T11:20:32.992Z</time></trkpt><trkpt lat="43.1520419" lon="11.4341861"><ele>168.0</ele><time>2026-04-04T11:20:33.988Z</time></trkpt><trkpt lat="43.1519535" lon="11.4342953"><ele>168.0</ele><time>2026-04-04T11:20:34.985Z</time></trkpt><trkpt lat="43.1518637" lon="11.4344075"><ele>168.0</ele><time>2026-04-04T11:20:35.986Z</time></trkpt><trkpt lat="43.1517743" lon="11.4345174"><ele>168.0</ele><time>2026-04-04T11:20:36.988Z</time></trkpt><trkpt lat="43.1516908" lon="11.4346323"><ele>168.0</ele><time>2026-04-04T11:20:37.984Z</time></trkpt><trkpt lat="43.1516229" lon="11.4347613"><ele>166.20000000000002</ele><time>2026-04-04T11:20:38.983Z</time></trkpt><trkpt lat="43.1515774" lon="11.4349019"><ele>164.4</ele><time>2026-04-04T11:20:39.982Z</time></trkpt><trkpt lat="43.1515549" lon="11.4350505"><ele>162.60000000000002</ele><time>2026-04-04T11:20:40.992Z</time></trkpt><trkpt lat="43.1515532" lon="11.4352013"><ele>160.8</ele><time>2026-04-04T11:20:41.993Z</time></trkpt><trkpt lat="43.1515623" lon="11.4353515"><ele>159.0</ele><time>2026-04-04T11:20:42.982Z</time></trkpt><trkpt lat="43.151581" lon="11.4355035"><ele>158.5</ele><time>2026-04-04T11:20:43.99Z</time></trkpt><trkpt lat="43.1516071" lon="11.4356538"><ele>158.0</ele><time>2026-04-04T11:20:44.987Z</time></trkpt><trkpt lat="43.1516312" lon="11.4358058"><ele>157.5</ele><time>2026-04-04T11:20:45.986Z</time></trkpt><trkpt lat="43.1516559" lon="11.435957"><ele>157.0</ele><time>2026-04-04T11:20:46.984Z</time></trkpt><trkpt lat="43.1516805" lon="11.4361129"><ele>157.0</ele><time>2026-04-04T11:20:47.989Z</time></trkpt><trkpt lat="43.1517064" lon="11.4362667"><ele>157.0</ele><time>2026-04-04T11:20:48.988Z</time></trkpt><trkpt lat="43.1517297" lon="11.4364258"><ele>157.0</ele><time>2026-04-04T11:20:49.996Z</time></trkpt><trkpt lat="43.1517566" lon="11.4365871"><ele>157.0</ele><time>2026-04-04T11:20:50.987Z</time></trkpt><trkpt lat="43.1517812" lon="11.4367567"><ele>156.75</ele><time>2026-04-04T11:20:51.995Z</time></trkpt><trkpt lat="43.1518067" lon="11.436926"><ele>156.5</ele><time>2026-04-04T11:20:52.989Z</time></trkpt><trkpt lat="43.1518328" lon="11.4370961"><ele>156.25</ele><time>2026-04-04T11:20:53.98Z</time></trkpt><trkpt lat="43.15186" lon="11.4372635"><ele>156.0</ele><time>2026-04-04T11:20:55Z</time></trkpt><trkpt lat="43.1518849" lon="11.4374266"><ele>156.0</ele><time>2026-04-04T11:20:55.982Z</time></trkpt><trkpt lat="43.1519074" lon="11.4375853"><ele>156.0</ele><time>2026-04-04T11:20:56.982Z</time></trkpt><trkpt lat="43.1519334" lon="11.43774"><ele>156.0</ele><time>2026-04-04T11:20:57.977Z</time></trkpt><trkpt lat="43.151958" lon="11.4378879"><ele>156.0</ele><time>2026-04-04T11:20:58.982Z</time></trkpt><trkpt lat="43.1519802" lon="11.4380177"><ele>156.0</ele><time>2026-04-04T11:20:59.987Z</time></trkpt><trkpt lat="43.1519976" lon="11.4381342"><ele>156.83333333333334</ele><time>2026-04-04T11:21:00.991Z</time></trkpt><trkpt lat="43.1520081" lon="11.4382454"><ele>157.66666666666666</ele><time>2026-04-04T11:21:01.997Z</time></trkpt><trkpt lat="43.1520144" lon="11.4383546"><ele>158.5</ele><time>2026-04-04T11:21:02.987Z</time></trkpt><trkpt lat="43.1520016" lon="11.4384613"><ele>159.33333333333331</ele><time>2026-04-04T11:21:03.987Z</time></trkpt><trkpt lat="43.1519766" lon="11.4385685"><ele>160.16666666666666</ele><time>2026-04-04T11:21:04.981Z</time></trkpt><trkpt lat="43.1519382" lon="11.4386724"><ele>161.0</ele><time>2026-04-04T11:21:05.986Z</time></trkpt><trkpt lat="43.1518896" lon="11.4387777"><ele>161.60000000000002</ele><time>2026-04-04T11:21:06.98Z</time></trkpt><trkpt lat="43.1518324" lon="11.4388727"><ele>162.2</ele><time>2026-04-04T11:21:07.998Z</time></trkpt><trkpt lat="43.151767" lon="11.4389708"><ele>162.8</ele><time>2026-04-04T11:21:08.992Z</time></trkpt><trkpt lat="43.1517021" lon="11.4390682"><ele>163.39999999999998</ele><time>2026-04-04T11:21:09.982Z</time></trkpt><trkpt lat="43.151636" lon="11.4391737"><ele>164.0</ele><time>2026-04-04T11:21:10.992Z</time></trkpt><trkpt lat="43.1515734" lon="11.4392829"><ele>163.6</ele><time>2026-04-04T11:21:11.987Z</time></trkpt><trkpt lat="43.1515215" lon="11.4393825"><ele>163.2</ele><time>2026-04-04T11:21:12.989Z</time></trkpt><trkpt lat="43.1514687" lon="11.439485"><ele>162.79999999999998</ele><time>2026-04-04T11:21:13.989Z</time></trkpt><trkpt lat="43.1514196" lon="11.4395834"><ele>162.39999999999998</ele><time>2026-04-04T11:21:14.98Z</time></trkpt><trkpt lat="43.1513614" lon="11.439681"><ele>162.0</ele><time>2026-04-04T11:21:15.986Z</time></trkpt><trkpt lat="43.1513029" lon="11.4397778"><ele>162.0</ele><time>2026-04-04T11:21:16.995Z</time></trkpt><trkpt lat="43.1512478" lon="11.4398882"><ele>162.0</ele><time>2026-04-04T11:21:17.994Z</time></trkpt><trkpt lat="43.1511971" lon="11.4400047"><ele>162.0</ele><time>2026-04-04T11:21:19.027Z</time></trkpt><trkpt lat="43.1511534" lon="11.4401265"><ele>162.0</ele><time>2026-04-04T11:21:19.993Z</time></trkpt><trkpt lat="43.1511031" lon="11.440241"><ele>162.0</ele><time>2026-04-04T11:21:20.988Z</time></trkpt><trkpt lat="43.1510611" lon="11.4403518"><ele>162.0</ele><time>2026-04-04T11:21:21.986Z</time></trkpt><trkpt lat="43.1510152" lon="11.440461"><ele>162.0</ele><time>2026-04-04T11:21:22.989Z</time></trkpt><trkpt lat="43.1509595" lon="11.440572"><ele>162.0</ele><time>2026-04-04T11:21:23.984Z</time></trkpt><trkpt lat="43.1508903" lon="11.4406817"><ele>162.0</ele><time>2026-04-04T11:21:24.994Z</time></trkpt><trkpt lat="43.1508065" lon="11.440783"><ele>162.0</ele><time>2026-04-04T11:21:25.989Z</time></trkpt><trkpt lat="43.150724" lon="11.440873"><ele>162.25</ele><time>2026-04-04T11:21:26.986Z</time></trkpt><trkpt lat="43.1506291" lon="11.4409431"><ele>162.5</ele><time>2026-04-04T11:21:27.981Z</time></trkpt><trkpt lat="43.1505264" lon="11.4410185"><ele>162.75</ele><time>2026-04-04T11:21:28.994Z</time></trkpt><trkpt lat="43.1504205" lon="11.4411033"><ele>163.0</ele><time>2026-04-04T11:21:29.982Z</time></trkpt><trkpt lat="43.1503132" lon="11.4411937"><ele>163.0</ele><time>2026-04-04T11:21:30.98Z</time></trkpt><trkpt lat="43.150202" lon="11.4412823"><ele>163.0</ele><time>2026-04-04T11:21:31.991Z</time></trkpt><trkpt lat="43.1500843" lon="11.441377"><ele>163.0</ele><time>2026-04-04T11:21:32.989Z</time></trkpt><trkpt lat="43.1499699" lon="11.4414673"><ele>163.0</ele><time>2026-04-04T11:21:33.985Z</time></trkpt><trkpt lat="43.1498564" lon="11.4415553"><ele>163.0</ele><time>2026-04-04T11:21:34.991Z</time></trkpt><trkpt lat="43.1497489" lon="11.4416422"><ele>163.0</ele><time>2026-04-04T11:21:35.975Z</time></trkpt><trkpt lat="43.1496396" lon="11.4417303"><ele>163.0</ele><time>2026-04-04T11:21:36.988Z</time></trkpt><trkpt lat="43.1495273" lon="11.4418158"><ele>163.0</ele><time>2026-04-04T11:21:37.992Z</time></trkpt><trkpt lat="43.1494155" lon="11.4419038"><ele>163.0</ele><time>2026-04-04T11:21:38.988Z</time></trkpt><trkpt lat="43.1493062" lon="11.4419929"><ele>163.0</ele><time>2026-04-04T11:21:39.985Z</time></trkpt><trkpt lat="43.1491991" lon="11.4420826"><ele>163.0</ele><time>2026-04-04T11:21:40.986Z</time></trkpt><trkpt lat="43.1490913" lon="11.4421717"><ele>163.0</ele><time>2026-04-04T11:21:41.995Z</time></trkpt><trkpt lat="43.1489836" lon="11.4422623"><ele>163.25</ele><time>2026-04-04T11:21:42.994Z</time></trkpt><trkpt lat="43.1488769" lon="11.4423572"><ele>163.5</ele><time>2026-04-04T11:21:43.983Z</time></trkpt><trkpt lat="43.1487774" lon="11.4424638"><ele>163.75</ele><time>2026-04-04T11:21:44.99Z</time></trkpt><trkpt lat="43.1486847" lon="11.4425862"><ele>164.0</ele><time>2026-04-04T11:21:46Z</time></trkpt><trkpt lat="43.1485942" lon="11.4427154"><ele>164.0</ele><time>2026-04-04T11:21:46.99Z</time></trkpt><trkpt lat="43.1485033" lon="11.4428476"><ele>164.0</ele><time>2026-04-04T11:21:47.99Z</time></trkpt><trkpt lat="43.1484143" lon="11.4429806"><ele>164.0</ele><time>2026-04-04T11:21:48.983Z</time></trkpt><trkpt lat="43.1483243" lon="11.4431144"><ele>164.0</ele><time>2026-04-04T11:21:49.988Z</time></trkpt><trkpt lat="43.1482386" lon="11.4432436"><ele>164.0</ele><time>2026-04-04T11:21:50.993Z</time></trkpt><trkpt lat="43.1481601" lon="11.4433624"><ele>164.0</ele><time>2026-04-04T11:21:51.992Z</time></trkpt><trkpt lat="43.1480956" lon="11.443476"><ele>164.0</ele><time>2026-04-04T11:21:52.989Z</time></trkpt><trkpt lat="43.1480543" lon="11.4435876"><ele>164.0</ele><time>2026-04-04T11:21:53.995Z</time></trkpt><trkpt lat="43.1480356" lon="11.4436985"><ele>164.0</ele><time>2026-04-04T11:21:54.982Z</time></trkpt><trkpt lat="43.1480383" lon="11.4438109"><ele>164.0</ele><time>2026-04-04T11:21:55.994Z</time></trkpt><trkpt lat="43.1480602" lon="11.4439285"><ele>164.0</ele><time>2026-04-04T11:21:56.991Z</time></trkpt><trkpt lat="43.1480993" lon="11.4440458"><ele>164.0</ele><time>2026-04-04T11:21:57.996Z</time></trkpt><trkpt lat="43.1481446" lon="11.4441597"><ele>164.0</ele><time>2026-04-04T11:21:58.986Z</time></trkpt><trkpt lat="43.148184" lon="11.4442718"><ele>164.0</ele><time>2026-04-04T11:21:59.988Z</time></trkpt><trkpt lat="43.1482031" lon="11.4443918"><ele>164.0</ele><time>2026-04-04T11:22:00.987Z</time></trkpt><trkpt lat="43.1481992" lon="11.4445169"><ele>164.0</ele><time>2026-04-04T11:22:01.987Z</time></trkpt><trkpt lat="43.1481721" lon="11.4446316"><ele>164.0</ele><time>2026-04-04T11:22:03.004Z</time></trkpt><trkpt lat="43.1481231" lon="11.444728"><ele>164.0</ele><time>2026-04-04T11:22:03.995Z</time></trkpt><trkpt lat="43.1480584" lon="11.444789"><ele>164.0</ele><time>2026-04-04T11:22:05Z</time></trkpt><trkpt lat="43.1479851" lon="11.4448143"><ele>164.0</ele><time>2026-04-04T11:22:05.981Z</time></trkpt><trkpt lat="43.147904" lon="11.4448125"><ele>164.0</ele><time>2026-04-04T11:22:06.981Z</time></trkpt><trkpt lat="43.1478184" lon="11.4447914"><ele>164.0</ele><time>2026-04-04T11:22:07.991Z</time></trkpt><trkpt lat="43.1477314" lon="11.4447534"><ele>164.0</ele><time>2026-04-04T11:22:08.99Z</time></trkpt><trkpt lat="43.1476406" lon="11.4447057"><ele>164.0</ele><time>2026-04-04T11:22:09.98Z</time></trkpt><trkpt lat="43.147544" lon="11.4446542"><ele>164.0</ele><time>2026-04-04T11:22:10.988Z</time></trkpt><trkpt lat="43.1474427" lon="11.4446078"><ele>163.5</ele><time>2026-04-04T11:22:11.98Z</time></trkpt><trkpt lat="43.1473332" lon="11.4445774"><ele>163.0</ele><time>2026-04-04T11:22:12.982Z</time></trkpt><trkpt lat="43.1472193" lon="11.4445546"><ele>162.5</ele><time>2026-04-04T11:22:13.986Z</time></trkpt><trkpt lat="43.1470998" lon="11.4445376"><ele>162.0</ele><time>2026-04-04T11:22:14.983Z</time></trkpt><trkpt lat="43.1469751" lon="11.4445234"><ele>162.0</ele><time>2026-04-04T11:22:15.986Z</time></trkpt><trkpt lat="43.1468449" lon="11.44452"><ele>162.0</ele><time>2026-04-04T11:22:16.986Z</time></trkpt><trkpt lat="43.1467152" lon="11.4445275"><ele>162.0</ele><time>2026-04-04T11:22:17.979Z</time></trkpt><trkpt lat="43.1465929" lon="11.4445501"><ele>162.0</ele><time>2026-04-04T11:22:18.993Z</time></trkpt><trkpt lat="43.1464766" lon="11.4445855"><ele>162.0</ele><time>2026-04-04T11:22:19.984Z</time></trkpt><trkpt lat="43.1463775" lon="11.4446324"><ele>162.0</ele><time>2026-04-04T11:22:20.995Z</time></trkpt><trkpt lat="43.1462993" lon="11.4446967"><ele>162.0</ele><time>2026-04-04T11:22:22.002Z</time></trkpt><trkpt lat="43.1462383" lon="11.4447763"><ele>162.0</ele><time>2026-04-04T11:22:23Z</time></trkpt><trkpt lat="43.1461915" lon="11.4448824"><ele>162.0</ele><time>2026-04-04T11:22:23.995Z</time></trkpt><trkpt lat="43.1461545" lon="11.4450045"><ele>162.0</ele><time>2026-04-04T11:22:24.995Z</time></trkpt><trkpt lat="43.1461261" lon="11.4451314"><ele>162.0</ele><time>2026-04-04T11:22:25.995Z</time></trkpt><trkpt lat="43.146113" lon="11.4452622"><ele>162.0</ele><time>2026-04-04T11:22:26.994Z</time></trkpt><trkpt lat="43.1461177" lon="11.4453956"><ele>162.0</ele><time>2026-04-04T11:22:27.992Z</time></trkpt><trkpt lat="43.1461383" lon="11.4455253"><ele>162.0</ele><time>2026-04-04T11:22:28.986Z</time></trkpt><trkpt lat="43.1461681" lon="11.4456556"><ele>161.8</ele><time>2026-04-04T11:22:29.988Z</time></trkpt><trkpt lat="43.1462054" lon="11.4457899"><ele>161.6</ele><time>2026-04-04T11:22:30.981Z</time></trkpt><trkpt lat="43.1462407" lon="11.4459337"><ele>161.4</ele><time>2026-04-04T11:22:31.987Z</time></trkpt><trkpt lat="43.1462796" lon="11.4460788"><ele>161.20000000000002</ele><time>2026-04-04T11:22:32.985Z</time></trkpt><trkpt lat="43.1463165" lon="11.446224"><ele>161.0</ele><time>2026-04-04T11:22:33.983Z</time></trkpt><trkpt lat="43.1463531" lon="11.4463628"><ele>162.0</ele><time>2026-04-04T11:22:34.99Z</time></trkpt><trkpt lat="43.1463881" lon="11.4464929"><ele>163.0</ele><time>2026-04-04T11:22:35.992Z</time></trkpt><trkpt lat="43.1464116" lon="11.446613"><ele>164.0</ele><time>2026-04-04T11:22:36.988Z</time></trkpt><trkpt lat="43.146416" lon="11.4467271"><ele>165.0</ele><time>2026-04-04T11:22:37.99Z</time></trkpt><trkpt lat="43.1463955" lon="11.4468224"><ele>166.0</ele><time>2026-04-04T11:22:38.981Z</time></trkpt><trkpt lat="43.1463054" lon="11.4469089"><ele>166.0</ele><time>2026-04-04T11:22:40.994Z</time></trkpt><trkpt lat="43.1462411" lon="11.4469114"><ele>166.0</ele><time>2026-04-04T11:22:41.979Z</time></trkpt><trkpt lat="43.1461681" lon="11.4469015"><ele>166.0</ele><time>2026-04-04T11:22:42.995Z</time></trkpt><trkpt lat="43.1460869" lon="11.4468808"><ele>166.0</ele><time>2026-04-04T11:22:43.986Z</time></trkpt><trkpt lat="43.1460028" lon="11.4468627"><ele>166.0</ele><time>2026-04-04T11:22:44.982Z</time></trkpt><trkpt lat="43.1459128" lon="11.446852"><ele>166.0</ele><time>2026-04-04T11:22:45.987Z</time></trkpt><trkpt lat="43.1458254" lon="11.4468512"><ele>166.0</ele><time>2026-04-04T11:22:46.977Z</time></trkpt><trkpt lat="43.145739" lon="11.4468552"><ele>166.0</ele><time>2026-04-04T11:22:47.99Z</time></trkpt><trkpt lat="43.1456512" lon="11.4468641"><ele>166.0</ele><time>2026-04-04T11:22:48.986Z</time></trkpt><trkpt lat="43.1455627" lon="11.4468842"><ele>166.0</ele><time>2026-04-04T11:22:49.993Z</time></trkpt><trkpt lat="43.1454773" lon="11.4469208"><ele>166.0</ele><time>2026-04-04T11:22:50.994Z</time></trkpt><trkpt lat="43.1453958" lon="11.4469769"><ele>166.0</ele><time>2026-04-04T11:22:51.991Z</time></trkpt><trkpt lat="43.1453143" lon="11.447047"><ele>166.33333333333334</ele><time>2026-04-04T11:22:52.988Z</time></trkpt><trkpt lat="43.145233" lon="11.4471238"><ele>166.66666666666669</ele><time>2026-04-04T11:22:53.998Z</time></trkpt><trkpt lat="43.1451578" lon="11.4472078"><ele>167.0</ele><time>2026-04-04T11:22:55.005Z</time></trkpt><trkpt lat="43.1450899" lon="11.4472899"><ele>167.33333333333334</ele><time>2026-04-04T11:22:55.993Z</time></trkpt><trkpt lat="43.1450295" lon="11.4473672"><ele>167.66666666666666</ele><time>2026-04-04T11:22:56.99Z</time></trkpt><trkpt lat="43.1449735" lon="11.4474444"><ele>168.0</ele><time>2026-04-04T11:22:57.99Z</time></trkpt><trkpt lat="43.1449285" lon="11.4475259"><ele>168.0</ele><time>2026-04-04T11:22:58.991Z</time></trkpt><trkpt lat="43.1449002" lon="11.4476151"><ele>168.0</ele><time>2026-04-04T11:22:59.995Z</time></trkpt><trkpt lat="43.1448852" lon="11.4477508"><ele>168.0</ele><time>2026-04-04T11:23:01.991Z</time></trkpt><trkpt lat="43.1448844" lon="11.44785"><ele>168.0</ele><time>2026-04-04T11:23:04.986Z</time></trkpt><trkpt lat="43.1448821" lon="11.4479644"><ele>168.0</ele><time>2026-04-04T11:23:17.992Z</time></trkpt><trkpt lat="43.1448866" lon="11.448104"><ele>168.0</ele><time>2026-04-04T11:23:19.998Z</time></trkpt><trkpt lat="43.1448778" lon="11.4482542"><ele>167.83333333333334</ele><time>2026-04-04T11:23:22.006Z</time></trkpt><trkpt lat="43.1448242" lon="11.4484051"><ele>167.66666666666666</ele><time>2026-04-04T11:23:24.009Z</time></trkpt><trkpt lat="43.1447814" lon="11.4484721"><ele>167.5</ele><time>2026-04-04T11:23:25.006Z</time></trkpt><trkpt lat="43.1447184" lon="11.4485245"><ele>167.33333333333331</ele><time>2026-04-04T11:23:26.004Z</time></trkpt><trkpt lat="43.1446462" lon="11.4485593"><ele>167.16666666666666</ele><time>2026-04-04T11:23:27.007Z</time></trkpt><trkpt lat="43.1445672" lon="11.4485799"><ele>167.0</ele><time>2026-04-04T11:23:27.993Z</time></trkpt><trkpt lat="43.1444829" lon="11.4485809"><ele>167.0</ele><time>2026-04-04T11:23:28.998Z</time></trkpt><trkpt lat="43.1444027" lon="11.4485735"><ele>167.0</ele><time>2026-04-04T11:23:29.998Z</time></trkpt><trkpt lat="43.1443191" lon="11.4485583"><ele>167.0</ele><time>2026-04-04T11:23:30.997Z</time></trkpt><trkpt lat="43.144233" lon="11.448537"><ele>167.0</ele><time>2026-04-04T11:23:31.993Z</time></trkpt><trkpt lat="43.1441409" lon="11.4485069"><ele>167.0</ele><time>2026-04-04T11:23:32.987Z</time></trkpt><trkpt lat="43.1440465" lon="11.4484658"><ele>167.0</ele><time>2026-04-04T11:23:33.998Z</time></trkpt><trkpt lat="43.1439494" lon="11.4484127"><ele>168.25</ele><time>2026-04-04T11:23:34.984Z</time></trkpt><trkpt lat="43.143848" lon="11.448357"><ele>169.5</ele><time>2026-04-04T11:23:35.973Z</time></trkpt><trkpt lat="43.1437464" lon="11.4482895"><ele>170.75</ele><time>2026-04-04T11:23:36.98Z</time></trkpt><trkpt lat="43.1436397" lon="11.448213"><ele>172.0</ele><time>2026-04-04T11:23:37.969Z</time></trkpt><trkpt lat="43.1435296" lon="11.448136"><ele>172.0</ele><time>2026-04-04T11:23:38.985Z</time></trkpt><trkpt lat="43.1434168" lon="11.448055"><ele>172.0</ele><time>2026-04-04T11:23:39.98Z</time></trkpt><trkpt lat="43.1433086" lon="11.447965"><ele>172.0</ele><time>2026-04-04T11:23:40.993Z</time></trkpt><trkpt lat="43.1431999" lon="11.4478831"><ele>172.0</ele><time>2026-04-04T11:23:41.996Z</time></trkpt><trkpt lat="43.1430878" lon="11.4478059"><ele>169.75</ele><time>2026-04-04T11:23:42.986Z</time></trkpt><trkpt lat="43.1429692" lon="11.4477447"><ele>167.5</ele><time>2026-04-04T11:23:43.979Z</time></trkpt><trkpt lat="43.1428483" lon="11.4477042"><ele>165.25</ele><time>2026-04-04T11:23:44.987Z</time></trkpt><trkpt lat="43.1427266" lon="11.4476805"><ele>163.0</ele><time>2026-04-04T11:23:46.008Z</time></trkpt><trkpt lat="43.1426015" lon="11.4476818"><ele>163.0</ele><time>2026-04-04T11:23:46.981Z</time></trkpt><trkpt lat="43.1424769" lon="11.4476977"><ele>163.0</ele><time>2026-04-04T11:23:47.983Z</time></trkpt><trkpt lat="43.1423552" lon="11.4477262"><ele>163.0</ele><time>2026-04-04T11:23:48.987Z</time></trkpt><trkpt lat="43.1422296" lon="11.4477661"><ele>163.0</ele><time>2026-04-04T11:23:50.018Z</time></trkpt><trkpt lat="43.1421038" lon="11.4478109"><ele>162.75</ele><time>2026-04-04T11:23:50.98Z</time></trkpt><trkpt lat="43.141973" lon="11.4478604"><ele>162.5</ele><time>2026-04-04T11:23:51.975Z</time></trkpt><trkpt lat="43.1418393" lon="11.4479151"><ele>162.25</ele><time>2026-04-04T11:23:52.99Z</time></trkpt><trkpt lat="43.1417028" lon="11.4479661"><ele>162.0</ele><time>2026-04-04T11:23:53.997Z</time></trkpt><trkpt lat="43.1415629" lon="11.4480112"><ele>164.25</ele><time>2026-04-04T11:23:54.982Z</time></trkpt><trkpt lat="43.1414187" lon="11.448048"><ele>166.5</ele><time>2026-04-04T11:23:55.997Z</time></trkpt><trkpt lat="43.1412737" lon="11.4480764"><ele>168.75</ele><time>2026-04-04T11:23:56.999Z</time></trkpt><trkpt lat="43.1411317" lon="11.4481033"><ele>171.0</ele><time>2026-04-04T11:23:58.005Z</time></trkpt><trkpt lat="43.1409909" lon="11.4481287"><ele>171.0</ele><time>2026-04-04T11:23:59.006Z</time></trkpt><trkpt lat="43.1408591" lon="11.4481519"><ele>171.0</ele><time>2026-04-04T11:24:00.013Z</time></trkpt><trkpt lat="43.1407375" lon="11.4481656"><ele>171.0</ele><time>2026-04-04T11:24:00.992Z</time></trkpt><trkpt lat="43.1406194" lon="11.4481733"><ele>171.0</ele><time>2026-04-04T11:24:02.006Z</time></trkpt><trkpt lat="43.1405054" lon="11.4481648"><ele>170.25</ele><time>2026-04-04T11:24:02.994Z</time></trkpt><trkpt lat="43.1403914" lon="11.4481348"><ele>169.5</ele><time>2026-04-04T11:24:03.998Z</time></trkpt><trkpt lat="43.1402768" lon="11.4480911"><ele>168.75</ele><time>2026-04-04T11:24:04.998Z</time></trkpt><trkpt lat="43.1401605" lon="11.4480376"><ele>168.0</ele><time>2026-04-04T11:24:05.994Z</time></trkpt><trkpt lat="43.1400482" lon="11.4479835"><ele>167.60000000000002</ele><time>2026-04-04T11:24:06.998Z</time></trkpt><trkpt lat="43.1399415" lon="11.4479245"><ele>167.20000000000002</ele><time>2026-04-04T11:24:08.025Z</time></trkpt><trkpt lat="43.139846" lon="11.4478671"><ele>166.8</ele><time>2026-04-04T11:24:08.982Z</time></trkpt><trkpt lat="43.1397624" lon="11.4478246"><ele>166.4</ele><time>2026-04-04T11:24:10.011Z</time></trkpt><trkpt lat="43.1396731" lon="11.4478075"><ele>166.0</ele><time>2026-04-04T11:24:10.999Z</time></trkpt><trkpt lat="43.1395871" lon="11.4478212"><ele>164.8</ele><time>2026-04-04T11:24:11.997Z</time></trkpt><trkpt lat="43.1395049" lon="11.4478634"><ele>163.60000000000002</ele><time>2026-04-04T11:24:12.988Z</time></trkpt><trkpt lat="43.1394343" lon="11.4479363"><ele>162.4</ele><time>2026-04-04T11:24:14.018Z</time></trkpt><trkpt lat="43.1393764" lon="11.4480285"><ele>161.2</ele><time>2026-04-04T11:24:14.989Z</time></trkpt><trkpt lat="43.1393361" lon="11.4481427"><ele>160.0</ele><time>2026-04-04T11:24:16.013Z</time></trkpt><trkpt lat="43.1393065" lon="11.4482709"><ele>160.0</ele><time>2026-04-04T11:24:17Z</time></trkpt><trkpt lat="43.13929" lon="11.4484076"><ele>160.0</ele><time>2026-04-04T11:24:18.019Z</time></trkpt><trkpt lat="43.1392788" lon="11.4485552"><ele>160.0</ele><time>2026-04-04T11:24:18.984Z</time></trkpt><trkpt lat="43.1392664" lon="11.4487079"><ele>160.0</ele><time>2026-04-04T11:24:19.998Z</time></trkpt><trkpt lat="43.1392601" lon="11.4488733"><ele>160.0</ele><time>2026-04-04T11:24:20.988Z</time></trkpt><trkpt lat="43.1392586" lon="11.4490446"><ele>160.0</ele><time>2026-04-04T11:24:22.001Z</time></trkpt><trkpt lat="43.1392604" lon="11.4492146"><ele>160.0</ele><time>2026-04-04T11:24:22.995Z</time></trkpt><trkpt lat="43.1392619" lon="11.449396"><ele>160.0</ele><time>2026-04-04T11:24:24.003Z</time></trkpt><trkpt lat="43.1392632" lon="11.4495835"><ele>160.0</ele><time>2026-04-04T11:24:25.009Z</time></trkpt><trkpt lat="43.1392652" lon="11.4497739"><ele>160.0</ele><time>2026-04-04T11:24:25.995Z</time></trkpt><trkpt lat="43.1392664" lon="11.4499559"><ele>160.0</ele><time>2026-04-04T11:24:26.981Z</time></trkpt><trkpt lat="43.1392688" lon="11.4501313"><ele>160.0</ele><time>2026-04-04T11:24:27.999Z</time></trkpt><trkpt lat="43.1392717" lon="11.4503003"><ele>160.0</ele><time>2026-04-04T11:24:28.993Z</time></trkpt><trkpt lat="43.1392766" lon="11.4504631"><ele>160.5</ele><time>2026-04-04T11:24:30.005Z</time></trkpt><trkpt lat="43.1392745" lon="11.4506234"><ele>161.0</ele><time>2026-04-04T11:24:30.996Z</time></trkpt><trkpt lat="43.1392522" lon="11.4507792"><ele>161.5</ele><time>2026-04-04T11:24:31.994Z</time></trkpt><trkpt lat="43.1392114" lon="11.4509238"><ele>162.0</ele><time>2026-04-04T11:24:32.976Z</time></trkpt><trkpt lat="43.1391553" lon="11.4510609"><ele>162.0</ele><time>2026-04-04T11:24:33.981Z</time></trkpt><trkpt lat="43.1390889" lon="11.4511988"><ele>162.0</ele><time>2026-04-04T11:24:34.979Z</time></trkpt><trkpt lat="43.139018" lon="11.4513374"><ele>162.0</ele><time>2026-04-04T11:24:36Z</time></trkpt><trkpt lat="43.1389435" lon="11.4514821"><ele>162.0</ele><time>2026-04-04T11:24:36.98Z</time></trkpt><trkpt lat="43.1388703" lon="11.4516309"><ele>161.25</ele><time>2026-04-04T11:24:38.006Z</time></trkpt><trkpt lat="43.1387902" lon="11.4517814"><ele>160.5</ele><time>2026-04-04T11:24:38.99Z</time></trkpt><trkpt lat="43.1387095" lon="11.4519257"><ele>159.75</ele><time>2026-04-04T11:24:40.005Z</time></trkpt><trkpt lat="43.138626" lon="11.4520668"><ele>159.0</ele><time>2026-04-04T11:24:40.992Z</time></trkpt><trkpt lat="43.1385396" lon="11.452198"><ele>159.0</ele><time>2026-04-04T11:24:41.99Z</time></trkpt><trkpt lat="43.1384489" lon="11.4523185"><ele>159.0</ele><time>2026-04-04T11:24:43.005Z</time></trkpt><trkpt lat="43.1383529" lon="11.4524284"><ele>159.0</ele><time>2026-04-04T11:24:43.994Z</time></trkpt><trkpt lat="43.1382555" lon="11.4525269"><ele>159.0</ele><time>2026-04-04T11:24:44.984Z</time></trkpt><trkpt lat="43.1381521" lon="11.4526157"><ele>157.5</ele><time>2026-04-04T11:24:45.981Z</time></trkpt><trkpt lat="43.1380423" lon="11.4526969"><ele>156.0</ele><time>2026-04-04T11:24:46.993Z</time></trkpt><trkpt lat="43.137931" lon="11.452776"><ele>154.5</ele><time>2026-04-04T11:24:47.997Z</time></trkpt><trkpt lat="43.1378163" lon="11.4528532"><ele>153.0</ele><time>2026-04-04T11:24:48.999Z</time></trkpt><trkpt lat="43.137702" lon="11.4529304"><ele>153.0</ele><time>2026-04-04T11:24:49.991Z</time></trkpt><trkpt lat="43.137588" lon="11.4530022"><ele>153.0</ele><time>2026-04-04T11:24:51.006Z</time></trkpt><trkpt lat="43.1374735" lon="11.453076"><ele>153.0</ele><time>2026-04-04T11:24:52.007Z</time></trkpt><trkpt lat="43.1373602" lon="11.4531537"><ele>153.0</ele><time>2026-04-04T11:24:53.004Z</time></trkpt><trkpt lat="43.1372498" lon="11.4532425"><ele>153.0</ele><time>2026-04-04T11:24:53.996Z</time></trkpt><trkpt lat="43.1371433" lon="11.4533399"><ele>153.0</ele><time>2026-04-04T11:24:54.991Z</time></trkpt><trkpt lat="43.1370374" lon="11.4534432"><ele>153.0</ele><time>2026-04-04T11:24:55.989Z</time></trkpt><trkpt lat="43.1369342" lon="11.4535517"><ele>153.0</ele><time>2026-04-04T11:24:56.989Z</time></trkpt><trkpt lat="43.1368326" lon="11.4536585"><ele>153.0</ele><time>2026-04-04T11:24:57.987Z</time></trkpt><trkpt lat="43.1367313" lon="11.45377"><ele>153.0</ele><time>2026-04-04T11:24:59.011Z</time></trkpt><trkpt lat="43.1366319" lon="11.4538857"><ele>153.0</ele><time>2026-04-04T11:25:00.01Z</time></trkpt><trkpt lat="43.1365361" lon="11.4540085"><ele>153.0</ele><time>2026-04-04T11:25:00.988Z</time></trkpt><trkpt lat="43.1364465" lon="11.4541415"><ele>152.5</ele><time>2026-04-04T11:25:02.014Z</time></trkpt><trkpt lat="43.1363606" lon="11.4542813"><ele>152.0</ele><time>2026-04-04T11:25:02.997Z</time></trkpt><trkpt lat="43.1362778" lon="11.4544284"><ele>151.5</ele><time>2026-04-04T11:25:04Z</time></trkpt><trkpt lat="43.1362004" lon="11.4545831"><ele>151.0</ele><time>2026-04-04T11:25:04.993Z</time></trkpt><trkpt lat="43.1361254" lon="11.4547428"><ele>152.25</ele><time>2026-04-04T11:25:06.001Z</time></trkpt><trkpt lat="43.136052" lon="11.4549129"><ele>153.5</ele><time>2026-04-04T11:25:07Z</time></trkpt><trkpt lat="43.13598" lon="11.4550833"><ele>154.75</ele><time>2026-04-04T11:25:07.994Z</time></trkpt><trkpt lat="43.1359046" lon="11.4552485"><ele>156.0</ele><time>2026-04-04T11:25:09.004Z</time></trkpt><trkpt lat="43.1358237" lon="11.4554004"><ele>155.0</ele><time>2026-04-04T11:25:10.003Z</time></trkpt><trkpt lat="43.135737" lon="11.4555373"><ele>154.0</ele><time>2026-04-04T11:25:10.989Z</time></trkpt><trkpt lat="43.1356415" lon="11.4556586"><ele>153.0</ele><time>2026-04-04T11:25:11.993Z</time></trkpt><trkpt lat="43.1355395" lon="11.4557735"><ele>152.0</ele><time>2026-04-04T11:25:12.999Z</time></trkpt><trkpt lat="43.13543" lon="11.4558839"><ele>152.0</ele><time>2026-04-04T11:25:14.002Z</time></trkpt><trkpt lat="43.1353193" lon="11.4559919"><ele>152.0</ele><time>2026-04-04T11:25:15.001Z</time></trkpt><trkpt lat="43.1352089" lon="11.456103"><ele>152.0</ele><time>2026-04-04T11:25:15.995Z</time></trkpt><trkpt lat="43.1350946" lon="11.4562172"><ele>152.0</ele><time>2026-04-04T11:25:16.995Z</time></trkpt><trkpt lat="43.1349781" lon="11.4563324"><ele>152.0</ele><time>2026-04-04T11:25:17.999Z</time></trkpt><trkpt lat="43.1348591" lon="11.4564525"><ele>152.0</ele><time>2026-04-04T11:25:18.989Z</time></trkpt><trkpt lat="43.1347362" lon="11.456577"><ele>152.0</ele><time>2026-04-04T11:25:19.989Z</time></trkpt><trkpt lat="43.1346128" lon="11.4567055"><ele>152.0</ele><time>2026-04-04T11:25:20.998Z</time></trkpt><trkpt lat="43.134486" lon="11.456832"><ele>152.0</ele><time>2026-04-04T11:25:21.998Z</time></trkpt><trkpt lat="43.1343576" lon="11.4569606"><ele>152.0</ele><time>2026-04-04T11:25:22.986Z</time></trkpt><trkpt lat="43.1342281" lon="11.4570858"><ele>151.33333333333331</ele><time>2026-04-04T11:25:24.01Z</time></trkpt><trkpt lat="43.1341026" lon="11.45721"><ele>150.66666666666666</ele><time>2026-04-04T11:25:24.996Z</time></trkpt><trkpt lat="43.1339745" lon="11.4573391"><ele>150.0</ele><time>2026-04-04T11:25:25.996Z</time></trkpt><trkpt lat="43.1338463" lon="11.4574665"><ele>150.0</ele><time>2026-04-04T11:25:27.01Z</time></trkpt><trkpt lat="43.1337241" lon="11.4575856"><ele>150.0</ele><time>2026-04-04T11:25:27.99Z</time></trkpt><trkpt lat="43.1336014" lon="11.4576958"><ele>150.0</ele><time>2026-04-04T11:25:28.984Z</time></trkpt><trkpt lat="43.13348" lon="11.4578037"><ele>150.0</ele><time>2026-04-04T11:25:29.984Z</time></trkpt><trkpt lat="43.1333591" lon="11.4579048"><ele>149.4</ele><time>2026-04-04T11:25:30.985Z</time></trkpt><trkpt lat="43.1332526" lon="11.4580021"><ele>148.8</ele><time>2026-04-04T11:25:31.976Z</time></trkpt><trkpt lat="43.1331674" lon="11.4580924"><ele>148.2</ele><time>2026-04-04T11:25:32.99Z</time></trkpt><trkpt lat="43.1330991" lon="11.4581752"><ele>147.6</ele><time>2026-04-04T11:25:33.991Z</time></trkpt><trkpt lat="43.1330427" lon="11.4582547"><ele>147.0</ele><time>2026-04-04T11:25:34.989Z</time></trkpt><trkpt lat="43.1329554" lon="11.4583778"><ele>147.0</ele><time>2026-04-04T11:25:36.978Z</time></trkpt><trkpt lat="43.1328694" lon="11.4584763"><ele>147.0</ele><time>2026-04-04T11:25:38.994Z</time></trkpt><trkpt lat="43.1327763" lon="11.4585873"><ele>147.0</ele><time>2026-04-04T11:25:40.985Z</time></trkpt><trkpt lat="43.1327277" lon="11.4586485"><ele>147.0</ele><time>2026-04-04T11:25:42.006Z</time></trkpt><trkpt lat="43.1326803" lon="11.4587205"><ele>147.0</ele><time>2026-04-04T11:25:42.99Z</time></trkpt><trkpt lat="43.1326336" lon="11.4588069"><ele>147.83333333333334</ele><time>2026-04-04T11:25:43.982Z</time></trkpt><trkpt lat="43.1325926" lon="11.4589023"><ele>148.66666666666666</ele><time>2026-04-04T11:25:44.994Z</time></trkpt><trkpt lat="43.1325562" lon="11.4590069"><ele>149.5</ele><time>2026-04-04T11:25:45.984Z</time></trkpt><trkpt lat="43.1325212" lon="11.4591199"><ele>150.33333333333331</ele><time>2026-04-04T11:25:46.976Z</time></trkpt><trkpt lat="43.132493" lon="11.4592444"><ele>151.16666666666666</ele><time>2026-04-04T11:25:47.99Z</time></trkpt><trkpt lat="43.1324616" lon="11.459373"><ele>152.0</ele><time>2026-04-04T11:25:48.994Z</time></trkpt><trkpt lat="43.1324291" lon="11.4595069"><ele>152.6</ele><time>2026-04-04T11:25:49.987Z</time></trkpt><trkpt lat="43.1323942" lon="11.4596469"><ele>153.2</ele><time>2026-04-04T11:25:50.987Z</time></trkpt><trkpt lat="43.1323584" lon="11.4597886"><ele>153.8</ele><time>2026-04-04T11:25:51.992Z</time></trkpt><trkpt lat="43.132323" lon="11.4599358"><ele>154.4</ele><time>2026-04-04T11:25:52.982Z</time></trkpt><trkpt lat="43.1322865" lon="11.4600802"><ele>155.0</ele><time>2026-04-04T11:25:53.992Z</time></trkpt><trkpt lat="43.1322479" lon="11.4602175"><ele>153.2</ele><time>2026-04-04T11:25:54.993Z</time></trkpt><trkpt lat="43.1322107" lon="11.4603442"><ele>151.4</ele><time>2026-04-04T11:25:55.992Z</time></trkpt><trkpt lat="43.1321752" lon="11.4604717"><ele>149.6</ele><time>2026-04-04T11:25:56.985Z</time></trkpt><trkpt lat="43.132146" lon="11.4605915"><ele>147.8</ele><time>2026-04-04T11:25:57.991Z</time></trkpt><trkpt lat="43.1321234" lon="11.4607107"><ele>146.0</ele><time>2026-04-04T11:25:58.997Z</time></trkpt><trkpt lat="43.1321067" lon="11.4608269"><ele>146.0</ele><time>2026-04-04T11:25:59.995Z</time></trkpt><trkpt lat="43.1320985" lon="11.4609416"><ele>146.0</ele><time>2026-04-04T11:26:00.989Z</time></trkpt><trkpt lat="43.1320996" lon="11.4610569"><ele>146.0</ele><time>2026-04-04T11:26:01.99Z</time></trkpt><trkpt lat="43.1321109" lon="11.4611697"><ele>146.0</ele><time>2026-04-04T11:26:02.988Z</time></trkpt><trkpt lat="43.1321288" lon="11.4612857"><ele>146.0</ele><time>2026-04-04T11:26:03.988Z</time></trkpt><trkpt lat="43.1321426" lon="11.4614014"><ele>146.0</ele><time>2026-04-04T11:26:04.99Z</time></trkpt><trkpt lat="43.1321536" lon="11.4615117"><ele>146.0</ele><time>2026-04-04T11:26:06Z</time></trkpt><trkpt lat="43.1321613" lon="11.4616136"><ele>146.0</ele><time>2026-04-04T11:26:06.996Z</time></trkpt><trkpt lat="43.1321619" lon="11.4617045"><ele>146.0</ele><time>2026-04-04T11:26:07.988Z</time></trkpt><trkpt lat="43.1321516" lon="11.4618267"><ele>146.0</ele><time>2026-04-04T11:26:09.987Z</time></trkpt><trkpt lat="43.1321032" lon="11.4618884"><ele>146.0</ele><time>2026-04-04T11:26:12.989Z</time></trkpt><trkpt lat="43.1320192" lon="11.4618091"><ele>146.0</ele><time>2026-04-04T11:26:15.986Z</time></trkpt><trkpt lat="43.1319451" lon="11.4616695"><ele>146.0</ele><time>2026-04-04T11:26:17.986Z</time></trkpt><trkpt lat="43.1318953" lon="11.4616135"><ele>146.0</ele><time>2026-04-04T11:26:18.991Z</time></trkpt><trkpt lat="43.1318351" lon="11.4615791"><ele>146.0</ele><time>2026-04-04T11:26:19.992Z</time></trkpt><trkpt lat="43.13177" lon="11.4615763"><ele>146.0</ele><time>2026-04-04T11:26:20.999Z</time></trkpt><trkpt lat="43.1316972" lon="11.4615731"><ele>146.0</ele><time>2026-04-04T11:26:21.998Z</time></trkpt><trkpt lat="43.1316206" lon="11.4615667"><ele>146.0</ele><time>2026-04-04T11:26:22.989Z</time></trkpt><trkpt lat="43.1315466" lon="11.4615471"><ele>146.0</ele><time>2026-04-04T11:26:23.997Z</time></trkpt><trkpt lat="43.1314738" lon="11.4615163"><ele>145.5</ele><time>2026-04-04T11:26:24.995Z</time></trkpt><trkpt lat="43.1314034" lon="11.4614751"><ele>145.0</ele><time>2026-04-04T11:26:25.985Z</time></trkpt><trkpt lat="43.131342" lon="11.4614153"><ele>144.5</ele><time>2026-04-04T11:26:26.987Z</time></trkpt><trkpt lat="43.1312827" lon="11.4613401"><ele>144.0</ele><time>2026-04-04T11:26:27.977Z</time></trkpt><trkpt lat="43.1312277" lon="11.4612518"><ele>143.5</ele><time>2026-04-04T11:26:28.99Z</time></trkpt><trkpt lat="43.1311772" lon="11.4611563"><ele>143.0</ele><time>2026-04-04T11:26:29.988Z</time></trkpt><trkpt lat="43.1311228" lon="11.461058"><ele>143.0</ele><time>2026-04-04T11:26:30.988Z</time></trkpt><trkpt lat="43.1310659" lon="11.4609702"><ele>143.0</ele><time>2026-04-04T11:26:31.988Z</time></trkpt><trkpt lat="43.1310061" lon="11.4608987"><ele>143.0</ele><time>2026-04-04T11:26:32.987Z</time></trkpt><trkpt lat="43.1309346" lon="11.4608479"><ele>143.0</ele><time>2026-04-04T11:26:33.993Z</time></trkpt><trkpt lat="43.1308594" lon="11.460817"><ele>143.0</ele><time>2026-04-04T11:26:34.994Z</time></trkpt><trkpt lat="43.1307811" lon="11.4608"><ele>143.0</ele><time>2026-04-04T11:26:35.986Z</time></trkpt><trkpt lat="43.1307005" lon="11.4607765"><ele>142.83333333333331</ele><time>2026-04-04T11:26:36.984Z</time></trkpt><trkpt lat="43.130624" lon="11.4607407"><ele>142.66666666666666</ele><time>2026-04-04T11:26:37.983Z</time></trkpt><trkpt lat="43.1305615" lon="11.4606882"><ele>142.5</ele><time>2026-04-04T11:26:38.986Z</time></trkpt><trkpt lat="43.1305122" lon="11.4606283"><ele>142.33333333333334</ele><time>2026-04-04T11:26:39.985Z</time></trkpt><trkpt lat="43.130444" lon="11.4604756"><ele>142.16666666666669</ele><time>2026-04-04T11:26:41.994Z</time></trkpt><trkpt lat="43.1304196" lon="11.4603842"><ele>142.0</ele><time>2026-04-04T11:26:42.978Z</time></trkpt><trkpt lat="43.1303967" lon="11.4602793"><ele>142.33333333333334</ele><time>2026-04-04T11:26:43.994Z</time></trkpt><trkpt lat="43.1303778" lon="11.4601714"><ele>142.66666666666669</ele><time>2026-04-04T11:26:44.987Z</time></trkpt><trkpt lat="43.1303587" lon="11.4600711"><ele>143.0</ele><time>2026-04-04T11:26:45.983Z</time></trkpt><trkpt lat="43.1303349" lon="11.4599721"><ele>143.33333333333334</ele><time>2026-04-04T11:26:46.983Z</time></trkpt><trkpt lat="43.1303012" lon="11.4598686"><ele>143.66666666666666</ele><time>2026-04-04T11:26:47.983Z</time></trkpt><trkpt lat="43.1302638" lon="11.4597337"><ele>144.0</ele><time>2026-04-04T11:26:48.985Z</time></trkpt><trkpt lat="43.1302256" lon="11.4595866"><ele>144.25</ele><time>2026-04-04T11:26:49.985Z</time></trkpt><trkpt lat="43.1301911" lon="11.4594251"><ele>144.5</ele><time>2026-04-04T11:26:50.995Z</time></trkpt><trkpt lat="43.1301492" lon="11.4592419"><ele>144.75</ele><time>2026-04-04T11:26:51.988Z</time></trkpt><trkpt lat="43.1301086" lon="11.4590503"><ele>145.0</ele><time>2026-04-04T11:26:52.987Z</time></trkpt><trkpt lat="43.1300729" lon="11.4588641"><ele>146.2</ele><time>2026-04-04T11:26:53.988Z</time></trkpt><trkpt lat="43.1300461" lon="11.458699"><ele>147.4</ele><time>2026-04-04T11:26:54.983Z</time></trkpt><trkpt lat="43.1300228" lon="11.4585653"><ele>148.6</ele><time>2026-04-04T11:26:55.987Z</time></trkpt><trkpt lat="43.1300086" lon="11.4584716"><ele>149.8</ele><time>2026-04-04T11:26:56.991Z</time></trkpt><trkpt lat="43.1300173" lon="11.4583444"><ele>151.0</ele><time>2026-04-04T11:26:58.991Z</time></trkpt><trkpt lat="43.130027" lon="11.4582356"><ele>151.0</ele><time>2026-04-04T11:27:00.931Z</time></trkpt><trkpt lat="43.129952" lon="11.4580845"><ele>151.0</ele><time>2026-04-04T11:27:02.933Z</time></trkpt><trkpt lat="43.1298987" lon="11.4579993"><ele>151.0</ele><time>2026-04-04T11:27:03.928Z</time></trkpt><trkpt lat="43.1298382" lon="11.4578923"><ele>151.0</ele><time>2026-04-04T11:27:04.927Z</time></trkpt><trkpt lat="43.12977" lon="11.4577794"><ele>151.0</ele><time>2026-04-04T11:27:05.929Z</time></trkpt><trkpt lat="43.1296969" lon="11.4576554"><ele>153.5</ele><time>2026-04-04T11:27:06.937Z</time></trkpt><trkpt lat="43.1296225" lon="11.4575192"><ele>156.0</ele><time>2026-04-04T11:27:07.932Z</time></trkpt><trkpt lat="43.1295386" lon="11.4573757"><ele>158.5</ele><time>2026-04-04T11:27:08.928Z</time></trkpt><trkpt lat="43.1294496" lon="11.4572347"><ele>161.0</ele><time>2026-04-04T11:27:09.929Z</time></trkpt><trkpt lat="43.1293726" lon="11.4570928"><ele>161.5</ele><time>2026-04-04T11:27:10.928Z</time></trkpt><trkpt lat="43.1292915" lon="11.4569477"><ele>162.0</ele><time>2026-04-04T11:27:11.929Z</time></trkpt><trkpt lat="43.1292077" lon="11.456795"><ele>162.5</ele><time>2026-04-04T11:27:12.93Z</time></trkpt><trkpt lat="43.1291166" lon="11.4566451"><ele>163.0</ele><time>2026-04-04T11:27:13.933Z</time></trkpt><trkpt lat="43.1290264" lon="11.456484"><ele>165.5</ele><time>2026-04-04T11:27:14.932Z</time></trkpt><trkpt lat="43.128937" lon="11.4563216"><ele>168.0</ele><time>2026-04-04T11:27:15.921Z</time></trkpt><trkpt lat="43.1288465" lon="11.4561568"><ele>170.5</ele><time>2026-04-04T11:27:16.926Z</time></trkpt><trkpt lat="43.1287559" lon="11.4559983"><ele>173.0</ele><time>2026-04-04T11:27:17.927Z</time></trkpt><trkpt lat="43.128664" lon="11.4558392"><ele>173.66666666666666</ele><time>2026-04-04T11:27:18.925Z</time></trkpt><trkpt lat="43.128563" lon="11.4556782"><ele>174.33333333333334</ele><time>2026-04-04T11:27:19.93Z</time></trkpt><trkpt lat="43.1284481" lon="11.4555406"><ele>175.0</ele><time>2026-04-04T11:27:20.93Z</time></trkpt><trkpt lat="43.1283192" lon="11.4554413"><ele>181.0</ele><time>2026-04-04T11:27:21.932Z</time></trkpt><trkpt lat="43.1281696" lon="11.4553608"><ele>187.0</ele><time>2026-04-04T11:27:22.926Z</time></trkpt><trkpt lat="43.1280221" lon="11.4552848"><ele>193.0</ele><time>2026-04-04T11:27:23.931Z</time></trkpt><trkpt lat="43.12787" lon="11.4552207"><ele>193.0</ele><time>2026-04-04T11:27:24.935Z</time></trkpt><trkpt lat="43.1277224" lon="11.4551535"><ele>193.0</ele><time>2026-04-04T11:27:25.927Z</time></trkpt><trkpt lat="43.1275708" lon="11.4550809"><ele>193.0</ele><time>2026-04-04T11:27:26.926Z</time></trkpt><trkpt lat="43.1274302" lon="11.4550124"><ele>195.75</ele><time>2026-04-04T11:27:27.931Z</time></trkpt><trkpt lat="43.1273045" lon="11.4549434"><ele>198.5</ele><time>2026-04-04T11:27:28.934Z</time></trkpt><trkpt lat="43.1271947" lon="11.4548534"><ele>201.25</ele><time>2026-04-04T11:27:29.931Z</time></trkpt><trkpt lat="43.1270953" lon="11.4547427"><ele>204.0</ele><time>2026-04-04T11:27:30.931Z</time></trkpt><trkpt lat="43.1270141" lon="11.4546093"><ele>206.25</ele><time>2026-04-04T11:27:31.924Z</time></trkpt><trkpt lat="43.1269427" lon="11.4544661"><ele>208.5</ele><time>2026-04-04T11:27:32.929Z</time></trkpt><trkpt lat="43.1268824" lon="11.4543161"><ele>210.75</ele><time>2026-04-04T11:27:33.927Z</time></trkpt><trkpt lat="43.1268384" lon="11.4541552"><ele>213.0</ele><time>2026-04-04T11:27:34.929Z</time></trkpt><trkpt lat="43.1268105" lon="11.4539797"><ele>213.0</ele><time>2026-04-04T11:27:35.92Z</time></trkpt><trkpt lat="43.1267948" lon="11.4538066"><ele>213.0</ele><time>2026-04-04T11:27:36.921Z</time></trkpt><trkpt lat="43.1267893" lon="11.453651"><ele>213.0</ele><time>2026-04-04T11:27:37.924Z</time></trkpt><trkpt lat="43.126783" lon="11.4534975"><ele>213.0</ele><time>2026-04-04T11:27:38.921Z</time></trkpt><trkpt lat="43.1267724" lon="11.4533623"><ele>214.2</ele><time>2026-04-04T11:27:39.923Z</time></trkpt><trkpt lat="43.126767" lon="11.4532295"><ele>215.4</ele><time>2026-04-04T11:27:40.931Z</time></trkpt><trkpt lat="43.1267653" lon="11.4531021"><ele>216.59999999999997</ele><time>2026-04-04T11:27:41.929Z</time></trkpt><trkpt lat="43.1267639" lon="11.4529705"><ele>217.79999999999998</ele><time>2026-04-04T11:27:42.928Z</time></trkpt><trkpt lat="43.1267658" lon="11.4528316"><ele>219.0</ele><time>2026-04-04T11:27:43.928Z</time></trkpt><trkpt lat="43.1267738" lon="11.4526961"><ele>219.75</ele><time>2026-04-04T11:27:44.923Z</time></trkpt><trkpt lat="43.1267832" lon="11.4525491"><ele>220.5</ele><time>2026-04-04T11:27:45.925Z</time></trkpt><trkpt lat="43.1267854" lon="11.4523942"><ele>221.25</ele><time>2026-04-04T11:27:46.921Z</time></trkpt><trkpt lat="43.1267796" lon="11.4522248"><ele>222.0</ele><time>2026-04-04T11:27:47.939Z</time></trkpt><trkpt lat="43.1267559" lon="11.4520386"><ele>223.0</ele><time>2026-04-04T11:27:48.928Z</time></trkpt><trkpt lat="43.1267226" lon="11.4518389"><ele>224.0</ele><time>2026-04-04T11:27:49.927Z</time></trkpt><trkpt lat="43.1266891" lon="11.4516138"><ele>225.0</ele><time>2026-04-04T11:27:50.951Z</time></trkpt><trkpt lat="43.1266567" lon="11.4513628"><ele>225.0</ele><time>2026-04-04T11:27:51.93Z</time></trkpt><trkpt lat="43.1266147" lon="11.4510937"><ele>225.0</ele><time>2026-04-04T11:27:52.93Z</time></trkpt><trkpt lat="43.1265504" lon="11.4508402"><ele>225.0</ele><time>2026-04-04T11:27:53.931Z</time></trkpt><trkpt lat="43.126474" lon="11.4506111"><ele>227.0</ele><time>2026-04-04T11:27:54.928Z</time></trkpt><trkpt lat="43.126404" lon="11.4503916"><ele>229.0</ele><time>2026-04-04T11:27:55.934Z</time></trkpt><trkpt lat="43.1263305" lon="11.4501752"><ele>231.0</ele><time>2026-04-04T11:27:56.937Z</time></trkpt><trkpt lat="43.1262637" lon="11.4499596"><ele>231.0</ele><time>2026-04-04T11:27:57.948Z</time></trkpt><trkpt lat="43.1261966" lon="11.4497646"><ele>231.0</ele><time>2026-04-04T11:27:58.926Z</time></trkpt><trkpt lat="43.1261324" lon="11.4495799"><ele>231.0</ele><time>2026-04-04T11:27:59.931Z</time></trkpt><trkpt lat="43.1260525" lon="11.449434"><ele>231.0</ele><time>2026-04-04T11:28:00.936Z</time></trkpt><trkpt lat="43.1259647" lon="11.4493217"><ele>233.0</ele><time>2026-04-04T11:28:01.933Z</time></trkpt><trkpt lat="43.1258518" lon="11.4492452"><ele>235.0</ele><time>2026-04-04T11:28:02.929Z</time></trkpt><trkpt lat="43.125744" lon="11.4491782"><ele>237.0</ele><time>2026-04-04T11:28:03.93Z</time></trkpt><trkpt lat="43.1256247" lon="11.4491235"><ele>239.0</ele><time>2026-04-04T11:28:04.945Z</time></trkpt><trkpt lat="43.1254993" lon="11.4490768"><ele>239.0</ele><time>2026-04-04T11:28:05.927Z</time></trkpt><trkpt lat="43.1253788" lon="11.449033"><ele>239.0</ele><time>2026-04-04T11:28:06.925Z</time></trkpt><trkpt lat="43.1252533" lon="11.4489916"><ele>239.0</ele><time>2026-04-04T11:28:07.935Z</time></trkpt><trkpt lat="43.1251388" lon="11.4489466"><ele>239.0</ele><time>2026-04-04T11:28:08.931Z</time></trkpt><trkpt lat="43.1250414" lon="11.4489033"><ele>239.0</ele><time>2026-04-04T11:28:09.931Z</time></trkpt><trkpt lat="43.1249522" lon="11.4488592"><ele>238.99999999999997</ele><time>2026-04-04T11:28:10.932Z</time></trkpt><trkpt lat="43.1248567" lon="11.4488115"><ele>238.99999999999997</ele><time>2026-04-04T11:28:11.935Z</time></trkpt><trkpt lat="43.1247699" lon="11.4487617"><ele>239.0</ele><time>2026-04-04T11:28:12.924Z</time></trkpt><trkpt lat="43.1246779" lon="11.4487589"><ele>239.0</ele><time>2026-04-04T11:28:13.935Z</time></trkpt><trkpt lat="43.1246077" lon="11.4487793"><ele>238.66666666666669</ele><time>2026-04-04T11:28:14.922Z</time></trkpt><trkpt lat="43.1245524" lon="11.4488408"><ele>238.33333333333334</ele><time>2026-04-04T11:28:15.928Z</time></trkpt><trkpt lat="43.124497" lon="11.448914"><ele>238.0</ele><time>2026-04-04T11:28:16.933Z</time></trkpt><trkpt lat="43.1244374" lon="11.4490057"><ele>237.66666666666669</ele><time>2026-04-04T11:28:17.934Z</time></trkpt><trkpt lat="43.1243722" lon="11.4490907"><ele>237.33333333333334</ele><time>2026-04-04T11:28:18.926Z</time></trkpt><trkpt lat="43.1243068" lon="11.4491621"><ele>237.0</ele><time>2026-04-04T11:28:19.933Z</time></trkpt><trkpt lat="43.124233" lon="11.4492108"><ele>237.0</ele><time>2026-04-04T11:28:20.938Z</time></trkpt><trkpt lat="43.1241482" lon="11.4492311"><ele>237.0</ele><time>2026-04-04T11:28:21.929Z</time></trkpt><trkpt lat="43.1240646" lon="11.4492378"><ele>237.0</ele><time>2026-04-04T11:28:22.938Z</time></trkpt><trkpt lat="43.1239704" lon="11.4492264"><ele>237.0</ele><time>2026-04-04T11:28:23.935Z</time></trkpt><trkpt lat="43.1238788" lon="11.4491996"><ele>237.0</ele><time>2026-04-04T11:28:24.931Z</time></trkpt><trkpt lat="43.1237774" lon="11.4491732"><ele>236.25</ele><time>2026-04-04T11:28:25.928Z</time></trkpt><trkpt lat="43.1236725" lon="11.4491343"><ele>235.5</ele><time>2026-04-04T11:28:26.927Z</time></trkpt><trkpt lat="43.123564" lon="11.449091"><ele>234.75</ele><time>2026-04-04T11:28:27.932Z</time></trkpt><trkpt lat="43.1234481" lon="11.449045"><ele>234.0</ele><time>2026-04-04T11:28:28.924Z</time></trkpt><trkpt lat="43.1233331" lon="11.4490052"><ele>233.25</ele><time>2026-04-04T11:28:29.935Z</time></trkpt><trkpt lat="43.1232224" lon="11.4489651"><ele>232.5</ele><time>2026-04-04T11:28:30.926Z</time></trkpt><trkpt lat="43.1231116" lon="11.4489285"><ele>231.75</ele><time>2026-04-04T11:28:31.935Z</time></trkpt><trkpt lat="43.1230016" lon="11.4488922"><ele>231.0</ele><time>2026-04-04T11:28:32.928Z</time></trkpt><trkpt lat="43.1228937" lon="11.448857"><ele>231.0</ele><time>2026-04-04T11:28:33.933Z</time></trkpt><trkpt lat="43.1227879" lon="11.4488212"><ele>231.00000000000003</ele><time>2026-04-04T11:28:34.932Z</time></trkpt><trkpt lat="43.122685" lon="11.4487845"><ele>231.00000000000003</ele><time>2026-04-04T11:28:35.93Z</time></trkpt><trkpt lat="43.1225875" lon="11.4487489"><ele>231.0</ele><time>2026-04-04T11:28:36.93Z</time></trkpt><trkpt lat="43.1224849" lon="11.4487093"><ele>231.0</ele><time>2026-04-04T11:28:37.932Z</time></trkpt><trkpt lat="43.1223793" lon="11.4486731"><ele>229.25</ele><time>2026-04-04T11:28:38.923Z</time></trkpt><trkpt lat="43.1222693" lon="11.4486359"><ele>227.5</ele><time>2026-04-04T11:28:39.93Z</time></trkpt><trkpt lat="43.1221568" lon="11.4485893"><ele>225.75</ele><time>2026-04-04T11:28:40.935Z</time></trkpt><trkpt lat="43.1220337" lon="11.4485443"><ele>224.0</ele><time>2026-04-04T11:28:41.93Z</time></trkpt><trkpt lat="43.1219048" lon="11.4485116"><ele>224.0</ele><time>2026-04-04T11:28:42.936Z</time></trkpt><trkpt lat="43.1217817" lon="11.4484686"><ele>224.0</ele><time>2026-04-04T11:28:43.922Z</time></trkpt><trkpt lat="43.121665" lon="11.4484159"><ele>224.0</ele><time>2026-04-04T11:28:44.929Z</time></trkpt><trkpt lat="43.1215521" lon="11.4483456"><ele>224.0</ele><time>2026-04-04T11:28:45.923Z</time></trkpt><trkpt lat="43.1214555" lon="11.4482609"><ele>222.25</ele><time>2026-04-04T11:28:46.929Z</time></trkpt><trkpt lat="43.1213774" lon="11.4481458"><ele>220.5</ele><time>2026-04-04T11:28:47.922Z</time></trkpt><trkpt lat="43.1213074" lon="11.4479998"><ele>218.75</ele><time>2026-04-04T11:28:48.927Z</time></trkpt><trkpt lat="43.1212516" lon="11.4478496"><ele>217.0</ele><time>2026-04-04T11:28:49.934Z</time></trkpt><trkpt lat="43.1211958" lon="11.4476931"><ele>217.0</ele><time>2026-04-04T11:28:50.933Z</time></trkpt><trkpt lat="43.1211377" lon="11.4475313"><ele>217.0</ele><time>2026-04-04T11:28:51.939Z</time></trkpt><trkpt lat="43.1210768" lon="11.4473574"><ele>217.0</ele><time>2026-04-04T11:28:52.938Z</time></trkpt><trkpt lat="43.1210168" lon="11.4471844"><ele>217.0</ele><time>2026-04-04T11:28:53.928Z</time></trkpt><trkpt lat="43.1209636" lon="11.4470056"><ele>216.0</ele><time>2026-04-04T11:28:54.933Z</time></trkpt><trkpt lat="43.1209084" lon="11.4468282"><ele>215.0</ele><time>2026-04-04T11:28:55.931Z</time></trkpt><trkpt lat="43.1208496" lon="11.4466511"><ele>214.0</ele><time>2026-04-04T11:28:56.932Z</time></trkpt><trkpt lat="43.1207961" lon="11.4464765"><ele>213.0</ele><time>2026-04-04T11:28:57.929Z</time></trkpt><trkpt lat="43.1207491" lon="11.4463141"><ele>212.60000000000002</ele><time>2026-04-04T11:28:58.92Z</time></trkpt><trkpt lat="43.120712" lon="11.4461589"><ele>212.20000000000002</ele><time>2026-04-04T11:28:59.934Z</time></trkpt><trkpt lat="43.1206919" lon="11.4460137"><ele>211.8</ele><time>2026-04-04T11:29:00.935Z</time></trkpt><trkpt lat="43.120696" lon="11.4458711"><ele>211.4</ele><time>2026-04-04T11:29:01.938Z</time></trkpt><trkpt lat="43.1207219" lon="11.4457227"><ele>211.0</ele><time>2026-04-04T11:29:02.927Z</time></trkpt><trkpt lat="43.1207641" lon="11.4455765"><ele>211.0</ele><time>2026-04-04T11:29:03.934Z</time></trkpt><trkpt lat="43.1208148" lon="11.4454345"><ele>211.0</ele><time>2026-04-04T11:29:04.931Z</time></trkpt><trkpt lat="43.1208538" lon="11.4452977"><ele>211.0</ele><time>2026-04-04T11:29:05.934Z</time></trkpt><trkpt lat="43.120882" lon="11.4451703"><ele>211.0</ele><time>2026-04-04T11:29:06.931Z</time></trkpt><trkpt lat="43.1208939" lon="11.4450459"><ele>211.0</ele><time>2026-04-04T11:29:07.936Z</time></trkpt><trkpt lat="43.1208892" lon="11.4449105"><ele>211.0</ele><time>2026-04-04T11:29:08.922Z</time></trkpt><trkpt lat="43.1208569" lon="11.4447844"><ele>211.0</ele><time>2026-04-04T11:29:09.932Z</time></trkpt><trkpt lat="43.1208091" lon="11.4446753"><ele>211.0</ele><time>2026-04-04T11:29:10.936Z</time></trkpt><trkpt lat="43.1207434" lon="11.4445904"><ele>211.0</ele><time>2026-04-04T11:29:11.937Z</time></trkpt><trkpt lat="43.1206581" lon="11.4445118"><ele>211.0</ele><time>2026-04-04T11:29:12.929Z</time></trkpt><trkpt lat="43.1205646" lon="11.4444446"><ele>209.25</ele><time>2026-04-04T11:29:13.926Z</time></trkpt><trkpt lat="43.1204583" lon="11.4443747"><ele>207.5</ele><time>2026-04-04T11:29:14.917Z</time></trkpt><trkpt lat="43.1203443" lon="11.4442954"><ele>205.75</ele><time>2026-04-04T11:29:15.934Z</time></trkpt><trkpt lat="43.1202249" lon="11.4442114"><ele>204.0</ele><time>2026-04-04T11:29:16.925Z</time></trkpt><trkpt lat="43.1201108" lon="11.4441357"><ele>204.0</ele><time>2026-04-04T11:29:17.92Z</time></trkpt><trkpt lat="43.1199948" lon="11.4440636"><ele>204.0</ele><time>2026-04-04T11:29:18.931Z</time></trkpt><trkpt lat="43.1198731" lon="11.4439823"><ele>204.0</ele><time>2026-04-04T11:29:19.939Z</time></trkpt><trkpt lat="43.1197509" lon="11.4439075"><ele>204.0</ele><time>2026-04-04T11:29:20.922Z</time></trkpt><trkpt lat="43.1196285" lon="11.4438237"><ele>200.75</ele><time>2026-04-04T11:29:21.923Z</time></trkpt><trkpt lat="43.119502" lon="11.4437396"><ele>197.5</ele><time>2026-04-04T11:29:22.927Z</time></trkpt><trkpt lat="43.11938" lon="11.4436491"><ele>194.25</ele><time>2026-04-04T11:29:23.931Z</time></trkpt><trkpt lat="43.1192594" lon="11.4435622"><ele>191.0</ele><time>2026-04-04T11:29:24.928Z</time></trkpt><trkpt lat="43.1191394" lon="11.4434666"><ele>190.0</ele><time>2026-04-04T11:29:25.931Z</time></trkpt><trkpt lat="43.1190237" lon="11.4433547"><ele>189.0</ele><time>2026-04-04T11:29:26.94Z</time></trkpt><trkpt lat="43.1189174" lon="11.4432397"><ele>188.0</ele><time>2026-04-04T11:29:27.926Z</time></trkpt><trkpt lat="43.1188191" lon="11.4431293"><ele>187.0</ele><time>2026-04-04T11:29:28.924Z</time></trkpt><trkpt lat="43.1187325" lon="11.4430025"><ele>184.25</ele><time>2026-04-04T11:29:29.931Z</time></trkpt><trkpt lat="43.1186448" lon="11.442894"><ele>181.5</ele><time>2026-04-04T11:29:30.931Z</time></trkpt><trkpt lat="43.1185582" lon="11.4427875"><ele>178.75</ele><time>2026-04-04T11:29:31.925Z</time></trkpt><trkpt lat="43.1184643" lon="11.4427023"><ele>176.0</ele><time>2026-04-04T11:29:32.929Z</time></trkpt><trkpt lat="43.1183704" lon="11.4426233"><ele>176.0</ele><time>2026-04-04T11:29:33.931Z</time></trkpt><trkpt lat="43.1182656" lon="11.442533"><ele>176.0</ele><time>2026-04-04T11:29:34.921Z</time></trkpt><trkpt lat="43.1181619" lon="11.4424427"><ele>176.0</ele><time>2026-04-04T11:29:35.927Z</time></trkpt><trkpt lat="43.1180543" lon="11.4423553"><ele>176.0</ele><time>2026-04-04T11:29:36.939Z</time></trkpt><trkpt lat="43.1179492" lon="11.4422672"><ele>176.0</ele><time>2026-04-04T11:29:37.931Z</time></trkpt><trkpt lat="43.1178477" lon="11.4421796"><ele>176.0</ele><time>2026-04-04T11:29:38.935Z</time></trkpt><trkpt lat="43.1177507" lon="11.4421042"><ele>176.0</ele><time>2026-04-04T11:29:39.926Z</time></trkpt><trkpt lat="43.1176607" lon="11.442039"><ele>176.0</ele><time>2026-04-04T11:29:40.929Z</time></trkpt><trkpt lat="43.1175708" lon="11.4419801"><ele>176.0</ele><time>2026-04-04T11:29:41.929Z</time></trkpt><trkpt lat="43.117477" lon="11.4419416"><ele>174.4</ele><time>2026-04-04T11:29:42.936Z</time></trkpt><trkpt lat="43.1173791" lon="11.4419254"><ele>172.8</ele><time>2026-04-04T11:29:43.932Z</time></trkpt><trkpt lat="43.1172787" lon="11.4419531"><ele>171.20000000000002</ele><time>2026-04-04T11:29:44.924Z</time></trkpt><trkpt lat="43.1171818" lon="11.4420197"><ele>169.60000000000002</ele><time>2026-04-04T11:29:45.926Z</time></trkpt><trkpt lat="43.1170857" lon="11.4420799"><ele>168.0</ele><time>2026-04-04T11:29:46.932Z</time></trkpt><trkpt lat="43.1169801" lon="11.4421491"><ele>168.0</ele><time>2026-04-04T11:29:47.939Z</time></trkpt><trkpt lat="43.1168645" lon="11.442213"><ele>168.0</ele><time>2026-04-04T11:29:48.927Z</time></trkpt><trkpt lat="43.1167638" lon="11.4422562"><ele>168.0</ele><time>2026-04-04T11:29:49.934Z</time></trkpt><trkpt lat="43.116658" lon="11.4422667"><ele>168.0</ele><time>2026-04-04T11:29:50.927Z</time></trkpt><trkpt lat="43.1165631" lon="11.4422361"><ele>168.0</ele><time>2026-04-04T11:29:51.946Z</time></trkpt><trkpt lat="43.1164768" lon="11.4421773"><ele>166.20000000000002</ele><time>2026-04-04T11:29:52.931Z</time></trkpt><trkpt lat="43.1163925" lon="11.4420944"><ele>164.4</ele><time>2026-04-04T11:29:53.932Z</time></trkpt><trkpt lat="43.1163183" lon="11.4419815"><ele>162.60000000000002</ele><time>2026-04-04T11:29:54.926Z</time></trkpt><trkpt lat="43.1162408" lon="11.441868"><ele>160.8</ele><time>2026-04-04T11:29:55.935Z</time></trkpt><trkpt lat="43.116151" lon="11.4417564"><ele>159.0</ele><time>2026-04-04T11:29:56.934Z</time></trkpt><trkpt lat="43.1160532" lon="11.4416465"><ele>159.0</ele><time>2026-04-04T11:29:57.934Z</time></trkpt><trkpt lat="43.1159494" lon="11.4415434"><ele>159.0</ele><time>2026-04-04T11:29:58.94Z</time></trkpt><trkpt lat="43.1158605" lon="11.4414453"><ele>159.0</ele><time>2026-04-04T11:29:59.936Z</time></trkpt><trkpt lat="43.1157736" lon="11.4413518"><ele>159.0</ele><time>2026-04-04T11:30:00.929Z</time></trkpt><trkpt lat="43.1156841" lon="11.4412767"><ele>156.6</ele><time>2026-04-04T11:30:01.935Z</time></trkpt><trkpt lat="43.1155912" lon="11.4412304"><ele>154.2</ele><time>2026-04-04T11:30:02.925Z</time></trkpt><trkpt lat="43.1154875" lon="11.4412176"><ele>151.79999999999998</ele><time>2026-04-04T11:30:03.93Z</time></trkpt><trkpt lat="43.1153771" lon="11.4412168"><ele>149.4</ele><time>2026-04-04T11:30:04.927Z</time></trkpt><trkpt lat="43.1152652" lon="11.4412367"><ele>147.0</ele><time>2026-04-04T11:30:05.937Z</time></trkpt><trkpt lat="43.1151473" lon="11.4412686"><ele>147.0</ele><time>2026-04-04T11:30:06.933Z</time></trkpt><trkpt lat="43.1150264" lon="11.4412913"><ele>147.0</ele><time>2026-04-04T11:30:07.926Z</time></trkpt><trkpt lat="43.1148981" lon="11.4413134"><ele>147.0</ele><time>2026-04-04T11:30:08.932Z</time></trkpt><trkpt lat="43.1147645" lon="11.4413347"><ele>147.0</ele><time>2026-04-04T11:30:09.923Z</time></trkpt><trkpt lat="43.1146333" lon="11.4413504"><ele>145.5</ele><time>2026-04-04T11:30:10.928Z</time></trkpt><trkpt lat="43.1145091" lon="11.4413561"><ele>144.0</ele><time>2026-04-04T11:30:11.923Z</time></trkpt><trkpt lat="43.1143862" lon="11.4413568"><ele>142.5</ele><time>2026-04-04T11:30:12.931Z</time></trkpt><trkpt lat="43.1142575" lon="11.4413635"><ele>141.0</ele><time>2026-04-04T11:30:13.924Z</time></trkpt><trkpt lat="43.1141282" lon="11.4413782"><ele>140.25</ele><time>2026-04-04T11:30:14.932Z</time></trkpt><trkpt lat="43.1139998" lon="11.4413862"><ele>139.5</ele><time>2026-04-04T11:30:15.932Z</time></trkpt><trkpt lat="43.1138739" lon="11.4413946"><ele>138.75</ele><time>2026-04-04T11:30:16.935Z</time></trkpt><trkpt lat="43.1137497" lon="11.4414081"><ele>138.0</ele><time>2026-04-04T11:30:17.924Z</time></trkpt><trkpt lat="43.1136255" lon="11.441419"><ele>138.0</ele><time>2026-04-04T11:30:18.932Z</time></trkpt><trkpt lat="43.1135027" lon="11.4414388"><ele>138.0</ele><time>2026-04-04T11:30:19.929Z</time></trkpt><trkpt lat="43.1133798" lon="11.4414563"><ele>138.0</ele><time>2026-04-04T11:30:20.927Z</time></trkpt><trkpt lat="43.1132566" lon="11.4414712"><ele>138.0</ele><time>2026-04-04T11:30:21.935Z</time></trkpt><trkpt lat="43.1131364" lon="11.4414827"><ele>137.8</ele><time>2026-04-04T11:30:22.931Z</time></trkpt><trkpt lat="43.1130245" lon="11.4414861"><ele>137.60000000000002</ele><time>2026-04-04T11:30:23.932Z</time></trkpt><trkpt lat="43.1129147" lon="11.4414915"><ele>137.39999999999998</ele><time>2026-04-04T11:30:24.929Z</time></trkpt><trkpt lat="43.112811" lon="11.4414898"><ele>137.2</ele><time>2026-04-04T11:30:25.924Z</time></trkpt><trkpt lat="43.1127259" lon="11.4414909"><ele>137.0</ele><time>2026-04-04T11:30:26.922Z</time></trkpt><trkpt lat="43.1126583" lon="11.4414993"><ele>137.0</ele><time>2026-04-04T11:30:27.931Z</time></trkpt><trkpt lat="43.112571" lon="11.4415113"><ele>137.0</ele><time>2026-04-04T11:30:29.926Z</time></trkpt><trkpt lat="43.1124887" lon="11.4415029"><ele>137.0</ele><time>2026-04-04T11:34:29.945Z</time></trkpt><trkpt lat="43.1124042" lon="11.4415179"><ele>137.0</ele><time>2026-04-04T11:34:31.929Z</time></trkpt><trkpt lat="43.1122878" lon="11.4415437"><ele>137.0</ele><time>2026-04-04T11:34:33.934Z</time></trkpt><trkpt lat="43.1122203" lon="11.4415515"><ele>137.0</ele><time>2026-04-04T11:34:34.927Z</time></trkpt><trkpt lat="43.1121497" lon="11.4415585"><ele>136.85714285714286</ele><time>2026-04-04T11:34:35.95Z</time></trkpt><trkpt lat="43.1120792" lon="11.4415669"><ele>136.71428571428572</ele><time>2026-04-04T11:34:36.945Z</time></trkpt><trkpt lat="43.1120069" lon="11.4415765"><ele>136.57142857142856</ele><time>2026-04-04T11:34:37.937Z</time></trkpt><trkpt lat="43.1119349" lon="11.4415857"><ele>136.42857142857144</ele><time>2026-04-04T11:34:38.935Z</time></trkpt><trkpt lat="43.1118658" lon="11.4416002"><ele>136.28571428571428</ele><time>2026-04-04T11:34:39.926Z</time></trkpt><trkpt lat="43.1117926" lon="11.441612"><ele>136.14285714285714</ele><time>2026-04-04T11:34:40.951Z</time></trkpt><trkpt lat="43.1117158" lon="11.4416185"><ele>136.0</ele><time>2026-04-04T11:34:41.952Z</time></trkpt><trkpt lat="43.1116406" lon="11.441622"><ele>136.0</ele><time>2026-04-04T11:34:42.935Z</time></trkpt><trkpt lat="43.1115757" lon="11.4416255"><ele>136.0</ele><time>2026-04-04T11:34:43.93Z</time></trkpt><trkpt lat="43.1114667" lon="11.4416344"><ele>136.0</ele><time>2026-04-04T11:34:45.932Z</time></trkpt><trkpt lat="43.1113737" lon="11.4416509"><ele>136.0</ele><time>2026-04-04T11:34:47.953Z</time></trkpt><trkpt lat="43.1112581" lon="11.4416684"><ele>136.0</ele><time>2026-04-04T11:34:49.925Z</time></trkpt><trkpt lat="43.1111849" lon="11.4416774"><ele>135.8</ele><time>2026-04-04T11:34:50.935Z</time></trkpt><trkpt lat="43.1111064" lon="11.4416857"><ele>135.6</ele><time>2026-04-04T11:34:51.93Z</time></trkpt><trkpt lat="43.1110177" lon="11.4416963"><ele>135.4</ele><time>2026-04-04T11:34:52.943Z</time></trkpt><trkpt lat="43.1109143" lon="11.4417116"><ele>135.2</ele><time>2026-04-04T11:34:53.928Z</time></trkpt><trkpt lat="43.1108103" lon="11.4417185"><ele>135.0</ele><time>2026-04-04T11:34:54.943Z</time></trkpt><trkpt lat="43.1107012" lon="11.4417244"><ele>134.5</ele><time>2026-04-04T11:34:55.943Z</time></trkpt><trkpt lat="43.11058" lon="11.4417295"><ele>134.0</ele><time>2026-04-04T11:34:56.933Z</time></trkpt><trkpt lat="43.1104554" lon="11.441737"><ele>133.5</ele><time>2026-04-04T11:34:57.938Z</time></trkpt><trkpt lat="43.1103288" lon="11.4417474"><ele>133.0</ele><time>2026-04-04T11:34:58.935Z</time></trkpt><trkpt lat="43.1101923" lon="11.441774"><ele>133.0</ele><time>2026-04-04T11:34:59.997Z</time></trkpt><trkpt lat="43.1100505" lon="11.4418155"><ele>133.0</ele><time>2026-04-04T11:35:00.94Z</time></trkpt><trkpt lat="43.1099059" lon="11.4418621"><ele>133.0</ele><time>2026-04-04T11:35:01.93Z</time></trkpt><trkpt lat="43.1097598" lon="11.4419176"><ele>133.0</ele><time>2026-04-04T11:35:02.927Z</time></trkpt><trkpt lat="43.1096119" lon="11.4419775"><ele>133.0</ele><time>2026-04-04T11:35:03.925Z</time></trkpt><trkpt lat="43.1094708" lon="11.4420367"><ele>133.0</ele><time>2026-04-04T11:35:04.926Z</time></trkpt><trkpt lat="43.1093265" lon="11.4420953"><ele>133.0</ele><time>2026-04-04T11:35:05.947Z</time></trkpt><trkpt lat="43.1091786" lon="11.4421445"><ele>133.0</ele><time>2026-04-04T11:35:06.98Z</time></trkpt><trkpt lat="43.1090253" lon="11.4421846"><ele>133.0</ele><time>2026-04-04T11:35:07.937Z</time></trkpt><trkpt lat="43.1088646" lon="11.442226"><ele>133.0</ele><time>2026-04-04T11:35:08.933Z</time></trkpt><trkpt lat="43.1087049" lon="11.4422602"><ele>133.0</ele><time>2026-04-04T11:35:09.935Z</time></trkpt><trkpt lat="43.1085477" lon="11.4422919"><ele>133.0</ele><time>2026-04-04T11:35:10.929Z</time></trkpt><trkpt lat="43.108395" lon="11.4423223"><ele>133.0</ele><time>2026-04-04T11:35:11.926Z</time></trkpt><trkpt lat="43.1082501" lon="11.4423479"><ele>133.25</ele><time>2026-04-04T11:35:12.928Z</time></trkpt><trkpt lat="43.1081167" lon="11.4423754"><ele>133.5</ele><time>2026-04-04T11:35:13.923Z</time></trkpt><trkpt lat="43.1079853" lon="11.4423991"><ele>133.75</ele><time>2026-04-04T11:35:14.926Z</time></trkpt><trkpt lat="43.1078728" lon="11.4424242"><ele>134.0</ele><time>2026-04-04T11:35:15.929Z</time></trkpt><trkpt lat="43.1077674" lon="11.4424463"><ele>134.0</ele><time>2026-04-04T11:35:16.947Z</time></trkpt><trkpt lat="43.1076735" lon="11.4424527"><ele>134.0</ele><time>2026-04-04T11:35:17.933Z</time></trkpt><trkpt lat="43.1075871" lon="11.4424431"><ele>134.0</ele><time>2026-04-04T11:35:18.936Z</time></trkpt><trkpt lat="43.107509" lon="11.4424193"><ele>134.0</ele><time>2026-04-04T11:35:19.927Z</time></trkpt><trkpt lat="43.1074327" lon="11.4423787"><ele>134.0</ele><time>2026-04-04T11:35:20.927Z</time></trkpt><trkpt lat="43.1073493" lon="11.442309"><ele>134.0</ele><time>2026-04-04T11:35:22.026Z</time></trkpt><trkpt lat="43.1072714" lon="11.4422197"><ele>133.25</ele><time>2026-04-04T11:35:22.991Z</time></trkpt><trkpt lat="43.1072009" lon="11.4421149"><ele>132.5</ele><time>2026-04-04T11:35:23.976Z</time></trkpt><trkpt lat="43.107124" lon="11.4419956"><ele>131.75</ele><time>2026-04-04T11:35:25Z</time></trkpt><trkpt lat="43.1070349" lon="11.4418719"><ele>131.0</ele><time>2026-04-04T11:35:25.992Z</time></trkpt><trkpt lat="43.1069437" lon="11.4417354"><ele>131.0</ele><time>2026-04-04T11:35:26.997Z</time></trkpt><trkpt lat="43.1068527" lon="11.4415978"><ele>131.0</ele><time>2026-04-04T11:35:27.991Z</time></trkpt><trkpt lat="43.1067518" lon="11.4414553"><ele>131.0</ele><time>2026-04-04T11:35:28.991Z</time></trkpt><trkpt lat="43.1066413" lon="11.4413068"><ele>131.0</ele><time>2026-04-04T11:35:29.988Z</time></trkpt><trkpt lat="43.1065316" lon="11.4411501"><ele>131.0</ele><time>2026-04-04T11:35:30.989Z</time></trkpt><trkpt lat="43.1064206" lon="11.4409843"><ele>131.0</ele><time>2026-04-04T11:35:31.999Z</time></trkpt><trkpt lat="43.1063084" lon="11.4408123"><ele>131.0</ele><time>2026-04-04T11:35:32.99Z</time></trkpt><trkpt lat="43.1061912" lon="11.4406413"><ele>131.0</ele><time>2026-04-04T11:35:33.998Z</time></trkpt><trkpt lat="43.1060715" lon="11.4404746"><ele>131.0</ele><time>2026-04-04T11:35:34.997Z</time></trkpt><trkpt lat="43.1059477" lon="11.4403142"><ele>131.0</ele><time>2026-04-04T11:35:35.996Z</time></trkpt><trkpt lat="43.1058312" lon="11.440159"><ele>130.75</ele><time>2026-04-04T11:35:36.986Z</time></trkpt><trkpt lat="43.1057197" lon="11.4400099"><ele>130.5</ele><time>2026-04-04T11:35:37.997Z</time></trkpt><trkpt lat="43.1056103" lon="11.439878"><ele>130.25</ele><time>2026-04-04T11:35:38.99Z</time></trkpt><trkpt lat="43.1055106" lon="11.4397525"><ele>130.0</ele><time>2026-04-04T11:35:39.995Z</time></trkpt><trkpt lat="43.1054049" lon="11.4396185"><ele>129.75</ele><time>2026-04-04T11:35:40.994Z</time></trkpt><trkpt lat="43.1053029" lon="11.4394759"><ele>129.5</ele><time>2026-04-04T11:35:41.996Z</time></trkpt><trkpt lat="43.1052122" lon="11.4393319"><ele>129.25</ele><time>2026-04-04T11:35:42.993Z</time></trkpt><trkpt lat="43.1051252" lon="11.4391818"><ele>129.0</ele><time>2026-04-04T11:35:43.987Z</time></trkpt><trkpt lat="43.1050376" lon="11.4390309"><ele>129.0</ele><time>2026-04-04T11:35:44.997Z</time></trkpt><trkpt lat="43.1049432" lon="11.43888"><ele>129.0</ele><time>2026-04-04T11:35:45.992Z</time></trkpt><trkpt lat="43.1048444" lon="11.4387321"><ele>129.0</ele><time>2026-04-04T11:35:46.986Z</time></trkpt><trkpt lat="43.1047438" lon="11.4385842"><ele>129.0</ele><time>2026-04-04T11:35:47.996Z</time></trkpt><trkpt lat="43.1046416" lon="11.4384399"><ele>129.66666666666666</ele><time>2026-04-04T11:35:48.984Z</time></trkpt><trkpt lat="43.1045394" lon="11.4382933"><ele>130.33333333333331</ele><time>2026-04-04T11:35:49.998Z</time></trkpt><trkpt lat="43.104436" lon="11.4381389"><ele>131.0</ele><time>2026-04-04T11:35:50.988Z</time></trkpt><trkpt lat="43.1043033" lon="11.4379817"><ele>131.0</ele><time>2026-04-04T11:35:51.989Z</time></trkpt><trkpt lat="43.104196" lon="11.4378302"><ele>131.0</ele><time>2026-04-04T11:35:52.987Z</time></trkpt><trkpt lat="43.1040897" lon="11.4376762"><ele>131.0</ele><time>2026-04-04T11:35:53.991Z</time></trkpt><trkpt lat="43.1039803" lon="11.4375212"><ele>131.33333333333331</ele><time>2026-04-04T11:35:54.986Z</time></trkpt><trkpt lat="43.1038682" lon="11.4373699"><ele>131.66666666666666</ele><time>2026-04-04T11:35:55.994Z</time></trkpt><trkpt lat="43.1037607" lon="11.4372163"><ele>132.0</ele><time>2026-04-04T11:35:57.004Z</time></trkpt><trkpt lat="43.1036635" lon="11.4370638"><ele>132.66666666666666</ele><time>2026-04-04T11:35:57.931Z</time></trkpt><trkpt lat="43.1035533" lon="11.4369098"><ele>133.33333333333331</ele><time>2026-04-04T11:35:58.936Z</time></trkpt><trkpt lat="43.1034483" lon="11.4367576"><ele>134.0</ele><time>2026-04-04T11:35:59.947Z</time></trkpt><trkpt lat="43.1033446" lon="11.4366105"><ele>134.5</ele><time>2026-04-04T11:36:00.927Z</time></trkpt><trkpt lat="43.1032405" lon="11.4364689"><ele>135.0</ele><time>2026-04-04T11:36:01.932Z</time></trkpt><trkpt lat="43.1031332" lon="11.4363239"><ele>135.5</ele><time>2026-04-04T11:36:02.932Z</time></trkpt><trkpt lat="43.1030257" lon="11.4361791"><ele>136.0</ele><time>2026-04-04T11:36:03.937Z</time></trkpt><trkpt lat="43.1029201" lon="11.4360332"><ele>136.0</ele><time>2026-04-04T11:36:04.924Z</time></trkpt><trkpt lat="43.1028141" lon="11.4358861"><ele>136.0</ele><time>2026-04-04T11:36:05.926Z</time></trkpt><trkpt lat="43.1027088" lon="11.4357404"><ele>136.0</ele><time>2026-04-04T11:36:06.928Z</time></trkpt><trkpt lat="43.1026059" lon="11.4355963"><ele>136.0</ele><time>2026-04-04T11:36:07.931Z</time></trkpt><trkpt lat="43.1025076" lon="11.4354475"><ele>136.75</ele><time>2026-04-04T11:36:08.93Z</time></trkpt><trkpt lat="43.1024126" lon="11.4353016"><ele>137.5</ele><time>2026-04-04T11:36:09.934Z</time></trkpt><trkpt lat="43.1023293" lon="11.4351548"><ele>138.25</ele><time>2026-04-04T11:36:10.931Z</time></trkpt><trkpt lat="43.1022644" lon="11.4350114"><ele>139.0</ele><time>2026-04-04T11:36:11.933Z</time></trkpt><trkpt lat="43.1022228" lon="11.4348656"><ele>139.0</ele><time>2026-04-04T11:36:12.93Z</time></trkpt><trkpt lat="43.1022023" lon="11.4347195"><ele>139.0</ele><time>2026-04-04T11:36:13.932Z</time></trkpt><trkpt lat="43.1022013" lon="11.4345749"><ele>139.0</ele><time>2026-04-04T11:36:14.929Z</time></trkpt><trkpt lat="43.1022174" lon="11.4344289"><ele>139.0</ele><time>2026-04-04T11:36:15.944Z</time></trkpt><trkpt lat="43.1022422" lon="11.4342789"><ele>139.0</ele><time>2026-04-04T11:36:16.93Z</time></trkpt><trkpt lat="43.1022728" lon="11.4341233"><ele>140.5</ele><time>2026-04-04T11:36:17.934Z</time></trkpt><trkpt lat="43.1023017" lon="11.4339565"><ele>142.0</ele><time>2026-04-04T11:36:18.935Z</time></trkpt><trkpt lat="43.1023234" lon="11.4337873"><ele>143.5</ele><time>2026-04-04T11:36:19.928Z</time></trkpt><trkpt lat="43.1023367" lon="11.4336208"><ele>145.0</ele><time>2026-04-04T11:36:20.954Z</time></trkpt><trkpt lat="43.1023411" lon="11.4334636"><ele>145.2</ele><time>2026-04-04T11:36:21.935Z</time></trkpt><trkpt lat="43.1023303" lon="11.4333147"><ele>145.4</ele><time>2026-04-04T11:36:22.938Z</time></trkpt><trkpt lat="43.1023116" lon="11.4331755"><ele>145.6</ele><time>2026-04-04T11:36:24.015Z</time></trkpt><trkpt lat="43.1022845" lon="11.4330321"><ele>145.8</ele><time>2026-04-04T11:36:24.939Z</time></trkpt><trkpt lat="43.1022381" lon="11.4329005"><ele>146.0</ele><time>2026-04-04T11:36:25.941Z</time></trkpt><trkpt lat="43.1021847" lon="11.4327678"><ele>146.0</ele><time>2026-04-04T11:36:26.936Z</time></trkpt><trkpt lat="43.1021187" lon="11.4326519"><ele>146.0</ele><time>2026-04-04T11:36:27.926Z</time></trkpt><trkpt lat="43.102044" lon="11.4325671"><ele>146.0</ele><time>2026-04-04T11:36:28.928Z</time></trkpt><trkpt lat="43.1019577" lon="11.4324959"><ele>146.0</ele><time>2026-04-04T11:36:29.928Z</time></trkpt><trkpt lat="43.1018601" lon="11.4324624"><ele>146.0</ele><time>2026-04-04T11:36:30.939Z</time></trkpt><trkpt lat="43.101756" lon="11.4324496"><ele>146.0</ele><time>2026-04-04T11:36:31.936Z</time></trkpt><trkpt lat="43.1016493" lon="11.4324484"><ele>146.0</ele><time>2026-04-04T11:36:32.935Z</time></trkpt><trkpt lat="43.101538" lon="11.4324352"><ele>146.0</ele><time>2026-04-04T11:36:33.926Z</time></trkpt><trkpt lat="43.1014299" lon="11.4324218"><ele>146.0</ele><time>2026-04-04T11:36:34.934Z</time></trkpt><trkpt lat="43.1013158" lon="11.4324076"><ele>146.0</ele><time>2026-04-04T11:36:35.931Z</time></trkpt><trkpt lat="43.1012037" lon="11.432397"><ele>147.5</ele><time>2026-04-04T11:36:36.928Z</time></trkpt><trkpt lat="43.1010904" lon="11.4323834"><ele>149.0</ele><time>2026-04-04T11:36:37.932Z</time></trkpt><trkpt lat="43.1009718" lon="11.4323739"><ele>150.5</ele><time>2026-04-04T11:36:38.932Z</time></trkpt><trkpt lat="43.1008527" lon="11.4323627"><ele>152.0</ele><time>2026-04-04T11:36:39.937Z</time></trkpt><trkpt lat="43.1007331" lon="11.4323532"><ele>153.2</ele><time>2026-04-04T11:36:40.927Z</time></trkpt><trkpt lat="43.1006177" lon="11.4323422"><ele>154.39999999999998</ele><time>2026-04-04T11:36:41.927Z</time></trkpt><trkpt lat="43.1005024" lon="11.4323301"><ele>155.60000000000002</ele><time>2026-04-04T11:36:42.936Z</time></trkpt><trkpt lat="43.1003924" lon="11.4323121"><ele>156.8</ele><time>2026-04-04T11:36:43.933Z</time></trkpt><trkpt lat="43.1002919" lon="11.4323024"><ele>158.0</ele><time>2026-04-04T11:36:44.939Z</time></trkpt><trkpt lat="43.1001936" lon="11.4322988"><ele>158.0</ele><time>2026-04-04T11:36:45.928Z</time></trkpt><trkpt lat="43.1001009" lon="11.4322911"><ele>158.0</ele><time>2026-04-04T11:36:46.925Z</time></trkpt><trkpt lat="43.1000111" lon="11.432284"><ele>158.0</ele><time>2026-04-04T11:36:47.93Z</time></trkpt><trkpt lat="43.0999185" lon="11.4322758"><ele>158.0</ele><time>2026-04-04T11:36:48.934Z</time></trkpt><trkpt lat="43.0998324" lon="11.4322683"><ele>158.0</ele><time>2026-04-04T11:36:49.937Z</time></trkpt><trkpt lat="43.0997427" lon="11.4322617"><ele>158.5</ele><time>2026-04-04T11:36:50.932Z</time></trkpt><trkpt lat="43.0996519" lon="11.4322507"><ele>159.0</ele><time>2026-04-04T11:36:51.928Z</time></trkpt><trkpt lat="43.0995592" lon="11.4322452"><ele>159.5</ele><time>2026-04-04T11:36:52.929Z</time></trkpt><trkpt lat="43.0994702" lon="11.432238"><ele>160.0</ele><time>2026-04-04T11:36:53.94Z</time></trkpt><trkpt lat="43.0993847" lon="11.4322317"><ele>160.5</ele><time>2026-04-04T11:36:54.926Z</time></trkpt><trkpt lat="43.0992999" lon="11.4322229"><ele>161.0</ele><time>2026-04-04T11:36:55.941Z</time></trkpt><trkpt lat="43.0992133" lon="11.4322181"><ele>161.0</ele><time>2026-04-04T11:36:56.929Z</time></trkpt><trkpt lat="43.0991218" lon="11.4322056"><ele>161.0</ele><time>2026-04-04T11:36:57.935Z</time></trkpt><trkpt lat="43.0990308" lon="11.4321999"><ele>161.0</ele><time>2026-04-04T11:36:58.924Z</time></trkpt><trkpt lat="43.0989436" lon="11.4321861"><ele>161.0</ele><time>2026-04-04T11:36:59.939Z</time></trkpt><trkpt lat="43.0988593" lon="11.4321681"><ele>161.0</ele><time>2026-04-04T11:37:00.927Z</time></trkpt><trkpt lat="43.0987692" lon="11.4321533"><ele>161.0</ele><time>2026-04-04T11:37:01.928Z</time></trkpt><trkpt lat="43.098682" lon="11.4321298"><ele>161.33333333333331</ele><time>2026-04-04T11:37:02.934Z</time></trkpt><trkpt lat="43.0985989" lon="11.4320925"><ele>161.66666666666666</ele><time>2026-04-04T11:37:03.933Z</time></trkpt><trkpt lat="43.0985151" lon="11.4320377"><ele>162.0</ele><time>2026-04-04T11:37:04.975Z</time></trkpt><trkpt lat="43.0984381" lon="11.4319823"><ele>162.33333333333334</ele><time>2026-04-04T11:37:05.935Z</time></trkpt><trkpt lat="43.09836" lon="11.4319186"><ele>162.66666666666669</ele><time>2026-04-04T11:37:06.929Z</time></trkpt><trkpt lat="43.0982837" lon="11.4318502"><ele>163.0</ele><time>2026-04-04T11:37:07.934Z</time></trkpt><trkpt lat="43.0982106" lon="11.4317849"><ele>163.0</ele><time>2026-04-04T11:37:08.922Z</time></trkpt><trkpt lat="43.0981348" lon="11.4317151"><ele>163.0</ele><time>2026-04-04T11:37:09.923Z</time></trkpt><trkpt lat="43.0980544" lon="11.4316513"><ele>163.0</ele><time>2026-04-04T11:37:10.92Z</time></trkpt><trkpt lat="43.0979748" lon="11.4315841"><ele>163.0</ele><time>2026-04-04T11:37:11.934Z</time></trkpt><trkpt lat="43.0978947" lon="11.4315133"><ele>163.0</ele><time>2026-04-04T11:37:12.935Z</time></trkpt><trkpt lat="43.097816" lon="11.4314511"><ele>163.0</ele><time>2026-04-04T11:37:13.931Z</time></trkpt><trkpt lat="43.097733" lon="11.4313851"><ele>163.0</ele><time>2026-04-04T11:37:14.93Z</time></trkpt><trkpt lat="43.097647" lon="11.4313129"><ele>163.0</ele><time>2026-04-04T11:37:15.935Z</time></trkpt><trkpt lat="43.0975669" lon="11.4312372"><ele>163.0</ele><time>2026-04-04T11:37:16.92Z</time></trkpt><trkpt lat="43.097488" lon="11.4311616"><ele>163.0</ele><time>2026-04-04T11:37:17.926Z</time></trkpt><trkpt lat="43.0974064" lon="11.4310936"><ele>163.8</ele><time>2026-04-04T11:37:18.943Z</time></trkpt><trkpt lat="43.0973229" lon="11.4310253"><ele>164.60000000000002</ele><time>2026-04-04T11:37:19.934Z</time></trkpt><trkpt lat="43.0972416" lon="11.4309552"><ele>165.39999999999998</ele><time>2026-04-04T11:37:20.936Z</time></trkpt><trkpt lat="43.0971596" lon="11.430896"><ele>166.2</ele><time>2026-04-04T11:37:21.94Z</time></trkpt><trkpt lat="43.097082" lon="11.4308321"><ele>167.0</ele><time>2026-04-04T11:37:22.935Z</time></trkpt><trkpt lat="43.0970018" lon="11.4307762"><ele>167.0</ele><time>2026-04-04T11:37:23.943Z</time></trkpt><trkpt lat="43.0969245" lon="11.4307206"><ele>167.0</ele><time>2026-04-04T11:37:24.93Z</time></trkpt><trkpt lat="43.096846" lon="11.4306594"><ele>167.0</ele><time>2026-04-04T11:37:25.932Z</time></trkpt><trkpt lat="43.0967738" lon="11.4305876"><ele>167.0</ele><time>2026-04-04T11:37:26.931Z</time></trkpt><trkpt lat="43.0967023" lon="11.4304989"><ele>167.0</ele><time>2026-04-04T11:37:27.928Z</time></trkpt><trkpt lat="43.0966376" lon="11.4304096"><ele>167.66666666666666</ele><time>2026-04-04T11:37:28.927Z</time></trkpt><trkpt lat="43.0965743" lon="11.4303362"><ele>168.33333333333331</ele><time>2026-04-04T11:37:29.934Z</time></trkpt><trkpt lat="43.0965145" lon="11.430256"><ele>169.0</ele><time>2026-04-04T11:37:30.94Z</time></trkpt><trkpt lat="43.0964524" lon="11.4301843"><ele>169.66666666666666</ele><time>2026-04-04T11:37:31.934Z</time></trkpt><trkpt lat="43.0963924" lon="11.4301127"><ele>170.33333333333334</ele><time>2026-04-04T11:37:32.938Z</time></trkpt><trkpt lat="43.0963327" lon="11.4300362"><ele>171.0</ele><time>2026-04-04T11:37:33.93Z</time></trkpt><trkpt lat="43.0962744" lon="11.4299602"><ele>171.0</ele><time>2026-04-04T11:37:34.938Z</time></trkpt><trkpt lat="43.0962144" lon="11.4298835"><ele>171.0</ele><time>2026-04-04T11:37:35.931Z</time></trkpt><trkpt lat="43.0961487" lon="11.4298144"><ele>171.0</ele><time>2026-04-04T11:37:36.931Z</time></trkpt><trkpt lat="43.0960843" lon="11.4297414"><ele>171.0</ele><time>2026-04-04T11:37:37.934Z</time></trkpt><trkpt lat="43.0960212" lon="11.4296716"><ele>171.0</ele><time>2026-04-04T11:37:38.932Z</time></trkpt><trkpt lat="43.0959531" lon="11.4296104"><ele>171.0</ele><time>2026-04-04T11:37:39.927Z</time></trkpt><trkpt lat="43.0958828" lon="11.4295525"><ele>171.66666666666666</ele><time>2026-04-04T11:37:40.926Z</time></trkpt><trkpt lat="43.0958117" lon="11.4294932"><ele>172.33333333333334</ele><time>2026-04-04T11:37:41.931Z</time></trkpt><trkpt lat="43.0957364" lon="11.429432"><ele>173.0</ele><time>2026-04-04T11:37:42.934Z</time></trkpt><trkpt lat="43.0956597" lon="11.4293698"><ele>173.66666666666669</ele><time>2026-04-04T11:37:43.947Z</time></trkpt><trkpt lat="43.0955832" lon="11.4293193"><ele>174.33333333333334</ele><time>2026-04-04T11:37:44.932Z</time></trkpt><trkpt lat="43.0955086" lon="11.4292651"><ele>175.0</ele><time>2026-04-04T11:37:45.933Z</time></trkpt><trkpt lat="43.0954315" lon="11.4292115"><ele>175.66666666666669</ele><time>2026-04-04T11:37:46.926Z</time></trkpt><trkpt lat="43.0953545" lon="11.4291593"><ele>176.33333333333334</ele><time>2026-04-04T11:37:47.937Z</time></trkpt><trkpt lat="43.0952777" lon="11.4291064"><ele>177.0</ele><time>2026-04-04T11:37:48.931Z</time></trkpt><trkpt lat="43.0951982" lon="11.4290603"><ele>177.66666666666666</ele><time>2026-04-04T11:37:49.932Z</time></trkpt><trkpt lat="43.0951181" lon="11.4290043"><ele>178.33333333333331</ele><time>2026-04-04T11:37:50.935Z</time></trkpt><trkpt lat="43.0950395" lon="11.4289488"><ele>179.0</ele><time>2026-04-04T11:37:51.923Z</time></trkpt><trkpt lat="43.0949637" lon="11.4288907"><ele>179.5</ele><time>2026-04-04T11:37:52.92Z</time></trkpt><trkpt lat="43.0948839" lon="11.4288291"><ele>180.0</ele><time>2026-04-04T11:37:53.929Z</time></trkpt><trkpt lat="43.0948087" lon="11.4287771"><ele>180.5</ele><time>2026-04-04T11:37:54.93Z</time></trkpt><trkpt lat="43.0947424" lon="11.4287241"><ele>181.0</ele><time>2026-04-04T11:37:55.926Z</time></trkpt><trkpt lat="43.0946592" lon="11.4286676"><ele>181.5</ele><time>2026-04-04T11:37:57.926Z</time></trkpt><trkpt lat="43.0945923" lon="11.4286377"><ele>182.0</ele><time>2026-04-04T11:38:11.946Z</time></trkpt><trkpt lat="43.0945202" lon="11.428563"><ele>182.8</ele><time>2026-04-04T11:38:14.931Z</time></trkpt><trkpt lat="43.0944345" lon="11.4284999"><ele>183.6</ele><time>2026-04-04T11:38:16.937Z</time></trkpt><trkpt lat="43.094328" lon="11.4284333"><ele>184.4</ele><time>2026-04-04T11:38:18.948Z</time></trkpt><trkpt lat="43.0942239" lon="11.4283611"><ele>185.20000000000002</ele><time>2026-04-04T11:38:20.944Z</time></trkpt><trkpt lat="43.0941689" lon="11.4283165"><ele>186.0</ele><time>2026-04-04T11:38:21.942Z</time></trkpt><trkpt lat="43.0941097" lon="11.4282707"><ele>186.33333333333334</ele><time>2026-04-04T11:38:22.953Z</time></trkpt><trkpt lat="43.0940511" lon="11.4282225"><ele>186.66666666666666</ele><time>2026-04-04T11:38:23.951Z</time></trkpt><trkpt lat="43.0939867" lon="11.428171"><ele>187.0</ele><time>2026-04-04T11:38:24.944Z</time></trkpt><trkpt lat="43.0939168" lon="11.4281206"><ele>187.33333333333331</ele><time>2026-04-04T11:38:25.932Z</time></trkpt><trkpt lat="43.0938473" lon="11.4280749"><ele>187.66666666666666</ele><time>2026-04-04T11:38:26.957Z</time></trkpt><trkpt lat="43.0937738" lon="11.428021"><ele>188.0</ele><time>2026-04-04T11:38:27.948Z</time></trkpt><trkpt lat="43.093702" lon="11.4279705"><ele>188.5</ele><time>2026-04-04T11:38:28.939Z</time></trkpt><trkpt lat="43.0936271" lon="11.4279144"><ele>189.0</ele><time>2026-04-04T11:38:29.953Z</time></trkpt><trkpt lat="43.0935494" lon="11.427858"><ele>189.5</ele><time>2026-04-04T11:38:30.945Z</time></trkpt><trkpt lat="43.093477" lon="11.4278035"><ele>190.0</ele><time>2026-04-04T11:38:31.951Z</time></trkpt><trkpt lat="43.0934007" lon="11.4277485"><ele>190.5</ele><time>2026-04-04T11:38:32.946Z</time></trkpt><trkpt lat="43.0933231" lon="11.427694"><ele>191.0</ele><time>2026-04-04T11:38:33.943Z</time></trkpt><trkpt lat="43.093247" lon="11.4276329"><ele>191.60000000000002</ele><time>2026-04-04T11:38:34.943Z</time></trkpt><trkpt lat="43.0931713" lon="11.4275735"><ele>192.2</ele><time>2026-04-04T11:38:35.945Z</time></trkpt><trkpt lat="43.0930899" lon="11.4275156"><ele>192.8</ele><time>2026-04-04T11:38:36.939Z</time></trkpt><trkpt lat="43.0930068" lon="11.4274628"><ele>193.39999999999998</ele><time>2026-04-04T11:38:37.942Z</time></trkpt><trkpt lat="43.0929233" lon="11.4274053"><ele>194.0</ele><time>2026-04-04T11:38:38.932Z</time></trkpt><trkpt lat="43.0928391" lon="11.4273403"><ele>194.0</ele><time>2026-04-04T11:38:39.943Z</time></trkpt><trkpt lat="43.0927534" lon="11.4272792"><ele>194.0</ele><time>2026-04-04T11:38:40.933Z</time></trkpt><trkpt lat="43.0926697" lon="11.4272145"><ele>194.0</ele><time>2026-04-04T11:38:41.954Z</time></trkpt><trkpt lat="43.0925847" lon="11.4271507"><ele>194.0</ele><time>2026-04-04T11:38:42.943Z</time></trkpt><trkpt lat="43.0925015" lon="11.4270867"><ele>194.0</ele><time>2026-04-04T11:38:43.95Z</time></trkpt><trkpt lat="43.0924147" lon="11.4270204"><ele>195.2</ele><time>2026-04-04T11:38:44.935Z</time></trkpt><trkpt lat="43.0923246" lon="11.4269577"><ele>196.39999999999998</ele><time>2026-04-04T11:38:45.94Z</time></trkpt><trkpt lat="43.0922394" lon="11.4268922"><ele>197.6</ele><time>2026-04-04T11:38:46.941Z</time></trkpt><trkpt lat="43.0921548" lon="11.4268326"><ele>198.8</ele><time>2026-04-04T11:38:47.942Z</time></trkpt><trkpt lat="43.0920692" lon="11.4267733"><ele>200.0</ele><time>2026-04-04T11:38:48.939Z</time></trkpt><trkpt lat="43.0919852" lon="11.4267142"><ele>200.0</ele><time>2026-04-04T11:38:49.942Z</time></trkpt><trkpt lat="43.0919045" lon="11.4266481"><ele>200.0</ele><time>2026-04-04T11:38:50.941Z</time></trkpt><trkpt lat="43.0918187" lon="11.4265914"><ele>200.0</ele><time>2026-04-04T11:38:51.94Z</time></trkpt><trkpt lat="43.0917377" lon="11.42653"><ele>200.0</ele><time>2026-04-04T11:38:52.939Z</time></trkpt><trkpt lat="43.0916518" lon="11.4264739"><ele>200.0</ele><time>2026-04-04T11:38:53.929Z</time></trkpt><trkpt lat="43.0915719" lon="11.4264148"><ele>199.83333333333334</ele><time>2026-04-04T11:38:54.925Z</time></trkpt><trkpt lat="43.0914928" lon="11.4263538"><ele>199.66666666666669</ele><time>2026-04-04T11:38:55.934Z</time></trkpt><trkpt lat="43.0914185" lon="11.4263007"><ele>199.5</ele><time>2026-04-04T11:38:56.948Z</time></trkpt><trkpt lat="43.0913411" lon="11.4262371"><ele>199.33333333333331</ele><time>2026-04-04T11:38:57.921Z</time></trkpt><trkpt lat="43.0912632" lon="11.426176"><ele>199.16666666666666</ele><time>2026-04-04T11:38:58.917Z</time></trkpt><trkpt lat="43.0911916" lon="11.4261143"><ele>199.0</ele><time>2026-04-04T11:38:59.941Z</time></trkpt><trkpt lat="43.0911078" lon="11.426056"><ele>199.79999999999998</ele><time>2026-04-04T11:39:00.927Z</time></trkpt><trkpt lat="43.091025" lon="11.4260096"><ele>200.6</ele><time>2026-04-04T11:39:01.936Z</time></trkpt><trkpt lat="43.0909346" lon="11.4259699"><ele>201.4</ele><time>2026-04-04T11:39:02.934Z</time></trkpt><trkpt lat="43.0908443" lon="11.4259418"><ele>202.2</ele><time>2026-04-04T11:39:03.943Z</time></trkpt><trkpt lat="43.0907495" lon="11.4259195"><ele>203.0</ele><time>2026-04-04T11:39:04.936Z</time></trkpt><trkpt lat="43.0906558" lon="11.4258975"><ele>204.2</ele><time>2026-04-04T11:39:05.94Z</time></trkpt><trkpt lat="43.0905587" lon="11.4258703"><ele>205.4</ele><time>2026-04-04T11:39:06.928Z</time></trkpt><trkpt lat="43.0904635" lon="11.4258383"><ele>206.6</ele><time>2026-04-04T11:39:07.926Z</time></trkpt><trkpt lat="43.0903665" lon="11.4258098"><ele>207.79999999999998</ele><time>2026-04-04T11:39:08.916Z</time></trkpt><trkpt lat="43.0902734" lon="11.4257813"><ele>209.0</ele><time>2026-04-04T11:39:09.924Z</time></trkpt><trkpt lat="43.090179" lon="11.4257543"><ele>209.0</ele><time>2026-04-04T11:39:10.936Z</time></trkpt><trkpt lat="43.0900819" lon="11.4257274"><ele>209.0</ele><time>2026-04-04T11:39:11.928Z</time></trkpt><trkpt lat="43.0899784" lon="11.4257025"><ele>209.0</ele><time>2026-04-04T11:39:12.94Z</time></trkpt><trkpt lat="43.0898768" lon="11.4256739"><ele>209.0</ele><time>2026-04-04T11:39:13.932Z</time></trkpt><trkpt lat="43.0897774" lon="11.4256473"><ele>209.0</ele><time>2026-04-04T11:39:14.934Z</time></trkpt><trkpt lat="43.0896794" lon="11.4256235"><ele>210.0</ele><time>2026-04-04T11:39:15.93Z</time></trkpt><trkpt lat="43.0895838" lon="11.4255939"><ele>211.0</ele><time>2026-04-04T11:39:16.934Z</time></trkpt><trkpt lat="43.0894886" lon="11.4255704"><ele>211.99999999999997</ele><time>2026-04-04T11:39:17.928Z</time></trkpt><trkpt lat="43.0893988" lon="11.4255432"><ele>213.0</ele><time>2026-04-04T11:39:18.925Z</time></trkpt><trkpt lat="43.089305" lon="11.4255145"><ele>214.0</ele><time>2026-04-04T11:39:19.936Z</time></trkpt><trkpt lat="43.089216" lon="11.4254846"><ele>215.49999999999997</ele><time>2026-04-04T11:39:20.933Z</time></trkpt><trkpt lat="43.0891274" lon="11.42545"><ele>217.0</ele><time>2026-04-04T11:39:21.93Z</time></trkpt><trkpt lat="43.0890584" lon="11.4254065"><ele>218.5</ele><time>2026-04-04T11:39:22.933Z</time></trkpt><trkpt lat="43.0890057" lon="11.4253552"><ele>220.0</ele><time>2026-04-04T11:39:23.939Z</time></trkpt><trkpt lat="43.0889653" lon="11.4252842"><ele>221.49999999999997</ele><time>2026-04-04T11:39:24.935Z</time></trkpt><trkpt lat="43.0889377" lon="11.4251976"><ele>223.0</ele><time>2026-04-04T11:39:25.932Z</time></trkpt><trkpt lat="43.0889344" lon="11.4250238"><ele>225.83333333333331</ele><time>2026-04-04T11:39:27.922Z</time></trkpt><trkpt lat="43.0889483" lon="11.4248654"><ele>228.66666666666666</ele><time>2026-04-04T11:39:29.929Z</time></trkpt><trkpt lat="43.088957" lon="11.42475"><ele>231.5</ele><time>2026-04-04T11:39:31.931Z</time></trkpt><trkpt lat="43.0889834" lon="11.4246456"><ele>234.33333333333331</ele><time>2026-04-04T11:39:34.921Z</time></trkpt><trkpt lat="43.088998" lon="11.4245393"><ele>237.16666666666666</ele><time>2026-04-04T11:39:36.929Z</time></trkpt><trkpt lat="43.0890143" lon="11.4244365"><ele>240.0</ele><time>2026-04-04T11:39:38.921Z</time></trkpt><trkpt lat="43.0890433" lon="11.4243216"><ele>239.66666666666666</ele><time>2026-04-04T11:39:40.928Z</time></trkpt><trkpt lat="43.0890512" lon="11.4242095"><ele>239.33333333333331</ele><time>2026-04-04T11:39:42.928Z</time></trkpt><trkpt lat="43.0890847" lon="11.4240671"><ele>239.0</ele><time>2026-04-04T11:39:44.935Z</time></trkpt><trkpt lat="43.0891213" lon="11.4239124"><ele>238.66666666666666</ele><time>2026-04-04T11:39:46.933Z</time></trkpt><trkpt lat="43.0891369" lon="11.4238251"><ele>238.33333333333331</ele><time>2026-04-04T11:39:47.932Z</time></trkpt><trkpt lat="43.089156" lon="11.423736"><ele>238.0</ele><time>2026-04-04T11:39:48.933Z</time></trkpt><trkpt lat="43.0891651" lon="11.4236414"><ele>237.99999999999997</ele><time>2026-04-04T11:39:49.934Z</time></trkpt><trkpt lat="43.0891777" lon="11.4235476"><ele>238.0</ele><time>2026-04-04T11:39:50.928Z</time></trkpt><trkpt lat="43.0891823" lon="11.4234543"><ele>238.0</ele><time>2026-04-04T11:39:51.94Z</time></trkpt><trkpt lat="43.0891798" lon="11.4233668"><ele>238.0</ele><time>2026-04-04T11:39:52.934Z</time></trkpt><trkpt lat="43.0891607" lon="11.4232089"><ele>237.99999999999997</ele><time>2026-04-04T11:39:55.008Z</time></trkpt><trkpt lat="43.0891071" lon="11.4230721"><ele>238.0</ele><time>2026-04-04T11:39:56.922Z</time></trkpt><trkpt lat="43.0890521" lon="11.4229234"><ele>241.57142857142856</ele><time>2026-04-04T11:39:58.93Z</time></trkpt><trkpt lat="43.0890227" lon="11.4228467"><ele>245.14285714285714</ele><time>2026-04-04T11:39:59.931Z</time></trkpt><trkpt lat="43.0889917" lon="11.4227679"><ele>248.71428571428572</ele><time>2026-04-04T11:40:00.925Z</time></trkpt><trkpt lat="43.088959" lon="11.4226872"><ele>252.28571428571428</ele><time>2026-04-04T11:40:01.936Z</time></trkpt><trkpt lat="43.0889296" lon="11.422605"><ele>255.85714285714283</ele><time>2026-04-04T11:40:02.927Z</time></trkpt><trkpt lat="43.0888946" lon="11.4225238"><ele>259.42857142857144</ele><time>2026-04-04T11:40:03.932Z</time></trkpt><trkpt lat="43.0888607" lon="11.4224497"><ele>263.0</ele><time>2026-04-04T11:40:04.94Z</time></trkpt><trkpt lat="43.0888239" lon="11.4223795"><ele>263.0</ele><time>2026-04-04T11:40:05.928Z</time></trkpt><trkpt lat="43.0887867" lon="11.4222929"><ele>263.0</ele><time>2026-04-04T11:40:06.944Z</time></trkpt><trkpt lat="43.0887584" lon="11.4222076"><ele>263.0</ele><time>2026-04-04T11:40:07.93Z</time></trkpt><trkpt lat="43.0887264" lon="11.4221266"><ele>263.0</ele><time>2026-04-04T11:40:08.941Z</time></trkpt><trkpt lat="43.0886949" lon="11.4220422"><ele>263.0</ele><time>2026-04-04T11:40:09.925Z</time></trkpt><trkpt lat="43.0886686" lon="11.4219591"><ele>263.0</ele><time>2026-04-04T11:40:10.936Z</time></trkpt><trkpt lat="43.0886329" lon="11.4218824"><ele>263.0</ele><time>2026-04-04T11:40:11.931Z</time></trkpt><trkpt lat="43.0885419" lon="11.4217701"><ele>261.8</ele><time>2026-04-04T11:40:13.93Z</time></trkpt><trkpt lat="43.0884282" lon="11.4217056"><ele>260.6</ele><time>2026-04-04T11:40:15.932Z</time></trkpt><trkpt lat="43.0883303" lon="11.4217004"><ele>259.4</ele><time>2026-04-04T11:40:17.932Z</time></trkpt><trkpt lat="43.0882419" lon="11.4217567"><ele>258.2</ele><time>2026-04-04T11:40:19.932Z</time></trkpt><trkpt lat="43.0881755" lon="11.4218527"><ele>257.0</ele><time>2026-04-04T11:40:21.93Z</time></trkpt><trkpt lat="43.0881285" lon="11.4219759"><ele>262.5</ele><time>2026-04-04T11:40:23.973Z</time></trkpt><trkpt lat="43.0880899" lon="11.4221187"><ele>268.0</ele><time>2026-04-04T11:40:25.933Z</time></trkpt><trkpt lat="43.0880522" lon="11.4222819"><ele>273.5</ele><time>2026-04-04T11:40:27.928Z</time></trkpt><trkpt lat="43.088006" lon="11.4224447"><ele>279.0</ele><time>2026-04-04T11:40:29.933Z</time></trkpt><trkpt lat="43.087957" lon="11.4226036"><ele>279.59999999999997</ele><time>2026-04-04T11:40:31.924Z</time></trkpt><trkpt lat="43.0879246" lon="11.4227676"><ele>280.2</ele><time>2026-04-04T11:40:33.928Z</time></trkpt><trkpt lat="43.087885" lon="11.4229317"><ele>280.79999999999995</ele><time>2026-04-04T11:40:35.922Z</time></trkpt><trkpt lat="43.0878592" lon="11.4230181"><ele>281.4</ele><time>2026-04-04T11:40:36.936Z</time></trkpt><trkpt lat="43.0878313" lon="11.4231001"><ele>282.0</ele><time>2026-04-04T11:40:37.925Z</time></trkpt><trkpt lat="43.0877946" lon="11.4231807"><ele>282.14285714285717</ele><time>2026-04-04T11:40:38.925Z</time></trkpt><trkpt lat="43.0877584" lon="11.4232616"><ele>282.2857142857143</ele><time>2026-04-04T11:40:39.932Z</time></trkpt><trkpt lat="43.0877235" lon="11.4233451"><ele>282.42857142857144</ele><time>2026-04-04T11:40:40.926Z</time></trkpt><trkpt lat="43.087685" lon="11.4234193"><ele>282.57142857142856</ele><time>2026-04-04T11:40:41.923Z</time></trkpt><trkpt lat="43.0876084" lon="11.423503"><ele>282.7142857142857</ele><time>2026-04-04T11:40:43.925Z</time></trkpt><trkpt lat="43.087546" lon="11.4234916"><ele>282.8571428571429</ele><time>2026-04-04T11:40:45.925Z</time></trkpt><trkpt lat="43.0874939" lon="11.4234051"><ele>283.0</ele><time>2026-04-04T11:40:47.938Z</time></trkpt><trkpt lat="43.0874527" lon="11.4232932"><ele>288.4</ele><time>2026-04-04T11:40:49.935Z</time></trkpt><trkpt lat="43.0874195" lon="11.4231576"><ele>293.8</ele><time>2026-04-04T11:40:51.935Z</time></trkpt><trkpt lat="43.0873952" lon="11.4230156"><ele>299.2</ele><time>2026-04-04T11:40:53.947Z</time></trkpt><trkpt lat="43.0873665" lon="11.4228683"><ele>304.6</ele><time>2026-04-04T11:40:55.93Z</time></trkpt><trkpt lat="43.0873353" lon="11.4227353"><ele>310.0</ele><time>2026-04-04T11:40:57.956Z</time></trkpt><trkpt lat="43.0872835" lon="11.4226352"><ele>310.0</ele><time>2026-04-04T11:40:59.931Z</time></trkpt><trkpt lat="43.0872052" lon="11.4226099"><ele>310.0</ele><time>2026-04-04T11:41:01.968Z</time></trkpt><trkpt lat="43.0871541" lon="11.4227005"><ele>310.0</ele><time>2026-04-04T11:41:03.922Z</time></trkpt><trkpt lat="43.0871435" lon="11.4228294"><ele>310.0</ele><time>2026-04-04T11:41:05.919Z</time></trkpt><trkpt lat="43.0871187" lon="11.4229659"><ele>310.0</ele><time>2026-04-04T11:41:07.933Z</time></trkpt><trkpt lat="43.0870774" lon="11.4231274"><ele>310.0</ele><time>2026-04-04T11:41:09.936Z</time></trkpt><trkpt lat="43.0870443" lon="11.4232913"><ele>310.0</ele><time>2026-04-04T11:41:11.933Z</time></trkpt><trkpt lat="43.0870067" lon="11.4234663"><ele>310.0</ele><time>2026-04-04T11:41:13.928Z</time></trkpt><trkpt lat="43.0869852" lon="11.4235485"><ele>310.0</ele><time>2026-04-04T11:41:14.926Z</time></trkpt><trkpt lat="43.0869299" lon="11.4236979"><ele>310.0</ele><time>2026-04-04T11:41:16.94Z</time></trkpt><trkpt lat="43.08684" lon="11.4238083"><ele>307.8</ele><time>2026-04-04T11:41:18.93Z</time></trkpt><trkpt lat="43.0867313" lon="11.4238634"><ele>305.6</ele><time>2026-04-04T11:41:20.923Z</time></trkpt><trkpt lat="43.0866414" lon="11.4238559"><ele>303.4</ele><time>2026-04-04T11:41:22.939Z</time></trkpt><trkpt lat="43.0865494" lon="11.4238007"><ele>301.2</ele><time>2026-04-04T11:41:24.933Z</time></trkpt><trkpt lat="43.0864624" lon="11.4237201"><ele>299.0</ele><time>2026-04-04T11:41:26.934Z</time></trkpt><trkpt lat="43.086392" lon="11.4236196"><ele>304.79999999999995</ele><time>2026-04-04T11:41:28.931Z</time></trkpt><trkpt lat="43.0863711" lon="11.4235022"><ele>310.59999999999997</ele><time>2026-04-04T11:41:30.935Z</time></trkpt><trkpt lat="43.0864018" lon="11.4233905"><ele>316.4</ele><time>2026-04-04T11:41:32.934Z</time></trkpt><trkpt lat="43.0864462" lon="11.423263"><ele>322.2</ele><time>2026-04-04T11:41:34.93Z</time></trkpt><trkpt lat="43.0864881" lon="11.4231131"><ele>328.0</ele><time>2026-04-04T11:41:36.935Z</time></trkpt><trkpt lat="43.0865151" lon="11.4229513"><ele>328.0</ele><time>2026-04-04T11:41:38.931Z</time></trkpt><trkpt lat="43.0865136" lon="11.4228572"><ele>328.0</ele><time>2026-04-04T11:41:39.93Z</time></trkpt><trkpt lat="43.0864931" lon="11.4227746"><ele>328.0</ele><time>2026-04-04T11:41:40.945Z</time></trkpt><trkpt lat="43.0864203" lon="11.4226375"><ele>328.0</ele><time>2026-04-04T11:41:42.918Z</time></trkpt><trkpt lat="43.0863082" lon="11.422611"><ele>328.0</ele><time>2026-04-04T11:41:44.924Z</time></trkpt><trkpt lat="43.0862053" lon="11.4226764"><ele>328.0</ele><time>2026-04-04T11:41:46.932Z</time></trkpt><trkpt lat="43.0861274" lon="11.4228068"><ele>328.0</ele><time>2026-04-04T11:41:48.934Z</time></trkpt><trkpt lat="43.0860998" lon="11.4228864"><ele>328.0</ele><time>2026-04-04T11:41:49.94Z</time></trkpt><trkpt lat="43.0860639" lon="11.4229684"><ele>328.0</ele><time>2026-04-04T11:41:50.939Z</time></trkpt><trkpt lat="43.0860248" lon="11.4230405"><ele>328.0</ele><time>2026-04-04T11:41:51.934Z</time></trkpt><trkpt lat="43.0859469" lon="11.4231674"><ele>328.0</ele><time>2026-04-04T11:41:53.938Z</time></trkpt><trkpt lat="43.0858394" lon="11.4232681"><ele>328.16666666666663</ele><time>2026-04-04T11:41:55.936Z</time></trkpt><trkpt lat="43.0857703" lon="11.4232628"><ele>328.3333333333333</ele><time>2026-04-04T11:41:56.99Z</time></trkpt><trkpt lat="43.0857022" lon="11.4232302"><ele>328.5</ele><time>2026-04-04T11:41:57.931Z</time></trkpt><trkpt lat="43.0856457" lon="11.4231567"><ele>328.6666666666667</ele><time>2026-04-04T11:41:58.932Z</time></trkpt><trkpt lat="43.0855946" lon="11.4230695"><ele>328.83333333333337</ele><time>2026-04-04T11:41:59.925Z</time></trkpt><trkpt lat="43.0855542" lon="11.422974"><ele>329.0</ele><time>2026-04-04T11:42:00.933Z</time></trkpt><trkpt lat="43.0855185" lon="11.4228684"><ele>333.0</ele><time>2026-04-04T11:42:01.932Z</time></trkpt><trkpt lat="43.0854852" lon="11.4227576"><ele>337.0</ele><time>2026-04-04T11:42:02.934Z</time></trkpt><trkpt lat="43.0854586" lon="11.422641"><ele>341.0</ele><time>2026-04-04T11:42:03.936Z</time></trkpt><trkpt lat="43.0854263" lon="11.4225101"><ele>345.0</ele><time>2026-04-04T11:42:04.928Z</time></trkpt><trkpt lat="43.0853937" lon="11.4223691"><ele>349.0</ele><time>2026-04-04T11:42:05.93Z</time></trkpt><trkpt lat="43.085359" lon="11.4222342"><ele>346.4</ele><time>2026-04-04T11:42:06.934Z</time></trkpt><trkpt lat="43.0853233" lon="11.4221136"><ele>343.79999999999995</ele><time>2026-04-04T11:42:07.931Z</time></trkpt><trkpt lat="43.0852658" lon="11.4220028"><ele>341.20000000000005</ele><time>2026-04-04T11:42:08.93Z</time></trkpt><trkpt lat="43.08519" lon="11.4219018"><ele>338.6</ele><time>2026-04-04T11:42:09.945Z</time></trkpt><trkpt lat="43.0850973" lon="11.421821"><ele>336.0</ele><time>2026-04-04T11:42:10.935Z</time></trkpt><trkpt lat="43.0850048" lon="11.4217549"><ele>337.8</ele><time>2026-04-04T11:42:11.93Z</time></trkpt><trkpt lat="43.0849079" lon="11.4217027"><ele>339.6</ele><time>2026-04-04T11:42:12.932Z</time></trkpt><trkpt lat="43.0848172" lon="11.4216655"><ele>341.4</ele><time>2026-04-04T11:42:13.963Z</time></trkpt><trkpt lat="43.0847346" lon="11.4216254"><ele>343.2</ele><time>2026-04-04T11:42:14.938Z</time></trkpt><trkpt lat="43.0846497" lon="11.4215988"><ele>345.0</ele><time>2026-04-04T11:42:15.932Z</time></trkpt><trkpt lat="43.0845631" lon="11.4215594"><ele>345.0</ele><time>2026-04-04T11:42:16.93Z</time></trkpt><trkpt lat="43.0844753" lon="11.4215142"><ele>345.0</ele><time>2026-04-04T11:42:17.932Z</time></trkpt><trkpt lat="43.0843872" lon="11.4214676"><ele>345.0</ele><time>2026-04-04T11:42:18.93Z</time></trkpt><trkpt lat="43.0843025" lon="11.4214107"><ele>345.0</ele><time>2026-04-04T11:42:19.939Z</time></trkpt><trkpt lat="43.0842224" lon="11.4213538"><ele>345.0</ele><time>2026-04-04T11:42:20.93Z</time></trkpt><trkpt lat="43.0841448" lon="11.4212991"><ele>345.4</ele><time>2026-04-04T11:42:21.937Z</time></trkpt><trkpt lat="43.0840767" lon="11.4212528"><ele>345.8</ele><time>2026-04-04T11:42:22.928Z</time></trkpt><trkpt lat="43.0840192" lon="11.4212085"><ele>346.20000000000005</ele><time>2026-04-04T11:42:23.94Z</time></trkpt><trkpt lat="43.0839203" lon="11.421123"><ele>346.6</ele><time>2026-04-04T11:42:25.937Z</time></trkpt><trkpt lat="43.0838153" lon="11.4210228"><ele>347.0</ele><time>2026-04-04T11:42:27.933Z</time></trkpt><trkpt lat="43.0837556" lon="11.4209937"><ele>347.0</ele><time>2026-04-04T11:42:28.942Z</time></trkpt><trkpt lat="43.0836356" lon="11.4209521"><ele>347.0</ele><time>2026-04-04T11:42:30.932Z</time></trkpt><trkpt lat="43.0835191" lon="11.4208972"><ele>347.0</ele><time>2026-04-04T11:42:32.935Z</time></trkpt><trkpt lat="43.0834535" lon="11.4208727"><ele>347.0</ele><time>2026-04-04T11:42:33.931Z</time></trkpt><trkpt lat="43.083391" lon="11.4208509"><ele>347.0</ele><time>2026-04-04T11:42:34.92Z</time></trkpt><trkpt lat="43.0832706" lon="11.4208094"><ele>348.6</ele><time>2026-04-04T11:42:36.942Z</time></trkpt><trkpt lat="43.0832092" lon="11.4207897"><ele>350.20000000000005</ele><time>2026-04-04T11:42:37.943Z</time></trkpt><trkpt lat="43.0830965" lon="11.4207611"><ele>351.8</ele><time>2026-04-04T11:42:39.932Z</time></trkpt><trkpt lat="43.0829792" lon="11.4207462"><ele>353.4</ele><time>2026-04-04T11:42:41.937Z</time></trkpt><trkpt lat="43.0828611" lon="11.4206909"><ele>355.0</ele><time>2026-04-04T11:42:43.927Z</time></trkpt><trkpt lat="43.0828013" lon="11.4206566"><ele>355.0</ele><time>2026-04-04T11:42:44.928Z</time></trkpt><trkpt lat="43.0826771" lon="11.4206152"><ele>355.0</ele><time>2026-04-04T11:42:46.943Z</time></trkpt><trkpt lat="43.0825549" lon="11.4205891"><ele>355.0</ele><time>2026-04-04T11:42:48.928Z</time></trkpt><trkpt lat="43.0824234" lon="11.4205631"><ele>355.0</ele><time>2026-04-04T11:42:50.935Z</time></trkpt><trkpt lat="43.0823491" lon="11.4205551"><ele>354.8333333333333</ele><time>2026-04-04T11:42:51.94Z</time></trkpt><trkpt lat="43.0822736" lon="11.4205385"><ele>354.66666666666663</ele><time>2026-04-04T11:42:52.943Z</time></trkpt><trkpt lat="43.0821951" lon="11.4205319"><ele>354.5</ele><time>2026-04-04T11:42:53.942Z</time></trkpt><trkpt lat="43.0821106" lon="11.4205334"><ele>354.3333333333333</ele><time>2026-04-04T11:42:54.944Z</time></trkpt><trkpt lat="43.0820226" lon="11.4205335"><ele>354.1666666666667</ele><time>2026-04-04T11:42:55.933Z</time></trkpt><trkpt lat="43.081939" lon="11.4205251"><ele>354.0</ele><time>2026-04-04T11:42:56.937Z</time></trkpt><trkpt lat="43.081856" lon="11.4205046"><ele>355.0</ele><time>2026-04-04T11:42:57.93Z</time></trkpt><trkpt lat="43.0817688" lon="11.4204652"><ele>356.0</ele><time>2026-04-04T11:42:58.977Z</time></trkpt><trkpt lat="43.0816923" lon="11.4204095"><ele>357.0</ele><time>2026-04-04T11:42:59.929Z</time></trkpt><trkpt lat="43.0816192" lon="11.420342"><ele>358.0</ele><time>2026-04-04T11:43:00.935Z</time></trkpt><trkpt lat="43.0815466" lon="11.4202677"><ele>359.0</ele><time>2026-04-04T11:43:01.936Z</time></trkpt><trkpt lat="43.0814742" lon="11.4201851"><ele>360.1666666666667</ele><time>2026-04-04T11:43:02.941Z</time></trkpt><trkpt lat="43.0814095" lon="11.4200924"><ele>361.33333333333337</ele><time>2026-04-04T11:43:03.93Z</time></trkpt><trkpt lat="43.0813516" lon="11.4199967"><ele>362.5</ele><time>2026-04-04T11:43:04.935Z</time></trkpt><trkpt lat="43.0813008" lon="11.419899"><ele>363.6666666666667</ele><time>2026-04-04T11:43:05.929Z</time></trkpt><trkpt lat="43.0812535" lon="11.4198075"><ele>364.8333333333333</ele><time>2026-04-04T11:43:06.936Z</time></trkpt><trkpt lat="43.0812164" lon="11.4197211"><ele>366.0</ele><time>2026-04-04T11:43:07.937Z</time></trkpt><trkpt lat="43.0811675" lon="11.419634"><ele>366.0</ele><time>2026-04-04T11:43:08.937Z</time></trkpt><trkpt lat="43.0811112" lon="11.4195703"><ele>366.0</ele><time>2026-04-04T11:43:09.928Z</time></trkpt><trkpt lat="43.0810333" lon="11.4195237"><ele>366.0</ele><time>2026-04-04T11:43:10.927Z</time></trkpt><trkpt lat="43.0809404" lon="11.4194782"><ele>366.0</ele><time>2026-04-04T11:43:11.935Z</time></trkpt><trkpt lat="43.0808468" lon="11.4194419"><ele>366.0</ele><time>2026-04-04T11:43:12.935Z</time></trkpt><trkpt lat="43.0807613" lon="11.4194208"><ele>366.0</ele><time>2026-04-04T11:43:13.93Z</time></trkpt><trkpt lat="43.0806776" lon="11.419402"><ele>368.7142857142857</ele><time>2026-04-04T11:43:14.925Z</time></trkpt><trkpt lat="43.0805951" lon="11.4193897"><ele>371.42857142857144</ele><time>2026-04-04T11:43:15.932Z</time></trkpt><trkpt lat="43.0805188" lon="11.4193771"><ele>374.1428571428571</ele><time>2026-04-04T11:43:16.928Z</time></trkpt><trkpt lat="43.08045" lon="11.4193599"><ele>376.8571428571429</ele><time>2026-04-04T11:43:17.932Z</time></trkpt><trkpt lat="43.0803768" lon="11.4193355"><ele>379.57142857142856</ele><time>2026-04-04T11:43:18.933Z</time></trkpt><trkpt lat="43.0803117" lon="11.4192936"><ele>382.2857142857143</ele><time>2026-04-04T11:43:19.94Z</time></trkpt><trkpt lat="43.0802563" lon="11.4192383"><ele>385.0</ele><time>2026-04-04T11:43:20.965Z</time></trkpt><trkpt lat="43.0801856" lon="11.4190932"><ele>385.00000000000006</ele><time>2026-04-04T11:43:22.935Z</time></trkpt><trkpt lat="43.0801651" lon="11.4190086"><ele>385.0</ele><time>2026-04-04T11:43:23.927Z</time></trkpt><trkpt lat="43.0801009" lon="11.4188772"><ele>385.0</ele><time>2026-04-04T11:43:25.936Z</time></trkpt><trkpt lat="43.080053" lon="11.4188151"><ele>385.0</ele><time>2026-04-04T11:43:26.935Z</time></trkpt><trkpt lat="43.0800002" lon="11.4187575"><ele>385.00000000000006</ele><time>2026-04-04T11:43:27.933Z</time></trkpt><trkpt lat="43.0799385" lon="11.4187078"><ele>385.0</ele><time>2026-04-04T11:43:28.928Z</time></trkpt><trkpt lat="43.079871" lon="11.418667"><ele>387.00000000000006</ele><time>2026-04-04T11:43:29.941Z</time></trkpt><trkpt lat="43.0797989" lon="11.4186272"><ele>389.0</ele><time>2026-04-04T11:43:30.933Z</time></trkpt><trkpt lat="43.0797234" lon="11.4185932"><ele>391.0</ele><time>2026-04-04T11:43:31.932Z</time></trkpt><trkpt lat="43.0796458" lon="11.4185581"><ele>393.0</ele><time>2026-04-04T11:43:32.925Z</time></trkpt><trkpt lat="43.0795738" lon="11.4185184"><ele>395.00000000000006</ele><time>2026-04-04T11:43:33.929Z</time></trkpt><trkpt lat="43.0795005" lon="11.4184793"><ele>397.0</ele><time>2026-04-04T11:43:34.927Z</time></trkpt><trkpt lat="43.0794214" lon="11.418436"><ele>397.00000000000006</ele><time>2026-04-04T11:43:35.926Z</time></trkpt><trkpt lat="43.0793374" lon="11.4183965"><ele>397.0</ele><time>2026-04-04T11:43:36.925Z</time></trkpt><trkpt lat="43.0792576" lon="11.4183555"><ele>397.0</ele><time>2026-04-04T11:43:37.927Z</time></trkpt><trkpt lat="43.0791908" lon="11.4183055"><ele>397.0</ele><time>2026-04-04T11:43:38.922Z</time></trkpt><trkpt lat="43.0791356" lon="11.4182486"><ele>397.00000000000006</ele><time>2026-04-04T11:43:39.93Z</time></trkpt><trkpt lat="43.0790829" lon="11.418177"><ele>397.0</ele><time>2026-04-04T11:43:40.931Z</time></trkpt><trkpt lat="43.0790317" lon="11.4181103"><ele>396.7142857142857</ele><time>2026-04-04T11:43:41.93Z</time></trkpt><trkpt lat="43.0789728" lon="11.4180604"><ele>396.42857142857144</ele><time>2026-04-04T11:43:42.927Z</time></trkpt><trkpt lat="43.0789058" lon="11.41802"><ele>396.1428571428571</ele><time>2026-04-04T11:43:44.004Z</time></trkpt><trkpt lat="43.0788353" lon="11.4179943"><ele>395.8571428571429</ele><time>2026-04-04T11:43:44.979Z</time></trkpt><trkpt lat="43.0787561" lon="11.417973"><ele>395.5714285714286</ele><time>2026-04-04T11:43:45.98Z</time></trkpt><trkpt lat="43.0786803" lon="11.4179526"><ele>395.2857142857143</ele><time>2026-04-04T11:43:46.989Z</time></trkpt><trkpt lat="43.0786071" lon="11.4179403"><ele>395.0</ele><time>2026-04-04T11:43:47.974Z</time></trkpt><trkpt lat="43.0785339" lon="11.417931"><ele>395.0</ele><time>2026-04-04T11:43:48.977Z</time></trkpt><trkpt lat="43.0784626" lon="11.4179337"><ele>395.0</ele><time>2026-04-04T11:43:49.989Z</time></trkpt><trkpt lat="43.078393" lon="11.417936"><ele>395.0</ele><time>2026-04-04T11:43:50.972Z</time></trkpt><trkpt lat="43.0783191" lon="11.4179258"><ele>395.0</ele><time>2026-04-04T11:43:51.979Z</time></trkpt><trkpt lat="43.0782469" lon="11.4179132"><ele>395.0</ele><time>2026-04-04T11:43:52.981Z</time></trkpt><trkpt lat="43.078173" lon="11.4179018"><ele>395.0</ele><time>2026-04-04T11:43:53.98Z</time></trkpt><trkpt lat="43.0780998" lon="11.4178854"><ele>395.0</ele><time>2026-04-04T11:43:54.984Z</time></trkpt><trkpt lat="43.0780238" lon="11.4178733"><ele>397.3333333333333</ele><time>2026-04-04T11:43:55.984Z</time></trkpt><trkpt lat="43.0779483" lon="11.4178651"><ele>399.66666666666663</ele><time>2026-04-04T11:43:56.993Z</time></trkpt><trkpt lat="43.0778698" lon="11.4178691"><ele>402.0</ele><time>2026-04-04T11:43:57.976Z</time></trkpt><trkpt lat="43.0777923" lon="11.4178785"><ele>404.33333333333337</ele><time>2026-04-04T11:43:58.982Z</time></trkpt><trkpt lat="43.0777131" lon="11.4178992"><ele>406.6666666666667</ele><time>2026-04-04T11:43:59.984Z</time></trkpt><trkpt lat="43.0776347" lon="11.4179024"><ele>409.0</ele><time>2026-04-04T11:44:00.984Z</time></trkpt><trkpt lat="43.0775516" lon="11.4178955"><ele>409.00000000000006</ele><time>2026-04-04T11:44:01.989Z</time></trkpt><trkpt lat="43.0774696" lon="11.4178749"><ele>409.0</ele><time>2026-04-04T11:44:02.983Z</time></trkpt><trkpt lat="43.0773907" lon="11.4178369"><ele>409.0</ele><time>2026-04-04T11:44:03.981Z</time></trkpt><trkpt lat="43.0773161" lon="11.4177847"><ele>409.0</ele><time>2026-04-04T11:44:04.978Z</time></trkpt><trkpt lat="43.0772413" lon="11.4177208"><ele>409.00000000000006</ele><time>2026-04-04T11:44:05.981Z</time></trkpt><trkpt lat="43.0771658" lon="11.4176533"><ele>409.0</ele><time>2026-04-04T11:44:06.979Z</time></trkpt><trkpt lat="43.0770791" lon="11.4175883"><ele>410.00000000000006</ele><time>2026-04-04T11:44:07.983Z</time></trkpt><trkpt lat="43.076999" lon="11.4175248"><ele>411.0</ele><time>2026-04-04T11:44:08.982Z</time></trkpt><trkpt lat="43.0769339" lon="11.4174517"><ele>412.0</ele><time>2026-04-04T11:44:09.979Z</time></trkpt><trkpt lat="43.0768861" lon="11.4173561"><ele>413.0</ele><time>2026-04-04T11:44:10.978Z</time></trkpt><trkpt lat="43.0768541" lon="11.4172484"><ele>414.00000000000006</ele><time>2026-04-04T11:44:11.975Z</time></trkpt><trkpt lat="43.0768358" lon="11.4171486"><ele>415.0</ele><time>2026-04-04T11:44:12.977Z</time></trkpt><trkpt lat="43.0768063" lon="11.4170569"><ele>415.0</ele><time>2026-04-04T11:44:13.985Z</time></trkpt><trkpt lat="43.0767705" lon="11.4169798"><ele>415.0</ele><time>2026-04-04T11:44:14.979Z</time></trkpt><trkpt lat="43.0766831" lon="11.4168364"><ele>415.0</ele><time>2026-04-04T11:44:15.975Z</time></trkpt><trkpt lat="43.0766561" lon="11.4167257"><ele>415.0</ele><time>2026-04-04T11:44:17.988Z</time></trkpt><trkpt lat="43.0765431" lon="11.4167237"><ele>415.0</ele><time>2026-04-04T11:44:19.985Z</time></trkpt><trkpt lat="43.0763801" lon="11.4168025"><ele>417.50000000000006</ele><time>2026-04-04T11:44:20.923Z</time></trkpt><trkpt lat="43.0763044" lon="11.4167857"><ele>420.0</ele><time>2026-04-04T11:44:21.93Z</time></trkpt><trkpt lat="43.0762274" lon="11.4167629"><ele>422.5</ele><time>2026-04-04T11:44:22.933Z</time></trkpt><trkpt lat="43.0761483" lon="11.4167337"><ele>425.0</ele><time>2026-04-04T11:44:23.938Z</time></trkpt><trkpt lat="43.0760808" lon="11.4166932"><ele>427.50000000000006</ele><time>2026-04-04T11:44:24.933Z</time></trkpt><trkpt lat="43.0760184" lon="11.4166527"><ele>430.0</ele><time>2026-04-04T11:44:25.932Z</time></trkpt><trkpt lat="43.0759556" lon="11.4166062"><ele>430.00000000000006</ele><time>2026-04-04T11:44:26.934Z</time></trkpt><trkpt lat="43.0758915" lon="11.4165542"><ele>430.0</ele><time>2026-04-04T11:44:27.939Z</time></trkpt><trkpt lat="43.0758264" lon="11.4165038"><ele>430.0</ele><time>2026-04-04T11:44:28.933Z</time></trkpt><trkpt lat="43.0757591" lon="11.4164494"><ele>430.0</ele><time>2026-04-04T11:44:29.927Z</time></trkpt><trkpt lat="43.0756923" lon="11.4163923"><ele>430.00000000000006</ele><time>2026-04-04T11:44:30.932Z</time></trkpt><trkpt lat="43.0756206" lon="11.4163441"><ele>430.0</ele><time>2026-04-04T11:44:31.928Z</time></trkpt><trkpt lat="43.0755506" lon="11.4162801"><ele>430.83333333333337</ele><time>2026-04-04T11:44:32.926Z</time></trkpt><trkpt lat="43.0754745" lon="11.4162287"><ele>431.6666666666667</ele><time>2026-04-04T11:44:33.927Z</time></trkpt><trkpt lat="43.0753994" lon="11.416173"><ele>432.5</ele><time>2026-04-04T11:44:34.931Z</time></trkpt><trkpt lat="43.0753173" lon="11.4161184"><ele>433.33333333333337</ele><time>2026-04-04T11:44:35.93Z</time></trkpt><trkpt lat="43.0752407" lon="11.4160547"><ele>434.1666666666667</ele><time>2026-04-04T11:44:36.933Z</time></trkpt><trkpt lat="43.0751663" lon="11.416"><ele>435.0</ele><time>2026-04-04T11:44:37.929Z</time></trkpt><trkpt lat="43.0750878" lon="11.4159531"><ele>435.0</ele><time>2026-04-04T11:44:38.93Z</time></trkpt><trkpt lat="43.075007" lon="11.415906"><ele>435.0</ele><time>2026-04-04T11:44:39.932Z</time></trkpt><trkpt lat="43.0749251" lon="11.4158625"><ele>435.0</ele><time>2026-04-04T11:44:40.93Z</time></trkpt><trkpt lat="43.0748352" lon="11.4158175"><ele>435.0</ele><time>2026-04-04T11:44:41.934Z</time></trkpt><trkpt lat="43.0747502" lon="11.4157828"><ele>435.0</ele><time>2026-04-04T11:44:42.94Z</time></trkpt><trkpt lat="43.0746654" lon="11.4157536"><ele>435.0</ele><time>2026-04-04T11:44:43.928Z</time></trkpt><trkpt lat="43.0745917" lon="11.4157458"><ele>435.8333333333333</ele><time>2026-04-04T11:44:44.94Z</time></trkpt><trkpt lat="43.0745155" lon="11.4157239"><ele>436.66666666666663</ele><time>2026-04-04T11:44:45.936Z</time></trkpt><trkpt lat="43.074454" lon="11.4156977"><ele>437.5</ele><time>2026-04-04T11:44:46.932Z</time></trkpt><trkpt lat="43.0743982" lon="11.4156491"><ele>438.3333333333333</ele><time>2026-04-04T11:44:47.933Z</time></trkpt><trkpt lat="43.0743514" lon="11.4155537"><ele>439.16666666666663</ele><time>2026-04-04T11:44:49.922Z</time></trkpt><trkpt lat="43.0743558" lon="11.4154459"><ele>440.0</ele><time>2026-04-04T11:44:51.93Z</time></trkpt><trkpt lat="43.0743574" lon="11.415305"><ele>442.0</ele><time>2026-04-04T11:44:53.931Z</time></trkpt><trkpt lat="43.0743381" lon="11.4151291"><ele>444.0</ele><time>2026-04-04T11:44:55.933Z</time></trkpt><trkpt lat="43.0743137" lon="11.4149614"><ele>446.0</ele><time>2026-04-04T11:44:57.932Z</time></trkpt><trkpt lat="43.0742918" lon="11.414872"><ele>448.0</ele><time>2026-04-04T11:44:58.965Z</time></trkpt><trkpt lat="43.0742654" lon="11.4147753"><ele>450.0</ele><time>2026-04-04T11:44:59.94Z</time></trkpt><trkpt lat="43.0742372" lon="11.4146743"><ele>451.00000000000006</ele><time>2026-04-04T11:45:00.934Z</time></trkpt><trkpt lat="43.0742033" lon="11.4145772"><ele>452.0</ele><time>2026-04-04T11:45:01.934Z</time></trkpt><trkpt lat="43.07416" lon="11.4144978"><ele>453.00000000000006</ele><time>2026-04-04T11:45:02.944Z</time></trkpt><trkpt lat="43.0741051" lon="11.4144357"><ele>454.00000000000006</ele><time>2026-04-04T11:45:03.935Z</time></trkpt><trkpt lat="43.0740339" lon="11.4144006"><ele>455.0</ele><time>2026-04-04T11:45:04.932Z</time></trkpt><trkpt lat="43.0739637" lon="11.4143849"><ele>456.00000000000006</ele><time>2026-04-04T11:45:05.935Z</time></trkpt><trkpt lat="43.073891" lon="11.4143852"><ele>457.00000000000006</ele><time>2026-04-04T11:45:06.939Z</time></trkpt><trkpt lat="43.0738192" lon="11.4143832"><ele>458.83333333333337</ele><time>2026-04-04T11:45:07.933Z</time></trkpt><trkpt lat="43.073749" lon="11.4143717"><ele>460.6666666666667</ele><time>2026-04-04T11:45:08.943Z</time></trkpt><trkpt lat="43.0736795" lon="11.4143651"><ele>462.5</ele><time>2026-04-04T11:45:09.926Z</time></trkpt><trkpt lat="43.0736131" lon="11.4143587"><ele>464.33333333333337</ele><time>2026-04-04T11:45:10.936Z</time></trkpt><trkpt lat="43.07355" lon="11.4143462"><ele>466.1666666666667</ele><time>2026-04-04T11:45:11.93Z</time></trkpt><trkpt lat="43.0734525" lon="11.4143062"><ele>468.0</ele><time>2026-04-04T11:45:13.935Z</time></trkpt><trkpt lat="43.073323" lon="11.4142702"><ele>469.79999999999995</ele><time>2026-04-04T11:45:15.927Z</time></trkpt><trkpt lat="43.0732397" lon="11.4142581"><ele>471.59999999999997</ele><time>2026-04-04T11:45:16.951Z</time></trkpt><trkpt lat="43.0731497" lon="11.414251"><ele>473.40000000000003</ele><time>2026-04-04T11:45:17.925Z</time></trkpt><trkpt lat="43.0730521" lon="11.4142507"><ele>475.20000000000005</ele><time>2026-04-04T11:45:18.962Z</time></trkpt><trkpt lat="43.0729507" lon="11.4142592"><ele>477.0</ele><time>2026-04-04T11:45:19.924Z</time></trkpt><trkpt lat="43.0728525" lon="11.4142686"><ele>477.0</ele><time>2026-04-04T11:45:20.927Z</time></trkpt><trkpt lat="43.0727545" lon="11.4142759"><ele>477.00000000000006</ele><time>2026-04-04T11:45:21.932Z</time></trkpt><trkpt lat="43.072658" lon="11.4142626"><ele>477.00000000000006</ele><time>2026-04-04T11:45:22.936Z</time></trkpt><trkpt lat="43.0725661" lon="11.4142297"><ele>477.0</ele><time>2026-04-04T11:45:23.927Z</time></trkpt><trkpt lat="43.072477" lon="11.414186"><ele>477.0</ele><time>2026-04-04T11:45:24.935Z</time></trkpt><trkpt lat="43.0723915" lon="11.4141395"><ele>476.6666666666667</ele><time>2026-04-04T11:45:25.93Z</time></trkpt><trkpt lat="43.0723131" lon="11.4140934"><ele>476.33333333333337</ele><time>2026-04-04T11:45:26.938Z</time></trkpt><trkpt lat="43.0722359" lon="11.4140327"><ele>476.0</ele><time>2026-04-04T11:45:27.933Z</time></trkpt><trkpt lat="43.0721549" lon="11.4139759"><ele>475.6666666666667</ele><time>2026-04-04T11:45:28.933Z</time></trkpt><trkpt lat="43.0720707" lon="11.4139289"><ele>475.33333333333337</ele><time>2026-04-04T11:45:29.93Z</time></trkpt><trkpt lat="43.0719834" lon="11.4138946"><ele>475.0</ele><time>2026-04-04T11:45:30.938Z</time></trkpt><trkpt lat="43.071899" lon="11.4138593"><ele>477.2</ele><time>2026-04-04T11:45:31.936Z</time></trkpt><trkpt lat="43.071813" lon="11.4138146"><ele>479.4</ele><time>2026-04-04T11:45:32.932Z</time></trkpt><trkpt lat="43.0717182" lon="11.4137654"><ele>481.6</ele><time>2026-04-04T11:45:33.926Z</time></trkpt><trkpt lat="43.0716275" lon="11.4136952"><ele>483.8</ele><time>2026-04-04T11:45:34.933Z</time></trkpt><trkpt lat="43.0715388" lon="11.4136216"><ele>486.0</ele><time>2026-04-04T11:45:35.932Z</time></trkpt><trkpt lat="43.0714493" lon="11.4135657"><ele>486.0</ele><time>2026-04-04T11:45:36.932Z</time></trkpt><trkpt lat="43.0713606" lon="11.413545"><ele>486.0</ele><time>2026-04-04T11:45:37.929Z</time></trkpt><trkpt lat="43.0712671" lon="11.4135473"><ele>486.0</ele><time>2026-04-04T11:45:38.928Z</time></trkpt><trkpt lat="43.0711769" lon="11.4135796"><ele>486.0</ele><time>2026-04-04T11:45:39.958Z</time></trkpt><trkpt lat="43.0710901" lon="11.4135919"><ele>486.0</ele><time>2026-04-04T11:45:40.934Z</time></trkpt><trkpt lat="43.0710098" lon="11.4135752"><ele>486.0</ele><time>2026-04-04T11:45:41.937Z</time></trkpt><trkpt lat="43.0709394" lon="11.413538"><ele>486.0</ele><time>2026-04-04T11:45:42.919Z</time></trkpt><trkpt lat="43.0708721" lon="11.4134886"><ele>486.0</ele><time>2026-04-04T11:45:43.928Z</time></trkpt><trkpt lat="43.0708087" lon="11.4134254"><ele>486.0</ele><time>2026-04-04T11:45:44.932Z</time></trkpt><trkpt lat="43.070748" lon="11.4133401"><ele>486.0</ele><time>2026-04-04T11:45:45.94Z</time></trkpt><trkpt lat="43.0706838" lon="11.413252"><ele>486.0</ele><time>2026-04-04T11:45:46.927Z</time></trkpt><trkpt lat="43.0706114" lon="11.4131612"><ele>486.0</ele><time>2026-04-04T11:45:47.93Z</time></trkpt><trkpt lat="43.0705345" lon="11.4130672"><ele>487.5</ele><time>2026-04-04T11:45:48.927Z</time></trkpt><trkpt lat="43.0704606" lon="11.4129843"><ele>489.0</ele><time>2026-04-04T11:45:49.928Z</time></trkpt><trkpt lat="43.0703987" lon="11.4129222"><ele>490.5</ele><time>2026-04-04T11:45:50.93Z</time></trkpt><trkpt lat="43.0703348" lon="11.4128864"><ele>492.0</ele><time>2026-04-04T11:45:51.936Z</time></trkpt><trkpt lat="43.070268" lon="11.4128797"><ele>493.5</ele><time>2026-04-04T11:45:52.93Z</time></trkpt><trkpt lat="43.0702139" lon="11.4129282"><ele>495.0</ele><time>2026-04-04T11:45:53.931Z</time></trkpt><trkpt lat="43.0701311" lon="11.4130676"><ele>495.0</ele><time>2026-04-04T11:45:55.961Z</time></trkpt><trkpt lat="43.0700943" lon="11.4131605"><ele>495.0</ele><time>2026-04-04T11:45:56.928Z</time></trkpt><trkpt lat="43.0700596" lon="11.4132525"><ele>495.0</ele><time>2026-04-04T11:45:57.935Z</time></trkpt><trkpt lat="43.0700253" lon="11.4133483"><ele>495.0</ele><time>2026-04-04T11:45:58.92Z</time></trkpt><trkpt lat="43.0699932" lon="11.4134412"><ele>495.0</ele><time>2026-04-04T11:45:59.933Z</time></trkpt><trkpt lat="43.0699719" lon="11.4135523"><ele>495.0</ele><time>2026-04-04T11:46:00.927Z</time></trkpt><trkpt lat="43.0699689" lon="11.4136681"><ele>495.0</ele><time>2026-04-04T11:46:01.934Z</time></trkpt><trkpt lat="43.0699768" lon="11.4137889"><ele>495.0</ele><time>2026-04-04T11:46:02.934Z</time></trkpt><trkpt lat="43.0699952" lon="11.4139085"><ele>495.0</ele><time>2026-04-04T11:46:03.931Z</time></trkpt><trkpt lat="43.0700098" lon="11.4140249"><ele>495.0</ele><time>2026-04-04T11:46:04.93Z</time></trkpt><trkpt lat="43.070016" lon="11.4141369"><ele>495.0</ele><time>2026-04-04T11:46:05.938Z</time></trkpt><trkpt lat="43.0700129" lon="11.4142524"><ele>495.0</ele><time>2026-04-04T11:46:06.929Z</time></trkpt><trkpt lat="43.0699988" lon="11.4143687"><ele>494.8333333333333</ele><time>2026-04-04T11:46:07.936Z</time></trkpt><trkpt lat="43.0699798" lon="11.4144845"><ele>494.66666666666663</ele><time>2026-04-04T11:46:08.933Z</time></trkpt><trkpt lat="43.0699417" lon="11.414599"><ele>494.5</ele><time>2026-04-04T11:46:09.928Z</time></trkpt><trkpt lat="43.0698982" lon="11.4147044"><ele>494.3333333333333</ele><time>2026-04-04T11:46:10.931Z</time></trkpt><trkpt lat="43.0698464" lon="11.4148057"><ele>494.16666666666663</ele><time>2026-04-04T11:46:11.936Z</time></trkpt><trkpt lat="43.0697945" lon="11.4148985"><ele>494.0</ele><time>2026-04-04T11:46:12.937Z</time></trkpt><trkpt lat="43.0697257" lon="11.4149643"><ele>495.0</ele><time>2026-04-04T11:46:13.926Z</time></trkpt><trkpt lat="43.0696519" lon="11.4150237"><ele>496.0</ele><time>2026-04-04T11:46:14.951Z</time></trkpt><trkpt lat="43.0695653" lon="11.4150802"><ele>497.0</ele><time>2026-04-04T11:46:15.935Z</time></trkpt><trkpt lat="43.0694801" lon="11.4151444"><ele>498.0</ele><time>2026-04-04T11:46:16.937Z</time></trkpt><trkpt lat="43.069394" lon="11.4152194"><ele>499.0</ele><time>2026-04-04T11:46:17.934Z</time></trkpt><trkpt lat="43.0693096" lon="11.4153028"><ele>499.0</ele><time>2026-04-04T11:46:18.929Z</time></trkpt><trkpt lat="43.0692294" lon="11.4153863"><ele>499.0</ele><time>2026-04-04T11:46:19.935Z</time></trkpt><trkpt lat="43.069149" lon="11.4154545"><ele>499.0</ele><time>2026-04-04T11:46:20.937Z</time></trkpt><trkpt lat="43.0690612" lon="11.4155046"><ele>499.0</ele><time>2026-04-04T11:46:21.932Z</time></trkpt><trkpt lat="43.0689741" lon="11.4155276"><ele>499.0</ele><time>2026-04-04T11:46:22.933Z</time></trkpt><trkpt lat="43.0688819" lon="11.4155471"><ele>496.79999999999995</ele><time>2026-04-04T11:46:23.932Z</time></trkpt><trkpt lat="43.0687916" lon="11.4155718"><ele>494.59999999999997</ele><time>2026-04-04T11:46:24.938Z</time></trkpt><trkpt lat="43.0686962" lon="11.4156115"><ele>492.4</ele><time>2026-04-04T11:46:25.931Z</time></trkpt><trkpt lat="43.0686092" lon="11.41567"><ele>490.2</ele><time>2026-04-04T11:46:26.938Z</time></trkpt><trkpt lat="43.0685198" lon="11.4157453"><ele>488.0</ele><time>2026-04-04T11:46:27.935Z</time></trkpt><trkpt lat="43.0684461" lon="11.4158279"><ele>488.0</ele><time>2026-04-04T11:46:28.936Z</time></trkpt><trkpt lat="43.068369" lon="11.4159302"><ele>487.99999999999994</ele><time>2026-04-04T11:46:29.937Z</time></trkpt><trkpt lat="43.0682853" lon="11.4160291"><ele>487.99999999999994</ele><time>2026-04-04T11:46:30.937Z</time></trkpt><trkpt lat="43.0682025" lon="11.4161209"><ele>488.0</ele><time>2026-04-04T11:46:31.941Z</time></trkpt><trkpt lat="43.0681071" lon="11.4162012"><ele>488.0</ele><time>2026-04-04T11:46:33.033Z</time></trkpt><trkpt lat="43.0680089" lon="11.4162806"><ele>489.79999999999995</ele><time>2026-04-04T11:46:33.989Z</time></trkpt><trkpt lat="43.0679119" lon="11.4163431"><ele>491.59999999999997</ele><time>2026-04-04T11:46:35.001Z</time></trkpt><trkpt lat="43.0678343" lon="11.4164182"><ele>493.40000000000003</ele><time>2026-04-04T11:46:35.999Z</time></trkpt><trkpt lat="43.0677732" lon="11.4164955"><ele>495.20000000000005</ele><time>2026-04-04T11:46:37.004Z</time></trkpt><trkpt lat="43.0677307" lon="11.4165961"><ele>497.0</ele><time>2026-04-04T11:46:37.999Z</time></trkpt><trkpt lat="43.0676984" lon="11.4167077"><ele>497.0</ele><time>2026-04-04T11:46:38.987Z</time></trkpt><trkpt lat="43.0676722" lon="11.4168194"><ele>497.00000000000006</ele><time>2026-04-04T11:46:40Z</time></trkpt><trkpt lat="43.0676328" lon="11.4169262"><ele>497.00000000000006</ele><time>2026-04-04T11:46:41Z</time></trkpt><trkpt lat="43.0675797" lon="11.4170264"><ele>497.0</ele><time>2026-04-04T11:46:41.994Z</time></trkpt><trkpt lat="43.0675201" lon="11.4171312"><ele>497.0</ele><time>2026-04-04T11:46:43Z</time></trkpt><trkpt lat="43.0674534" lon="11.4172356"><ele>498.40000000000003</ele><time>2026-04-04T11:46:43.982Z</time></trkpt><trkpt lat="43.0673833" lon="11.417354"><ele>499.80000000000007</ele><time>2026-04-04T11:46:44.983Z</time></trkpt><trkpt lat="43.0673034" lon="11.4174495"><ele>501.2</ele><time>2026-04-04T11:46:45.981Z</time></trkpt><trkpt lat="43.0672268" lon="11.41752"><ele>502.6</ele><time>2026-04-04T11:46:46.987Z</time></trkpt><trkpt lat="43.0671449" lon="11.4175804"><ele>504.0</ele><time>2026-04-04T11:46:47.987Z</time></trkpt><trkpt lat="43.0670577" lon="11.4176117"><ele>504.0</ele><time>2026-04-04T11:46:48.986Z</time></trkpt><trkpt lat="43.0669675" lon="11.4176527"><ele>504.0</ele><time>2026-04-04T11:46:49.986Z</time></trkpt><trkpt lat="43.0668758" lon="11.4177023"><ele>504.0</ele><time>2026-04-04T11:46:50.981Z</time></trkpt><trkpt lat="43.0668066" lon="11.4177682"><ele>504.0</ele><time>2026-04-04T11:46:51.987Z</time></trkpt><trkpt lat="43.0667484" lon="11.4178557"><ele>504.0</ele><time>2026-04-04T11:46:52.986Z</time></trkpt><trkpt lat="43.0667075" lon="11.4179533"><ele>504.0</ele><time>2026-04-04T11:46:53.987Z</time></trkpt><trkpt lat="43.0666716" lon="11.4180605"><ele>502.6</ele><time>2026-04-04T11:46:54.984Z</time></trkpt><trkpt lat="43.0666308" lon="11.4181721"><ele>501.2</ele><time>2026-04-04T11:46:55.99Z</time></trkpt><trkpt lat="43.0666006" lon="11.4182824"><ele>499.80000000000007</ele><time>2026-04-04T11:46:56.987Z</time></trkpt><trkpt lat="43.0665782" lon="11.4184027"><ele>498.40000000000003</ele><time>2026-04-04T11:46:57.99Z</time></trkpt><trkpt lat="43.0665566" lon="11.4185312"><ele>497.0</ele><time>2026-04-04T11:46:58.984Z</time></trkpt><trkpt lat="43.0665432" lon="11.4186633"><ele>495.20000000000005</ele><time>2026-04-04T11:46:59.998Z</time></trkpt><trkpt lat="43.0665403" lon="11.4187991"><ele>493.40000000000003</ele><time>2026-04-04T11:47:00.986Z</time></trkpt><trkpt lat="43.06654" lon="11.418939"><ele>491.59999999999997</ele><time>2026-04-04T11:47:01.988Z</time></trkpt><trkpt lat="43.0665508" lon="11.4190757"><ele>489.79999999999995</ele><time>2026-04-04T11:47:02.986Z</time></trkpt><trkpt lat="43.0665568" lon="11.4192103"><ele>488.0</ele><time>2026-04-04T11:47:03.984Z</time></trkpt><trkpt lat="43.0665599" lon="11.4193486"><ele>487.4</ele><time>2026-04-04T11:47:04.988Z</time></trkpt><trkpt lat="43.0665636" lon="11.4194917"><ele>486.79999999999995</ele><time>2026-04-04T11:47:05.988Z</time></trkpt><trkpt lat="43.0665648" lon="11.4196366"><ele>486.2</ele><time>2026-04-04T11:47:06.996Z</time></trkpt><trkpt lat="43.0665574" lon="11.419777"><ele>485.6</ele><time>2026-04-04T11:47:07.988Z</time></trkpt><trkpt lat="43.0665331" lon="11.4199102"><ele>485.0</ele><time>2026-04-04T11:47:08.979Z</time></trkpt><trkpt lat="43.0664948" lon="11.4200335"><ele>485.0</ele><time>2026-04-04T11:47:09.984Z</time></trkpt><trkpt lat="43.0664391" lon="11.4201432"><ele>485.0</ele><time>2026-04-04T11:47:10.98Z</time></trkpt><trkpt lat="43.0663811" lon="11.4202473"><ele>485.0</ele><time>2026-04-04T11:47:11.989Z</time></trkpt><trkpt lat="43.0663209" lon="11.4203551"><ele>485.0</ele><time>2026-04-04T11:47:12.987Z</time></trkpt><trkpt lat="43.0662642" lon="11.4204633"><ele>485.0</ele><time>2026-04-04T11:47:13.982Z</time></trkpt><trkpt lat="43.0662141" lon="11.4205815"><ele>486.4</ele><time>2026-04-04T11:47:14.976Z</time></trkpt><trkpt lat="43.0661649" lon="11.4207089"><ele>487.8</ele><time>2026-04-04T11:47:15.989Z</time></trkpt><trkpt lat="43.0661022" lon="11.4208268"><ele>489.20000000000005</ele><time>2026-04-04T11:47:16.982Z</time></trkpt><trkpt lat="43.0660376" lon="11.4209463"><ele>490.6</ele><time>2026-04-04T11:47:17.993Z</time></trkpt><trkpt lat="43.0659693" lon="11.4210645"><ele>492.0</ele><time>2026-04-04T11:47:18.987Z</time></trkpt><trkpt lat="43.0659008" lon="11.4211811"><ele>492.0</ele><time>2026-04-04T11:47:19.982Z</time></trkpt><trkpt lat="43.0658376" lon="11.4212958"><ele>492.00000000000006</ele><time>2026-04-04T11:47:20.982Z</time></trkpt><trkpt lat="43.0657764" lon="11.4214103"><ele>492.00000000000006</ele><time>2026-04-04T11:47:21.981Z</time></trkpt><trkpt lat="43.0657222" lon="11.4215263"><ele>492.0</ele><time>2026-04-04T11:47:22.985Z</time></trkpt><trkpt lat="43.0656712" lon="11.4216387"><ele>492.0</ele><time>2026-04-04T11:47:23.981Z</time></trkpt><trkpt lat="43.065615" lon="11.4217407"><ele>490.8</ele><time>2026-04-04T11:47:24.976Z</time></trkpt><trkpt lat="43.0655491" lon="11.421832"><ele>489.6</ele><time>2026-04-04T11:47:26Z</time></trkpt><trkpt lat="43.0654658" lon="11.4219025"><ele>488.40000000000003</ele><time>2026-04-04T11:47:26.995Z</time></trkpt><trkpt lat="43.06538" lon="11.4219713"><ele>487.20000000000005</ele><time>2026-04-04T11:47:27.992Z</time></trkpt><trkpt lat="43.0652972" lon="11.4220474"><ele>486.0</ele><time>2026-04-04T11:47:28.981Z</time></trkpt><trkpt lat="43.0652136" lon="11.4221161"><ele>486.0</ele><time>2026-04-04T11:47:29.98Z</time></trkpt><trkpt lat="43.0651273" lon="11.4221676"><ele>486.0</ele><time>2026-04-04T11:47:30.99Z</time></trkpt><trkpt lat="43.0650395" lon="11.4221998"><ele>486.0</ele><time>2026-04-04T11:47:31.984Z</time></trkpt><trkpt lat="43.0649522" lon="11.4222164"><ele>486.0</ele><time>2026-04-04T11:47:32.991Z</time></trkpt><trkpt lat="43.064861" lon="11.4222216"><ele>486.0</ele><time>2026-04-04T11:47:33.993Z</time></trkpt><trkpt lat="43.0647679" lon="11.4222214"><ele>486.0</ele><time>2026-04-04T11:47:34.995Z</time></trkpt><trkpt lat="43.0646696" lon="11.4222198"><ele>486.0</ele><time>2026-04-04T11:47:35.989Z</time></trkpt><trkpt lat="43.0645675" lon="11.4222073"><ele>486.0</ele><time>2026-04-04T11:47:36.987Z</time></trkpt><trkpt lat="43.0644662" lon="11.4221806"><ele>486.0</ele><time>2026-04-04T11:47:37.999Z</time></trkpt><trkpt lat="43.0643684" lon="11.4221428"><ele>486.0</ele><time>2026-04-04T11:47:38.989Z</time></trkpt><trkpt lat="43.0642731" lon="11.4220966"><ele>484.6</ele><time>2026-04-04T11:47:39.988Z</time></trkpt><trkpt lat="43.0641831" lon="11.4220438"><ele>483.20000000000005</ele><time>2026-04-04T11:47:40.99Z</time></trkpt><trkpt lat="43.0640968" lon="11.421991"><ele>481.79999999999995</ele><time>2026-04-04T11:47:41.986Z</time></trkpt><trkpt lat="43.0640127" lon="11.4219552"><ele>480.4</ele><time>2026-04-04T11:47:42.993Z</time></trkpt><trkpt lat="43.0639243" lon="11.4219423"><ele>479.0</ele><time>2026-04-04T11:47:43.998Z</time></trkpt><trkpt lat="43.063838" lon="11.4219542"><ele>477.8333333333333</ele><time>2026-04-04T11:47:45.01Z</time></trkpt><trkpt lat="43.0637653" lon="11.4219682"><ele>476.66666666666663</ele><time>2026-04-04T11:47:45.979Z</time></trkpt><trkpt lat="43.0636649" lon="11.421978"><ele>475.5</ele><time>2026-04-04T11:47:47.98Z</time></trkpt><trkpt lat="43.0636009" lon="11.4219882"><ele>474.33333333333337</ele><time>2026-04-04T11:47:49.988Z</time></trkpt><trkpt lat="43.0635222" lon="11.4220541"><ele>473.1666666666667</ele><time>2026-04-04T11:47:52.982Z</time></trkpt><trkpt lat="43.0634901" lon="11.4221505"><ele>472.0</ele><time>2026-04-04T11:47:54.989Z</time></trkpt><trkpt lat="43.0634785" lon="11.4222922"><ele>472.0</ele><time>2026-04-04T11:47:56.985Z</time></trkpt><trkpt lat="43.0634999" lon="11.4224372"><ele>472.00000000000006</ele><time>2026-04-04T11:47:58.99Z</time></trkpt><trkpt lat="43.0635305" lon="11.422608"><ele>472.00000000000006</ele><time>2026-04-04T11:48:00.987Z</time></trkpt><trkpt lat="43.0635363" lon="11.42271"><ele>472.0</ele><time>2026-04-04T11:48:01.978Z</time></trkpt><trkpt lat="43.0635234" lon="11.4228169"><ele>472.0</ele><time>2026-04-04T11:48:02.981Z</time></trkpt><trkpt lat="43.063494" lon="11.4229259"><ele>471.50000000000006</ele><time>2026-04-04T11:48:03.979Z</time></trkpt><trkpt lat="43.0634537" lon="11.4230297"><ele>471.0</ele><time>2026-04-04T11:48:04.998Z</time></trkpt><trkpt lat="43.0634121" lon="11.4231289"><ele>470.5</ele><time>2026-04-04T11:48:05.983Z</time></trkpt><trkpt lat="43.0633723" lon="11.4232284"><ele>470.0</ele><time>2026-04-04T11:48:06.981Z</time></trkpt><trkpt lat="43.0633395" lon="11.4233298"><ele>469.50000000000006</ele><time>2026-04-04T11:48:07.988Z</time></trkpt><trkpt lat="43.0633246" lon="11.4234269"><ele>469.0</ele><time>2026-04-04T11:48:08.989Z</time></trkpt><trkpt lat="43.063325" lon="11.4235144"><ele>469.0</ele><time>2026-04-04T11:48:09.986Z</time></trkpt><trkpt lat="43.063337" lon="11.4236527"><ele>469.0</ele><time>2026-04-04T11:48:11.987Z</time></trkpt><trkpt lat="43.063347" lon="11.4237384"><ele>469.0</ele><time>2026-04-04T11:48:14.992Z</time></trkpt><trkpt lat="43.0633805" lon="11.4238635"><ele>469.0</ele><time>2026-04-04T11:48:23.991Z</time></trkpt><trkpt lat="43.0633953" lon="11.4240295"><ele>469.0</ele><time>2026-04-04T11:48:25.994Z</time></trkpt><trkpt lat="43.0633813" lon="11.4241426"><ele>468.2</ele><time>2026-04-04T11:48:26.986Z</time></trkpt><trkpt lat="43.0633383" lon="11.4242693"><ele>467.4</ele><time>2026-04-04T11:48:27.991Z</time></trkpt><trkpt lat="43.0632945" lon="11.4244017"><ele>466.6</ele><time>2026-04-04T11:48:28.988Z</time></trkpt><trkpt lat="43.0632595" lon="11.4245394"><ele>465.8</ele><time>2026-04-04T11:48:29.99Z</time></trkpt><trkpt lat="43.0632344" lon="11.4246831"><ele>465.0</ele><time>2026-04-04T11:48:30.98Z</time></trkpt><trkpt lat="43.0632145" lon="11.4248302"><ele>464.4</ele><time>2026-04-04T11:48:31.99Z</time></trkpt><trkpt lat="43.0631865" lon="11.4249688"><ele>463.8</ele><time>2026-04-04T11:48:32.992Z</time></trkpt><trkpt lat="43.0631396" lon="11.425095"><ele>463.20000000000005</ele><time>2026-04-04T11:48:33.993Z</time></trkpt><trkpt lat="43.0630808" lon="11.4252073"><ele>462.6</ele><time>2026-04-04T11:48:34.994Z</time></trkpt><trkpt lat="43.0630159" lon="11.425326"><ele>462.0</ele><time>2026-04-04T11:48:35.994Z</time></trkpt><trkpt lat="43.0629478" lon="11.4254467"><ele>462.8</ele><time>2026-04-04T11:48:36.999Z</time></trkpt><trkpt lat="43.0628862" lon="11.4255729"><ele>463.6</ele><time>2026-04-04T11:48:37.994Z</time></trkpt><trkpt lat="43.0628471" lon="11.4257032"><ele>464.40000000000003</ele><time>2026-04-04T11:48:38.999Z</time></trkpt><trkpt lat="43.0628256" lon="11.4258459"><ele>465.20000000000005</ele><time>2026-04-04T11:48:39.993Z</time></trkpt><trkpt lat="43.0628144" lon="11.4259828"><ele>466.0</ele><time>2026-04-04T11:48:40.99Z</time></trkpt><trkpt lat="43.0628153" lon="11.4261066"><ele>466.0</ele><time>2026-04-04T11:48:41.997Z</time></trkpt><trkpt lat="43.0628216" lon="11.4262351"><ele>466.0</ele><time>2026-04-04T11:48:42.983Z</time></trkpt><trkpt lat="43.0628319" lon="11.4263628"><ele>466.0</ele><time>2026-04-04T11:48:43.992Z</time></trkpt><trkpt lat="43.0628498" lon="11.4264978"><ele>466.0</ele><time>2026-04-04T11:48:44.993Z</time></trkpt><trkpt lat="43.0628689" lon="11.4266353"><ele>466.0</ele><time>2026-04-04T11:48:45.982Z</time></trkpt><trkpt lat="43.0628886" lon="11.4267697"><ele>466.00000000000006</ele><time>2026-04-04T11:48:46.99Z</time></trkpt><trkpt lat="43.0628943" lon="11.4268945"><ele>466.0</ele><time>2026-04-04T11:48:47.987Z</time></trkpt><trkpt lat="43.0628835" lon="11.4270109"><ele>466.0</ele><time>2026-04-04T11:48:48.983Z</time></trkpt><trkpt lat="43.0628584" lon="11.4271208"><ele>466.0</ele><time>2026-04-04T11:48:49.987Z</time></trkpt><trkpt lat="43.0628066" lon="11.427213"><ele>466.00000000000006</ele><time>2026-04-04T11:48:50.982Z</time></trkpt><trkpt lat="43.0627434" lon="11.4272912"><ele>466.0</ele><time>2026-04-04T11:48:51.985Z</time></trkpt><trkpt lat="43.0626757" lon="11.4273539"><ele>466.0</ele><time>2026-04-04T11:48:52.986Z</time></trkpt><trkpt lat="43.0625989" lon="11.427399"><ele>466.0</ele><time>2026-04-04T11:48:53.987Z</time></trkpt><trkpt lat="43.0625158" lon="11.4274363"><ele>466.0</ele><time>2026-04-04T11:48:54.984Z</time></trkpt><trkpt lat="43.0624295" lon="11.4274751"><ele>466.0</ele><time>2026-04-04T11:48:55.977Z</time></trkpt><trkpt lat="43.0623372" lon="11.4275161"><ele>466.0</ele><time>2026-04-04T11:48:56.99Z</time></trkpt><trkpt lat="43.0622431" lon="11.4275527"><ele>466.8</ele><time>2026-04-04T11:48:57.989Z</time></trkpt><trkpt lat="43.0621469" lon="11.4275803"><ele>467.6</ele><time>2026-04-04T11:48:58.995Z</time></trkpt><trkpt lat="43.0620466" lon="11.4275981"><ele>468.4</ele><time>2026-04-04T11:48:59.991Z</time></trkpt><trkpt lat="43.061948" lon="11.4275919"><ele>469.2</ele><time>2026-04-04T11:49:00.991Z</time></trkpt><trkpt lat="43.0618496" lon="11.4275645"><ele>470.0</ele><time>2026-04-04T11:49:01.99Z</time></trkpt><trkpt lat="43.0617516" lon="11.427513"><ele>470.0</ele><time>2026-04-04T11:49:02.991Z</time></trkpt><trkpt lat="43.0616551" lon="11.4274449"><ele>470.0</ele><time>2026-04-04T11:49:03.985Z</time></trkpt><trkpt lat="43.0615559" lon="11.4273845"><ele>470.0</ele><time>2026-04-04T11:49:04.991Z</time></trkpt><trkpt lat="43.061451" lon="11.427349"><ele>470.0</ele><time>2026-04-04T11:49:05.995Z</time></trkpt><trkpt lat="43.0613451" lon="11.4273426"><ele>470.0</ele><time>2026-04-04T11:49:06.993Z</time></trkpt><trkpt lat="43.0612419" lon="11.4273618"><ele>470.2</ele><time>2026-04-04T11:49:07.99Z</time></trkpt><trkpt lat="43.0611404" lon="11.4274045"><ele>470.4</ele><time>2026-04-04T11:49:08.99Z</time></trkpt><trkpt lat="43.0610454" lon="11.4274404"><ele>470.6</ele><time>2026-04-04T11:49:10.003Z</time></trkpt><trkpt lat="43.0609592" lon="11.4274663"><ele>470.8</ele><time>2026-04-04T11:49:10.987Z</time></trkpt><trkpt lat="43.060878" lon="11.4274614"><ele>471.0</ele><time>2026-04-04T11:49:11.993Z</time></trkpt><trkpt lat="43.0607939" lon="11.4274351"><ele>472.3333333333333</ele><time>2026-04-04T11:49:12.995Z</time></trkpt><trkpt lat="43.0607173" lon="11.4273844"><ele>473.66666666666663</ele><time>2026-04-04T11:49:13.981Z</time></trkpt><trkpt lat="43.0606384" lon="11.4273224"><ele>475.0</ele><time>2026-04-04T11:49:14.99Z</time></trkpt><trkpt lat="43.0605569" lon="11.4272605"><ele>476.3333333333333</ele><time>2026-04-04T11:49:15.987Z</time></trkpt><trkpt lat="43.0604809" lon="11.4272172"><ele>477.66666666666663</ele><time>2026-04-04T11:49:16.981Z</time></trkpt><trkpt lat="43.0604176" lon="11.4272075"><ele>479.0</ele><time>2026-04-04T11:49:17.983Z</time></trkpt><trkpt lat="43.0603347" lon="11.4272924"><ele>479.0</ele><time>2026-04-04T11:49:19.975Z</time></trkpt><trkpt lat="43.0603121" lon="11.4273761"><ele>479.0</ele><time>2026-04-04T11:49:20.976Z</time></trkpt><trkpt lat="43.0603002" lon="11.427476"><ele>479.0</ele><time>2026-04-04T11:49:21.989Z</time></trkpt><trkpt lat="43.0602842" lon="11.4275798"><ele>479.0</ele><time>2026-04-04T11:49:22.984Z</time></trkpt><trkpt lat="43.0602456" lon="11.4276627"><ele>479.0</ele><time>2026-04-04T11:49:23.987Z</time></trkpt><trkpt lat="43.060186" lon="11.427727"><ele>479.0</ele><time>2026-04-04T11:49:24.994Z</time></trkpt><trkpt lat="43.0601137" lon="11.4277788"><ele>479.0</ele><time>2026-04-04T11:49:25.986Z</time></trkpt><trkpt lat="43.0600251" lon="11.4278311"><ele>479.8333333333333</ele><time>2026-04-04T11:49:27.981Z</time></trkpt><trkpt lat="43.0599334" lon="11.4278879"><ele>480.66666666666663</ele><time>2026-04-04T11:49:29.996Z</time></trkpt><trkpt lat="43.0598107" lon="11.4278899"><ele>481.5</ele><time>2026-04-04T11:49:31.984Z</time></trkpt><trkpt lat="43.0597466" lon="11.4278507"><ele>482.33333333333337</ele><time>2026-04-04T11:49:32.98Z</time></trkpt><trkpt lat="43.0596915" lon="11.4277848"><ele>483.1666666666667</ele><time>2026-04-04T11:49:33.978Z</time></trkpt><trkpt lat="43.05964" lon="11.4277091"><ele>484.0</ele><time>2026-04-04T11:49:34.974Z</time></trkpt><trkpt lat="43.05959" lon="11.4276295"><ele>484.0</ele><time>2026-04-04T11:49:35.984Z</time></trkpt><trkpt lat="43.0595393" lon="11.4275532"><ele>483.99999999999994</ele><time>2026-04-04T11:49:36.983Z</time></trkpt><trkpt lat="43.0594887" lon="11.4274761"><ele>484.0</ele><time>2026-04-04T11:49:37.99Z</time></trkpt><trkpt lat="43.0594344" lon="11.4274043"><ele>484.0</ele><time>2026-04-04T11:49:38.987Z</time></trkpt><trkpt lat="43.0593791" lon="11.4273405"><ele>483.99999999999994</ele><time>2026-04-04T11:49:39.991Z</time></trkpt><trkpt lat="43.0593153" lon="11.4272876"><ele>484.0</ele><time>2026-04-04T11:49:40.979Z</time></trkpt><trkpt lat="43.0592432" lon="11.4272585"><ele>484.0</ele><time>2026-04-04T11:49:41.982Z</time></trkpt><trkpt lat="43.0591664" lon="11.4272644"><ele>486.50000000000006</ele><time>2026-04-04T11:49:42.982Z</time></trkpt><trkpt lat="43.059094" lon="11.4273042"><ele>489.0</ele><time>2026-04-04T11:49:43.983Z</time></trkpt><trkpt lat="43.0590413" lon="11.4273678"><ele>491.5</ele><time>2026-04-04T11:49:44.978Z</time></trkpt><trkpt lat="43.0590107" lon="11.4274471"><ele>494.0</ele><time>2026-04-04T11:49:45.986Z</time></trkpt><trkpt lat="43.0590239" lon="11.4275896"><ele>496.50000000000006</ele><time>2026-04-04T11:49:47.986Z</time></trkpt><trkpt lat="43.0590557" lon="11.4276658"><ele>499.0</ele><time>2026-04-04T11:49:48.987Z</time></trkpt><trkpt lat="43.0590886" lon="11.4277522"><ele>497.6666666666667</ele><time>2026-04-04T11:49:49.987Z</time></trkpt><trkpt lat="43.0591343" lon="11.4278702"><ele>496.33333333333337</ele><time>2026-04-04T11:49:50.93Z</time></trkpt><trkpt lat="43.0591703" lon="11.4279725"><ele>495.0</ele><time>2026-04-04T11:49:51.925Z</time></trkpt><trkpt lat="43.0591923" lon="11.4280811"><ele>493.66666666666663</ele><time>2026-04-04T11:49:52.926Z</time></trkpt><trkpt lat="43.0591904" lon="11.4281785"><ele>492.3333333333333</ele><time>2026-04-04T11:49:53.938Z</time></trkpt><trkpt lat="43.0591691" lon="11.4282729"><ele>491.0</ele><time>2026-04-04T11:49:54.941Z</time></trkpt><trkpt lat="43.0590658" lon="11.4283771"><ele>490.99999999999994</ele><time>2026-04-04T11:49:56.923Z</time></trkpt><trkpt lat="43.0589939" lon="11.4283941"><ele>491.0</ele><time>2026-04-04T11:49:57.931Z</time></trkpt><trkpt lat="43.0589219" lon="11.4284215"><ele>491.0</ele><time>2026-04-04T11:49:58.923Z</time></trkpt><trkpt lat="43.0588538" lon="11.4284639"><ele>491.0</ele><time>2026-04-04T11:49:59.937Z</time></trkpt><trkpt lat="43.0587836" lon="11.4285329"><ele>490.99999999999994</ele><time>2026-04-04T11:50:00.936Z</time></trkpt><trkpt lat="43.0587078" lon="11.4286171"><ele>491.0</ele><time>2026-04-04T11:50:01.923Z</time></trkpt><trkpt lat="43.0586476" lon="11.4287287"><ele>490.0</ele><time>2026-04-04T11:50:02.934Z</time></trkpt><trkpt lat="43.0585904" lon="11.4288655"><ele>489.0</ele><time>2026-04-04T11:50:03.926Z</time></trkpt><trkpt lat="43.0585372" lon="11.4290118"><ele>488.0</ele><time>2026-04-04T11:50:04.93Z</time></trkpt><trkpt lat="43.0584918" lon="11.4291455"><ele>487.0</ele><time>2026-04-04T11:50:05.966Z</time></trkpt><trkpt lat="43.0584505" lon="11.4292778"><ele>486.0</ele><time>2026-04-04T11:50:06.933Z</time></trkpt><trkpt lat="43.0584135" lon="11.4294252"><ele>486.0</ele><time>2026-04-04T11:50:07.929Z</time></trkpt><trkpt lat="43.0583799" lon="11.4295737"><ele>486.0</ele><time>2026-04-04T11:50:08.932Z</time></trkpt><trkpt lat="43.0583453" lon="11.4297276"><ele>486.0</ele><time>2026-04-04T11:50:09.933Z</time></trkpt><trkpt lat="43.0583162" lon="11.4298775"><ele>486.0</ele><time>2026-04-04T11:50:10.929Z</time></trkpt><trkpt lat="43.0582946" lon="11.4300054"><ele>486.0</ele><time>2026-04-04T11:50:11.932Z</time></trkpt><trkpt lat="43.0582771" lon="11.4301263"><ele>485.8333333333333</ele><time>2026-04-04T11:50:12.937Z</time></trkpt><trkpt lat="43.0582689" lon="11.4302396"><ele>485.66666666666663</ele><time>2026-04-04T11:50:13.931Z</time></trkpt><trkpt lat="43.0582731" lon="11.4303522"><ele>485.5</ele><time>2026-04-04T11:50:14.929Z</time></trkpt><trkpt lat="43.0582836" lon="11.4304656"><ele>485.3333333333333</ele><time>2026-04-04T11:50:15.936Z</time></trkpt><trkpt lat="43.058292" lon="11.4305871"><ele>485.16666666666663</ele><time>2026-04-04T11:50:16.934Z</time></trkpt><trkpt lat="43.0582859" lon="11.4307027"><ele>485.0</ele><time>2026-04-04T11:50:17.947Z</time></trkpt><trkpt lat="43.0582605" lon="11.4308126"><ele>484.16666666666663</ele><time>2026-04-04T11:50:18.926Z</time></trkpt><trkpt lat="43.0582174" lon="11.4309067"><ele>483.3333333333333</ele><time>2026-04-04T11:50:19.933Z</time></trkpt><trkpt lat="43.0581495" lon="11.4309869"><ele>482.5</ele><time>2026-04-04T11:50:20.929Z</time></trkpt><trkpt lat="43.0580788" lon="11.4310396"><ele>481.66666666666663</ele><time>2026-04-04T11:50:21.931Z</time></trkpt><trkpt lat="43.0579909" lon="11.4310901"><ele>480.8333333333333</ele><time>2026-04-04T11:50:22.93Z</time></trkpt><trkpt lat="43.0579009" lon="11.4311398"><ele>480.0</ele><time>2026-04-04T11:50:23.955Z</time></trkpt><trkpt lat="43.0578044" lon="11.4312052"><ele>480.0</ele><time>2026-04-04T11:50:24.936Z</time></trkpt><trkpt lat="43.0577052" lon="11.431267"><ele>480.0</ele><time>2026-04-04T11:50:25.933Z</time></trkpt><trkpt lat="43.0576076" lon="11.4313444"><ele>480.0</ele><time>2026-04-04T11:50:26.924Z</time></trkpt><trkpt lat="43.0575125" lon="11.4314234"><ele>480.0</ele><time>2026-04-04T11:50:27.94Z</time></trkpt><trkpt lat="43.0574236" lon="11.4315226"><ele>480.0</ele><time>2026-04-04T11:50:28.939Z</time></trkpt><trkpt lat="43.0573417" lon="11.4316257"><ele>481.8</ele><time>2026-04-04T11:50:29.928Z</time></trkpt><trkpt lat="43.0572625" lon="11.4317314"><ele>483.6</ele><time>2026-04-04T11:50:30.945Z</time></trkpt><trkpt lat="43.0571893" lon="11.4318413"><ele>485.4</ele><time>2026-04-04T11:50:31.94Z</time></trkpt><trkpt lat="43.0571216" lon="11.4319647"><ele>487.2</ele><time>2026-04-04T11:50:32.947Z</time></trkpt><trkpt lat="43.0570567" lon="11.432091"><ele>489.0</ele><time>2026-04-04T11:50:33.931Z</time></trkpt><trkpt lat="43.0569925" lon="11.4322194"><ele>489.75</ele><time>2026-04-04T11:50:34.927Z</time></trkpt><trkpt lat="43.0569315" lon="11.4323496"><ele>490.5</ele><time>2026-04-04T11:50:35.94Z</time></trkpt><trkpt lat="43.0568627" lon="11.4324717"><ele>491.25</ele><time>2026-04-04T11:50:36.948Z</time></trkpt><trkpt lat="43.0567889" lon="11.4325929"><ele>492.0</ele><time>2026-04-04T11:50:37.938Z</time></trkpt><trkpt lat="43.0567154" lon="11.4327043"><ele>492.0</ele><time>2026-04-04T11:50:38.938Z</time></trkpt><trkpt lat="43.0566368" lon="11.4328073"><ele>492.00000000000006</ele><time>2026-04-04T11:50:39.937Z</time></trkpt><trkpt lat="43.0565739" lon="11.4329058"><ele>492.00000000000006</ele><time>2026-04-04T11:50:40.934Z</time></trkpt><trkpt lat="43.0565113" lon="11.4330013"><ele>492.0</ele><time>2026-04-04T11:50:41.935Z</time></trkpt><trkpt lat="43.0564392" lon="11.4330807"><ele>492.0</ele><time>2026-04-04T11:50:42.942Z</time></trkpt><trkpt lat="43.056358" lon="11.4331506"><ele>493.0</ele><time>2026-04-04T11:50:43.935Z</time></trkpt><trkpt lat="43.0562772" lon="11.4332126"><ele>494.00000000000006</ele><time>2026-04-04T11:50:44.932Z</time></trkpt><trkpt lat="43.0561867" lon="11.4332504"><ele>495.00000000000006</ele><time>2026-04-04T11:50:45.944Z</time></trkpt><trkpt lat="43.0560855" lon="11.4332912"><ele>496.0</ele><time>2026-04-04T11:50:46.956Z</time></trkpt><trkpt lat="43.0559864" lon="11.4333314"><ele>497.0</ele><time>2026-04-04T11:50:47.926Z</time></trkpt><trkpt lat="43.0558862" lon="11.4333663"><ele>497.0</ele><time>2026-04-04T11:50:48.931Z</time></trkpt><trkpt lat="43.0557875" lon="11.4334029"><ele>497.00000000000006</ele><time>2026-04-04T11:50:49.929Z</time></trkpt><trkpt lat="43.0556911" lon="11.433447"><ele>497.00000000000006</ele><time>2026-04-04T11:50:50.932Z</time></trkpt><trkpt lat="43.0555961" lon="11.4334958"><ele>497.0</ele><time>2026-04-04T11:50:51.93Z</time></trkpt><trkpt lat="43.0555096" lon="11.4335463"><ele>497.0</ele><time>2026-04-04T11:50:52.923Z</time></trkpt><trkpt lat="43.0554171" lon="11.4336007"><ele>496.8</ele><time>2026-04-04T11:50:53.932Z</time></trkpt><trkpt lat="43.055316" lon="11.4336472"><ele>496.6</ele><time>2026-04-04T11:50:54.933Z</time></trkpt><trkpt lat="43.0552092" lon="11.4336821"><ele>496.40000000000003</ele><time>2026-04-04T11:50:55.93Z</time></trkpt><trkpt lat="43.0551012" lon="11.4337196"><ele>496.20000000000005</ele><time>2026-04-04T11:50:56.934Z</time></trkpt><trkpt lat="43.0549893" lon="11.433771"><ele>496.0</ele><time>2026-04-04T11:50:57.924Z</time></trkpt><trkpt lat="43.054879" lon="11.4338317"><ele>493.5</ele><time>2026-04-04T11:50:58.933Z</time></trkpt><trkpt lat="43.0547723" lon="11.4338998"><ele>491.0</ele><time>2026-04-04T11:50:59.941Z</time></trkpt><trkpt lat="43.0546667" lon="11.4339675"><ele>488.5</ele><time>2026-04-04T11:51:00.932Z</time></trkpt><trkpt lat="43.0545601" lon="11.4340365"><ele>486.0</ele><time>2026-04-04T11:51:01.938Z</time></trkpt><trkpt lat="43.0544536" lon="11.434093"><ele>486.0</ele><time>2026-04-04T11:51:02.928Z</time></trkpt><trkpt lat="43.054348" lon="11.4341433"><ele>486.0</ele><time>2026-04-04T11:51:03.932Z</time></trkpt><trkpt lat="43.0542402" lon="11.4341927"><ele>486.0</ele><time>2026-04-04T11:51:04.932Z</time></trkpt><trkpt lat="43.0541328" lon="11.4342361"><ele>486.0</ele><time>2026-04-04T11:51:05.933Z</time></trkpt><trkpt lat="43.0540294" lon="11.4342653"><ele>486.0</ele><time>2026-04-04T11:51:06.936Z</time></trkpt><trkpt lat="43.0539255" lon="11.4342937"><ele>485.6</ele><time>2026-04-04T11:51:07.934Z</time></trkpt><trkpt lat="43.0538282" lon="11.4343191"><ele>485.20000000000005</ele><time>2026-04-04T11:51:08.93Z</time></trkpt><trkpt lat="43.053738" lon="11.4343613"><ele>484.79999999999995</ele><time>2026-04-04T11:51:09.939Z</time></trkpt><trkpt lat="43.0536514" lon="11.43442"><ele>484.4</ele><time>2026-04-04T11:51:10.938Z</time></trkpt><trkpt lat="43.05357" lon="11.4344904"><ele>484.0</ele><time>2026-04-04T11:51:11.931Z</time></trkpt><trkpt lat="43.0534954" lon="11.4345656"><ele>482.6</ele><time>2026-04-04T11:51:12.929Z</time></trkpt><trkpt lat="43.0534245" lon="11.4346663"><ele>481.2</ele><time>2026-04-04T11:51:13.961Z</time></trkpt><trkpt lat="43.0533583" lon="11.4347692"><ele>479.80000000000007</ele><time>2026-04-04T11:51:14.931Z</time></trkpt><trkpt lat="43.0533" lon="11.4348882"><ele>478.40000000000003</ele><time>2026-04-04T11:51:15.924Z</time></trkpt><trkpt lat="43.0532499" lon="11.4350136"><ele>477.0</ele><time>2026-04-04T11:51:16.928Z</time></trkpt><trkpt lat="43.0532056" lon="11.4351492"><ele>477.0</ele><time>2026-04-04T11:51:17.932Z</time></trkpt><trkpt lat="43.0531635" lon="11.4352862"><ele>477.00000000000006</ele><time>2026-04-04T11:51:18.937Z</time></trkpt><trkpt lat="43.0531281" lon="11.4354318"><ele>477.00000000000006</ele><time>2026-04-04T11:51:19.927Z</time></trkpt><trkpt lat="43.0531001" lon="11.4355773"><ele>477.0</ele><time>2026-04-04T11:51:20.93Z</time></trkpt><trkpt lat="43.0530815" lon="11.4357246"><ele>477.0</ele><time>2026-04-04T11:51:21.937Z</time></trkpt><trkpt lat="43.0530654" lon="11.4358717"><ele>475.20000000000005</ele><time>2026-04-04T11:51:22.929Z</time></trkpt><trkpt lat="43.0530535" lon="11.4360165"><ele>473.40000000000003</ele><time>2026-04-04T11:51:23.928Z</time></trkpt><trkpt lat="43.0530367" lon="11.4361515"><ele>471.59999999999997</ele><time>2026-04-04T11:51:24.935Z</time></trkpt><trkpt lat="43.0530072" lon="11.4362796"><ele>469.79999999999995</ele><time>2026-04-04T11:51:25.934Z</time></trkpt><trkpt lat="43.0529627" lon="11.4363987"><ele>468.0</ele><time>2026-04-04T11:51:26.931Z</time></trkpt><trkpt lat="43.0529113" lon="11.436508"><ele>468.0</ele><time>2026-04-04T11:51:27.934Z</time></trkpt><trkpt lat="43.0528416" lon="11.4366108"><ele>467.99999999999994</ele><time>2026-04-04T11:51:28.938Z</time></trkpt><trkpt lat="43.0527621" lon="11.4366992"><ele>467.99999999999994</ele><time>2026-04-04T11:51:29.928Z</time></trkpt><trkpt lat="43.052675" lon="11.4367575"><ele>468.0</ele><time>2026-04-04T11:51:30.932Z</time></trkpt><trkpt lat="43.0525845" lon="11.4367937"><ele>468.0</ele><time>2026-04-04T11:51:31.965Z</time></trkpt><trkpt lat="43.0524932" lon="11.4367957"><ele>468.2</ele><time>2026-04-04T11:51:32.929Z</time></trkpt><trkpt lat="43.0524096" lon="11.4367773"><ele>468.4</ele><time>2026-04-04T11:51:33.931Z</time></trkpt><trkpt lat="43.0523188" lon="11.4367492"><ele>468.59999999999997</ele><time>2026-04-04T11:51:34.916Z</time></trkpt><trkpt lat="43.0522262" lon="11.4367298"><ele>468.79999999999995</ele><time>2026-04-04T11:51:35.923Z</time></trkpt><trkpt lat="43.0521326" lon="11.4367378"><ele>469.0</ele><time>2026-04-04T11:51:36.947Z</time></trkpt><trkpt lat="43.0520417" lon="11.4367678"><ele>469.00000000000006</ele><time>2026-04-04T11:51:37.933Z</time></trkpt><trkpt lat="43.0519501" lon="11.4367959"><ele>469.0</ele><time>2026-04-04T11:51:38.922Z</time></trkpt><trkpt lat="43.051863" lon="11.4368243"><ele>469.0</ele><time>2026-04-04T11:51:39.927Z</time></trkpt><trkpt lat="43.0517806" lon="11.4368465"><ele>469.0</ele><time>2026-04-04T11:51:40.925Z</time></trkpt><trkpt lat="43.0516951" lon="11.4368708"><ele>469.00000000000006</ele><time>2026-04-04T11:51:41.933Z</time></trkpt><trkpt lat="43.0516186" lon="11.436912"><ele>469.0</ele><time>2026-04-04T11:51:42.937Z</time></trkpt><trkpt lat="43.0515498" lon="11.4369761"><ele>469.2</ele><time>2026-04-04T11:51:43.938Z</time></trkpt><trkpt lat="43.0514878" lon="11.4370576"><ele>469.4</ele><time>2026-04-04T11:51:44.929Z</time></trkpt><trkpt lat="43.0514284" lon="11.4371442"><ele>469.6</ele><time>2026-04-04T11:51:45.928Z</time></trkpt><trkpt lat="43.0513764" lon="11.4372426"><ele>469.8</ele><time>2026-04-04T11:51:46.935Z</time></trkpt><trkpt lat="43.0513148" lon="11.4373367"><ele>470.0</ele><time>2026-04-04T11:51:47.94Z</time></trkpt><trkpt lat="43.0512414" lon="11.4374256"><ele>470.0</ele><time>2026-04-04T11:51:48.943Z</time></trkpt><trkpt lat="43.0511599" lon="11.4375004"><ele>470.0</ele><time>2026-04-04T11:51:49.93Z</time></trkpt><trkpt lat="43.0510714" lon="11.4375662"><ele>470.0</ele><time>2026-04-04T11:51:50.932Z</time></trkpt><trkpt lat="43.050977" lon="11.4376302"><ele>470.0</ele><time>2026-04-04T11:51:51.932Z</time></trkpt><trkpt lat="43.0508836" lon="11.4376881"><ele>470.0</ele><time>2026-04-04T11:51:52.978Z</time></trkpt><trkpt lat="43.0507917" lon="11.4377401"><ele>471.16666666666663</ele><time>2026-04-04T11:51:53.936Z</time></trkpt><trkpt lat="43.0507032" lon="11.4378013"><ele>472.3333333333333</ele><time>2026-04-04T11:51:54.931Z</time></trkpt><trkpt lat="43.0506238" lon="11.4378743"><ele>473.5</ele><time>2026-04-04T11:51:55.934Z</time></trkpt><trkpt lat="43.0505557" lon="11.4379542"><ele>474.66666666666663</ele><time>2026-04-04T11:51:56.97Z</time></trkpt><trkpt lat="43.0505091" lon="11.4380433"><ele>475.8333333333333</ele><time>2026-04-04T11:51:57.93Z</time></trkpt><trkpt lat="43.050471" lon="11.4381395"><ele>477.0</ele><time>2026-04-04T11:51:58.93Z</time></trkpt><trkpt lat="43.050453" lon="11.4382457"><ele>477.8333333333333</ele><time>2026-04-04T11:51:59.931Z</time></trkpt><trkpt lat="43.0504402" lon="11.43835"><ele>478.66666666666663</ele><time>2026-04-04T11:52:00.924Z</time></trkpt><trkpt lat="43.0504239" lon="11.4384652"><ele>479.5</ele><time>2026-04-04T11:52:01.933Z</time></trkpt><trkpt lat="43.0504" lon="11.4385637"><ele>480.3333333333333</ele><time>2026-04-04T11:52:02.94Z</time></trkpt><trkpt lat="43.0503808" lon="11.438676"><ele>481.16666666666663</ele><time>2026-04-04T11:52:03.928Z</time></trkpt><trkpt lat="43.0503809" lon="11.438789"><ele>482.0</ele><time>2026-04-04T11:52:04.932Z</time></trkpt><trkpt lat="43.0504023" lon="11.4389148"><ele>482.8333333333333</ele><time>2026-04-04T11:52:05.926Z</time></trkpt><trkpt lat="43.050447" lon="11.439022"><ele>483.66666666666663</ele><time>2026-04-04T11:52:06.937Z</time></trkpt><trkpt lat="43.0505068" lon="11.4391288"><ele>484.5</ele><time>2026-04-04T11:52:07.928Z</time></trkpt><trkpt lat="43.0505624" lon="11.4392184"><ele>485.33333333333337</ele><time>2026-04-04T11:52:08.926Z</time></trkpt><trkpt lat="43.0506123" lon="11.4393122"><ele>486.1666666666667</ele><time>2026-04-04T11:52:09.937Z</time></trkpt><trkpt lat="43.0506519" lon="11.4394122"><ele>487.0</ele><time>2026-04-04T11:52:10.939Z</time></trkpt><trkpt lat="43.050684" lon="11.4395243"><ele>487.00000000000006</ele><time>2026-04-04T11:52:11.928Z</time></trkpt><trkpt lat="43.050703" lon="11.4396287"><ele>487.0</ele><time>2026-04-04T11:52:12.937Z</time></trkpt><trkpt lat="43.0507112" lon="11.4397408"><ele>487.0</ele><time>2026-04-04T11:52:13.937Z</time></trkpt><trkpt lat="43.0507122" lon="11.4398595"><ele>487.0</ele><time>2026-04-04T11:52:15.008Z</time></trkpt><trkpt lat="43.0507035" lon="11.4399846"><ele>487.00000000000006</ele><time>2026-04-04T11:52:15.992Z</time></trkpt><trkpt lat="43.0506813" lon="11.4401046"><ele>487.0</ele><time>2026-04-04T11:52:16.974Z</time></trkpt><trkpt lat="43.0506438" lon="11.4402152"><ele>485.8</ele><time>2026-04-04T11:52:17.989Z</time></trkpt><trkpt lat="43.0505919" lon="11.4403192"><ele>484.6</ele><time>2026-04-04T11:52:18.98Z</time></trkpt><trkpt lat="43.0505308" lon="11.4404167"><ele>483.40000000000003</ele><time>2026-04-04T11:52:19.988Z</time></trkpt><trkpt lat="43.0504571" lon="11.4405031"><ele>482.20000000000005</ele><time>2026-04-04T11:52:20.986Z</time></trkpt><trkpt lat="43.0503808" lon="11.4405691"><ele>481.0</ele><time>2026-04-04T11:52:21.985Z</time></trkpt><trkpt lat="43.0502999" lon="11.4406282"><ele>478.20000000000005</ele><time>2026-04-04T11:52:22.985Z</time></trkpt><trkpt lat="43.0502236" lon="11.4407027"><ele>475.40000000000003</ele><time>2026-04-04T11:52:23.99Z</time></trkpt><trkpt lat="43.0501605" lon="11.4407855"><ele>472.6</ele><time>2026-04-04T11:52:24.989Z</time></trkpt><trkpt lat="43.0501141" lon="11.4408967"><ele>469.8</ele><time>2026-04-04T11:52:25.971Z</time></trkpt><trkpt lat="43.0500726" lon="11.4410248"><ele>467.0</ele><time>2026-04-04T11:52:26.974Z</time></trkpt><trkpt lat="43.0500581" lon="11.4411647"><ele>467.0</ele><time>2026-04-04T11:52:27.973Z</time></trkpt><trkpt lat="43.0500553" lon="11.4412946"><ele>467.00000000000006</ele><time>2026-04-04T11:52:28.972Z</time></trkpt><trkpt lat="43.0500601" lon="11.4414331"><ele>467.00000000000006</ele><time>2026-04-04T11:52:29.975Z</time></trkpt><trkpt lat="43.0500645" lon="11.4415757"><ele>467.0</ele><time>2026-04-04T11:52:30.99Z</time></trkpt><trkpt lat="43.0500699" lon="11.441713"><ele>467.0</ele><time>2026-04-04T11:52:31.975Z</time></trkpt><trkpt lat="43.050076" lon="11.441854"><ele>466.40000000000003</ele><time>2026-04-04T11:52:32.971Z</time></trkpt><trkpt lat="43.0500832" lon="11.4419977"><ele>465.80000000000007</ele><time>2026-04-04T11:52:33.985Z</time></trkpt><trkpt lat="43.0500889" lon="11.44214"><ele>465.2</ele><time>2026-04-04T11:52:34.994Z</time></trkpt><trkpt lat="43.0500944" lon="11.4422756"><ele>464.6</ele><time>2026-04-04T11:52:35.988Z</time></trkpt><trkpt lat="43.0501046" lon="11.442407"><ele>464.0</ele><time>2026-04-04T11:52:37.017Z</time></trkpt><trkpt lat="43.0501098" lon="11.4425378"><ele>464.0</ele><time>2026-04-04T11:52:37.98Z</time></trkpt><trkpt lat="43.0501094" lon="11.4426622"><ele>464.0</ele><time>2026-04-04T11:52:38.984Z</time></trkpt><trkpt lat="43.050115" lon="11.4427939"><ele>464.0</ele><time>2026-04-04T11:52:39.973Z</time></trkpt><trkpt lat="43.0501246" lon="11.442921"><ele>464.0</ele><time>2026-04-04T11:52:40.972Z</time></trkpt><trkpt lat="43.0501363" lon="11.4430415"><ele>464.0</ele><time>2026-04-04T11:52:41.981Z</time></trkpt><trkpt lat="43.0501418" lon="11.4431719"><ele>465.4</ele><time>2026-04-04T11:52:42.98Z</time></trkpt><trkpt lat="43.0501391" lon="11.4433125"><ele>466.79999999999995</ele><time>2026-04-04T11:52:43.972Z</time></trkpt><trkpt lat="43.050121" lon="11.4434447"><ele>468.20000000000005</ele><time>2026-04-04T11:52:44.981Z</time></trkpt><trkpt lat="43.0500931" lon="11.4435765"><ele>469.6</ele><time>2026-04-04T11:52:45.98Z</time></trkpt><trkpt lat="43.0500639" lon="11.4436989"><ele>471.0</ele><time>2026-04-04T11:52:46.975Z</time></trkpt><trkpt lat="43.0500359" lon="11.443821"><ele>470.8</ele><time>2026-04-04T11:52:47.971Z</time></trkpt><trkpt lat="43.0500101" lon="11.4439468"><ele>470.6</ele><time>2026-04-04T11:52:48.976Z</time></trkpt><trkpt lat="43.0499884" lon="11.4440689"><ele>470.4</ele><time>2026-04-04T11:52:49.983Z</time></trkpt><trkpt lat="43.0499644" lon="11.4441926"><ele>470.2</ele><time>2026-04-04T11:52:50.983Z</time></trkpt><trkpt lat="43.0499458" lon="11.4443119"><ele>470.0</ele><time>2026-04-04T11:52:51.98Z</time></trkpt><trkpt lat="43.0499322" lon="11.4444388"><ele>469.99999999999994</ele><time>2026-04-04T11:52:52.982Z</time></trkpt><trkpt lat="43.0499253" lon="11.4445572"><ele>470.0</ele><time>2026-04-04T11:52:53.98Z</time></trkpt><trkpt lat="43.0499251" lon="11.4446798"><ele>470.0</ele><time>2026-04-04T11:52:54.977Z</time></trkpt><trkpt lat="43.0499244" lon="11.4447896"><ele>470.0</ele><time>2026-04-04T11:52:55.974Z</time></trkpt><trkpt lat="43.0499193" lon="11.4448961"><ele>469.99999999999994</ele><time>2026-04-04T11:52:56.977Z</time></trkpt><trkpt lat="43.049914" lon="11.4450072"><ele>470.0</ele><time>2026-04-04T11:52:57.974Z</time></trkpt><trkpt lat="43.0499059" lon="11.4451217"><ele>468.49999999999994</ele><time>2026-04-04T11:52:58.968Z</time></trkpt><trkpt lat="43.0498821" lon="11.4452383"><ele>467.0</ele><time>2026-04-04T11:52:59.975Z</time></trkpt><trkpt lat="43.0498471" lon="11.4453421"><ele>465.5</ele><time>2026-04-04T11:53:00.973Z</time></trkpt><trkpt lat="43.0498067" lon="11.4454488"><ele>464.0</ele><time>2026-04-04T11:53:01.964Z</time></trkpt><trkpt lat="43.0497674" lon="11.4455611"><ele>462.49999999999994</ele><time>2026-04-04T11:53:02.979Z</time></trkpt><trkpt lat="43.0497293" lon="11.4456729"><ele>461.0</ele><time>2026-04-04T11:53:03.979Z</time></trkpt><trkpt lat="43.0496934" lon="11.4457875"><ele>461.0</ele><time>2026-04-04T11:53:04.969Z</time></trkpt><trkpt lat="43.0496678" lon="11.4459132"><ele>461.0</ele><time>2026-04-04T11:53:05.98Z</time></trkpt><trkpt lat="43.0496524" lon="11.4460438"><ele>461.0</ele><time>2026-04-04T11:53:06.967Z</time></trkpt><trkpt lat="43.0496367" lon="11.4461784"><ele>461.0</ele><time>2026-04-04T11:53:07.978Z</time></trkpt><trkpt lat="43.0496213" lon="11.4463176"><ele>461.0</ele><time>2026-04-04T11:53:08.971Z</time></trkpt><trkpt lat="43.0496105" lon="11.4464652"><ele>461.8</ele><time>2026-04-04T11:53:09.979Z</time></trkpt><trkpt lat="43.049604" lon="11.4466117"><ele>462.6</ele><time>2026-04-04T11:53:10.981Z</time></trkpt><trkpt lat="43.0496012" lon="11.4467655"><ele>463.4</ele><time>2026-04-04T11:53:11.973Z</time></trkpt><trkpt lat="43.0495964" lon="11.446917"><ele>464.2</ele><time>2026-04-04T11:53:12.981Z</time></trkpt><trkpt lat="43.0495935" lon="11.447076"><ele>465.0</ele><time>2026-04-04T11:53:13.994Z</time></trkpt><trkpt lat="43.0495894" lon="11.4472258"><ele>465.2</ele><time>2026-04-04T11:53:14.964Z</time></trkpt><trkpt lat="43.0495865" lon="11.4473736"><ele>465.4</ele><time>2026-04-04T11:53:15.988Z</time></trkpt><trkpt lat="43.0495859" lon="11.4475164"><ele>465.6</ele><time>2026-04-04T11:53:16.974Z</time></trkpt><trkpt lat="43.0495853" lon="11.4476522"><ele>465.8</ele><time>2026-04-04T11:53:17.976Z</time></trkpt><trkpt lat="43.0496017" lon="11.4477806"><ele>466.0</ele><time>2026-04-04T11:53:18.976Z</time></trkpt><trkpt lat="43.0496311" lon="11.4479014"><ele>466.42857142857144</ele><time>2026-04-04T11:53:19.969Z</time></trkpt><trkpt lat="43.0496642" lon="11.4480117"><ele>466.85714285714283</ele><time>2026-04-04T11:53:20.97Z</time></trkpt><trkpt lat="43.0496861" lon="11.4481261"><ele>467.2857142857143</ele><time>2026-04-04T11:53:21.971Z</time></trkpt><trkpt lat="43.0496982" lon="11.4482275"><ele>467.7142857142857</ele><time>2026-04-04T11:53:22.976Z</time></trkpt><trkpt lat="43.049684" lon="11.4483183"><ele>468.1428571428571</ele><time>2026-04-04T11:53:23.962Z</time></trkpt><trkpt lat="43.0496579" lon="11.4484027"><ele>468.57142857142856</ele><time>2026-04-04T11:53:24.97Z</time></trkpt><trkpt lat="43.0496159" lon="11.448467"><ele>469.0</ele><time>2026-04-04T11:53:25.969Z</time></trkpt><trkpt lat="43.0495598" lon="11.4485261"><ele>469.00000000000006</ele><time>2026-04-04T11:53:26.963Z</time></trkpt><trkpt lat="43.0495056" lon="11.4485929"><ele>469.0</ele><time>2026-04-04T11:53:27.978Z</time></trkpt><trkpt lat="43.0494547" lon="11.4486597"><ele>469.0</ele><time>2026-04-04T11:53:28.976Z</time></trkpt><trkpt lat="43.0494054" lon="11.4487255"><ele>469.0</ele><time>2026-04-04T11:53:29.963Z</time></trkpt><trkpt lat="43.0493524" lon="11.4487982"><ele>469.00000000000006</ele><time>2026-04-04T11:53:30.976Z</time></trkpt><trkpt lat="43.0492946" lon="11.4488764"><ele>469.0</ele><time>2026-04-04T11:53:31.974Z</time></trkpt><trkpt lat="43.0492299" lon="11.4489663"><ele>469.4</ele><time>2026-04-04T11:53:32.978Z</time></trkpt><trkpt lat="43.049161" lon="11.4490622"><ele>469.79999999999995</ele><time>2026-04-04T11:53:33.975Z</time></trkpt><trkpt lat="43.0490877" lon="11.4491624"><ele>470.20000000000005</ele><time>2026-04-04T11:53:34.973Z</time></trkpt><trkpt lat="43.0490127" lon="11.4492726"><ele>470.6</ele><time>2026-04-04T11:53:35.983Z</time></trkpt><trkpt lat="43.0489457" lon="11.4493746"><ele>471.0</ele><time>2026-04-04T11:53:36.98Z</time></trkpt><trkpt lat="43.048875" lon="11.4494708"><ele>471.0</ele><time>2026-04-04T11:53:37.98Z</time></trkpt><trkpt lat="43.0488094" lon="11.4495748"><ele>471.0</ele><time>2026-04-04T11:53:38.977Z</time></trkpt><trkpt lat="43.0487412" lon="11.4496821"><ele>471.0</ele><time>2026-04-04T11:53:39.982Z</time></trkpt><trkpt lat="43.0486677" lon="11.4497786"><ele>471.0</ele><time>2026-04-04T11:53:40.986Z</time></trkpt><trkpt lat="43.0485963" lon="11.4498796"><ele>471.0</ele><time>2026-04-04T11:53:41.983Z</time></trkpt><trkpt lat="43.0485291" lon="11.4499733"><ele>471.8</ele><time>2026-04-04T11:53:42.99Z</time></trkpt><trkpt lat="43.0484652" lon="11.4500629"><ele>472.6</ele><time>2026-04-04T11:53:43.978Z</time></trkpt><trkpt lat="43.0483942" lon="11.4501447"><ele>473.4</ele><time>2026-04-04T11:53:44.973Z</time></trkpt><trkpt lat="43.0483138" lon="11.4502147"><ele>474.2</ele><time>2026-04-04T11:53:45.988Z</time></trkpt><trkpt lat="43.0482371" lon="11.4502868"><ele>475.0</ele><time>2026-04-04T11:53:46.984Z</time></trkpt><trkpt lat="43.0481662" lon="11.4503586"><ele>475.00000000000006</ele><time>2026-04-04T11:53:47.988Z</time></trkpt><trkpt lat="43.0481199" lon="11.4504493"><ele>475.0</ele><time>2026-04-04T11:53:48.975Z</time></trkpt><trkpt lat="43.0480844" lon="11.4505485"><ele>475.0</ele><time>2026-04-04T11:53:49.986Z</time></trkpt><trkpt lat="43.0480617" lon="11.4506581"><ele>475.0</ele><time>2026-04-04T11:53:50.984Z</time></trkpt><trkpt lat="43.0480444" lon="11.450773"><ele>475.00000000000006</ele><time>2026-04-04T11:53:51.986Z</time></trkpt><trkpt lat="43.0480273" lon="11.4508842"><ele>475.0</ele><time>2026-04-04T11:53:52.991Z</time></trkpt><trkpt lat="43.0480082" lon="11.4510032"><ele>476.2</ele><time>2026-04-04T11:53:53.991Z</time></trkpt><trkpt lat="43.0479903" lon="11.4511244"><ele>477.4</ele><time>2026-04-04T11:53:54.979Z</time></trkpt><trkpt lat="43.0479743" lon="11.4512491"><ele>478.6</ele><time>2026-04-04T11:53:55.985Z</time></trkpt><trkpt lat="43.0479545" lon="11.4513841"><ele>479.8</ele><time>2026-04-04T11:53:56.997Z</time></trkpt><trkpt lat="43.0479255" lon="11.4515009"><ele>481.0</ele><time>2026-04-04T11:53:57.982Z</time></trkpt><trkpt lat="43.0479174" lon="11.4517045"><ele>481.8</ele><time>2026-04-04T11:53:59.985Z</time></trkpt><trkpt lat="43.0478679" lon="11.4518583"><ele>482.6</ele><time>2026-04-04T11:54:00.983Z</time></trkpt><trkpt lat="43.0478177" lon="11.4519842"><ele>483.4</ele><time>2026-04-04T11:54:01.99Z</time></trkpt><trkpt lat="43.0477781" lon="11.4521086"><ele>484.2</ele><time>2026-04-04T11:54:02.983Z</time></trkpt><trkpt lat="43.0477442" lon="11.4522316"><ele>485.0</ele><time>2026-04-04T11:54:03.983Z</time></trkpt><trkpt lat="43.0477182" lon="11.4523571"><ele>486.25</ele><time>2026-04-04T11:54:04.987Z</time></trkpt><trkpt lat="43.0476817" lon="11.4525075"><ele>487.5</ele><time>2026-04-04T11:54:05.992Z</time></trkpt><trkpt lat="43.0476536" lon="11.4526524"><ele>488.75</ele><time>2026-04-04T11:54:06.993Z</time></trkpt><trkpt lat="43.0476245" lon="11.4528039"><ele>490.0</ele><time>2026-04-04T11:54:07.984Z</time></trkpt><trkpt lat="43.0475976" lon="11.4529529"><ele>490.6</ele><time>2026-04-04T11:54:08.977Z</time></trkpt><trkpt lat="43.047566" lon="11.4530978"><ele>491.2</ele><time>2026-04-04T11:54:10.001Z</time></trkpt><trkpt lat="43.0475466" lon="11.4532374"><ele>491.79999999999995</ele><time>2026-04-04T11:54:10.987Z</time></trkpt><trkpt lat="43.0475294" lon="11.4533694"><ele>492.4</ele><time>2026-04-04T11:54:12.002Z</time></trkpt><trkpt lat="43.0475116" lon="11.4534949"><ele>493.0</ele><time>2026-04-04T11:54:12.99Z</time></trkpt><trkpt lat="43.0474856" lon="11.4536176"><ele>493.6666666666667</ele><time>2026-04-04T11:54:13.986Z</time></trkpt><trkpt lat="43.0474575" lon="11.4537348"><ele>494.33333333333337</ele><time>2026-04-04T11:54:14.987Z</time></trkpt><trkpt lat="43.0474311" lon="11.4538441"><ele>495.0</ele><time>2026-04-04T11:54:15.981Z</time></trkpt><trkpt lat="43.047404" lon="11.4539487"><ele>495.66666666666663</ele><time>2026-04-04T11:54:16.979Z</time></trkpt><trkpt lat="43.0473583" lon="11.4540809"><ele>496.3333333333333</ele><time>2026-04-04T11:54:18.985Z</time></trkpt><trkpt lat="43.0474251" lon="11.4540684"><ele>497.0</ele><time>2026-04-04T11:54:45.982Z</time></trkpt><trkpt lat="43.0473755" lon="11.4538905"><ele>498.0</ele><time>2026-04-04T11:54:58.929Z</time></trkpt><trkpt lat="43.047314" lon="11.4539242"><ele>499.00000000000006</ele><time>2026-04-04T12:00:05.928Z</time></trkpt><trkpt lat="43.0472105" lon="11.4539758"><ele>500.00000000000006</ele><time>2026-04-04T12:00:07.938Z</time></trkpt><trkpt lat="43.0471526" lon="11.4540138"><ele>501.0</ele><time>2026-04-04T12:00:08.925Z</time></trkpt><trkpt lat="43.0470435" lon="11.4540812"><ele>502.0</ele><time>2026-04-04T12:00:10.936Z</time></trkpt><trkpt lat="43.0469378" lon="11.4541515"><ele>502.0</ele><time>2026-04-04T12:00:12.929Z</time></trkpt><trkpt lat="43.0468755" lon="11.4541902"><ele>502.00000000000006</ele><time>2026-04-04T12:00:13.925Z</time></trkpt><trkpt lat="43.046816" lon="11.454222"><ele>502.00000000000006</ele><time>2026-04-04T12:00:14.934Z</time></trkpt><trkpt lat="43.0467007" lon="11.4542846"><ele>502.0</ele><time>2026-04-04T12:00:16.957Z</time></trkpt><trkpt lat="43.0465895" lon="11.4543661"><ele>502.0</ele><time>2026-04-04T12:00:18.923Z</time></trkpt><trkpt lat="43.0465276" lon="11.4544268"><ele>502.71428571428567</ele><time>2026-04-04T12:00:19.933Z</time></trkpt><trkpt lat="43.0464644" lon="11.4544933"><ele>503.42857142857144</ele><time>2026-04-04T12:00:20.931Z</time></trkpt><trkpt lat="43.0464024" lon="11.4545527"><ele>504.1428571428571</ele><time>2026-04-04T12:00:21.934Z</time></trkpt><trkpt lat="43.0463419" lon="11.4546094"><ele>504.85714285714283</ele><time>2026-04-04T12:00:22.927Z</time></trkpt><trkpt lat="43.0462807" lon="11.4546636"><ele>505.57142857142856</ele><time>2026-04-04T12:00:23.941Z</time></trkpt><trkpt lat="43.0462233" lon="11.4547091"><ele>506.2857142857143</ele><time>2026-04-04T12:00:24.936Z</time></trkpt><trkpt lat="43.0461617" lon="11.4547478"><ele>507.0</ele><time>2026-04-04T12:00:25.928Z</time></trkpt><trkpt lat="43.0461002" lon="11.454788"><ele>507.0</ele><time>2026-04-04T12:00:26.929Z</time></trkpt><trkpt lat="43.0460298" lon="11.4548313"><ele>507.0</ele><time>2026-04-04T12:00:27.924Z</time></trkpt><trkpt lat="43.045958" lon="11.4548778"><ele>507.0</ele><time>2026-04-04T12:00:28.931Z</time></trkpt><trkpt lat="43.0458816" lon="11.4549267"><ele>507.0</ele><time>2026-04-04T12:00:29.93Z</time></trkpt><trkpt lat="43.0458067" lon="11.4549711"><ele>507.0</ele><time>2026-04-04T12:00:30.938Z</time></trkpt><trkpt lat="43.045732" lon="11.4550179"><ele>507.0</ele><time>2026-04-04T12:00:31.925Z</time></trkpt><trkpt lat="43.045661" lon="11.4550701"><ele>506.8333333333333</ele><time>2026-04-04T12:00:32.932Z</time></trkpt><trkpt lat="43.0455885" lon="11.4551318"><ele>506.66666666666663</ele><time>2026-04-04T12:00:33.936Z</time></trkpt><trkpt lat="43.0455245" lon="11.4552062"><ele>506.5</ele><time>2026-04-04T12:00:34.937Z</time></trkpt><trkpt lat="43.0454684" lon="11.4552961"><ele>506.3333333333333</ele><time>2026-04-04T12:00:35.929Z</time></trkpt><trkpt lat="43.0454193" lon="11.4553939"><ele>506.16666666666663</ele><time>2026-04-04T12:00:36.935Z</time></trkpt><trkpt lat="43.0453805" lon="11.4554873"><ele>506.0</ele><time>2026-04-04T12:00:37.933Z</time></trkpt><trkpt lat="43.0453396" lon="11.4555821"><ele>505.6</ele><time>2026-04-04T12:00:38.93Z</time></trkpt><trkpt lat="43.0452948" lon="11.4556762"><ele>505.20000000000005</ele><time>2026-04-04T12:00:39.925Z</time></trkpt><trkpt lat="43.0452417" lon="11.4557729"><ele>504.79999999999995</ele><time>2026-04-04T12:00:40.934Z</time></trkpt><trkpt lat="43.0451865" lon="11.4558799"><ele>504.4</ele><time>2026-04-04T12:00:41.938Z</time></trkpt><trkpt lat="43.0451304" lon="11.4559866"><ele>504.0</ele><time>2026-04-04T12:00:42.927Z</time></trkpt><trkpt lat="43.0450764" lon="11.4560987"><ele>504.0</ele><time>2026-04-04T12:00:43.923Z</time></trkpt><trkpt lat="43.0450192" lon="11.4562051"><ele>504.0</ele><time>2026-04-04T12:00:44.931Z</time></trkpt><trkpt lat="43.0449634" lon="11.4563107"><ele>504.0</ele><time>2026-04-04T12:00:45.942Z</time></trkpt><trkpt lat="43.0449121" lon="11.4564225"><ele>504.0</ele><time>2026-04-04T12:00:46.927Z</time></trkpt><trkpt lat="43.0448586" lon="11.4565334"><ele>504.0</ele><time>2026-04-04T12:00:47.938Z</time></trkpt><trkpt lat="43.0448135" lon="11.4566608"><ele>503.6</ele><time>2026-04-04T12:00:48.938Z</time></trkpt><trkpt lat="43.0447902" lon="11.4567872"><ele>503.2</ele><time>2026-04-04T12:00:49.938Z</time></trkpt><trkpt lat="43.0447784" lon="11.4569211"><ele>502.80000000000007</ele><time>2026-04-04T12:00:50.934Z</time></trkpt><trkpt lat="43.0447653" lon="11.4570467"><ele>502.40000000000003</ele><time>2026-04-04T12:00:51.937Z</time></trkpt><trkpt lat="43.0447464" lon="11.4571631"><ele>502.0</ele><time>2026-04-04T12:00:52.932Z</time></trkpt><trkpt lat="43.0447126" lon="11.457266"><ele>503.33333333333337</ele><time>2026-04-04T12:00:53.941Z</time></trkpt><trkpt lat="43.0446674" lon="11.4573576"><ele>504.6666666666667</ele><time>2026-04-04T12:00:54.933Z</time></trkpt><trkpt lat="43.0446163" lon="11.4574208"><ele>506.0</ele><time>2026-04-04T12:00:55.924Z</time></trkpt><trkpt lat="43.0445519" lon="11.4574747"><ele>507.33333333333337</ele><time>2026-04-04T12:00:56.926Z</time></trkpt><trkpt lat="43.0444794" lon="11.457529"><ele>508.6666666666667</ele><time>2026-04-04T12:00:57.943Z</time></trkpt><trkpt lat="43.0444136" lon="11.4575916"><ele>510.0</ele><time>2026-04-04T12:00:58.939Z</time></trkpt><trkpt lat="43.0443476" lon="11.4576591"><ele>510.0</ele><time>2026-04-04T12:00:59.938Z</time></trkpt><trkpt lat="43.0442776" lon="11.4577254"><ele>510.0</ele><time>2026-04-04T12:01:00.935Z</time></trkpt><trkpt lat="43.0442179" lon="11.4577916"><ele>510.0</ele><time>2026-04-04T12:01:01.941Z</time></trkpt><trkpt lat="43.0441583" lon="11.4578569"><ele>510.0</ele><time>2026-04-04T12:01:02.927Z</time></trkpt><trkpt lat="43.044103" lon="11.4579218"><ele>510.0</ele><time>2026-04-04T12:01:03.934Z</time></trkpt><trkpt lat="43.0440506" lon="11.457988"><ele>510.0</ele><time>2026-04-04T12:01:04.928Z</time></trkpt><trkpt lat="43.0440001" lon="11.4580605"><ele>509.5</ele><time>2026-04-04T12:01:05.933Z</time></trkpt><trkpt lat="43.0439542" lon="11.4581313"><ele>509.0</ele><time>2026-04-04T12:01:06.936Z</time></trkpt><trkpt lat="43.0439074" lon="11.4582275"><ele>508.5</ele><time>2026-04-04T12:01:07.929Z</time></trkpt><trkpt lat="43.0438592" lon="11.4583109"><ele>508.0</ele><time>2026-04-04T12:01:08.93Z</time></trkpt><trkpt lat="43.0438063" lon="11.4583997"><ele>507.5</ele><time>2026-04-04T12:01:09.941Z</time></trkpt><trkpt lat="43.04375" lon="11.4584967"><ele>507.0</ele><time>2026-04-04T12:01:10.946Z</time></trkpt><trkpt lat="43.043688" lon="11.4585941"><ele>507.0</ele><time>2026-04-04T12:01:11.932Z</time></trkpt><trkpt lat="43.0436309" lon="11.4586894"><ele>507.00000000000006</ele><time>2026-04-04T12:01:12.926Z</time></trkpt><trkpt lat="43.0435678" lon="11.4587908"><ele>507.00000000000006</ele><time>2026-04-04T12:01:13.929Z</time></trkpt><trkpt lat="43.0435016" lon="11.4588831"><ele>507.0</ele><time>2026-04-04T12:01:14.934Z</time></trkpt><trkpt lat="43.0434227" lon="11.4589655"><ele>507.0</ele><time>2026-04-04T12:01:15.925Z</time></trkpt><trkpt lat="43.0433426" lon="11.4590427"><ele>507.0</ele><time>2026-04-04T12:01:16.93Z</time></trkpt><trkpt lat="43.0432573" lon="11.4591056"><ele>507.00000000000006</ele><time>2026-04-04T12:01:17.928Z</time></trkpt><trkpt lat="43.0431699" lon="11.4591645"><ele>507.00000000000006</ele><time>2026-04-04T12:01:18.939Z</time></trkpt><trkpt lat="43.0430887" lon="11.4592106"><ele>507.0</ele><time>2026-04-04T12:01:19.936Z</time></trkpt><trkpt lat="43.0430153" lon="11.4592721"><ele>507.0</ele><time>2026-04-04T12:01:20.927Z</time></trkpt><trkpt lat="43.0429496" lon="11.4593396"><ele>507.0</ele><time>2026-04-04T12:01:21.926Z</time></trkpt><trkpt lat="43.0428981" lon="11.4594306"><ele>507.00000000000006</ele><time>2026-04-04T12:01:22.936Z</time></trkpt><trkpt lat="43.042851" lon="11.459526"><ele>507.00000000000006</ele><time>2026-04-04T12:01:23.926Z</time></trkpt><trkpt lat="43.0428135" lon="11.4596431"><ele>507.0</ele><time>2026-04-04T12:01:24.933Z</time></trkpt><trkpt lat="43.0427823" lon="11.4597721"><ele>507.0</ele><time>2026-04-04T12:01:25.929Z</time></trkpt><trkpt lat="43.0427571" lon="11.4598894"><ele>507.5</ele><time>2026-04-04T12:01:26.93Z</time></trkpt><trkpt lat="43.0427319" lon="11.4600113"><ele>508.0</ele><time>2026-04-04T12:01:27.92Z</time></trkpt><trkpt lat="43.0427216" lon="11.4601217"><ele>508.5</ele><time>2026-04-04T12:01:28.928Z</time></trkpt><trkpt lat="43.0427181" lon="11.4602351"><ele>509.0</ele><time>2026-04-04T12:01:29.933Z</time></trkpt><trkpt lat="43.0427327" lon="11.4603534"><ele>509.5</ele><time>2026-04-04T12:01:30.93Z</time></trkpt><trkpt lat="43.0427635" lon="11.4604647"><ele>510.0</ele><time>2026-04-04T12:01:31.931Z</time></trkpt><trkpt lat="43.0428178" lon="11.4605746"><ele>510.0</ele><time>2026-04-04T12:01:32.931Z</time></trkpt><trkpt lat="43.0428744" lon="11.4606854"><ele>510.0</ele><time>2026-04-04T12:01:33.937Z</time></trkpt><trkpt lat="43.0429296" lon="11.4607874"><ele>510.0</ele><time>2026-04-04T12:01:34.931Z</time></trkpt><trkpt lat="43.0429802" lon="11.4608943"><ele>510.0</ele><time>2026-04-04T12:01:35.948Z</time></trkpt><trkpt lat="43.0430329" lon="11.4610129"><ele>510.0</ele><time>2026-04-04T12:01:36.933Z</time></trkpt><trkpt lat="43.0430868" lon="11.4611349"><ele>510.0</ele><time>2026-04-04T12:01:37.939Z</time></trkpt><trkpt lat="43.0431459" lon="11.4612667"><ele>510.0</ele><time>2026-04-04T12:01:38.93Z</time></trkpt><trkpt lat="43.0431975" lon="11.4613901"><ele>510.0</ele><time>2026-04-04T12:01:39.938Z</time></trkpt><trkpt lat="43.0432564" lon="11.461516"><ele>510.0</ele><time>2026-04-04T12:01:40.933Z</time></trkpt><trkpt lat="43.0433101" lon="11.4616445"><ele>510.0</ele><time>2026-04-04T12:01:41.93Z</time></trkpt><trkpt lat="43.0433644" lon="11.4617753"><ele>508.2</ele><time>2026-04-04T12:01:42.942Z</time></trkpt><trkpt lat="43.0434202" lon="11.4619028"><ele>506.4</ele><time>2026-04-04T12:01:43.93Z</time></trkpt><trkpt lat="43.0434676" lon="11.4620316"><ele>504.6</ele><time>2026-04-04T12:01:44.93Z</time></trkpt><trkpt lat="43.0435122" lon="11.4621526"><ele>502.8</ele><time>2026-04-04T12:01:45.928Z</time></trkpt><trkpt lat="43.0435549" lon="11.4622679"><ele>501.0</ele><time>2026-04-04T12:01:46.93Z</time></trkpt><trkpt lat="43.0435908" lon="11.4623821"><ele>501.0</ele><time>2026-04-04T12:01:47.934Z</time></trkpt><trkpt lat="43.0436176" lon="11.4624859"><ele>501.0</ele><time>2026-04-04T12:01:48.936Z</time></trkpt><trkpt lat="43.0436277" lon="11.4625776"><ele>501.0</ele><time>2026-04-04T12:01:49.934Z</time></trkpt><trkpt lat="43.0436061" lon="11.4627283"><ele>501.0</ele><time>2026-04-04T12:01:51.936Z</time></trkpt><trkpt lat="43.0435495" lon="11.4628713"><ele>501.0</ele><time>2026-04-04T12:01:53.938Z</time></trkpt><trkpt lat="43.0434986" lon="11.4629442"><ele>501.0</ele><time>2026-04-04T12:01:54.928Z</time></trkpt><trkpt lat="43.0434465" lon="11.4630236"><ele>501.0</ele><time>2026-04-04T12:01:55.937Z</time></trkpt><trkpt lat="43.0433943" lon="11.4631143"><ele>501.0</ele><time>2026-04-04T12:01:56.94Z</time></trkpt><trkpt lat="43.0433356" lon="11.4632106"><ele>501.0</ele><time>2026-04-04T12:01:57.929Z</time></trkpt><trkpt lat="43.0432752" lon="11.4633175"><ele>501.0</ele><time>2026-04-04T12:01:58.933Z</time></trkpt><trkpt lat="43.0432257" lon="11.4634295"><ele>501.0</ele><time>2026-04-04T12:01:59.934Z</time></trkpt><trkpt lat="43.0431896" lon="11.4635424"><ele>500.6</ele><time>2026-04-04T12:02:00.939Z</time></trkpt><trkpt lat="43.0431655" lon="11.4636645"><ele>500.20000000000005</ele><time>2026-04-04T12:02:01.939Z</time></trkpt><trkpt lat="43.0431492" lon="11.4637948"><ele>499.79999999999995</ele><time>2026-04-04T12:02:02.931Z</time></trkpt><trkpt lat="43.0431298" lon="11.4639382"><ele>499.4</ele><time>2026-04-04T12:02:03.922Z</time></trkpt><trkpt lat="43.043109" lon="11.4640764"><ele>499.0</ele><time>2026-04-04T12:02:04.929Z</time></trkpt><trkpt lat="43.0430875" lon="11.4642211"><ele>499.0</ele><time>2026-04-04T12:02:05.928Z</time></trkpt><trkpt lat="43.043066" lon="11.4643535"><ele>499.0</ele><time>2026-04-04T12:02:06.925Z</time></trkpt><trkpt lat="43.0430439" lon="11.4644824"><ele>499.0</ele><time>2026-04-04T12:02:07.932Z</time></trkpt><trkpt lat="43.0430197" lon="11.4646072"><ele>499.0</ele><time>2026-04-04T12:02:08.936Z</time></trkpt><trkpt lat="43.0429956" lon="11.4647302"><ele>499.0</ele><time>2026-04-04T12:02:09.933Z</time></trkpt><trkpt lat="43.0429654" lon="11.4648443"><ele>499.50000000000006</ele><time>2026-04-04T12:02:10.924Z</time></trkpt><trkpt lat="43.0429297" lon="11.4649543"><ele>500.0</ele><time>2026-04-04T12:02:11.931Z</time></trkpt><trkpt lat="43.0428908" lon="11.4650561"><ele>500.5</ele><time>2026-04-04T12:02:12.931Z</time></trkpt><trkpt lat="43.042847" lon="11.4651633"><ele>501.0</ele><time>2026-04-04T12:02:13.936Z</time></trkpt><trkpt lat="43.0428051" lon="11.4652593"><ele>501.50000000000006</ele><time>2026-04-04T12:02:14.923Z</time></trkpt><trkpt lat="43.042764" lon="11.4653639"><ele>502.0</ele><time>2026-04-04T12:02:15.927Z</time></trkpt><trkpt lat="43.0427351" lon="11.4654688"><ele>502.00000000000006</ele><time>2026-04-04T12:02:16.93Z</time></trkpt><trkpt lat="43.0427101" lon="11.4655825"><ele>502.0</ele><time>2026-04-04T12:02:17.935Z</time></trkpt><trkpt lat="43.0426946" lon="11.4656936"><ele>502.0</ele><time>2026-04-04T12:02:18.936Z</time></trkpt><trkpt lat="43.0426869" lon="11.4658115"><ele>502.0</ele><time>2026-04-04T12:02:19.928Z</time></trkpt><trkpt lat="43.0426822" lon="11.4659321"><ele>502.00000000000006</ele><time>2026-04-04T12:02:20.94Z</time></trkpt><trkpt lat="43.0426727" lon="11.466045"><ele>502.0</ele><time>2026-04-04T12:02:21.927Z</time></trkpt><trkpt lat="43.0426635" lon="11.4661612"><ele>501.83333333333337</ele><time>2026-04-04T12:02:22.93Z</time></trkpt><trkpt lat="43.0426572" lon="11.4662848"><ele>501.6666666666667</ele><time>2026-04-04T12:02:23.927Z</time></trkpt><trkpt lat="43.0426524" lon="11.466401"><ele>501.5</ele><time>2026-04-04T12:02:24.932Z</time></trkpt><trkpt lat="43.0426485" lon="11.4665223"><ele>501.33333333333337</ele><time>2026-04-04T12:02:25.936Z</time></trkpt><trkpt lat="43.0426477" lon="11.466639"><ele>501.1666666666667</ele><time>2026-04-04T12:02:26.94Z</time></trkpt><trkpt lat="43.0426435" lon="11.4667549"><ele>501.0</ele><time>2026-04-04T12:02:27.934Z</time></trkpt><trkpt lat="43.0426331" lon="11.4668708"><ele>501.0</ele><time>2026-04-04T12:02:28.927Z</time></trkpt><trkpt lat="43.04262" lon="11.4669817"><ele>501.0</ele><time>2026-04-04T12:02:29.937Z</time></trkpt><trkpt lat="43.0425958" lon="11.4671014"><ele>501.0</ele><time>2026-04-04T12:02:30.92Z</time></trkpt><trkpt lat="43.0425638" lon="11.4672132"><ele>501.0</ele><time>2026-04-04T12:02:31.929Z</time></trkpt><trkpt lat="43.0425305" lon="11.4673267"><ele>501.0</ele><time>2026-04-04T12:02:32.929Z</time></trkpt><trkpt lat="43.0424878" lon="11.467442"><ele>501.0</ele><time>2026-04-04T12:02:33.93Z</time></trkpt><trkpt lat="43.0424383" lon="11.4675665"><ele>501.4</ele><time>2026-04-04T12:02:34.932Z</time></trkpt><trkpt lat="43.0423901" lon="11.4676976"><ele>501.8</ele><time>2026-04-04T12:02:35.925Z</time></trkpt><trkpt lat="43.0423381" lon="11.4678337"><ele>502.19999999999993</ele><time>2026-04-04T12:02:36.926Z</time></trkpt><trkpt lat="43.0422992" lon="11.46798"><ele>502.59999999999997</ele><time>2026-04-04T12:02:37.932Z</time></trkpt><trkpt lat="43.0422654" lon="11.4681293"><ele>503.0</ele><time>2026-04-04T12:02:38.932Z</time></trkpt><trkpt lat="43.0422297" lon="11.4682818"><ele>503.4</ele><time>2026-04-04T12:02:39.926Z</time></trkpt><trkpt lat="43.0421972" lon="11.468435"><ele>503.79999999999995</ele><time>2026-04-04T12:02:40.928Z</time></trkpt><trkpt lat="43.042165" lon="11.468586"><ele>504.2</ele><time>2026-04-04T12:02:41.932Z</time></trkpt><trkpt lat="43.0421359" lon="11.4687273"><ele>504.6</ele><time>2026-04-04T12:02:42.937Z</time></trkpt><trkpt lat="43.042101" lon="11.4688595"><ele>505.0</ele><time>2026-04-04T12:02:43.933Z</time></trkpt><trkpt lat="43.0420582" lon="11.4689728"><ele>505.2</ele><time>2026-04-04T12:02:44.926Z</time></trkpt><trkpt lat="43.0420013" lon="11.469076"><ele>505.4</ele><time>2026-04-04T12:02:45.922Z</time></trkpt><trkpt lat="43.0419288" lon="11.4691536"><ele>505.6</ele><time>2026-04-04T12:02:46.926Z</time></trkpt><trkpt lat="43.0418536" lon="11.4692239"><ele>505.8</ele><time>2026-04-04T12:02:47.921Z</time></trkpt><trkpt lat="43.0417611" lon="11.4692863"><ele>506.0</ele><time>2026-04-04T12:02:48.92Z</time></trkpt><trkpt lat="43.0416693" lon="11.4693307"><ele>507.20000000000005</ele><time>2026-04-04T12:02:49.926Z</time></trkpt><trkpt lat="43.0415731" lon="11.4693843"><ele>508.40000000000003</ele><time>2026-04-04T12:02:50.929Z</time></trkpt><trkpt lat="43.0414745" lon="11.4694315"><ele>509.6</ele><time>2026-04-04T12:02:51.921Z</time></trkpt><trkpt lat="43.0413842" lon="11.4694845"><ele>510.8</ele><time>2026-04-04T12:02:52.921Z</time></trkpt><trkpt lat="43.0412974" lon="11.4695426"><ele>512.0</ele><time>2026-04-04T12:02:53.918Z</time></trkpt><trkpt lat="43.0412146" lon="11.4696029"><ele>512.8000000000001</ele><time>2026-04-04T12:02:54.929Z</time></trkpt><trkpt lat="43.0411367" lon="11.469669"><ele>513.6</ele><time>2026-04-04T12:02:55.922Z</time></trkpt><trkpt lat="43.0410582" lon="11.4697391"><ele>514.4000000000001</ele><time>2026-04-04T12:02:56.928Z</time></trkpt><trkpt lat="43.0409851" lon="11.4698123"><ele>515.2</ele><time>2026-04-04T12:02:57.928Z</time></trkpt><trkpt lat="43.0409137" lon="11.4698813"><ele>516.0</ele><time>2026-04-04T12:02:58.926Z</time></trkpt><trkpt lat="43.0408469" lon="11.4699566"><ele>517.0</ele><time>2026-04-04T12:02:59.922Z</time></trkpt><trkpt lat="43.0407772" lon="11.4700324"><ele>518.0</ele><time>2026-04-04T12:03:00.926Z</time></trkpt><trkpt lat="43.0407088" lon="11.4701139"><ele>519.0</ele><time>2026-04-04T12:03:01.927Z</time></trkpt><trkpt lat="43.0406438" lon="11.4702038"><ele>520.0</ele><time>2026-04-04T12:03:02.934Z</time></trkpt><trkpt lat="43.0405801" lon="11.4702961"><ele>521.0</ele><time>2026-04-04T12:03:03.937Z</time></trkpt><trkpt lat="43.0405226" lon="11.4703901"><ele>522.4</ele><time>2026-04-04T12:03:04.929Z</time></trkpt><trkpt lat="43.0404611" lon="11.4704853"><ele>523.8</ele><time>2026-04-04T12:03:05.935Z</time></trkpt><trkpt lat="43.0403941" lon="11.4705705"><ele>525.1999999999999</ele><time>2026-04-04T12:03:06.937Z</time></trkpt><trkpt lat="43.0403161" lon="11.4706469"><ele>526.6</ele><time>2026-04-04T12:03:07.928Z</time></trkpt><trkpt lat="43.0402336" lon="11.4706961"><ele>528.0</ele><time>2026-04-04T12:03:08.925Z</time></trkpt><trkpt lat="43.0401295" lon="11.470721"><ele>528.0</ele><time>2026-04-04T12:03:09.923Z</time></trkpt><trkpt lat="43.0400245" lon="11.4707463"><ele>528.0</ele><time>2026-04-04T12:03:10.938Z</time></trkpt><trkpt lat="43.0399238" lon="11.4707846"><ele>528.0</ele><time>2026-04-04T12:03:11.938Z</time></trkpt><trkpt lat="43.0398285" lon="11.4708441"><ele>528.0</ele><time>2026-04-04T12:03:12.928Z</time></trkpt><trkpt lat="43.0397273" lon="11.4708961"><ele>528.0</ele><time>2026-04-04T12:03:13.93Z</time></trkpt><trkpt lat="43.0396242" lon="11.4709526"><ele>529.0</ele><time>2026-04-04T12:03:14.939Z</time></trkpt><trkpt lat="43.0395184" lon="11.4710105"><ele>530.0</ele><time>2026-04-04T12:03:15.93Z</time></trkpt><trkpt lat="43.0394182" lon="11.4710691"><ele>531.0</ele><time>2026-04-04T12:03:16.923Z</time></trkpt><trkpt lat="43.0393134" lon="11.4711263"><ele>532.0</ele><time>2026-04-04T12:03:17.93Z</time></trkpt><trkpt lat="43.0392092" lon="11.4711941"><ele>532.25</ele><time>2026-04-04T12:03:18.945Z</time></trkpt><trkpt lat="43.03911" lon="11.4712678"><ele>532.5</ele><time>2026-04-04T12:03:19.936Z</time></trkpt><trkpt lat="43.0390229" lon="11.4713672"><ele>532.75</ele><time>2026-04-04T12:03:20.932Z</time></trkpt><trkpt lat="43.0389406" lon="11.4714752"><ele>533.0</ele><time>2026-04-04T12:03:21.932Z</time></trkpt><trkpt lat="43.0388597" lon="11.4715935"><ele>533.0</ele><time>2026-04-04T12:03:22.929Z</time></trkpt><trkpt lat="43.0387942" lon="11.4717199"><ele>533.0</ele><time>2026-04-04T12:03:23.923Z</time></trkpt><trkpt lat="43.038737" lon="11.4718629"><ele>533.0</ele><time>2026-04-04T12:03:24.933Z</time></trkpt><trkpt lat="43.0386944" lon="11.4720108"><ele>533.0</ele><time>2026-04-04T12:03:25.929Z</time></trkpt><trkpt lat="43.0386686" lon="11.4721724"><ele>536.75</ele><time>2026-04-04T12:03:26.933Z</time></trkpt><trkpt lat="43.0386627" lon="11.4723318"><ele>540.5</ele><time>2026-04-04T12:03:27.931Z</time></trkpt><trkpt lat="43.0386697" lon="11.4724928"><ele>544.25</ele><time>2026-04-04T12:03:28.936Z</time></trkpt><trkpt lat="43.0386818" lon="11.4726579"><ele>548.0</ele><time>2026-04-04T12:03:29.934Z</time></trkpt><trkpt lat="43.0387011" lon="11.4728177"><ele>551.0</ele><time>2026-04-04T12:03:30.927Z</time></trkpt><trkpt lat="43.0387186" lon="11.4729761"><ele>554.0</ele><time>2026-04-04T12:03:31.927Z</time></trkpt><trkpt lat="43.0387274" lon="11.4731383"><ele>557.0</ele><time>2026-04-04T12:03:32.927Z</time></trkpt><trkpt lat="43.0387232" lon="11.4732925"><ele>560.0</ele><time>2026-04-04T12:03:33.932Z</time></trkpt><trkpt lat="43.0386963" lon="11.4734518"><ele>560.0</ele><time>2026-04-04T12:03:34.927Z</time></trkpt><trkpt lat="43.0386459" lon="11.4735868"><ele>560.0</ele><time>2026-04-04T12:03:35.94Z</time></trkpt><trkpt lat="43.038566" lon="11.4737059"><ele>560.0</ele><time>2026-04-04T12:03:36.927Z</time></trkpt><trkpt lat="43.0384683" lon="11.4737986"><ele>560.0</ele><time>2026-04-04T12:03:37.918Z</time></trkpt><trkpt lat="43.0383586" lon="11.4738737"><ele>562.25</ele><time>2026-04-04T12:03:38.924Z</time></trkpt><trkpt lat="43.0382518" lon="11.4739337"><ele>564.5</ele><time>2026-04-04T12:03:39.933Z</time></trkpt><trkpt lat="43.0381382" lon="11.4740012"><ele>566.75</ele><time>2026-04-04T12:03:40.932Z</time></trkpt><trkpt lat="43.0380282" lon="11.4740662"><ele>569.0</ele><time>2026-04-04T12:03:41.926Z</time></trkpt><trkpt lat="43.037918" lon="11.4741248"><ele>569.0</ele><time>2026-04-04T12:03:42.929Z</time></trkpt><trkpt lat="43.0378192" lon="11.4742098"><ele>569.0</ele><time>2026-04-04T12:03:43.931Z</time></trkpt><trkpt lat="43.0377488" lon="11.4743222"><ele>569.0</ele><time>2026-04-04T12:03:44.923Z</time></trkpt><trkpt lat="43.0377041" lon="11.4744721"><ele>569.0</ele><time>2026-04-04T12:03:45.922Z</time></trkpt><trkpt lat="43.0376826" lon="11.4746482"><ele>572.0</ele><time>2026-04-04T12:03:46.918Z</time></trkpt><trkpt lat="43.0376828" lon="11.4748198"><ele>575.0</ele><time>2026-04-04T12:03:47.924Z</time></trkpt><trkpt lat="43.0376892" lon="11.4749973"><ele>578.0</ele><time>2026-04-04T12:03:48.918Z</time></trkpt><trkpt lat="43.0376986" lon="11.4751786"><ele>581.0</ele><time>2026-04-04T12:03:49.932Z</time></trkpt><trkpt lat="43.0377093" lon="11.4753629"><ele>583.0</ele><time>2026-04-04T12:03:50.932Z</time></trkpt><trkpt lat="43.0377137" lon="11.4755475"><ele>585.0</ele><time>2026-04-04T12:03:51.944Z</time></trkpt><trkpt lat="43.0377227" lon="11.4757315"><ele>587.0</ele><time>2026-04-04T12:03:52.925Z</time></trkpt><trkpt lat="43.0377318" lon="11.4759246"><ele>589.0</ele><time>2026-04-04T12:03:53.937Z</time></trkpt><trkpt lat="43.0377392" lon="11.4761196"><ele>589.75</ele><time>2026-04-04T12:03:54.931Z</time></trkpt><trkpt lat="43.0377429" lon="11.4763047"><ele>590.5</ele><time>2026-04-04T12:03:55.928Z</time></trkpt><trkpt lat="43.0377461" lon="11.4764836"><ele>591.25</ele><time>2026-04-04T12:03:56.929Z</time></trkpt><trkpt lat="43.0377518" lon="11.4766614"><ele>592.0</ele><time>2026-04-04T12:03:57.928Z</time></trkpt><trkpt lat="43.0377614" lon="11.4768333"><ele>592.0</ele><time>2026-04-04T12:03:58.963Z</time></trkpt><trkpt lat="43.03777" lon="11.4770126"><ele>592.0</ele><time>2026-04-04T12:03:59.935Z</time></trkpt><trkpt lat="43.0377788" lon="11.4771908"><ele>592.0</ele><time>2026-04-04T12:04:00.929Z</time></trkpt><trkpt lat="43.0377813" lon="11.4773773"><ele>592.0</ele><time>2026-04-04T12:04:01.926Z</time></trkpt><trkpt lat="43.0377656" lon="11.4775569"><ele>593.5</ele><time>2026-04-04T12:04:02.938Z</time></trkpt><trkpt lat="43.0377391" lon="11.4777343"><ele>595.0</ele><time>2026-04-04T12:04:03.928Z</time></trkpt><trkpt lat="43.0377056" lon="11.4779193"><ele>596.5</ele><time>2026-04-04T12:04:04.937Z</time></trkpt><trkpt lat="43.0376722" lon="11.4781039"><ele>598.0</ele><time>2026-04-04T12:04:05.926Z</time></trkpt><trkpt lat="43.0376388" lon="11.4782827"><ele>598.0</ele><time>2026-04-04T12:04:06.946Z</time></trkpt><trkpt lat="43.0375882" lon="11.4784498"><ele>598.0</ele><time>2026-04-04T12:04:07.934Z</time></trkpt><trkpt lat="43.0375153" lon="11.4785961"><ele>598.0</ele><time>2026-04-04T12:04:08.93Z</time></trkpt><trkpt lat="43.0374294" lon="11.4787329"><ele>598.0</ele><time>2026-04-04T12:04:09.932Z</time></trkpt><trkpt lat="43.0373379" lon="11.4788711"><ele>598.25</ele><time>2026-04-04T12:04:10.932Z</time></trkpt><trkpt lat="43.0372467" lon="11.479013"><ele>598.5</ele><time>2026-04-04T12:04:11.932Z</time></trkpt><trkpt lat="43.0371652" lon="11.4791514"><ele>598.75</ele><time>2026-04-04T12:04:12.927Z</time></trkpt><trkpt lat="43.0370749" lon="11.47929"><ele>599.0</ele><time>2026-04-04T12:04:13.928Z</time></trkpt><trkpt lat="43.0369971" lon="11.4794107"><ele>599.0</ele><time>2026-04-04T12:04:14.931Z</time></trkpt><trkpt lat="43.0369272" lon="11.4795127"><ele>599.0</ele><time>2026-04-04T12:04:15.925Z</time></trkpt><trkpt lat="43.0368758" lon="11.4795897"><ele>599.0</ele><time>2026-04-04T12:04:16.926Z</time></trkpt><trkpt lat="43.0368326" lon="11.4796754"><ele>599.0</ele><time>2026-04-04T12:04:18.933Z</time></trkpt><trkpt lat="43.0368386" lon="11.4797799"><ele>599.0</ele><time>2026-04-04T12:04:21.925Z</time></trkpt><trkpt lat="43.0369195" lon="11.4798651"><ele>599.0</ele><time>2026-04-04T12:04:23.926Z</time></trkpt><trkpt lat="43.0369776" lon="11.4799101"><ele>599.4</ele><time>2026-04-04T12:04:24.923Z</time></trkpt><trkpt lat="43.0370435" lon="11.4799499"><ele>599.8</ele><time>2026-04-04T12:04:25.935Z</time></trkpt><trkpt lat="43.037113" lon="11.4800085"><ele>600.2</ele><time>2026-04-04T12:04:26.933Z</time></trkpt><trkpt lat="43.0371906" lon="11.4800772"><ele>600.6</ele><time>2026-04-04T12:04:27.954Z</time></trkpt><trkpt lat="43.0372802" lon="11.4801508"><ele>601.0</ele><time>2026-04-04T12:04:28.933Z</time></trkpt><trkpt lat="43.0373755" lon="11.480236"><ele>599.5</ele><time>2026-04-04T12:04:29.924Z</time></trkpt><trkpt lat="43.0374724" lon="11.4803225"><ele>598.0</ele><time>2026-04-04T12:04:30.94Z</time></trkpt><trkpt lat="43.0375682" lon="11.4804127"><ele>596.5</ele><time>2026-04-04T12:04:31.942Z</time></trkpt><trkpt lat="43.0376577" lon="11.4804971"><ele>595.0</ele><time>2026-04-04T12:04:32.926Z</time></trkpt><trkpt lat="43.0377509" lon="11.4805832"><ele>594.25</ele><time>2026-04-04T12:04:33.931Z</time></trkpt><trkpt lat="43.0378451" lon="11.4806617"><ele>593.5</ele><time>2026-04-04T12:04:34.929Z</time></trkpt><trkpt lat="43.0379437" lon="11.4807404"><ele>592.75</ele><time>2026-04-04T12:04:35.936Z</time></trkpt><trkpt lat="43.0380384" lon="11.4808231"><ele>592.0</ele><time>2026-04-04T12:04:36.928Z</time></trkpt><trkpt lat="43.0381345" lon="11.4809099"><ele>592.0</ele><time>2026-04-04T12:04:37.928Z</time></trkpt><trkpt lat="43.0382335" lon="11.4809965"><ele>592.0</ele><time>2026-04-04T12:04:38.925Z</time></trkpt><trkpt lat="43.0383344" lon="11.4810807"><ele>592.0</ele><time>2026-04-04T12:04:39.928Z</time></trkpt><trkpt lat="43.0384354" lon="11.4811674"><ele>592.0</ele><time>2026-04-04T12:04:40.935Z</time></trkpt><trkpt lat="43.0385361" lon="11.4812553"><ele>591.25</ele><time>2026-04-04T12:04:41.936Z</time></trkpt><trkpt lat="43.0386359" lon="11.4813451"><ele>590.5</ele><time>2026-04-04T12:04:42.92Z</time></trkpt><trkpt lat="43.0387373" lon="11.481429"><ele>589.75</ele><time>2026-04-04T12:04:43.922Z</time></trkpt><trkpt lat="43.0388384" lon="11.4815198"><ele>589.0</ele><time>2026-04-04T12:04:44.929Z</time></trkpt><trkpt lat="43.0389406" lon="11.4816126"><ele>589.0</ele><time>2026-04-04T12:04:45.925Z</time></trkpt><trkpt lat="43.0390457" lon="11.4816999"><ele>589.0</ele><time>2026-04-04T12:04:46.929Z</time></trkpt><trkpt lat="43.0391508" lon="11.4817916"><ele>589.0</ele><time>2026-04-04T12:04:47.933Z</time></trkpt><trkpt lat="43.0392566" lon="11.4818873"><ele>589.0</ele><time>2026-04-04T12:04:48.922Z</time></trkpt><trkpt lat="43.039363" lon="11.4819838"><ele>590.75</ele><time>2026-04-04T12:04:49.931Z</time></trkpt><trkpt lat="43.039471" lon="11.4820824"><ele>592.5</ele><time>2026-04-04T12:04:50.944Z</time></trkpt><trkpt lat="43.039583" lon="11.4821822"><ele>594.25</ele><time>2026-04-04T12:04:51.932Z</time></trkpt><trkpt lat="43.0396969" lon="11.4822862"><ele>596.0</ele><time>2026-04-04T12:04:52.927Z</time></trkpt><trkpt lat="43.0398083" lon="11.4823814"><ele>598.25</ele><time>2026-04-04T12:04:53.927Z</time></trkpt><trkpt lat="43.039922" lon="11.4824859"><ele>600.5</ele><time>2026-04-04T12:04:54.924Z</time></trkpt><trkpt lat="43.0400362" lon="11.4825809"><ele>602.75</ele><time>2026-04-04T12:04:55.93Z</time></trkpt><trkpt lat="43.0401579" lon="11.4826626"><ele>605.0</ele><time>2026-04-04T12:04:56.928Z</time></trkpt><trkpt lat="43.0402821" lon="11.4827449"><ele>606.25</ele><time>2026-04-04T12:04:57.936Z</time></trkpt><trkpt lat="43.0404136" lon="11.4828095"><ele>607.5</ele><time>2026-04-04T12:04:58.929Z</time></trkpt><trkpt lat="43.040549" lon="11.4828641"><ele>608.75</ele><time>2026-04-04T12:04:59.927Z</time></trkpt><trkpt lat="43.0406905" lon="11.4829138"><ele>610.0</ele><time>2026-04-04T12:05:00.922Z</time></trkpt><trkpt lat="43.0408285" lon="11.4829587"><ele>612.0</ele><time>2026-04-04T12:05:01.927Z</time></trkpt><trkpt lat="43.0409727" lon="11.4830034"><ele>614.0</ele><time>2026-04-04T12:05:02.927Z</time></trkpt><trkpt lat="43.0411141" lon="11.4830483"><ele>616.0</ele><time>2026-04-04T12:05:03.925Z</time></trkpt><trkpt lat="43.0412545" lon="11.4830926"><ele>618.0</ele><time>2026-04-04T12:05:04.934Z</time></trkpt><trkpt lat="43.0413919" lon="11.4831369"><ele>618.0</ele><time>2026-04-04T12:05:05.931Z</time></trkpt><trkpt lat="43.0415293" lon="11.4831834"><ele>618.0</ele><time>2026-04-04T12:05:06.93Z</time></trkpt><trkpt lat="43.0416664" lon="11.4832254"><ele>618.0</ele><time>2026-04-04T12:05:07.93Z</time></trkpt><trkpt lat="43.0418026" lon="11.4832677"><ele>618.0</ele><time>2026-04-04T12:05:08.929Z</time></trkpt><trkpt lat="43.0419366" lon="11.4833019"><ele>616.5</ele><time>2026-04-04T12:05:09.924Z</time></trkpt><trkpt lat="43.0420633" lon="11.4833364"><ele>615.0</ele><time>2026-04-04T12:05:10.933Z</time></trkpt><trkpt lat="43.042188" lon="11.4833743"><ele>613.5</ele><time>2026-04-04T12:05:11.928Z</time></trkpt><trkpt lat="43.0423128" lon="11.4834103"><ele>612.0</ele><time>2026-04-04T12:05:12.937Z</time></trkpt><trkpt lat="43.0424403" lon="11.4834424"><ele>612.25</ele><time>2026-04-04T12:05:13.923Z</time></trkpt><trkpt lat="43.0425639" lon="11.4834755"><ele>612.5</ele><time>2026-04-04T12:05:14.926Z</time></trkpt><trkpt lat="43.0426819" lon="11.4835101"><ele>612.75</ele><time>2026-04-04T12:05:15.932Z</time></trkpt><trkpt lat="43.0428024" lon="11.4835456"><ele>613.0</ele><time>2026-04-04T12:05:16.934Z</time></trkpt><trkpt lat="43.0429254" lon="11.4835818"><ele>613.0</ele><time>2026-04-04T12:05:17.926Z</time></trkpt><trkpt lat="43.0430494" lon="11.4836193"><ele>613.0</ele><time>2026-04-04T12:05:18.938Z</time></trkpt><trkpt lat="43.0431776" lon="11.4836579"><ele>613.0</ele><time>2026-04-04T12:05:19.927Z</time></trkpt><trkpt lat="43.0433091" lon="11.4836998"><ele>613.0</ele><time>2026-04-04T12:05:20.93Z</time></trkpt><trkpt lat="43.04344" lon="11.4837531"><ele>612.5</ele><time>2026-04-04T12:05:21.927Z</time></trkpt><trkpt lat="43.043565" lon="11.4838104"><ele>612.0</ele><time>2026-04-04T12:05:22.938Z</time></trkpt><trkpt lat="43.0436901" lon="11.483888"><ele>611.5</ele><time>2026-04-04T12:05:23.937Z</time></trkpt><trkpt lat="43.0438052" lon="11.4839823"><ele>611.0</ele><time>2026-04-04T12:05:24.928Z</time></trkpt><trkpt lat="43.043915" lon="11.4840822"><ele>611.0</ele><time>2026-04-04T12:05:25.929Z</time></trkpt><trkpt lat="43.0440257" lon="11.4841889"><ele>611.0</ele><time>2026-04-04T12:05:26.927Z</time></trkpt><trkpt lat="43.0441347" lon="11.4843008"><ele>611.0</ele><time>2026-04-04T12:05:27.93Z</time></trkpt><trkpt lat="43.044245" lon="11.4844065"><ele>611.0</ele><time>2026-04-04T12:05:28.925Z</time></trkpt><trkpt lat="43.0443434" lon="11.4845205"><ele>611.25</ele><time>2026-04-04T12:05:29.927Z</time></trkpt><trkpt lat="43.0444341" lon="11.4846481"><ele>611.5</ele><time>2026-04-04T12:05:30.929Z</time></trkpt><trkpt lat="43.0445022" lon="11.4847898"><ele>611.75</ele><time>2026-04-04T12:05:31.929Z</time></trkpt><trkpt lat="43.0445549" lon="11.4849509"><ele>612.0</ele><time>2026-04-04T12:05:32.931Z</time></trkpt><trkpt lat="43.0446024" lon="11.4851187"><ele>612.0</ele><time>2026-04-04T12:05:33.932Z</time></trkpt><trkpt lat="43.0446524" lon="11.4852902"><ele>612.0</ele><time>2026-04-04T12:05:34.935Z</time></trkpt><trkpt lat="43.0447013" lon="11.4854627"><ele>612.0</ele><time>2026-04-04T12:05:35.926Z</time></trkpt><trkpt lat="43.0447534" lon="11.4856403"><ele>612.0</ele><time>2026-04-04T12:05:36.939Z</time></trkpt><trkpt lat="43.0448028" lon="11.4858131"><ele>612.5</ele><time>2026-04-04T12:05:37.939Z</time></trkpt><trkpt lat="43.0448538" lon="11.4859882"><ele>613.0</ele><time>2026-04-04T12:05:38.934Z</time></trkpt><trkpt lat="43.044899" lon="11.4861447"><ele>613.5</ele><time>2026-04-04T12:05:39.947Z</time></trkpt><trkpt lat="43.0449424" lon="11.4863039"><ele>614.0</ele><time>2026-04-04T12:05:40.929Z</time></trkpt><trkpt lat="43.0449845" lon="11.4864525"><ele>614.2</ele><time>2026-04-04T12:05:41.939Z</time></trkpt><trkpt lat="43.0450263" lon="11.4865969"><ele>614.4</ele><time>2026-04-04T12:05:42.934Z</time></trkpt><trkpt lat="43.0450683" lon="11.4867337"><ele>614.6</ele><time>2026-04-04T12:05:43.925Z</time></trkpt><trkpt lat="43.0451342" lon="11.4868583"><ele>614.8</ele><time>2026-04-04T12:05:44.939Z</time></trkpt><trkpt lat="43.0452158" lon="11.4869518"><ele>615.0</ele><time>2026-04-04T12:05:45.93Z</time></trkpt><trkpt lat="43.0453195" lon="11.4870172"><ele>615.0</ele><time>2026-04-04T12:05:46.935Z</time></trkpt><trkpt lat="43.0454302" lon="11.4870477"><ele>615.0</ele><time>2026-04-04T12:05:47.929Z</time></trkpt><trkpt lat="43.0455403" lon="11.4870598"><ele>615.0</ele><time>2026-04-04T12:05:48.916Z</time></trkpt><trkpt lat="43.0456531" lon="11.4870618"><ele>615.0</ele><time>2026-04-04T12:05:49.933Z</time></trkpt><trkpt lat="43.0457628" lon="11.4870764"><ele>615.0</ele><time>2026-04-04T12:05:50.929Z</time></trkpt><trkpt lat="43.0458614" lon="11.4871183"><ele>614.6</ele><time>2026-04-04T12:05:51.937Z</time></trkpt><trkpt lat="43.045946" lon="11.4871911"><ele>614.2</ele><time>2026-04-04T12:05:52.923Z</time></trkpt><trkpt lat="43.0460184" lon="11.4872975"><ele>613.8</ele><time>2026-04-04T12:05:53.924Z</time></trkpt><trkpt lat="43.0460771" lon="11.4874165"><ele>613.4</ele><time>2026-04-04T12:05:54.923Z</time></trkpt><trkpt lat="43.0461322" lon="11.4875367"><ele>613.0</ele><time>2026-04-04T12:05:55.93Z</time></trkpt><trkpt lat="43.046181" lon="11.4876617"><ele>613.0</ele><time>2026-04-04T12:05:56.93Z</time></trkpt><trkpt lat="43.0462244" lon="11.487806"><ele>613.0</ele><time>2026-04-04T12:05:57.924Z</time></trkpt><trkpt lat="43.0462567" lon="11.4879385"><ele>613.0</ele><time>2026-04-04T12:05:58.926Z</time></trkpt><trkpt lat="43.0462774" lon="11.4880536"><ele>613.0</ele><time>2026-04-04T12:05:59.932Z</time></trkpt><trkpt lat="43.0462902" lon="11.4881849"><ele>613.0</ele><time>2026-04-04T12:06:01.924Z</time></trkpt><trkpt lat="43.0463042" lon="11.4882805"><ele>610.8</ele><time>2026-04-04T12:07:49.927Z</time></trkpt><trkpt lat="43.0463322" lon="11.4883715"><ele>608.5999999999999</ele><time>2026-04-04T12:07:51.925Z</time></trkpt><trkpt lat="43.0463714" lon="11.4885272"><ele>606.4000000000001</ele><time>2026-04-04T12:07:53.935Z</time></trkpt><trkpt lat="43.0463909" lon="11.4886251"><ele>604.2</ele><time>2026-04-04T12:07:54.931Z</time></trkpt><trkpt lat="43.0464175" lon="11.488748"><ele>602.0</ele><time>2026-04-04T12:07:55.927Z</time></trkpt><trkpt lat="43.0464409" lon="11.4888811"><ele>600.0</ele><time>2026-04-04T12:07:56.928Z</time></trkpt><trkpt lat="43.0464814" lon="11.4890313"><ele>598.0</ele><time>2026-04-04T12:07:57.934Z</time></trkpt><trkpt lat="43.046532" lon="11.4891785"><ele>596.0</ele><time>2026-04-04T12:07:58.931Z</time></trkpt><trkpt lat="43.0466043" lon="11.4892996"><ele>594.0</ele><time>2026-04-04T12:07:59.932Z</time></trkpt><trkpt lat="43.0466971" lon="11.4894009"><ele>599.25</ele><time>2026-04-04T12:08:00.936Z</time></trkpt><trkpt lat="43.0468118" lon="11.4894785"><ele>604.5</ele><time>2026-04-04T12:08:01.936Z</time></trkpt><trkpt lat="43.0469351" lon="11.4895188"><ele>609.75</ele><time>2026-04-04T12:08:02.939Z</time></trkpt><trkpt lat="43.0470556" lon="11.4895336"><ele>615.0</ele><time>2026-04-04T12:08:03.932Z</time></trkpt><trkpt lat="43.0471734" lon="11.4895415"><ele>615.0</ele><time>2026-04-04T12:08:04.931Z</time></trkpt><trkpt lat="43.0472914" lon="11.489561"><ele>615.0</ele><time>2026-04-04T12:08:05.93Z</time></trkpt><trkpt lat="43.0474007" lon="11.4896187"><ele>615.0</ele><time>2026-04-04T12:08:06.936Z</time></trkpt><trkpt lat="43.0475007" lon="11.4897075"><ele>615.0</ele><time>2026-04-04T12:08:07.975Z</time></trkpt><trkpt lat="43.0475908" lon="11.4898031"><ele>612.0</ele><time>2026-04-04T12:08:08.936Z</time></trkpt><trkpt lat="43.0476783" lon="11.4899026"><ele>609.0</ele><time>2026-04-04T12:08:09.935Z</time></trkpt><trkpt lat="43.047769" lon="11.4899904"><ele>606.0</ele><time>2026-04-04T12:08:10.936Z</time></trkpt><trkpt lat="43.0478702" lon="11.490057"><ele>603.0</ele><time>2026-04-04T12:08:11.929Z</time></trkpt><trkpt lat="43.0479891" lon="11.4900782"><ele>603.0</ele><time>2026-04-04T12:08:12.952Z</time></trkpt><trkpt lat="43.0480967" lon="11.4900678"><ele>603.0</ele><time>2026-04-04T12:08:13.926Z</time></trkpt><trkpt lat="43.04821" lon="11.4900376"><ele>603.0</ele><time>2026-04-04T12:08:14.924Z</time></trkpt><trkpt lat="43.0483256" lon="11.4900029"><ele>603.0</ele><time>2026-04-04T12:08:15.929Z</time></trkpt><trkpt lat="43.0484381" lon="11.4899708"><ele>603.0</ele><time>2026-04-04T12:08:16.928Z</time></trkpt><trkpt lat="43.0485459" lon="11.4899473"><ele>603.0</ele><time>2026-04-04T12:08:17.929Z</time></trkpt><trkpt lat="43.0486496" lon="11.489945"><ele>603.0</ele><time>2026-04-04T12:08:18.926Z</time></trkpt><trkpt lat="43.0487454" lon="11.4899828"><ele>603.0</ele><time>2026-04-04T12:08:19.923Z</time></trkpt><trkpt lat="43.0488249" lon="11.4900705"><ele>603.0</ele><time>2026-04-04T12:08:20.919Z</time></trkpt><trkpt lat="43.0488856" lon="11.4901875"><ele>603.0</ele><time>2026-04-04T12:08:21.922Z</time></trkpt><trkpt lat="43.0489373" lon="11.490322"><ele>603.0</ele><time>2026-04-04T12:08:22.925Z</time></trkpt><trkpt lat="43.0489765" lon="11.4904635"><ele>603.0</ele><time>2026-04-04T12:08:23.923Z</time></trkpt><trkpt lat="43.0490078" lon="11.4906078"><ele>603.0</ele><time>2026-04-04T12:08:24.96Z</time></trkpt><trkpt lat="43.0490422" lon="11.4907523"><ele>603.0</ele><time>2026-04-04T12:08:25.927Z</time></trkpt><trkpt lat="43.049094" lon="11.4908852"><ele>601.4</ele><time>2026-04-04T12:08:26.931Z</time></trkpt><trkpt lat="43.049165" lon="11.4909841"><ele>599.8</ele><time>2026-04-04T12:08:27.919Z</time></trkpt><trkpt lat="43.0492538" lon="11.4910241"><ele>598.2</ele><time>2026-04-04T12:08:28.927Z</time></trkpt><trkpt lat="43.049358" lon="11.4910317"><ele>596.6</ele><time>2026-04-04T12:08:29.92Z</time></trkpt><trkpt lat="43.0494728" lon="11.4910127"><ele>595.0</ele><time>2026-04-04T12:08:30.925Z</time></trkpt><trkpt lat="43.0495839" lon="11.4909796"><ele>595.0</ele><time>2026-04-04T12:08:31.917Z</time></trkpt><trkpt lat="43.0497028" lon="11.4909681"><ele>595.0</ele><time>2026-04-04T12:08:32.932Z</time></trkpt><trkpt lat="43.0498231" lon="11.4909758"><ele>595.0</ele><time>2026-04-04T12:08:33.927Z</time></trkpt><trkpt lat="43.0499434" lon="11.490997"><ele>595.0</ele><time>2026-04-04T12:08:34.929Z</time></trkpt><trkpt lat="43.0500472" lon="11.4909975"><ele>595.4</ele><time>2026-04-04T12:08:35.925Z</time></trkpt><trkpt lat="43.0501501" lon="11.4909523"><ele>595.8</ele><time>2026-04-04T12:08:36.93Z</time></trkpt><trkpt lat="43.0502419" lon="11.4908785"><ele>596.2</ele><time>2026-04-04T12:08:37.929Z</time></trkpt><trkpt lat="43.0503067" lon="11.4907657"><ele>596.6</ele><time>2026-04-04T12:08:38.928Z</time></trkpt><trkpt lat="43.0503748" lon="11.490641"><ele>597.0</ele><time>2026-04-04T12:08:39.925Z</time></trkpt><trkpt lat="43.0504391" lon="11.4904966"><ele>600.5</ele><time>2026-04-04T12:08:40.934Z</time></trkpt><trkpt lat="43.0505073" lon="11.4903517"><ele>604.0</ele><time>2026-04-04T12:08:41.97Z</time></trkpt><trkpt lat="43.050572" lon="11.4902077"><ele>607.5</ele><time>2026-04-04T12:08:42.933Z</time></trkpt><trkpt lat="43.0506396" lon="11.4900637"><ele>611.0</ele><time>2026-04-04T12:08:43.932Z</time></trkpt><trkpt lat="43.0507133" lon="11.4899152"><ele>611.0</ele><time>2026-04-04T12:08:44.927Z</time></trkpt><trkpt lat="43.050784" lon="11.4897845"><ele>611.0</ele><time>2026-04-04T12:08:45.936Z</time></trkpt><trkpt lat="43.0508445" lon="11.489656"><ele>611.0</ele><time>2026-04-04T12:08:46.933Z</time></trkpt><trkpt lat="43.0509228" lon="11.4895608"><ele>611.0</ele><time>2026-04-04T12:08:47.939Z</time></trkpt><trkpt lat="43.0510229" lon="11.4895145"><ele>611.0</ele><time>2026-04-04T12:08:48.936Z</time></trkpt><trkpt lat="43.0511231" lon="11.4895162"><ele>609.2</ele><time>2026-04-04T12:08:49.924Z</time></trkpt><trkpt lat="43.0512156" lon="11.4895773"><ele>607.4000000000001</ele><time>2026-04-04T12:08:50.933Z</time></trkpt><trkpt lat="43.0512843" lon="11.4896656"><ele>605.6</ele><time>2026-04-04T12:08:51.928Z</time></trkpt><trkpt lat="43.0513433" lon="11.489783"><ele>603.8000000000001</ele><time>2026-04-04T12:08:52.93Z</time></trkpt><trkpt lat="43.0513931" lon="11.4899255"><ele>602.0</ele><time>2026-04-04T12:08:53.931Z</time></trkpt><trkpt lat="43.0514462" lon="11.4900565"><ele>598.75</ele><time>2026-04-04T12:08:54.929Z</time></trkpt><trkpt lat="43.051505" lon="11.4901911"><ele>595.5</ele><time>2026-04-04T12:08:55.94Z</time></trkpt><trkpt lat="43.0515628" lon="11.4903325"><ele>592.25</ele><time>2026-04-04T12:08:56.929Z</time></trkpt><trkpt lat="43.0516296" lon="11.4904669"><ele>589.0</ele><time>2026-04-04T12:08:57.927Z</time></trkpt><trkpt lat="43.0517021" lon="11.4905901"><ele>585.0</ele><time>2026-04-04T12:08:58.915Z</time></trkpt><trkpt lat="43.0517924" lon="11.4906972"><ele>581.0</ele><time>2026-04-04T12:08:59.919Z</time></trkpt><trkpt lat="43.0518992" lon="11.4907956"><ele>577.0</ele><time>2026-04-04T12:09:00.934Z</time></trkpt><trkpt lat="43.0519975" lon="11.4908834"><ele>573.0</ele><time>2026-04-04T12:09:01.931Z</time></trkpt><trkpt lat="43.0520962" lon="11.4909527"><ele>573.0</ele><time>2026-04-04T12:09:02.922Z</time></trkpt><trkpt lat="43.0522071" lon="11.4909888"><ele>573.0</ele><time>2026-04-04T12:09:03.929Z</time></trkpt><trkpt lat="43.0523195" lon="11.4909925"><ele>573.0</ele><time>2026-04-04T12:09:04.923Z</time></trkpt><trkpt lat="43.0524303" lon="11.4909694"><ele>573.0</ele><time>2026-04-04T12:09:05.945Z</time></trkpt><trkpt lat="43.0525335" lon="11.4909204"><ele>573.0</ele><time>2026-04-04T12:09:06.931Z</time></trkpt><trkpt lat="43.0526354" lon="11.490863"><ele>573.8</ele><time>2026-04-04T12:09:07.933Z</time></trkpt><trkpt lat="43.0527368" lon="11.4908074"><ele>574.5999999999999</ele><time>2026-04-04T12:09:08.933Z</time></trkpt><trkpt lat="43.0528297" lon="11.4907454"><ele>575.4000000000001</ele><time>2026-04-04T12:09:09.928Z</time></trkpt><trkpt lat="43.0529207" lon="11.4906839"><ele>576.2</ele><time>2026-04-04T12:09:10.954Z</time></trkpt><trkpt lat="43.0530018" lon="11.490597"><ele>577.0</ele><time>2026-04-04T12:09:11.926Z</time></trkpt><trkpt lat="43.0530794" lon="11.4904984"><ele>579.8000000000001</ele><time>2026-04-04T12:09:12.931Z</time></trkpt><trkpt lat="43.0531341" lon="11.4903582"><ele>582.6</ele><time>2026-04-04T12:09:13.923Z</time></trkpt><trkpt lat="43.0531709" lon="11.4902129"><ele>585.4000000000001</ele><time>2026-04-04T12:09:14.926Z</time></trkpt><trkpt lat="43.0532016" lon="11.4900651"><ele>588.2</ele><time>2026-04-04T12:09:15.923Z</time></trkpt><trkpt lat="43.053229" lon="11.489923"><ele>591.0</ele><time>2026-04-04T12:09:16.93Z</time></trkpt><trkpt lat="43.0532546" lon="11.4897762"><ele>591.0</ele><time>2026-04-04T12:09:17.922Z</time></trkpt><trkpt lat="43.0532797" lon="11.4896355"><ele>591.0</ele><time>2026-04-04T12:09:18.934Z</time></trkpt><trkpt lat="43.0533081" lon="11.4894965"><ele>591.0</ele><time>2026-04-04T12:09:19.923Z</time></trkpt><trkpt lat="43.053338" lon="11.4893637"><ele>591.0</ele><time>2026-04-04T12:09:20.928Z</time></trkpt><trkpt lat="43.0533774" lon="11.4892338"><ele>591.0</ele><time>2026-04-04T12:09:21.93Z</time></trkpt><trkpt lat="43.0534312" lon="11.4891086"><ele>586.6</ele><time>2026-04-04T12:09:22.922Z</time></trkpt><trkpt lat="43.0534996" lon="11.4890078"><ele>582.2</ele><time>2026-04-04T12:09:23.93Z</time></trkpt><trkpt lat="43.0535876" lon="11.4889362"><ele>577.8</ele><time>2026-04-04T12:09:24.924Z</time></trkpt><trkpt lat="43.0536781" lon="11.488892"><ele>573.4</ele><time>2026-04-04T12:09:25.928Z</time></trkpt><trkpt lat="43.0537708" lon="11.4888593"><ele>569.0</ele><time>2026-04-04T12:09:26.924Z</time></trkpt><trkpt lat="43.0538631" lon="11.4888249"><ele>569.0</ele><time>2026-04-04T12:09:27.934Z</time></trkpt><trkpt lat="43.0539525" lon="11.4887934"><ele>569.0</ele><time>2026-04-04T12:09:28.933Z</time></trkpt><trkpt lat="43.054045" lon="11.4887668"><ele>569.0</ele><time>2026-04-04T12:09:29.929Z</time></trkpt><trkpt lat="43.05413" lon="11.488741"><ele>569.0</ele><time>2026-04-04T12:09:30.93Z</time></trkpt><trkpt lat="43.0542098" lon="11.4887187"><ele>569.0</ele><time>2026-04-04T12:09:31.932Z</time></trkpt><trkpt lat="43.0542888" lon="11.4887024"><ele>569.0</ele><time>2026-04-04T12:09:32.924Z</time></trkpt><trkpt lat="43.0543662" lon="11.488692"><ele>568.3333333333333</ele><time>2026-04-04T12:09:33.932Z</time></trkpt><trkpt lat="43.0544451" lon="11.488699"><ele>567.6666666666666</ele><time>2026-04-04T12:09:34.928Z</time></trkpt><trkpt lat="43.0545314" lon="11.4887109"><ele>567.0</ele><time>2026-04-04T12:09:35.928Z</time></trkpt><trkpt lat="43.054609" lon="11.4887347"><ele>566.3333333333334</ele><time>2026-04-04T12:09:36.957Z</time></trkpt><trkpt lat="43.0546867" lon="11.4887641"><ele>565.6666666666667</ele><time>2026-04-04T12:09:37.936Z</time></trkpt><trkpt lat="43.0547557" lon="11.4887891"><ele>565.0</ele><time>2026-04-04T12:09:38.927Z</time></trkpt><trkpt lat="43.0548188" lon="11.488838"><ele>563.3333333333334</ele><time>2026-04-04T12:09:39.931Z</time></trkpt><trkpt lat="43.0548804" lon="11.4888831"><ele>561.6666666666667</ele><time>2026-04-04T12:09:40.933Z</time></trkpt><trkpt lat="43.0549326" lon="11.4889342"><ele>560.0</ele><time>2026-04-04T12:09:41.93Z</time></trkpt><trkpt lat="43.0550067" lon="11.4890088"><ele>558.3333333333334</ele><time>2026-04-04T12:09:43.928Z</time></trkpt><trkpt lat="43.0550803" lon="11.4890749"><ele>556.6666666666666</ele><time>2026-04-04T12:09:45.931Z</time></trkpt><trkpt lat="43.0551624" lon="11.4890929"><ele>555.0</ele><time>2026-04-04T12:09:47.931Z</time></trkpt><trkpt lat="43.0552913" lon="11.4890767"><ele>554.6666666666666</ele><time>2026-04-04T12:09:49.928Z</time></trkpt><trkpt lat="43.0553644" lon="11.4890485"><ele>554.3333333333334</ele><time>2026-04-04T12:09:50.924Z</time></trkpt><trkpt lat="43.0554447" lon="11.4890106"><ele>554.0</ele><time>2026-04-04T12:09:51.933Z</time></trkpt><trkpt lat="43.055524" lon="11.4889817"><ele>553.6666666666667</ele><time>2026-04-04T12:09:52.922Z</time></trkpt><trkpt lat="43.0556044" lon="11.488962"><ele>553.3333333333334</ele><time>2026-04-04T12:09:53.929Z</time></trkpt><trkpt lat="43.0556774" lon="11.4889444"><ele>553.0</ele><time>2026-04-04T12:09:54.923Z</time></trkpt><trkpt lat="43.0557433" lon="11.4889566"><ele>552.3333333333334</ele><time>2026-04-04T12:09:55.937Z</time></trkpt><trkpt lat="43.0558147" lon="11.4890258"><ele>551.6666666666667</ele><time>2026-04-04T12:09:57.923Z</time></trkpt><trkpt lat="43.0558665" lon="11.4890966"><ele>551.0</ele><time>2026-04-04T12:09:59.92Z</time></trkpt><trkpt lat="43.0559347" lon="11.4891589"><ele>550.3333333333334</ele><time>2026-04-04T12:10:01.924Z</time></trkpt><trkpt lat="43.056005" lon="11.4892195"><ele>549.6666666666666</ele><time>2026-04-04T12:10:03.923Z</time></trkpt><trkpt lat="43.0560716" lon="11.4892696"><ele>549.0</ele><time>2026-04-04T12:10:05.916Z</time></trkpt><trkpt lat="43.0561428" lon="11.4893259"><ele>549.0</ele><time>2026-04-04T12:10:07.92Z</time></trkpt><trkpt lat="43.0562129" lon="11.4893837"><ele>549.0</ele><time>2026-04-04T12:10:09.931Z</time></trkpt><trkpt lat="43.0562903" lon="11.4894365"><ele>549.0</ele><time>2026-04-04T12:10:11.927Z</time></trkpt><trkpt lat="43.0563536" lon="11.4894329"><ele>549.0</ele><time>2026-04-04T12:10:14.927Z</time></trkpt><trkpt lat="43.0566623" lon="11.4893458"><ele>551.0</ele><time>2026-04-04T12:13:06.442Z</time></trkpt><trkpt lat="43.0566205" lon="11.4897306"><ele>553.0</ele><time>2026-04-04T12:13:24.556Z</time></trkpt><trkpt lat="43.0567111" lon="11.4898922"><ele>555.0</ele><time>2026-04-04T12:13:33.981Z</time></trkpt><trkpt lat="43.0566407" lon="11.4896743"><ele>555.0</ele><time>2026-04-04T12:13:43.001Z</time></trkpt><trkpt lat="43.0567082" lon="11.4896606"><ele>555.0</ele><time>2026-04-04T12:14:59.915Z</time></trkpt><trkpt lat="43.0567971" lon="11.4896352"><ele>555.0</ele><time>2026-04-04T12:16:04.696Z</time></trkpt><trkpt lat="43.0568949" lon="11.4896308"><ele>555.0</ele><time>2026-04-04T12:16:27.349Z</time></trkpt><trkpt lat="43.0570069" lon="11.4895573"><ele>555.0</ele><time>2026-04-04T12:16:40.85Z</time></trkpt><trkpt lat="43.0571222" lon="11.4893805"><ele>555.6666666666666</ele><time>2026-04-04T12:17:27.167Z</time></trkpt><trkpt lat="43.0571845" lon="11.4894256"><ele>556.3333333333333</ele><time>2026-04-04T12:17:36.29Z</time></trkpt><trkpt lat="43.0572562" lon="11.489528"><ele>557.0</ele><time>2026-04-04T12:17:52.874Z</time></trkpt><trkpt lat="43.0574835" lon="11.4893031"><ele>557.0</ele><time>2026-04-04T12:18:42.347Z</time></trkpt><trkpt lat="43.0576906" lon="11.4889882"><ele>557.0</ele><time>2026-04-04T12:19:20.874Z</time></trkpt><trkpt lat="43.0581593" lon="11.4888151"><ele>556.1666666666666</ele><time>2026-04-04T12:20:58.906Z</time></trkpt><trkpt lat="43.0581958" lon="11.488733"><ele>555.3333333333333</ele><time>2026-04-04T12:21:26.925Z</time></trkpt><trkpt lat="43.0582204" lon="11.4885999"><ele>554.5</ele><time>2026-04-04T12:21:47.919Z</time></trkpt><trkpt lat="43.0582563" lon="11.4884619"><ele>553.6666666666666</ele><time>2026-04-04T12:22:12.926Z</time></trkpt><trkpt lat="43.0582723" lon="11.488373"><ele>552.8333333333334</ele><time>2026-04-04T12:22:45.923Z</time></trkpt><trkpt lat="43.058313" lon="11.4883045"><ele>552.0</ele><time>2026-04-04T12:23:14.919Z</time></trkpt><trkpt lat="43.0583525" lon="11.4882324"><ele>553.1428571428571</ele><time>2026-04-04T12:23:26.946Z</time></trkpt><trkpt lat="43.058366" lon="11.4881404"><ele>554.2857142857143</ele><time>2026-04-04T12:23:43.905Z</time></trkpt><trkpt lat="43.0583944" lon="11.4880413"><ele>555.4285714285714</ele><time>2026-04-04T12:23:53.918Z</time></trkpt><trkpt lat="43.0584492" lon="11.4879895"><ele>556.5714285714286</ele><time>2026-04-04T12:24:06.932Z</time></trkpt><trkpt lat="43.0585127" lon="11.4879571"><ele>557.7142857142858</ele><time>2026-04-04T12:24:17.953Z</time></trkpt><trkpt lat="43.0585794" lon="11.4879411"><ele>558.8571428571429</ele><time>2026-04-04T12:24:27.127Z</time></trkpt><trkpt lat="43.058642" lon="11.4879175"><ele>560.0</ele><time>2026-04-04T12:24:35.189Z</time></trkpt><trkpt lat="43.0588299" lon="11.48779"><ele>560.0</ele><time>2026-04-04T12:24:47.124Z</time></trkpt><trkpt lat="43.0592664" lon="11.4883007"><ele>549.0</ele><time>2026-04-04T12:25:44.915Z</time></trkpt><trkpt lat="43.0594466" lon="11.4889679"><ele>549.0</ele><time>2026-04-04T12:25:50.115Z</time></trkpt><trkpt lat="43.0595782" lon="11.4894778"><ele>549.0</ele><time>2026-04-04T12:25:59.056Z</time></trkpt><trkpt lat="43.0589235" lon="11.4886234"><ele>560.0</ele><time>2026-04-04T12:26:12.182Z</time></trkpt><trkpt lat="43.0589588" lon="11.4878678"><ele>560.0</ele><time>2026-04-04T12:26:21.366Z</time></trkpt><trkpt lat="43.0588581" lon="11.48794"><ele>560.0</ele><time>2026-04-04T12:26:28.92Z</time></trkpt><trkpt lat="43.0587927" lon="11.4879068"><ele>560.0</ele><time>2026-04-04T12:31:48.926Z</time></trkpt><trkpt lat="43.0587277" lon="11.4879071"><ele>560.0</ele><time>2026-04-04T12:32:01.912Z</time></trkpt><trkpt lat="43.0586633" lon="11.4879046"><ele>560.0</ele><time>2026-04-04T12:32:14.932Z</time></trkpt><trkpt lat="43.0586" lon="11.4879116"><ele>560.0</ele><time>2026-04-04T12:32:28.935Z</time></trkpt><trkpt lat="43.0585359" lon="11.4879253"><ele>560.0</ele><time>2026-04-04T12:32:40.911Z</time></trkpt><trkpt lat="43.0584821" lon="11.487973"><ele>560.2857142857143</ele><time>2026-04-04T12:32:49.373Z</time></trkpt><trkpt lat="43.0584317" lon="11.4880382"><ele>560.5714285714286</ele><time>2026-04-04T12:32:56.654Z</time></trkpt><trkpt lat="43.0583913" lon="11.4881253"><ele>560.8571428571429</ele><time>2026-04-04T12:33:04.327Z</time></trkpt><trkpt lat="43.058358" lon="11.4882128"><ele>561.1428571428571</ele><time>2026-04-04T12:33:11.84Z</time></trkpt><trkpt lat="43.058333" lon="11.488293"><ele>561.4285714285714</ele><time>2026-04-04T12:33:21.548Z</time></trkpt><trkpt lat="43.0583369" lon="11.4883914"><ele>561.7142857142858</ele><time>2026-04-04T12:33:29.258Z</time></trkpt><trkpt lat="43.058283" lon="11.4884433"><ele>562.0</ele><time>2026-04-04T12:33:46.488Z</time></trkpt><trkpt lat="43.0582512" lon="11.4885491"><ele>560.3333333333334</ele><time>2026-04-04T12:33:55.417Z</time></trkpt><trkpt lat="43.0581619" lon="11.488831"><ele>558.6666666666666</ele><time>2026-04-04T12:34:04.536Z</time></trkpt><trkpt lat="43.0581153" lon="11.4890405"><ele>557.0</ele><time>2026-04-04T12:34:38.904Z</time></trkpt><trkpt lat="43.0580439" lon="11.4889986"><ele>557.0</ele><time>2026-04-04T12:34:42.902Z</time></trkpt><trkpt lat="43.0579774" lon="11.488979"><ele>557.0</ele><time>2026-04-04T12:34:51.912Z</time></trkpt><trkpt lat="43.0579154" lon="11.4890125"><ele>557.0</ele><time>2026-04-04T12:35:13.936Z</time></trkpt><trkpt lat="43.057849" lon="11.4890305"><ele>557.0</ele><time>2026-04-04T12:35:27.923Z</time></trkpt><trkpt lat="43.05779" lon="11.4890799"><ele>557.0</ele><time>2026-04-04T12:35:38.934Z</time></trkpt><trkpt lat="43.0577312" lon="11.4891236"><ele>557.0</ele><time>2026-04-04T12:35:47.955Z</time></trkpt><trkpt lat="43.0576725" lon="11.4891594"><ele>557.0</ele><time>2026-04-04T12:35:56.922Z</time></trkpt><trkpt lat="43.0576102" lon="11.4891889"><ele>557.0</ele><time>2026-04-04T12:36:08.791Z</time></trkpt><trkpt lat="43.0575605" lon="11.4892451"><ele>557.0</ele><time>2026-04-04T12:36:24.922Z</time></trkpt><trkpt lat="43.0574973" lon="11.4892642"><ele>557.0</ele><time>2026-04-04T12:36:33.923Z</time></trkpt><trkpt lat="43.0574337" lon="11.4892935"><ele>557.0</ele><time>2026-04-04T12:36:43.922Z</time></trkpt><trkpt lat="43.0573701" lon="11.4893277"><ele>557.0</ele><time>2026-04-04T12:36:51.388Z</time></trkpt><trkpt lat="43.0573141" lon="11.4893765"><ele>557.0</ele><time>2026-04-04T12:36:58.104Z</time></trkpt><trkpt lat="43.0572619" lon="11.4894496"><ele>557.0</ele><time>2026-04-04T12:37:05.92Z</time></trkpt><trkpt lat="43.0571881" lon="11.4894966"><ele>556.6</ele><time>2026-04-04T12:37:12.785Z</time></trkpt><trkpt lat="43.0571819" lon="11.4895872"><ele>556.2</ele><time>2026-04-04T12:37:23.923Z</time></trkpt><trkpt lat="43.0572239" lon="11.4896713"><ele>555.8</ele><time>2026-04-04T12:37:29.865Z</time></trkpt><trkpt lat="43.057253" lon="11.4897514"><ele>555.4</ele><time>2026-04-04T12:37:35.703Z</time></trkpt><trkpt lat="43.0573454" lon="11.4898729"><ele>555.0</ele><time>2026-04-04T12:38:05.33Z</time></trkpt><trkpt lat="43.0573934" lon="11.4900206"><ele>555.0</ele><time>2026-04-04T12:38:23.964Z</time></trkpt><trkpt lat="43.0575739" lon="11.4902442"><ele>555.0</ele><time>2026-04-04T12:40:42.325Z</time></trkpt><trkpt lat="43.0574306" lon="11.4902675"><ele>555.0</ele><time>2026-04-04T12:41:26.96Z</time></trkpt><trkpt lat="43.0573331" lon="11.4903369"><ele>555.0</ele><time>2026-04-04T12:41:35.878Z</time></trkpt><trkpt lat="43.0569878" lon="11.4905481"><ele>555.0</ele><time>2026-04-04T12:41:51.297Z</time></trkpt><trkpt lat="43.0568017" lon="11.490198"><ele>555.0</ele><time>2026-04-04T12:43:51.919Z</time></trkpt><trkpt lat="43.0567159" lon="11.4901498"><ele>555.0</ele><time>2026-04-04T12:44:00.955Z</time></trkpt><trkpt lat="43.0566956" lon="11.4899835"><ele>555.0</ele><time>2026-04-04T12:44:41.015Z</time></trkpt><trkpt lat="43.0565815" lon="11.489912"><ele>555.0</ele><time>2026-04-04T12:44:49.964Z</time></trkpt><trkpt lat="43.0566343" lon="11.4897737"><ele>536.0</ele><time>2026-04-04T12:45:13.028Z</time></trkpt><trkpt lat="43.0573335" lon="11.488586"><ele>555.0</ele><time>2026-04-04T12:45:43.805Z</time></trkpt><trkpt lat="43.0572094" lon="11.4899313"><ele>554.0</ele><time>2026-04-04T12:45:52.607Z</time></trkpt><trkpt lat="43.0565673" lon="11.4898468"><ele>553.0</ele><time>2026-04-04T12:47:04.26Z</time></trkpt><trkpt lat="43.0565785" lon="11.4895557"><ele>552.0</ele><time>2026-04-04T12:48:46.944Z</time></trkpt><trkpt lat="43.0565107" lon="11.4895041"><ele>551.0</ele><time>2026-04-04T12:48:51.911Z</time></trkpt><trkpt lat="43.0564489" lon="11.4894581"><ele>550.0</ele><time>2026-04-04T12:48:58.919Z</time></trkpt><trkpt lat="43.056379" lon="11.4894003"><ele>549.0</ele><time>2026-04-04T12:49:00.918Z</time></trkpt><trkpt lat="43.0564843" lon="11.489373"><ele>549.0</ele><time>2026-04-04T12:51:48.922Z</time></trkpt><trkpt lat="43.0565911" lon="11.4893151"><ele>549.0</ele><time>2026-04-04T12:51:49.928Z</time></trkpt><trkpt lat="43.0566557" lon="11.4892922"><ele>549.0</ele><time>2026-04-04T12:51:50.935Z</time></trkpt><trkpt lat="43.0567733" lon="11.489268"><ele>549.0</ele><time>2026-04-04T12:51:52.958Z</time></trkpt><trkpt lat="43.0569003" lon="11.4892369"><ele>549.0</ele><time>2026-04-04T12:51:54.933Z</time></trkpt><trkpt lat="43.0569618" lon="11.4892127"><ele>549.2</ele><time>2026-04-04T12:51:55.924Z</time></trkpt><trkpt lat="43.0570313" lon="11.489152"><ele>549.4</ele><time>2026-04-04T12:51:57.924Z</time></trkpt><trkpt lat="43.0570293" lon="11.4890384"><ele>549.6</ele><time>2026-04-04T12:52:00.927Z</time></trkpt><trkpt lat="43.0569737" lon="11.4889036"><ele>549.8</ele><time>2026-04-04T12:52:02.937Z</time></trkpt><trkpt lat="43.0569082" lon="11.488778"><ele>550.0</ele><time>2026-04-04T12:52:04.93Z</time></trkpt><trkpt lat="43.0568685" lon="11.4886905"><ele>550.0</ele><time>2026-04-04T12:52:07.941Z</time></trkpt><trkpt lat="43.0567742" lon="11.4887008"><ele>550.0</ele><time>2026-04-04T12:52:10.935Z</time></trkpt><trkpt lat="43.0566853" lon="11.4887737"><ele>550.0</ele><time>2026-04-04T12:52:12.931Z</time></trkpt><trkpt lat="43.0566275" lon="11.4888188"><ele>550.0</ele><time>2026-04-04T12:52:13.936Z</time></trkpt><trkpt lat="43.0565066" lon="11.4888692"><ele>550.0</ele><time>2026-04-04T12:52:15.934Z</time></trkpt><trkpt lat="43.056445" lon="11.4889014"><ele>549.8333333333334</ele><time>2026-04-04T12:52:16.934Z</time></trkpt><trkpt lat="43.0563809" lon="11.4889335"><ele>549.6666666666667</ele><time>2026-04-04T12:52:17.935Z</time></trkpt><trkpt lat="43.0563103" lon="11.4889624"><ele>549.5</ele><time>2026-04-04T12:52:18.936Z</time></trkpt><trkpt lat="43.0562367" lon="11.4889902"><ele>549.3333333333334</ele><time>2026-04-04T12:52:19.942Z</time></trkpt><trkpt lat="43.0561598" lon="11.4890114"><ele>549.1666666666666</ele><time>2026-04-04T12:52:20.943Z</time></trkpt><trkpt lat="43.0560786" lon="11.4890196"><ele>549.0</ele><time>2026-04-04T12:52:21.937Z</time></trkpt><trkpt lat="43.0559986" lon="11.4890134"><ele>549.0</ele><time>2026-04-04T12:52:22.935Z</time></trkpt><trkpt lat="43.0559214" lon="11.48899"><ele>549.0</ele><time>2026-04-04T12:52:23.937Z</time></trkpt><trkpt lat="43.0558422" lon="11.4889657"><ele>549.0</ele><time>2026-04-04T12:52:24.933Z</time></trkpt><trkpt lat="43.0557642" lon="11.4889344"><ele>549.0</ele><time>2026-04-04T12:52:25.935Z</time></trkpt><trkpt lat="43.0556849" lon="11.4889192"><ele>549.0</ele><time>2026-04-04T12:52:26.936Z</time></trkpt><trkpt lat="43.0556021" lon="11.4889203"><ele>549.0</ele><time>2026-04-04T12:52:27.935Z</time></trkpt><trkpt lat="43.0555159" lon="11.4889407"><ele>549.6666666666666</ele><time>2026-04-04T12:52:28.923Z</time></trkpt><trkpt lat="43.0554392" lon="11.4889544"><ele>550.3333333333334</ele><time>2026-04-04T12:52:29.92Z</time></trkpt><trkpt lat="43.0553609" lon="11.4889789"><ele>551.0</ele><time>2026-04-04T12:52:30.929Z</time></trkpt><trkpt lat="43.0552932" lon="11.4889929"><ele>551.6666666666667</ele><time>2026-04-04T12:52:31.918Z</time></trkpt><trkpt lat="43.055183" lon="11.4889842"><ele>552.3333333333334</ele><time>2026-04-04T12:52:33.919Z</time></trkpt><trkpt lat="43.0550951" lon="11.4889988"><ele>553.0</ele><time>2026-04-04T12:52:35.92Z</time></trkpt><trkpt lat="43.0550824" lon="11.4890894"><ele>553.0</ele><time>2026-04-04T12:52:37.924Z</time></trkpt><trkpt lat="43.0550494" lon="11.4891904"><ele>553.0</ele><time>2026-04-04T12:52:39.932Z</time></trkpt><trkpt lat="43.0549428" lon="11.4892028"><ele>553.0</ele><time>2026-04-04T12:52:41.928Z</time></trkpt><trkpt lat="43.0548667" lon="11.4892016"><ele>553.0</ele><time>2026-04-04T12:52:42.929Z</time></trkpt><trkpt lat="43.0547767" lon="11.4892099"><ele>553.0</ele><time>2026-04-04T12:52:43.933Z</time></trkpt><trkpt lat="43.0546803" lon="11.4892266"><ele>553.4</ele><time>2026-04-04T12:52:44.93Z</time></trkpt><trkpt lat="43.0545794" lon="11.4892429"><ele>553.8</ele><time>2026-04-04T12:52:45.929Z</time></trkpt><trkpt lat="43.0544805" lon="11.4892587"><ele>554.2</ele><time>2026-04-04T12:52:46.937Z</time></trkpt><trkpt lat="43.0543779" lon="11.489268"><ele>554.6</ele><time>2026-04-04T12:52:47.928Z</time></trkpt><trkpt lat="43.0542757" lon="11.4892821"><ele>555.0</ele><time>2026-04-04T12:52:48.911Z</time></trkpt><trkpt lat="43.0541944" lon="11.4893514"><ele>555.0</ele><time>2026-04-04T12:52:49.932Z</time></trkpt><trkpt lat="43.0541357" lon="11.4894742"><ele>555.0</ele><time>2026-04-04T12:52:50.933Z</time></trkpt><trkpt lat="43.0541236" lon="11.4896086"><ele>555.0</ele><time>2026-04-04T12:52:51.947Z</time></trkpt><trkpt lat="43.0541418" lon="11.489744"><ele>555.0</ele><time>2026-04-04T12:52:52.918Z</time></trkpt><trkpt lat="43.0541789" lon="11.4898815"><ele>555.0</ele><time>2026-04-04T12:52:53.914Z</time></trkpt><trkpt lat="43.0542424" lon="11.4899912"><ele>553.2</ele><time>2026-04-04T12:52:54.932Z</time></trkpt><trkpt lat="43.054315" lon="11.4900903"><ele>551.4</ele><time>2026-04-04T12:52:55.932Z</time></trkpt><trkpt lat="43.0543931" lon="11.4901716"><ele>549.6</ele><time>2026-04-04T12:52:56.93Z</time></trkpt><trkpt lat="43.0544742" lon="11.4902477"><ele>547.8</ele><time>2026-04-04T12:52:57.935Z</time></trkpt><trkpt lat="43.0545589" lon="11.4903289"><ele>546.0</ele><time>2026-04-04T12:52:58.92Z</time></trkpt><trkpt lat="43.0546387" lon="11.4904191"><ele>544.4</ele><time>2026-04-04T12:52:59.914Z</time></trkpt><trkpt lat="43.0547189" lon="11.4905201"><ele>542.8</ele><time>2026-04-04T12:53:00.931Z</time></trkpt><trkpt lat="43.0547929" lon="11.4906152"><ele>541.1999999999999</ele><time>2026-04-04T12:53:01.938Z</time></trkpt><trkpt lat="43.0548634" lon="11.4907135"><ele>539.6</ele><time>2026-04-04T12:53:02.94Z</time></trkpt><trkpt lat="43.054931" lon="11.4908143"><ele>538.0</ele><time>2026-04-04T12:53:03.939Z</time></trkpt><trkpt lat="43.0549887" lon="11.4909241"><ele>537.8</ele><time>2026-04-04T12:53:04.926Z</time></trkpt><trkpt lat="43.0550448" lon="11.4910308"><ele>537.5999999999999</ele><time>2026-04-04T12:53:05.939Z</time></trkpt><trkpt lat="43.0550921" lon="11.4911365"><ele>537.4000000000001</ele><time>2026-04-04T12:53:06.94Z</time></trkpt><trkpt lat="43.0551347" lon="11.4912499"><ele>537.2</ele><time>2026-04-04T12:53:07.931Z</time></trkpt><trkpt lat="43.055183" lon="11.4913604"><ele>537.0</ele><time>2026-04-04T12:53:08.925Z</time></trkpt><trkpt lat="43.0552309" lon="11.4914576"><ele>533.6666666666666</ele><time>2026-04-04T12:53:09.934Z</time></trkpt><trkpt lat="43.055279" lon="11.4915594"><ele>530.3333333333334</ele><time>2026-04-04T12:53:10.939Z</time></trkpt><trkpt lat="43.0553284" lon="11.4916388"><ele>527.0</ele><time>2026-04-04T12:53:11.926Z</time></trkpt><trkpt lat="43.0553795" lon="11.4917095"><ele>523.6666666666667</ele><time>2026-04-04T12:53:12.942Z</time></trkpt><trkpt lat="43.0554348" lon="11.4918021"><ele>520.3333333333334</ele><time>2026-04-04T12:53:14.931Z</time></trkpt><trkpt lat="43.0554483" lon="11.4918953"><ele>517.0</ele><time>2026-04-04T12:53:17.926Z</time></trkpt><trkpt lat="43.0553822" lon="11.4918979"><ele>517.0</ele><time>2026-04-04T12:53:19.939Z</time></trkpt><trkpt lat="43.0553065" lon="11.4917594"><ele>517.0</ele><time>2026-04-04T12:53:21.934Z</time></trkpt><trkpt lat="43.0552519" lon="11.4916702"><ele>517.0</ele><time>2026-04-04T12:53:22.934Z</time></trkpt><trkpt lat="43.0551904" lon="11.4915845"><ele>517.0</ele><time>2026-04-04T12:53:23.931Z</time></trkpt><trkpt lat="43.0551275" lon="11.4914993"><ele>517.0</ele><time>2026-04-04T12:53:24.923Z</time></trkpt><trkpt lat="43.0550703" lon="11.4914148"><ele>517.0</ele><time>2026-04-04T12:53:25.936Z</time></trkpt><trkpt lat="43.0550092" lon="11.4913276"><ele>517.0</ele><time>2026-04-04T12:53:26.933Z</time></trkpt><trkpt lat="43.054944" lon="11.4912324"><ele>517.0</ele><time>2026-04-04T12:53:27.933Z</time></trkpt><trkpt lat="43.0548883" lon="11.4911346"><ele>517.0</ele><time>2026-04-04T12:53:28.925Z</time></trkpt><trkpt lat="43.0548353" lon="11.4910504"><ele>517.0</ele><time>2026-04-04T12:53:29.924Z</time></trkpt><trkpt lat="43.0547831" lon="11.4909918"><ele>517.0</ele><time>2026-04-04T12:53:30.929Z</time></trkpt><trkpt lat="43.054678" lon="11.4909293"><ele>520.1666666666667</ele><time>2026-04-04T12:53:32.929Z</time></trkpt><trkpt lat="43.0545593" lon="11.490929"><ele>523.3333333333334</ele><time>2026-04-04T12:53:34.933Z</time></trkpt><trkpt lat="43.054494" lon="11.4909604"><ele>526.5</ele><time>2026-04-04T12:53:35.931Z</time></trkpt><trkpt lat="43.0544338" lon="11.4910136"><ele>529.6666666666666</ele><time>2026-04-04T12:53:36.93Z</time></trkpt><trkpt lat="43.0543902" lon="11.4910965"><ele>532.8333333333333</ele><time>2026-04-04T12:53:37.939Z</time></trkpt><trkpt lat="43.0543686" lon="11.4912117"><ele>536.0</ele><time>2026-04-04T12:53:38.926Z</time></trkpt><trkpt lat="43.0543693" lon="11.4913437"><ele>536.0</ele><time>2026-04-04T12:53:39.934Z</time></trkpt><trkpt lat="43.0543811" lon="11.4914815"><ele>536.0</ele><time>2026-04-04T12:53:40.927Z</time></trkpt><trkpt lat="43.0543927" lon="11.4916301"><ele>536.0</ele><time>2026-04-04T12:53:41.94Z</time></trkpt><trkpt lat="43.0544117" lon="11.4917805"><ele>536.0</ele><time>2026-04-04T12:53:42.935Z</time></trkpt><trkpt lat="43.0544346" lon="11.491928"><ele>536.0</ele><time>2026-04-04T12:53:43.934Z</time></trkpt><trkpt lat="43.0544405" lon="11.4920765"><ele>533.0</ele><time>2026-04-04T12:53:44.929Z</time></trkpt><trkpt lat="43.0544486" lon="11.4922275"><ele>530.0</ele><time>2026-04-04T12:53:45.935Z</time></trkpt><trkpt lat="43.0544517" lon="11.4923926"><ele>527.0</ele><time>2026-04-04T12:53:46.935Z</time></trkpt><trkpt lat="43.054449" lon="11.4925553"><ele>524.0</ele><time>2026-04-04T12:53:47.959Z</time></trkpt><trkpt lat="43.054434" lon="11.4927185"><ele>524.0</ele><time>2026-04-04T12:53:48.929Z</time></trkpt><trkpt lat="43.0544025" lon="11.4928794"><ele>524.0</ele><time>2026-04-04T12:53:49.935Z</time></trkpt><trkpt lat="43.0543522" lon="11.4930295"><ele>524.0</ele><time>2026-04-04T12:53:50.928Z</time></trkpt><trkpt lat="43.0542989" lon="11.493163"><ele>524.0</ele><time>2026-04-04T12:53:51.937Z</time></trkpt><trkpt lat="43.0542268" lon="11.4932783"><ele>521.5</ele><time>2026-04-04T12:53:52.929Z</time></trkpt><trkpt lat="43.0541394" lon="11.4933821"><ele>519.0</ele><time>2026-04-04T12:53:53.932Z</time></trkpt><trkpt lat="43.0540492" lon="11.4934719"><ele>516.5</ele><time>2026-04-04T12:53:54.934Z</time></trkpt><trkpt lat="43.053952" lon="11.493552"><ele>514.0</ele><time>2026-04-04T12:53:55.975Z</time></trkpt><trkpt lat="43.0538561" lon="11.4936384"><ele>514.0</ele><time>2026-04-04T12:53:56.929Z</time></trkpt><trkpt lat="43.0537644" lon="11.493733"><ele>514.0</ele><time>2026-04-04T12:53:57.934Z</time></trkpt><trkpt lat="43.0536829" lon="11.4938436"><ele>514.0</ele><time>2026-04-04T12:53:58.933Z</time></trkpt><trkpt lat="43.0536165" lon="11.4939945"><ele>514.0</ele><time>2026-04-04T12:53:59.93Z</time></trkpt><trkpt lat="43.0535611" lon="11.4941548"><ele>512.5</ele><time>2026-04-04T12:54:00.929Z</time></trkpt><trkpt lat="43.053514" lon="11.4943235"><ele>511.0</ele><time>2026-04-04T12:54:01.93Z</time></trkpt><trkpt lat="43.053501" lon="11.4944984"><ele>509.5</ele><time>2026-04-04T12:54:02.941Z</time></trkpt><trkpt lat="43.0534967" lon="11.4946805"><ele>508.0</ele><time>2026-04-04T12:54:03.93Z</time></trkpt><trkpt lat="43.0535054" lon="11.4948522"><ele>507.25</ele><time>2026-04-04T12:54:04.925Z</time></trkpt><trkpt lat="43.053516" lon="11.4950252"><ele>506.5</ele><time>2026-04-04T12:54:05.936Z</time></trkpt><trkpt lat="43.0535273" lon="11.4951958"><ele>505.75</ele><time>2026-04-04T12:54:06.94Z</time></trkpt><trkpt lat="43.0535426" lon="11.4953624"><ele>505.0</ele><time>2026-04-04T12:54:07.932Z</time></trkpt><trkpt lat="43.0535542" lon="11.4955269"><ele>504.75</ele><time>2026-04-04T12:54:08.936Z</time></trkpt><trkpt lat="43.0535634" lon="11.4957047"><ele>504.5</ele><time>2026-04-04T12:54:09.93Z</time></trkpt><trkpt lat="43.0535637" lon="11.4958704"><ele>504.25</ele><time>2026-04-04T12:54:10.948Z</time></trkpt><trkpt lat="43.0535635" lon="11.4960304"><ele>504.0</ele><time>2026-04-04T12:54:11.914Z</time></trkpt><trkpt lat="43.0535526" lon="11.4961843"><ele>503.0</ele><time>2026-04-04T12:54:12.928Z</time></trkpt><trkpt lat="43.053535" lon="11.4963412"><ele>502.0</ele><time>2026-04-04T12:54:13.939Z</time></trkpt><trkpt lat="43.0535169" lon="11.496485"><ele>501.0</ele><time>2026-04-04T12:54:14.942Z</time></trkpt><trkpt lat="43.0534959" lon="11.4966306"><ele>500.0</ele><time>2026-04-04T12:54:15.929Z</time></trkpt><trkpt lat="43.0534728" lon="11.4967664"><ele>499.0</ele><time>2026-04-04T12:54:16.934Z</time></trkpt><trkpt lat="43.053449" lon="11.4969113"><ele>499.0</ele><time>2026-04-04T12:54:17.924Z</time></trkpt><trkpt lat="43.0534214" lon="11.4970656"><ele>499.0</ele><time>2026-04-04T12:54:18.946Z</time></trkpt><trkpt lat="43.0533824" lon="11.4972211"><ele>499.0</ele><time>2026-04-04T12:54:19.935Z</time></trkpt><trkpt lat="43.0533323" lon="11.4973831"><ele>499.0</ele><time>2026-04-04T12:54:20.923Z</time></trkpt><trkpt lat="43.053271" lon="11.49754"><ele>499.25</ele><time>2026-04-04T12:54:21.932Z</time></trkpt><trkpt lat="43.0532105" lon="11.4976888"><ele>499.5</ele><time>2026-04-04T12:54:22.938Z</time></trkpt><trkpt lat="43.0531483" lon="11.49783"><ele>499.75</ele><time>2026-04-04T12:54:23.934Z</time></trkpt><trkpt lat="43.0530805" lon="11.4979692"><ele>500.0</ele><time>2026-04-04T12:54:24.937Z</time></trkpt><trkpt lat="43.0530128" lon="11.4981087"><ele>500.0</ele><time>2026-04-04T12:54:25.941Z</time></trkpt><trkpt lat="43.05295" lon="11.4982459"><ele>500.0</ele><time>2026-04-04T12:54:26.94Z</time></trkpt><trkpt lat="43.0528825" lon="11.4984016"><ele>500.0</ele><time>2026-04-04T12:54:27.933Z</time></trkpt><trkpt lat="43.0528196" lon="11.498562"><ele>500.0</ele><time>2026-04-04T12:54:28.937Z</time></trkpt><trkpt lat="43.0527573" lon="11.4987215"><ele>497.5</ele><time>2026-04-04T12:54:29.944Z</time></trkpt><trkpt lat="43.0526902" lon="11.4988818"><ele>495.0</ele><time>2026-04-04T12:54:30.946Z</time></trkpt><trkpt lat="43.0526253" lon="11.4990367"><ele>492.5</ele><time>2026-04-04T12:54:31.936Z</time></trkpt><trkpt lat="43.0525625" lon="11.4991915"><ele>490.0</ele><time>2026-04-04T12:54:32.939Z</time></trkpt><trkpt lat="43.0524985" lon="11.4993463"><ele>490.75</ele><time>2026-04-04T12:54:33.945Z</time></trkpt><trkpt lat="43.0524345" lon="11.4994989"><ele>491.5</ele><time>2026-04-04T12:54:34.973Z</time></trkpt><trkpt lat="43.0523675" lon="11.4996544"><ele>492.25</ele><time>2026-04-04T12:54:35.936Z</time></trkpt><trkpt lat="43.0523042" lon="11.4998057"><ele>493.0</ele><time>2026-04-04T12:54:36.945Z</time></trkpt><trkpt lat="43.0522343" lon="11.499961"><ele>489.5</ele><time>2026-04-04T12:54:37.936Z</time></trkpt><trkpt lat="43.0521697" lon="11.5001136"><ele>486.0</ele><time>2026-04-04T12:54:38.929Z</time></trkpt><trkpt lat="43.052108" lon="11.5002671"><ele>482.5</ele><time>2026-04-04T12:54:39.929Z</time></trkpt><trkpt lat="43.0520497" lon="11.5004207"><ele>479.0</ele><time>2026-04-04T12:54:40.942Z</time></trkpt><trkpt lat="43.0520005" lon="11.500571"><ele>477.75</ele><time>2026-04-04T12:54:41.952Z</time></trkpt><trkpt lat="43.0519656" lon="11.5007253"><ele>476.5</ele><time>2026-04-04T12:54:42.942Z</time></trkpt><trkpt lat="43.0519434" lon="11.5008827"><ele>475.25</ele><time>2026-04-04T12:54:43.943Z</time></trkpt><trkpt lat="43.0519343" lon="11.5010528"><ele>474.0</ele><time>2026-04-04T12:54:44.937Z</time></trkpt><trkpt lat="43.0519381" lon="11.5012227"><ele>472.75</ele><time>2026-04-04T12:54:45.945Z</time></trkpt><trkpt lat="43.0519438" lon="11.5013879"><ele>471.5</ele><time>2026-04-04T12:54:46.934Z</time></trkpt><trkpt lat="43.0519525" lon="11.5015563"><ele>470.25</ele><time>2026-04-04T12:54:47.943Z</time></trkpt><trkpt lat="43.0519587" lon="11.5017281"><ele>469.0</ele><time>2026-04-04T12:54:48.938Z</time></trkpt><trkpt lat="43.0519623" lon="11.5018935"><ele>469.0</ele><time>2026-04-04T12:54:49.938Z</time></trkpt><trkpt lat="43.0519561" lon="11.5020517"><ele>469.0</ele><time>2026-04-04T12:54:50.942Z</time></trkpt><trkpt lat="43.0519372" lon="11.5022043"><ele>469.0</ele><time>2026-04-04T12:54:51.937Z</time></trkpt><trkpt lat="43.0519025" lon="11.5023482"><ele>469.0</ele><time>2026-04-04T12:54:52.937Z</time></trkpt><trkpt lat="43.0518522" lon="11.5024817"><ele>469.0</ele><time>2026-04-04T12:54:53.965Z</time></trkpt><trkpt lat="43.0518161" lon="11.5026123"><ele>468.50000000000006</ele><time>2026-04-04T12:54:54.94Z</time></trkpt><trkpt lat="43.0517839" lon="11.502735"><ele>468.0</ele><time>2026-04-04T12:54:55.928Z</time></trkpt><trkpt lat="43.0517618" lon="11.5028588"><ele>467.5</ele><time>2026-04-04T12:54:56.926Z</time></trkpt><trkpt lat="43.05175" lon="11.5029779"><ele>467.0</ele><time>2026-04-04T12:54:57.918Z</time></trkpt><trkpt lat="43.0517533" lon="11.5030951"><ele>466.50000000000006</ele><time>2026-04-04T12:54:58.94Z</time></trkpt><trkpt lat="43.0517644" lon="11.5032068"><ele>466.0</ele><time>2026-04-04T12:54:59.931Z</time></trkpt><trkpt lat="43.0517894" lon="11.5033017"><ele>465.7142857142857</ele><time>2026-04-04T12:55:00.943Z</time></trkpt><trkpt lat="43.0518191" lon="11.5033915"><ele>465.42857142857144</ele><time>2026-04-04T12:55:01.929Z</time></trkpt><trkpt lat="43.0518481" lon="11.5034756"><ele>465.14285714285717</ele><time>2026-04-04T12:55:02.938Z</time></trkpt><trkpt lat="43.0518772" lon="11.5035583"><ele>464.8571428571429</ele><time>2026-04-04T12:55:03.941Z</time></trkpt><trkpt lat="43.0519146" lon="11.5036529"><ele>464.57142857142856</ele><time>2026-04-04T12:55:04.94Z</time></trkpt><trkpt lat="43.0519591" lon="11.5037492"><ele>464.28571428571433</ele><time>2026-04-04T12:55:05.951Z</time></trkpt><trkpt lat="43.0520025" lon="11.5038412"><ele>464.00000000000006</ele><time>2026-04-04T12:55:06.935Z</time></trkpt><trkpt lat="43.0520405" lon="11.5039301"><ele>462.66666666666663</ele><time>2026-04-04T12:55:07.933Z</time></trkpt><trkpt lat="43.0520778" lon="11.5040134"><ele>461.3333333333333</ele><time>2026-04-04T12:55:08.932Z</time></trkpt><trkpt lat="43.052116" lon="11.5040935"><ele>460.0</ele><time>2026-04-04T12:55:09.948Z</time></trkpt><trkpt lat="43.0521526" lon="11.5041819"><ele>458.66666666666663</ele><time>2026-04-04T12:55:10.939Z</time></trkpt><trkpt lat="43.0521853" lon="11.504271"><ele>457.3333333333333</ele><time>2026-04-04T12:55:11.947Z</time></trkpt><trkpt lat="43.0522378" lon="11.5044198"><ele>456.0</ele><time>2026-04-04T12:55:13.956Z</time></trkpt><trkpt lat="43.0522817" lon="11.5045722"><ele>454.6666666666667</ele><time>2026-04-04T12:55:15.943Z</time></trkpt><trkpt lat="43.0523034" lon="11.5047369"><ele>453.33333333333337</ele><time>2026-04-04T12:55:17.946Z</time></trkpt><trkpt lat="43.0522985" lon="11.504837"><ele>452.0</ele><time>2026-04-04T12:55:18.923Z</time></trkpt><trkpt lat="43.0522941" lon="11.5049281"><ele>450.6666666666667</ele><time>2026-04-04T12:55:19.957Z</time></trkpt><trkpt lat="43.0523226" lon="11.5050593"><ele>449.33333333333337</ele><time>2026-04-04T12:55:21.941Z</time></trkpt><trkpt lat="43.0524007" lon="11.5050171"><ele>448.0</ele><time>2026-04-04T12:55:23.944Z</time></trkpt><trkpt lat="43.0524138" lon="11.504843"><ele>448.00000000000006</ele><time>2026-04-04T12:55:25.94Z</time></trkpt><trkpt lat="43.0524026" lon="11.5047468"><ele>448.0</ele><time>2026-04-04T12:55:26.943Z</time></trkpt><trkpt lat="43.0523926" lon="11.5046438"><ele>448.0</ele><time>2026-04-04T12:55:27.934Z</time></trkpt><trkpt lat="43.0523905" lon="11.5045335"><ele>448.0</ele><time>2026-04-04T12:55:28.937Z</time></trkpt><trkpt lat="43.0523911" lon="11.5044395"><ele>448.00000000000006</ele><time>2026-04-04T12:55:29.951Z</time></trkpt><trkpt lat="43.0523994" lon="11.5043284"><ele>448.0</ele><time>2026-04-04T12:55:31.942Z</time></trkpt><trkpt lat="43.0524251" lon="11.5042289"><ele>449.33333333333337</ele><time>2026-04-04T12:55:34.939Z</time></trkpt><trkpt lat="43.0523999" lon="11.5041404"><ele>450.6666666666667</ele><time>2026-04-04T12:58:33.936Z</time></trkpt><trkpt lat="43.0523783" lon="11.5040548"><ele>452.0</ele><time>2026-04-04T12:58:35.937Z</time></trkpt><trkpt lat="43.0523025" lon="11.5040115"><ele>453.33333333333337</ele><time>2026-04-04T12:58:37.932Z</time></trkpt><trkpt lat="43.0522286" lon="11.5040692"><ele>454.6666666666667</ele><time>2026-04-04T12:58:39.932Z</time></trkpt><trkpt lat="43.0521885" lon="11.5041619"><ele>456.0</ele><time>2026-04-04T12:58:43.948Z</time></trkpt><trkpt lat="43.0522232" lon="11.5043166"><ele>456.0</ele><time>2026-04-04T12:58:45.926Z</time></trkpt><trkpt lat="43.0522486" lon="11.5044105"><ele>455.99999999999994</ele><time>2026-04-04T12:58:46.929Z</time></trkpt><trkpt lat="43.0522729" lon="11.5045016"><ele>456.0</ele><time>2026-04-04T12:58:47.948Z</time></trkpt><trkpt lat="43.0522933" lon="11.5046126"><ele>456.0</ele><time>2026-04-04T12:58:48.924Z</time></trkpt><trkpt lat="43.0523078" lon="11.5047137"><ele>455.99999999999994</ele><time>2026-04-04T12:58:49.938Z</time></trkpt><trkpt lat="43.0523095" lon="11.5048156"><ele>456.0</ele><time>2026-04-04T12:58:50.933Z</time></trkpt><trkpt lat="43.0523039" lon="11.5049079"><ele>456.0</ele><time>2026-04-04T12:58:51.946Z</time></trkpt><trkpt lat="43.0523409" lon="11.5050501"><ele>456.4</ele><time>2026-04-04T12:58:53.931Z</time></trkpt><trkpt lat="43.0524533" lon="11.5050344"><ele>456.8</ele><time>2026-04-04T12:58:55.934Z</time></trkpt><trkpt lat="43.0525752" lon="11.5049922"><ele>457.19999999999993</ele><time>2026-04-04T12:58:57.928Z</time></trkpt><trkpt lat="43.0526544" lon="11.5050062"><ele>457.59999999999997</ele><time>2026-04-04T12:58:58.933Z</time></trkpt><trkpt lat="43.0527371" lon="11.5050383"><ele>458.0</ele><time>2026-04-04T12:58:59.929Z</time></trkpt><trkpt lat="43.052824" lon="11.5050875"><ele>458.0</ele><time>2026-04-04T12:59:00.93Z</time></trkpt><trkpt lat="43.0529167" lon="11.5051395"><ele>457.99999999999994</ele><time>2026-04-04T12:59:01.934Z</time></trkpt><trkpt lat="43.0530052" lon="11.5052155"><ele>457.99999999999994</ele><time>2026-04-04T12:59:02.928Z</time></trkpt><trkpt lat="43.0530905" lon="11.5053067"><ele>458.0</ele><time>2026-04-04T12:59:03.931Z</time></trkpt><trkpt lat="43.0531688" lon="11.5054136"><ele>458.0</ele><time>2026-04-04T12:59:04.932Z</time></trkpt><trkpt lat="43.0532252" lon="11.5055505"><ele>457.59999999999997</ele><time>2026-04-04T12:59:05.94Z</time></trkpt><trkpt lat="43.0532617" lon="11.5056989"><ele>457.19999999999993</ele><time>2026-04-04T12:59:06.941Z</time></trkpt><trkpt lat="43.0532648" lon="11.5058494"><ele>456.8</ele><time>2026-04-04T12:59:07.939Z</time></trkpt><trkpt lat="43.0532563" lon="11.5060037"><ele>456.4</ele><time>2026-04-04T12:59:08.94Z</time></trkpt><trkpt lat="43.0532415" lon="11.5061531"><ele>456.0</ele><time>2026-04-04T12:59:09.95Z</time></trkpt><trkpt lat="43.0532215" lon="11.5063033"><ele>455.25</ele><time>2026-04-04T12:59:10.94Z</time></trkpt><trkpt lat="43.0531999" lon="11.5064482"><ele>454.5</ele><time>2026-04-04T12:59:11.939Z</time></trkpt><trkpt lat="43.0531814" lon="11.506603"><ele>453.75</ele><time>2026-04-04T12:59:12.942Z</time></trkpt><trkpt lat="43.0531645" lon="11.5067595"><ele>453.0</ele><time>2026-04-04T12:59:13.94Z</time></trkpt><trkpt lat="43.0531499" lon="11.5069202"><ele>451.0</ele><time>2026-04-04T12:59:14.943Z</time></trkpt><trkpt lat="43.0531314" lon="11.5070818"><ele>449.0</ele><time>2026-04-04T12:59:15.936Z</time></trkpt><trkpt lat="43.0531194" lon="11.5072408"><ele>447.0</ele><time>2026-04-04T12:59:16.956Z</time></trkpt><trkpt lat="43.0531031" lon="11.5073986"><ele>445.0</ele><time>2026-04-04T12:59:17.926Z</time></trkpt><trkpt lat="43.0530836" lon="11.5075563"><ele>445.0</ele><time>2026-04-04T12:59:18.934Z</time></trkpt><trkpt lat="43.0530624" lon="11.5077138"><ele>445.0</ele><time>2026-04-04T12:59:19.938Z</time></trkpt><trkpt lat="43.0530425" lon="11.5078708"><ele>445.0</ele><time>2026-04-04T12:59:20.939Z</time></trkpt><trkpt lat="43.0530253" lon="11.508028"><ele>445.0</ele><time>2026-04-04T12:59:21.936Z</time></trkpt><trkpt lat="43.0530061" lon="11.5081869"><ele>442.75</ele><time>2026-04-04T12:59:22.929Z</time></trkpt><trkpt lat="43.0529968" lon="11.5083447"><ele>440.5</ele><time>2026-04-04T12:59:23.93Z</time></trkpt><trkpt lat="43.0529944" lon="11.5085061"><ele>438.25</ele><time>2026-04-04T12:59:24.919Z</time></trkpt><trkpt lat="43.0529976" lon="11.5086665"><ele>436.0</ele><time>2026-04-04T12:59:25.937Z</time></trkpt><trkpt lat="43.0530127" lon="11.508833"><ele>434.0</ele><time>2026-04-04T12:59:26.943Z</time></trkpt><trkpt lat="43.0530399" lon="11.5089959"><ele>432.0</ele><time>2026-04-04T12:59:27.926Z</time></trkpt><trkpt lat="43.05307" lon="11.5091603"><ele>430.0</ele><time>2026-04-04T12:59:28.926Z</time></trkpt><trkpt lat="43.0531015" lon="11.5093277"><ele>428.0</ele><time>2026-04-04T12:59:29.927Z</time></trkpt><trkpt lat="43.0531332" lon="11.5094932"><ele>427.25</ele><time>2026-04-04T12:59:30.927Z</time></trkpt><trkpt lat="43.0531716" lon="11.5096646"><ele>426.5</ele><time>2026-04-04T12:59:31.926Z</time></trkpt><trkpt lat="43.0532204" lon="11.5098257"><ele>425.75</ele><time>2026-04-04T12:59:32.94Z</time></trkpt><trkpt lat="43.0532858" lon="11.5099885"><ele>425.0</ele><time>2026-04-04T12:59:33.954Z</time></trkpt><trkpt lat="43.0533676" lon="11.5101347"><ele>425.0</ele><time>2026-04-04T12:59:34.938Z</time></trkpt><trkpt lat="43.053461" lon="11.5102687"><ele>425.0</ele><time>2026-04-04T12:59:35.942Z</time></trkpt><trkpt lat="43.053572" lon="11.5103948"><ele>425.0</ele><time>2026-04-04T12:59:36.934Z</time></trkpt><trkpt lat="43.0537031" lon="11.5104953"><ele>425.0</ele><time>2026-04-04T12:59:37.933Z</time></trkpt><trkpt lat="43.0538437" lon="11.5105789"><ele>423.25</ele><time>2026-04-04T12:59:38.928Z</time></trkpt><trkpt lat="43.0539875" lon="11.510625"><ele>421.5</ele><time>2026-04-04T12:59:39.952Z</time></trkpt><trkpt lat="43.0541356" lon="11.5106407"><ele>419.75</ele><time>2026-04-04T12:59:40.95Z</time></trkpt><trkpt lat="43.0542845" lon="11.5106235"><ele>418.0</ele><time>2026-04-04T12:59:41.935Z</time></trkpt><trkpt lat="43.0544189" lon="11.5105721"><ele>417.5</ele><time>2026-04-04T12:59:42.947Z</time></trkpt><trkpt lat="43.0545355" lon="11.5104885"><ele>417.0</ele><time>2026-04-04T12:59:43.94Z</time></trkpt><trkpt lat="43.0546515" lon="11.5103662"><ele>416.5</ele><time>2026-04-04T12:59:44.938Z</time></trkpt><trkpt lat="43.0547682" lon="11.5102214"><ele>416.0</ele><time>2026-04-04T12:59:45.928Z</time></trkpt><trkpt lat="43.0548766" lon="11.5100643"><ele>415.3333333333333</ele><time>2026-04-04T12:59:46.925Z</time></trkpt><trkpt lat="43.0549797" lon="11.5098934"><ele>414.66666666666663</ele><time>2026-04-04T12:59:47.931Z</time></trkpt><trkpt lat="43.0550685" lon="11.5097051"><ele>414.0</ele><time>2026-04-04T12:59:48.943Z</time></trkpt><trkpt lat="43.0551297" lon="11.5095139"><ele>414.0</ele><time>2026-04-04T12:59:49.93Z</time></trkpt><trkpt lat="43.0551946" lon="11.5093103"><ele>414.0</ele><time>2026-04-04T12:59:50.939Z</time></trkpt><trkpt lat="43.0552711" lon="11.5091234"><ele>414.0</ele><time>2026-04-04T12:59:51.931Z</time></trkpt><trkpt lat="43.0553675" lon="11.5089707"><ele>414.0</ele><time>2026-04-04T12:59:52.922Z</time></trkpt><trkpt lat="43.0554785" lon="11.5088164"><ele>414.0</ele><time>2026-04-04T12:59:53.94Z</time></trkpt><trkpt lat="43.0555979" lon="11.5086733"><ele>414.0</ele><time>2026-04-04T12:59:54.932Z</time></trkpt><trkpt lat="43.0557182" lon="11.5085375"><ele>410.0</ele><time>2026-04-04T12:59:55.95Z</time></trkpt><trkpt lat="43.0558276" lon="11.508396"><ele>406.0</ele><time>2026-04-04T12:59:56.923Z</time></trkpt><trkpt lat="43.0559223" lon="11.5082304"><ele>402.0</ele><time>2026-04-04T12:59:57.927Z</time></trkpt><trkpt lat="43.0559667" lon="11.5080449"><ele>398.0</ele><time>2026-04-04T12:59:58.929Z</time></trkpt><trkpt lat="43.0559738" lon="11.5078278"><ele>397.5</ele><time>2026-04-04T12:59:59.934Z</time></trkpt><trkpt lat="43.0559771" lon="11.5076293"><ele>397.0</ele><time>2026-04-04T13:00:00.932Z</time></trkpt><trkpt lat="43.0559706" lon="11.5074438"><ele>396.5</ele><time>2026-04-04T13:00:01.94Z</time></trkpt><trkpt lat="43.0559507" lon="11.5072602"><ele>396.0</ele><time>2026-04-04T13:00:02.938Z</time></trkpt><trkpt lat="43.055895" lon="11.5070822"><ele>394.5</ele><time>2026-04-04T13:00:03.934Z</time></trkpt><trkpt lat="43.0558172" lon="11.5069203"><ele>393.0</ele><time>2026-04-04T13:00:04.927Z</time></trkpt><trkpt lat="43.0557313" lon="11.5067755"><ele>391.5</ele><time>2026-04-04T13:00:05.938Z</time></trkpt><trkpt lat="43.0556359" lon="11.5066299"><ele>390.0</ele><time>2026-04-04T13:00:06.937Z</time></trkpt><trkpt lat="43.0555425" lon="11.5064566"><ele>393.0</ele><time>2026-04-04T13:00:07.928Z</time></trkpt><trkpt lat="43.0554749" lon="11.5062709"><ele>396.0</ele><time>2026-04-04T13:00:08.923Z</time></trkpt><trkpt lat="43.0554636" lon="11.5060712"><ele>399.0</ele><time>2026-04-04T13:00:09.941Z</time></trkpt><trkpt lat="43.0554986" lon="11.5058725"><ele>402.0</ele><time>2026-04-04T13:00:10.943Z</time></trkpt><trkpt lat="43.0555617" lon="11.5056646"><ele>402.0</ele><time>2026-04-04T13:00:11.939Z</time></trkpt><trkpt lat="43.0556322" lon="11.5054592"><ele>402.0</ele><time>2026-04-04T13:00:12.949Z</time></trkpt><trkpt lat="43.0557062" lon="11.5052627"><ele>402.0</ele><time>2026-04-04T13:00:13.93Z</time></trkpt><trkpt lat="43.0557754" lon="11.505067"><ele>398.0</ele><time>2026-04-04T13:00:14.933Z</time></trkpt><trkpt lat="43.0558559" lon="11.5048783"><ele>394.0</ele><time>2026-04-04T13:00:15.93Z</time></trkpt><trkpt lat="43.0559411" lon="11.5046995"><ele>390.0</ele><time>2026-04-04T13:00:16.932Z</time></trkpt><trkpt lat="43.0560338" lon="11.5045158"><ele>390.0</ele><time>2026-04-04T13:00:17.928Z</time></trkpt><trkpt lat="43.0561278" lon="11.5043408"><ele>390.0</ele><time>2026-04-04T13:00:18.935Z</time></trkpt><trkpt lat="43.0562272" lon="11.504169"><ele>390.0</ele><time>2026-04-04T13:00:19.932Z</time></trkpt><trkpt lat="43.0563485" lon="11.5040244"><ele>390.0</ele><time>2026-04-04T13:00:20.942Z</time></trkpt><trkpt lat="43.0564907" lon="11.5039147"><ele>390.0</ele><time>2026-04-04T13:00:21.926Z</time></trkpt><trkpt lat="43.0566459" lon="11.5038258"><ele>390.0</ele><time>2026-04-04T13:00:22.921Z</time></trkpt><trkpt lat="43.0567989" lon="11.5037406"><ele>388.0</ele><time>2026-04-04T13:00:23.931Z</time></trkpt><trkpt lat="43.05695" lon="11.5036538"><ele>386.0</ele><time>2026-04-04T13:00:24.93Z</time></trkpt><trkpt lat="43.0571056" lon="11.5035674"><ele>384.0</ele><time>2026-04-04T13:00:25.927Z</time></trkpt><trkpt lat="43.0572654" lon="11.5035016"><ele>384.0</ele><time>2026-04-04T13:00:26.932Z</time></trkpt><trkpt lat="43.0574124" lon="11.5034468"><ele>384.0</ele><time>2026-04-04T13:00:27.931Z</time></trkpt><trkpt lat="43.0575596" lon="11.5033973"><ele>384.0</ele><time>2026-04-04T13:00:28.946Z</time></trkpt><trkpt lat="43.0576802" lon="11.5032903"><ele>384.0</ele><time>2026-04-04T13:00:29.952Z</time></trkpt><trkpt lat="43.0577609" lon="11.5031394"><ele>381.75</ele><time>2026-04-04T13:00:30.942Z</time></trkpt><trkpt lat="43.0578005" lon="11.502958"><ele>379.5</ele><time>2026-04-04T13:00:31.939Z</time></trkpt><trkpt lat="43.0578079" lon="11.5027806"><ele>377.25</ele><time>2026-04-04T13:00:32.941Z</time></trkpt><trkpt lat="43.0578007" lon="11.5025918"><ele>375.0</ele><time>2026-04-04T13:00:33.947Z</time></trkpt><trkpt lat="43.0578135" lon="11.5024089"><ele>375.0</ele><time>2026-04-04T13:00:34.932Z</time></trkpt><trkpt lat="43.0578679" lon="11.5022595"><ele>375.0</ele><time>2026-04-04T13:00:35.934Z</time></trkpt><trkpt lat="43.0579664" lon="11.5021382"><ele>375.0</ele><time>2026-04-04T13:00:36.938Z</time></trkpt><trkpt lat="43.0580721" lon="11.5020587"><ele>375.0</ele><time>2026-04-04T13:00:37.937Z</time></trkpt><trkpt lat="43.0581937" lon="11.5020275"><ele>372.75</ele><time>2026-04-04T13:00:38.933Z</time></trkpt><trkpt lat="43.0583183" lon="11.5020045"><ele>370.5</ele><time>2026-04-04T13:00:39.93Z</time></trkpt><trkpt lat="43.0584429" lon="11.5020332"><ele>368.25</ele><time>2026-04-04T13:00:40.933Z</time></trkpt><trkpt lat="43.0585558" lon="11.5021121"><ele>366.0</ele><time>2026-04-04T13:00:41.927Z</time></trkpt><trkpt lat="43.0586615" lon="11.5022251"><ele>364.75</ele><time>2026-04-04T13:00:42.937Z</time></trkpt><trkpt lat="43.0587665" lon="11.5023463"><ele>363.5</ele><time>2026-04-04T13:00:43.93Z</time></trkpt><trkpt lat="43.058871" lon="11.5024684"><ele>362.25</ele><time>2026-04-04T13:00:44.933Z</time></trkpt><trkpt lat="43.058975" lon="11.5025965"><ele>361.0</ele><time>2026-04-04T13:00:45.942Z</time></trkpt><trkpt lat="43.0590752" lon="11.5027251"><ele>361.25</ele><time>2026-04-04T13:00:46.934Z</time></trkpt><trkpt lat="43.0591738" lon="11.5028404"><ele>361.5</ele><time>2026-04-04T13:00:47.925Z</time></trkpt><trkpt lat="43.059286" lon="11.5029244"><ele>361.75</ele><time>2026-04-04T13:00:48.934Z</time></trkpt><trkpt lat="43.0594129" lon="11.5029864"><ele>362.0</ele><time>2026-04-04T13:00:49.932Z</time></trkpt><trkpt lat="43.0595531" lon="11.5030246"><ele>357.0</ele><time>2026-04-04T13:00:50.935Z</time></trkpt><trkpt lat="43.0597011" lon="11.50304"><ele>352.0</ele><time>2026-04-04T13:00:51.92Z</time></trkpt><trkpt lat="43.0598429" lon="11.5030569"><ele>347.0</ele><time>2026-04-04T13:00:52.91Z</time></trkpt><trkpt lat="43.0599797" lon="11.5030655"><ele>342.0</ele><time>2026-04-04T13:00:53.946Z</time></trkpt><trkpt lat="43.0601155" lon="11.5030517"><ele>341.0</ele><time>2026-04-04T13:00:54.925Z</time></trkpt><trkpt lat="43.0602499" lon="11.5029974"><ele>340.0</ele><time>2026-04-04T13:00:55.927Z</time></trkpt><trkpt lat="43.0603702" lon="11.5029161"><ele>339.0</ele><time>2026-04-04T13:00:56.929Z</time></trkpt><trkpt lat="43.0604823" lon="11.5027975"><ele>338.0</ele><time>2026-04-04T13:00:57.934Z</time></trkpt><trkpt lat="43.060583" lon="11.5026677"><ele>339.0</ele><time>2026-04-04T13:00:58.93Z</time></trkpt><trkpt lat="43.0606731" lon="11.5025163"><ele>340.0</ele><time>2026-04-04T13:00:59.932Z</time></trkpt><trkpt lat="43.0607638" lon="11.5023604"><ele>341.0</ele><time>2026-04-04T13:01:00.935Z</time></trkpt><trkpt lat="43.0608581" lon="11.5022297"><ele>342.0</ele><time>2026-04-04T13:01:01.928Z</time></trkpt><trkpt lat="43.0609858" lon="11.5021452"><ele>342.0</ele><time>2026-04-04T13:01:02.936Z</time></trkpt><trkpt lat="43.0611242" lon="11.50211"><ele>342.0</ele><time>2026-04-04T13:01:03.936Z</time></trkpt><trkpt lat="43.0612672" lon="11.5020978"><ele>342.0</ele><time>2026-04-04T13:01:04.939Z</time></trkpt><trkpt lat="43.0614147" lon="11.5020621"><ele>342.0</ele><time>2026-04-04T13:01:05.944Z</time></trkpt><trkpt lat="43.0615574" lon="11.5019978"><ele>342.0</ele><time>2026-04-04T13:01:06.932Z</time></trkpt><trkpt lat="43.0616937" lon="11.5019167"><ele>342.0</ele><time>2026-04-04T13:01:07.928Z</time></trkpt><trkpt lat="43.0618226" lon="11.5018091"><ele>342.0</ele><time>2026-04-04T13:01:08.942Z</time></trkpt><trkpt lat="43.0619406" lon="11.5016914"><ele>342.0</ele><time>2026-04-04T13:01:09.934Z</time></trkpt><trkpt lat="43.0620627" lon="11.5015796"><ele>342.0</ele><time>2026-04-04T13:01:10.949Z</time></trkpt><trkpt lat="43.062185" lon="11.5014646"><ele>342.0</ele><time>2026-04-04T13:01:11.918Z</time></trkpt><trkpt lat="43.0623109" lon="11.5013476"><ele>342.0</ele><time>2026-04-04T13:01:12.935Z</time></trkpt><trkpt lat="43.0624347" lon="11.5012361"><ele>342.0</ele><time>2026-04-04T13:01:13.94Z</time></trkpt><trkpt lat="43.0625592" lon="11.5011306"><ele>340.75</ele><time>2026-04-04T13:01:14.936Z</time></trkpt><trkpt lat="43.0626917" lon="11.5010479"><ele>339.5</ele><time>2026-04-04T13:01:15.935Z</time></trkpt><trkpt lat="43.0628226" lon="11.5009985"><ele>338.25</ele><time>2026-04-04T13:01:16.94Z</time></trkpt><trkpt lat="43.0629631" lon="11.5009879"><ele>337.0</ele><time>2026-04-04T13:01:17.94Z</time></trkpt><trkpt lat="43.063106" lon="11.5010131"><ele>337.0</ele><time>2026-04-04T13:01:18.931Z</time></trkpt><trkpt lat="43.0632406" lon="11.5010683"><ele>337.0</ele><time>2026-04-04T13:01:19.933Z</time></trkpt><trkpt lat="43.0633728" lon="11.5011367"><ele>337.0</ele><time>2026-04-04T13:01:20.934Z</time></trkpt><trkpt lat="43.063514" lon="11.5012015"><ele>337.0</ele><time>2026-04-04T13:01:21.939Z</time></trkpt><trkpt lat="43.0636548" lon="11.5012782"><ele>333.5</ele><time>2026-04-04T13:01:22.929Z</time></trkpt><trkpt lat="43.0637944" lon="11.5013485"><ele>330.0</ele><time>2026-04-04T13:01:23.94Z</time></trkpt><trkpt lat="43.0639343" lon="11.5014245"><ele>326.5</ele><time>2026-04-04T13:01:24.935Z</time></trkpt><trkpt lat="43.0640697" lon="11.5014974"><ele>323.0</ele><time>2026-04-04T13:01:25.938Z</time></trkpt><trkpt lat="43.0642165" lon="11.5015754"><ele>322.6666666666667</ele><time>2026-04-04T13:01:26.935Z</time></trkpt><trkpt lat="43.0643625" lon="11.5016447"><ele>322.3333333333333</ele><time>2026-04-04T13:01:27.932Z</time></trkpt><trkpt lat="43.0645096" lon="11.5017136"><ele>322.0</ele><time>2026-04-04T13:01:28.942Z</time></trkpt><trkpt lat="43.0646594" lon="11.5017462"><ele>322.0</ele><time>2026-04-04T13:01:29.937Z</time></trkpt><trkpt lat="43.0648037" lon="11.5017389"><ele>322.0</ele><time>2026-04-04T13:01:30.949Z</time></trkpt><trkpt lat="43.064943" lon="11.5016842"><ele>322.0</ele><time>2026-04-04T13:01:31.936Z</time></trkpt><trkpt lat="43.0650717" lon="11.5016013"><ele>322.0</ele><time>2026-04-04T13:01:32.933Z</time></trkpt><trkpt lat="43.0651847" lon="11.5014962"><ele>321.75</ele><time>2026-04-04T13:01:33.927Z</time></trkpt><trkpt lat="43.0652899" lon="11.5013669"><ele>321.5</ele><time>2026-04-04T13:01:34.93Z</time></trkpt><trkpt lat="43.0653852" lon="11.501213"><ele>321.25</ele><time>2026-04-04T13:01:35.932Z</time></trkpt><trkpt lat="43.0654713" lon="11.5010455"><ele>321.0</ele><time>2026-04-04T13:01:36.943Z</time></trkpt><trkpt lat="43.065557" lon="11.5008695"><ele>321.0</ele><time>2026-04-04T13:01:37.928Z</time></trkpt><trkpt lat="43.065645" lon="11.5006878"><ele>321.0</ele><time>2026-04-04T13:01:38.938Z</time></trkpt><trkpt lat="43.0657361" lon="11.5005176"><ele>321.0</ele><time>2026-04-04T13:01:39.947Z</time></trkpt><trkpt lat="43.0658456" lon="11.5003665"><ele>318.6666666666667</ele><time>2026-04-04T13:01:40.921Z</time></trkpt><trkpt lat="43.0659721" lon="11.5002386"><ele>316.33333333333337</ele><time>2026-04-04T13:01:41.933Z</time></trkpt><trkpt lat="43.0661164" lon="11.5001564"><ele>314.0</ele><time>2026-04-04T13:01:42.933Z</time></trkpt><trkpt lat="43.066267" lon="11.5000955"><ele>314.0</ele><time>2026-04-04T13:01:43.928Z</time></trkpt><trkpt lat="43.0664223" lon="11.5000441"><ele>314.0</ele><time>2026-04-04T13:01:44.932Z</time></trkpt><trkpt lat="43.0665773" lon="11.4999862"><ele>314.0</ele><time>2026-04-04T13:01:45.935Z</time></trkpt><trkpt lat="43.066731" lon="11.4999286"><ele>311.33333333333337</ele><time>2026-04-04T13:01:46.937Z</time></trkpt><trkpt lat="43.0668813" lon="11.4998572"><ele>308.6666666666667</ele><time>2026-04-04T13:01:47.94Z</time></trkpt><trkpt lat="43.0670236" lon="11.4997626"><ele>306.0</ele><time>2026-04-04T13:01:48.937Z</time></trkpt><trkpt lat="43.0671645" lon="11.4996549"><ele>305.3333333333333</ele><time>2026-04-04T13:01:49.926Z</time></trkpt><trkpt lat="43.0673089" lon="11.4995487"><ele>304.66666666666663</ele><time>2026-04-04T13:01:50.928Z</time></trkpt><trkpt lat="43.0674553" lon="11.4994495"><ele>304.0</ele><time>2026-04-04T13:01:51.936Z</time></trkpt><trkpt lat="43.0676095" lon="11.4993701"><ele>304.0</ele><time>2026-04-04T13:01:52.917Z</time></trkpt><trkpt lat="43.0677612" lon="11.4992902"><ele>304.0</ele><time>2026-04-04T13:01:53.933Z</time></trkpt><trkpt lat="43.0679174" lon="11.499222"><ele>304.0</ele><time>2026-04-04T13:01:54.938Z</time></trkpt><trkpt lat="43.0680787" lon="11.4991693"><ele>304.0</ele><time>2026-04-04T13:01:55.931Z</time></trkpt><trkpt lat="43.0682437" lon="11.4991221"><ele>304.0</ele><time>2026-04-04T13:01:56.935Z</time></trkpt><trkpt lat="43.0684112" lon="11.4990743"><ele>304.0</ele><time>2026-04-04T13:01:57.921Z</time></trkpt><trkpt lat="43.0685806" lon="11.4990182"><ele>300.66666666666663</ele><time>2026-04-04T13:01:58.932Z</time></trkpt><trkpt lat="43.0687509" lon="11.4989656"><ele>297.3333333333333</ele><time>2026-04-04T13:01:59.945Z</time></trkpt><trkpt lat="43.068921" lon="11.4989094"><ele>294.0</ele><time>2026-04-04T13:02:00.931Z</time></trkpt><trkpt lat="43.0690877" lon="11.4988569"><ele>292.3333333333333</ele><time>2026-04-04T13:02:01.933Z</time></trkpt><trkpt lat="43.0692563" lon="11.4988018"><ele>290.66666666666663</ele><time>2026-04-04T13:02:02.929Z</time></trkpt><trkpt lat="43.0694243" lon="11.4987487"><ele>289.0</ele><time>2026-04-04T13:02:03.942Z</time></trkpt><trkpt lat="43.069591" lon="11.4987007"><ele>289.0</ele><time>2026-04-04T13:02:04.93Z</time></trkpt><trkpt lat="43.0697588" lon="11.4986523"><ele>289.0</ele><time>2026-04-04T13:02:05.937Z</time></trkpt><trkpt lat="43.0699214" lon="11.4985906"><ele>289.0</ele><time>2026-04-04T13:02:06.936Z</time></trkpt><trkpt lat="43.0700832" lon="11.498521"><ele>287.66666666666663</ele><time>2026-04-04T13:02:07.935Z</time></trkpt><trkpt lat="43.0702379" lon="11.4984322"><ele>286.3333333333333</ele><time>2026-04-04T13:02:08.938Z</time></trkpt><trkpt lat="43.0703901" lon="11.4983331"><ele>285.0</ele><time>2026-04-04T13:02:09.93Z</time></trkpt><trkpt lat="43.0705428" lon="11.4982327"><ele>285.0</ele><time>2026-04-04T13:02:10.933Z</time></trkpt><trkpt lat="43.0706954" lon="11.4981241"><ele>285.0</ele><time>2026-04-04T13:02:11.926Z</time></trkpt><trkpt lat="43.0708473" lon="11.4980069"><ele>285.0</ele><time>2026-04-04T13:02:12.937Z</time></trkpt><trkpt lat="43.0709968" lon="11.4978884"><ele>282.3333333333333</ele><time>2026-04-04T13:02:13.93Z</time></trkpt><trkpt lat="43.0711466" lon="11.4977736"><ele>279.66666666666663</ele><time>2026-04-04T13:02:14.918Z</time></trkpt><trkpt lat="43.0712947" lon="11.4976581"><ele>277.0</ele><time>2026-04-04T13:02:15.942Z</time></trkpt><trkpt lat="43.0714429" lon="11.4975426"><ele>277.0</ele><time>2026-04-04T13:02:16.936Z</time></trkpt><trkpt lat="43.0715881" lon="11.4974289"><ele>277.0</ele><time>2026-04-04T13:02:17.924Z</time></trkpt><trkpt lat="43.0717398" lon="11.4973104"><ele>277.0</ele><time>2026-04-04T13:02:18.95Z</time></trkpt><trkpt lat="43.0718905" lon="11.4971993"><ele>275.66666666666663</ele><time>2026-04-04T13:02:19.919Z</time></trkpt><trkpt lat="43.0720399" lon="11.4970836"><ele>274.3333333333333</ele><time>2026-04-04T13:02:20.936Z</time></trkpt><trkpt lat="43.0721883" lon="11.4969693"><ele>273.0</ele><time>2026-04-04T13:02:21.926Z</time></trkpt><trkpt lat="43.0723392" lon="11.4968508"><ele>274.0</ele><time>2026-04-04T13:02:22.931Z</time></trkpt><trkpt lat="43.072487" lon="11.4967362"><ele>275.0</ele><time>2026-04-04T13:02:23.941Z</time></trkpt><trkpt lat="43.072635" lon="11.4966357"><ele>276.0</ele><time>2026-04-04T13:02:24.942Z</time></trkpt><trkpt lat="43.0727852" lon="11.49655"><ele>276.0</ele><time>2026-04-04T13:02:25.934Z</time></trkpt><trkpt lat="43.0729318" lon="11.4964813"><ele>276.0</ele><time>2026-04-04T13:02:26.938Z</time></trkpt><trkpt lat="43.0730853" lon="11.4964145"><ele>276.0</ele><time>2026-04-04T13:02:27.937Z</time></trkpt><trkpt lat="43.073243" lon="11.4963479"><ele>275.0</ele><time>2026-04-04T13:02:28.936Z</time></trkpt><trkpt lat="43.0733999" lon="11.4962792"><ele>274.0</ele><time>2026-04-04T13:02:29.948Z</time></trkpt><trkpt lat="43.0735589" lon="11.4962035"><ele>273.0</ele><time>2026-04-04T13:02:30.946Z</time></trkpt><trkpt lat="43.0737176" lon="11.4961196"><ele>270.3333333333333</ele><time>2026-04-04T13:02:31.929Z</time></trkpt><trkpt lat="43.0738775" lon="11.4960275"><ele>267.66666666666663</ele><time>2026-04-04T13:02:32.927Z</time></trkpt><trkpt lat="43.0740307" lon="11.4959224"><ele>265.0</ele><time>2026-04-04T13:02:33.942Z</time></trkpt><trkpt lat="43.0741798" lon="11.4958097"><ele>264.66666666666663</ele><time>2026-04-04T13:02:34.931Z</time></trkpt><trkpt lat="43.0743316" lon="11.4956872"><ele>264.3333333333333</ele><time>2026-04-04T13:02:35.938Z</time></trkpt><trkpt lat="43.07448" lon="11.4955589"><ele>264.0</ele><time>2026-04-04T13:02:36.928Z</time></trkpt><trkpt lat="43.0746257" lon="11.4954311"><ele>262.6666666666667</ele><time>2026-04-04T13:02:37.916Z</time></trkpt><trkpt lat="43.0747723" lon="11.4953051"><ele>261.33333333333337</ele><time>2026-04-04T13:02:38.947Z</time></trkpt><trkpt lat="43.0749138" lon="11.4951851"><ele>260.0</ele><time>2026-04-04T13:02:39.934Z</time></trkpt><trkpt lat="43.0750551" lon="11.4950652"><ele>259.33333333333337</ele><time>2026-04-04T13:02:40.94Z</time></trkpt><trkpt lat="43.0751985" lon="11.4949446"><ele>258.6666666666667</ele><time>2026-04-04T13:02:41.925Z</time></trkpt><trkpt lat="43.0753418" lon="11.4948227"><ele>258.0</ele><time>2026-04-04T13:02:42.939Z</time></trkpt><trkpt lat="43.0754821" lon="11.4947028"><ele>257.0</ele><time>2026-04-04T13:02:43.956Z</time></trkpt><trkpt lat="43.0756199" lon="11.494577"><ele>256.0</ele><time>2026-04-04T13:02:44.926Z</time></trkpt><trkpt lat="43.0757593" lon="11.494449"><ele>255.0</ele><time>2026-04-04T13:02:45.931Z</time></trkpt><trkpt lat="43.0758952" lon="11.4943177"><ele>254.33333333333331</ele><time>2026-04-04T13:02:46.937Z</time></trkpt><trkpt lat="43.076028" lon="11.4941772"><ele>253.66666666666666</ele><time>2026-04-04T13:02:47.93Z</time></trkpt><trkpt lat="43.076163" lon="11.4940409"><ele>253.0</ele><time>2026-04-04T13:02:48.939Z</time></trkpt><trkpt lat="43.0762989" lon="11.4939003"><ele>253.0</ele><time>2026-04-04T13:02:49.925Z</time></trkpt><trkpt lat="43.0764337" lon="11.4937573"><ele>253.0</ele><time>2026-04-04T13:02:50.937Z</time></trkpt><trkpt lat="43.076566" lon="11.4936158"><ele>253.0</ele><time>2026-04-04T13:02:51.926Z</time></trkpt><trkpt lat="43.0766955" lon="11.4934795"><ele>252.33333333333331</ele><time>2026-04-04T13:02:52.933Z</time></trkpt><trkpt lat="43.07683" lon="11.4933541"><ele>251.66666666666669</ele><time>2026-04-04T13:02:53.931Z</time></trkpt><trkpt lat="43.0769638" lon="11.4932311"><ele>251.0</ele><time>2026-04-04T13:02:54.929Z</time></trkpt><trkpt lat="43.0770992" lon="11.49313"><ele>251.0</ele><time>2026-04-04T13:02:55.928Z</time></trkpt><trkpt lat="43.0772348" lon="11.4930438"><ele>251.0</ele><time>2026-04-04T13:02:56.935Z</time></trkpt><trkpt lat="43.0773599" lon="11.4929743"><ele>251.0</ele><time>2026-04-04T13:02:57.933Z</time></trkpt><trkpt lat="43.0774647" lon="11.4929264"><ele>251.0</ele><time>2026-04-04T13:02:58.935Z</time></trkpt><trkpt lat="43.077559" lon="11.4928815"><ele>250.8</ele><time>2026-04-04T13:02:59.943Z</time></trkpt><trkpt lat="43.0776247" lon="11.4928594"><ele>250.60000000000002</ele><time>2026-04-04T13:03:00.94Z</time></trkpt><trkpt lat="43.0777381" lon="11.4929094"><ele>250.4</ele><time>2026-04-04T13:03:02.935Z</time></trkpt><trkpt lat="43.0778402" lon="11.4930175"><ele>250.2</ele><time>2026-04-04T13:03:04.931Z</time></trkpt><trkpt lat="43.0779067" lon="11.493091"><ele>250.0</ele><time>2026-04-04T13:03:05.925Z</time></trkpt><trkpt lat="43.0779785" lon="11.4931664"><ele>250.0</ele><time>2026-04-04T13:03:06.94Z</time></trkpt><trkpt lat="43.0780512" lon="11.4932492"><ele>250.0</ele><time>2026-04-04T13:03:07.932Z</time></trkpt><trkpt lat="43.0781278" lon="11.4933409"><ele>250.0</ele><time>2026-04-04T13:03:08.927Z</time></trkpt><trkpt lat="43.0782003" lon="11.4934419"><ele>250.0</ele><time>2026-04-04T13:03:09.933Z</time></trkpt><trkpt lat="43.0782707" lon="11.4935402"><ele>250.0</ele><time>2026-04-04T13:03:10.924Z</time></trkpt><trkpt lat="43.0783459" lon="11.4936461"><ele>250.8</ele><time>2026-04-04T13:03:11.929Z</time></trkpt><trkpt lat="43.0784208" lon="11.4937557"><ele>251.6</ele><time>2026-04-04T13:03:12.921Z</time></trkpt><trkpt lat="43.0784956" lon="11.4938663"><ele>252.39999999999998</ele><time>2026-04-04T13:03:13.927Z</time></trkpt><trkpt lat="43.0785712" lon="11.4939785"><ele>253.2</ele><time>2026-04-04T13:03:14.948Z</time></trkpt><trkpt lat="43.0786396" lon="11.4940966"><ele>254.0</ele><time>2026-04-04T13:03:15.918Z</time></trkpt><trkpt lat="43.0786946" lon="11.4942186"><ele>254.0</ele><time>2026-04-04T13:03:16.938Z</time></trkpt><trkpt lat="43.0787415" lon="11.4943435"><ele>253.99999999999997</ele><time>2026-04-04T13:03:17.94Z</time></trkpt><trkpt lat="43.0787841" lon="11.4944666"><ele>253.99999999999997</ele><time>2026-04-04T13:03:18.945Z</time></trkpt><trkpt lat="43.0788289" lon="11.4945999"><ele>254.0</ele><time>2026-04-04T13:03:19.936Z</time></trkpt><trkpt lat="43.078867" lon="11.4947251"><ele>254.0</ele><time>2026-04-04T13:03:20.926Z</time></trkpt><trkpt lat="43.0789097" lon="11.4948533"><ele>254.0</ele><time>2026-04-04T13:03:21.918Z</time></trkpt><trkpt lat="43.0789545" lon="11.4949764"><ele>253.99999999999997</ele><time>2026-04-04T13:03:22.939Z</time></trkpt><trkpt lat="43.0789956" lon="11.4951019"><ele>253.99999999999997</ele><time>2026-04-04T13:03:23.932Z</time></trkpt><trkpt lat="43.0790392" lon="11.4952238"><ele>254.0</ele><time>2026-04-04T13:03:24.929Z</time></trkpt><trkpt lat="43.0790814" lon="11.4953401"><ele>254.0</ele><time>2026-04-04T13:03:25.922Z</time></trkpt><trkpt lat="43.07912" lon="11.495457"><ele>255.6</ele><time>2026-04-04T13:03:26.955Z</time></trkpt><trkpt lat="43.0791605" lon="11.4955779"><ele>257.2</ele><time>2026-04-04T13:03:27.931Z</time></trkpt><trkpt lat="43.0792021" lon="11.4957043"><ele>258.79999999999995</ele><time>2026-04-04T13:03:28.938Z</time></trkpt><trkpt lat="43.0792467" lon="11.4958275"><ele>260.4</ele><time>2026-04-04T13:03:29.947Z</time></trkpt><trkpt lat="43.0792867" lon="11.4959469"><ele>262.0</ele><time>2026-04-04T13:03:30.932Z</time></trkpt><trkpt lat="43.0793275" lon="11.4960657"><ele>262.0</ele><time>2026-04-04T13:03:31.931Z</time></trkpt><trkpt lat="43.079366" lon="11.4961819"><ele>262.0</ele><time>2026-04-04T13:03:32.919Z</time></trkpt><trkpt lat="43.0794093" lon="11.4963004"><ele>262.0</ele><time>2026-04-04T13:03:33.936Z</time></trkpt><trkpt lat="43.0794501" lon="11.4964215"><ele>262.0</ele><time>2026-04-04T13:03:34.936Z</time></trkpt><trkpt lat="43.0794876" lon="11.4965368"><ele>262.0</ele><time>2026-04-04T13:03:35.928Z</time></trkpt><trkpt lat="43.0795151" lon="11.4966543"><ele>262.16666666666663</ele><time>2026-04-04T13:03:36.933Z</time></trkpt><trkpt lat="43.0795341" lon="11.4967779"><ele>262.3333333333333</ele><time>2026-04-04T13:03:37.92Z</time></trkpt><trkpt lat="43.0795403" lon="11.4968999"><ele>262.5</ele><time>2026-04-04T13:03:38.932Z</time></trkpt><trkpt lat="43.0795474" lon="11.4970185"><ele>262.6666666666667</ele><time>2026-04-04T13:03:39.932Z</time></trkpt><trkpt lat="43.0795542" lon="11.4971409"><ele>262.83333333333337</ele><time>2026-04-04T13:03:40.934Z</time></trkpt><trkpt lat="43.0795737" lon="11.4972594"><ele>263.0</ele><time>2026-04-04T13:03:41.925Z</time></trkpt><trkpt lat="43.0796051" lon="11.4973784"><ele>263.0</ele><time>2026-04-04T13:03:42.93Z</time></trkpt><trkpt lat="43.0796442" lon="11.4975008"><ele>263.0</ele><time>2026-04-04T13:03:43.92Z</time></trkpt><trkpt lat="43.0796848" lon="11.4976225"><ele>263.0</ele><time>2026-04-04T13:03:44.933Z</time></trkpt><trkpt lat="43.0797227" lon="11.4977463"><ele>263.0</ele><time>2026-04-04T13:03:45.928Z</time></trkpt><trkpt lat="43.079761" lon="11.4978707"><ele>263.0</ele><time>2026-04-04T13:03:46.94Z</time></trkpt><trkpt lat="43.0798005" lon="11.4979931"><ele>262.4</ele><time>2026-04-04T13:03:47.929Z</time></trkpt><trkpt lat="43.0798366" lon="11.4981178"><ele>261.8</ele><time>2026-04-04T13:03:48.935Z</time></trkpt><trkpt lat="43.0798742" lon="11.4982369"><ele>261.2</ele><time>2026-04-04T13:03:49.921Z</time></trkpt><trkpt lat="43.0799148" lon="11.4983479"><ele>260.6</ele><time>2026-04-04T13:03:50.937Z</time></trkpt><trkpt lat="43.079954" lon="11.4984622"><ele>260.0</ele><time>2026-04-04T13:03:51.934Z</time></trkpt><trkpt lat="43.0800014" lon="11.4985689"><ele>261.6</ele><time>2026-04-04T13:03:52.931Z</time></trkpt><trkpt lat="43.0800579" lon="11.4986717"><ele>263.2</ele><time>2026-04-04T13:03:53.934Z</time></trkpt><trkpt lat="43.0801245" lon="11.49877"><ele>264.8</ele><time>2026-04-04T13:03:54.917Z</time></trkpt><trkpt lat="43.0801969" lon="11.49887"><ele>266.4</ele><time>2026-04-04T13:03:55.928Z</time></trkpt><trkpt lat="43.0802682" lon="11.4989847"><ele>268.0</ele><time>2026-04-04T13:03:56.928Z</time></trkpt><trkpt lat="43.0803468" lon="11.4991019"><ele>268.0</ele><time>2026-04-04T13:03:57.933Z</time></trkpt><trkpt lat="43.0804249" lon="11.4992203"><ele>268.0</ele><time>2026-04-04T13:03:58.919Z</time></trkpt><trkpt lat="43.0805093" lon="11.4993375"><ele>268.0</ele><time>2026-04-04T13:03:59.921Z</time></trkpt><trkpt lat="43.0805931" lon="11.4994625"><ele>268.0</ele><time>2026-04-04T13:04:00.931Z</time></trkpt><trkpt lat="43.0806749" lon="11.4995955"><ele>268.0</ele><time>2026-04-04T13:04:01.925Z</time></trkpt><trkpt lat="43.0807543" lon="11.4997261"><ele>268.0</ele><time>2026-04-04T13:04:02.927Z</time></trkpt><trkpt lat="43.0808324" lon="11.49985"><ele>268.0</ele><time>2026-04-04T13:04:03.923Z</time></trkpt><trkpt lat="43.0809186" lon="11.4999706"><ele>268.0</ele><time>2026-04-04T13:04:04.932Z</time></trkpt><trkpt lat="43.0810067" lon="11.5000784"><ele>268.0</ele><time>2026-04-04T13:04:05.932Z</time></trkpt><trkpt lat="43.0811014" lon="11.5001582"><ele>268.0</ele><time>2026-04-04T13:04:06.924Z</time></trkpt><trkpt lat="43.0812004" lon="11.5002288"><ele>268.0</ele><time>2026-04-04T13:04:07.93Z</time></trkpt><trkpt lat="43.0813076" lon="11.5002783"><ele>268.0</ele><time>2026-04-04T13:04:08.93Z</time></trkpt><trkpt lat="43.0814184" lon="11.5003135"><ele>268.0</ele><time>2026-04-04T13:04:09.921Z</time></trkpt><trkpt lat="43.0815323" lon="11.5003446"><ele>268.0</ele><time>2026-04-04T13:04:10.925Z</time></trkpt><trkpt lat="43.081641" lon="11.5003721"><ele>268.0</ele><time>2026-04-04T13:04:11.926Z</time></trkpt><trkpt lat="43.0817585" lon="11.5004001"><ele>268.0</ele><time>2026-04-04T13:04:12.928Z</time></trkpt><trkpt lat="43.0818804" lon="11.5004302"><ele>267.75</ele><time>2026-04-04T13:04:13.927Z</time></trkpt><trkpt lat="43.0820008" lon="11.5004654"><ele>267.5</ele><time>2026-04-04T13:04:14.928Z</time></trkpt><trkpt lat="43.0821162" lon="11.5004975"><ele>267.25</ele><time>2026-04-04T13:04:15.945Z</time></trkpt><trkpt lat="43.082235" lon="11.5005359"><ele>267.0</ele><time>2026-04-04T13:04:16.922Z</time></trkpt><trkpt lat="43.0823522" lon="11.5005774"><ele>267.75</ele><time>2026-04-04T13:04:17.928Z</time></trkpt><trkpt lat="43.082469" lon="11.5006237"><ele>268.5</ele><time>2026-04-04T13:04:18.927Z</time></trkpt><trkpt lat="43.0825819" lon="11.5006741"><ele>269.25</ele><time>2026-04-04T13:04:19.94Z</time></trkpt><trkpt lat="43.0826996" lon="11.5007304"><ele>270.0</ele><time>2026-04-04T13:04:20.932Z</time></trkpt><trkpt lat="43.0828168" lon="11.5007965"><ele>270.0</ele><time>2026-04-04T13:04:21.927Z</time></trkpt><trkpt lat="43.0829354" lon="11.5008631"><ele>270.0</ele><time>2026-04-04T13:04:22.928Z</time></trkpt><trkpt lat="43.083056" lon="11.5009315"><ele>270.0</ele><time>2026-04-04T13:04:23.937Z</time></trkpt><trkpt lat="43.0831782" lon="11.5010108"><ele>270.0</ele><time>2026-04-04T13:04:24.924Z</time></trkpt><trkpt lat="43.0833037" lon="11.5010884"><ele>269.25</ele><time>2026-04-04T13:04:25.94Z</time></trkpt><trkpt lat="43.0834264" lon="11.5011611"><ele>268.5</ele><time>2026-04-04T13:04:26.931Z</time></trkpt><trkpt lat="43.0835465" lon="11.5012354"><ele>267.75</ele><time>2026-04-04T13:04:27.929Z</time></trkpt><trkpt lat="43.0836648" lon="11.5013046"><ele>267.0</ele><time>2026-04-04T13:04:28.919Z</time></trkpt><trkpt lat="43.0837831" lon="11.5013725"><ele>267.0</ele><time>2026-04-04T13:04:29.933Z</time></trkpt><trkpt lat="43.0838885" lon="11.5014375"><ele>267.0</ele><time>2026-04-04T13:04:30.924Z</time></trkpt><trkpt lat="43.08398" lon="11.5015008"><ele>267.0</ele><time>2026-04-04T13:04:31.938Z</time></trkpt><trkpt lat="43.084058" lon="11.5015553"><ele>267.0</ele><time>2026-04-04T13:04:32.929Z</time></trkpt><trkpt lat="43.0841266" lon="11.5015977"><ele>267.0</ele><time>2026-04-04T13:04:33.931Z</time></trkpt><trkpt lat="43.0842073" lon="11.501677"><ele>267.2</ele><time>2026-04-04T13:04:35.937Z</time></trkpt><trkpt lat="43.0842392" lon="11.5017987"><ele>267.4</ele><time>2026-04-04T13:04:37.934Z</time></trkpt><trkpt lat="43.0842151" lon="11.5019635"><ele>267.6</ele><time>2026-04-04T13:04:39.936Z</time></trkpt><trkpt lat="43.0841849" lon="11.5020586"><ele>267.8</ele><time>2026-04-04T13:04:40.934Z</time></trkpt><trkpt lat="43.0841517" lon="11.502168"><ele>268.0</ele><time>2026-04-04T13:04:41.934Z</time></trkpt><trkpt lat="43.0841236" lon="11.5022898"><ele>268.0</ele><time>2026-04-04T13:04:42.927Z</time></trkpt><trkpt lat="43.0840952" lon="11.5024098"><ele>268.0</ele><time>2026-04-04T13:04:43.931Z</time></trkpt><trkpt lat="43.084066" lon="11.5025372"><ele>268.0</ele><time>2026-04-04T13:04:44.923Z</time></trkpt><trkpt lat="43.0840461" lon="11.5026695"><ele>268.0</ele><time>2026-04-04T13:04:45.925Z</time></trkpt><trkpt lat="43.0840388" lon="11.5028067"><ele>268.0</ele><time>2026-04-04T13:04:46.92Z</time></trkpt><trkpt lat="43.0840371" lon="11.5029404"><ele>269.2</ele><time>2026-04-04T13:04:47.923Z</time></trkpt><trkpt lat="43.084046" lon="11.503073"><ele>270.4</ele><time>2026-04-04T13:04:48.924Z</time></trkpt><trkpt lat="43.0840599" lon="11.5032143"><ele>271.59999999999997</ele><time>2026-04-04T13:04:49.931Z</time></trkpt><trkpt lat="43.0840682" lon="11.50335"><ele>272.8</ele><time>2026-04-04T13:04:50.936Z</time></trkpt><trkpt lat="43.0840624" lon="11.5034807"><ele>274.0</ele><time>2026-04-04T13:04:51.94Z</time></trkpt><trkpt lat="43.0840468" lon="11.5036151"><ele>274.0</ele><time>2026-04-04T13:04:52.931Z</time></trkpt><trkpt lat="43.0840184" lon="11.5037373"><ele>274.0</ele><time>2026-04-04T13:04:53.934Z</time></trkpt><trkpt lat="43.083979" lon="11.5038531"><ele>274.0</ele><time>2026-04-04T13:04:54.924Z</time></trkpt><trkpt lat="43.0839361" lon="11.5039573"><ele>274.0</ele><time>2026-04-04T13:04:55.93Z</time></trkpt><trkpt lat="43.0838884" lon="11.5040568"><ele>274.0</ele><time>2026-04-04T13:04:56.928Z</time></trkpt><trkpt lat="43.0838437" lon="11.504145"><ele>274.0</ele><time>2026-04-04T13:04:57.935Z</time></trkpt><trkpt lat="43.0837938" lon="11.5042266"><ele>274.8333333333333</ele><time>2026-04-04T13:04:58.926Z</time></trkpt><trkpt lat="43.0837352" lon="11.5042799"><ele>275.66666666666663</ele><time>2026-04-04T13:04:59.937Z</time></trkpt><trkpt lat="43.0836682" lon="11.5043052"><ele>276.5</ele><time>2026-04-04T13:05:00.932Z</time></trkpt><trkpt lat="43.083584" lon="11.5042999"><ele>277.3333333333333</ele><time>2026-04-04T13:05:01.934Z</time></trkpt><trkpt lat="43.0835006" lon="11.5042732"><ele>278.1666666666667</ele><time>2026-04-04T13:05:02.937Z</time></trkpt><trkpt lat="43.0834135" lon="11.5042489"><ele>279.0</ele><time>2026-04-04T13:05:03.932Z</time></trkpt><trkpt lat="43.0833199" lon="11.5042301"><ele>280.5</ele><time>2026-04-04T13:05:04.931Z</time></trkpt><trkpt lat="43.0832268" lon="11.5042094"><ele>282.0</ele><time>2026-04-04T13:05:05.936Z</time></trkpt><trkpt lat="43.0831411" lon="11.5042163"><ele>283.5</ele><time>2026-04-04T13:05:06.937Z</time></trkpt><trkpt lat="43.0830654" lon="11.5042522"><ele>285.0</ele><time>2026-04-04T13:05:07.934Z</time></trkpt><trkpt lat="43.0829978" lon="11.5043242"><ele>286.5</ele><time>2026-04-04T13:05:08.938Z</time></trkpt><trkpt lat="43.0829256" lon="11.5044088"><ele>288.0</ele><time>2026-04-04T13:05:09.933Z</time></trkpt><trkpt lat="43.0828616" lon="11.5045066"><ele>289.0</ele><time>2026-04-04T13:05:10.928Z</time></trkpt><trkpt lat="43.082798" lon="11.504613"><ele>290.0</ele><time>2026-04-04T13:05:11.933Z</time></trkpt><trkpt lat="43.0827326" lon="11.5047254"><ele>291.0</ele><time>2026-04-04T13:05:12.921Z</time></trkpt><trkpt lat="43.0826669" lon="11.504843"><ele>292.0</ele><time>2026-04-04T13:05:13.932Z</time></trkpt><trkpt lat="43.0825962" lon="11.5049674"><ele>293.0</ele><time>2026-04-04T13:05:14.918Z</time></trkpt><trkpt lat="43.082535" lon="11.5050781"><ele>293.0</ele><time>2026-04-04T13:05:15.932Z</time></trkpt><trkpt lat="43.0824737" lon="11.5051822"><ele>293.0</ele><time>2026-04-04T13:05:16.936Z</time></trkpt><trkpt lat="43.0824144" lon="11.505288"><ele>293.0</ele><time>2026-04-04T13:05:17.936Z</time></trkpt><trkpt lat="43.0823531" lon="11.5053888"><ele>293.0</ele><time>2026-04-04T13:05:18.948Z</time></trkpt><trkpt lat="43.0822983" lon="11.5054823"><ele>293.0</ele><time>2026-04-04T13:05:19.921Z</time></trkpt><trkpt lat="43.0822516" lon="11.505568"><ele>294.4</ele><time>2026-04-04T13:05:20.931Z</time></trkpt><trkpt lat="43.0822107" lon="11.5056372"><ele>295.8</ele><time>2026-04-04T13:05:21.938Z</time></trkpt><trkpt lat="43.0821437" lon="11.5057528"><ele>297.2</ele><time>2026-04-04T13:05:23.934Z</time></trkpt><trkpt lat="43.0820786" lon="11.5058621"><ele>298.6</ele><time>2026-04-04T13:05:25.927Z</time></trkpt><trkpt lat="43.0820199" lon="11.5059752"><ele>300.0</ele><time>2026-04-04T13:05:27.928Z</time></trkpt><trkpt lat="43.0819604" lon="11.5060862"><ele>300.0</ele><time>2026-04-04T13:05:29.926Z</time></trkpt><trkpt lat="43.0818926" lon="11.5062035"><ele>300.0</ele><time>2026-04-04T13:05:31.92Z</time></trkpt><trkpt lat="43.0818231" lon="11.5063339"><ele>300.0</ele><time>2026-04-04T13:05:33.936Z</time></trkpt><trkpt lat="43.0817522" lon="11.5064656"><ele>300.0</ele><time>2026-04-04T13:05:35.931Z</time></trkpt><trkpt lat="43.0816768" lon="11.5065945"><ele>299.4</ele><time>2026-04-04T13:05:37.921Z</time></trkpt><trkpt lat="43.0815971" lon="11.50671"><ele>298.8</ele><time>2026-04-04T13:05:39.934Z</time></trkpt><trkpt lat="43.0815129" lon="11.5068492"><ele>298.2</ele><time>2026-04-04T13:05:41.929Z</time></trkpt><trkpt lat="43.0814651" lon="11.5069273"><ele>297.6</ele><time>2026-04-04T13:05:42.921Z</time></trkpt><trkpt lat="43.0814117" lon="11.5070155"><ele>297.0</ele><time>2026-04-04T13:05:43.927Z</time></trkpt><trkpt lat="43.0813539" lon="11.5071095"><ele>299.0</ele><time>2026-04-04T13:05:44.929Z</time></trkpt><trkpt lat="43.08129" lon="11.5072141"><ele>301.0</ele><time>2026-04-04T13:05:45.925Z</time></trkpt><trkpt lat="43.0812243" lon="11.5073205"><ele>303.0</ele><time>2026-04-04T13:05:46.932Z</time></trkpt><trkpt lat="43.0811564" lon="11.5074228"><ele>305.0</ele><time>2026-04-04T13:05:47.922Z</time></trkpt><trkpt lat="43.0810913" lon="11.5075356"><ele>307.0</ele><time>2026-04-04T13:05:48.929Z</time></trkpt><trkpt lat="43.0810274" lon="11.5076479"><ele>307.0</ele><time>2026-04-04T13:05:49.94Z</time></trkpt><trkpt lat="43.0809644" lon="11.5077597"><ele>307.0</ele><time>2026-04-04T13:05:50.925Z</time></trkpt><trkpt lat="43.080902" lon="11.5078696"><ele>307.0</ele><time>2026-04-04T13:05:51.928Z</time></trkpt><trkpt lat="43.0808406" lon="11.5079811"><ele>307.0</ele><time>2026-04-04T13:05:52.939Z</time></trkpt><trkpt lat="43.0807766" lon="11.508097"><ele>307.0</ele><time>2026-04-04T13:05:53.921Z</time></trkpt><trkpt lat="43.08071" lon="11.5081982"><ele>307.0</ele><time>2026-04-04T13:05:54.94Z</time></trkpt><trkpt lat="43.0806447" lon="11.5083008"><ele>307.0</ele><time>2026-04-04T13:05:55.928Z</time></trkpt><trkpt lat="43.0805788" lon="11.5084162"><ele>307.0</ele><time>2026-04-04T13:05:56.935Z</time></trkpt><trkpt lat="43.0805166" lon="11.5085323"><ele>307.0</ele><time>2026-04-04T13:05:57.927Z</time></trkpt><trkpt lat="43.0804574" lon="11.5086497"><ele>307.0</ele><time>2026-04-04T13:05:58.945Z</time></trkpt><trkpt lat="43.0803905" lon="11.5087767"><ele>306.5</ele><time>2026-04-04T13:05:59.938Z</time></trkpt><trkpt lat="43.0803246" lon="11.5089038"><ele>306.0</ele><time>2026-04-04T13:06:00.924Z</time></trkpt><trkpt lat="43.0802694" lon="11.5090433"><ele>305.5</ele><time>2026-04-04T13:06:01.934Z</time></trkpt><trkpt lat="43.0802106" lon="11.5091754"><ele>305.0</ele><time>2026-04-04T13:06:02.924Z</time></trkpt><trkpt lat="43.080156" lon="11.5093126"><ele>305.0</ele><time>2026-04-04T13:06:03.937Z</time></trkpt><trkpt lat="43.0800971" lon="11.5094518"><ele>305.0</ele><time>2026-04-04T13:06:04.937Z</time></trkpt><trkpt lat="43.0800365" lon="11.5095892"><ele>305.0</ele><time>2026-04-04T13:06:05.934Z</time></trkpt><trkpt lat="43.0799835" lon="11.5097284"><ele>305.0</ele><time>2026-04-04T13:06:06.933Z</time></trkpt><trkpt lat="43.0799416" lon="11.5098605"><ele>303.6</ele><time>2026-04-04T13:06:07.936Z</time></trkpt><trkpt lat="43.0799108" lon="11.5099852"><ele>302.2</ele><time>2026-04-04T13:06:08.93Z</time></trkpt><trkpt lat="43.0798999" lon="11.5101133"><ele>300.8</ele><time>2026-04-04T13:06:09.938Z</time></trkpt><trkpt lat="43.0799007" lon="11.510248"><ele>299.4</ele><time>2026-04-04T13:06:10.939Z</time></trkpt><trkpt lat="43.0799096" lon="11.5103774"><ele>298.0</ele><time>2026-04-04T13:06:11.939Z</time></trkpt><trkpt lat="43.0799124" lon="11.5105044"><ele>297.8</ele><time>2026-04-04T13:06:12.926Z</time></trkpt><trkpt lat="43.0799237" lon="11.5106333"><ele>297.6</ele><time>2026-04-04T13:06:13.918Z</time></trkpt><trkpt lat="43.0799343" lon="11.5107703"><ele>297.4</ele><time>2026-04-04T13:06:14.935Z</time></trkpt><trkpt lat="43.0799453" lon="11.51091"><ele>297.2</ele><time>2026-04-04T13:06:15.924Z</time></trkpt><trkpt lat="43.0799592" lon="11.5110539"><ele>297.0</ele><time>2026-04-04T13:06:16.935Z</time></trkpt><trkpt lat="43.0799786" lon="11.5111933"><ele>299.6</ele><time>2026-04-04T13:06:17.919Z</time></trkpt><trkpt lat="43.0800077" lon="11.5113266"><ele>302.2</ele><time>2026-04-04T13:06:18.929Z</time></trkpt><trkpt lat="43.0800506" lon="11.5114542"><ele>304.8</ele><time>2026-04-04T13:06:19.928Z</time></trkpt><trkpt lat="43.0801033" lon="11.5115703"><ele>307.4</ele><time>2026-04-04T13:06:20.941Z</time></trkpt><trkpt lat="43.0801519" lon="11.5116672"><ele>310.0</ele><time>2026-04-04T13:06:21.934Z</time></trkpt><trkpt lat="43.0802105" lon="11.511774"><ele>310.0</ele><time>2026-04-04T13:06:23.929Z</time></trkpt><trkpt lat="43.0802507" lon="11.511845"><ele>310.0</ele><time>2026-04-04T13:06:25.933Z</time></trkpt><trkpt lat="43.0802985" lon="11.5119223"><ele>310.0</ele><time>2026-04-04T13:06:27.935Z</time></trkpt><trkpt lat="43.080349" lon="11.5120084"><ele>310.0</ele><time>2026-04-04T13:06:29.929Z</time></trkpt><trkpt lat="43.0803985" lon="11.5121252"><ele>310.0</ele><time>2026-04-04T13:06:31.937Z</time></trkpt><trkpt lat="43.0804336" lon="11.5121993"><ele>310.0</ele><time>2026-04-04T13:06:32.929Z</time></trkpt><trkpt lat="43.0804687" lon="11.5122734"><ele>310.0</ele><time>2026-04-04T13:06:33.925Z</time></trkpt><trkpt lat="43.0805119" lon="11.5123557"><ele>310.4</ele><time>2026-04-04T13:06:34.944Z</time></trkpt><trkpt lat="43.0805622" lon="11.5124451"><ele>310.8</ele><time>2026-04-04T13:06:35.924Z</time></trkpt><trkpt lat="43.0806155" lon="11.5125409"><ele>311.2</ele><time>2026-04-04T13:06:36.932Z</time></trkpt><trkpt lat="43.080672" lon="11.5126379"><ele>311.6</ele><time>2026-04-04T13:06:37.935Z</time></trkpt><trkpt lat="43.0807272" lon="11.5127438"><ele>312.0</ele><time>2026-04-04T13:06:38.92Z</time></trkpt><trkpt lat="43.0807874" lon="11.512849"><ele>314.4</ele><time>2026-04-04T13:06:39.923Z</time></trkpt><trkpt lat="43.0808548" lon="11.5129483"><ele>316.79999999999995</ele><time>2026-04-04T13:06:40.935Z</time></trkpt><trkpt lat="43.080926" lon="11.5130431"><ele>319.2</ele><time>2026-04-04T13:06:41.935Z</time></trkpt><trkpt lat="43.0810058" lon="11.5131169"><ele>321.59999999999997</ele><time>2026-04-04T13:06:42.931Z</time></trkpt><trkpt lat="43.08109" lon="11.5131638"><ele>324.0</ele><time>2026-04-04T13:06:43.933Z</time></trkpt><trkpt lat="43.0811735" lon="11.5131755"><ele>324.0</ele><time>2026-04-04T13:06:44.94Z</time></trkpt><trkpt lat="43.0812568" lon="11.5131765"><ele>324.0</ele><time>2026-04-04T13:06:45.946Z</time></trkpt><trkpt lat="43.0813398" lon="11.5131711"><ele>324.0</ele><time>2026-04-04T13:06:46.938Z</time></trkpt><trkpt lat="43.0814283" lon="11.5131699"><ele>324.0</ele><time>2026-04-04T13:06:47.929Z</time></trkpt><trkpt lat="43.0815169" lon="11.5131934"><ele>324.0</ele><time>2026-04-04T13:06:48.933Z</time></trkpt><trkpt lat="43.0816025" lon="11.5132354"><ele>324.0</ele><time>2026-04-04T13:06:49.927Z</time></trkpt><trkpt lat="43.0816763" lon="11.5132898"><ele>324.6</ele><time>2026-04-04T13:06:50.946Z</time></trkpt><trkpt lat="43.0817533" lon="11.5133619"><ele>325.2</ele><time>2026-04-04T13:06:51.927Z</time></trkpt><trkpt lat="43.0818266" lon="11.5134532"><ele>325.8</ele><time>2026-04-04T13:06:52.922Z</time></trkpt><trkpt lat="43.0818966" lon="11.5135444"><ele>326.40000000000003</ele><time>2026-04-04T13:06:53.936Z</time></trkpt><trkpt lat="43.0819669" lon="11.5136414"><ele>327.0</ele><time>2026-04-04T13:06:54.938Z</time></trkpt><trkpt lat="43.0820366" lon="11.5137447"><ele>327.20000000000005</ele><time>2026-04-04T13:06:55.928Z</time></trkpt><trkpt lat="43.0821051" lon="11.5138528"><ele>327.4</ele><time>2026-04-04T13:06:56.933Z</time></trkpt><trkpt lat="43.0821801" lon="11.5139609"><ele>327.6</ele><time>2026-04-04T13:06:57.927Z</time></trkpt><trkpt lat="43.0822585" lon="11.5140636"><ele>327.79999999999995</ele><time>2026-04-04T13:06:58.918Z</time></trkpt><trkpt lat="43.0823343" lon="11.5141632"><ele>328.0</ele><time>2026-04-04T13:06:59.931Z</time></trkpt><trkpt lat="43.0824115" lon="11.5142494"><ele>327.79999999999995</ele><time>2026-04-04T13:07:00.929Z</time></trkpt><trkpt lat="43.0824853" lon="11.5143314"><ele>327.6</ele><time>2026-04-04T13:07:01.916Z</time></trkpt><trkpt lat="43.0825573" lon="11.5144057"><ele>327.4</ele><time>2026-04-04T13:07:02.919Z</time></trkpt><trkpt lat="43.0826334" lon="11.5144803"><ele>327.20000000000005</ele><time>2026-04-04T13:07:03.928Z</time></trkpt><trkpt lat="43.0827112" lon="11.51455"><ele>327.0</ele><time>2026-04-04T13:07:04.933Z</time></trkpt><trkpt lat="43.0827923" lon="11.5146237"><ele>327.0</ele><time>2026-04-04T13:07:05.929Z</time></trkpt><trkpt lat="43.0828819" lon="11.514705"><ele>327.0</ele><time>2026-04-04T13:07:06.942Z</time></trkpt><trkpt lat="43.0829748" lon="11.5147847"><ele>327.0</ele><time>2026-04-04T13:07:07.927Z</time></trkpt><trkpt lat="43.0830738" lon="11.5148562"><ele>327.0</ele><time>2026-04-04T13:07:08.93Z</time></trkpt><trkpt lat="43.0831678" lon="11.5149156"><ele>327.0</ele><time>2026-04-04T13:07:09.928Z</time></trkpt><trkpt lat="43.0832594" lon="11.5149649"><ele>326.40000000000003</ele><time>2026-04-04T13:07:10.935Z</time></trkpt><trkpt lat="43.0833466" lon="11.5150017"><ele>325.8</ele><time>2026-04-04T13:07:11.944Z</time></trkpt><trkpt lat="43.0834353" lon="11.5150316"><ele>325.2</ele><time>2026-04-04T13:07:12.929Z</time></trkpt><trkpt lat="43.0835289" lon="11.5150492"><ele>324.6</ele><time>2026-04-04T13:07:13.931Z</time></trkpt><trkpt lat="43.0836184" lon="11.5150666"><ele>324.0</ele><time>2026-04-04T13:07:14.931Z</time></trkpt><trkpt lat="43.0837055" lon="11.5150822"><ele>324.0</ele><time>2026-04-04T13:07:15.935Z</time></trkpt><trkpt lat="43.0837876" lon="11.5150887"><ele>324.0</ele><time>2026-04-04T13:07:16.939Z</time></trkpt><trkpt lat="43.0838775" lon="11.5150888"><ele>324.0</ele><time>2026-04-04T13:07:17.958Z</time></trkpt><trkpt lat="43.0839594" lon="11.5150616"><ele>324.0</ele><time>2026-04-04T13:07:18.939Z</time></trkpt><trkpt lat="43.0840389" lon="11.5150242"><ele>324.0</ele><time>2026-04-04T13:07:19.929Z</time></trkpt><trkpt lat="43.0841241" lon="11.5149713"><ele>324.0</ele><time>2026-04-04T13:07:20.925Z</time></trkpt><trkpt lat="43.0842085" lon="11.514919"><ele>323.4</ele><time>2026-04-04T13:07:21.935Z</time></trkpt><trkpt lat="43.0843031" lon="11.5148594"><ele>322.79999999999995</ele><time>2026-04-04T13:07:22.928Z</time></trkpt><trkpt lat="43.0844037" lon="11.5148135"><ele>322.20000000000005</ele><time>2026-04-04T13:07:23.94Z</time></trkpt><trkpt lat="43.0845156" lon="11.5148039"><ele>321.6</ele><time>2026-04-04T13:07:24.937Z</time></trkpt><trkpt lat="43.0846355" lon="11.5148013"><ele>321.0</ele><time>2026-04-04T13:07:25.929Z</time></trkpt><trkpt lat="43.0847528" lon="11.5148129"><ele>321.0</ele><time>2026-04-04T13:07:26.937Z</time></trkpt><trkpt lat="43.0848703" lon="11.5148219"><ele>321.0</ele><time>2026-04-04T13:07:27.93Z</time></trkpt><trkpt lat="43.0849837" lon="11.5148313"><ele>321.0</ele><time>2026-04-04T13:07:28.932Z</time></trkpt><trkpt lat="43.0850952" lon="11.5148359"><ele>321.0</ele><time>2026-04-04T13:07:29.929Z</time></trkpt><trkpt lat="43.0852099" lon="11.5148509"><ele>320.2</ele><time>2026-04-04T13:07:30.923Z</time></trkpt><trkpt lat="43.0853172" lon="11.514878"><ele>319.40000000000003</ele><time>2026-04-04T13:07:31.932Z</time></trkpt><trkpt lat="43.0854188" lon="11.5149217"><ele>318.6</ele><time>2026-04-04T13:07:32.929Z</time></trkpt><trkpt lat="43.085512" lon="11.5149825"><ele>317.8</ele><time>2026-04-04T13:07:33.941Z</time></trkpt><trkpt lat="43.0855999" lon="11.5150577"><ele>317.0</ele><time>2026-04-04T13:07:34.941Z</time></trkpt><trkpt lat="43.0856834" lon="11.5151592"><ele>317.0</ele><time>2026-04-04T13:07:35.936Z</time></trkpt><trkpt lat="43.085756" lon="11.5152667"><ele>317.0</ele><time>2026-04-04T13:07:36.939Z</time></trkpt><trkpt lat="43.0858271" lon="11.5153715"><ele>317.0</ele><time>2026-04-04T13:07:37.923Z</time></trkpt><trkpt lat="43.0858937" lon="11.5154643"><ele>317.0</ele><time>2026-04-04T13:07:38.921Z</time></trkpt><trkpt lat="43.0859702" lon="11.5155429"><ele>317.0</ele><time>2026-04-04T13:07:39.941Z</time></trkpt><trkpt lat="43.0860559" lon="11.5156183"><ele>316.0</ele><time>2026-04-04T13:07:40.931Z</time></trkpt><trkpt lat="43.0861432" lon="11.5156879"><ele>315.0</ele><time>2026-04-04T13:07:41.938Z</time></trkpt><trkpt lat="43.0862207" lon="11.5157686"><ele>314.0</ele><time>2026-04-04T13:07:42.942Z</time></trkpt><trkpt lat="43.0862924" lon="11.5158617"><ele>313.0</ele><time>2026-04-04T13:07:43.92Z</time></trkpt><trkpt lat="43.0863546" lon="11.5159568"><ele>312.0</ele><time>2026-04-04T13:07:44.94Z</time></trkpt><trkpt lat="43.0864148" lon="11.5160608"><ele>312.0</ele><time>2026-04-04T13:07:45.939Z</time></trkpt><trkpt lat="43.0864586" lon="11.5161635"><ele>312.0</ele><time>2026-04-04T13:07:46.93Z</time></trkpt><trkpt lat="43.0864968" lon="11.5162583"><ele>312.0</ele><time>2026-04-04T13:07:47.936Z</time></trkpt><trkpt lat="43.0865233" lon="11.5163406"><ele>312.0</ele><time>2026-04-04T13:07:48.948Z</time></trkpt><trkpt lat="43.0865536" lon="11.516465"><ele>312.0</ele><time>2026-04-04T13:07:50.936Z</time></trkpt><trkpt lat="43.0865677" lon="11.5165744"><ele>312.0</ele><time>2026-04-04T13:07:52.942Z</time></trkpt><trkpt lat="43.0865693" lon="11.5166759"><ele>310.4</ele><time>2026-04-04T13:07:54.921Z</time></trkpt><trkpt lat="43.0865721" lon="11.5167921"><ele>308.79999999999995</ele><time>2026-04-04T13:07:56.928Z</time></trkpt><trkpt lat="43.0865656" lon="11.516945"><ele>307.2</ele><time>2026-04-04T13:07:58.916Z</time></trkpt><trkpt lat="43.0865554" lon="11.5170416"><ele>305.59999999999997</ele><time>2026-04-04T13:07:59.93Z</time></trkpt><trkpt lat="43.0865396" lon="11.5171664"><ele>304.0</ele><time>2026-04-04T13:08:00.935Z</time></trkpt><trkpt lat="43.0865248" lon="11.5173022"><ele>302.75</ele><time>2026-04-04T13:08:01.911Z</time></trkpt><trkpt lat="43.0865115" lon="11.5174517"><ele>301.5</ele><time>2026-04-04T13:08:02.941Z</time></trkpt><trkpt lat="43.0865022" lon="11.517609"><ele>300.25</ele><time>2026-04-04T13:08:03.939Z</time></trkpt><trkpt lat="43.0864897" lon="11.5177866"><ele>299.0</ele><time>2026-04-04T13:08:04.932Z</time></trkpt><trkpt lat="43.0864709" lon="11.5179778"><ele>298.25</ele><time>2026-04-04T13:08:05.949Z</time></trkpt><trkpt lat="43.0864531" lon="11.5181685"><ele>297.5</ele><time>2026-04-04T13:08:06.936Z</time></trkpt><trkpt lat="43.0864343" lon="11.5183626"><ele>296.75</ele><time>2026-04-04T13:08:07.935Z</time></trkpt><trkpt lat="43.0864115" lon="11.5185591"><ele>296.0</ele><time>2026-04-04T13:08:08.948Z</time></trkpt><trkpt lat="43.0863911" lon="11.5187612"><ele>295.5</ele><time>2026-04-04T13:08:09.933Z</time></trkpt><trkpt lat="43.0863686" lon="11.5189611"><ele>295.0</ele><time>2026-04-04T13:08:10.934Z</time></trkpt><trkpt lat="43.0863505" lon="11.5191537"><ele>294.5</ele><time>2026-04-04T13:08:11.925Z</time></trkpt><trkpt lat="43.0863324" lon="11.5193339"><ele>294.0</ele><time>2026-04-04T13:08:12.933Z</time></trkpt><trkpt lat="43.0863108" lon="11.5195099"><ele>294.5</ele><time>2026-04-04T13:08:13.94Z</time></trkpt><trkpt lat="43.0862904" lon="11.5196907"><ele>295.0</ele><time>2026-04-04T13:08:14.936Z</time></trkpt><trkpt lat="43.0862706" lon="11.5198706"><ele>295.5</ele><time>2026-04-04T13:08:15.941Z</time></trkpt><trkpt lat="43.0862491" lon="11.5200509"><ele>296.0</ele><time>2026-04-04T13:08:16.931Z</time></trkpt><trkpt lat="43.0862207" lon="11.5202338"><ele>296.75</ele><time>2026-04-04T13:08:17.936Z</time></trkpt><trkpt lat="43.0861809" lon="11.5204024"><ele>297.5</ele><time>2026-04-04T13:08:18.933Z</time></trkpt><trkpt lat="43.0861302" lon="11.520564"><ele>298.25</ele><time>2026-04-04T13:08:19.936Z</time></trkpt><trkpt lat="43.0860681" lon="11.5207132"><ele>299.0</ele><time>2026-04-04T13:08:20.925Z</time></trkpt><trkpt lat="43.0859927" lon="11.5208499"><ele>299.0</ele><time>2026-04-04T13:08:21.932Z</time></trkpt><trkpt lat="43.0859089" lon="11.5209841"><ele>299.0</ele><time>2026-04-04T13:08:22.935Z</time></trkpt><trkpt lat="43.0858202" lon="11.5210998"><ele>299.0</ele><time>2026-04-04T13:08:23.932Z</time></trkpt><trkpt lat="43.0857191" lon="11.5212044"><ele>299.0</ele><time>2026-04-04T13:08:24.934Z</time></trkpt><trkpt lat="43.0856057" lon="11.5212958"><ele>298.75</ele><time>2026-04-04T13:08:25.929Z</time></trkpt><trkpt lat="43.085484" lon="11.5213807"><ele>298.5</ele><time>2026-04-04T13:08:26.927Z</time></trkpt><trkpt lat="43.0853561" lon="11.5214541"><ele>298.25</ele><time>2026-04-04T13:08:27.931Z</time></trkpt><trkpt lat="43.0852183" lon="11.521518"><ele>298.0</ele><time>2026-04-04T13:08:28.922Z</time></trkpt><trkpt lat="43.0850735" lon="11.5215792"><ele>298.0</ele><time>2026-04-04T13:08:29.942Z</time></trkpt><trkpt lat="43.0849296" lon="11.5216359"><ele>298.0</ele><time>2026-04-04T13:08:30.925Z</time></trkpt><trkpt lat="43.0847796" lon="11.5216925"><ele>298.0</ele><time>2026-04-04T13:08:31.932Z</time></trkpt><trkpt lat="43.0846277" lon="11.5217595"><ele>297.25</ele><time>2026-04-04T13:08:32.915Z</time></trkpt><trkpt lat="43.0844805" lon="11.5218307"><ele>296.5</ele><time>2026-04-04T13:08:33.922Z</time></trkpt><trkpt lat="43.0843491" lon="11.5218961"><ele>295.75</ele><time>2026-04-04T13:08:34.927Z</time></trkpt><trkpt lat="43.0842159" lon="11.5219643"><ele>295.0</ele><time>2026-04-04T13:08:35.915Z</time></trkpt><trkpt lat="43.0840896" lon="11.5220332"><ele>296.0</ele><time>2026-04-04T13:08:36.929Z</time></trkpt><trkpt lat="43.0839711" lon="11.5220986"><ele>297.0</ele><time>2026-04-04T13:08:37.929Z</time></trkpt><trkpt lat="43.0838579" lon="11.5221617"><ele>298.0</ele><time>2026-04-04T13:08:38.931Z</time></trkpt><trkpt lat="43.083749" lon="11.5222374"><ele>299.0</ele><time>2026-04-04T13:08:39.932Z</time></trkpt><trkpt lat="43.0836583" lon="11.5223295"><ele>299.0</ele><time>2026-04-04T13:08:40.923Z</time></trkpt><trkpt lat="43.0835848" lon="11.5224492"><ele>299.0</ele><time>2026-04-04T13:08:41.926Z</time></trkpt><trkpt lat="43.0835151" lon="11.5225787"><ele>299.0</ele><time>2026-04-04T13:08:42.933Z</time></trkpt><trkpt lat="43.0834622" lon="11.5227216"><ele>299.0</ele><time>2026-04-04T13:08:43.932Z</time></trkpt><trkpt lat="43.0834191" lon="11.5228771"><ele>299.0</ele><time>2026-04-04T13:08:44.936Z</time></trkpt><trkpt lat="43.0833745" lon="11.5230366"><ele>299.0</ele><time>2026-04-04T13:08:45.924Z</time></trkpt><trkpt lat="43.0833388" lon="11.5232011"><ele>299.0</ele><time>2026-04-04T13:08:46.926Z</time></trkpt><trkpt lat="43.0833046" lon="11.523371"><ele>299.0</ele><time>2026-04-04T13:08:47.947Z</time></trkpt><trkpt lat="43.0832725" lon="11.5235277"><ele>299.4</ele><time>2026-04-04T13:08:48.935Z</time></trkpt><trkpt lat="43.083247" lon="11.5236613"><ele>299.79999999999995</ele><time>2026-04-04T13:08:49.941Z</time></trkpt><trkpt lat="43.0832148" lon="11.5237746"><ele>300.20000000000005</ele><time>2026-04-04T13:08:50.919Z</time></trkpt><trkpt lat="43.083168" lon="11.5238695"><ele>300.6</ele><time>2026-04-04T13:08:51.946Z</time></trkpt><trkpt lat="43.0831036" lon="11.5239581"><ele>301.0</ele><time>2026-04-04T13:08:52.929Z</time></trkpt><trkpt lat="43.0830352" lon="11.5240408"><ele>300.2</ele><time>2026-04-04T13:08:53.93Z</time></trkpt><trkpt lat="43.082951" lon="11.5241119"><ele>299.40000000000003</ele><time>2026-04-04T13:08:54.927Z</time></trkpt><trkpt lat="43.0828575" lon="11.5241621"><ele>298.6</ele><time>2026-04-04T13:08:55.929Z</time></trkpt><trkpt lat="43.0827579" lon="11.5242182"><ele>297.8</ele><time>2026-04-04T13:08:56.922Z</time></trkpt><trkpt lat="43.0826567" lon="11.5242805"><ele>297.0</ele><time>2026-04-04T13:08:57.932Z</time></trkpt><trkpt lat="43.0825534" lon="11.5243566"><ele>297.0</ele><time>2026-04-04T13:08:58.937Z</time></trkpt><trkpt lat="43.0824458" lon="11.5244413"><ele>297.0</ele><time>2026-04-04T13:08:59.925Z</time></trkpt><trkpt lat="43.0823406" lon="11.5245413"><ele>297.0</ele><time>2026-04-04T13:09:00.93Z</time></trkpt><trkpt lat="43.0822419" lon="11.524652"><ele>297.0</ele><time>2026-04-04T13:09:01.941Z</time></trkpt><trkpt lat="43.0821455" lon="11.524773"><ele>295.75</ele><time>2026-04-04T13:09:02.923Z</time></trkpt><trkpt lat="43.0820418" lon="11.5248993"><ele>294.5</ele><time>2026-04-04T13:09:03.925Z</time></trkpt><trkpt lat="43.0819462" lon="11.5250222"><ele>293.25</ele><time>2026-04-04T13:09:04.956Z</time></trkpt><trkpt lat="43.081849" lon="11.5251527"><ele>292.0</ele><time>2026-04-04T13:09:05.933Z</time></trkpt><trkpt lat="43.0817453" lon="11.5252922"><ele>291.75</ele><time>2026-04-04T13:09:06.936Z</time></trkpt><trkpt lat="43.0816369" lon="11.5254284"><ele>291.5</ele><time>2026-04-04T13:09:07.926Z</time></trkpt><trkpt lat="43.0815373" lon="11.5255811"><ele>291.25</ele><time>2026-04-04T13:09:08.933Z</time></trkpt><trkpt lat="43.0814495" lon="11.5257432"><ele>291.0</ele><time>2026-04-04T13:09:09.935Z</time></trkpt><trkpt lat="43.0813756" lon="11.5259021"><ele>291.5</ele><time>2026-04-04T13:09:10.925Z</time></trkpt><trkpt lat="43.0813102" lon="11.5260593"><ele>292.0</ele><time>2026-04-04T13:09:11.93Z</time></trkpt><trkpt lat="43.0812527" lon="11.5262027"><ele>292.5</ele><time>2026-04-04T13:09:12.928Z</time></trkpt><trkpt lat="43.0812023" lon="11.5263371"><ele>293.0</ele><time>2026-04-04T13:09:13.923Z</time></trkpt><trkpt lat="43.0811568" lon="11.5264546"><ele>293.5</ele><time>2026-04-04T13:09:14.929Z</time></trkpt><trkpt lat="43.081114" lon="11.5265666"><ele>294.0</ele><time>2026-04-04T13:09:15.936Z</time></trkpt><trkpt lat="43.0810711" lon="11.5266676"><ele>294.5</ele><time>2026-04-04T13:09:16.923Z</time></trkpt><trkpt lat="43.0810336" lon="11.5267696"><ele>295.0</ele><time>2026-04-04T13:09:17.938Z</time></trkpt><trkpt lat="43.0809967" lon="11.5268621"><ele>295.5</ele><time>2026-04-04T13:09:18.926Z</time></trkpt><trkpt lat="43.080959" lon="11.5269542"><ele>296.0</ele><time>2026-04-04T13:09:19.938Z</time></trkpt><trkpt lat="43.0809228" lon="11.5270448"><ele>296.33333333333337</ele><time>2026-04-04T13:09:20.931Z</time></trkpt><trkpt lat="43.0808853" lon="11.5271445"><ele>296.6666666666667</ele><time>2026-04-04T13:09:21.927Z</time></trkpt><trkpt lat="43.0808482" lon="11.5272423"><ele>297.0</ele><time>2026-04-04T13:09:22.929Z</time></trkpt><trkpt lat="43.0808074" lon="11.5273452"><ele>297.3333333333333</ele><time>2026-04-04T13:09:23.933Z</time></trkpt><trkpt lat="43.0807645" lon="11.5274506"><ele>297.66666666666663</ele><time>2026-04-04T13:09:24.925Z</time></trkpt><trkpt lat="43.0807204" lon="11.5275562"><ele>298.0</ele><time>2026-04-04T13:09:25.926Z</time></trkpt><trkpt lat="43.0806785" lon="11.5276663"><ele>300.0</ele><time>2026-04-04T13:09:26.942Z</time></trkpt><trkpt lat="43.0806311" lon="11.5277871"><ele>302.0</ele><time>2026-04-04T13:09:27.934Z</time></trkpt><trkpt lat="43.0805851" lon="11.5279069"><ele>304.0</ele><time>2026-04-04T13:09:28.917Z</time></trkpt><trkpt lat="43.0805386" lon="11.5280287"><ele>306.0</ele><time>2026-04-04T13:09:29.947Z</time></trkpt><trkpt lat="43.0804923" lon="11.5281408"><ele>308.0</ele><time>2026-04-04T13:09:30.938Z</time></trkpt><trkpt lat="43.0804565" lon="11.5282406"><ele>308.1666666666667</ele><time>2026-04-04T13:09:31.919Z</time></trkpt><trkpt lat="43.0804247" lon="11.5283319"><ele>308.33333333333337</ele><time>2026-04-04T13:09:32.937Z</time></trkpt><trkpt lat="43.0803996" lon="11.5284121"><ele>308.5</ele><time>2026-04-04T13:09:33.93Z</time></trkpt><trkpt lat="43.0803472" lon="11.528556"><ele>308.6666666666667</ele><time>2026-04-04T13:09:35.934Z</time></trkpt><trkpt lat="43.0802884" lon="11.5287073"><ele>308.8333333333333</ele><time>2026-04-04T13:09:37.928Z</time></trkpt><trkpt lat="43.0802579" lon="11.5287857"><ele>309.0</ele><time>2026-04-04T13:09:38.927Z</time></trkpt><trkpt lat="43.0802299" lon="11.5288638"><ele>309.0</ele><time>2026-04-04T13:09:39.932Z</time></trkpt><trkpt lat="43.080204" lon="11.5289439"><ele>309.0</ele><time>2026-04-04T13:09:40.93Z</time></trkpt><trkpt lat="43.0801567" lon="11.5290974"><ele>309.0</ele><time>2026-04-04T13:09:42.937Z</time></trkpt><trkpt lat="43.0801206" lon="11.5292522"><ele>309.0</ele><time>2026-04-04T13:09:44.937Z</time></trkpt><trkpt lat="43.0800971" lon="11.5294009"><ele>309.0</ele><time>2026-04-04T13:09:46.931Z</time></trkpt><trkpt lat="43.0800664" lon="11.5295614"><ele>308.5714285714286</ele><time>2026-04-04T13:09:48.937Z</time></trkpt><trkpt lat="43.0800394" lon="11.5297192"><ele>308.14285714285717</ele><time>2026-04-04T13:09:50.937Z</time></trkpt><trkpt lat="43.0800261" lon="11.5298039"><ele>307.7142857142857</ele><time>2026-04-04T13:09:51.938Z</time></trkpt><trkpt lat="43.0800172" lon="11.5298904"><ele>307.28571428571433</ele><time>2026-04-04T13:09:52.933Z</time></trkpt><trkpt lat="43.0800155" lon="11.5299831"><ele>306.8571428571429</ele><time>2026-04-04T13:09:53.932Z</time></trkpt><trkpt lat="43.0800129" lon="11.5300754"><ele>306.42857142857144</ele><time>2026-04-04T13:09:54.94Z</time></trkpt><trkpt lat="43.0800126" lon="11.5301687"><ele>306.0</ele><time>2026-04-04T13:09:55.942Z</time></trkpt><trkpt lat="43.0800108" lon="11.5302649"><ele>306.0</ele><time>2026-04-04T13:09:56.933Z</time></trkpt><trkpt lat="43.0800172" lon="11.5303571"><ele>306.0</ele><time>2026-04-04T13:09:57.948Z</time></trkpt><trkpt lat="43.0800234" lon="11.5304501"><ele>306.0</ele><time>2026-04-04T13:09:58.927Z</time></trkpt><trkpt lat="43.0800254" lon="11.5305428"><ele>306.0</ele><time>2026-04-04T13:09:59.93Z</time></trkpt><trkpt lat="43.0800227" lon="11.5306379"><ele>306.0</ele><time>2026-04-04T13:10:00.93Z</time></trkpt><trkpt lat="43.0800205" lon="11.5307308"><ele>306.0</ele><time>2026-04-04T13:10:01.919Z</time></trkpt><trkpt lat="43.0800188" lon="11.5308238"><ele>306.0</ele><time>2026-04-04T13:10:02.929Z</time></trkpt><trkpt lat="43.0800159" lon="11.5309148"><ele>305.85714285714283</ele><time>2026-04-04T13:10:03.922Z</time></trkpt><trkpt lat="43.0800091" lon="11.5310083"><ele>305.7142857142857</ele><time>2026-04-04T13:10:04.927Z</time></trkpt><trkpt lat="43.079999" lon="11.5311023"><ele>305.57142857142856</ele><time>2026-04-04T13:10:05.932Z</time></trkpt><trkpt lat="43.0799882" lon="11.5311984"><ele>305.42857142857144</ele><time>2026-04-04T13:10:06.94Z</time></trkpt><trkpt lat="43.079974" lon="11.5312939"><ele>305.2857142857143</ele><time>2026-04-04T13:10:07.945Z</time></trkpt><trkpt lat="43.0799491" lon="11.5313799"><ele>305.14285714285717</ele><time>2026-04-04T13:10:08.929Z</time></trkpt><trkpt lat="43.0799245" lon="11.5314635"><ele>305.0</ele><time>2026-04-04T13:10:09.931Z</time></trkpt><trkpt lat="43.0799004" lon="11.5315532"><ele>304.8571428571429</ele><time>2026-04-04T13:10:10.94Z</time></trkpt><trkpt lat="43.0798729" lon="11.531638"><ele>304.71428571428567</ele><time>2026-04-04T13:10:11.943Z</time></trkpt><trkpt lat="43.0798408" lon="11.5317231"><ele>304.57142857142856</ele><time>2026-04-04T13:10:12.939Z</time></trkpt><trkpt lat="43.0798031" lon="11.5318044"><ele>304.42857142857144</ele><time>2026-04-04T13:10:13.927Z</time></trkpt><trkpt lat="43.0797681" lon="11.5318911"><ele>304.28571428571433</ele><time>2026-04-04T13:10:14.929Z</time></trkpt><trkpt lat="43.0797339" lon="11.5319811"><ele>304.1428571428571</ele><time>2026-04-04T13:10:15.94Z</time></trkpt><trkpt lat="43.0797014" lon="11.5320637"><ele>304.0</ele><time>2026-04-04T13:10:16.936Z</time></trkpt><trkpt lat="43.0796732" lon="11.5321458"><ele>304.0</ele><time>2026-04-04T13:10:17.93Z</time></trkpt><trkpt lat="43.0796473" lon="11.5322306"><ele>304.0</ele><time>2026-04-04T13:10:18.928Z</time></trkpt><trkpt lat="43.0796362" lon="11.5323279"><ele>304.0</ele><time>2026-04-04T13:10:19.925Z</time></trkpt><trkpt lat="43.0796353" lon="11.5324202"><ele>304.0</ele><time>2026-04-04T13:10:20.927Z</time></trkpt><trkpt lat="43.0796427" lon="11.5325115"><ele>304.0</ele><time>2026-04-04T13:10:21.928Z</time></trkpt><trkpt lat="43.0796679" lon="11.532613"><ele>304.0</ele><time>2026-04-04T13:10:22.934Z</time></trkpt><trkpt lat="43.0796971" lon="11.5327246"><ele>304.0</ele><time>2026-04-04T13:10:23.932Z</time></trkpt><trkpt lat="43.0797378" lon="11.5328446"><ele>305.59999999999997</ele><time>2026-04-04T13:10:24.93Z</time></trkpt><trkpt lat="43.0797786" lon="11.5329736"><ele>307.2</ele><time>2026-04-04T13:10:25.919Z</time></trkpt><trkpt lat="43.0798066" lon="11.5331089"><ele>308.79999999999995</ele><time>2026-04-04T13:10:26.932Z</time></trkpt><trkpt lat="43.0798189" lon="11.5332307"><ele>310.4</ele><time>2026-04-04T13:10:27.926Z</time></trkpt><trkpt lat="43.079812" lon="11.5333493"><ele>312.0</ele><time>2026-04-04T13:10:28.925Z</time></trkpt><trkpt lat="43.0797928" lon="11.5334531"><ele>312.0</ele><time>2026-04-04T13:10:29.939Z</time></trkpt><trkpt lat="43.0797667" lon="11.5335612"><ele>312.0</ele><time>2026-04-04T13:10:30.928Z</time></trkpt><trkpt lat="43.0797455" lon="11.5336789"><ele>312.0</ele><time>2026-04-04T13:10:31.935Z</time></trkpt><trkpt lat="43.0797415" lon="11.533792"><ele>312.0</ele><time>2026-04-04T13:10:32.926Z</time></trkpt><trkpt lat="43.0797424" lon="11.5339237"><ele>312.0</ele><time>2026-04-04T13:10:33.922Z</time></trkpt><trkpt lat="43.0797562" lon="11.5340743"><ele>313.25</ele><time>2026-04-04T13:10:34.924Z</time></trkpt><trkpt lat="43.0797877" lon="11.5342245"><ele>314.5</ele><time>2026-04-04T13:10:35.928Z</time></trkpt><trkpt lat="43.0798211" lon="11.5343758"><ele>315.75</ele><time>2026-04-04T13:10:36.919Z</time></trkpt><trkpt lat="43.0798563" lon="11.5345235"><ele>317.0</ele><time>2026-04-04T13:10:37.93Z</time></trkpt><trkpt lat="43.0798932" lon="11.5346699"><ele>315.8</ele><time>2026-04-04T13:10:38.932Z</time></trkpt><trkpt lat="43.0799402" lon="11.5348048"><ele>314.6</ele><time>2026-04-04T13:10:39.923Z</time></trkpt><trkpt lat="43.0799942" lon="11.5349161"><ele>313.40000000000003</ele><time>2026-04-04T13:10:40.93Z</time></trkpt><trkpt lat="43.0800499" lon="11.5350223"><ele>312.2</ele><time>2026-04-04T13:10:41.927Z</time></trkpt><trkpt lat="43.080112" lon="11.5351095"><ele>311.0</ele><time>2026-04-04T13:10:42.92Z</time></trkpt><trkpt lat="43.0801683" lon="11.5351957"><ele>311.0</ele><time>2026-04-04T13:10:43.934Z</time></trkpt><trkpt lat="43.080214" lon="11.5352863"><ele>311.0</ele><time>2026-04-04T13:10:44.94Z</time></trkpt><trkpt lat="43.0802433" lon="11.5353975"><ele>311.0</ele><time>2026-04-04T13:10:45.935Z</time></trkpt><trkpt lat="43.0802598" lon="11.5355165"><ele>311.0</ele><time>2026-04-04T13:10:46.926Z</time></trkpt><trkpt lat="43.0802569" lon="11.5356346"><ele>311.0</ele><time>2026-04-04T13:10:47.928Z</time></trkpt><trkpt lat="43.0802498" lon="11.5357446"><ele>311.0</ele><time>2026-04-04T13:10:48.927Z</time></trkpt><trkpt lat="43.0802428" lon="11.535849"><ele>310.33333333333337</ele><time>2026-04-04T13:10:49.937Z</time></trkpt><trkpt lat="43.0802347" lon="11.5359463"><ele>309.6666666666667</ele><time>2026-04-04T13:10:50.924Z</time></trkpt><trkpt lat="43.0802301" lon="11.5360384"><ele>309.0</ele><time>2026-04-04T13:10:51.935Z</time></trkpt><trkpt lat="43.0802307" lon="11.5361299"><ele>308.3333333333333</ele><time>2026-04-04T13:10:52.937Z</time></trkpt><trkpt lat="43.0802362" lon="11.5362871"><ele>307.66666666666663</ele><time>2026-04-04T13:10:54.937Z</time></trkpt><trkpt lat="43.080251" lon="11.5364353"><ele>307.0</ele><time>2026-04-04T13:10:56.928Z</time></trkpt><trkpt lat="43.0802754" lon="11.5366164"><ele>305.2</ele><time>2026-04-04T13:10:58.935Z</time></trkpt><trkpt lat="43.0802768" lon="11.5367401"><ele>303.4</ele><time>2026-04-04T13:10:59.936Z</time></trkpt><trkpt lat="43.0802692" lon="11.5368758"><ele>301.6</ele><time>2026-04-04T13:11:00.932Z</time></trkpt><trkpt lat="43.0802647" lon="11.5370047"><ele>299.8</ele><time>2026-04-04T13:11:01.937Z</time></trkpt><trkpt lat="43.0802817" lon="11.5371212"><ele>298.0</ele><time>2026-04-04T13:11:02.932Z</time></trkpt><trkpt lat="43.0803221" lon="11.5372305"><ele>296.6</ele><time>2026-04-04T13:11:03.933Z</time></trkpt><trkpt lat="43.0803806" lon="11.5373218"><ele>295.20000000000005</ele><time>2026-04-04T13:11:04.925Z</time></trkpt><trkpt lat="43.080459" lon="11.5373971"><ele>293.8</ele><time>2026-04-04T13:11:05.944Z</time></trkpt><trkpt lat="43.0805462" lon="11.5374678"><ele>292.40000000000003</ele><time>2026-04-04T13:11:06.933Z</time></trkpt><trkpt lat="43.0806121" lon="11.537546"><ele>291.0</ele><time>2026-04-04T13:11:07.92Z</time></trkpt><trkpt lat="43.080668" lon="11.537642"><ele>291.0</ele><time>2026-04-04T13:11:08.928Z</time></trkpt><trkpt lat="43.0807116" lon="11.5377569"><ele>291.0</ele><time>2026-04-04T13:11:09.926Z</time></trkpt><trkpt lat="43.0807461" lon="11.5379027"><ele>291.0</ele><time>2026-04-04T13:11:10.934Z</time></trkpt><trkpt lat="43.080773" lon="11.5380682"><ele>291.0</ele><time>2026-04-04T13:11:11.932Z</time></trkpt><trkpt lat="43.080801" lon="11.538253"><ele>289.6666666666667</ele><time>2026-04-04T13:11:12.933Z</time></trkpt><trkpt lat="43.0808292" lon="11.538465"><ele>288.33333333333337</ele><time>2026-04-04T13:11:13.944Z</time></trkpt><trkpt lat="43.080859" lon="11.5386936"><ele>287.0</ele><time>2026-04-04T13:11:14.932Z</time></trkpt><trkpt lat="43.0808985" lon="11.5389246"><ele>286.75</ele><time>2026-04-04T13:11:15.928Z</time></trkpt><trkpt lat="43.0809404" lon="11.53913"><ele>286.5</ele><time>2026-04-04T13:11:16.923Z</time></trkpt><trkpt lat="43.0809893" lon="11.539306"><ele>286.25</ele><time>2026-04-04T13:11:17.936Z</time></trkpt><trkpt lat="43.0810465" lon="11.5394672"><ele>286.0</ele><time>2026-04-04T13:11:18.939Z</time></trkpt><trkpt lat="43.0811247" lon="11.539609"><ele>286.6</ele><time>2026-04-04T13:11:19.932Z</time></trkpt><trkpt lat="43.0812045" lon="11.5397241"><ele>287.20000000000005</ele><time>2026-04-04T13:11:20.918Z</time></trkpt><trkpt lat="43.0812837" lon="11.539832"><ele>287.79999999999995</ele><time>2026-04-04T13:11:21.942Z</time></trkpt><trkpt lat="43.0813564" lon="11.539914"><ele>288.4</ele><time>2026-04-04T13:11:22.913Z</time></trkpt><trkpt lat="43.0814283" lon="11.5399905"><ele>289.0</ele><time>2026-04-04T13:11:23.928Z</time></trkpt><trkpt lat="43.0814861" lon="11.5400495"><ele>289.0</ele><time>2026-04-04T13:11:24.94Z</time></trkpt><trkpt lat="43.0815628" lon="11.5401747"><ele>289.0</ele><time>2026-04-04T13:11:26.913Z</time></trkpt><trkpt lat="43.0816254" lon="11.5403034"><ele>289.0</ele><time>2026-04-04T13:11:28.93Z</time></trkpt><trkpt lat="43.0816647" lon="11.540456"><ele>289.0</ele><time>2026-04-04T13:11:30.93Z</time></trkpt><trkpt lat="43.0816897" lon="11.5406136"><ele>289.8</ele><time>2026-04-04T13:11:32.932Z</time></trkpt><trkpt lat="43.0817014" lon="11.540777"><ele>290.59999999999997</ele><time>2026-04-04T13:11:34.922Z</time></trkpt><trkpt lat="43.0817149" lon="11.5409396"><ele>291.4</ele><time>2026-04-04T13:11:36.947Z</time></trkpt><trkpt lat="43.0817326" lon="11.5411134"><ele>292.2</ele><time>2026-04-04T13:11:38.928Z</time></trkpt><trkpt lat="43.0817456" lon="11.5412023"><ele>293.0</ele><time>2026-04-04T13:11:39.914Z</time></trkpt><trkpt lat="43.0817639" lon="11.5412923"><ele>293.4285714285714</ele><time>2026-04-04T13:11:40.929Z</time></trkpt><trkpt lat="43.0817846" lon="11.5413854"><ele>293.85714285714283</ele><time>2026-04-04T13:11:41.926Z</time></trkpt><trkpt lat="43.0818041" lon="11.5414851"><ele>294.2857142857143</ele><time>2026-04-04T13:11:42.927Z</time></trkpt><trkpt lat="43.0818288" lon="11.541582"><ele>294.71428571428567</ele><time>2026-04-04T13:11:43.93Z</time></trkpt><trkpt lat="43.081855" lon="11.5416802"><ele>295.1428571428571</ele><time>2026-04-04T13:11:44.93Z</time></trkpt><trkpt lat="43.0818722" lon="11.5417808"><ele>295.57142857142856</ele><time>2026-04-04T13:11:45.93Z</time></trkpt><trkpt lat="43.0818909" lon="11.5418715"><ele>296.0</ele><time>2026-04-04T13:11:46.93Z</time></trkpt><trkpt lat="43.0819098" lon="11.5419578"><ele>296.0</ele><time>2026-04-04T13:11:47.927Z</time></trkpt><trkpt lat="43.0819238" lon="11.5421133"><ele>296.0</ele><time>2026-04-04T13:11:49.921Z</time></trkpt><trkpt lat="43.0819267" lon="11.5422693"><ele>296.0</ele><time>2026-04-04T13:11:51.921Z</time></trkpt><trkpt lat="43.0819306" lon="11.5424408"><ele>296.0</ele><time>2026-04-04T13:11:53.917Z</time></trkpt><trkpt lat="43.0819318" lon="11.5425304"><ele>296.0</ele><time>2026-04-04T13:11:54.928Z</time></trkpt><trkpt lat="43.081938" lon="11.5426263"><ele>296.0</ele><time>2026-04-04T13:11:55.925Z</time></trkpt><trkpt lat="43.0819532" lon="11.5427123"><ele>296.0</ele><time>2026-04-04T13:11:56.923Z</time></trkpt><trkpt lat="43.0819805" lon="11.5427976"><ele>296.0</ele><time>2026-04-04T13:11:57.933Z</time></trkpt><trkpt lat="43.0820225" lon="11.5428753"><ele>296.0</ele><time>2026-04-04T13:11:58.93Z</time></trkpt><trkpt lat="43.0820718" lon="11.5429345"><ele>296.0</ele><time>2026-04-04T13:11:59.91Z</time></trkpt><trkpt lat="43.0821404" lon="11.5429786"><ele>296.0</ele><time>2026-04-04T13:12:00.925Z</time></trkpt><trkpt lat="43.0822152" lon="11.5429914"><ele>296.0</ele><time>2026-04-04T13:12:01.919Z</time></trkpt><trkpt lat="43.082292" lon="11.5430079"><ele>294.8</ele><time>2026-04-04T13:12:02.937Z</time></trkpt><trkpt lat="43.0823754" lon="11.5430178"><ele>293.6</ele><time>2026-04-04T13:12:03.928Z</time></trkpt><trkpt lat="43.0824614" lon="11.5430337"><ele>292.4</ele><time>2026-04-04T13:12:04.935Z</time></trkpt><trkpt lat="43.0825509" lon="11.5430625"><ele>291.2</ele><time>2026-04-04T13:12:05.946Z</time></trkpt><trkpt lat="43.0826465" lon="11.5430944"><ele>290.0</ele><time>2026-04-04T13:12:06.932Z</time></trkpt><trkpt lat="43.0827329" lon="11.5431372"><ele>290.0</ele><time>2026-04-04T13:12:07.918Z</time></trkpt><trkpt lat="43.0828141" lon="11.5431696"><ele>290.0</ele><time>2026-04-04T13:12:08.942Z</time></trkpt><trkpt lat="43.0828873" lon="11.5431931"><ele>290.0</ele><time>2026-04-04T13:12:09.938Z</time></trkpt><trkpt lat="43.082952" lon="11.5432113"><ele>290.0</ele><time>2026-04-04T13:12:10.928Z</time></trkpt><trkpt lat="43.0830605" lon="11.5432316"><ele>290.0</ele><time>2026-04-04T13:12:12.938Z</time></trkpt><trkpt lat="43.0831715" lon="11.5432524"><ele>290.0</ele><time>2026-04-04T13:12:14.939Z</time></trkpt><trkpt lat="43.0832889" lon="11.5432772"><ele>289.0</ele><time>2026-04-04T13:12:16.935Z</time></trkpt><trkpt lat="43.08341" lon="11.543307"><ele>288.0</ele><time>2026-04-04T13:12:18.919Z</time></trkpt><trkpt lat="43.0835377" lon="11.5433282"><ele>287.0</ele><time>2026-04-04T13:12:20.939Z</time></trkpt><trkpt lat="43.0836032" lon="11.5433276"><ele>286.0</ele><time>2026-04-04T13:12:21.933Z</time></trkpt><trkpt lat="43.0836666" lon="11.5433101"><ele>285.0</ele><time>2026-04-04T13:12:22.924Z</time></trkpt><trkpt lat="43.0837344" lon="11.543284"><ele>285.0</ele><time>2026-04-04T13:12:23.929Z</time></trkpt><trkpt lat="43.0838031" lon="11.5432454"><ele>285.0</ele><time>2026-04-04T13:12:24.943Z</time></trkpt><trkpt lat="43.0838685" lon="11.5432024"><ele>285.0</ele><time>2026-04-04T13:12:25.923Z</time></trkpt><trkpt lat="43.0839422" lon="11.5431821"><ele>285.0</ele><time>2026-04-04T13:12:26.94Z</time></trkpt><trkpt lat="43.0840219" lon="11.5431737"><ele>285.0</ele><time>2026-04-04T13:12:27.934Z</time></trkpt><trkpt lat="43.0840952" lon="11.543183"><ele>285.0</ele><time>2026-04-04T13:12:28.928Z</time></trkpt><trkpt lat="43.0841732" lon="11.5432273"><ele>283.4</ele><time>2026-04-04T13:12:29.935Z</time></trkpt><trkpt lat="43.0842525" lon="11.5432655"><ele>281.8</ele><time>2026-04-04T13:12:30.937Z</time></trkpt><trkpt lat="43.0843377" lon="11.5433068"><ele>280.2</ele><time>2026-04-04T13:12:31.925Z</time></trkpt><trkpt lat="43.0844282" lon="11.5433519"><ele>278.6</ele><time>2026-04-04T13:12:32.928Z</time></trkpt><trkpt lat="43.0845226" lon="11.5433916"><ele>277.0</ele><time>2026-04-04T13:12:33.935Z</time></trkpt><trkpt lat="43.0846214" lon="11.5434357"><ele>277.0</ele><time>2026-04-04T13:12:34.94Z</time></trkpt><trkpt lat="43.0847173" lon="11.5434717"><ele>277.0</ele><time>2026-04-04T13:12:35.925Z</time></trkpt><trkpt lat="43.0848107" lon="11.5435074"><ele>277.0</ele><time>2026-04-04T13:12:36.934Z</time></trkpt><trkpt lat="43.0848922" lon="11.5435454"><ele>277.0</ele><time>2026-04-04T13:12:37.941Z</time></trkpt><trkpt lat="43.0849702" lon="11.5435866"><ele>277.0</ele><time>2026-04-04T13:12:38.934Z</time></trkpt><trkpt lat="43.0850386" lon="11.5436239"><ele>277.0</ele><time>2026-04-04T13:12:39.921Z</time></trkpt><trkpt lat="43.0851367" lon="11.5436842"><ele>275.6</ele><time>2026-04-04T13:12:41.92Z</time></trkpt><trkpt lat="43.0852352" lon="11.5437519"><ele>274.2</ele><time>2026-04-04T13:12:43.92Z</time></trkpt><trkpt lat="43.085348" lon="11.5438228"><ele>272.8</ele><time>2026-04-04T13:12:45.925Z</time></trkpt><trkpt lat="43.085415" lon="11.543857"><ele>271.4</ele><time>2026-04-04T13:12:46.932Z</time></trkpt><trkpt lat="43.0854889" lon="11.54389"><ele>270.0</ele><time>2026-04-04T13:12:47.943Z</time></trkpt><trkpt lat="43.0855632" lon="11.5439247"><ele>270.0</ele><time>2026-04-04T13:12:48.934Z</time></trkpt><trkpt lat="43.085649" lon="11.5439588"><ele>270.0</ele><time>2026-04-04T13:12:49.94Z</time></trkpt><trkpt lat="43.0857367" lon="11.5439856"><ele>270.0</ele><time>2026-04-04T13:12:50.943Z</time></trkpt><trkpt lat="43.0858193" lon="11.5440085"><ele>270.0</ele><time>2026-04-04T13:12:51.933Z</time></trkpt><trkpt lat="43.085901" lon="11.5440257"><ele>270.0</ele><time>2026-04-04T13:12:52.938Z</time></trkpt><trkpt lat="43.0859796" lon="11.5440342"><ele>270.0</ele><time>2026-04-04T13:12:53.948Z</time></trkpt><trkpt lat="43.0860462" lon="11.5440433"><ele>270.0</ele><time>2026-04-04T13:12:54.935Z</time></trkpt><trkpt lat="43.0861176" lon="11.5440496"><ele>270.0</ele><time>2026-04-04T13:12:55.926Z</time></trkpt><trkpt lat="43.0861936" lon="11.5440659"><ele>270.0</ele><time>2026-04-04T13:12:56.949Z</time></trkpt><trkpt lat="43.0862733" lon="11.5440879"><ele>270.0</ele><time>2026-04-04T13:12:57.947Z</time></trkpt><trkpt lat="43.0863536" lon="11.5441162"><ele>270.0</ele><time>2026-04-04T13:12:58.932Z</time></trkpt><trkpt lat="43.0864413" lon="11.5441603"><ele>270.0</ele><time>2026-04-04T13:12:59.932Z</time></trkpt><trkpt lat="43.0865273" lon="11.5442043"><ele>270.6</ele><time>2026-04-04T13:13:00.936Z</time></trkpt><trkpt lat="43.0866071" lon="11.5442581"><ele>271.2</ele><time>2026-04-04T13:13:01.933Z</time></trkpt><trkpt lat="43.0866873" lon="11.5443259"><ele>271.8</ele><time>2026-04-04T13:13:02.931Z</time></trkpt><trkpt lat="43.0867685" lon="11.5443926"><ele>272.4</ele><time>2026-04-04T13:13:03.933Z</time></trkpt><trkpt lat="43.0868464" lon="11.5444573"><ele>273.0</ele><time>2026-04-04T13:13:04.931Z</time></trkpt><trkpt lat="43.0869179" lon="11.544514"><ele>272.6</ele><time>2026-04-04T13:13:05.939Z</time></trkpt><trkpt lat="43.0869825" lon="11.5445739"><ele>272.20000000000005</ele><time>2026-04-04T13:13:06.941Z</time></trkpt><trkpt lat="43.087037" lon="11.54464"><ele>271.8</ele><time>2026-04-04T13:13:07.928Z</time></trkpt><trkpt lat="43.087103" lon="11.5447399"><ele>271.40000000000003</ele><time>2026-04-04T13:13:09.941Z</time></trkpt><trkpt lat="43.0871007" lon="11.5448762"><ele>271.0</ele><time>2026-04-04T13:13:12.928Z</time></trkpt><trkpt lat="43.0870447" lon="11.5450289"><ele>271.0</ele><time>2026-04-04T13:13:14.93Z</time></trkpt><trkpt lat="43.087017" lon="11.5451186"><ele>271.0</ele><time>2026-04-04T13:13:15.93Z</time></trkpt><trkpt lat="43.0869837" lon="11.5452283"><ele>271.0</ele><time>2026-04-04T13:13:16.928Z</time></trkpt><trkpt lat="43.0869501" lon="11.5453424"><ele>271.0</ele><time>2026-04-04T13:13:17.926Z</time></trkpt><trkpt lat="43.0869171" lon="11.5454593"><ele>271.0</ele><time>2026-04-04T13:13:18.944Z</time></trkpt><trkpt lat="43.0868856" lon="11.5455713"><ele>271.0</ele><time>2026-04-04T13:13:19.933Z</time></trkpt><trkpt lat="43.0868557" lon="11.5456855"><ele>270.42857142857144</ele><time>2026-04-04T13:13:20.925Z</time></trkpt><trkpt lat="43.0868296" lon="11.5457758"><ele>269.8571428571429</ele><time>2026-04-04T13:13:21.92Z</time></trkpt><trkpt lat="43.0868053" lon="11.5458808"><ele>269.28571428571433</ele><time>2026-04-04T13:13:23.928Z</time></trkpt><trkpt lat="43.0868439" lon="11.545803"><ele>268.7142857142857</ele><time>2026-04-04T13:13:38.936Z</time></trkpt><trkpt lat="43.0868681" lon="11.5457152"><ele>268.14285714285717</ele><time>2026-04-04T13:13:39.925Z</time></trkpt><trkpt lat="43.0868975" lon="11.5456203"><ele>267.5714285714286</ele><time>2026-04-04T13:13:40.952Z</time></trkpt><trkpt lat="43.0869205" lon="11.5455223"><ele>267.0</ele><time>2026-04-04T13:13:41.941Z</time></trkpt><trkpt lat="43.0869518" lon="11.5454263"><ele>267.6666666666667</ele><time>2026-04-04T13:13:42.94Z</time></trkpt><trkpt lat="43.0869847" lon="11.5453288"><ele>268.3333333333333</ele><time>2026-04-04T13:13:43.937Z</time></trkpt><trkpt lat="43.0870165" lon="11.5452415"><ele>269.0</ele><time>2026-04-04T13:13:44.934Z</time></trkpt><trkpt lat="43.0870758" lon="11.5451464"><ele>269.66666666666663</ele><time>2026-04-04T13:13:46.94Z</time></trkpt><trkpt lat="43.087151" lon="11.5451614"><ele>270.3333333333333</ele><time>2026-04-04T13:13:48.935Z</time></trkpt><trkpt lat="43.087251" lon="11.5452384"><ele>271.0</ele><time>2026-04-04T13:13:50.923Z</time></trkpt><trkpt lat="43.0873136" lon="11.5452724"><ele>271.0</ele><time>2026-04-04T13:13:51.934Z</time></trkpt><trkpt lat="43.0873779" lon="11.5453131"><ele>271.0</ele><time>2026-04-04T13:13:52.935Z</time></trkpt><trkpt lat="43.0874412" lon="11.5453582"><ele>271.0</ele><time>2026-04-04T13:13:53.942Z</time></trkpt><trkpt lat="43.0875085" lon="11.5454286"><ele>271.0</ele><time>2026-04-04T13:13:55.939Z</time></trkpt><trkpt lat="43.0875215" lon="11.5455276"><ele>271.0</ele><time>2026-04-04T13:13:57.923Z</time></trkpt><trkpt lat="43.0874705" lon="11.5457063"><ele>271.0</ele><time>2026-04-04T13:13:59.913Z</time></trkpt><trkpt lat="43.087437" lon="11.5458159"><ele>270.2</ele><time>2026-04-04T13:14:00.916Z</time></trkpt><trkpt lat="43.0873973" lon="11.5459337"><ele>269.40000000000003</ele><time>2026-04-04T13:14:01.937Z</time></trkpt><trkpt lat="43.0873586" lon="11.5460521"><ele>268.6</ele><time>2026-04-04T13:14:02.923Z</time></trkpt><trkpt lat="43.0873199" lon="11.5461709"><ele>267.8</ele><time>2026-04-04T13:14:03.941Z</time></trkpt><trkpt lat="43.0872759" lon="11.546289"><ele>267.0</ele><time>2026-04-04T13:14:04.93Z</time></trkpt><trkpt lat="43.0872358" lon="11.5464032"><ele>266.8333333333333</ele><time>2026-04-04T13:14:05.917Z</time></trkpt><trkpt lat="43.0872025" lon="11.546516"><ele>266.6666666666667</ele><time>2026-04-04T13:14:06.918Z</time></trkpt><trkpt lat="43.0871631" lon="11.5466297"><ele>266.5</ele><time>2026-04-04T13:14:07.928Z</time></trkpt><trkpt lat="43.0871306" lon="11.5467377"><ele>266.33333333333337</ele><time>2026-04-04T13:14:08.929Z</time></trkpt><trkpt lat="43.0870993" lon="11.5468436"><ele>266.1666666666667</ele><time>2026-04-04T13:14:09.93Z</time></trkpt><trkpt lat="43.0870697" lon="11.5469511"><ele>266.0</ele><time>2026-04-04T13:14:10.945Z</time></trkpt><trkpt lat="43.0870412" lon="11.5470567"><ele>265.5</ele><time>2026-04-04T13:14:11.93Z</time></trkpt><trkpt lat="43.0870127" lon="11.5471421"><ele>265.0</ele><time>2026-04-04T13:14:12.936Z</time></trkpt><trkpt lat="43.0869592" lon="11.5472818"><ele>264.5</ele><time>2026-04-04T13:14:14.924Z</time></trkpt><trkpt lat="43.0869329" lon="11.5473722"><ele>264.0</ele><time>2026-04-04T13:14:16.94Z</time></trkpt><trkpt lat="43.0868888" lon="11.5474454"><ele>263.5</ele><time>2026-04-04T13:14:31.925Z</time></trkpt><trkpt lat="43.0869305" lon="11.5473354"><ele>263.0</ele><time>2026-04-04T13:14:38.918Z</time></trkpt><trkpt lat="43.0869953" lon="11.5471899"><ele>263.0</ele><time>2026-04-04T13:14:40.914Z</time></trkpt><trkpt lat="43.0870358" lon="11.5471037"><ele>263.0</ele><time>2026-04-04T13:14:41.92Z</time></trkpt><trkpt lat="43.0870762" lon="11.5470075"><ele>263.0</ele><time>2026-04-04T13:14:42.907Z</time></trkpt><trkpt lat="43.0871125" lon="11.5468971"><ele>263.0</ele><time>2026-04-04T13:14:43.921Z</time></trkpt><trkpt lat="43.0871462" lon="11.5467815"><ele>263.0</ele><time>2026-04-04T13:14:44.9Z</time></trkpt><trkpt lat="43.0871821" lon="11.546668"><ele>263.0</ele><time>2026-04-04T13:14:45.914Z</time></trkpt><trkpt lat="43.0872144" lon="11.5465645"><ele>263.5</ele><time>2026-04-04T13:14:46.914Z</time></trkpt><trkpt lat="43.0872507" lon="11.5464564"><ele>264.0</ele><time>2026-04-04T13:14:47.926Z</time></trkpt><trkpt lat="43.0872805" lon="11.5463569"><ele>264.5</ele><time>2026-04-04T13:14:48.924Z</time></trkpt><trkpt lat="43.0873142" lon="11.5462522"><ele>265.0</ele><time>2026-04-04T13:14:49.92Z</time></trkpt><trkpt lat="43.0873463" lon="11.5461427"><ele>265.5</ele><time>2026-04-04T13:14:50.918Z</time></trkpt><trkpt lat="43.0873861" lon="11.5460232"><ele>266.0</ele><time>2026-04-04T13:14:51.921Z</time></trkpt><trkpt lat="43.0874295" lon="11.5459116"><ele>267.8</ele><time>2026-04-04T13:14:52.923Z</time></trkpt><trkpt lat="43.0874655" lon="11.545791"><ele>269.6</ele><time>2026-04-04T13:14:53.917Z</time></trkpt><trkpt lat="43.0875054" lon="11.5456771"><ele>271.4</ele><time>2026-04-04T13:14:54.922Z</time></trkpt><trkpt lat="43.0875382" lon="11.5455686"><ele>273.2</ele><time>2026-04-04T13:14:55.926Z</time></trkpt><trkpt lat="43.0875561" lon="11.5454126"><ele>275.0</ele><time>2026-04-04T13:14:57.917Z</time></trkpt><trkpt lat="43.0874509" lon="11.5452933"><ele>274.33333333333337</ele><time>2026-04-04T13:14:59.918Z</time></trkpt><trkpt lat="43.0873696" lon="11.5452436"><ele>273.6666666666667</ele><time>2026-04-04T13:15:00.912Z</time></trkpt><trkpt lat="43.0872841" lon="11.5451822"><ele>273.0</ele><time>2026-04-04T13:15:01.925Z</time></trkpt><trkpt lat="43.0872178" lon="11.5451306"><ele>272.3333333333333</ele><time>2026-04-04T13:15:02.916Z</time></trkpt><trkpt lat="43.087129" lon="11.5450786"><ele>271.66666666666663</ele><time>2026-04-04T13:15:04.916Z</time></trkpt><trkpt lat="43.087049" lon="11.5451271"><ele>271.0</ele><time>2026-04-04T13:15:09.916Z</time></trkpt><trkpt lat="43.0870039" lon="11.5452207"><ele>271.0</ele><time>2026-04-04T13:15:10.914Z</time></trkpt><trkpt lat="43.0869558" lon="11.5453345"><ele>271.0</ele><time>2026-04-04T13:15:11.926Z</time></trkpt><trkpt lat="43.0869104" lon="11.5454675"><ele>271.0</ele><time>2026-04-04T13:15:12.923Z</time></trkpt><trkpt lat="43.0868801" lon="11.5456034"><ele>271.0</ele><time>2026-04-04T13:15:13.917Z</time></trkpt><trkpt lat="43.08685" lon="11.5457332"><ele>271.0</ele><time>2026-04-04T13:15:14.918Z</time></trkpt><trkpt lat="43.0868187" lon="11.5458704"><ele>270.2</ele><time>2026-04-04T13:15:15.915Z</time></trkpt><trkpt lat="43.0867876" lon="11.546"><ele>269.40000000000003</ele><time>2026-04-04T13:15:16.929Z</time></trkpt><trkpt lat="43.0867544" lon="11.546134"><ele>268.6</ele><time>2026-04-04T13:15:17.923Z</time></trkpt><trkpt lat="43.0867241" lon="11.546262"><ele>267.8</ele><time>2026-04-04T13:15:18.919Z</time></trkpt><trkpt lat="43.0866952" lon="11.5463864"><ele>267.0</ele><time>2026-04-04T13:15:19.914Z</time></trkpt><trkpt lat="43.0866673" lon="11.5465114"><ele>266.8</ele><time>2026-04-04T13:15:20.914Z</time></trkpt><trkpt lat="43.0866373" lon="11.546641"><ele>266.6</ele><time>2026-04-04T13:15:21.921Z</time></trkpt><trkpt lat="43.0866009" lon="11.5467677"><ele>266.40000000000003</ele><time>2026-04-04T13:15:22.914Z</time></trkpt><trkpt lat="43.086562" lon="11.5468916"><ele>266.2</ele><time>2026-04-04T13:15:23.919Z</time></trkpt><trkpt lat="43.0865275" lon="11.5470209"><ele>266.0</ele><time>2026-04-04T13:15:24.912Z</time></trkpt><trkpt lat="43.0865013" lon="11.547151"><ele>264.40000000000003</ele><time>2026-04-04T13:15:25.923Z</time></trkpt><trkpt lat="43.0864717" lon="11.5472812"><ele>262.8</ele><time>2026-04-04T13:15:26.918Z</time></trkpt><trkpt lat="43.0864447" lon="11.5474061"><ele>261.20000000000005</ele><time>2026-04-04T13:15:27.932Z</time></trkpt><trkpt lat="43.0864167" lon="11.5475271"><ele>259.6</ele><time>2026-04-04T13:15:28.92Z</time></trkpt><trkpt lat="43.0863928" lon="11.5476435"><ele>258.0</ele><time>2026-04-04T13:15:29.918Z</time></trkpt><trkpt lat="43.0863786" lon="11.5477479"><ele>257.6</ele><time>2026-04-04T13:15:30.915Z</time></trkpt><trkpt lat="43.0863573" lon="11.5479122"><ele>257.20000000000005</ele><time>2026-04-04T13:15:32.918Z</time></trkpt><trkpt lat="43.0863191" lon="11.5480648"><ele>256.8</ele><time>2026-04-04T13:15:34.911Z</time></trkpt><trkpt lat="43.0862766" lon="11.5482237"><ele>256.40000000000003</ele><time>2026-04-04T13:15:36.919Z</time></trkpt><trkpt lat="43.0862473" lon="11.5483117"><ele>256.0</ele><time>2026-04-04T13:15:38.913Z</time></trkpt><trkpt lat="43.0862926" lon="11.5483795"><ele>255.99999999999997</ele><time>2026-04-04T13:15:42.912Z</time></trkpt><trkpt lat="43.0863003" lon="11.548284"><ele>256.0</ele><time>2026-04-04T13:16:04.917Z</time></trkpt><trkpt lat="43.0863163" lon="11.5481854"><ele>256.0</ele><time>2026-04-04T13:16:08.917Z</time></trkpt><trkpt lat="43.086351" lon="11.5480504"><ele>256.0</ele><time>2026-04-04T13:17:13.92Z</time></trkpt><trkpt lat="43.0863739" lon="11.5479425"><ele>255.99999999999997</ele><time>2026-04-04T13:17:14.922Z</time></trkpt><trkpt lat="43.0864106" lon="11.5478232"><ele>256.0</ele><time>2026-04-04T13:17:15.921Z</time></trkpt><trkpt lat="43.086433" lon="11.5476917"><ele>256.5</ele><time>2026-04-04T13:17:16.927Z</time></trkpt><trkpt lat="43.0864582" lon="11.5475488"><ele>257.0</ele><time>2026-04-04T13:17:17.929Z</time></trkpt><trkpt lat="43.0864834" lon="11.5473989"><ele>257.5</ele><time>2026-04-04T13:17:18.921Z</time></trkpt><trkpt lat="43.08652" lon="11.5472388"><ele>258.0</ele><time>2026-04-04T13:17:19.924Z</time></trkpt><trkpt lat="43.0865517" lon="11.5470781"><ele>258.2</ele><time>2026-04-04T13:17:20.92Z</time></trkpt><trkpt lat="43.0865851" lon="11.5469288"><ele>258.4</ele><time>2026-04-04T13:17:21.929Z</time></trkpt><trkpt lat="43.086618" lon="11.5467795"><ele>258.59999999999997</ele><time>2026-04-04T13:17:22.921Z</time></trkpt><trkpt lat="43.0866474" lon="11.5466358"><ele>258.8</ele><time>2026-04-04T13:17:23.917Z</time></trkpt><trkpt lat="43.0866848" lon="11.5465077"><ele>259.0</ele><time>2026-04-04T13:17:24.919Z</time></trkpt><trkpt lat="43.0867234" lon="11.5463815"><ele>259.5</ele><time>2026-04-04T13:17:25.92Z</time></trkpt><trkpt lat="43.0867501" lon="11.5462645"><ele>260.0</ele><time>2026-04-04T13:17:26.923Z</time></trkpt><trkpt lat="43.0867539" lon="11.5461166"><ele>260.5</ele><time>2026-04-04T13:17:28.917Z</time></trkpt><trkpt lat="43.0866981" lon="11.5460405"><ele>261.0</ele><time>2026-04-04T13:17:30.912Z</time></trkpt><trkpt lat="43.0866254" lon="11.546002"><ele>261.5</ele><time>2026-04-04T13:17:31.926Z</time></trkpt><trkpt lat="43.0865385" lon="11.5459642"><ele>262.0</ele><time>2026-04-04T13:17:32.916Z</time></trkpt><trkpt lat="43.0864582" lon="11.5459328"><ele>262.0</ele><time>2026-04-04T13:17:33.916Z</time></trkpt><trkpt lat="43.0863665" lon="11.5459089"><ele>262.0</ele><time>2026-04-04T13:17:34.919Z</time></trkpt><trkpt lat="43.0862639" lon="11.5458844"><ele>262.0</ele><time>2026-04-04T13:17:35.927Z</time></trkpt><trkpt lat="43.0861518" lon="11.5458611"><ele>262.0</ele><time>2026-04-04T13:17:36.915Z</time></trkpt><trkpt lat="43.0860437" lon="11.5458323"><ele>262.0</ele><time>2026-04-04T13:17:37.919Z</time></trkpt><trkpt lat="43.0859385" lon="11.5458028"><ele>262.0</ele><time>2026-04-04T13:17:38.915Z</time></trkpt><trkpt lat="43.085858" lon="11.5457876"><ele>262.0</ele><time>2026-04-04T13:17:39.919Z</time></trkpt><trkpt lat="43.085757" lon="11.5458157"><ele>262.0</ele><time>2026-04-04T13:17:41.922Z</time></trkpt><trkpt lat="43.0857169" lon="11.5458853"><ele>262.0</ele><time>2026-04-04T13:17:42.922Z</time></trkpt><trkpt lat="43.0856809" lon="11.5459782"><ele>262.0</ele><time>2026-04-04T13:17:43.921Z</time></trkpt><trkpt lat="43.0856386" lon="11.5460696"><ele>262.0</ele><time>2026-04-04T13:17:44.92Z</time></trkpt><trkpt lat="43.0855853" lon="11.5461796"><ele>261.4</ele><time>2026-04-04T13:17:45.916Z</time></trkpt><trkpt lat="43.0855337" lon="11.5462901"><ele>260.79999999999995</ele><time>2026-04-04T13:17:46.917Z</time></trkpt><trkpt lat="43.0854802" lon="11.5464019"><ele>260.2</ele><time>2026-04-04T13:17:47.921Z</time></trkpt><trkpt lat="43.0854295" lon="11.5465072"><ele>259.59999999999997</ele><time>2026-04-04T13:17:48.922Z</time></trkpt><trkpt lat="43.0853767" lon="11.5465979"><ele>259.0</ele><time>2026-04-04T13:17:49.922Z</time></trkpt><trkpt lat="43.0853254" lon="11.5467119"><ele>259.0</ele><time>2026-04-04T13:17:50.922Z</time></trkpt><trkpt lat="43.0852747" lon="11.5468145"><ele>259.0</ele><time>2026-04-04T13:17:51.916Z</time></trkpt><trkpt lat="43.0852236" lon="11.5469217"><ele>259.0</ele><time>2026-04-04T13:17:52.92Z</time></trkpt><trkpt lat="43.0851759" lon="11.5470249"><ele>259.0</ele><time>2026-04-04T13:17:53.914Z</time></trkpt><trkpt lat="43.0851297" lon="11.5471209"><ele>259.0</ele><time>2026-04-04T13:17:54.924Z</time></trkpt><trkpt lat="43.0850831" lon="11.5472098"><ele>259.0</ele><time>2026-04-04T13:17:55.916Z</time></trkpt><trkpt lat="43.0850401" lon="11.5473027"><ele>258.5</ele><time>2026-04-04T13:17:56.914Z</time></trkpt><trkpt lat="43.0849934" lon="11.5473929"><ele>258.0</ele><time>2026-04-04T13:17:57.919Z</time></trkpt><trkpt lat="43.0849478" lon="11.5474881"><ele>257.5</ele><time>2026-04-04T13:17:58.916Z</time></trkpt><trkpt lat="43.0849002" lon="11.5475819"><ele>257.0</ele><time>2026-04-04T13:17:59.922Z</time></trkpt><trkpt lat="43.0848554" lon="11.5476747"><ele>256.5</ele><time>2026-04-04T13:18:00.919Z</time></trkpt><trkpt lat="43.0848135" lon="11.5477642"><ele>256.0</ele><time>2026-04-04T13:18:01.917Z</time></trkpt><trkpt lat="43.0847721" lon="11.5478503"><ele>254.83333333333331</ele><time>2026-04-04T13:18:02.921Z</time></trkpt><trkpt lat="43.0847378" lon="11.5479318"><ele>253.66666666666666</ele><time>2026-04-04T13:18:03.923Z</time></trkpt><trkpt lat="43.0846746" lon="11.5480651"><ele>252.5</ele><time>2026-04-04T13:18:05.92Z</time></trkpt><trkpt lat="43.0846311" lon="11.5481613"><ele>251.33333333333331</ele><time>2026-04-04T13:18:07.914Z</time></trkpt><trkpt lat="43.0845954" lon="11.5482356"><ele>250.16666666666666</ele><time>2026-04-04T13:18:09.912Z</time></trkpt><trkpt lat="43.0846591" lon="11.5483335"><ele>249.0</ele><time>2026-04-04T13:18:12.916Z</time></trkpt><trkpt lat="43.0847275" lon="11.548374"><ele>249.0</ele><time>2026-04-04T13:18:13.919Z</time></trkpt><trkpt lat="43.084802" lon="11.5484173"><ele>248.99999999999997</ele><time>2026-04-04T13:18:14.918Z</time></trkpt><trkpt lat="43.0848714" lon="11.5484795"><ele>248.99999999999997</ele><time>2026-04-04T13:18:15.919Z</time></trkpt><trkpt lat="43.0849519" lon="11.5485515"><ele>249.0</ele><time>2026-04-04T13:18:16.911Z</time></trkpt><trkpt lat="43.0850416" lon="11.5486413"><ele>249.0</ele><time>2026-04-04T13:18:17.912Z</time></trkpt><trkpt lat="43.0851308" lon="11.5487362"><ele>249.5</ele><time>2026-04-04T13:18:18.918Z</time></trkpt><trkpt lat="43.0852288" lon="11.5488306"><ele>250.0</ele><time>2026-04-04T13:18:19.923Z</time></trkpt><trkpt lat="43.0853262" lon="11.5489276"><ele>250.5</ele><time>2026-04-04T13:18:20.926Z</time></trkpt><trkpt lat="43.0854311" lon="11.5490271"><ele>251.0</ele><time>2026-04-04T13:18:21.926Z</time></trkpt><trkpt lat="43.0855402" lon="11.5491252"><ele>251.0</ele><time>2026-04-04T13:18:22.916Z</time></trkpt><trkpt lat="43.0856475" lon="11.5492078"><ele>251.00000000000003</ele><time>2026-04-04T13:18:23.923Z</time></trkpt><trkpt lat="43.0857644" lon="11.5492759"><ele>251.00000000000003</ele><time>2026-04-04T13:18:24.918Z</time></trkpt><trkpt lat="43.0858641" lon="11.5493458"><ele>251.0</ele><time>2026-04-04T13:18:25.913Z</time></trkpt><trkpt lat="43.0859342" lon="11.5493899"><ele>251.0</ele><time>2026-04-04T13:18:26.918Z</time></trkpt><trkpt lat="43.085986" lon="11.5494651"><ele>250.83333333333334</ele><time>2026-04-04T13:18:29.914Z</time></trkpt><trkpt lat="43.0859542" lon="11.5495793"><ele>250.66666666666669</ele><time>2026-04-04T13:18:31.913Z</time></trkpt><trkpt lat="43.0859052" lon="11.5496537"><ele>250.5</ele><time>2026-04-04T13:18:32.915Z</time></trkpt><trkpt lat="43.0858335" lon="11.5497336"><ele>250.33333333333331</ele><time>2026-04-04T13:18:33.919Z</time></trkpt><trkpt lat="43.0857749" lon="11.5498187"><ele>250.16666666666666</ele><time>2026-04-04T13:18:34.912Z</time></trkpt><trkpt lat="43.0857147" lon="11.5499071"><ele>250.0</ele><time>2026-04-04T13:18:35.918Z</time></trkpt><trkpt lat="43.0856508" lon="11.5499991"><ele>250.0</ele><time>2026-04-04T13:18:36.918Z</time></trkpt><trkpt lat="43.0855873" lon="11.5500897"><ele>250.0</ele><time>2026-04-04T13:18:37.923Z</time></trkpt><trkpt lat="43.0855241" lon="11.5501865"><ele>250.0</ele><time>2026-04-04T13:18:38.917Z</time></trkpt><trkpt lat="43.0854581" lon="11.5502839"><ele>250.0</ele><time>2026-04-04T13:18:39.917Z</time></trkpt><trkpt lat="43.085393" lon="11.5503846"><ele>250.0</ele><time>2026-04-04T13:18:40.921Z</time></trkpt><trkpt lat="43.0853263" lon="11.5504913"><ele>249.6</ele><time>2026-04-04T13:18:41.914Z</time></trkpt><trkpt lat="43.0852614" lon="11.5505949"><ele>249.2</ele><time>2026-04-04T13:18:42.915Z</time></trkpt><trkpt lat="43.0851973" lon="11.5506983"><ele>248.8</ele><time>2026-04-04T13:18:43.912Z</time></trkpt><trkpt lat="43.0851304" lon="11.550799"><ele>248.4</ele><time>2026-04-04T13:18:44.918Z</time></trkpt><trkpt lat="43.0850619" lon="11.5508992"><ele>248.0</ele><time>2026-04-04T13:18:45.913Z</time></trkpt><trkpt lat="43.0849992" lon="11.5509979"><ele>248.0</ele><time>2026-04-04T13:18:46.925Z</time></trkpt><trkpt lat="43.0849294" lon="11.5510951"><ele>248.0</ele><time>2026-04-04T13:18:47.916Z</time></trkpt><trkpt lat="43.0848518" lon="11.5511954"><ele>248.0</ele><time>2026-04-04T13:18:48.915Z</time></trkpt><trkpt lat="43.0847694" lon="11.5513001"><ele>248.0</ele><time>2026-04-04T13:18:49.915Z</time></trkpt><trkpt lat="43.0846827" lon="11.5514137"><ele>248.0</ele><time>2026-04-04T13:18:50.927Z</time></trkpt><trkpt lat="43.0845965" lon="11.5515349"><ele>247.5</ele><time>2026-04-04T13:18:51.922Z</time></trkpt><trkpt lat="43.0845067" lon="11.5516669"><ele>247.0</ele><time>2026-04-04T13:18:52.924Z</time></trkpt><trkpt lat="43.0844141" lon="11.551799"><ele>246.5</ele><time>2026-04-04T13:18:53.915Z</time></trkpt><trkpt lat="43.0843202" lon="11.5519303"><ele>246.0</ele><time>2026-04-04T13:18:54.923Z</time></trkpt><trkpt lat="43.0842295" lon="11.5520659"><ele>245.0</ele><time>2026-04-04T13:18:55.926Z</time></trkpt><trkpt lat="43.0841601" lon="11.5522093"><ele>244.0</ele><time>2026-04-04T13:18:56.933Z</time></trkpt><trkpt lat="43.0840955" lon="11.5523551"><ele>243.0</ele><time>2026-04-04T13:18:57.929Z</time></trkpt><trkpt lat="43.0840307" lon="11.5525081"><ele>242.0</ele><time>2026-04-04T13:18:58.923Z</time></trkpt><trkpt lat="43.0839682" lon="11.5526801"><ele>242.0</ele><time>2026-04-04T13:18:59.938Z</time></trkpt><trkpt lat="43.0839126" lon="11.5528704"><ele>242.0</ele><time>2026-04-04T13:19:00.933Z</time></trkpt><trkpt lat="43.0838687" lon="11.553063"><ele>242.0</ele><time>2026-04-04T13:19:01.913Z</time></trkpt><trkpt lat="43.0838227" lon="11.5532675"><ele>242.33333333333334</ele><time>2026-04-04T13:19:02.931Z</time></trkpt><trkpt lat="43.0837869" lon="11.5534844"><ele>242.66666666666669</ele><time>2026-04-04T13:19:03.927Z</time></trkpt><trkpt lat="43.0837527" lon="11.5536993"><ele>243.0</ele><time>2026-04-04T13:19:04.926Z</time></trkpt><trkpt lat="43.0837269" lon="11.5539306"><ele>244.0</ele><time>2026-04-04T13:19:05.924Z</time></trkpt><trkpt lat="43.0837018" lon="11.5541586"><ele>245.0</ele><time>2026-04-04T13:19:06.918Z</time></trkpt><trkpt lat="43.0836749" lon="11.5543867"><ele>246.0</ele><time>2026-04-04T13:19:07.923Z</time></trkpt><trkpt lat="43.0836417" lon="11.5546124"><ele>247.66666666666669</ele><time>2026-04-04T13:19:08.92Z</time></trkpt><trkpt lat="43.0836076" lon="11.5548262"><ele>249.33333333333334</ele><time>2026-04-04T13:19:09.919Z</time></trkpt><trkpt lat="43.0835749" lon="11.5550354"><ele>251.0</ele><time>2026-04-04T13:19:10.916Z</time></trkpt><trkpt lat="43.0835431" lon="11.5552313"><ele>252.0</ele><time>2026-04-04T13:19:11.916Z</time></trkpt><trkpt lat="43.083512" lon="11.555423"><ele>253.0</ele><time>2026-04-04T13:19:12.919Z</time></trkpt><trkpt lat="43.0834921" lon="11.5556182"><ele>254.0</ele><time>2026-04-04T13:19:13.926Z</time></trkpt><trkpt lat="43.0834843" lon="11.5558189"><ele>255.0</ele><time>2026-04-04T13:19:14.923Z</time></trkpt><trkpt lat="43.0835179" lon="11.5559957"><ele>255.0</ele><time>2026-04-04T13:19:15.931Z</time></trkpt><trkpt lat="43.0836007" lon="11.5561257"><ele>255.0</ele><time>2026-04-04T13:19:16.928Z</time></trkpt><trkpt lat="43.0837072" lon="11.5562175"><ele>255.0</ele><time>2026-04-04T13:19:17.93Z</time></trkpt><trkpt lat="43.0838368" lon="11.5562769"><ele>255.0</ele><time>2026-04-04T13:19:18.923Z</time></trkpt><trkpt lat="43.0839697" lon="11.5563245"><ele>255.0</ele><time>2026-04-04T13:19:19.932Z</time></trkpt><trkpt lat="43.0840935" lon="11.5563984"><ele>255.0</ele><time>2026-04-04T13:19:20.937Z</time></trkpt><trkpt lat="43.0842126" lon="11.5565002"><ele>255.0</ele><time>2026-04-04T13:19:21.926Z</time></trkpt><trkpt lat="43.084326" lon="11.5566204"><ele>255.0</ele><time>2026-04-04T13:19:22.926Z</time></trkpt><trkpt lat="43.0844269" lon="11.5567662"><ele>257.5</ele><time>2026-04-04T13:19:23.923Z</time></trkpt><trkpt lat="43.0845097" lon="11.556934"><ele>260.0</ele><time>2026-04-04T13:19:24.926Z</time></trkpt><trkpt lat="43.0845571" lon="11.557104"><ele>262.5</ele><time>2026-04-04T13:19:25.928Z</time></trkpt><trkpt lat="43.0845786" lon="11.5573111"><ele>265.0</ele><time>2026-04-04T13:19:26.924Z</time></trkpt><trkpt lat="43.0845827" lon="11.5575013"><ele>267.0</ele><time>2026-04-04T13:19:27.92Z</time></trkpt><trkpt lat="43.0845772" lon="11.5576917"><ele>269.0</ele><time>2026-04-04T13:19:28.924Z</time></trkpt><trkpt lat="43.08456" lon="11.5578844"><ele>271.0</ele><time>2026-04-04T13:19:29.925Z</time></trkpt><trkpt lat="43.0845284" lon="11.5580687"><ele>273.0</ele><time>2026-04-04T13:19:30.923Z</time></trkpt><trkpt lat="43.0844765" lon="11.558247"><ele>274.0</ele><time>2026-04-04T13:19:31.917Z</time></trkpt><trkpt lat="43.0844189" lon="11.5584027"><ele>275.0</ele><time>2026-04-04T13:19:32.917Z</time></trkpt><trkpt lat="43.0843717" lon="11.5585456"><ele>276.0</ele><time>2026-04-04T13:19:33.922Z</time></trkpt><trkpt lat="43.0843519" lon="11.5586821"><ele>277.0</ele><time>2026-04-04T13:19:34.924Z</time></trkpt><trkpt lat="43.084349" lon="11.5588212"><ele>278.0</ele><time>2026-04-04T13:19:35.925Z</time></trkpt><trkpt lat="43.0843667" lon="11.5589663"><ele>278.6</ele><time>2026-04-04T13:19:36.916Z</time></trkpt><trkpt lat="43.0844069" lon="11.5591002"><ele>279.20000000000005</ele><time>2026-04-04T13:19:37.921Z</time></trkpt><trkpt lat="43.0844769" lon="11.5591787"><ele>279.8</ele><time>2026-04-04T13:19:38.913Z</time></trkpt><trkpt lat="43.084582" lon="11.5592288"><ele>280.40000000000003</ele><time>2026-04-04T13:19:39.917Z</time></trkpt><trkpt lat="43.0846943" lon="11.5592647"><ele>281.0</ele><time>2026-04-04T13:19:40.917Z</time></trkpt><trkpt lat="43.0847917" lon="11.5593452"><ele>281.0</ele><time>2026-04-04T13:19:41.918Z</time></trkpt><trkpt lat="43.0848298" lon="11.5594547"><ele>281.0</ele><time>2026-04-04T13:19:42.922Z</time></trkpt><trkpt lat="43.0848375" lon="11.5595947"><ele>281.0</ele><time>2026-04-04T13:19:43.92Z</time></trkpt><trkpt lat="43.0848124" lon="11.5597371"><ele>281.0</ele><time>2026-04-04T13:19:44.913Z</time></trkpt><trkpt lat="43.0848056" lon="11.5598894"><ele>281.0</ele><time>2026-04-04T13:19:45.914Z</time></trkpt><trkpt lat="43.0848266" lon="11.5600306"><ele>281.0</ele><time>2026-04-04T13:19:46.918Z</time></trkpt><trkpt lat="43.0849022" lon="11.5601503"><ele>281.0</ele><time>2026-04-04T13:19:47.916Z</time></trkpt><trkpt lat="43.0849967" lon="11.5602438"><ele>281.0</ele><time>2026-04-04T13:19:48.917Z</time></trkpt><trkpt lat="43.0850751" lon="11.5603499"><ele>281.0</ele><time>2026-04-04T13:19:49.912Z</time></trkpt><trkpt lat="43.0851107" lon="11.5604889"><ele>283.0</ele><time>2026-04-04T13:19:50.915Z</time></trkpt><trkpt lat="43.0850961" lon="11.5606224"><ele>285.0</ele><time>2026-04-04T13:19:51.916Z</time></trkpt><trkpt lat="43.0850504" lon="11.5607478"><ele>287.0</ele><time>2026-04-04T13:19:52.92Z</time></trkpt><trkpt lat="43.0849745" lon="11.5608497"><ele>289.0</ele><time>2026-04-04T13:19:53.921Z</time></trkpt><trkpt lat="43.0848898" lon="11.5609255"><ele>291.0</ele><time>2026-04-04T13:19:54.92Z</time></trkpt><trkpt lat="43.0848223" lon="11.561022"><ele>291.40000000000003</ele><time>2026-04-04T13:19:55.925Z</time></trkpt><trkpt lat="43.0847996" lon="11.5611513"><ele>291.8</ele><time>2026-04-04T13:19:56.933Z</time></trkpt><trkpt lat="43.0848111" lon="11.5613046"><ele>292.20000000000005</ele><time>2026-04-04T13:19:57.918Z</time></trkpt><trkpt lat="43.0848637" lon="11.5614419"><ele>292.6</ele><time>2026-04-04T13:19:58.912Z</time></trkpt><trkpt lat="43.0849112" lon="11.5615745"><ele>293.0</ele><time>2026-04-04T13:19:59.914Z</time></trkpt><trkpt lat="43.0849621" lon="11.5617072"><ele>294.25</ele><time>2026-04-04T13:20:00.917Z</time></trkpt><trkpt lat="43.0850087" lon="11.5618446"><ele>295.5</ele><time>2026-04-04T13:20:01.917Z</time></trkpt><trkpt lat="43.0850595" lon="11.5619875"><ele>296.75</ele><time>2026-04-04T13:20:02.916Z</time></trkpt><trkpt lat="43.0851001" lon="11.5621403"><ele>298.0</ele><time>2026-04-04T13:20:03.917Z</time></trkpt><trkpt lat="43.0851102" lon="11.5623041"><ele>298.75</ele><time>2026-04-04T13:20:04.916Z</time></trkpt><trkpt lat="43.0850832" lon="11.5624618"><ele>299.5</ele><time>2026-04-04T13:20:05.922Z</time></trkpt><trkpt lat="43.0850222" lon="11.5625988"><ele>300.25</ele><time>2026-04-04T13:20:06.921Z</time></trkpt><trkpt lat="43.0849321" lon="11.5627146"><ele>301.0</ele><time>2026-04-04T13:20:07.929Z</time></trkpt><trkpt lat="43.084816" lon="11.5627883"><ele>302.0</ele><time>2026-04-04T13:20:08.928Z</time></trkpt><trkpt lat="43.0846888" lon="11.56282"><ele>303.0</ele><time>2026-04-04T13:20:09.921Z</time></trkpt><trkpt lat="43.0845482" lon="11.562832"><ele>304.0</ele><time>2026-04-04T13:20:10.921Z</time></trkpt><trkpt lat="43.0844129" lon="11.5628379"><ele>305.0</ele><time>2026-04-04T13:20:11.928Z</time></trkpt><trkpt lat="43.0842738" lon="11.562853"><ele>304.0</ele><time>2026-04-04T13:20:12.923Z</time></trkpt><trkpt lat="43.0841372" lon="11.5628736"><ele>303.0</ele><time>2026-04-04T13:20:13.924Z</time></trkpt><trkpt lat="43.0840081" lon="11.5629166"><ele>302.0</ele><time>2026-04-04T13:20:14.921Z</time></trkpt><trkpt lat="43.0838726" lon="11.5629888"><ele>301.0</ele><time>2026-04-04T13:20:15.919Z</time></trkpt><trkpt lat="43.0837518" lon="11.5630876"><ele>301.0</ele><time>2026-04-04T13:20:16.915Z</time></trkpt><trkpt lat="43.0836295" lon="11.5632243"><ele>301.0</ele><time>2026-04-04T13:20:17.92Z</time></trkpt><trkpt lat="43.0835149" lon="11.5633872"><ele>301.0</ele><time>2026-04-04T13:20:18.921Z</time></trkpt><trkpt lat="43.0834046" lon="11.5635676"><ele>301.0</ele><time>2026-04-04T13:20:19.921Z</time></trkpt><trkpt lat="43.0833059" lon="11.5637651"><ele>301.0</ele><time>2026-04-04T13:20:20.929Z</time></trkpt><trkpt lat="43.0832105" lon="11.563972"><ele>301.0</ele><time>2026-04-04T13:20:21.925Z</time></trkpt><trkpt lat="43.0831248" lon="11.5641855"><ele>301.0</ele><time>2026-04-04T13:20:22.912Z</time></trkpt><trkpt lat="43.0830436" lon="11.5644023"><ele>301.0</ele><time>2026-04-04T13:20:23.922Z</time></trkpt><trkpt lat="43.0829538" lon="11.5646297"><ele>301.0</ele><time>2026-04-04T13:20:24.923Z</time></trkpt><trkpt lat="43.0828746" lon="11.5648466"><ele>303.0</ele><time>2026-04-04T13:20:25.917Z</time></trkpt><trkpt lat="43.0827899" lon="11.5650636"><ele>305.0</ele><time>2026-04-04T13:20:26.919Z</time></trkpt><trkpt lat="43.0826986" lon="11.5652585"><ele>307.0</ele><time>2026-04-04T13:20:27.923Z</time></trkpt><trkpt lat="43.0825891" lon="11.5654451"><ele>307.3333333333333</ele><time>2026-04-04T13:20:28.92Z</time></trkpt><trkpt lat="43.0824673" lon="11.5656243"><ele>307.6666666666667</ele><time>2026-04-04T13:20:29.926Z</time></trkpt><trkpt lat="43.0823483" lon="11.5658056"><ele>308.0</ele><time>2026-04-04T13:20:30.921Z</time></trkpt><trkpt lat="43.0822312" lon="11.5659901"><ele>308.0</ele><time>2026-04-04T13:20:31.922Z</time></trkpt><trkpt lat="43.0821144" lon="11.5661722"><ele>308.0</ele><time>2026-04-04T13:20:32.918Z</time></trkpt><trkpt lat="43.0819971" lon="11.5663542"><ele>308.0</ele><time>2026-04-04T13:20:33.917Z</time></trkpt><trkpt lat="43.0818815" lon="11.5665459"><ele>311.6666666666667</ele><time>2026-04-04T13:20:34.918Z</time></trkpt><trkpt lat="43.0817836" lon="11.5667546"><ele>315.3333333333333</ele><time>2026-04-04T13:20:35.917Z</time></trkpt><trkpt lat="43.0817048" lon="11.5669791"><ele>319.0</ele><time>2026-04-04T13:20:36.93Z</time></trkpt><trkpt lat="43.0816508" lon="11.5672062"><ele>322.0</ele><time>2026-04-04T13:20:37.923Z</time></trkpt><trkpt lat="43.081608" lon="11.5674389"><ele>325.0</ele><time>2026-04-04T13:20:38.925Z</time></trkpt><trkpt lat="43.0815777" lon="11.5676665"><ele>328.0</ele><time>2026-04-04T13:20:39.925Z</time></trkpt><trkpt lat="43.0815532" lon="11.5678959"><ele>322.0</ele><time>2026-04-04T13:20:40.923Z</time></trkpt><trkpt lat="43.0815381" lon="11.568121"><ele>316.0</ele><time>2026-04-04T13:20:41.919Z</time></trkpt><trkpt lat="43.0815209" lon="11.5683443"><ele>310.0</ele><time>2026-04-04T13:20:42.934Z</time></trkpt><trkpt lat="43.0814985" lon="11.5685614"><ele>313.66666666666663</ele><time>2026-04-04T13:20:43.922Z</time></trkpt><trkpt lat="43.0814586" lon="11.5687675"><ele>317.3333333333333</ele><time>2026-04-04T13:20:44.919Z</time></trkpt><trkpt lat="43.081396" lon="11.5689608"><ele>321.0</ele><time>2026-04-04T13:20:45.916Z</time></trkpt><trkpt lat="43.0813348" lon="11.5691529"><ele>321.0</ele><time>2026-04-04T13:20:46.919Z</time></trkpt><trkpt lat="43.0812679" lon="11.5693382"><ele>321.0</ele><time>2026-04-04T13:20:47.932Z</time></trkpt><trkpt lat="43.0811952" lon="11.5695209"><ele>321.0</ele><time>2026-04-04T13:20:48.925Z</time></trkpt><trkpt lat="43.0811232" lon="11.5697047"><ele>322.75</ele><time>2026-04-04T13:20:49.93Z</time></trkpt><trkpt lat="43.0810478" lon="11.5698814"><ele>324.5</ele><time>2026-04-04T13:20:50.925Z</time></trkpt><trkpt lat="43.0809482" lon="11.57003"><ele>326.25</ele><time>2026-04-04T13:20:51.93Z</time></trkpt><trkpt lat="43.0808377" lon="11.5701478"><ele>328.0</ele><time>2026-04-04T13:20:52.926Z</time></trkpt><trkpt lat="43.0807268" lon="11.5702244"><ele>328.0</ele><time>2026-04-04T13:20:53.918Z</time></trkpt><trkpt lat="43.0806283" lon="11.570274"><ele>328.0</ele><time>2026-04-04T13:20:54.92Z</time></trkpt><trkpt lat="43.0805385" lon="11.5703018"><ele>328.0</ele><time>2026-04-04T13:20:55.915Z</time></trkpt><trkpt lat="43.080453" lon="11.5703545"><ele>328.0</ele><time>2026-04-04T13:20:56.919Z</time></trkpt><trkpt lat="43.0803737" lon="11.5704012"><ele>328.0</ele><time>2026-04-04T13:20:57.915Z</time></trkpt><trkpt lat="43.0802863" lon="11.5704472"><ele>330.2</ele><time>2026-04-04T13:20:58.92Z</time></trkpt><trkpt lat="43.080187" lon="11.5704783"><ele>332.4</ele><time>2026-04-04T13:20:59.924Z</time></trkpt><trkpt lat="43.0800916" lon="11.5705044"><ele>334.59999999999997</ele><time>2026-04-04T13:21:00.918Z</time></trkpt><trkpt lat="43.0799891" lon="11.5705256"><ele>336.79999999999995</ele><time>2026-04-04T13:21:01.916Z</time></trkpt><trkpt lat="43.0798862" lon="11.5705502"><ele>339.0</ele><time>2026-04-04T13:21:02.921Z</time></trkpt><trkpt lat="43.0797923" lon="11.5705891"><ele>339.0</ele><time>2026-04-04T13:21:03.926Z</time></trkpt><trkpt lat="43.0797346" lon="11.5706355"><ele>339.0</ele><time>2026-04-04T13:21:04.914Z</time></trkpt><trkpt lat="43.079738" lon="11.5707445"><ele>339.0</ele><time>2026-04-04T13:21:06.924Z</time></trkpt><trkpt lat="43.0798441" lon="11.5708096"><ele>339.0</ele><time>2026-04-04T13:21:08.929Z</time></trkpt><trkpt lat="43.0799158" lon="11.5708194"><ele>339.0</ele><time>2026-04-04T13:21:09.927Z</time></trkpt><trkpt lat="43.079986" lon="11.5708315"><ele>339.0</ele><time>2026-04-04T13:21:10.921Z</time></trkpt><trkpt lat="43.0800643" lon="11.5708535"><ele>339.5</ele><time>2026-04-04T13:21:11.919Z</time></trkpt><trkpt lat="43.0801428" lon="11.5708954"><ele>340.0</ele><time>2026-04-04T13:21:12.915Z</time></trkpt><trkpt lat="43.0802156" lon="11.5709431"><ele>340.5</ele><time>2026-04-04T13:21:13.918Z</time></trkpt><trkpt lat="43.0802879" lon="11.570993"><ele>341.0</ele><time>2026-04-04T13:21:14.916Z</time></trkpt><trkpt lat="43.0803598" lon="11.5710481"><ele>341.5</ele><time>2026-04-04T13:21:15.919Z</time></trkpt><trkpt lat="43.0804354" lon="11.5710942"><ele>342.0</ele><time>2026-04-04T13:21:16.92Z</time></trkpt><trkpt lat="43.0805103" lon="11.5711448"><ele>342.5</ele><time>2026-04-04T13:21:17.919Z</time></trkpt><trkpt lat="43.0805856" lon="11.5711908"><ele>343.0</ele><time>2026-04-04T13:21:18.92Z</time></trkpt><trkpt lat="43.0806623" lon="11.5712414"><ele>343.5</ele><time>2026-04-04T13:21:19.925Z</time></trkpt><trkpt lat="43.080735" lon="11.5712913"><ele>344.0</ele><time>2026-04-04T13:21:20.923Z</time></trkpt><trkpt lat="43.0808122" lon="11.5713416"><ele>344.5</ele><time>2026-04-04T13:21:21.92Z</time></trkpt><trkpt lat="43.0808843" lon="11.5713943"><ele>345.0</ele><time>2026-04-04T13:21:22.926Z</time></trkpt><trkpt lat="43.0809602" lon="11.5714523"><ele>345.0</ele><time>2026-04-04T13:21:23.933Z</time></trkpt><trkpt lat="43.0810358" lon="11.5715169"><ele>345.0</ele><time>2026-04-04T13:21:24.92Z</time></trkpt><trkpt lat="43.0811133" lon="11.5715752"><ele>345.0</ele><time>2026-04-04T13:21:25.921Z</time></trkpt><trkpt lat="43.0811855" lon="11.5716378"><ele>345.0</ele><time>2026-04-04T13:21:26.924Z</time></trkpt><trkpt lat="43.0812577" lon="11.5717011"><ele>345.0</ele><time>2026-04-04T13:21:27.927Z</time></trkpt><trkpt lat="43.0813257" lon="11.5717627"><ele>345.0</ele><time>2026-04-04T13:21:28.921Z</time></trkpt><trkpt lat="43.0813956" lon="11.5718165"><ele>345.0</ele><time>2026-04-04T13:21:29.919Z</time></trkpt><trkpt lat="43.0814687" lon="11.5718681"><ele>345.0</ele><time>2026-04-04T13:21:30.92Z</time></trkpt><trkpt lat="43.081545" lon="11.5719196"><ele>345.0</ele><time>2026-04-04T13:21:31.922Z</time></trkpt><trkpt lat="43.0816188" lon="11.5719884"><ele>345.0</ele><time>2026-04-04T13:21:32.919Z</time></trkpt><trkpt lat="43.0816909" lon="11.5720657"><ele>345.0</ele><time>2026-04-04T13:21:33.925Z</time></trkpt><trkpt lat="43.0817523" lon="11.5721538"><ele>345.0</ele><time>2026-04-04T13:21:34.917Z</time></trkpt><trkpt lat="43.0818176" lon="11.5722512"><ele>345.8</ele><time>2026-04-04T13:21:35.925Z</time></trkpt><trkpt lat="43.0818782" lon="11.5723567"><ele>346.6</ele><time>2026-04-04T13:21:36.925Z</time></trkpt><trkpt lat="43.0819352" lon="11.5724745"><ele>347.4</ele><time>2026-04-04T13:21:37.934Z</time></trkpt><trkpt lat="43.0819891" lon="11.5726041"><ele>348.2</ele><time>2026-04-04T13:21:38.92Z</time></trkpt><trkpt lat="43.0820445" lon="11.5727346"><ele>349.0</ele><time>2026-04-04T13:21:39.927Z</time></trkpt><trkpt lat="43.082102" lon="11.5728651"><ele>346.25</ele><time>2026-04-04T13:21:40.923Z</time></trkpt><trkpt lat="43.0821629" lon="11.5730034"><ele>343.5</ele><time>2026-04-04T13:21:41.93Z</time></trkpt><trkpt lat="43.0822208" lon="11.5731379"><ele>340.75</ele><time>2026-04-04T13:21:42.919Z</time></trkpt><trkpt lat="43.0822748" lon="11.5732722"><ele>338.0</ele><time>2026-04-04T13:21:43.924Z</time></trkpt><trkpt lat="43.082333" lon="11.5734044"><ele>338.0</ele><time>2026-04-04T13:21:44.916Z</time></trkpt><trkpt lat="43.0823879" lon="11.5735392"><ele>338.0</ele><time>2026-04-04T13:21:45.928Z</time></trkpt><trkpt lat="43.0824431" lon="11.5736736"><ele>338.0</ele><time>2026-04-04T13:21:46.921Z</time></trkpt><trkpt lat="43.0824971" lon="11.5738102"><ele>338.0</ele><time>2026-04-04T13:21:47.921Z</time></trkpt><trkpt lat="43.0825516" lon="11.5739489"><ele>341.5</ele><time>2026-04-04T13:21:48.922Z</time></trkpt><trkpt lat="43.0826063" lon="11.5740849"><ele>345.0</ele><time>2026-04-04T13:21:49.927Z</time></trkpt><trkpt lat="43.0826614" lon="11.5742311"><ele>348.5</ele><time>2026-04-04T13:21:50.926Z</time></trkpt><trkpt lat="43.082723" lon="11.5743706"><ele>352.0</ele><time>2026-04-04T13:21:51.92Z</time></trkpt><trkpt lat="43.0827857" lon="11.5745133"><ele>350.75</ele><time>2026-04-04T13:21:52.923Z</time></trkpt><trkpt lat="43.0828505" lon="11.5746673"><ele>349.5</ele><time>2026-04-04T13:21:53.924Z</time></trkpt><trkpt lat="43.0829147" lon="11.5748246"><ele>348.25</ele><time>2026-04-04T13:21:54.922Z</time></trkpt><trkpt lat="43.0829784" lon="11.5749811"><ele>347.0</ele><time>2026-04-04T13:21:55.921Z</time></trkpt><trkpt lat="43.0830426" lon="11.5751346"><ele>347.0</ele><time>2026-04-04T13:21:56.911Z</time></trkpt><trkpt lat="43.0831106" lon="11.5752904"><ele>347.0</ele><time>2026-04-04T13:21:57.913Z</time></trkpt><trkpt lat="43.0831822" lon="11.5754447"><ele>347.0</ele><time>2026-04-04T13:21:58.923Z</time></trkpt><trkpt lat="43.083248" lon="11.575595"><ele>347.0</ele><time>2026-04-04T13:21:59.926Z</time></trkpt><trkpt lat="43.0833136" lon="11.5757372"><ele>347.75</ele><time>2026-04-04T13:22:00.922Z</time></trkpt><trkpt lat="43.0833818" lon="11.5758886"><ele>348.5</ele><time>2026-04-04T13:22:01.923Z</time></trkpt><trkpt lat="43.0834466" lon="11.5760435"><ele>349.25</ele><time>2026-04-04T13:22:02.929Z</time></trkpt><trkpt lat="43.0835156" lon="11.5762088"><ele>350.0</ele><time>2026-04-04T13:22:03.933Z</time></trkpt><trkpt lat="43.0835844" lon="11.5763668"><ele>350.0</ele><time>2026-04-04T13:22:04.917Z</time></trkpt><trkpt lat="43.0836473" lon="11.576537"><ele>350.0</ele><time>2026-04-04T13:22:05.916Z</time></trkpt><trkpt lat="43.0836962" lon="11.5767123"><ele>350.0</ele><time>2026-04-04T13:22:06.923Z</time></trkpt><trkpt lat="43.0837406" lon="11.57689"><ele>350.0</ele><time>2026-04-04T13:22:07.921Z</time></trkpt><trkpt lat="43.0837823" lon="11.5770715"><ele>350.0</ele><time>2026-04-04T13:22:08.929Z</time></trkpt><trkpt lat="43.0838261" lon="11.5772522"><ele>350.0</ele><time>2026-04-04T13:22:09.925Z</time></trkpt><trkpt lat="43.0838676" lon="11.5774298"><ele>350.0</ele><time>2026-04-04T13:22:10.92Z</time></trkpt><trkpt lat="43.0839116" lon="11.5776131"><ele>350.0</ele><time>2026-04-04T13:22:11.927Z</time></trkpt><trkpt lat="43.0839525" lon="11.5777883"><ele>350.0</ele><time>2026-04-04T13:22:12.932Z</time></trkpt><trkpt lat="43.0839929" lon="11.5779654"><ele>350.0</ele><time>2026-04-04T13:22:13.923Z</time></trkpt><trkpt lat="43.0840276" lon="11.5781411"><ele>350.0</ele><time>2026-04-04T13:22:14.92Z</time></trkpt><trkpt lat="43.0840634" lon="11.5783208"><ele>350.0</ele><time>2026-04-04T13:22:15.918Z</time></trkpt><trkpt lat="43.0840978" lon="11.5785037"><ele>351.75</ele><time>2026-04-04T13:22:16.917Z</time></trkpt><trkpt lat="43.0841354" lon="11.5786814"><ele>353.5</ele><time>2026-04-04T13:22:17.919Z</time></trkpt><trkpt lat="43.0841804" lon="11.5788588"><ele>355.25</ele><time>2026-04-04T13:22:18.921Z</time></trkpt><trkpt lat="43.0842406" lon="11.5790322"><ele>357.0</ele><time>2026-04-04T13:22:19.923Z</time></trkpt><trkpt lat="43.084311" lon="11.5791916"><ele>358.25</ele><time>2026-04-04T13:22:20.916Z</time></trkpt><trkpt lat="43.0843939" lon="11.5793422"><ele>359.5</ele><time>2026-04-04T13:22:21.924Z</time></trkpt><trkpt lat="43.0844772" lon="11.5794889"><ele>360.75</ele><time>2026-04-04T13:22:22.914Z</time></trkpt><trkpt lat="43.0845606" lon="11.5796329"><ele>362.0</ele><time>2026-04-04T13:22:23.924Z</time></trkpt><trkpt lat="43.0846405" lon="11.5797703"><ele>363.6</ele><time>2026-04-04T13:22:24.927Z</time></trkpt><trkpt lat="43.0847134" lon="11.5799115"><ele>365.20000000000005</ele><time>2026-04-04T13:22:25.919Z</time></trkpt><trkpt lat="43.084777" lon="11.5800345"><ele>366.8</ele><time>2026-04-04T13:22:26.927Z</time></trkpt><trkpt lat="43.0848342" lon="11.5801432"><ele>368.4</ele><time>2026-04-04T13:22:27.918Z</time></trkpt><trkpt lat="43.0848841" lon="11.5802415"><ele>370.0</ele><time>2026-04-04T13:22:28.918Z</time></trkpt><trkpt lat="43.084918" lon="11.5803338"><ele>370.8333333333333</ele><time>2026-04-04T13:22:29.929Z</time></trkpt><trkpt lat="43.0849491" lon="11.5804276"><ele>371.66666666666663</ele><time>2026-04-04T13:22:30.922Z</time></trkpt><trkpt lat="43.0849778" lon="11.5805275"><ele>372.5</ele><time>2026-04-04T13:22:31.924Z</time></trkpt><trkpt lat="43.0850104" lon="11.5806377"><ele>373.3333333333333</ele><time>2026-04-04T13:22:32.925Z</time></trkpt><trkpt lat="43.0850396" lon="11.5807579"><ele>374.1666666666667</ele><time>2026-04-04T13:22:33.917Z</time></trkpt><trkpt lat="43.0850748" lon="11.5808826"><ele>375.0</ele><time>2026-04-04T13:22:34.918Z</time></trkpt><trkpt lat="43.0851087" lon="11.581013"><ele>375.0</ele><time>2026-04-04T13:22:35.925Z</time></trkpt><trkpt lat="43.0851463" lon="11.5811396"><ele>375.0</ele><time>2026-04-04T13:22:36.919Z</time></trkpt><trkpt lat="43.0851832" lon="11.5812644"><ele>375.0</ele><time>2026-04-04T13:22:37.93Z</time></trkpt><trkpt lat="43.0852165" lon="11.5813961"><ele>375.0</ele><time>2026-04-04T13:22:38.917Z</time></trkpt><trkpt lat="43.0852545" lon="11.5815174"><ele>375.0</ele><time>2026-04-04T13:22:39.925Z</time></trkpt><trkpt lat="43.085292" lon="11.5816246"><ele>374.3333333333333</ele><time>2026-04-04T13:22:40.922Z</time></trkpt><trkpt lat="43.0853439" lon="11.5817238"><ele>373.6666666666667</ele><time>2026-04-04T13:22:41.926Z</time></trkpt><trkpt lat="43.0853992" lon="11.5818136"><ele>373.0</ele><time>2026-04-04T13:22:42.926Z</time></trkpt><trkpt lat="43.0854559" lon="11.5819007"><ele>372.33333333333337</ele><time>2026-04-04T13:22:43.924Z</time></trkpt><trkpt lat="43.0855118" lon="11.5819841"><ele>371.6666666666667</ele><time>2026-04-04T13:22:44.933Z</time></trkpt><trkpt lat="43.0855679" lon="11.5820612"><ele>371.0</ele><time>2026-04-04T13:22:45.926Z</time></trkpt><trkpt lat="43.0856152" lon="11.5821367"><ele>371.8</ele><time>2026-04-04T13:22:46.922Z</time></trkpt><trkpt lat="43.0856923" lon="11.5822499"><ele>372.6</ele><time>2026-04-04T13:22:48.93Z</time></trkpt><trkpt lat="43.0857611" lon="11.5823508"><ele>373.4</ele><time>2026-04-04T13:22:50.925Z</time></trkpt><trkpt lat="43.0858241" lon="11.582468"><ele>374.2</ele><time>2026-04-04T13:22:52.935Z</time></trkpt><trkpt lat="43.0858883" lon="11.5825935"><ele>375.0</ele><time>2026-04-04T13:22:54.923Z</time></trkpt><trkpt lat="43.0859453" lon="11.5826376"><ele>375.0</ele><time>2026-04-04T13:22:55.922Z</time></trkpt><trkpt lat="43.0860028" lon="11.5826822"><ele>375.0</ele><time>2026-04-04T13:22:56.926Z</time></trkpt><trkpt lat="43.0860636" lon="11.58273"><ele>375.0</ele><time>2026-04-04T13:22:57.919Z</time></trkpt><trkpt lat="43.0861292" lon="11.5827828"><ele>375.0</ele><time>2026-04-04T13:22:58.915Z</time></trkpt><trkpt lat="43.0861969" lon="11.5828451"><ele>375.0</ele><time>2026-04-04T13:22:59.922Z</time></trkpt><trkpt lat="43.0862684" lon="11.5829108"><ele>375.0</ele><time>2026-04-04T13:23:00.927Z</time></trkpt><trkpt lat="43.0863311" lon="11.5829795"><ele>374.0</ele><time>2026-04-04T13:23:01.927Z</time></trkpt><trkpt lat="43.0863944" lon="11.5830459"><ele>373.0</ele><time>2026-04-04T13:23:02.917Z</time></trkpt><trkpt lat="43.0864566" lon="11.5831138"><ele>372.0</ele><time>2026-04-04T13:23:03.923Z</time></trkpt><trkpt lat="43.0865214" lon="11.5831746"><ele>371.0</ele><time>2026-04-04T13:23:04.924Z</time></trkpt><trkpt lat="43.0865879" lon="11.5832386"><ele>370.0</ele><time>2026-04-04T13:23:05.914Z</time></trkpt><trkpt lat="43.08665" lon="11.5832986"><ele>369.0</ele><time>2026-04-04T13:23:06.924Z</time></trkpt><trkpt lat="43.0867182" lon="11.5833512"><ele>369.0</ele><time>2026-04-04T13:23:07.917Z</time></trkpt><trkpt lat="43.0867849" lon="11.5834101"><ele>369.0</ele><time>2026-04-04T13:23:08.918Z</time></trkpt><trkpt lat="43.0868542" lon="11.5834695"><ele>369.0</ele><time>2026-04-04T13:23:09.925Z</time></trkpt><trkpt lat="43.0869272" lon="11.5835206"><ele>369.0</ele><time>2026-04-04T13:23:10.917Z</time></trkpt><trkpt lat="43.0869995" lon="11.5835754"><ele>369.0</ele><time>2026-04-04T13:23:11.911Z</time></trkpt><trkpt lat="43.0870699" lon="11.5836356"><ele>369.0</ele><time>2026-04-04T13:23:12.916Z</time></trkpt><trkpt lat="43.0871442" lon="11.5836966"><ele>366.2</ele><time>2026-04-04T13:23:13.922Z</time></trkpt><trkpt lat="43.0872248" lon="11.5837606"><ele>363.4</ele><time>2026-04-04T13:23:14.922Z</time></trkpt><trkpt lat="43.0873066" lon="11.5838365"><ele>360.6</ele><time>2026-04-04T13:23:15.922Z</time></trkpt><trkpt lat="43.0873898" lon="11.583914"><ele>357.8</ele><time>2026-04-04T13:23:16.926Z</time></trkpt><trkpt lat="43.0874758" lon="11.5839909"><ele>355.0</ele><time>2026-04-04T13:23:17.924Z</time></trkpt><trkpt lat="43.0875628" lon="11.5840652"><ele>355.0</ele><time>2026-04-04T13:23:18.922Z</time></trkpt><trkpt lat="43.087651" lon="11.5841309"><ele>355.0</ele><time>2026-04-04T13:23:19.923Z</time></trkpt><trkpt lat="43.0877356" lon="11.5842001"><ele>355.0</ele><time>2026-04-04T13:23:20.93Z</time></trkpt><trkpt lat="43.0878203" lon="11.5842764"><ele>355.0</ele><time>2026-04-04T13:23:21.925Z</time></trkpt><trkpt lat="43.0879038" lon="11.5843527"><ele>355.0</ele><time>2026-04-04T13:23:22.923Z</time></trkpt><trkpt lat="43.0879853" lon="11.5844219"><ele>355.0</ele><time>2026-04-04T13:23:23.92Z</time></trkpt><trkpt lat="43.0880653" lon="11.5844889"><ele>355.0</ele><time>2026-04-04T13:23:24.923Z</time></trkpt><trkpt lat="43.0881462" lon="11.5845516"><ele>355.0</ele><time>2026-04-04T13:23:25.925Z</time></trkpt><trkpt lat="43.0882312" lon="11.5846065"><ele>355.0</ele><time>2026-04-04T13:23:26.922Z</time></trkpt><trkpt lat="43.0883177" lon="11.5846565"><ele>355.0</ele><time>2026-04-04T13:23:27.924Z</time></trkpt><trkpt lat="43.0884029" lon="11.5847057"><ele>355.8333333333333</ele><time>2026-04-04T13:23:28.92Z</time></trkpt><trkpt lat="43.0884916" lon="11.584757"><ele>356.66666666666663</ele><time>2026-04-04T13:23:29.93Z</time></trkpt><trkpt lat="43.0885745" lon="11.5848066"><ele>357.5</ele><time>2026-04-04T13:23:30.932Z</time></trkpt><trkpt lat="43.0886514" lon="11.5848589"><ele>358.3333333333333</ele><time>2026-04-04T13:23:31.926Z</time></trkpt><trkpt lat="43.0887248" lon="11.5849132"><ele>359.1666666666667</ele><time>2026-04-04T13:23:32.926Z</time></trkpt><trkpt lat="43.0887965" lon="11.5849725"><ele>360.0</ele><time>2026-04-04T13:23:33.929Z</time></trkpt><trkpt lat="43.0888695" lon="11.5850318"><ele>360.0</ele><time>2026-04-04T13:23:34.925Z</time></trkpt><trkpt lat="43.0889396" lon="11.585096"><ele>360.0</ele><time>2026-04-04T13:23:35.922Z</time></trkpt><trkpt lat="43.0890088" lon="11.585152"><ele>360.0</ele><time>2026-04-04T13:23:36.92Z</time></trkpt><trkpt lat="43.0890818" lon="11.5852147"><ele>360.0</ele><time>2026-04-04T13:23:37.921Z</time></trkpt><trkpt lat="43.0891492" lon="11.5852758"><ele>360.0</ele><time>2026-04-04T13:23:38.925Z</time></trkpt><trkpt lat="43.0892111" lon="11.5853371"><ele>360.0</ele><time>2026-04-04T13:23:39.923Z</time></trkpt><trkpt lat="43.089274" lon="11.5853923"><ele>361.6666666666667</ele><time>2026-04-04T13:23:40.926Z</time></trkpt><trkpt lat="43.0893376" lon="11.5854425"><ele>363.3333333333333</ele><time>2026-04-04T13:23:41.929Z</time></trkpt><trkpt lat="43.0893994" lon="11.5854974"><ele>365.0</ele><time>2026-04-04T13:23:42.924Z</time></trkpt><trkpt lat="43.0894637" lon="11.5855531"><ele>366.66666666666663</ele><time>2026-04-04T13:23:43.92Z</time></trkpt><trkpt lat="43.0895295" lon="11.5856143"><ele>368.3333333333333</ele><time>2026-04-04T13:23:44.923Z</time></trkpt><trkpt lat="43.0896015" lon="11.5856723"><ele>370.0</ele><time>2026-04-04T13:23:45.908Z</time></trkpt><trkpt lat="43.0896734" lon="11.5857324"><ele>370.0</ele><time>2026-04-04T13:23:46.91Z</time></trkpt><trkpt lat="43.0897432" lon="11.5857914"><ele>370.0</ele><time>2026-04-04T13:23:47.922Z</time></trkpt><trkpt lat="43.0898119" lon="11.5858555"><ele>370.0</ele><time>2026-04-04T13:23:48.914Z</time></trkpt><trkpt lat="43.089878" lon="11.5859211"><ele>370.0</ele><time>2026-04-04T13:23:49.924Z</time></trkpt><trkpt lat="43.0899422" lon="11.5859795"><ele>370.0</ele><time>2026-04-04T13:23:50.92Z</time></trkpt><trkpt lat="43.0900062" lon="11.5860445"><ele>370.0</ele><time>2026-04-04T13:23:51.918Z</time></trkpt><trkpt lat="43.0900672" lon="11.5861067"><ele>369.0</ele><time>2026-04-04T13:23:52.914Z</time></trkpt><trkpt lat="43.0901246" lon="11.5861766"><ele>368.0</ele><time>2026-04-04T13:23:53.919Z</time></trkpt><trkpt lat="43.0901748" lon="11.5862532"><ele>367.0</ele><time>2026-04-04T13:23:54.915Z</time></trkpt><trkpt lat="43.0902283" lon="11.5863318"><ele>366.0</ele><time>2026-04-04T13:23:55.925Z</time></trkpt><trkpt lat="43.090278" lon="11.5864233"><ele>365.0</ele><time>2026-04-04T13:23:56.911Z</time></trkpt><trkpt lat="43.0903281" lon="11.5865131"><ele>364.0</ele><time>2026-04-04T13:23:57.914Z</time></trkpt><trkpt lat="43.0903809" lon="11.5866021"><ele>366.3333333333333</ele><time>2026-04-04T13:23:58.915Z</time></trkpt><trkpt lat="43.0904287" lon="11.5866945"><ele>368.66666666666663</ele><time>2026-04-04T13:23:59.912Z</time></trkpt><trkpt lat="43.0904792" lon="11.5867821"><ele>371.0</ele><time>2026-04-04T13:24:00.916Z</time></trkpt><trkpt lat="43.0905243" lon="11.5868685"><ele>373.3333333333333</ele><time>2026-04-04T13:24:01.919Z</time></trkpt><trkpt lat="43.0905703" lon="11.5869497"><ele>375.6666666666667</ele><time>2026-04-04T13:24:02.911Z</time></trkpt><trkpt lat="43.0906131" lon="11.5870357"><ele>378.0</ele><time>2026-04-04T13:24:03.92Z</time></trkpt><trkpt lat="43.0906592" lon="11.5871293"><ele>379.0</ele><time>2026-04-04T13:24:04.924Z</time></trkpt><trkpt lat="43.0907058" lon="11.587222"><ele>380.0</ele><time>2026-04-04T13:24:05.928Z</time></trkpt><trkpt lat="43.0907496" lon="11.5873131"><ele>381.0</ele><time>2026-04-04T13:24:06.916Z</time></trkpt><trkpt lat="43.0907976" lon="11.5874067"><ele>382.0</ele><time>2026-04-04T13:24:07.919Z</time></trkpt><trkpt lat="43.0908477" lon="11.5875086"><ele>383.0</ele><time>2026-04-04T13:24:08.918Z</time></trkpt><trkpt lat="43.0909043" lon="11.5876028"><ele>384.0</ele><time>2026-04-04T13:24:09.921Z</time></trkpt><trkpt lat="43.0909734" lon="11.5876826"><ele>381.2</ele><time>2026-04-04T13:24:10.915Z</time></trkpt><trkpt lat="43.0910447" lon="11.5877652"><ele>378.4</ele><time>2026-04-04T13:24:11.928Z</time></trkpt><trkpt lat="43.0911319" lon="11.5878286"><ele>375.6</ele><time>2026-04-04T13:24:12.922Z</time></trkpt><trkpt lat="43.0912308" lon="11.5878943"><ele>372.8</ele><time>2026-04-04T13:24:13.915Z</time></trkpt><trkpt lat="43.0913346" lon="11.5879557"><ele>370.0</ele><time>2026-04-04T13:24:14.931Z</time></trkpt><trkpt lat="43.0914426" lon="11.5880224"><ele>370.0</ele><time>2026-04-04T13:24:15.922Z</time></trkpt><trkpt lat="43.0915613" lon="11.5881007"><ele>370.0</ele><time>2026-04-04T13:24:16.925Z</time></trkpt><trkpt lat="43.0916844" lon="11.588181"><ele>370.0</ele><time>2026-04-04T13:24:17.92Z</time></trkpt><trkpt lat="43.0918073" lon="11.5882664"><ele>370.0</ele><time>2026-04-04T13:24:18.919Z</time></trkpt><trkpt lat="43.0919302" lon="11.588346"><ele>369.0</ele><time>2026-04-04T13:24:19.923Z</time></trkpt><trkpt lat="43.0920475" lon="11.5884198"><ele>368.0</ele><time>2026-04-04T13:24:20.927Z</time></trkpt><trkpt lat="43.0921671" lon="11.5884903"><ele>367.0</ele><time>2026-04-04T13:24:21.926Z</time></trkpt><trkpt lat="43.0922802" lon="11.588554"><ele>366.0</ele><time>2026-04-04T13:24:22.921Z</time></trkpt><trkpt lat="43.0923876" lon="11.5886144"><ele>364.6</ele><time>2026-04-04T13:24:23.921Z</time></trkpt><trkpt lat="43.0924868" lon="11.5886738"><ele>363.20000000000005</ele><time>2026-04-04T13:24:24.925Z</time></trkpt><trkpt lat="43.0925722" lon="11.5887332"><ele>361.79999999999995</ele><time>2026-04-04T13:24:25.925Z</time></trkpt><trkpt lat="43.0926481" lon="11.5888005"><ele>360.4</ele><time>2026-04-04T13:24:26.922Z</time></trkpt><trkpt lat="43.0927333" lon="11.588878"><ele>359.0</ele><time>2026-04-04T13:24:27.925Z</time></trkpt><trkpt lat="43.0928088" lon="11.5889598"><ele>358.79999999999995</ele><time>2026-04-04T13:24:28.926Z</time></trkpt><trkpt lat="43.0928855" lon="11.5890531"><ele>358.59999999999997</ele><time>2026-04-04T13:24:29.924Z</time></trkpt><trkpt lat="43.0929623" lon="11.5891518"><ele>358.4</ele><time>2026-04-04T13:24:30.928Z</time></trkpt><trkpt lat="43.0930445" lon="11.5892611"><ele>358.2</ele><time>2026-04-04T13:24:31.925Z</time></trkpt><trkpt lat="43.0931217" lon="11.5893808"><ele>358.0</ele><time>2026-04-04T13:24:32.932Z</time></trkpt><trkpt lat="43.0931951" lon="11.5895107"><ele>355.5</ele><time>2026-04-04T13:24:33.925Z</time></trkpt><trkpt lat="43.0932613" lon="11.5896511"><ele>353.0</ele><time>2026-04-04T13:24:34.926Z</time></trkpt><trkpt lat="43.0933262" lon="11.5897962"><ele>350.5</ele><time>2026-04-04T13:24:35.926Z</time></trkpt><trkpt lat="43.0933943" lon="11.5899381"><ele>348.0</ele><time>2026-04-04T13:24:36.921Z</time></trkpt><trkpt lat="43.0934602" lon="11.5900753"><ele>348.0</ele><time>2026-04-04T13:24:37.92Z</time></trkpt><trkpt lat="43.093528" lon="11.5901987"><ele>348.0</ele><time>2026-04-04T13:24:38.931Z</time></trkpt><trkpt lat="43.0936027" lon="11.5903084"><ele>348.0</ele><time>2026-04-04T13:24:39.918Z</time></trkpt><trkpt lat="43.0936867" lon="11.5904011"><ele>348.0</ele><time>2026-04-04T13:24:40.922Z</time></trkpt><trkpt lat="43.0937744" lon="11.5904851"><ele>348.0</ele><time>2026-04-04T13:24:41.922Z</time></trkpt><trkpt lat="43.0938708" lon="11.5905784"><ele>348.75</ele><time>2026-04-04T13:24:42.928Z</time></trkpt><trkpt lat="43.0939716" lon="11.5906738"><ele>349.5</ele><time>2026-04-04T13:24:43.915Z</time></trkpt><trkpt lat="43.0940682" lon="11.5907727"><ele>350.25</ele><time>2026-04-04T13:24:44.923Z</time></trkpt><trkpt lat="43.0941638" lon="11.5908626"><ele>351.0</ele><time>2026-04-04T13:24:45.933Z</time></trkpt><trkpt lat="43.0942634" lon="11.5909589"><ele>351.0</ele><time>2026-04-04T13:24:46.922Z</time></trkpt><trkpt lat="43.0943514" lon="11.5910761"><ele>351.0</ele><time>2026-04-04T13:24:47.916Z</time></trkpt><trkpt lat="43.0944261" lon="11.5912135"><ele>351.0</ele><time>2026-04-04T13:24:48.923Z</time></trkpt><trkpt lat="43.0944795" lon="11.5913581"><ele>351.0</ele><time>2026-04-04T13:24:49.922Z</time></trkpt><trkpt lat="43.0945246" lon="11.5915233"><ele>347.5</ele><time>2026-04-04T13:24:50.919Z</time></trkpt><trkpt lat="43.0945758" lon="11.5916879"><ele>344.0</ele><time>2026-04-04T13:24:51.919Z</time></trkpt><trkpt lat="43.0946325" lon="11.591843"><ele>340.5</ele><time>2026-04-04T13:24:52.92Z</time></trkpt><trkpt lat="43.0946938" lon="11.591998"><ele>337.0</ele><time>2026-04-04T13:24:53.928Z</time></trkpt><trkpt lat="43.0947572" lon="11.5921582"><ele>335.5</ele><time>2026-04-04T13:24:54.926Z</time></trkpt><trkpt lat="43.0948196" lon="11.5923121"><ele>334.0</ele><time>2026-04-04T13:24:55.927Z</time></trkpt><trkpt lat="43.0948829" lon="11.5924677"><ele>332.5</ele><time>2026-04-04T13:24:56.916Z</time></trkpt><trkpt lat="43.0949475" lon="11.59263"><ele>331.0</ele><time>2026-04-04T13:24:57.934Z</time></trkpt><trkpt lat="43.095011" lon="11.5927894"><ele>334.0</ele><time>2026-04-04T13:24:58.916Z</time></trkpt><trkpt lat="43.09508" lon="11.5929502"><ele>337.0</ele><time>2026-04-04T13:24:59.93Z</time></trkpt><trkpt lat="43.0951516" lon="11.5931102"><ele>340.0</ele><time>2026-04-04T13:25:00.927Z</time></trkpt><trkpt lat="43.0952203" lon="11.593272"><ele>343.0</ele><time>2026-04-04T13:25:01.92Z</time></trkpt><trkpt lat="43.0952876" lon="11.5934339"><ele>343.0</ele><time>2026-04-04T13:25:02.916Z</time></trkpt><trkpt lat="43.0953533" lon="11.5935995"><ele>343.0</ele><time>2026-04-04T13:25:03.925Z</time></trkpt><trkpt lat="43.0954213" lon="11.5937708"><ele>343.0</ele><time>2026-04-04T13:25:04.923Z</time></trkpt><trkpt lat="43.095491" lon="11.5939417"><ele>343.0</ele><time>2026-04-04T13:25:05.917Z</time></trkpt><trkpt lat="43.0955619" lon="11.5941069"><ele>343.79999999999995</ele><time>2026-04-04T13:25:06.92Z</time></trkpt><trkpt lat="43.0956234" lon="11.5942572"><ele>344.6</ele><time>2026-04-04T13:25:07.927Z</time></trkpt><trkpt lat="43.0956833" lon="11.5943952"><ele>345.4</ele><time>2026-04-04T13:25:08.923Z</time></trkpt><trkpt lat="43.0957371" lon="11.5945181"><ele>346.20000000000005</ele><time>2026-04-04T13:25:09.92Z</time></trkpt><trkpt lat="43.0957899" lon="11.5946256"><ele>347.0</ele><time>2026-04-04T13:25:10.917Z</time></trkpt><trkpt lat="43.0958464" lon="11.5947356"><ele>347.0</ele><time>2026-04-04T13:25:11.923Z</time></trkpt><trkpt lat="43.0959161" lon="11.5948302"><ele>347.0</ele><time>2026-04-04T13:25:12.926Z</time></trkpt><trkpt lat="43.095997" lon="11.5949084"><ele>347.0</ele><time>2026-04-04T13:25:13.92Z</time></trkpt><trkpt lat="43.0960766" lon="11.5949783"><ele>347.0</ele><time>2026-04-04T13:25:14.926Z</time></trkpt><trkpt lat="43.0961603" lon="11.5950483"><ele>347.0</ele><time>2026-04-04T13:25:15.922Z</time></trkpt><trkpt lat="43.0962377" lon="11.5951209"><ele>347.0</ele><time>2026-04-04T13:25:16.921Z</time></trkpt><trkpt lat="43.0963056" lon="11.5952116"><ele>347.0</ele><time>2026-04-04T13:25:17.923Z</time></trkpt><trkpt lat="43.0963645" lon="11.5953319"><ele>347.0</ele><time>2026-04-04T13:25:18.916Z</time></trkpt><trkpt lat="43.0964143" lon="11.5954458"><ele>347.0</ele><time>2026-04-04T13:25:19.925Z</time></trkpt><trkpt lat="43.0964666" lon="11.5955621"><ele>347.0</ele><time>2026-04-04T13:25:20.923Z</time></trkpt><trkpt lat="43.0965104" lon="11.5956839"><ele>346.8</ele><time>2026-04-04T13:25:21.927Z</time></trkpt><trkpt lat="43.0965525" lon="11.5958154"><ele>346.6</ele><time>2026-04-04T13:25:22.93Z</time></trkpt><trkpt lat="43.0965914" lon="11.5959611"><ele>346.40000000000003</ele><time>2026-04-04T13:25:23.924Z</time></trkpt><trkpt lat="43.0966246" lon="11.5961102"><ele>346.20000000000005</ele><time>2026-04-04T13:25:24.923Z</time></trkpt><trkpt lat="43.0966525" lon="11.5962659"><ele>346.0</ele><time>2026-04-04T13:25:25.932Z</time></trkpt><trkpt lat="43.0966824" lon="11.5964152"><ele>348.20000000000005</ele><time>2026-04-04T13:25:26.928Z</time></trkpt><trkpt lat="43.096714" lon="11.5965583"><ele>350.40000000000003</ele><time>2026-04-04T13:25:27.929Z</time></trkpt><trkpt lat="43.09675" lon="11.5966914"><ele>352.6</ele><time>2026-04-04T13:25:28.924Z</time></trkpt><trkpt lat="43.0967782" lon="11.5968203"><ele>354.8</ele><time>2026-04-04T13:25:29.929Z</time></trkpt><trkpt lat="43.0968096" lon="11.5969435"><ele>357.0</ele><time>2026-04-04T13:25:30.923Z</time></trkpt><trkpt lat="43.0968397" lon="11.5970562"><ele>358.0</ele><time>2026-04-04T13:25:31.927Z</time></trkpt><trkpt lat="43.0968772" lon="11.5971545"><ele>359.0</ele><time>2026-04-04T13:25:32.928Z</time></trkpt><trkpt lat="43.0969309" lon="11.5972274"><ele>360.0</ele><time>2026-04-04T13:25:33.916Z</time></trkpt><trkpt lat="43.0969907" lon="11.5972799"><ele>361.0</ele><time>2026-04-04T13:25:34.923Z</time></trkpt><trkpt lat="43.0970553" lon="11.5973259"><ele>362.0</ele><time>2026-04-04T13:25:35.931Z</time></trkpt><trkpt lat="43.0971278" lon="11.5973674"><ele>363.0</ele><time>2026-04-04T13:25:36.934Z</time></trkpt><trkpt lat="43.0972075" lon="11.5974217"><ele>363.0</ele><time>2026-04-04T13:25:37.915Z</time></trkpt><trkpt lat="43.0972958" lon="11.5974984"><ele>363.0</ele><time>2026-04-04T13:25:38.917Z</time></trkpt><trkpt lat="43.0973776" lon="11.597593"><ele>363.0</ele><time>2026-04-04T13:25:39.911Z</time></trkpt><trkpt lat="43.0974491" lon="11.5977002"><ele>363.0</ele><time>2026-04-04T13:25:40.905Z</time></trkpt><trkpt lat="43.097524" lon="11.5978076"><ele>363.0</ele><time>2026-04-04T13:25:41.922Z</time></trkpt><trkpt lat="43.0976052" lon="11.597932"><ele>364.5</ele><time>2026-04-04T13:25:42.917Z</time></trkpt><trkpt lat="43.0976856" lon="11.5980525"><ele>366.0</ele><time>2026-04-04T13:25:43.921Z</time></trkpt><trkpt lat="43.0977682" lon="11.5981745"><ele>367.5</ele><time>2026-04-04T13:25:44.924Z</time></trkpt><trkpt lat="43.0978453" lon="11.5982881"><ele>369.0</ele><time>2026-04-04T13:25:45.923Z</time></trkpt><trkpt lat="43.0979204" lon="11.5984013"><ele>369.0</ele><time>2026-04-04T13:25:46.92Z</time></trkpt><trkpt lat="43.0979873" lon="11.5984893"><ele>369.0</ele><time>2026-04-04T13:25:47.926Z</time></trkpt><trkpt lat="43.0980474" lon="11.5985612"><ele>369.0</ele><time>2026-04-04T13:25:48.92Z</time></trkpt><trkpt lat="43.0981213" lon="11.5985929"><ele>369.0</ele><time>2026-04-04T13:25:49.924Z</time></trkpt><trkpt lat="43.0982027" lon="11.5985832"><ele>369.0</ele><time>2026-04-04T13:25:50.933Z</time></trkpt><trkpt lat="43.0982776" lon="11.5985532"><ele>369.0</ele><time>2026-04-04T13:25:51.918Z</time></trkpt><trkpt lat="43.0983504" lon="11.5985069"><ele>368.6666666666667</ele><time>2026-04-04T13:25:52.922Z</time></trkpt><trkpt lat="43.0984211" lon="11.5984453"><ele>368.3333333333333</ele><time>2026-04-04T13:25:53.931Z</time></trkpt><trkpt lat="43.0984703" lon="11.5983765"><ele>368.0</ele><time>2026-04-04T13:25:54.919Z</time></trkpt><trkpt lat="43.0985141" lon="11.5983105"><ele>367.66666666666663</ele><time>2026-04-04T13:25:55.92Z</time></trkpt><trkpt lat="43.0985692" lon="11.5981361"><ele>367.3333333333333</ele><time>2026-04-04T13:25:57.919Z</time></trkpt><trkpt lat="43.0985947" lon="11.5980287"><ele>367.0</ele><time>2026-04-04T13:25:58.925Z</time></trkpt><trkpt lat="43.0986193" lon="11.5979102"><ele>366.16666666666663</ele><time>2026-04-04T13:25:59.925Z</time></trkpt><trkpt lat="43.0986508" lon="11.5977765"><ele>365.3333333333333</ele><time>2026-04-04T13:26:00.919Z</time></trkpt><trkpt lat="43.0986878" lon="11.5976595"><ele>364.5</ele><time>2026-04-04T13:26:01.911Z</time></trkpt><trkpt lat="43.0987282" lon="11.5975596"><ele>363.6666666666667</ele><time>2026-04-04T13:26:02.925Z</time></trkpt><trkpt lat="43.0987678" lon="11.5974686"><ele>362.83333333333337</ele><time>2026-04-04T13:26:03.924Z</time></trkpt><trkpt lat="43.0988222" lon="11.5974017"><ele>362.0</ele><time>2026-04-04T13:26:04.933Z</time></trkpt><trkpt lat="43.0989433" lon="11.597382"><ele>362.0</ele><time>2026-04-04T13:26:06.924Z</time></trkpt><trkpt lat="43.099014" lon="11.5974208"><ele>362.0</ele><time>2026-04-04T13:26:07.913Z</time></trkpt><trkpt lat="43.0990921" lon="11.5974609"><ele>362.0</ele><time>2026-04-04T13:26:08.923Z</time></trkpt><trkpt lat="43.0991603" lon="11.5975282"><ele>362.0</ele><time>2026-04-04T13:26:09.921Z</time></trkpt><trkpt lat="43.0992348" lon="11.5976061"><ele>362.0</ele><time>2026-04-04T13:26:10.919Z</time></trkpt><trkpt lat="43.0993116" lon="11.5977119"><ele>362.0</ele><time>2026-04-04T13:26:11.929Z</time></trkpt><trkpt lat="43.0993854" lon="11.5978201"><ele>363.0</ele><time>2026-04-04T13:26:12.918Z</time></trkpt><trkpt lat="43.0994556" lon="11.5979295"><ele>364.0</ele><time>2026-04-04T13:26:13.926Z</time></trkpt><trkpt lat="43.0995304" lon="11.5980488"><ele>365.0</ele><time>2026-04-04T13:26:14.922Z</time></trkpt><trkpt lat="43.0996074" lon="11.5981659"><ele>366.0</ele><time>2026-04-04T13:26:15.93Z</time></trkpt><trkpt lat="43.099688" lon="11.5982928"><ele>366.0</ele><time>2026-04-04T13:26:16.927Z</time></trkpt><trkpt lat="43.0997631" lon="11.5984163"><ele>366.0</ele><time>2026-04-04T13:26:17.923Z</time></trkpt><trkpt lat="43.0998417" lon="11.5985372"><ele>366.0</ele><time>2026-04-04T13:26:18.921Z</time></trkpt><trkpt lat="43.099913" lon="11.5986567"><ele>366.0</ele><time>2026-04-04T13:26:19.934Z</time></trkpt><trkpt lat="43.0999896" lon="11.5987811"><ele>363.6</ele><time>2026-04-04T13:26:20.917Z</time></trkpt><trkpt lat="43.1000616" lon="11.5989022"><ele>361.20000000000005</ele><time>2026-04-04T13:26:21.917Z</time></trkpt><trkpt lat="43.1001391" lon="11.5990119"><ele>358.79999999999995</ele><time>2026-04-04T13:26:22.923Z</time></trkpt><trkpt lat="43.1002282" lon="11.5990982"><ele>356.4</ele><time>2026-04-04T13:26:23.927Z</time></trkpt><trkpt lat="43.1003198" lon="11.599159"><ele>354.0</ele><time>2026-04-04T13:26:24.913Z</time></trkpt><trkpt lat="43.1004185" lon="11.5992084"><ele>354.0</ele><time>2026-04-04T13:26:25.919Z</time></trkpt><trkpt lat="43.1005187" lon="11.5992369"><ele>354.0</ele><time>2026-04-04T13:26:26.914Z</time></trkpt><trkpt lat="43.1006211" lon="11.5992535"><ele>354.0</ele><time>2026-04-04T13:26:27.916Z</time></trkpt><trkpt lat="43.1007282" lon="11.5992499"><ele>354.0</ele><time>2026-04-04T13:26:28.918Z</time></trkpt><trkpt lat="43.1008323" lon="11.5992426"><ele>354.0</ele><time>2026-04-04T13:26:29.916Z</time></trkpt><trkpt lat="43.1009409" lon="11.5992281"><ele>353.0</ele><time>2026-04-04T13:26:30.917Z</time></trkpt><trkpt lat="43.1010502" lon="11.5992086"><ele>352.0</ele><time>2026-04-04T13:26:31.911Z</time></trkpt><trkpt lat="43.1011559" lon="11.5991999"><ele>351.0</ele><time>2026-04-04T13:26:32.923Z</time></trkpt><trkpt lat="43.1012608" lon="11.5991982"><ele>350.0</ele><time>2026-04-04T13:26:33.918Z</time></trkpt><trkpt lat="43.1013639" lon="11.5992184"><ele>349.0</ele><time>2026-04-04T13:26:34.909Z</time></trkpt><trkpt lat="43.1014672" lon="11.5992663"><ele>349.0</ele><time>2026-04-04T13:26:35.916Z</time></trkpt><trkpt lat="43.1015559" lon="11.5993276"><ele>349.0</ele><time>2026-04-04T13:26:36.918Z</time></trkpt><trkpt lat="43.1016509" lon="11.5994037"><ele>349.0</ele><time>2026-04-04T13:26:37.912Z</time></trkpt><trkpt lat="43.101737" lon="11.5994892"><ele>349.0</ele><time>2026-04-04T13:26:38.919Z</time></trkpt><trkpt lat="43.1018126" lon="11.5995855"><ele>349.0</ele><time>2026-04-04T13:26:39.927Z</time></trkpt><trkpt lat="43.1018824" lon="11.5996849"><ele>349.6</ele><time>2026-04-04T13:26:40.934Z</time></trkpt><trkpt lat="43.101946" lon="11.5997965"><ele>350.2</ele><time>2026-04-04T13:26:41.92Z</time></trkpt><trkpt lat="43.1019979" lon="11.5999071"><ele>350.8</ele><time>2026-04-04T13:26:42.917Z</time></trkpt><trkpt lat="43.1020539" lon="11.6000218"><ele>351.40000000000003</ele><time>2026-04-04T13:26:43.92Z</time></trkpt><trkpt lat="43.1021052" lon="11.6001361"><ele>352.0</ele><time>2026-04-04T13:26:44.927Z</time></trkpt><trkpt lat="43.1021604" lon="11.6002457"><ele>350.20000000000005</ele><time>2026-04-04T13:26:45.931Z</time></trkpt><trkpt lat="43.1022144" lon="11.6003603"><ele>348.4</ele><time>2026-04-04T13:26:46.916Z</time></trkpt><trkpt lat="43.1022659" lon="11.6004683"><ele>346.6</ele><time>2026-04-04T13:26:47.924Z</time></trkpt><trkpt lat="43.1023185" lon="11.6005781"><ele>344.79999999999995</ele><time>2026-04-04T13:26:48.925Z</time></trkpt><trkpt lat="43.1023596" lon="11.6006817"><ele>343.0</ele><time>2026-04-04T13:26:49.933Z</time></trkpt><trkpt lat="43.1024015" lon="11.6007821"><ele>346.16666666666663</ele><time>2026-04-04T13:26:50.919Z</time></trkpt><trkpt lat="43.1024434" lon="11.600864"><ele>349.3333333333333</ele><time>2026-04-04T13:26:51.92Z</time></trkpt><trkpt lat="43.1024937" lon="11.6009328"><ele>352.5</ele><time>2026-04-04T13:26:52.923Z</time></trkpt><trkpt lat="43.1025507" lon="11.6009832"><ele>355.6666666666667</ele><time>2026-04-04T13:26:53.919Z</time></trkpt><trkpt lat="43.1026088" lon="11.6010339"><ele>358.83333333333337</ele><time>2026-04-04T13:26:54.925Z</time></trkpt><trkpt lat="43.1026748" lon="11.6010656"><ele>362.0</ele><time>2026-04-04T13:26:55.915Z</time></trkpt><trkpt lat="43.1027937" lon="11.6010613"><ele>362.0</ele><time>2026-04-04T13:26:57.914Z</time></trkpt><trkpt lat="43.102896" lon="11.6009624"><ele>362.0</ele><time>2026-04-04T13:26:59.924Z</time></trkpt><trkpt lat="43.1029437" lon="11.6009039"><ele>362.0</ele><time>2026-04-04T13:27:00.92Z</time></trkpt><trkpt lat="43.1029924" lon="11.6008392"><ele>362.0</ele><time>2026-04-04T13:27:01.927Z</time></trkpt><trkpt lat="43.1030477" lon="11.600774"><ele>362.0</ele><time>2026-04-04T13:27:02.917Z</time></trkpt><trkpt lat="43.1031018" lon="11.6007057"><ele>362.0</ele><time>2026-04-04T13:27:03.914Z</time></trkpt><trkpt lat="43.1031544" lon="11.6006399"><ele>362.0</ele><time>2026-04-04T13:27:04.913Z</time></trkpt><trkpt lat="43.1032163" lon="11.6005694"><ele>362.0</ele><time>2026-04-04T13:27:05.921Z</time></trkpt><trkpt lat="43.1032805" lon="11.6005193"><ele>362.0</ele><time>2026-04-04T13:27:06.914Z</time></trkpt><trkpt lat="43.103351" lon="11.600488"><ele>362.0</ele><time>2026-04-04T13:27:07.922Z</time></trkpt><trkpt lat="43.1034239" lon="11.6004767"><ele>362.0</ele><time>2026-04-04T13:27:08.924Z</time></trkpt><trkpt lat="43.1035041" lon="11.6004813"><ele>362.0</ele><time>2026-04-04T13:27:09.93Z</time></trkpt><trkpt lat="43.1035809" lon="11.600494"><ele>362.20000000000005</ele><time>2026-04-04T13:27:10.925Z</time></trkpt><trkpt lat="43.1036643" lon="11.600504"><ele>362.4</ele><time>2026-04-04T13:27:11.928Z</time></trkpt><trkpt lat="43.1037591" lon="11.6005122"><ele>362.6</ele><time>2026-04-04T13:27:12.923Z</time></trkpt><trkpt lat="43.1038556" lon="11.6005215"><ele>362.79999999999995</ele><time>2026-04-04T13:27:13.921Z</time></trkpt><trkpt lat="43.1039493" lon="11.6005297"><ele>363.0</ele><time>2026-04-04T13:27:14.938Z</time></trkpt><trkpt lat="43.1040425" lon="11.600546"><ele>363.4</ele><time>2026-04-04T13:27:15.922Z</time></trkpt><trkpt lat="43.1041316" lon="11.6005599"><ele>363.79999999999995</ele><time>2026-04-04T13:27:16.928Z</time></trkpt><trkpt lat="43.1042227" lon="11.6005734"><ele>364.2</ele><time>2026-04-04T13:27:17.928Z</time></trkpt><trkpt lat="43.1043152" lon="11.6005813"><ele>364.6</ele><time>2026-04-04T13:27:18.925Z</time></trkpt><trkpt lat="43.1044046" lon="11.6005972"><ele>365.0</ele><time>2026-04-04T13:27:19.923Z</time></trkpt><trkpt lat="43.1044956" lon="11.6006198"><ele>365.0</ele><time>2026-04-04T13:27:20.929Z</time></trkpt><trkpt lat="43.104589" lon="11.6006485"><ele>365.0</ele><time>2026-04-04T13:27:21.927Z</time></trkpt><trkpt lat="43.1046808" lon="11.6006662"><ele>365.0</ele><time>2026-04-04T13:27:22.914Z</time></trkpt><trkpt lat="43.1047726" lon="11.6006907"><ele>365.0</ele><time>2026-04-04T13:27:23.926Z</time></trkpt><trkpt lat="43.104869" lon="11.6007129"><ele>365.0</ele><time>2026-04-04T13:27:24.929Z</time></trkpt><trkpt lat="43.1049711" lon="11.6007328"><ele>365.4</ele><time>2026-04-04T13:27:25.923Z</time></trkpt><trkpt lat="43.1050736" lon="11.6007547"><ele>365.8</ele><time>2026-04-04T13:27:26.934Z</time></trkpt><trkpt lat="43.1051777" lon="11.6007623"><ele>366.20000000000005</ele><time>2026-04-04T13:27:27.935Z</time></trkpt><trkpt lat="43.1052845" lon="11.6007678"><ele>366.6</ele><time>2026-04-04T13:27:28.939Z</time></trkpt><trkpt lat="43.1053876" lon="11.6007475"><ele>367.0</ele><time>2026-04-04T13:27:29.929Z</time></trkpt><trkpt lat="43.1054872" lon="11.6007178"><ele>367.0</ele><time>2026-04-04T13:27:30.926Z</time></trkpt><trkpt lat="43.1055838" lon="11.6006783"><ele>367.0</ele><time>2026-04-04T13:27:31.928Z</time></trkpt><trkpt lat="43.1056831" lon="11.6006301"><ele>367.0</ele><time>2026-04-04T13:27:32.93Z</time></trkpt><trkpt lat="43.1057808" lon="11.6005721"><ele>367.0</ele><time>2026-04-04T13:27:33.92Z</time></trkpt><trkpt lat="43.1058718" lon="11.600518"><ele>367.0</ele><time>2026-04-04T13:27:34.925Z</time></trkpt><trkpt lat="43.1059619" lon="11.6004552"><ele>367.20000000000005</ele><time>2026-04-04T13:27:35.921Z</time></trkpt><trkpt lat="43.1060557" lon="11.6003931"><ele>367.4</ele><time>2026-04-04T13:27:36.925Z</time></trkpt><trkpt lat="43.1061473" lon="11.6003483"><ele>367.6</ele><time>2026-04-04T13:27:37.928Z</time></trkpt><trkpt lat="43.1062356" lon="11.6003261"><ele>367.79999999999995</ele><time>2026-04-04T13:27:38.934Z</time></trkpt><trkpt lat="43.1063207" lon="11.60033"><ele>368.0</ele><time>2026-04-04T13:27:39.914Z</time></trkpt><trkpt lat="43.1064073" lon="11.6003512"><ele>369.0</ele><time>2026-04-04T13:27:40.926Z</time></trkpt><trkpt lat="43.1064918" lon="11.6003853"><ele>370.0</ele><time>2026-04-04T13:27:41.921Z</time></trkpt><trkpt lat="43.1065733" lon="11.6004334"><ele>371.0</ele><time>2026-04-04T13:27:42.927Z</time></trkpt><trkpt lat="43.1066599" lon="11.600483"><ele>372.0</ele><time>2026-04-04T13:27:43.926Z</time></trkpt><trkpt lat="43.1067505" lon="11.6005322"><ele>373.0</ele><time>2026-04-04T13:27:44.918Z</time></trkpt><trkpt lat="43.1068377" lon="11.6005917"><ele>375.2</ele><time>2026-04-04T13:27:45.922Z</time></trkpt><trkpt lat="43.1069279" lon="11.6006551"><ele>377.4</ele><time>2026-04-04T13:27:46.912Z</time></trkpt><trkpt lat="43.1070219" lon="11.6007158"><ele>379.59999999999997</ele><time>2026-04-04T13:27:47.919Z</time></trkpt><trkpt lat="43.1071177" lon="11.6007797"><ele>381.79999999999995</ele><time>2026-04-04T13:27:48.927Z</time></trkpt><trkpt lat="43.1072131" lon="11.6008484"><ele>384.0</ele><time>2026-04-04T13:27:49.914Z</time></trkpt><trkpt lat="43.1073028" lon="11.6009113"><ele>384.0</ele><time>2026-04-04T13:27:50.919Z</time></trkpt><trkpt lat="43.1073838" lon="11.6009727"><ele>384.0</ele><time>2026-04-04T13:27:51.92Z</time></trkpt><trkpt lat="43.1074611" lon="11.6010339"><ele>384.0</ele><time>2026-04-04T13:27:52.931Z</time></trkpt><trkpt lat="43.1075419" lon="11.6010993"><ele>384.0</ele><time>2026-04-04T13:27:53.922Z</time></trkpt><trkpt lat="43.1076182" lon="11.6011596"><ele>384.0</ele><time>2026-04-04T13:27:54.931Z</time></trkpt><trkpt lat="43.1076888" lon="11.6012132"><ele>384.0</ele><time>2026-04-04T13:27:55.928Z</time></trkpt><trkpt lat="43.1077583" lon="11.6012745"><ele>385.2857142857143</ele><time>2026-04-04T13:27:56.926Z</time></trkpt><trkpt lat="43.1078193" lon="11.6013474"><ele>386.57142857142856</ele><time>2026-04-04T13:27:57.923Z</time></trkpt><trkpt lat="43.1078727" lon="11.6014208"><ele>387.8571428571429</ele><time>2026-04-04T13:27:58.923Z</time></trkpt><trkpt lat="43.1079246" lon="11.6014985"><ele>389.1428571428571</ele><time>2026-04-04T13:27:59.927Z</time></trkpt><trkpt lat="43.1079709" lon="11.6015752"><ele>390.42857142857144</ele><time>2026-04-04T13:28:00.922Z</time></trkpt><trkpt lat="43.1080123" lon="11.6016519"><ele>391.7142857142857</ele><time>2026-04-04T13:28:01.919Z</time></trkpt><trkpt lat="43.108048" lon="11.601736"><ele>393.0</ele><time>2026-04-04T13:28:02.927Z</time></trkpt><trkpt lat="43.1080722" lon="11.6018345"><ele>393.0</ele><time>2026-04-04T13:28:03.924Z</time></trkpt><trkpt lat="43.1080832" lon="11.6019492"><ele>393.0</ele><time>2026-04-04T13:28:04.923Z</time></trkpt><trkpt lat="43.1080854" lon="11.602071"><ele>393.0</ele><time>2026-04-04T13:28:05.923Z</time></trkpt><trkpt lat="43.1080773" lon="11.602197"><ele>393.0</ele><time>2026-04-04T13:28:06.918Z</time></trkpt><trkpt lat="43.1080702" lon="11.6023251"><ele>393.0</ele><time>2026-04-04T13:28:07.929Z</time></trkpt><trkpt lat="43.1080527" lon="11.6024579"><ele>392.3333333333333</ele><time>2026-04-04T13:28:08.92Z</time></trkpt><trkpt lat="43.108024" lon="11.6025822"><ele>391.66666666666663</ele><time>2026-04-04T13:28:09.922Z</time></trkpt><trkpt lat="43.1079957" lon="11.6026993"><ele>391.0</ele><time>2026-04-04T13:28:10.924Z</time></trkpt><trkpt lat="43.1079684" lon="11.6028038"><ele>390.3333333333333</ele><time>2026-04-04T13:28:11.933Z</time></trkpt><trkpt lat="43.1079376" lon="11.6029085"><ele>389.66666666666663</ele><time>2026-04-04T13:28:12.913Z</time></trkpt><trkpt lat="43.1079116" lon="11.6030138"><ele>389.0</ele><time>2026-04-04T13:28:13.919Z</time></trkpt><trkpt lat="43.1078849" lon="11.6031085"><ele>387.16666666666663</ele><time>2026-04-04T13:28:14.916Z</time></trkpt><trkpt lat="43.107868" lon="11.6032097"><ele>385.3333333333333</ele><time>2026-04-04T13:28:15.918Z</time></trkpt><trkpt lat="43.1078597" lon="11.6033217"><ele>383.5</ele><time>2026-04-04T13:28:16.929Z</time></trkpt><trkpt lat="43.1078653" lon="11.6034354"><ele>381.66666666666663</ele><time>2026-04-04T13:28:17.923Z</time></trkpt><trkpt lat="43.1078808" lon="11.603556"><ele>379.8333333333333</ele><time>2026-04-04T13:28:18.925Z</time></trkpt><trkpt lat="43.1079031" lon="11.6036763"><ele>378.0</ele><time>2026-04-04T13:28:19.911Z</time></trkpt><trkpt lat="43.1079343" lon="11.6038011"><ele>376.59999999999997</ele><time>2026-04-04T13:28:20.914Z</time></trkpt><trkpt lat="43.107975" lon="11.6039387"><ele>375.2</ele><time>2026-04-04T13:28:21.918Z</time></trkpt><trkpt lat="43.1080136" lon="11.6040665"><ele>373.8</ele><time>2026-04-04T13:28:22.911Z</time></trkpt><trkpt lat="43.1080569" lon="11.6041948"><ele>372.4</ele><time>2026-04-04T13:28:23.927Z</time></trkpt><trkpt lat="43.1081053" lon="11.604316"><ele>371.0</ele><time>2026-04-04T13:28:24.921Z</time></trkpt><trkpt lat="43.1081669" lon="11.6044284"><ele>372.0</ele><time>2026-04-04T13:28:25.912Z</time></trkpt><trkpt lat="43.1082441" lon="11.604533"><ele>373.0</ele><time>2026-04-04T13:28:26.92Z</time></trkpt><trkpt lat="43.108326" lon="11.6046244"><ele>374.0</ele><time>2026-04-04T13:28:27.914Z</time></trkpt><trkpt lat="43.1084127" lon="11.6047206"><ele>375.0</ele><time>2026-04-04T13:28:28.928Z</time></trkpt><trkpt lat="43.108503" lon="11.6048081"><ele>376.0</ele><time>2026-04-04T13:28:29.915Z</time></trkpt><trkpt lat="43.1086015" lon="11.6048997"><ele>376.0</ele><time>2026-04-04T13:28:30.924Z</time></trkpt><trkpt lat="43.1087063" lon="11.6049896"><ele>376.0</ele><time>2026-04-04T13:28:31.929Z</time></trkpt><trkpt lat="43.1088129" lon="11.6050765"><ele>376.0</ele><time>2026-04-04T13:28:32.922Z</time></trkpt><trkpt lat="43.1089145" lon="11.6051638"><ele>376.0</ele><time>2026-04-04T13:28:33.92Z</time></trkpt><trkpt lat="43.1090132" lon="11.6052554"><ele>375.75</ele><time>2026-04-04T13:28:34.917Z</time></trkpt><trkpt lat="43.109113" lon="11.6053484"><ele>375.5</ele><time>2026-04-04T13:28:35.927Z</time></trkpt><trkpt lat="43.1092198" lon="11.6054484"><ele>375.25</ele><time>2026-04-04T13:28:36.925Z</time></trkpt><trkpt lat="43.1093257" lon="11.6055549"><ele>375.0</ele><time>2026-04-04T13:28:37.92Z</time></trkpt><trkpt lat="43.1094385" lon="11.6056539"><ele>375.0</ele><time>2026-04-04T13:28:38.917Z</time></trkpt><trkpt lat="43.1095472" lon="11.6057578"><ele>375.0</ele><time>2026-04-04T13:28:39.922Z</time></trkpt><trkpt lat="43.1096536" lon="11.6058677"><ele>375.0</ele><time>2026-04-04T13:28:40.921Z</time></trkpt><trkpt lat="43.1097644" lon="11.6059731"><ele>375.0</ele><time>2026-04-04T13:28:41.925Z</time></trkpt><trkpt lat="43.1098691" lon="11.6060754"><ele>374.25</ele><time>2026-04-04T13:28:42.921Z</time></trkpt><trkpt lat="43.1099709" lon="11.6061798"><ele>373.5</ele><time>2026-04-04T13:28:43.924Z</time></trkpt><trkpt lat="43.1100742" lon="11.6062783"><ele>372.75</ele><time>2026-04-04T13:28:44.926Z</time></trkpt><trkpt lat="43.1101747" lon="11.6063775"><ele>372.0</ele><time>2026-04-04T13:28:45.915Z</time></trkpt><trkpt lat="43.1102731" lon="11.6064739"><ele>372.0</ele><time>2026-04-04T13:28:46.922Z</time></trkpt><trkpt lat="43.1103625" lon="11.6065592"><ele>372.0</ele><time>2026-04-04T13:28:47.925Z</time></trkpt><trkpt lat="43.1104512" lon="11.6066405"><ele>372.0</ele><time>2026-04-04T13:28:48.928Z</time></trkpt><trkpt lat="43.1105248" lon="11.6066999"><ele>372.0</ele><time>2026-04-04T13:28:49.926Z</time></trkpt><trkpt lat="43.1105947" lon="11.6067432"><ele>372.0</ele><time>2026-04-04T13:28:50.915Z</time></trkpt><trkpt lat="43.110664" lon="11.6067797"><ele>372.0</ele><time>2026-04-04T13:28:51.917Z</time></trkpt><trkpt lat="43.1107361" lon="11.6068124"><ele>372.0</ele><time>2026-04-04T13:28:52.931Z</time></trkpt><trkpt lat="43.1108175" lon="11.6068425"><ele>372.0</ele><time>2026-04-04T13:28:53.932Z</time></trkpt><trkpt lat="43.1108998" lon="11.6068811"><ele>372.0</ele><time>2026-04-04T13:28:54.921Z</time></trkpt><trkpt lat="43.1109745" lon="11.6069349"><ele>372.0</ele><time>2026-04-04T13:28:55.924Z</time></trkpt><trkpt lat="43.1110522" lon="11.6069891"><ele>372.0</ele><time>2026-04-04T13:28:56.922Z</time></trkpt><trkpt lat="43.1111216" lon="11.6070448"><ele>371.00000000000006</ele><time>2026-04-04T13:28:57.925Z</time></trkpt><trkpt lat="43.1111846" lon="11.6070983"><ele>370.0</ele><time>2026-04-04T13:28:58.931Z</time></trkpt><trkpt lat="43.1112424" lon="11.6071547"><ele>369.0</ele><time>2026-04-04T13:28:59.923Z</time></trkpt><trkpt lat="43.1113" lon="11.6072105"><ele>368.0</ele><time>2026-04-04T13:29:00.929Z</time></trkpt><trkpt lat="43.111351" lon="11.6072669"><ele>367.0</ele><time>2026-04-04T13:29:01.928Z</time></trkpt><trkpt lat="43.1114054" lon="11.6073204"><ele>366.00000000000006</ele><time>2026-04-04T13:29:02.919Z</time></trkpt><trkpt lat="43.11146" lon="11.607373"><ele>365.0</ele><time>2026-04-04T13:29:03.918Z</time></trkpt><trkpt lat="43.1115128" lon="11.607423"><ele>366.8</ele><time>2026-04-04T13:29:04.92Z</time></trkpt><trkpt lat="43.1116036" lon="11.607503"><ele>368.6</ele><time>2026-04-04T13:29:06.924Z</time></trkpt><trkpt lat="43.1116887" lon="11.6075785"><ele>370.4</ele><time>2026-04-04T13:29:08.921Z</time></trkpt><trkpt lat="43.111787" lon="11.6076541"><ele>372.2</ele><time>2026-04-04T13:29:10.928Z</time></trkpt><trkpt lat="43.1118842" lon="11.6077359"><ele>374.0</ele><time>2026-04-04T13:29:12.921Z</time></trkpt><trkpt lat="43.1119387" lon="11.6077818"><ele>372.5</ele><time>2026-04-04T13:29:13.923Z</time></trkpt><trkpt lat="43.1119971" lon="11.607829"><ele>371.0</ele><time>2026-04-04T13:29:14.921Z</time></trkpt><trkpt lat="43.112061" lon="11.6078757"><ele>369.5</ele><time>2026-04-04T13:29:15.923Z</time></trkpt><trkpt lat="43.1121322" lon="11.6079348"><ele>368.0</ele><time>2026-04-04T13:29:16.918Z</time></trkpt><trkpt lat="43.1122076" lon="11.6079951"><ele>366.5</ele><time>2026-04-04T13:29:17.922Z</time></trkpt><trkpt lat="43.1122758" lon="11.6080606"><ele>365.0</ele><time>2026-04-04T13:29:18.916Z</time></trkpt><trkpt lat="43.1123484" lon="11.6081353"><ele>365.0</ele><time>2026-04-04T13:29:19.921Z</time></trkpt><trkpt lat="43.1124242" lon="11.6082223"><ele>365.0</ele><time>2026-04-04T13:29:20.919Z</time></trkpt><trkpt lat="43.1125029" lon="11.6083102"><ele>365.0</ele><time>2026-04-04T13:29:21.93Z</time></trkpt><trkpt lat="43.1125813" lon="11.6084051"><ele>365.0</ele><time>2026-04-04T13:29:22.92Z</time></trkpt><trkpt lat="43.1126692" lon="11.6085013"><ele>365.0</ele><time>2026-04-04T13:29:23.926Z</time></trkpt><trkpt lat="43.1127575" lon="11.6086043"><ele>364.0</ele><time>2026-04-04T13:29:24.915Z</time></trkpt><trkpt lat="43.1128398" lon="11.6087165"><ele>363.0</ele><time>2026-04-04T13:29:25.918Z</time></trkpt><trkpt lat="43.1129098" lon="11.6088289"><ele>362.0</ele><time>2026-04-04T13:29:26.918Z</time></trkpt><trkpt lat="43.1129752" lon="11.6089506"><ele>361.0</ele><time>2026-04-04T13:29:27.915Z</time></trkpt><trkpt lat="43.1130363" lon="11.6090728"><ele>360.0</ele><time>2026-04-04T13:29:28.925Z</time></trkpt><trkpt lat="43.1130931" lon="11.6091889"><ele>360.0</ele><time>2026-04-04T13:29:29.921Z</time></trkpt><trkpt lat="43.1131451" lon="11.6093036"><ele>360.0</ele><time>2026-04-04T13:29:30.933Z</time></trkpt><trkpt lat="43.1131921" lon="11.6094174"><ele>360.0</ele><time>2026-04-04T13:29:31.932Z</time></trkpt><trkpt lat="43.1132325" lon="11.6095307"><ele>360.0</ele><time>2026-04-04T13:29:32.929Z</time></trkpt><trkpt lat="43.1132749" lon="11.6096394"><ele>360.0</ele><time>2026-04-04T13:29:33.92Z</time></trkpt><trkpt lat="43.113315" lon="11.6097529"><ele>361.8</ele><time>2026-04-04T13:29:34.942Z</time></trkpt><trkpt lat="43.1133562" lon="11.6098679"><ele>363.6</ele><time>2026-04-04T13:29:35.926Z</time></trkpt><trkpt lat="43.1133965" lon="11.609978"><ele>365.4</ele><time>2026-04-04T13:29:36.914Z</time></trkpt><trkpt lat="43.1134456" lon="11.6100829"><ele>367.2</ele><time>2026-04-04T13:29:37.92Z</time></trkpt><trkpt lat="43.113498" lon="11.6101827"><ele>369.0</ele><time>2026-04-04T13:29:38.927Z</time></trkpt><trkpt lat="43.113556" lon="11.6102833"><ele>367.6</ele><time>2026-04-04T13:29:39.928Z</time></trkpt><trkpt lat="43.1136106" lon="11.6103922"><ele>366.2</ele><time>2026-04-04T13:29:40.924Z</time></trkpt><trkpt lat="43.1136644" lon="11.6105008"><ele>364.8</ele><time>2026-04-04T13:29:41.919Z</time></trkpt><trkpt lat="43.1137196" lon="11.6106015"><ele>363.40000000000003</ele><time>2026-04-04T13:29:42.925Z</time></trkpt><trkpt lat="43.1137678" lon="11.6107115"><ele>362.0</ele><time>2026-04-04T13:29:43.926Z</time></trkpt><trkpt lat="43.1138171" lon="11.6108127"><ele>362.0</ele><time>2026-04-04T13:29:44.923Z</time></trkpt><trkpt lat="43.113863" lon="11.6109061"><ele>362.0</ele><time>2026-04-04T13:29:45.919Z</time></trkpt><trkpt lat="43.1139111" lon="11.6109816"><ele>362.0</ele><time>2026-04-04T13:29:46.911Z</time></trkpt><trkpt lat="43.1139593" lon="11.6110537"><ele>362.0</ele><time>2026-04-04T13:29:47.923Z</time></trkpt><trkpt lat="43.11401" lon="11.6111286"><ele>362.0</ele><time>2026-04-04T13:29:48.918Z</time></trkpt><trkpt lat="43.1140724" lon="11.6112063"><ele>362.0</ele><time>2026-04-04T13:29:49.907Z</time></trkpt><trkpt lat="43.114141" lon="11.6112881"><ele>363.20000000000005</ele><time>2026-04-04T13:29:50.918Z</time></trkpt><trkpt lat="43.1142178" lon="11.6113738"><ele>364.4</ele><time>2026-04-04T13:29:51.915Z</time></trkpt><trkpt lat="43.1142992" lon="11.6114702"><ele>365.6</ele><time>2026-04-04T13:29:52.911Z</time></trkpt><trkpt lat="43.1143819" lon="11.6115754"><ele>366.79999999999995</ele><time>2026-04-04T13:29:53.927Z</time></trkpt><trkpt lat="43.1144551" lon="11.6116879"><ele>368.0</ele><time>2026-04-04T13:29:54.915Z</time></trkpt><trkpt lat="43.114524" lon="11.6118113"><ele>368.0</ele><time>2026-04-04T13:29:55.915Z</time></trkpt><trkpt lat="43.1145833" lon="11.6119493"><ele>368.0</ele><time>2026-04-04T13:29:56.93Z</time></trkpt><trkpt lat="43.114628" lon="11.6120957"><ele>368.0</ele><time>2026-04-04T13:29:57.925Z</time></trkpt><trkpt lat="43.1146662" lon="11.6122395"><ele>368.0</ele><time>2026-04-04T13:29:58.929Z</time></trkpt><trkpt lat="43.1146959" lon="11.6123829"><ele>368.33333333333337</ele><time>2026-04-04T13:29:59.926Z</time></trkpt><trkpt lat="43.1147243" lon="11.612512"><ele>368.6666666666667</ele><time>2026-04-04T13:30:00.927Z</time></trkpt><trkpt lat="43.1147502" lon="11.6126351"><ele>369.0</ele><time>2026-04-04T13:30:01.922Z</time></trkpt><trkpt lat="43.1147852" lon="11.6127408"><ele>369.3333333333333</ele><time>2026-04-04T13:30:02.932Z</time></trkpt><trkpt lat="43.1148294" lon="11.6128317"><ele>369.66666666666663</ele><time>2026-04-04T13:30:03.933Z</time></trkpt><trkpt lat="43.1148788" lon="11.6129129"><ele>370.0</ele><time>2026-04-04T13:30:04.925Z</time></trkpt><trkpt lat="43.1149383" lon="11.6129977"><ele>370.0</ele><time>2026-04-04T13:30:05.924Z</time></trkpt><trkpt lat="43.1150027" lon="11.6130882"><ele>370.0</ele><time>2026-04-04T13:30:06.939Z</time></trkpt><trkpt lat="43.1150709" lon="11.6131938"><ele>370.0</ele><time>2026-04-04T13:30:07.928Z</time></trkpt><trkpt lat="43.1151385" lon="11.6132978"><ele>370.0</ele><time>2026-04-04T13:30:08.932Z</time></trkpt><trkpt lat="43.1152091" lon="11.613407"><ele>370.0</ele><time>2026-04-04T13:30:09.934Z</time></trkpt><trkpt lat="43.1152786" lon="11.6135184"><ele>370.0</ele><time>2026-04-04T13:30:10.939Z</time></trkpt><trkpt lat="43.115349" lon="11.6136224"><ele>370.0</ele><time>2026-04-04T13:30:11.928Z</time></trkpt><trkpt lat="43.1154216" lon="11.6137184"><ele>370.0</ele><time>2026-04-04T13:30:12.932Z</time></trkpt><trkpt lat="43.1154968" lon="11.613816"><ele>370.0</ele><time>2026-04-04T13:30:13.921Z</time></trkpt><trkpt lat="43.1155809" lon="11.6139149"><ele>370.0</ele><time>2026-04-04T13:30:14.923Z</time></trkpt><trkpt lat="43.1156671" lon="11.6140042"><ele>371.2</ele><time>2026-04-04T13:30:15.916Z</time></trkpt><trkpt lat="43.1157568" lon="11.6140955"><ele>372.4</ele><time>2026-04-04T13:30:16.925Z</time></trkpt><trkpt lat="43.1158449" lon="11.6141833"><ele>373.6</ele><time>2026-04-04T13:30:17.92Z</time></trkpt><trkpt lat="43.1159197" lon="11.6142796"><ele>374.8</ele><time>2026-04-04T13:30:18.925Z</time></trkpt><trkpt lat="43.1159811" lon="11.6143863"><ele>376.0</ele><time>2026-04-04T13:30:19.921Z</time></trkpt><trkpt lat="43.1160251" lon="11.6145009"><ele>376.20000000000005</ele><time>2026-04-04T13:30:20.923Z</time></trkpt><trkpt lat="43.1160613" lon="11.6146293"><ele>376.40000000000003</ele><time>2026-04-04T13:30:21.935Z</time></trkpt><trkpt lat="43.1160914" lon="11.6147717"><ele>376.6</ele><time>2026-04-04T13:30:22.92Z</time></trkpt><trkpt lat="43.116106" lon="11.6149222"><ele>376.8</ele><time>2026-04-04T13:30:23.919Z</time></trkpt><trkpt lat="43.1161123" lon="11.6150783"><ele>377.0</ele><time>2026-04-04T13:30:24.923Z</time></trkpt><trkpt lat="43.1161103" lon="11.615232"><ele>377.5</ele><time>2026-04-04T13:30:25.923Z</time></trkpt><trkpt lat="43.1161057" lon="11.6153904"><ele>378.0</ele><time>2026-04-04T13:30:26.936Z</time></trkpt><trkpt lat="43.1161006" lon="11.6155567"><ele>378.5</ele><time>2026-04-04T13:30:27.929Z</time></trkpt><trkpt lat="43.1160896" lon="11.6157169"><ele>379.0</ele><time>2026-04-04T13:30:28.931Z</time></trkpt><trkpt lat="43.1160689" lon="11.6158732"><ele>379.0</ele><time>2026-04-04T13:30:29.921Z</time></trkpt><trkpt lat="43.1160409" lon="11.6160249"><ele>379.0</ele><time>2026-04-04T13:30:30.928Z</time></trkpt><trkpt lat="43.1159996" lon="11.6161738"><ele>379.0</ele><time>2026-04-04T13:30:31.948Z</time></trkpt><trkpt lat="43.1159512" lon="11.6163243"><ele>379.0</ele><time>2026-04-04T13:30:32.934Z</time></trkpt><trkpt lat="43.1158904" lon="11.6164766"><ele>379.5</ele><time>2026-04-04T13:30:33.924Z</time></trkpt><trkpt lat="43.115822" lon="11.6166374"><ele>380.0</ele><time>2026-04-04T13:30:34.933Z</time></trkpt><trkpt lat="43.1157505" lon="11.6168005"><ele>380.5</ele><time>2026-04-04T13:30:35.938Z</time></trkpt><trkpt lat="43.1156732" lon="11.6169699"><ele>381.0</ele><time>2026-04-04T13:30:36.936Z</time></trkpt><trkpt lat="43.1155958" lon="11.6171429"><ele>381.25</ele><time>2026-04-04T13:30:37.932Z</time></trkpt><trkpt lat="43.1155274" lon="11.6173085"><ele>381.5</ele><time>2026-04-04T13:30:38.927Z</time></trkpt><trkpt lat="43.1154642" lon="11.6174618"><ele>381.75</ele><time>2026-04-04T13:30:39.932Z</time></trkpt><trkpt lat="43.1154047" lon="11.6175996"><ele>382.0</ele><time>2026-04-04T13:30:40.93Z</time></trkpt><trkpt lat="43.1153538" lon="11.6177354"><ele>383.40000000000003</ele><time>2026-04-04T13:30:41.936Z</time></trkpt><trkpt lat="43.1153069" lon="11.6178583"><ele>384.8</ele><time>2026-04-04T13:30:42.926Z</time></trkpt><trkpt lat="43.1152622" lon="11.6179888"><ele>386.2</ele><time>2026-04-04T13:30:43.927Z</time></trkpt><trkpt lat="43.1152341" lon="11.6180991"><ele>387.6</ele><time>2026-04-04T13:30:44.92Z</time></trkpt><trkpt lat="43.1152145" lon="11.6181911"><ele>389.0</ele><time>2026-04-04T13:30:45.92Z</time></trkpt><trkpt lat="43.1151822" lon="11.6183327"><ele>388.99999999999994</ele><time>2026-04-04T13:30:47.928Z</time></trkpt><trkpt lat="43.1151893" lon="11.6184316"><ele>389.0</ele><time>2026-04-04T13:30:49.92Z</time></trkpt><trkpt lat="43.1152537" lon="11.6185096"><ele>389.0</ele><time>2026-04-04T13:30:51.92Z</time></trkpt><trkpt lat="43.1153505" lon="11.6185415"><ele>389.0</ele><time>2026-04-04T13:30:53.921Z</time></trkpt><trkpt lat="43.1154471" lon="11.6185869"><ele>388.99999999999994</ele><time>2026-04-04T13:30:55.919Z</time></trkpt><trkpt lat="43.1155133" lon="11.6186196"><ele>389.0</ele><time>2026-04-04T13:31:04.914Z</time></trkpt><trkpt lat="43.1156196" lon="11.6186353"><ele>388.99999999999994</ele><time>2026-04-04T13:31:07.923Z</time></trkpt><trkpt lat="43.1156856" lon="11.6186373"><ele>389.0</ele><time>2026-04-04T13:31:08.928Z</time></trkpt><trkpt lat="43.1157575" lon="11.6186422"><ele>389.0</ele><time>2026-04-04T13:31:09.929Z</time></trkpt><trkpt lat="43.1158356" lon="11.6186523"><ele>389.0</ele><time>2026-04-04T13:31:10.923Z</time></trkpt><trkpt lat="43.1159271" lon="11.618654"><ele>388.99999999999994</ele><time>2026-04-04T13:31:11.926Z</time></trkpt><trkpt lat="43.1160107" lon="11.618652"><ele>389.0</ele><time>2026-04-04T13:31:12.923Z</time></trkpt><trkpt lat="43.1160893" lon="11.6186258"><ele>388.4</ele><time>2026-04-04T13:31:13.926Z</time></trkpt><trkpt lat="43.1161825" lon="11.6185918"><ele>387.79999999999995</ele><time>2026-04-04T13:31:14.916Z</time></trkpt><trkpt lat="43.1162882" lon="11.6185497"><ele>387.20000000000005</ele><time>2026-04-04T13:31:15.929Z</time></trkpt><trkpt lat="43.1163958" lon="11.6185125"><ele>386.6</ele><time>2026-04-04T13:31:16.93Z</time></trkpt><trkpt lat="43.1165143" lon="11.6184841"><ele>386.0</ele><time>2026-04-04T13:31:17.923Z</time></trkpt><trkpt lat="43.1166305" lon="11.6184668"><ele>384.0</ele><time>2026-04-04T13:31:18.924Z</time></trkpt><trkpt lat="43.1167483" lon="11.6184592"><ele>382.0</ele><time>2026-04-04T13:31:19.923Z</time></trkpt><trkpt lat="43.1168677" lon="11.6184618"><ele>380.0</ele><time>2026-04-04T13:31:20.911Z</time></trkpt><trkpt lat="43.1169885" lon="11.6184736"><ele>378.0</ele><time>2026-04-04T13:31:21.923Z</time></trkpt><trkpt lat="43.1171106" lon="11.6184859"><ele>378.0</ele><time>2026-04-04T13:31:22.923Z</time></trkpt><trkpt lat="43.1172365" lon="11.6184999"><ele>378.0</ele><time>2026-04-04T13:31:23.925Z</time></trkpt><trkpt lat="43.1173701" lon="11.6185182"><ele>378.0</ele><time>2026-04-04T13:31:24.924Z</time></trkpt><trkpt lat="43.1175071" lon="11.618533"><ele>378.0</ele><time>2026-04-04T13:31:25.926Z</time></trkpt><trkpt lat="43.1176434" lon="11.6185431"><ele>376.75</ele><time>2026-04-04T13:31:26.925Z</time></trkpt><trkpt lat="43.1177826" lon="11.6185527"><ele>375.5</ele><time>2026-04-04T13:31:27.925Z</time></trkpt><trkpt lat="43.1179172" lon="11.6185638"><ele>374.25</ele><time>2026-04-04T13:31:28.923Z</time></trkpt><trkpt lat="43.1180428" lon="11.6185695"><ele>373.0</ele><time>2026-04-04T13:31:29.933Z</time></trkpt><trkpt lat="43.1181661" lon="11.6185681"><ele>372.59999999999997</ele><time>2026-04-04T13:31:30.918Z</time></trkpt><trkpt lat="43.1182755" lon="11.6185716"><ele>372.2</ele><time>2026-04-04T13:31:31.93Z</time></trkpt><trkpt lat="43.1183755" lon="11.6185784"><ele>371.8</ele><time>2026-04-04T13:31:32.941Z</time></trkpt><trkpt lat="43.1184704" lon="11.6185772"><ele>371.4</ele><time>2026-04-04T13:31:33.923Z</time></trkpt><trkpt lat="43.118557" lon="11.6185835"><ele>371.0</ele><time>2026-04-04T13:31:34.929Z</time></trkpt><trkpt lat="43.1186326" lon="11.6185865"><ele>371.0</ele><time>2026-04-04T13:31:35.937Z</time></trkpt><trkpt lat="43.1187017" lon="11.6185843"><ele>371.0</ele><time>2026-04-04T13:31:36.924Z</time></trkpt><trkpt lat="43.118767" lon="11.6185934"><ele>371.0</ele><time>2026-04-04T13:31:37.927Z</time></trkpt><trkpt lat="43.118884" lon="11.6186067"><ele>371.0</ele><time>2026-04-04T13:31:39.924Z</time></trkpt><trkpt lat="43.1190003" lon="11.618619"><ele>371.0</ele><time>2026-04-04T13:31:41.923Z</time></trkpt><trkpt lat="43.1190652" lon="11.6186241"><ele>371.0</ele><time>2026-04-04T13:31:42.925Z</time></trkpt><trkpt lat="43.119191" lon="11.6186389"><ele>370.6</ele><time>2026-04-04T13:31:44.931Z</time></trkpt><trkpt lat="43.1192617" lon="11.6186538"><ele>370.20000000000005</ele><time>2026-04-04T13:31:45.921Z</time></trkpt><trkpt lat="43.1193414" lon="11.6186677"><ele>369.79999999999995</ele><time>2026-04-04T13:31:46.919Z</time></trkpt><trkpt lat="43.119432" lon="11.6186815"><ele>369.4</ele><time>2026-04-04T13:31:47.922Z</time></trkpt><trkpt lat="43.1195347" lon="11.6186866"><ele>369.0</ele><time>2026-04-04T13:31:48.919Z</time></trkpt><trkpt lat="43.1196437" lon="11.6186962"><ele>369.0</ele><time>2026-04-04T13:31:49.925Z</time></trkpt><trkpt lat="43.1197557" lon="11.618705"><ele>369.0</ele><time>2026-04-04T13:31:50.922Z</time></trkpt><trkpt lat="43.1198628" lon="11.6187113"><ele>369.0</ele><time>2026-04-04T13:31:51.921Z</time></trkpt><trkpt lat="43.119972" lon="11.6187158"><ele>369.0</ele><time>2026-04-04T13:31:52.925Z</time></trkpt><trkpt lat="43.1200744" lon="11.6187211"><ele>369.0</ele><time>2026-04-04T13:31:53.927Z</time></trkpt><trkpt lat="43.1201669" lon="11.6187213"><ele>370.2</ele><time>2026-04-04T13:31:54.924Z</time></trkpt><trkpt lat="43.1202505" lon="11.6187249"><ele>371.4</ele><time>2026-04-04T13:31:55.925Z</time></trkpt><trkpt lat="43.1203263" lon="11.6187294"><ele>372.6</ele><time>2026-04-04T13:31:56.924Z</time></trkpt><trkpt lat="43.1203899" lon="11.6187376"><ele>373.8</ele><time>2026-04-04T13:31:57.926Z</time></trkpt><trkpt lat="43.1205065" lon="11.6187464"><ele>375.0</ele><time>2026-04-04T13:31:59.922Z</time></trkpt><trkpt lat="43.1206232" lon="11.6187352"><ele>375.8333333333333</ele><time>2026-04-04T13:32:01.935Z</time></trkpt><trkpt lat="43.1207418" lon="11.6186959"><ele>376.6666666666667</ele><time>2026-04-04T13:32:03.931Z</time></trkpt><trkpt lat="43.1208028" lon="11.6186578"><ele>377.5</ele><time>2026-04-04T13:32:04.917Z</time></trkpt><trkpt lat="43.1208636" lon="11.6186175"><ele>378.33333333333337</ele><time>2026-04-04T13:32:05.921Z</time></trkpt><trkpt lat="43.1209202" lon="11.6185679"><ele>379.1666666666667</ele><time>2026-04-04T13:32:06.928Z</time></trkpt><trkpt lat="43.1209787" lon="11.6185203"><ele>380.0</ele><time>2026-04-04T13:32:07.921Z</time></trkpt><trkpt lat="43.1210352" lon="11.6184611"><ele>380.0</ele><time>2026-04-04T13:32:08.923Z</time></trkpt><trkpt lat="43.1210949" lon="11.6184019"><ele>380.0</ele><time>2026-04-04T13:32:09.928Z</time></trkpt><trkpt lat="43.1211574" lon="11.6183395"><ele>380.0</ele><time>2026-04-04T13:32:10.923Z</time></trkpt><trkpt lat="43.1212148" lon="11.618277"><ele>380.0</ele><time>2026-04-04T13:32:11.925Z</time></trkpt><trkpt lat="43.1212745" lon="11.6182064"><ele>380.0</ele><time>2026-04-04T13:32:12.925Z</time></trkpt><trkpt lat="43.1213337" lon="11.6181444"><ele>380.0</ele><time>2026-04-04T13:32:13.924Z</time></trkpt><trkpt lat="43.1213976" lon="11.6180811"><ele>380.0</ele><time>2026-04-04T13:32:14.919Z</time></trkpt><trkpt lat="43.121466" lon="11.6180199"><ele>380.0</ele><time>2026-04-04T13:32:15.929Z</time></trkpt><trkpt lat="43.1215237" lon="11.6179584"><ele>380.0</ele><time>2026-04-04T13:32:16.936Z</time></trkpt><trkpt lat="43.1215761" lon="11.6179031"><ele>380.0</ele><time>2026-04-04T13:32:17.924Z</time></trkpt><trkpt lat="43.1216262" lon="11.617844"><ele>380.0</ele><time>2026-04-04T13:32:18.923Z</time></trkpt><trkpt lat="43.1216753" lon="11.6177899"><ele>380.0</ele><time>2026-04-04T13:32:19.921Z</time></trkpt><trkpt lat="43.1217304" lon="11.617735"><ele>380.0</ele><time>2026-04-04T13:32:20.926Z</time></trkpt><trkpt lat="43.121793" lon="11.6176742"><ele>380.6</ele><time>2026-04-04T13:32:21.933Z</time></trkpt><trkpt lat="43.1218638" lon="11.6176024"><ele>381.2</ele><time>2026-04-04T13:32:22.928Z</time></trkpt><trkpt lat="43.1219447" lon="11.6175242"><ele>381.79999999999995</ele><time>2026-04-04T13:32:23.935Z</time></trkpt><trkpt lat="43.122037" lon="11.6174346"><ele>382.4</ele><time>2026-04-04T13:32:24.926Z</time></trkpt><trkpt lat="43.1221347" lon="11.6173358"><ele>383.0</ele><time>2026-04-04T13:32:25.923Z</time></trkpt><trkpt lat="43.1222365" lon="11.6172289"><ele>383.0</ele><time>2026-04-04T13:32:26.922Z</time></trkpt><trkpt lat="43.1223448" lon="11.6171069"><ele>383.0</ele><time>2026-04-04T13:32:27.929Z</time></trkpt><trkpt lat="43.1224537" lon="11.6169784"><ele>383.0</ele><time>2026-04-04T13:32:28.921Z</time></trkpt><trkpt lat="43.1225654" lon="11.6168292"><ele>383.0</ele><time>2026-04-04T13:32:29.925Z</time></trkpt><trkpt lat="43.1226742" lon="11.6166696"><ele>380.0</ele><time>2026-04-04T13:32:30.937Z</time></trkpt><trkpt lat="43.1227771" lon="11.6164975"><ele>377.0</ele><time>2026-04-04T13:32:31.929Z</time></trkpt><trkpt lat="43.1228752" lon="11.6163118"><ele>374.0</ele><time>2026-04-04T13:32:32.926Z</time></trkpt><trkpt lat="43.1229705" lon="11.6161239"><ele>374.33333333333337</ele><time>2026-04-04T13:32:33.934Z</time></trkpt><trkpt lat="43.123061" lon="11.6159324"><ele>374.6666666666667</ele><time>2026-04-04T13:32:34.929Z</time></trkpt><trkpt lat="43.1231516" lon="11.6157387"><ele>375.0</ele><time>2026-04-04T13:32:35.927Z</time></trkpt><trkpt lat="43.1232444" lon="11.6155426"><ele>375.0</ele><time>2026-04-04T13:32:36.926Z</time></trkpt><trkpt lat="43.1233453" lon="11.6153606"><ele>375.0</ele><time>2026-04-04T13:32:37.926Z</time></trkpt><trkpt lat="43.1234416" lon="11.615197"><ele>375.0</ele><time>2026-04-04T13:32:38.918Z</time></trkpt><trkpt lat="43.1235341" lon="11.6150438"><ele>376.75</ele><time>2026-04-04T13:32:39.921Z</time></trkpt><trkpt lat="43.1236227" lon="11.6149025"><ele>378.5</ele><time>2026-04-04T13:32:40.922Z</time></trkpt><trkpt lat="43.1237131" lon="11.6147672"><ele>380.25</ele><time>2026-04-04T13:32:41.922Z</time></trkpt><trkpt lat="43.1238077" lon="11.6146487"><ele>382.0</ele><time>2026-04-04T13:32:42.922Z</time></trkpt><trkpt lat="43.1239039" lon="11.614557"><ele>383.20000000000005</ele><time>2026-04-04T13:32:43.925Z</time></trkpt><trkpt lat="43.124" lon="11.6144793"><ele>384.4</ele><time>2026-04-04T13:32:44.926Z</time></trkpt><trkpt lat="43.124088" lon="11.6144229"><ele>385.6</ele><time>2026-04-04T13:32:45.935Z</time></trkpt><trkpt lat="43.1241758" lon="11.6143844"><ele>386.79999999999995</ele><time>2026-04-04T13:32:46.929Z</time></trkpt><trkpt lat="43.1242624" lon="11.6143526"><ele>388.0</ele><time>2026-04-04T13:32:47.924Z</time></trkpt><trkpt lat="43.124355" lon="11.6143208"><ele>388.2</ele><time>2026-04-04T13:32:48.921Z</time></trkpt><trkpt lat="43.1244539" lon="11.6143026"><ele>388.4</ele><time>2026-04-04T13:32:49.93Z</time></trkpt><trkpt lat="43.1245498" lon="11.6142786"><ele>388.59999999999997</ele><time>2026-04-04T13:32:50.924Z</time></trkpt><trkpt lat="43.1246552" lon="11.6142568"><ele>388.79999999999995</ele><time>2026-04-04T13:32:51.923Z</time></trkpt><trkpt lat="43.1247594" lon="11.6142362"><ele>389.0</ele><time>2026-04-04T13:32:52.922Z</time></trkpt><trkpt lat="43.1248676" lon="11.614232"><ele>387.6</ele><time>2026-04-04T13:32:53.932Z</time></trkpt><trkpt lat="43.124972" lon="11.6142517"><ele>386.2</ele><time>2026-04-04T13:32:54.921Z</time></trkpt><trkpt lat="43.1250707" lon="11.6142859"><ele>384.8</ele><time>2026-04-04T13:32:55.915Z</time></trkpt><trkpt lat="43.1251623" lon="11.6143242"><ele>383.40000000000003</ele><time>2026-04-04T13:32:56.926Z</time></trkpt><trkpt lat="43.1252478" lon="11.6143691"><ele>382.0</ele><time>2026-04-04T13:32:57.918Z</time></trkpt><trkpt lat="43.1253294" lon="11.6144196"><ele>382.0</ele><time>2026-04-04T13:32:58.921Z</time></trkpt><trkpt lat="43.1254042" lon="11.6144608"><ele>382.0</ele><time>2026-04-04T13:32:59.925Z</time></trkpt><trkpt lat="43.1254757" lon="11.614496"><ele>382.0</ele><time>2026-04-04T13:33:00.923Z</time></trkpt><trkpt lat="43.1255402" lon="11.61452"><ele>382.0</ele><time>2026-04-04T13:33:01.92Z</time></trkpt><trkpt lat="43.1256088" lon="11.6145309"><ele>382.0</ele><time>2026-04-04T13:33:02.922Z</time></trkpt><trkpt lat="43.1256834" lon="11.6145386"><ele>382.0</ele><time>2026-04-04T13:33:03.921Z</time></trkpt><trkpt lat="43.1257542" lon="11.6145385"><ele>382.0</ele><time>2026-04-04T13:33:04.922Z</time></trkpt><trkpt lat="43.125828" lon="11.6145397"><ele>381.5</ele><time>2026-04-04T13:33:05.924Z</time></trkpt><trkpt lat="43.1259022" lon="11.6145344"><ele>381.0</ele><time>2026-04-04T13:33:06.926Z</time></trkpt><trkpt lat="43.1259804" lon="11.614524"><ele>380.5</ele><time>2026-04-04T13:33:07.924Z</time></trkpt><trkpt lat="43.1260625" lon="11.6145035"><ele>380.0</ele><time>2026-04-04T13:33:08.926Z</time></trkpt><trkpt lat="43.1261509" lon="11.6144859"><ele>379.5</ele><time>2026-04-04T13:33:09.917Z</time></trkpt><trkpt lat="43.126237" lon="11.6144663"><ele>379.0</ele><time>2026-04-04T13:33:10.923Z</time></trkpt><trkpt lat="43.1263257" lon="11.6144557"><ele>379.0</ele><time>2026-04-04T13:33:11.92Z</time></trkpt><trkpt lat="43.1264219" lon="11.6144505"><ele>379.0</ele><time>2026-04-04T13:33:12.922Z</time></trkpt><trkpt lat="43.1265169" lon="11.6144453"><ele>379.0</ele><time>2026-04-04T13:33:13.923Z</time></trkpt><trkpt lat="43.1266157" lon="11.6144381"><ele>379.0</ele><time>2026-04-04T13:33:14.926Z</time></trkpt><trkpt lat="43.1267039" lon="11.6144332"><ele>379.0</ele><time>2026-04-04T13:33:15.937Z</time></trkpt><trkpt lat="43.1267811" lon="11.6144273"><ele>378.79999999999995</ele><time>2026-04-04T13:33:16.923Z</time></trkpt><trkpt lat="43.1268953" lon="11.6144251"><ele>378.59999999999997</ele><time>2026-04-04T13:33:18.923Z</time></trkpt><trkpt lat="43.1269957" lon="11.6144016"><ele>378.4</ele><time>2026-04-04T13:33:20.928Z</time></trkpt><trkpt lat="43.127108" lon="11.6143794"><ele>378.2</ele><time>2026-04-04T13:33:22.925Z</time></trkpt><trkpt lat="43.1271797" lon="11.6143582"><ele>378.0</ele><time>2026-04-04T13:33:23.927Z</time></trkpt><trkpt lat="43.1272518" lon="11.61433"><ele>378.0</ele><time>2026-04-04T13:33:24.921Z</time></trkpt><trkpt lat="43.1273255" lon="11.6142857"><ele>378.0</ele><time>2026-04-04T13:33:25.922Z</time></trkpt><trkpt lat="43.1273984" lon="11.6142216"><ele>378.0</ele><time>2026-04-04T13:33:26.922Z</time></trkpt><trkpt lat="43.1274702" lon="11.6141476"><ele>378.0</ele><time>2026-04-04T13:33:27.927Z</time></trkpt><trkpt lat="43.1275433" lon="11.6140517"><ele>378.0</ele><time>2026-04-04T13:33:28.922Z</time></trkpt><trkpt lat="43.1276137" lon="11.6139558"><ele>377.4</ele><time>2026-04-04T13:33:29.916Z</time></trkpt><trkpt lat="43.127687" lon="11.6138544"><ele>376.79999999999995</ele><time>2026-04-04T13:33:30.924Z</time></trkpt><trkpt lat="43.127757" lon="11.6137507"><ele>376.2</ele><time>2026-04-04T13:33:31.926Z</time></trkpt><trkpt lat="43.1278265" lon="11.6136557"><ele>375.6</ele><time>2026-04-04T13:33:32.923Z</time></trkpt><trkpt lat="43.1278993" lon="11.6135574"><ele>375.0</ele><time>2026-04-04T13:33:33.925Z</time></trkpt><trkpt lat="43.1279769" lon="11.613475"><ele>374.0</ele><time>2026-04-04T13:33:34.924Z</time></trkpt><trkpt lat="43.1280626" lon="11.6134017"><ele>373.0</ele><time>2026-04-04T13:33:35.922Z</time></trkpt><trkpt lat="43.1281559" lon="11.6133354"><ele>372.0</ele><time>2026-04-04T13:33:36.919Z</time></trkpt><trkpt lat="43.1282487" lon="11.6132694"><ele>371.0</ele><time>2026-04-04T13:33:37.917Z</time></trkpt><trkpt lat="43.1283375" lon="11.6132038"><ele>370.0</ele><time>2026-04-04T13:33:38.921Z</time></trkpt><trkpt lat="43.1284274" lon="11.6131453"><ele>369.6</ele><time>2026-04-04T13:33:39.923Z</time></trkpt><trkpt lat="43.1285122" lon="11.6130831"><ele>369.2</ele><time>2026-04-04T13:33:40.918Z</time></trkpt><trkpt lat="43.1285909" lon="11.6130274"><ele>368.79999999999995</ele><time>2026-04-04T13:33:41.921Z</time></trkpt><trkpt lat="43.1286627" lon="11.6129671"><ele>368.4</ele><time>2026-04-04T13:33:42.922Z</time></trkpt><trkpt lat="43.1287221" lon="11.6129098"><ele>368.0</ele><time>2026-04-04T13:33:43.923Z</time></trkpt><trkpt lat="43.1288013" lon="11.6127735"><ele>366.83333333333337</ele><time>2026-04-04T13:33:45.919Z</time></trkpt><trkpt lat="43.1288164" lon="11.6126871"><ele>365.6666666666667</ele><time>2026-04-04T13:33:46.923Z</time></trkpt><trkpt lat="43.1288255" lon="11.6125943"><ele>364.5</ele><time>2026-04-04T13:33:47.913Z</time></trkpt><trkpt lat="43.1288334" lon="11.6124844"><ele>363.3333333333333</ele><time>2026-04-04T13:33:48.921Z</time></trkpt><trkpt lat="43.1288409" lon="11.6123438"><ele>362.16666666666663</ele><time>2026-04-04T13:33:49.917Z</time></trkpt><trkpt lat="43.1288441" lon="11.6121861"><ele>361.0</ele><time>2026-04-04T13:33:50.927Z</time></trkpt><trkpt lat="43.1288487" lon="11.6120155"><ele>359.25</ele><time>2026-04-04T13:33:51.921Z</time></trkpt><trkpt lat="43.1288567" lon="11.6118208"><ele>357.5</ele><time>2026-04-04T13:33:52.921Z</time></trkpt><trkpt lat="43.1288636" lon="11.6116191"><ele>355.75</ele><time>2026-04-04T13:33:53.93Z</time></trkpt><trkpt lat="43.128873" lon="11.6114041"><ele>354.0</ele><time>2026-04-04T13:33:54.927Z</time></trkpt><trkpt lat="43.1288828" lon="11.6111786"><ele>353.5</ele><time>2026-04-04T13:33:55.925Z</time></trkpt><trkpt lat="43.1288919" lon="11.6109663"><ele>353.0</ele><time>2026-04-04T13:33:56.917Z</time></trkpt><trkpt lat="43.1288969" lon="11.6107665"><ele>352.5</ele><time>2026-04-04T13:33:57.935Z</time></trkpt><trkpt lat="43.128899" lon="11.6105851"><ele>352.0</ele><time>2026-04-04T13:33:58.93Z</time></trkpt><trkpt lat="43.128891" lon="11.6104065"><ele>353.75</ele><time>2026-04-04T13:33:59.933Z</time></trkpt><trkpt lat="43.1288638" lon="11.6102353"><ele>355.5</ele><time>2026-04-04T13:34:00.919Z</time></trkpt><trkpt lat="43.1288237" lon="11.6100493"><ele>357.25</ele><time>2026-04-04T13:34:01.924Z</time></trkpt><trkpt lat="43.1287771" lon="11.6098628"><ele>359.0</ele><time>2026-04-04T13:34:02.921Z</time></trkpt><trkpt lat="43.1287161" lon="11.6096835"><ele>359.0</ele><time>2026-04-04T13:34:03.92Z</time></trkpt><trkpt lat="43.1286373" lon="11.6095036"><ele>359.0</ele><time>2026-04-04T13:34:04.924Z</time></trkpt><trkpt lat="43.1285604" lon="11.6093303"><ele>359.0</ele><time>2026-04-04T13:34:05.924Z</time></trkpt><trkpt lat="43.1284822" lon="11.6091442"><ele>362.33333333333337</ele><time>2026-04-04T13:34:06.93Z</time></trkpt><trkpt lat="43.1284047" lon="11.6089517"><ele>365.6666666666667</ele><time>2026-04-04T13:34:07.922Z</time></trkpt><trkpt lat="43.1283312" lon="11.6087575"><ele>369.0</ele><time>2026-04-04T13:34:08.932Z</time></trkpt><trkpt lat="43.1282472" lon="11.6085603"><ele>367.0</ele><time>2026-04-04T13:34:09.924Z</time></trkpt><trkpt lat="43.1281565" lon="11.6083752"><ele>365.0</ele><time>2026-04-04T13:34:10.919Z</time></trkpt><trkpt lat="43.1280634" lon="11.6082139"><ele>363.0</ele><time>2026-04-04T13:34:11.924Z</time></trkpt><trkpt lat="43.1279794" lon="11.6080789"><ele>361.0</ele><time>2026-04-04T13:34:12.926Z</time></trkpt><trkpt lat="43.1278974" lon="11.6079498"><ele>363.25</ele><time>2026-04-04T13:34:13.925Z</time></trkpt><trkpt lat="43.1278213" lon="11.6078213"><ele>365.5</ele><time>2026-04-04T13:34:14.924Z</time></trkpt><trkpt lat="43.1277555" lon="11.6076864"><ele>367.75</ele><time>2026-04-04T13:34:15.925Z</time></trkpt><trkpt lat="43.1277" lon="11.6075513"><ele>370.0</ele><time>2026-04-04T13:34:16.918Z</time></trkpt><trkpt lat="43.1276515" lon="11.6074153"><ele>370.0</ele><time>2026-04-04T13:34:17.926Z</time></trkpt><trkpt lat="43.1276101" lon="11.607278"><ele>370.0</ele><time>2026-04-04T13:34:18.921Z</time></trkpt><trkpt lat="43.1275671" lon="11.6071484"><ele>370.0</ele><time>2026-04-04T13:34:19.931Z</time></trkpt><trkpt lat="43.1275277" lon="11.6070168"><ele>370.0</ele><time>2026-04-04T13:34:20.924Z</time></trkpt><trkpt lat="43.1274879" lon="11.6068849"><ele>370.0</ele><time>2026-04-04T13:34:21.919Z</time></trkpt><trkpt lat="43.1274507" lon="11.6067489"><ele>370.4</ele><time>2026-04-04T13:34:22.922Z</time></trkpt><trkpt lat="43.1274208" lon="11.6066096"><ele>370.8</ele><time>2026-04-04T13:34:23.93Z</time></trkpt><trkpt lat="43.1273923" lon="11.6064727"><ele>371.20000000000005</ele><time>2026-04-04T13:34:24.93Z</time></trkpt><trkpt lat="43.1273615" lon="11.6063382"><ele>371.6</ele><time>2026-04-04T13:34:25.927Z</time></trkpt><trkpt lat="43.1273364" lon="11.6062107"><ele>372.0</ele><time>2026-04-04T13:34:26.929Z</time></trkpt><trkpt lat="43.1273079" lon="11.6060841"><ele>370.0</ele><time>2026-04-04T13:34:27.931Z</time></trkpt><trkpt lat="43.1272636" lon="11.6059607"><ele>368.0</ele><time>2026-04-04T13:34:28.924Z</time></trkpt><trkpt lat="43.1272114" lon="11.6058357"><ele>366.0</ele><time>2026-04-04T13:34:29.919Z</time></trkpt><trkpt lat="43.1271473" lon="11.6057224"><ele>364.0</ele><time>2026-04-04T13:34:30.926Z</time></trkpt><trkpt lat="43.1270675" lon="11.6056107"><ele>362.0</ele><time>2026-04-04T13:34:31.916Z</time></trkpt><trkpt lat="43.1269756" lon="11.6055109"><ele>362.0</ele><time>2026-04-04T13:34:32.92Z</time></trkpt><trkpt lat="43.1268804" lon="11.6054145"><ele>362.0</ele><time>2026-04-04T13:34:33.921Z</time></trkpt><trkpt lat="43.126778" lon="11.6053179"><ele>362.0</ele><time>2026-04-04T13:34:34.926Z</time></trkpt><trkpt lat="43.1266785" lon="11.6052151"><ele>362.0</ele><time>2026-04-04T13:34:35.921Z</time></trkpt><trkpt lat="43.1265779" lon="11.6051017"><ele>361.75</ele><time>2026-04-04T13:34:36.927Z</time></trkpt><trkpt lat="43.1264853" lon="11.6049749"><ele>361.5</ele><time>2026-04-04T13:34:37.922Z</time></trkpt><trkpt lat="43.1263989" lon="11.6048247"><ele>361.25</ele><time>2026-04-04T13:34:38.924Z</time></trkpt><trkpt lat="43.1263214" lon="11.60466"><ele>361.0</ele><time>2026-04-04T13:34:39.926Z</time></trkpt><trkpt lat="43.1262491" lon="11.6044946"><ele>362.66666666666663</ele><time>2026-04-04T13:34:40.926Z</time></trkpt><trkpt lat="43.1261768" lon="11.6043151"><ele>364.3333333333333</ele><time>2026-04-04T13:34:41.922Z</time></trkpt><trkpt lat="43.1260997" lon="11.6041331"><ele>366.0</ele><time>2026-04-04T13:34:42.924Z</time></trkpt><trkpt lat="43.126021" lon="11.6039417"><ele>366.0</ele><time>2026-04-04T13:34:43.925Z</time></trkpt><trkpt lat="43.1259376" lon="11.6037513"><ele>366.0</ele><time>2026-04-04T13:34:44.928Z</time></trkpt><trkpt lat="43.1258504" lon="11.6035455"><ele>366.0</ele><time>2026-04-04T13:34:45.936Z</time></trkpt><trkpt lat="43.1257588" lon="11.6033428"><ele>364.6666666666667</ele><time>2026-04-04T13:34:46.936Z</time></trkpt><trkpt lat="43.1256686" lon="11.6031422"><ele>363.33333333333337</ele><time>2026-04-04T13:34:47.923Z</time></trkpt><trkpt lat="43.1255763" lon="11.6029215"><ele>362.0</ele><time>2026-04-04T13:34:48.918Z</time></trkpt><trkpt lat="43.1254888" lon="11.6027014"><ele>362.0</ele><time>2026-04-04T13:34:49.926Z</time></trkpt><trkpt lat="43.1253935" lon="11.6024748"><ele>362.0</ele><time>2026-04-04T13:34:50.923Z</time></trkpt><trkpt lat="43.1253043" lon="11.6022546"><ele>362.0</ele><time>2026-04-04T13:34:51.923Z</time></trkpt><trkpt lat="43.1252164" lon="11.6020285"><ele>363.6666666666667</ele><time>2026-04-04T13:34:52.922Z</time></trkpt><trkpt lat="43.1251278" lon="11.6018067"><ele>365.3333333333333</ele><time>2026-04-04T13:34:53.922Z</time></trkpt><trkpt lat="43.1250398" lon="11.6015906"><ele>367.0</ele><time>2026-04-04T13:34:54.924Z</time></trkpt><trkpt lat="43.1249699" lon="11.6013894"><ele>367.0</ele><time>2026-04-04T13:34:55.923Z</time></trkpt><trkpt lat="43.1249104" lon="11.6012038"><ele>367.0</ele><time>2026-04-04T13:34:56.923Z</time></trkpt><trkpt lat="43.1248513" lon="11.6010292"><ele>367.0</ele><time>2026-04-04T13:34:57.924Z</time></trkpt><trkpt lat="43.1247943" lon="11.600859"><ele>367.0</ele><time>2026-04-04T13:34:58.92Z</time></trkpt><trkpt lat="43.1247317" lon="11.6006933"><ele>366.0</ele><time>2026-04-04T13:34:59.923Z</time></trkpt><trkpt lat="43.1246654" lon="11.6005188"><ele>365.0</ele><time>2026-04-04T13:35:00.922Z</time></trkpt><trkpt lat="43.1245929" lon="11.6003605"><ele>364.0</ele><time>2026-04-04T13:35:01.93Z</time></trkpt><trkpt lat="43.1245155" lon="11.6002108"><ele>363.0</ele><time>2026-04-04T13:35:02.924Z</time></trkpt><trkpt lat="43.1244368" lon="11.600072"><ele>365.0</ele><time>2026-04-04T13:35:03.929Z</time></trkpt><trkpt lat="43.1243621" lon="11.5999438"><ele>367.0</ele><time>2026-04-04T13:35:04.92Z</time></trkpt><trkpt lat="43.124286" lon="11.5998102"><ele>369.0</ele><time>2026-04-04T13:35:05.931Z</time></trkpt><trkpt lat="43.124217" lon="11.5996769"><ele>371.0</ele><time>2026-04-04T13:35:06.929Z</time></trkpt><trkpt lat="43.1241618" lon="11.5995581"><ele>370.83333333333337</ele><time>2026-04-04T13:35:07.921Z</time></trkpt><trkpt lat="43.1241145" lon="11.5994451"><ele>370.6666666666667</ele><time>2026-04-04T13:35:08.924Z</time></trkpt><trkpt lat="43.1240763" lon="11.5993379"><ele>370.5</ele><time>2026-04-04T13:35:09.919Z</time></trkpt><trkpt lat="43.1240528" lon="11.599223"><ele>370.3333333333333</ele><time>2026-04-04T13:35:10.936Z</time></trkpt><trkpt lat="43.1240501" lon="11.5991076"><ele>370.16666666666663</ele><time>2026-04-04T13:35:11.933Z</time></trkpt><trkpt lat="43.1240673" lon="11.5989818"><ele>370.0</ele><time>2026-04-04T13:35:12.922Z</time></trkpt><trkpt lat="43.1240987" lon="11.598856"><ele>369.6</ele><time>2026-04-04T13:35:13.926Z</time></trkpt><trkpt lat="43.1241452" lon="11.5987351"><ele>369.2</ele><time>2026-04-04T13:35:14.927Z</time></trkpt><trkpt lat="43.1241962" lon="11.5986142"><ele>368.79999999999995</ele><time>2026-04-04T13:35:15.926Z</time></trkpt><trkpt lat="43.1242501" lon="11.5984718"><ele>368.4</ele><time>2026-04-04T13:35:16.914Z</time></trkpt><trkpt lat="43.1242967" lon="11.5983266"><ele>368.0</ele><time>2026-04-04T13:35:17.931Z</time></trkpt><trkpt lat="43.1243335" lon="11.5981888"><ele>368.0</ele><time>2026-04-04T13:35:18.92Z</time></trkpt><trkpt lat="43.1243573" lon="11.5980478"><ele>368.0</ele><time>2026-04-04T13:35:19.924Z</time></trkpt><trkpt lat="43.124372" lon="11.5978998"><ele>368.0</ele><time>2026-04-04T13:35:20.922Z</time></trkpt><trkpt lat="43.1243822" lon="11.5977466"><ele>368.0</ele><time>2026-04-04T13:35:21.921Z</time></trkpt><trkpt lat="43.1243871" lon="11.5975738"><ele>367.5</ele><time>2026-04-04T13:35:22.92Z</time></trkpt><trkpt lat="43.1243933" lon="11.5973996"><ele>367.0</ele><time>2026-04-04T13:35:23.918Z</time></trkpt><trkpt lat="43.1244021" lon="11.5972089"><ele>366.5</ele><time>2026-04-04T13:35:24.916Z</time></trkpt><trkpt lat="43.1244133" lon="11.597014"><ele>366.0</ele><time>2026-04-04T13:35:25.916Z</time></trkpt><trkpt lat="43.124424" lon="11.5968017"><ele>363.6666666666667</ele><time>2026-04-04T13:35:26.916Z</time></trkpt><trkpt lat="43.1244327" lon="11.5965836"><ele>361.33333333333337</ele><time>2026-04-04T13:35:27.929Z</time></trkpt><trkpt lat="43.1244449" lon="11.5963786"><ele>359.0</ele><time>2026-04-04T13:35:28.926Z</time></trkpt><trkpt lat="43.1244641" lon="11.5961778"><ele>359.0</ele><time>2026-04-04T13:35:29.934Z</time></trkpt><trkpt lat="43.124486" lon="11.5959997"><ele>359.0</ele><time>2026-04-04T13:35:30.923Z</time></trkpt><trkpt lat="43.1244992" lon="11.5958374"><ele>359.0</ele><time>2026-04-04T13:35:31.92Z</time></trkpt><trkpt lat="43.1245025" lon="11.5956899"><ele>359.0</ele><time>2026-04-04T13:35:32.925Z</time></trkpt><trkpt lat="43.1244956" lon="11.5955483"><ele>359.0</ele><time>2026-04-04T13:35:33.935Z</time></trkpt><trkpt lat="43.1244806" lon="11.5954095"><ele>359.0</ele><time>2026-04-04T13:35:34.912Z</time></trkpt><trkpt lat="43.1244596" lon="11.5952757"><ele>359.0</ele><time>2026-04-04T13:35:35.914Z</time></trkpt><trkpt lat="43.1244322" lon="11.5951322"><ele>359.0</ele><time>2026-04-04T13:35:36.923Z</time></trkpt><trkpt lat="43.1243987" lon="11.5949856"><ele>359.0</ele><time>2026-04-04T13:35:37.915Z</time></trkpt><trkpt lat="43.1243578" lon="11.5948437"><ele>360.0</ele><time>2026-04-04T13:35:38.922Z</time></trkpt><trkpt lat="43.1243161" lon="11.5947113"><ele>361.0</ele><time>2026-04-04T13:35:39.922Z</time></trkpt><trkpt lat="43.1242801" lon="11.5945873"><ele>362.0</ele><time>2026-04-04T13:35:40.923Z</time></trkpt><trkpt lat="43.1242441" lon="11.5944785"><ele>363.0</ele><time>2026-04-04T13:35:41.925Z</time></trkpt><trkpt lat="43.1242115" lon="11.5943894"><ele>364.0</ele><time>2026-04-04T13:35:42.926Z</time></trkpt><trkpt lat="43.1241634" lon="11.5942594"><ele>364.4</ele><time>2026-04-04T13:35:44.933Z</time></trkpt><trkpt lat="43.12413" lon="11.59412"><ele>364.79999999999995</ele><time>2026-04-04T13:35:46.931Z</time></trkpt><trkpt lat="43.1241248" lon="11.5939587"><ele>365.20000000000005</ele><time>2026-04-04T13:35:48.926Z</time></trkpt><trkpt lat="43.1241305" lon="11.5938103"><ele>365.6</ele><time>2026-04-04T13:35:50.929Z</time></trkpt><trkpt lat="43.1241376" lon="11.5936631"><ele>366.0</ele><time>2026-04-04T13:35:52.914Z</time></trkpt><trkpt lat="43.1241472" lon="11.5935036"><ele>366.5</ele><time>2026-04-04T13:35:54.926Z</time></trkpt><trkpt lat="43.1241566" lon="11.5933804"><ele>367.0</ele><time>2026-04-04T13:35:56.925Z</time></trkpt><trkpt lat="43.1241742" lon="11.5932891"><ele>367.5</ele><time>2026-04-04T13:35:58.925Z</time></trkpt><trkpt lat="43.1242437" lon="11.5932113"><ele>368.0</ele><time>2026-04-04T13:36:02.916Z</time></trkpt><trkpt lat="43.1243569" lon="11.5931706"><ele>368.5</ele><time>2026-04-04T13:36:04.919Z</time></trkpt><trkpt lat="43.1244335" lon="11.5931399"><ele>369.0</ele><time>2026-04-04T13:36:05.919Z</time></trkpt><trkpt lat="43.1245139" lon="11.5931006"><ele>369.0</ele><time>2026-04-04T13:36:06.916Z</time></trkpt><trkpt lat="43.1245935" lon="11.593052"><ele>369.0</ele><time>2026-04-04T13:36:07.916Z</time></trkpt><trkpt lat="43.1246821" lon="11.5929969"><ele>369.0</ele><time>2026-04-04T13:36:08.916Z</time></trkpt><trkpt lat="43.1247691" lon="11.5929457"><ele>369.0</ele><time>2026-04-04T13:36:09.923Z</time></trkpt><trkpt lat="43.1248576" lon="11.5928908"><ele>369.0</ele><time>2026-04-04T13:36:10.91Z</time></trkpt><trkpt lat="43.1249498" lon="11.5928353"><ele>369.8333333333333</ele><time>2026-04-04T13:36:11.916Z</time></trkpt><trkpt lat="43.1250546" lon="11.5927833"><ele>370.6666666666667</ele><time>2026-04-04T13:36:12.918Z</time></trkpt><trkpt lat="43.1251482" lon="11.5927385"><ele>371.5</ele><time>2026-04-04T13:36:13.908Z</time></trkpt><trkpt lat="43.1252285" lon="11.5926877"><ele>372.33333333333337</ele><time>2026-04-04T13:36:14.918Z</time></trkpt><trkpt lat="43.125299" lon="11.5926571"><ele>373.1666666666667</ele><time>2026-04-04T13:36:15.92Z</time></trkpt><trkpt lat="43.1253621" lon="11.5926238"><ele>374.0</ele><time>2026-04-04T13:36:16.914Z</time></trkpt><trkpt lat="43.1254232" lon="11.5926008"><ele>374.0</ele><time>2026-04-04T13:36:17.916Z</time></trkpt><trkpt lat="43.1255403" lon="11.5925552"><ele>374.0</ele><time>2026-04-04T13:36:19.916Z</time></trkpt><trkpt lat="43.1256617" lon="11.5925213"><ele>374.0</ele><time>2026-04-04T13:36:21.924Z</time></trkpt><trkpt lat="43.125726" lon="11.5925058"><ele>374.0</ele><time>2026-04-04T13:36:22.917Z</time></trkpt><trkpt lat="43.1258008" lon="11.5924913"><ele>374.0</ele><time>2026-04-04T13:36:23.911Z</time></trkpt><trkpt lat="43.1258697" lon="11.5924731"><ele>372.0</ele><time>2026-04-04T13:36:24.921Z</time></trkpt><trkpt lat="43.1259396" lon="11.5924445"><ele>370.0</ele><time>2026-04-04T13:36:25.914Z</time></trkpt><trkpt lat="43.1260076" lon="11.5923912"><ele>368.0</ele><time>2026-04-04T13:36:26.918Z</time></trkpt><trkpt lat="43.1260583" lon="11.5923096"><ele>366.0</ele><time>2026-04-04T13:36:27.923Z</time></trkpt><trkpt lat="43.1261115" lon="11.5922069"><ele>364.0</ele><time>2026-04-04T13:36:28.918Z</time></trkpt><trkpt lat="43.1261678" lon="11.5921046"><ele>362.0</ele><time>2026-04-04T13:36:29.922Z</time></trkpt><trkpt lat="43.1262269" lon="11.5919935"><ele>362.0</ele><time>2026-04-04T13:36:30.911Z</time></trkpt><trkpt lat="43.1262834" lon="11.5918786"><ele>362.0</ele><time>2026-04-04T13:36:31.913Z</time></trkpt><trkpt lat="43.1263324" lon="11.5917598"><ele>362.0</ele><time>2026-04-04T13:36:32.924Z</time></trkpt><trkpt lat="43.1263796" lon="11.5916464"><ele>362.0</ele><time>2026-04-04T13:36:33.913Z</time></trkpt><trkpt lat="43.1264099" lon="11.5915294"><ele>362.0</ele><time>2026-04-04T13:36:34.917Z</time></trkpt><trkpt lat="43.1264446" lon="11.5914262"><ele>362.0</ele><time>2026-04-04T13:36:35.919Z</time></trkpt><trkpt lat="43.1264739" lon="11.5913329"><ele>362.0</ele><time>2026-04-04T13:36:36.914Z</time></trkpt><trkpt lat="43.1264862" lon="11.5912474"><ele>362.0</ele><time>2026-04-04T13:36:37.92Z</time></trkpt><trkpt lat="43.1264716" lon="11.5910732"><ele>362.0</ele><time>2026-04-04T13:36:39.914Z</time></trkpt><trkpt lat="43.1264511" lon="11.5909696"><ele>362.0</ele><time>2026-04-04T13:36:40.921Z</time></trkpt><trkpt lat="43.1264208" lon="11.5908641"><ele>362.0</ele><time>2026-04-04T13:36:41.921Z</time></trkpt><trkpt lat="43.1263892" lon="11.5907623"><ele>360.1666666666667</ele><time>2026-04-04T13:36:42.926Z</time></trkpt><trkpt lat="43.1263645" lon="11.5906652"><ele>358.33333333333337</ele><time>2026-04-04T13:36:43.925Z</time></trkpt><trkpt lat="43.1263399" lon="11.5905737"><ele>356.5</ele><time>2026-04-04T13:36:44.926Z</time></trkpt><trkpt lat="43.1263282" lon="11.5904663"><ele>354.6666666666667</ele><time>2026-04-04T13:36:45.915Z</time></trkpt><trkpt lat="43.1263255" lon="11.5903531"><ele>352.8333333333333</ele><time>2026-04-04T13:36:46.919Z</time></trkpt><trkpt lat="43.1263343" lon="11.5902524"><ele>351.0</ele><time>2026-04-04T13:36:47.918Z</time></trkpt><trkpt lat="43.12636" lon="11.5901479"><ele>350.0</ele><time>2026-04-04T13:36:48.916Z</time></trkpt><trkpt lat="43.1263986" lon="11.5900551"><ele>349.0</ele><time>2026-04-04T13:36:49.931Z</time></trkpt><trkpt lat="43.1264522" lon="11.5899691"><ele>348.0</ele><time>2026-04-04T13:36:50.909Z</time></trkpt><trkpt lat="43.1265024" lon="11.5898803"><ele>347.0</ele><time>2026-04-04T13:36:51.919Z</time></trkpt><trkpt lat="43.1265526" lon="11.5897891"><ele>346.0</ele><time>2026-04-04T13:36:52.906Z</time></trkpt><trkpt lat="43.1266126" lon="11.589692"><ele>345.0</ele><time>2026-04-04T13:36:53.918Z</time></trkpt><trkpt lat="43.1266931" lon="11.5895739"><ele>343.25</ele><time>2026-04-04T13:36:54.917Z</time></trkpt><trkpt lat="43.126777" lon="11.5894585"><ele>341.5</ele><time>2026-04-04T13:36:55.914Z</time></trkpt><trkpt lat="43.1268635" lon="11.5893329"><ele>339.75</ele><time>2026-04-04T13:36:56.92Z</time></trkpt><trkpt lat="43.1269424" lon="11.5892078"><ele>338.0</ele><time>2026-04-04T13:36:57.919Z</time></trkpt><trkpt lat="43.1270324" lon="11.5890846"><ele>338.0</ele><time>2026-04-04T13:36:58.922Z</time></trkpt><trkpt lat="43.127119" lon="11.5889587"><ele>338.0</ele><time>2026-04-04T13:36:59.915Z</time></trkpt><trkpt lat="43.1272128" lon="11.5888393"><ele>338.0</ele><time>2026-04-04T13:37:00.921Z</time></trkpt><trkpt lat="43.1273014" lon="11.5887175"><ele>338.0</ele><time>2026-04-04T13:37:01.923Z</time></trkpt><trkpt lat="43.1273891" lon="11.5886017"><ele>337.59999999999997</ele><time>2026-04-04T13:37:02.92Z</time></trkpt><trkpt lat="43.1274728" lon="11.5884851"><ele>337.2</ele><time>2026-04-04T13:37:03.93Z</time></trkpt><trkpt lat="43.1275485" lon="11.5883835"><ele>336.8</ele><time>2026-04-04T13:37:04.932Z</time></trkpt><trkpt lat="43.1276189" lon="11.5882877"><ele>336.4</ele><time>2026-04-04T13:37:05.926Z</time></trkpt><trkpt lat="43.1276779" lon="11.5881972"><ele>336.0</ele><time>2026-04-04T13:37:06.921Z</time></trkpt><trkpt lat="43.1277423" lon="11.5881028"><ele>336.0</ele><time>2026-04-04T13:37:07.923Z</time></trkpt><trkpt lat="43.1278007" lon="11.5880049"><ele>336.0</ele><time>2026-04-04T13:37:08.924Z</time></trkpt><trkpt lat="43.1278527" lon="11.587892"><ele>336.0</ele><time>2026-04-04T13:37:09.922Z</time></trkpt><trkpt lat="43.1278956" lon="11.5877599"><ele>336.0</ele><time>2026-04-04T13:37:10.927Z</time></trkpt><trkpt lat="43.1279266" lon="11.5876169"><ele>336.0</ele><time>2026-04-04T13:37:11.922Z</time></trkpt><trkpt lat="43.1279583" lon="11.5874561"><ele>335.5</ele><time>2026-04-04T13:37:12.922Z</time></trkpt><trkpt lat="43.1279785" lon="11.5872761"><ele>335.0</ele><time>2026-04-04T13:37:13.926Z</time></trkpt><trkpt lat="43.1280056" lon="11.5870915"><ele>334.5</ele><time>2026-04-04T13:37:14.93Z</time></trkpt><trkpt lat="43.1280357" lon="11.5869056"><ele>334.0</ele><time>2026-04-04T13:37:15.931Z</time></trkpt><trkpt lat="43.1280681" lon="11.5867339"><ele>333.25</ele><time>2026-04-04T13:37:16.926Z</time></trkpt><trkpt lat="43.1280978" lon="11.586571"><ele>332.5</ele><time>2026-04-04T13:37:17.923Z</time></trkpt><trkpt lat="43.1281369" lon="11.586413"><ele>331.75</ele><time>2026-04-04T13:37:18.914Z</time></trkpt><trkpt lat="43.1281786" lon="11.5862587"><ele>331.0</ele><time>2026-04-04T13:37:19.922Z</time></trkpt><trkpt lat="43.1282102" lon="11.5861073"><ele>329.6</ele><time>2026-04-04T13:37:20.923Z</time></trkpt><trkpt lat="43.1282361" lon="11.5859661"><ele>328.20000000000005</ele><time>2026-04-04T13:37:21.919Z</time></trkpt><trkpt lat="43.128253" lon="11.5858178"><ele>326.79999999999995</ele><time>2026-04-04T13:37:22.921Z</time></trkpt><trkpt lat="43.1282644" lon="11.5856692"><ele>325.4</ele><time>2026-04-04T13:37:23.918Z</time></trkpt><trkpt lat="43.1282655" lon="11.5855228"><ele>324.0</ele><time>2026-04-04T13:37:24.926Z</time></trkpt><trkpt lat="43.1282803" lon="11.5853704"><ele>323.2</ele><time>2026-04-04T13:37:25.92Z</time></trkpt><trkpt lat="43.1282908" lon="11.5852194"><ele>322.4</ele><time>2026-04-04T13:37:26.93Z</time></trkpt><trkpt lat="43.1283017" lon="11.5850746"><ele>321.6</ele><time>2026-04-04T13:37:27.921Z</time></trkpt><trkpt lat="43.1283143" lon="11.5849363"><ele>320.8</ele><time>2026-04-04T13:37:28.919Z</time></trkpt><trkpt lat="43.1283275" lon="11.5847943"><ele>320.0</ele><time>2026-04-04T13:37:29.921Z</time></trkpt><trkpt lat="43.1283426" lon="11.5846461"><ele>318.4</ele><time>2026-04-04T13:37:30.923Z</time></trkpt><trkpt lat="43.1283634" lon="11.5845042"><ele>316.8</ele><time>2026-04-04T13:37:31.925Z</time></trkpt><trkpt lat="43.1284042" lon="11.5843658"><ele>315.2</ele><time>2026-04-04T13:37:32.929Z</time></trkpt><trkpt lat="43.1284537" lon="11.584226"><ele>313.6</ele><time>2026-04-04T13:37:33.934Z</time></trkpt><trkpt lat="43.1285142" lon="11.5841002"><ele>312.0</ele><time>2026-04-04T13:37:34.915Z</time></trkpt><trkpt lat="43.1285838" lon="11.583978"><ele>312.0</ele><time>2026-04-04T13:37:35.926Z</time></trkpt><trkpt lat="43.1286659" lon="11.5838691"><ele>312.0</ele><time>2026-04-04T13:37:36.925Z</time></trkpt><trkpt lat="43.1287592" lon="11.5837836"><ele>312.0</ele><time>2026-04-04T13:37:37.92Z</time></trkpt><trkpt lat="43.1288675" lon="11.5837432"><ele>312.0</ele><time>2026-04-04T13:37:38.919Z</time></trkpt><trkpt lat="43.1289585" lon="11.5837053"><ele>312.0</ele><time>2026-04-04T13:37:39.923Z</time></trkpt><trkpt lat="43.1290357" lon="11.5836434"><ele>308.4</ele><time>2026-04-04T13:37:40.925Z</time></trkpt><trkpt lat="43.1291033" lon="11.5835391"><ele>304.79999999999995</ele><time>2026-04-04T13:37:41.92Z</time></trkpt><trkpt lat="43.1291553" lon="11.5833961"><ele>301.2</ele><time>2026-04-04T13:37:42.921Z</time></trkpt><trkpt lat="43.1292013" lon="11.5832602"><ele>297.59999999999997</ele><time>2026-04-04T13:37:43.921Z</time></trkpt><trkpt lat="43.1292459" lon="11.5831108"><ele>294.0</ele><time>2026-04-04T13:37:44.921Z</time></trkpt><trkpt lat="43.1292841" lon="11.5829564"><ele>291.25</ele><time>2026-04-04T13:37:45.923Z</time></trkpt><trkpt lat="43.1293203" lon="11.5827953"><ele>288.5</ele><time>2026-04-04T13:37:46.926Z</time></trkpt><trkpt lat="43.1293414" lon="11.5826326"><ele>285.75</ele><time>2026-04-04T13:37:47.94Z</time></trkpt><trkpt lat="43.1293638" lon="11.5824604"><ele>283.0</ele><time>2026-04-04T13:37:48.923Z</time></trkpt><trkpt lat="43.1293843" lon="11.5822802"><ele>283.0</ele><time>2026-04-04T13:37:49.925Z</time></trkpt><trkpt lat="43.1294105" lon="11.5820897"><ele>283.0</ele><time>2026-04-04T13:37:50.924Z</time></trkpt><trkpt lat="43.1294382" lon="11.5818861"><ele>283.0</ele><time>2026-04-04T13:37:51.919Z</time></trkpt><trkpt lat="43.1294673" lon="11.581678"><ele>283.0</ele><time>2026-04-04T13:37:52.923Z</time></trkpt><trkpt lat="43.1294931" lon="11.5814628"><ele>280.0</ele><time>2026-04-04T13:37:53.923Z</time></trkpt><trkpt lat="43.1295199" lon="11.5812504"><ele>277.0</ele><time>2026-04-04T13:37:54.926Z</time></trkpt><trkpt lat="43.1295491" lon="11.5810496"><ele>274.0</ele><time>2026-04-04T13:37:55.922Z</time></trkpt><trkpt lat="43.1295788" lon="11.5808627"><ele>271.0</ele><time>2026-04-04T13:37:56.92Z</time></trkpt><trkpt lat="43.1295978" lon="11.5807054"><ele>269.6</ele><time>2026-04-04T13:37:57.926Z</time></trkpt><trkpt lat="43.129619" lon="11.5805512"><ele>268.20000000000005</ele><time>2026-04-04T13:37:58.918Z</time></trkpt><trkpt lat="43.1296407" lon="11.5804053"><ele>266.79999999999995</ele><time>2026-04-04T13:37:59.919Z</time></trkpt><trkpt lat="43.1296616" lon="11.5802617"><ele>265.4</ele><time>2026-04-04T13:38:00.926Z</time></trkpt><trkpt lat="43.1296843" lon="11.5801183"><ele>264.0</ele><time>2026-04-04T13:38:01.926Z</time></trkpt><trkpt lat="43.1297098" lon="11.5799715"><ele>263.5</ele><time>2026-04-04T13:38:02.923Z</time></trkpt><trkpt lat="43.1297576" lon="11.579812"><ele>263.0</ele><time>2026-04-04T13:38:03.924Z</time></trkpt><trkpt lat="43.1298237" lon="11.5796474"><ele>262.5</ele><time>2026-04-04T13:38:04.923Z</time></trkpt><trkpt lat="43.1298912" lon="11.579487"><ele>262.0</ele><time>2026-04-04T13:38:05.925Z</time></trkpt><trkpt lat="43.1299619" lon="11.5793434"><ele>262.0</ele><time>2026-04-04T13:38:06.927Z</time></trkpt><trkpt lat="43.1300216" lon="11.5791971"><ele>262.0</ele><time>2026-04-04T13:38:07.927Z</time></trkpt><trkpt lat="43.130085" lon="11.5790536"><ele>262.0</ele><time>2026-04-04T13:38:08.915Z</time></trkpt><trkpt lat="43.1301406" lon="11.5789098"><ele>262.0</ele><time>2026-04-04T13:38:09.923Z</time></trkpt><trkpt lat="43.1301935" lon="11.5787604"><ele>261.6</ele><time>2026-04-04T13:38:10.92Z</time></trkpt><trkpt lat="43.1302314" lon="11.5786115"><ele>261.2</ele><time>2026-04-04T13:38:11.927Z</time></trkpt><trkpt lat="43.1302547" lon="11.5784744"><ele>260.8</ele><time>2026-04-04T13:38:12.922Z</time></trkpt><trkpt lat="43.1302616" lon="11.5783461"><ele>260.4</ele><time>2026-04-04T13:38:13.924Z</time></trkpt><trkpt lat="43.1302505" lon="11.5782202"><ele>260.0</ele><time>2026-04-04T13:38:14.924Z</time></trkpt><trkpt lat="43.1302331" lon="11.578095"><ele>260.0</ele><time>2026-04-04T13:38:15.918Z</time></trkpt><trkpt lat="43.1301979" lon="11.577969"><ele>260.0</ele><time>2026-04-04T13:38:16.921Z</time></trkpt><trkpt lat="43.1301438" lon="11.5778462"><ele>260.0</ele><time>2026-04-04T13:38:17.923Z</time></trkpt><trkpt lat="43.1300805" lon="11.5777251"><ele>260.0</ele><time>2026-04-04T13:38:18.925Z</time></trkpt><trkpt lat="43.1300003" lon="11.5775981"><ele>260.0</ele><time>2026-04-04T13:38:19.932Z</time></trkpt><trkpt lat="43.12992" lon="11.577481"><ele>258.6</ele><time>2026-04-04T13:38:20.919Z</time></trkpt><trkpt lat="43.1298293" lon="11.5773909"><ele>257.2</ele><time>2026-04-04T13:38:21.92Z</time></trkpt><trkpt lat="43.1297272" lon="11.5773379"><ele>255.8</ele><time>2026-04-04T13:38:22.93Z</time></trkpt><trkpt lat="43.1296304" lon="11.5773124"><ele>254.4</ele><time>2026-04-04T13:38:23.925Z</time></trkpt><trkpt lat="43.129532" lon="11.5773053"><ele>253.0</ele><time>2026-04-04T13:38:24.935Z</time></trkpt><trkpt lat="43.1294458" lon="11.5773012"><ele>252.99999999999997</ele><time>2026-04-04T13:38:25.925Z</time></trkpt><trkpt lat="43.1293655" lon="11.5772725"><ele>253.0</ele><time>2026-04-04T13:38:26.925Z</time></trkpt><trkpt lat="43.1292961" lon="11.5772253"><ele>253.0</ele><time>2026-04-04T13:38:27.919Z</time></trkpt><trkpt lat="43.129226" lon="11.5771586"><ele>253.0</ele><time>2026-04-04T13:38:28.922Z</time></trkpt><trkpt lat="43.1291712" lon="11.5770733"><ele>252.99999999999997</ele><time>2026-04-04T13:38:29.925Z</time></trkpt><trkpt lat="43.1291379" lon="11.5769823"><ele>253.0</ele><time>2026-04-04T13:38:30.937Z</time></trkpt><trkpt lat="43.1291235" lon="11.5768814"><ele>253.4</ele><time>2026-04-04T13:38:31.922Z</time></trkpt><trkpt lat="43.1291178" lon="11.5767658"><ele>253.8</ele><time>2026-04-04T13:38:32.919Z</time></trkpt><trkpt lat="43.1291188" lon="11.5766357"><ele>254.2</ele><time>2026-04-04T13:38:33.926Z</time></trkpt><trkpt lat="43.1291231" lon="11.5764979"><ele>254.6</ele><time>2026-04-04T13:38:34.922Z</time></trkpt><trkpt lat="43.1291238" lon="11.5763443"><ele>255.0</ele><time>2026-04-04T13:38:35.924Z</time></trkpt><trkpt lat="43.1291341" lon="11.5761799"><ele>255.75</ele><time>2026-04-04T13:38:36.925Z</time></trkpt><trkpt lat="43.129144" lon="11.5760132"><ele>256.5</ele><time>2026-04-04T13:38:37.921Z</time></trkpt><trkpt lat="43.1291557" lon="11.5758331"><ele>257.25</ele><time>2026-04-04T13:38:38.924Z</time></trkpt><trkpt lat="43.1291642" lon="11.5756507"><ele>258.0</ele><time>2026-04-04T13:38:39.924Z</time></trkpt><trkpt lat="43.1291751" lon="11.5754939"><ele>258.4</ele><time>2026-04-04T13:38:40.915Z</time></trkpt><trkpt lat="43.1291892" lon="11.5753467"><ele>258.8</ele><time>2026-04-04T13:38:41.919Z</time></trkpt><trkpt lat="43.1292024" lon="11.5752187"><ele>259.2</ele><time>2026-04-04T13:38:42.92Z</time></trkpt><trkpt lat="43.1292254" lon="11.5751063"><ele>259.6</ele><time>2026-04-04T13:38:43.921Z</time></trkpt><trkpt lat="43.1292748" lon="11.5750086"><ele>260.0</ele><time>2026-04-04T13:38:44.927Z</time></trkpt><trkpt lat="43.1293513" lon="11.5749354"><ele>260.0</ele><time>2026-04-04T13:38:45.923Z</time></trkpt><trkpt lat="43.1294302" lon="11.5749023"><ele>260.0</ele><time>2026-04-04T13:38:46.934Z</time></trkpt><trkpt lat="43.129506" lon="11.574878"><ele>260.0</ele><time>2026-04-04T13:38:47.914Z</time></trkpt><trkpt lat="43.1295798" lon="11.574857"><ele>260.0</ele><time>2026-04-04T13:38:48.933Z</time></trkpt><trkpt lat="43.1296651" lon="11.5748443"><ele>260.0</ele><time>2026-04-04T13:38:49.932Z</time></trkpt><trkpt lat="43.1297682" lon="11.5748541"><ele>260.0</ele><time>2026-04-04T13:38:50.927Z</time></trkpt><trkpt lat="43.1298811" lon="11.5748763"><ele>260.0</ele><time>2026-04-04T13:38:51.923Z</time></trkpt><trkpt lat="43.1299991" lon="11.5748995"><ele>260.0</ele><time>2026-04-04T13:38:52.922Z</time></trkpt><trkpt lat="43.1301292" lon="11.5749316"><ele>260.0</ele><time>2026-04-04T13:38:53.925Z</time></trkpt><trkpt lat="43.130263" lon="11.5749735"><ele>260.0</ele><time>2026-04-04T13:38:54.918Z</time></trkpt><trkpt lat="43.1304074" lon="11.5750075"><ele>260.0</ele><time>2026-04-04T13:38:55.926Z</time></trkpt><trkpt lat="43.1305548" lon="11.5750413"><ele>260.0</ele><time>2026-04-04T13:38:56.922Z</time></trkpt><trkpt lat="43.1307041" lon="11.5750868"><ele>260.0</ele><time>2026-04-04T13:38:57.925Z</time></trkpt><trkpt lat="43.1308583" lon="11.5751297"><ele>260.33333333333337</ele><time>2026-04-04T13:38:58.929Z</time></trkpt><trkpt lat="43.1310196" lon="11.5751762"><ele>260.6666666666667</ele><time>2026-04-04T13:38:59.927Z</time></trkpt><trkpt lat="43.1311844" lon="11.5752216"><ele>261.0</ele><time>2026-04-04T13:39:00.927Z</time></trkpt><trkpt lat="43.1313507" lon="11.57527"><ele>261.0</ele><time>2026-04-04T13:39:01.923Z</time></trkpt><trkpt lat="43.1315239" lon="11.5753204"><ele>261.0</ele><time>2026-04-04T13:39:02.921Z</time></trkpt><trkpt lat="43.1316971" lon="11.5753679"><ele>261.0</ele><time>2026-04-04T13:39:03.929Z</time></trkpt><trkpt lat="43.1318709" lon="11.5754149"><ele>261.6666666666667</ele><time>2026-04-04T13:39:04.918Z</time></trkpt><trkpt lat="43.1320457" lon="11.5754612"><ele>262.33333333333337</ele><time>2026-04-04T13:39:05.921Z</time></trkpt><trkpt lat="43.1322279" lon="11.575512"><ele>263.0</ele><time>2026-04-04T13:39:06.925Z</time></trkpt><trkpt lat="43.1324101" lon="11.5755623"><ele>263.6666666666667</ele><time>2026-04-04T13:39:07.916Z</time></trkpt><trkpt lat="43.1325923" lon="11.5756261"><ele>264.3333333333333</ele><time>2026-04-04T13:39:08.92Z</time></trkpt><trkpt lat="43.1327777" lon="11.5756904"><ele>265.0</ele><time>2026-04-04T13:39:09.924Z</time></trkpt><trkpt lat="43.1329634" lon="11.5757523"><ele>265.0</ele><time>2026-04-04T13:39:10.928Z</time></trkpt><trkpt lat="43.133149" lon="11.575812"><ele>265.0</ele><time>2026-04-04T13:39:11.924Z</time></trkpt><trkpt lat="43.1333384" lon="11.5758689"><ele>265.0</ele><time>2026-04-04T13:39:12.928Z</time></trkpt><trkpt lat="43.1335294" lon="11.5759315"><ele>265.0</ele><time>2026-04-04T13:39:13.93Z</time></trkpt><trkpt lat="43.1337212" lon="11.575999"><ele>265.0</ele><time>2026-04-04T13:39:14.929Z</time></trkpt><trkpt lat="43.1339137" lon="11.5760656"><ele>265.0</ele><time>2026-04-04T13:39:15.93Z</time></trkpt><trkpt lat="43.1341133" lon="11.5761245"><ele>263.66666666666663</ele><time>2026-04-04T13:39:16.923Z</time></trkpt><trkpt lat="43.1343077" lon="11.5761908"><ele>262.3333333333333</ele><time>2026-04-04T13:39:17.929Z</time></trkpt><trkpt lat="43.1345027" lon="11.5762624"><ele>261.0</ele><time>2026-04-04T13:39:18.918Z</time></trkpt><trkpt lat="43.1347021" lon="11.5763362"><ele>261.6666666666667</ele><time>2026-04-04T13:39:19.925Z</time></trkpt><trkpt lat="43.1348985" lon="11.5764243"><ele>262.33333333333337</ele><time>2026-04-04T13:39:20.914Z</time></trkpt><trkpt lat="43.1350807" lon="11.5765407"><ele>263.0</ele><time>2026-04-04T13:39:21.924Z</time></trkpt><trkpt lat="43.1352613" lon="11.5766875"><ele>263.0</ele><time>2026-04-04T13:39:22.922Z</time></trkpt><trkpt lat="43.1354376" lon="11.5768391"><ele>263.0</ele><time>2026-04-04T13:39:23.922Z</time></trkpt><trkpt lat="43.1356104" lon="11.576995"><ele>263.0</ele><time>2026-04-04T13:39:24.917Z</time></trkpt><trkpt lat="43.1357875" lon="11.5771539"><ele>262.6666666666667</ele><time>2026-04-04T13:39:25.922Z</time></trkpt><trkpt lat="43.1359693" lon="11.5773101"><ele>262.3333333333333</ele><time>2026-04-04T13:39:26.923Z</time></trkpt><trkpt lat="43.1361448" lon="11.5774654"><ele>262.0</ele><time>2026-04-04T13:39:27.937Z</time></trkpt><trkpt lat="43.1363153" lon="11.5776177"><ele>262.0</ele><time>2026-04-04T13:39:28.926Z</time></trkpt><trkpt lat="43.1364731" lon="11.5777606"><ele>262.0</ele><time>2026-04-04T13:39:29.923Z</time></trkpt><trkpt lat="43.1366168" lon="11.5778932"><ele>262.0</ele><time>2026-04-04T13:39:30.919Z</time></trkpt><trkpt lat="43.1367549" lon="11.5780166"><ele>262.66666666666663</ele><time>2026-04-04T13:39:31.925Z</time></trkpt><trkpt lat="43.1368864" lon="11.5781435"><ele>263.3333333333333</ele><time>2026-04-04T13:39:32.925Z</time></trkpt><trkpt lat="43.1370133" lon="11.5782599"><ele>264.0</ele><time>2026-04-04T13:39:33.924Z</time></trkpt><trkpt lat="43.1371371" lon="11.5783698"><ele>264.0</ele><time>2026-04-04T13:39:34.92Z</time></trkpt><trkpt lat="43.137249" lon="11.5784673"><ele>264.0</ele><time>2026-04-04T13:39:35.918Z</time></trkpt><trkpt lat="43.1373529" lon="11.5785503"><ele>264.0</ele><time>2026-04-04T13:39:36.917Z</time></trkpt><trkpt lat="43.1374381" lon="11.5786195"><ele>264.0</ele><time>2026-04-04T13:39:37.915Z</time></trkpt><trkpt lat="43.1375108" lon="11.5786754"><ele>264.0</ele><time>2026-04-04T13:39:38.92Z</time></trkpt><trkpt lat="43.1375786" lon="11.5786872"><ele>264.6666666666667</ele><time>2026-04-04T13:39:39.923Z</time></trkpt><trkpt lat="43.1376396" lon="11.5786649"><ele>265.3333333333333</ele><time>2026-04-04T13:39:40.938Z</time></trkpt><trkpt lat="43.1376984" lon="11.5786128"><ele>266.0</ele><time>2026-04-04T13:39:41.92Z</time></trkpt><trkpt lat="43.1377506" lon="11.5785277"><ele>266.66666666666663</ele><time>2026-04-04T13:39:42.921Z</time></trkpt><trkpt lat="43.1378028" lon="11.5784388"><ele>267.3333333333333</ele><time>2026-04-04T13:39:43.916Z</time></trkpt><trkpt lat="43.1378577" lon="11.578344"><ele>268.0</ele><time>2026-04-04T13:39:44.925Z</time></trkpt><trkpt lat="43.137908" lon="11.5782427"><ele>268.0</ele><time>2026-04-04T13:39:45.917Z</time></trkpt><trkpt lat="43.1379653" lon="11.57813"><ele>268.0</ele><time>2026-04-04T13:39:46.923Z</time></trkpt><trkpt lat="43.1380321" lon="11.5780181"><ele>268.0</ele><time>2026-04-04T13:39:47.915Z</time></trkpt><trkpt lat="43.1381017" lon="11.5779025"><ele>268.0</ele><time>2026-04-04T13:39:48.913Z</time></trkpt><trkpt lat="43.1381747" lon="11.5777841"><ele>268.0</ele><time>2026-04-04T13:39:49.915Z</time></trkpt><trkpt lat="43.138251" lon="11.5776524"><ele>269.75</ele><time>2026-04-04T13:39:50.919Z</time></trkpt><trkpt lat="43.1383245" lon="11.5775235"><ele>271.5</ele><time>2026-04-04T13:39:51.916Z</time></trkpt><trkpt lat="43.1384003" lon="11.5774012"><ele>273.25</ele><time>2026-04-04T13:39:52.921Z</time></trkpt><trkpt lat="43.1384769" lon="11.5772749"><ele>275.0</ele><time>2026-04-04T13:39:53.919Z</time></trkpt><trkpt lat="43.138549" lon="11.5771452"><ele>275.0</ele><time>2026-04-04T13:39:54.919Z</time></trkpt><trkpt lat="43.1386241" lon="11.5770222"><ele>275.0</ele><time>2026-04-04T13:39:55.921Z</time></trkpt><trkpt lat="43.1386872" lon="11.5769068"><ele>275.0</ele><time>2026-04-04T13:39:56.918Z</time></trkpt><trkpt lat="43.138723" lon="11.5767853"><ele>275.0</ele><time>2026-04-04T13:39:57.926Z</time></trkpt><trkpt lat="43.1387511" lon="11.5766519"><ele>275.0</ele><time>2026-04-04T13:39:58.921Z</time></trkpt><trkpt lat="43.1387689" lon="11.5765047"><ele>275.75</ele><time>2026-04-04T13:39:59.918Z</time></trkpt><trkpt lat="43.1387786" lon="11.5763502"><ele>276.5</ele><time>2026-04-04T13:40:00.912Z</time></trkpt><trkpt lat="43.1387809" lon="11.576191"><ele>277.25</ele><time>2026-04-04T13:40:01.916Z</time></trkpt><trkpt lat="43.1387842" lon="11.5760294"><ele>278.0</ele><time>2026-04-04T13:40:02.923Z</time></trkpt><trkpt lat="43.1387739" lon="11.5758617"><ele>279.4</ele><time>2026-04-04T13:40:03.915Z</time></trkpt><trkpt lat="43.1387596" lon="11.5757108"><ele>280.8</ele><time>2026-04-04T13:40:04.92Z</time></trkpt><trkpt lat="43.1387367" lon="11.5755639"><ele>282.2</ele><time>2026-04-04T13:40:05.926Z</time></trkpt><trkpt lat="43.1386978" lon="11.5754334"><ele>283.6</ele><time>2026-04-04T13:40:06.915Z</time></trkpt><trkpt lat="43.1386449" lon="11.5753248"><ele>285.0</ele><time>2026-04-04T13:40:07.917Z</time></trkpt><trkpt lat="43.1385711" lon="11.5752166"><ele>288.25</ele><time>2026-04-04T13:40:08.92Z</time></trkpt><trkpt lat="43.1384832" lon="11.5751099"><ele>291.5</ele><time>2026-04-04T13:40:09.908Z</time></trkpt><trkpt lat="43.1383962" lon="11.5750011"><ele>294.75</ele><time>2026-04-04T13:40:10.917Z</time></trkpt><trkpt lat="43.1383019" lon="11.5748893"><ele>298.0</ele><time>2026-04-04T13:40:11.914Z</time></trkpt><trkpt lat="43.1382138" lon="11.5747847"><ele>298.6</ele><time>2026-04-04T13:40:12.921Z</time></trkpt><trkpt lat="43.1381366" lon="11.5746887"><ele>299.20000000000005</ele><time>2026-04-04T13:40:13.924Z</time></trkpt><trkpt lat="43.1380781" lon="11.5745893"><ele>299.8</ele><time>2026-04-04T13:40:14.924Z</time></trkpt><trkpt lat="43.1380359" lon="11.5744744"><ele>300.40000000000003</ele><time>2026-04-04T13:40:15.926Z</time></trkpt><trkpt lat="43.1380119" lon="11.5743465"><ele>301.0</ele><time>2026-04-04T13:40:16.917Z</time></trkpt><trkpt lat="43.138001" lon="11.5742204"><ele>301.0</ele><time>2026-04-04T13:40:17.913Z</time></trkpt><trkpt lat="43.1379981" lon="11.5740844"><ele>301.0</ele><time>2026-04-04T13:40:18.921Z</time></trkpt><trkpt lat="43.1379968" lon="11.5739364"><ele>301.0</ele><time>2026-04-04T13:40:19.917Z</time></trkpt><trkpt lat="43.1379908" lon="11.5737907"><ele>301.0</ele><time>2026-04-04T13:40:20.917Z</time></trkpt><trkpt lat="43.1379882" lon="11.5736405"><ele>301.0</ele><time>2026-04-04T13:40:21.927Z</time></trkpt><trkpt lat="43.1379795" lon="11.5734781"><ele>300.25</ele><time>2026-04-04T13:40:22.918Z</time></trkpt><trkpt lat="43.137973" lon="11.5733032"><ele>299.5</ele><time>2026-04-04T13:40:23.92Z</time></trkpt><trkpt lat="43.1379648" lon="11.5731155"><ele>298.75</ele><time>2026-04-04T13:40:24.924Z</time></trkpt><trkpt lat="43.1379587" lon="11.5729195"><ele>298.0</ele><time>2026-04-04T13:40:25.923Z</time></trkpt><trkpt lat="43.1379496" lon="11.5727231"><ele>297.2</ele><time>2026-04-04T13:40:26.917Z</time></trkpt><trkpt lat="43.1379429" lon="11.5725416"><ele>296.4</ele><time>2026-04-04T13:40:27.913Z</time></trkpt><trkpt lat="43.1379442" lon="11.5723797"><ele>295.59999999999997</ele><time>2026-04-04T13:40:28.922Z</time></trkpt><trkpt lat="43.1379568" lon="11.572237"><ele>294.8</ele><time>2026-04-04T13:40:29.919Z</time></trkpt><trkpt lat="43.1379947" lon="11.5721229"><ele>294.0</ele><time>2026-04-04T13:40:30.923Z</time></trkpt><trkpt lat="43.1380462" lon="11.5720244"><ele>292.4</ele><time>2026-04-04T13:40:31.916Z</time></trkpt><trkpt lat="43.1381194" lon="11.571957"><ele>290.79999999999995</ele><time>2026-04-04T13:40:32.917Z</time></trkpt><trkpt lat="43.1382019" lon="11.5718994"><ele>289.20000000000005</ele><time>2026-04-04T13:40:33.927Z</time></trkpt><trkpt lat="43.1383025" lon="11.5718561"><ele>287.6</ele><time>2026-04-04T13:40:34.914Z</time></trkpt><trkpt lat="43.1384036" lon="11.5718056"><ele>286.0</ele><time>2026-04-04T13:40:35.926Z</time></trkpt><trkpt lat="43.1384945" lon="11.5717453"><ele>288.8</ele><time>2026-04-04T13:40:36.921Z</time></trkpt><trkpt lat="43.1385859" lon="11.5716722"><ele>291.6</ele><time>2026-04-04T13:40:37.921Z</time></trkpt><trkpt lat="43.138658" lon="11.5715529"><ele>294.4</ele><time>2026-04-04T13:40:38.919Z</time></trkpt><trkpt lat="43.1387024" lon="11.5714161"><ele>297.2</ele><time>2026-04-04T13:40:39.912Z</time></trkpt><trkpt lat="43.1387256" lon="11.571269"><ele>300.0</ele><time>2026-04-04T13:40:40.919Z</time></trkpt><trkpt lat="43.1387225" lon="11.5711166"><ele>300.0</ele><time>2026-04-04T13:40:41.923Z</time></trkpt><trkpt lat="43.1387011" lon="11.5709749"><ele>300.0</ele><time>2026-04-04T13:40:42.92Z</time></trkpt><trkpt lat="43.1386518" lon="11.570849"><ele>300.0</ele><time>2026-04-04T13:40:43.916Z</time></trkpt><trkpt lat="43.1385929" lon="11.5707311"><ele>300.0</ele><time>2026-04-04T13:40:44.919Z</time></trkpt><trkpt lat="43.1385332" lon="11.5706174"><ele>300.0</ele><time>2026-04-04T13:40:45.92Z</time></trkpt><trkpt lat="43.1384835" lon="11.5705116"><ele>300.0</ele><time>2026-04-04T13:40:46.917Z</time></trkpt><trkpt lat="43.1384588" lon="11.5703907"><ele>300.0</ele><time>2026-04-04T13:40:47.92Z</time></trkpt><trkpt lat="43.1384589" lon="11.5702624"><ele>300.0</ele><time>2026-04-04T13:40:48.919Z</time></trkpt><trkpt lat="43.138479" lon="11.5701229"><ele>300.0</ele><time>2026-04-04T13:40:49.916Z</time></trkpt><trkpt lat="43.1385041" lon="11.5699787"><ele>300.0</ele><time>2026-04-04T13:40:50.917Z</time></trkpt><trkpt lat="43.1385276" lon="11.5698209"><ele>301.25</ele><time>2026-04-04T13:40:51.913Z</time></trkpt><trkpt lat="43.1385453" lon="11.5696383"><ele>302.5</ele><time>2026-04-04T13:40:52.921Z</time></trkpt><trkpt lat="43.1385482" lon="11.569451"><ele>303.75</ele><time>2026-04-04T13:40:53.918Z</time></trkpt><trkpt lat="43.1385457" lon="11.5692716"><ele>305.0</ele><time>2026-04-04T13:40:54.918Z</time></trkpt><trkpt lat="43.138524" lon="11.5691036"><ele>305.2</ele><time>2026-04-04T13:40:55.92Z</time></trkpt><trkpt lat="43.1384946" lon="11.5689432"><ele>305.4</ele><time>2026-04-04T13:40:56.915Z</time></trkpt><trkpt lat="43.13845" lon="11.5688054"><ele>305.6</ele><time>2026-04-04T13:40:57.925Z</time></trkpt><trkpt lat="43.1383899" lon="11.568688"><ele>305.8</ele><time>2026-04-04T13:40:58.92Z</time></trkpt><trkpt lat="43.1383225" lon="11.5685715"><ele>306.0</ele><time>2026-04-04T13:40:59.92Z</time></trkpt><trkpt lat="43.1382446" lon="11.5684611"><ele>301.2</ele><time>2026-04-04T13:41:00.922Z</time></trkpt><trkpt lat="43.138168" lon="11.5683576"><ele>296.40000000000003</ele><time>2026-04-04T13:41:01.925Z</time></trkpt><trkpt lat="43.1380876" lon="11.568256"><ele>291.6</ele><time>2026-04-04T13:41:02.92Z</time></trkpt><trkpt lat="43.1380177" lon="11.5681541"><ele>286.8</ele><time>2026-04-04T13:41:03.921Z</time></trkpt><trkpt lat="43.1379554" lon="11.5680501"><ele>282.0</ele><time>2026-04-04T13:41:04.915Z</time></trkpt><trkpt lat="43.1379087" lon="11.5679316"><ele>283.4</ele><time>2026-04-04T13:41:05.918Z</time></trkpt><trkpt lat="43.1378824" lon="11.5678054"><ele>284.79999999999995</ele><time>2026-04-04T13:41:06.914Z</time></trkpt><trkpt lat="43.1378748" lon="11.5676701"><ele>286.2</ele><time>2026-04-04T13:41:07.924Z</time></trkpt><trkpt lat="43.1378762" lon="11.5675357"><ele>287.59999999999997</ele><time>2026-04-04T13:41:08.923Z</time></trkpt><trkpt lat="43.1378919" lon="11.5674083"><ele>289.0</ele><time>2026-04-04T13:41:09.925Z</time></trkpt><trkpt lat="43.1379155" lon="11.5672726"><ele>289.0</ele><time>2026-04-04T13:41:10.913Z</time></trkpt><trkpt lat="43.1379372" lon="11.5671335"><ele>289.0</ele><time>2026-04-04T13:41:11.922Z</time></trkpt><trkpt lat="43.1379452" lon="11.5669819"><ele>289.0</ele><time>2026-04-04T13:41:12.912Z</time></trkpt><trkpt lat="43.1379419" lon="11.5668437"><ele>289.0</ele><time>2026-04-04T13:41:13.92Z</time></trkpt><trkpt lat="43.1379351" lon="11.566694"><ele>289.0</ele><time>2026-04-04T13:41:14.916Z</time></trkpt><trkpt lat="43.137919" lon="11.566547"><ele>288.8</ele><time>2026-04-04T13:41:15.913Z</time></trkpt><trkpt lat="43.1379041" lon="11.5663971"><ele>288.59999999999997</ele><time>2026-04-04T13:41:16.925Z</time></trkpt><trkpt lat="43.1378931" lon="11.5662495"><ele>288.4</ele><time>2026-04-04T13:41:17.915Z</time></trkpt><trkpt lat="43.1378818" lon="11.5661031"><ele>288.2</ele><time>2026-04-04T13:41:18.921Z</time></trkpt><trkpt lat="43.1378669" lon="11.5659566"><ele>288.0</ele><time>2026-04-04T13:41:19.921Z</time></trkpt><trkpt lat="43.1378564" lon="11.5658121"><ele>288.0</ele><time>2026-04-04T13:41:20.924Z</time></trkpt><trkpt lat="43.1378466" lon="11.5656686"><ele>288.0</ele><time>2026-04-04T13:41:21.909Z</time></trkpt><trkpt lat="43.1378433" lon="11.5655274"><ele>288.0</ele><time>2026-04-04T13:41:22.915Z</time></trkpt><trkpt lat="43.1378383" lon="11.5653932"><ele>288.0</ele><time>2026-04-04T13:41:23.913Z</time></trkpt><trkpt lat="43.1378291" lon="11.5652633"><ele>288.0</ele><time>2026-04-04T13:41:24.913Z</time></trkpt><trkpt lat="43.1378019" lon="11.565136"><ele>288.0</ele><time>2026-04-04T13:41:25.909Z</time></trkpt><trkpt lat="43.1377585" lon="11.565021"><ele>288.0</ele><time>2026-04-04T13:41:26.929Z</time></trkpt><trkpt lat="43.1377064" lon="11.564915"><ele>288.0</ele><time>2026-04-04T13:41:27.917Z</time></trkpt><trkpt lat="43.137652" lon="11.564805"><ele>288.0</ele><time>2026-04-04T13:41:28.916Z</time></trkpt><trkpt lat="43.1376011" lon="11.5646955"><ele>288.0</ele><time>2026-04-04T13:41:29.915Z</time></trkpt><trkpt lat="43.1375509" lon="11.5645952"><ele>288.8</ele><time>2026-04-04T13:41:30.918Z</time></trkpt><trkpt lat="43.1375034" lon="11.5645018"><ele>289.6</ele><time>2026-04-04T13:41:31.916Z</time></trkpt><trkpt lat="43.1374592" lon="11.5644211"><ele>290.4</ele><time>2026-04-04T13:41:32.92Z</time></trkpt><trkpt lat="43.137365" lon="11.5643282"><ele>291.2</ele><time>2026-04-04T13:41:34.919Z</time></trkpt><trkpt lat="43.1372464" lon="11.5643221"><ele>292.0</ele><time>2026-04-04T13:41:36.918Z</time></trkpt><trkpt lat="43.1371788" lon="11.5643575"><ele>288.16666666666663</ele><time>2026-04-04T13:41:37.923Z</time></trkpt><trkpt lat="43.1371162" lon="11.5644074"><ele>284.3333333333333</ele><time>2026-04-04T13:41:38.921Z</time></trkpt><trkpt lat="43.1370607" lon="11.5644664"><ele>280.5</ele><time>2026-04-04T13:41:39.913Z</time></trkpt><trkpt lat="43.1370139" lon="11.5645452"><ele>276.6666666666667</ele><time>2026-04-04T13:41:40.929Z</time></trkpt><trkpt lat="43.1369778" lon="11.56464"><ele>272.83333333333337</ele><time>2026-04-04T13:41:41.911Z</time></trkpt><trkpt lat="43.1369607" lon="11.5647456"><ele>269.0</ele><time>2026-04-04T13:41:42.921Z</time></trkpt><trkpt lat="43.1369579" lon="11.5648524"><ele>269.0</ele><time>2026-04-04T13:41:43.92Z</time></trkpt><trkpt lat="43.1369753" lon="11.5649484"><ele>269.0</ele><time>2026-04-04T13:41:44.918Z</time></trkpt><trkpt lat="43.1370068" lon="11.5650409"><ele>269.0</ele><time>2026-04-04T13:41:45.941Z</time></trkpt><trkpt lat="43.1370507" lon="11.5651327"><ele>269.0</ele><time>2026-04-04T13:41:46.926Z</time></trkpt><trkpt lat="43.1370984" lon="11.5652184"><ele>269.0</ele><time>2026-04-04T13:41:47.921Z</time></trkpt><trkpt lat="43.1371446" lon="11.5653033"><ele>269.0</ele><time>2026-04-04T13:41:48.914Z</time></trkpt><trkpt lat="43.1371841" lon="11.5653941"><ele>268.7142857142857</ele><time>2026-04-04T13:41:49.91Z</time></trkpt><trkpt lat="43.1372209" lon="11.5654826"><ele>268.42857142857144</ele><time>2026-04-04T13:41:50.923Z</time></trkpt><trkpt lat="43.1372463" lon="11.565574"><ele>268.14285714285717</ele><time>2026-04-04T13:41:51.927Z</time></trkpt><trkpt lat="43.1372516" lon="11.5656739"><ele>267.8571428571429</ele><time>2026-04-04T13:41:52.916Z</time></trkpt><trkpt lat="43.1372466" lon="11.5657738"><ele>267.57142857142856</ele><time>2026-04-04T13:41:53.916Z</time></trkpt><trkpt lat="43.1372349" lon="11.5658728"><ele>267.28571428571433</ele><time>2026-04-04T13:41:54.918Z</time></trkpt><trkpt lat="43.1372104" lon="11.5659699"><ele>267.0</ele><time>2026-04-04T13:41:55.909Z</time></trkpt><trkpt lat="43.1371676" lon="11.5660599"><ele>267.0</ele><time>2026-04-04T13:41:56.913Z</time></trkpt><trkpt lat="43.1371198" lon="11.5661381"><ele>267.0</ele><time>2026-04-04T13:41:57.91Z</time></trkpt><trkpt lat="43.137067" lon="11.5662144"><ele>267.0</ele><time>2026-04-04T13:41:58.915Z</time></trkpt><trkpt lat="43.1369995" lon="11.5662733"><ele>267.0</ele><time>2026-04-04T13:41:59.922Z</time></trkpt><trkpt lat="43.1369198" lon="11.5663309"><ele>267.0</ele><time>2026-04-04T13:42:00.919Z</time></trkpt><trkpt lat="43.1368336" lon="11.5663697"><ele>267.0</ele><time>2026-04-04T13:42:01.919Z</time></trkpt><trkpt lat="43.1367434" lon="11.5664072"><ele>267.6666666666667</ele><time>2026-04-04T13:42:02.913Z</time></trkpt><trkpt lat="43.1366479" lon="11.56644"><ele>268.3333333333333</ele><time>2026-04-04T13:42:03.918Z</time></trkpt><trkpt lat="43.1365534" lon="11.5664766"><ele>269.0</ele><time>2026-04-04T13:42:04.914Z</time></trkpt><trkpt lat="43.136467" lon="11.566514"><ele>269.66666666666663</ele><time>2026-04-04T13:42:05.915Z</time></trkpt><trkpt lat="43.1363882" lon="11.5665501"><ele>270.3333333333333</ele><time>2026-04-04T13:42:06.918Z</time></trkpt><trkpt lat="43.136325" lon="11.5665766"><ele>271.0</ele><time>2026-04-04T13:42:07.925Z</time></trkpt><trkpt lat="43.1362152" lon="11.5665748"><ele>266.40000000000003</ele><time>2026-04-04T13:42:09.916Z</time></trkpt><trkpt lat="43.1361265" lon="11.5664779"><ele>261.8</ele><time>2026-04-04T13:42:11.922Z</time></trkpt><trkpt lat="43.1361096" lon="11.5663068"><ele>257.20000000000005</ele><time>2026-04-04T13:42:13.921Z</time></trkpt><trkpt lat="43.1361229" lon="11.566222"><ele>252.60000000000002</ele><time>2026-04-04T13:42:14.924Z</time></trkpt><trkpt lat="43.1361655" lon="11.5661438"><ele>248.0</ele><time>2026-04-04T13:42:15.917Z</time></trkpt><trkpt lat="43.1362221" lon="11.5660675"><ele>248.00000000000003</ele><time>2026-04-04T13:42:16.921Z</time></trkpt><trkpt lat="43.1362737" lon="11.5659824"><ele>248.0</ele><time>2026-04-04T13:42:17.92Z</time></trkpt><trkpt lat="43.1363241" lon="11.5659023"><ele>248.0</ele><time>2026-04-04T13:42:18.924Z</time></trkpt><trkpt lat="43.1363638" lon="11.5658028"><ele>248.0</ele><time>2026-04-04T13:42:19.916Z</time></trkpt><trkpt lat="43.1363786" lon="11.5656911"><ele>248.00000000000003</ele><time>2026-04-04T13:42:20.916Z</time></trkpt><trkpt lat="43.136364" lon="11.5655792"><ele>248.0</ele><time>2026-04-04T13:42:21.921Z</time></trkpt><trkpt lat="43.13633" lon="11.5654786"><ele>248.0</ele><time>2026-04-04T13:42:22.92Z</time></trkpt><trkpt lat="43.1362668" lon="11.5653735"><ele>248.0</ele><time>2026-04-04T13:42:23.919Z</time></trkpt><trkpt lat="43.1361957" lon="11.5652853"><ele>248.0</ele><time>2026-04-04T13:42:24.918Z</time></trkpt><trkpt lat="43.1361286" lon="11.565199"><ele>248.0</ele><time>2026-04-04T13:42:25.925Z</time></trkpt><trkpt lat="43.1360781" lon="11.5651012"><ele>248.0</ele><time>2026-04-04T13:42:26.917Z</time></trkpt><trkpt lat="43.1360516" lon="11.5649851"><ele>247.4</ele><time>2026-04-04T13:42:27.915Z</time></trkpt><trkpt lat="43.1360408" lon="11.5648697"><ele>246.8</ele><time>2026-04-04T13:42:28.917Z</time></trkpt><trkpt lat="43.1360475" lon="11.5647452"><ele>246.2</ele><time>2026-04-04T13:42:29.913Z</time></trkpt><trkpt lat="43.1360789" lon="11.564626"><ele>245.6</ele><time>2026-04-04T13:42:30.919Z</time></trkpt><trkpt lat="43.1361187" lon="11.5645113"><ele>245.0</ele><time>2026-04-04T13:42:31.914Z</time></trkpt><trkpt lat="43.1361715" lon="11.5644021"><ele>244.0</ele><time>2026-04-04T13:42:32.918Z</time></trkpt><trkpt lat="43.1362228" lon="11.5643002"><ele>243.0</ele><time>2026-04-04T13:42:33.918Z</time></trkpt><trkpt lat="43.1362733" lon="11.5641852"><ele>242.0</ele><time>2026-04-04T13:42:34.917Z</time></trkpt><trkpt lat="43.1363148" lon="11.564077"><ele>241.0</ele><time>2026-04-04T13:42:35.915Z</time></trkpt><trkpt lat="43.1363429" lon="11.5639666"><ele>240.0</ele><time>2026-04-04T13:42:36.92Z</time></trkpt><trkpt lat="43.1363639" lon="11.56385"><ele>240.0</ele><time>2026-04-04T13:42:37.923Z</time></trkpt><trkpt lat="43.1363623" lon="11.5637273"><ele>240.0</ele><time>2026-04-04T13:42:38.916Z</time></trkpt><trkpt lat="43.1363491" lon="11.5635875"><ele>240.0</ele><time>2026-04-04T13:42:39.913Z</time></trkpt><trkpt lat="43.1363238" lon="11.5634501"><ele>240.0</ele><time>2026-04-04T13:42:40.916Z</time></trkpt><trkpt lat="43.1362835" lon="11.5633216"><ele>240.0</ele><time>2026-04-04T13:42:41.913Z</time></trkpt><trkpt lat="43.1362244" lon="11.5632171"><ele>240.2</ele><time>2026-04-04T13:42:42.912Z</time></trkpt><trkpt lat="43.1361617" lon="11.5631077"><ele>240.4</ele><time>2026-04-04T13:42:43.92Z</time></trkpt><trkpt lat="43.1360918" lon="11.5630171"><ele>240.60000000000002</ele><time>2026-04-04T13:42:44.912Z</time></trkpt><trkpt lat="43.1360118" lon="11.5629275"><ele>240.8</ele><time>2026-04-04T13:42:45.92Z</time></trkpt><trkpt lat="43.1359281" lon="11.5628389"><ele>241.0</ele><time>2026-04-04T13:42:46.916Z</time></trkpt><trkpt lat="43.1358479" lon="11.562739"><ele>242.60000000000002</ele><time>2026-04-04T13:42:47.921Z</time></trkpt><trkpt lat="43.1357718" lon="11.562633"><ele>244.20000000000002</ele><time>2026-04-04T13:42:48.921Z</time></trkpt><trkpt lat="43.1356931" lon="11.5625271"><ele>245.79999999999998</ele><time>2026-04-04T13:42:49.921Z</time></trkpt><trkpt lat="43.1356082" lon="11.5624228"><ele>247.39999999999998</ele><time>2026-04-04T13:42:50.906Z</time></trkpt><trkpt lat="43.1355318" lon="11.5623133"><ele>249.0</ele><time>2026-04-04T13:42:51.917Z</time></trkpt><trkpt lat="43.1354501" lon="11.5621976"><ele>245.0</ele><time>2026-04-04T13:42:52.923Z</time></trkpt><trkpt lat="43.1353706" lon="11.5620615"><ele>241.0</ele><time>2026-04-04T13:42:53.914Z</time></trkpt><trkpt lat="43.1352923" lon="11.5619203"><ele>237.0</ele><time>2026-04-04T13:42:54.914Z</time></trkpt><trkpt lat="43.1352133" lon="11.5617771"><ele>233.0</ele><time>2026-04-04T13:42:55.92Z</time></trkpt><trkpt lat="43.1351353" lon="11.5616314"><ele>233.0</ele><time>2026-04-04T13:42:56.919Z</time></trkpt><trkpt lat="43.1350552" lon="11.5614851"><ele>233.0</ele><time>2026-04-04T13:42:57.914Z</time></trkpt><trkpt lat="43.1349758" lon="11.5613412"><ele>233.0</ele><time>2026-04-04T13:42:58.918Z</time></trkpt><trkpt lat="43.1348959" lon="11.5611944"><ele>233.0</ele><time>2026-04-04T13:42:59.911Z</time></trkpt><trkpt lat="43.1348175" lon="11.5610525"><ele>227.75</ele><time>2026-04-04T13:43:00.917Z</time></trkpt><trkpt lat="43.1347421" lon="11.5609109"><ele>222.5</ele><time>2026-04-04T13:43:01.914Z</time></trkpt><trkpt lat="43.1346671" lon="11.5607767"><ele>217.25</ele><time>2026-04-04T13:43:02.912Z</time></trkpt><trkpt lat="43.13459" lon="11.5606371"><ele>212.0</ele><time>2026-04-04T13:43:03.915Z</time></trkpt><trkpt lat="43.1345164" lon="11.5604932"><ele>213.0</ele><time>2026-04-04T13:43:04.917Z</time></trkpt><trkpt lat="43.1344405" lon="11.5603514"><ele>214.0</ele><time>2026-04-04T13:43:05.915Z</time></trkpt><trkpt lat="43.1343637" lon="11.5602124"><ele>215.0</ele><time>2026-04-04T13:43:06.921Z</time></trkpt><trkpt lat="43.1342874" lon="11.5600785"><ele>216.0</ele><time>2026-04-04T13:43:07.922Z</time></trkpt><trkpt lat="43.1342176" lon="11.5599544"><ele>216.0</ele><time>2026-04-04T13:43:08.92Z</time></trkpt><trkpt lat="43.1341488" lon="11.5598284"><ele>216.0</ele><time>2026-04-04T13:43:09.918Z</time></trkpt><trkpt lat="43.13409" lon="11.5596913"><ele>216.0</ele><time>2026-04-04T13:43:10.914Z</time></trkpt><trkpt lat="43.1340466" lon="11.5595427"><ele>216.0</ele><time>2026-04-04T13:43:11.919Z</time></trkpt><trkpt lat="43.1340135" lon="11.5593869"><ele>212.0</ele><time>2026-04-04T13:43:12.913Z</time></trkpt><trkpt lat="43.1339988" lon="11.5592367"><ele>208.0</ele><time>2026-04-04T13:43:13.911Z</time></trkpt><trkpt lat="43.1339939" lon="11.5590839"><ele>204.0</ele><time>2026-04-04T13:43:14.917Z</time></trkpt><trkpt lat="43.1339945" lon="11.5589239"><ele>200.0</ele><time>2026-04-04T13:43:15.916Z</time></trkpt><trkpt lat="43.1340031" lon="11.5587621"><ele>200.0</ele><time>2026-04-04T13:43:16.915Z</time></trkpt><trkpt lat="43.1340104" lon="11.5585954"><ele>200.0</ele><time>2026-04-04T13:43:17.92Z</time></trkpt><trkpt lat="43.1340108" lon="11.5584295"><ele>200.0</ele><time>2026-04-04T13:43:18.913Z</time></trkpt><trkpt lat="43.1340151" lon="11.5582696"><ele>200.0</ele><time>2026-04-04T13:43:19.916Z</time></trkpt><trkpt lat="43.1340178" lon="11.5581076"><ele>200.0</ele><time>2026-04-04T13:43:20.917Z</time></trkpt><trkpt lat="43.1340106" lon="11.5579465"><ele>200.0</ele><time>2026-04-04T13:43:21.913Z</time></trkpt><trkpt lat="43.1339979" lon="11.5577818"><ele>200.0</ele><time>2026-04-04T13:43:22.916Z</time></trkpt><trkpt lat="43.133978" lon="11.557614"><ele>200.0</ele><time>2026-04-04T13:43:23.915Z</time></trkpt><trkpt lat="43.1339581" lon="11.5574386"><ele>200.0</ele><time>2026-04-04T13:43:24.91Z</time></trkpt><trkpt lat="43.1339363" lon="11.5572656"><ele>200.0</ele><time>2026-04-04T13:43:25.917Z</time></trkpt><trkpt lat="43.1339099" lon="11.5570812"><ele>200.0</ele><time>2026-04-04T13:43:26.916Z</time></trkpt><trkpt lat="43.1338824" lon="11.5568981"><ele>200.0</ele><time>2026-04-04T13:43:27.919Z</time></trkpt><trkpt lat="43.1338496" lon="11.5567152"><ele>201.0</ele><time>2026-04-04T13:43:28.918Z</time></trkpt><trkpt lat="43.1338169" lon="11.5565388"><ele>202.0</ele><time>2026-04-04T13:43:29.923Z</time></trkpt><trkpt lat="43.1337833" lon="11.5563796"><ele>203.0</ele><time>2026-04-04T13:43:30.914Z</time></trkpt><trkpt lat="43.1337572" lon="11.5562476"><ele>204.0</ele><time>2026-04-04T13:43:31.921Z</time></trkpt><trkpt lat="43.1337191" lon="11.5561336"><ele>205.0</ele><time>2026-04-04T13:43:32.92Z</time></trkpt><trkpt lat="43.1336671" lon="11.5560591"><ele>206.66666666666666</ele><time>2026-04-04T13:43:33.915Z</time></trkpt><trkpt lat="43.1336048" lon="11.5559862"><ele>208.33333333333331</ele><time>2026-04-04T13:43:34.909Z</time></trkpt><trkpt lat="43.1335337" lon="11.5559293"><ele>210.0</ele><time>2026-04-04T13:43:35.911Z</time></trkpt><trkpt lat="43.1334546" lon="11.5558841"><ele>211.66666666666669</ele><time>2026-04-04T13:43:36.924Z</time></trkpt><trkpt lat="43.1333667" lon="11.5558611"><ele>213.33333333333334</ele><time>2026-04-04T13:43:37.918Z</time></trkpt><trkpt lat="43.1332788" lon="11.5558582"><ele>215.0</ele><time>2026-04-04T13:43:38.913Z</time></trkpt><trkpt lat="43.1331943" lon="11.5558791"><ele>215.6</ele><time>2026-04-04T13:43:39.914Z</time></trkpt><trkpt lat="43.1331023" lon="11.55592"><ele>216.2</ele><time>2026-04-04T13:43:40.911Z</time></trkpt><trkpt lat="43.1330159" lon="11.5559751"><ele>216.8</ele><time>2026-04-04T13:43:41.911Z</time></trkpt><trkpt lat="43.1329386" lon="11.5560579"><ele>217.4</ele><time>2026-04-04T13:43:42.913Z</time></trkpt><trkpt lat="43.1328582" lon="11.5561448"><ele>218.0</ele><time>2026-04-04T13:43:43.904Z</time></trkpt><trkpt lat="43.1327823" lon="11.5562471"><ele>218.0</ele><time>2026-04-04T13:43:44.921Z</time></trkpt><trkpt lat="43.132705" lon="11.5563524"><ele>218.0</ele><time>2026-04-04T13:43:45.91Z</time></trkpt><trkpt lat="43.132623" lon="11.5564627"><ele>218.0</ele><time>2026-04-04T13:43:46.914Z</time></trkpt><trkpt lat="43.1325435" lon="11.5565834"><ele>218.0</ele><time>2026-04-04T13:43:47.916Z</time></trkpt><trkpt lat="43.1324669" lon="11.5566976"><ele>218.0</ele><time>2026-04-04T13:43:48.907Z</time></trkpt><trkpt lat="43.1323932" lon="11.5568042"><ele>218.0</ele><time>2026-04-04T13:43:49.921Z</time></trkpt><trkpt lat="43.1323137" lon="11.5568999"><ele>218.0</ele><time>2026-04-04T13:43:50.919Z</time></trkpt><trkpt lat="43.1322303" lon="11.5569895"><ele>218.0</ele><time>2026-04-04T13:43:51.908Z</time></trkpt><trkpt lat="43.132138" lon="11.5570678"><ele>218.0</ele><time>2026-04-04T13:43:52.908Z</time></trkpt><trkpt lat="43.1320412" lon="11.5571305"><ele>217.0</ele><time>2026-04-04T13:43:53.924Z</time></trkpt><trkpt lat="43.1319337" lon="11.5571842"><ele>216.0</ele><time>2026-04-04T13:43:54.915Z</time></trkpt><trkpt lat="43.131822" lon="11.5572293"><ele>215.0</ele><time>2026-04-04T13:43:55.918Z</time></trkpt><trkpt lat="43.1317123" lon="11.5572729"><ele>214.0</ele><time>2026-04-04T13:43:56.907Z</time></trkpt><trkpt lat="43.1316086" lon="11.5573154"><ele>213.66666666666666</ele><time>2026-04-04T13:43:57.911Z</time></trkpt><trkpt lat="43.1315077" lon="11.5573514"><ele>213.33333333333331</ele><time>2026-04-04T13:43:58.915Z</time></trkpt><trkpt lat="43.1314142" lon="11.5573687"><ele>213.0</ele><time>2026-04-04T13:43:59.907Z</time></trkpt><trkpt lat="43.131333" lon="11.557363"><ele>212.66666666666669</ele><time>2026-04-04T13:44:00.912Z</time></trkpt><trkpt lat="43.1312622" lon="11.5573315"><ele>212.33333333333334</ele><time>2026-04-04T13:44:01.915Z</time></trkpt><trkpt lat="43.131198" lon="11.5572796"><ele>212.0</ele><time>2026-04-04T13:44:02.914Z</time></trkpt><trkpt lat="43.1311441" lon="11.5572083"><ele>212.0</ele><time>2026-04-04T13:44:03.918Z</time></trkpt><trkpt lat="43.1311017" lon="11.5571269"><ele>212.0</ele><time>2026-04-04T13:44:04.919Z</time></trkpt><trkpt lat="43.1310695" lon="11.5570378"><ele>212.0</ele><time>2026-04-04T13:44:05.913Z</time></trkpt><trkpt lat="43.131054" lon="11.5569331"><ele>212.0</ele><time>2026-04-04T13:44:06.913Z</time></trkpt><trkpt lat="43.1310621" lon="11.5568346"><ele>212.0</ele><time>2026-04-04T13:44:07.913Z</time></trkpt><trkpt lat="43.131091" lon="11.5567466"><ele>212.0</ele><time>2026-04-04T13:44:08.91Z</time></trkpt><trkpt lat="43.1311382" lon="11.5566647"><ele>212.0</ele><time>2026-04-04T13:44:09.932Z</time></trkpt><trkpt lat="43.1311999" lon="11.5565985"><ele>215.6</ele><time>2026-04-04T13:44:10.928Z</time></trkpt><trkpt lat="43.1312723" lon="11.5565348"><ele>219.2</ele><time>2026-04-04T13:44:11.926Z</time></trkpt><trkpt lat="43.1313493" lon="11.5564786"><ele>222.8</ele><time>2026-04-04T13:44:12.919Z</time></trkpt><trkpt lat="43.1314318" lon="11.55642"><ele>226.4</ele><time>2026-04-04T13:44:13.912Z</time></trkpt><trkpt lat="43.1315174" lon="11.5563571"><ele>230.0</ele><time>2026-04-04T13:44:14.915Z</time></trkpt><trkpt lat="43.131608" lon="11.5562825"><ele>230.5</ele><time>2026-04-04T13:44:15.919Z</time></trkpt><trkpt lat="43.1317038" lon="11.5562083"><ele>231.0</ele><time>2026-04-04T13:44:16.915Z</time></trkpt><trkpt lat="43.1318007" lon="11.5561235"><ele>231.5</ele><time>2026-04-04T13:44:17.912Z</time></trkpt><trkpt lat="43.1318957" lon="11.5560385"><ele>232.0</ele><time>2026-04-04T13:44:18.915Z</time></trkpt><trkpt lat="43.1319948" lon="11.5559434"><ele>232.75</ele><time>2026-04-04T13:44:19.918Z</time></trkpt><trkpt lat="43.1320983" lon="11.5558439"><ele>233.5</ele><time>2026-04-04T13:44:20.909Z</time></trkpt><trkpt lat="43.1322024" lon="11.5557416"><ele>234.25</ele><time>2026-04-04T13:44:21.915Z</time></trkpt><trkpt lat="43.1323058" lon="11.5556365"><ele>235.0</ele><time>2026-04-04T13:44:22.92Z</time></trkpt><trkpt lat="43.132409" lon="11.5555276"><ele>235.0</ele><time>2026-04-04T13:44:23.925Z</time></trkpt><trkpt lat="43.1325056" lon="11.5554254"><ele>235.0</ele><time>2026-04-04T13:44:24.918Z</time></trkpt><trkpt lat="43.1325969" lon="11.5553301"><ele>235.0</ele><time>2026-04-04T13:44:25.915Z</time></trkpt><trkpt lat="43.1326815" lon="11.5552375"><ele>235.0</ele><time>2026-04-04T13:44:26.913Z</time></trkpt><trkpt lat="43.1327585" lon="11.5551493"><ele>235.0</ele><time>2026-04-04T13:44:27.912Z</time></trkpt><trkpt lat="43.1328196" lon="11.5550662"><ele>236.83333333333331</ele><time>2026-04-04T13:44:28.915Z</time></trkpt><trkpt lat="43.1328623" lon="11.5549694"><ele>238.66666666666666</ele><time>2026-04-04T13:44:29.919Z</time></trkpt><trkpt lat="43.1328872" lon="11.5548611"><ele>240.5</ele><time>2026-04-04T13:44:30.913Z</time></trkpt><trkpt lat="43.1328934" lon="11.5547547"><ele>242.33333333333331</ele><time>2026-04-04T13:44:31.918Z</time></trkpt><trkpt lat="43.1328778" lon="11.5546461"><ele>244.16666666666666</ele><time>2026-04-04T13:44:32.922Z</time></trkpt><trkpt lat="43.132847" lon="11.554548"><ele>246.0</ele><time>2026-04-04T13:44:33.91Z</time></trkpt><trkpt lat="43.1328081" lon="11.5544425"><ele>246.66666666666666</ele><time>2026-04-04T13:44:34.927Z</time></trkpt><trkpt lat="43.1327568" lon="11.5543498"><ele>247.33333333333331</ele><time>2026-04-04T13:44:35.914Z</time></trkpt><trkpt lat="43.1326967" lon="11.5542626"><ele>248.0</ele><time>2026-04-04T13:44:36.922Z</time></trkpt><trkpt lat="43.1326312" lon="11.5541775"><ele>248.66666666666666</ele><time>2026-04-04T13:44:37.924Z</time></trkpt><trkpt lat="43.132564" lon="11.5541129"><ele>249.33333333333331</ele><time>2026-04-04T13:44:38.921Z</time></trkpt><trkpt lat="43.1324908" lon="11.5540749"><ele>250.0</ele><time>2026-04-04T13:44:39.917Z</time></trkpt><trkpt lat="43.1324188" lon="11.5540447"><ele>252.66666666666666</ele><time>2026-04-04T13:44:40.917Z</time></trkpt><trkpt lat="43.1323519" lon="11.5540387"><ele>255.33333333333331</ele><time>2026-04-04T13:44:41.911Z</time></trkpt><trkpt lat="43.1322848" lon="11.5540701"><ele>258.0</ele><time>2026-04-04T13:44:42.915Z</time></trkpt><trkpt lat="43.132208" lon="11.5541181"><ele>260.6666666666667</ele><time>2026-04-04T13:44:43.923Z</time></trkpt><trkpt lat="43.1321353" lon="11.5541907"><ele>263.33333333333337</ele><time>2026-04-04T13:44:44.91Z</time></trkpt><trkpt lat="43.1320601" lon="11.5542809"><ele>266.0</ele><time>2026-04-04T13:44:45.91Z</time></trkpt><trkpt lat="43.131983" lon="11.5543912"><ele>266.0</ele><time>2026-04-04T13:44:46.906Z</time></trkpt><trkpt lat="43.1319053" lon="11.5544955"><ele>266.0</ele><time>2026-04-04T13:44:47.913Z</time></trkpt><trkpt lat="43.1318291" lon="11.5546058"><ele>266.0</ele><time>2026-04-04T13:44:48.912Z</time></trkpt><trkpt lat="43.1317501" lon="11.5547164"><ele>266.0</ele><time>2026-04-04T13:44:49.91Z</time></trkpt><trkpt lat="43.1316628" lon="11.5548283"><ele>265.2</ele><time>2026-04-04T13:44:50.919Z</time></trkpt><trkpt lat="43.1315731" lon="11.5549413"><ele>264.40000000000003</ele><time>2026-04-04T13:44:51.905Z</time></trkpt><trkpt lat="43.1314843" lon="11.555032"><ele>263.6</ele><time>2026-04-04T13:44:52.91Z</time></trkpt><trkpt lat="43.1313877" lon="11.5550977"><ele>262.8</ele><time>2026-04-04T13:44:53.915Z</time></trkpt><trkpt lat="43.1312925" lon="11.5551491"><ele>262.0</ele><time>2026-04-04T13:44:54.914Z</time></trkpt><trkpt lat="43.1312003" lon="11.5551633"><ele>262.0</ele><time>2026-04-04T13:44:55.913Z</time></trkpt><trkpt lat="43.1311075" lon="11.5551423"><ele>262.0</ele><time>2026-04-04T13:44:56.928Z</time></trkpt><trkpt lat="43.1310204" lon="11.5551012"><ele>262.0</ele><time>2026-04-04T13:44:57.912Z</time></trkpt><trkpt lat="43.1309489" lon="11.555047"><ele>262.0</ele><time>2026-04-04T13:44:58.909Z</time></trkpt><trkpt lat="43.1308769" lon="11.5549567"><ele>262.0</ele><time>2026-04-04T13:44:59.909Z</time></trkpt><trkpt lat="43.1308083" lon="11.5548501"><ele>262.0</ele><time>2026-04-04T13:45:00.912Z</time></trkpt><trkpt lat="43.130747" lon="11.5547414"><ele>262.0</ele><time>2026-04-04T13:45:01.91Z</time></trkpt><trkpt lat="43.1306797" lon="11.5546356"><ele>262.0</ele><time>2026-04-04T13:45:02.907Z</time></trkpt><trkpt lat="43.1306007" lon="11.5545503"><ele>262.0</ele><time>2026-04-04T13:45:03.911Z</time></trkpt><trkpt lat="43.1305095" lon="11.5544817"><ele>262.0</ele><time>2026-04-04T13:45:04.918Z</time></trkpt><trkpt lat="43.1304193" lon="11.5544089"><ele>262.8</ele><time>2026-04-04T13:45:05.919Z</time></trkpt><trkpt lat="43.1303335" lon="11.554326"><ele>263.6</ele><time>2026-04-04T13:45:06.909Z</time></trkpt><trkpt lat="43.1302495" lon="11.5542358"><ele>264.40000000000003</ele><time>2026-04-04T13:45:07.922Z</time></trkpt><trkpt lat="43.1301674" lon="11.5541306"><ele>265.2</ele><time>2026-04-04T13:45:08.912Z</time></trkpt><trkpt lat="43.1300801" lon="11.5540296"><ele>266.0</ele><time>2026-04-04T13:45:09.923Z</time></trkpt><trkpt lat="43.1299864" lon="11.5539402"><ele>266.2</ele><time>2026-04-04T13:45:10.917Z</time></trkpt><trkpt lat="43.1298727" lon="11.5538758"><ele>266.40000000000003</ele><time>2026-04-04T13:45:11.924Z</time></trkpt><trkpt lat="43.1297581" lon="11.5538322"><ele>266.6</ele><time>2026-04-04T13:45:12.912Z</time></trkpt><trkpt lat="43.129657" lon="11.5538059"><ele>266.8</ele><time>2026-04-04T13:45:13.916Z</time></trkpt><trkpt lat="43.1295765" lon="11.5537856"><ele>267.0</ele><time>2026-04-04T13:45:14.921Z</time></trkpt><trkpt lat="43.1295117" lon="11.553772"><ele>267.0</ele><time>2026-04-04T13:45:15.918Z</time></trkpt><trkpt lat="43.1294247" lon="11.5537365"><ele>267.0</ele><time>2026-04-04T13:45:17.91Z</time></trkpt><trkpt lat="43.1293642" lon="11.5536523"><ele>267.0</ele><time>2026-04-04T13:45:19.914Z</time></trkpt><trkpt lat="43.1293312" lon="11.5535244"><ele>267.0</ele><time>2026-04-04T13:45:21.911Z</time></trkpt><trkpt lat="43.1293463" lon="11.5533495"><ele>267.0</ele><time>2026-04-04T13:45:23.911Z</time></trkpt><trkpt lat="43.1294289" lon="11.553209"><ele>268.8333333333333</ele><time>2026-04-04T13:45:25.92Z</time></trkpt><trkpt lat="43.1295001" lon="11.5531658"><ele>270.6666666666667</ele><time>2026-04-04T13:45:26.919Z</time></trkpt><trkpt lat="43.1295809" lon="11.5531357"><ele>272.5</ele><time>2026-04-04T13:45:27.924Z</time></trkpt><trkpt lat="43.1296677" lon="11.5531212"><ele>274.33333333333337</ele><time>2026-04-04T13:45:28.915Z</time></trkpt><trkpt lat="43.1297651" lon="11.5531323"><ele>276.1666666666667</ele><time>2026-04-04T13:45:29.912Z</time></trkpt><trkpt lat="43.1298627" lon="11.5531609"><ele>278.0</ele><time>2026-04-04T13:45:30.919Z</time></trkpt><trkpt lat="43.1299645" lon="11.5531979"><ele>278.0</ele><time>2026-04-04T13:45:31.91Z</time></trkpt><trkpt lat="43.1300714" lon="11.5532447"><ele>278.0</ele><time>2026-04-04T13:45:32.927Z</time></trkpt><trkpt lat="43.1301745" lon="11.5532813"><ele>278.0</ele><time>2026-04-04T13:45:33.917Z</time></trkpt><trkpt lat="43.1302751" lon="11.5533264"><ele>278.0</ele><time>2026-04-04T13:45:34.908Z</time></trkpt><trkpt lat="43.1303748" lon="11.553365"><ele>278.0</ele><time>2026-04-04T13:45:35.915Z</time></trkpt><trkpt lat="43.1304667" lon="11.5533879"><ele>278.0</ele><time>2026-04-04T13:45:36.916Z</time></trkpt><trkpt lat="43.1305536" lon="11.5534064"><ele>278.0</ele><time>2026-04-04T13:45:37.91Z</time></trkpt><trkpt lat="43.1306397" lon="11.5534196"><ele>278.0</ele><time>2026-04-04T13:45:38.91Z</time></trkpt><trkpt lat="43.1307295" lon="11.5534081"><ele>278.0</ele><time>2026-04-04T13:45:39.913Z</time></trkpt><trkpt lat="43.1308122" lon="11.553381"><ele>278.0</ele><time>2026-04-04T13:45:40.918Z</time></trkpt><trkpt lat="43.1308974" lon="11.5533334"><ele>278.0</ele><time>2026-04-04T13:45:41.926Z</time></trkpt><trkpt lat="43.1309752" lon="11.5532615"><ele>279.0</ele><time>2026-04-04T13:45:42.911Z</time></trkpt><trkpt lat="43.1310406" lon="11.5531618"><ele>280.0</ele><time>2026-04-04T13:45:43.92Z</time></trkpt><trkpt lat="43.1310935" lon="11.5530604"><ele>281.0</ele><time>2026-04-04T13:45:44.917Z</time></trkpt><trkpt lat="43.1311295" lon="11.5529493"><ele>282.0</ele><time>2026-04-04T13:45:45.912Z</time></trkpt><trkpt lat="43.1311412" lon="11.5528288"><ele>283.0</ele><time>2026-04-04T13:45:46.916Z</time></trkpt><trkpt lat="43.1311362" lon="11.5526976"><ele>284.8</ele><time>2026-04-04T13:45:47.919Z</time></trkpt><trkpt lat="43.1311217" lon="11.5525564"><ele>286.6</ele><time>2026-04-04T13:45:48.916Z</time></trkpt><trkpt lat="43.1311072" lon="11.552416"><ele>288.4</ele><time>2026-04-04T13:45:49.913Z</time></trkpt><trkpt lat="43.1310947" lon="11.5522712"><ele>290.2</ele><time>2026-04-04T13:45:50.916Z</time></trkpt><trkpt lat="43.1310932" lon="11.5521277"><ele>292.0</ele><time>2026-04-04T13:45:51.912Z</time></trkpt><trkpt lat="43.1311089" lon="11.5519836"><ele>294.25</ele><time>2026-04-04T13:45:52.913Z</time></trkpt><trkpt lat="43.131146" lon="11.5518368"><ele>296.5</ele><time>2026-04-04T13:45:53.917Z</time></trkpt><trkpt lat="43.131194" lon="11.5516976"><ele>298.75</ele><time>2026-04-04T13:45:54.918Z</time></trkpt><trkpt lat="43.1312582" lon="11.5515635"><ele>301.0</ele><time>2026-04-04T13:45:55.92Z</time></trkpt><trkpt lat="43.1313302" lon="11.5514282"><ele>301.0</ele><time>2026-04-04T13:45:56.916Z</time></trkpt><trkpt lat="43.1314087" lon="11.551293"><ele>301.0</ele><time>2026-04-04T13:45:57.916Z</time></trkpt><trkpt lat="43.1314938" lon="11.551148"><ele>301.0</ele><time>2026-04-04T13:45:58.925Z</time></trkpt><trkpt lat="43.1315769" lon="11.5509959"><ele>301.0</ele><time>2026-04-04T13:45:59.923Z</time></trkpt><trkpt lat="43.1316663" lon="11.5508318"><ele>300.0</ele><time>2026-04-04T13:46:00.921Z</time></trkpt><trkpt lat="43.1317561" lon="11.5506661"><ele>299.0</ele><time>2026-04-04T13:46:01.911Z</time></trkpt><trkpt lat="43.1318469" lon="11.5504976"><ele>298.0</ele><time>2026-04-04T13:46:02.933Z</time></trkpt><trkpt lat="43.1319423" lon="11.5503188"><ele>301.0</ele><time>2026-04-04T13:46:03.921Z</time></trkpt><trkpt lat="43.1320395" lon="11.5501425"><ele>304.0</ele><time>2026-04-04T13:46:04.917Z</time></trkpt><trkpt lat="43.1321347" lon="11.54997"><ele>307.0</ele><time>2026-04-04T13:46:05.915Z</time></trkpt><trkpt lat="43.1322235" lon="11.5497994"><ele>307.0</ele><time>2026-04-04T13:46:06.93Z</time></trkpt><trkpt lat="43.1323071" lon="11.5496499"><ele>307.0</ele><time>2026-04-04T13:46:07.918Z</time></trkpt><trkpt lat="43.1323874" lon="11.5495209"><ele>307.0</ele><time>2026-04-04T13:46:08.921Z</time></trkpt><trkpt lat="43.1324684" lon="11.5493974"><ele>307.0</ele><time>2026-04-04T13:46:09.922Z</time></trkpt><trkpt lat="43.1325577" lon="11.5492925"><ele>307.5</ele><time>2026-04-04T13:46:10.922Z</time></trkpt><trkpt lat="43.132659" lon="11.5491987"><ele>308.0</ele><time>2026-04-04T13:46:11.925Z</time></trkpt><trkpt lat="43.1327646" lon="11.5491086"><ele>308.5</ele><time>2026-04-04T13:46:12.92Z</time></trkpt><trkpt lat="43.1328675" lon="11.5490328"><ele>309.0</ele><time>2026-04-04T13:46:13.92Z</time></trkpt><trkpt lat="43.1329638" lon="11.5489673"><ele>309.0</ele><time>2026-04-04T13:46:14.917Z</time></trkpt><trkpt lat="43.1330511" lon="11.5489042"><ele>309.0</ele><time>2026-04-04T13:46:15.921Z</time></trkpt><trkpt lat="43.1331327" lon="11.5488389"><ele>309.0</ele><time>2026-04-04T13:46:16.917Z</time></trkpt><trkpt lat="43.1332017" lon="11.5487829"><ele>309.0</ele><time>2026-04-04T13:46:17.921Z</time></trkpt><trkpt lat="43.1332638" lon="11.5487175"><ele>309.0</ele><time>2026-04-04T13:46:18.926Z</time></trkpt><trkpt lat="43.1333243" lon="11.5486501"><ele>309.0</ele><time>2026-04-04T13:46:19.918Z</time></trkpt><trkpt lat="43.1333775" lon="11.5485636"><ele>309.3333333333333</ele><time>2026-04-04T13:46:20.914Z</time></trkpt><trkpt lat="43.1334155" lon="11.5484636"><ele>309.6666666666667</ele><time>2026-04-04T13:46:21.913Z</time></trkpt><trkpt lat="43.1334526" lon="11.5483583"><ele>310.0</ele><time>2026-04-04T13:46:22.912Z</time></trkpt><trkpt lat="43.1334756" lon="11.5482458"><ele>310.33333333333337</ele><time>2026-04-04T13:46:23.924Z</time></trkpt><trkpt lat="43.1334903" lon="11.5481299"><ele>310.6666666666667</ele><time>2026-04-04T13:46:24.921Z</time></trkpt><trkpt lat="43.1334872" lon="11.5480045"><ele>311.0</ele><time>2026-04-04T13:46:25.913Z</time></trkpt><trkpt lat="43.1334727" lon="11.5478746"><ele>311.0</ele><time>2026-04-04T13:46:26.923Z</time></trkpt><trkpt lat="43.1334519" lon="11.5477377"><ele>311.0</ele><time>2026-04-04T13:46:27.929Z</time></trkpt><trkpt lat="43.1334193" lon="11.5475949"><ele>311.0</ele><time>2026-04-04T13:46:28.908Z</time></trkpt><trkpt lat="43.1333735" lon="11.5474257"><ele>311.0</ele><time>2026-04-04T13:46:29.919Z</time></trkpt><trkpt lat="43.1333265" lon="11.5472377"><ele>310.6666666666667</ele><time>2026-04-04T13:46:30.92Z</time></trkpt><trkpt lat="43.1332747" lon="11.5470327"><ele>310.3333333333333</ele><time>2026-04-04T13:46:31.923Z</time></trkpt><trkpt lat="43.1332224" lon="11.5468183"><ele>310.0</ele><time>2026-04-04T13:46:32.923Z</time></trkpt><trkpt lat="43.1331687" lon="11.5465914"><ele>305.0</ele><time>2026-04-04T13:46:33.917Z</time></trkpt><trkpt lat="43.1331107" lon="11.5463641"><ele>300.0</ele><time>2026-04-04T13:46:34.924Z</time></trkpt><trkpt lat="43.1330587" lon="11.5461334"><ele>295.0</ele><time>2026-04-04T13:46:35.924Z</time></trkpt><trkpt lat="43.1330041" lon="11.5458938"><ele>295.0</ele><time>2026-04-04T13:46:36.919Z</time></trkpt><trkpt lat="43.1329482" lon="11.5456516"><ele>295.0</ele><time>2026-04-04T13:46:37.917Z</time></trkpt><trkpt lat="43.1328906" lon="11.5454077"><ele>295.0</ele><time>2026-04-04T13:46:38.917Z</time></trkpt><trkpt lat="43.1328393" lon="11.5451777"><ele>296.0</ele><time>2026-04-04T13:46:39.922Z</time></trkpt><trkpt lat="43.1327879" lon="11.544952"><ele>297.0</ele><time>2026-04-04T13:46:40.915Z</time></trkpt><trkpt lat="43.1327349" lon="11.5447365"><ele>298.0</ele><time>2026-04-04T13:46:41.917Z</time></trkpt><trkpt lat="43.1326822" lon="11.5445291"><ele>299.3333333333333</ele><time>2026-04-04T13:46:42.916Z</time></trkpt><trkpt lat="43.132628" lon="11.5443211"><ele>300.6666666666667</ele><time>2026-04-04T13:46:43.918Z</time></trkpt><trkpt lat="43.1325745" lon="11.544124"><ele>302.0</ele><time>2026-04-04T13:46:44.924Z</time></trkpt><trkpt lat="43.1325163" lon="11.5439298"><ele>302.0</ele><time>2026-04-04T13:46:45.917Z</time></trkpt><trkpt lat="43.1324542" lon="11.5437435"><ele>302.0</ele><time>2026-04-04T13:46:46.919Z</time></trkpt><trkpt lat="43.1323852" lon="11.5435534"><ele>302.0</ele><time>2026-04-04T13:46:47.92Z</time></trkpt><trkpt lat="43.1323111" lon="11.543374"><ele>302.0</ele><time>2026-04-04T13:46:48.919Z</time></trkpt><trkpt lat="43.1322365" lon="11.5431943"><ele>302.0</ele><time>2026-04-04T13:46:49.91Z</time></trkpt><trkpt lat="43.1321645" lon="11.5430155"><ele>302.0</ele><time>2026-04-04T13:46:50.911Z</time></trkpt><trkpt lat="43.1321004" lon="11.5428423"><ele>302.0</ele><time>2026-04-04T13:46:51.92Z</time></trkpt><trkpt lat="43.1320388" lon="11.5426902"><ele>302.5</ele><time>2026-04-04T13:46:52.921Z</time></trkpt><trkpt lat="43.1319821" lon="11.5425435"><ele>303.0</ele><time>2026-04-04T13:46:53.919Z</time></trkpt><trkpt lat="43.1319259" lon="11.5424046"><ele>303.5</ele><time>2026-04-04T13:46:54.921Z</time></trkpt><trkpt lat="43.1318796" lon="11.5422703"><ele>304.0</ele><time>2026-04-04T13:46:55.921Z</time></trkpt><trkpt lat="43.1318483" lon="11.5421307"><ele>304.25</ele><time>2026-04-04T13:46:56.919Z</time></trkpt><trkpt lat="43.131831" lon="11.5419799"><ele>304.5</ele><time>2026-04-04T13:46:57.924Z</time></trkpt><trkpt lat="43.1318356" lon="11.5418243"><ele>304.75</ele><time>2026-04-04T13:46:58.912Z</time></trkpt><trkpt lat="43.131856" lon="11.5416547"><ele>305.0</ele><time>2026-04-04T13:46:59.918Z</time></trkpt><trkpt lat="43.1318845" lon="11.5414721"><ele>305.0</ele><time>2026-04-04T13:47:00.92Z</time></trkpt><trkpt lat="43.131906" lon="11.5412917"><ele>305.0</ele><time>2026-04-04T13:47:01.919Z</time></trkpt><trkpt lat="43.1319317" lon="11.5411219"><ele>305.0</ele><time>2026-04-04T13:47:02.921Z</time></trkpt><trkpt lat="43.1319523" lon="11.5409567"><ele>305.0</ele><time>2026-04-04T13:47:03.917Z</time></trkpt><trkpt lat="43.1319687" lon="11.5407992"><ele>305.25</ele><time>2026-04-04T13:47:04.918Z</time></trkpt><trkpt lat="43.1319916" lon="11.5406333"><ele>305.5</ele><time>2026-04-04T13:47:05.916Z</time></trkpt><trkpt lat="43.1320296" lon="11.5404826"><ele>305.75</ele><time>2026-04-04T13:47:06.909Z</time></trkpt><trkpt lat="43.1320756" lon="11.5403373"><ele>306.0</ele><time>2026-04-04T13:47:07.912Z</time></trkpt><trkpt lat="43.1321179" lon="11.540201"><ele>306.0</ele><time>2026-04-04T13:47:08.915Z</time></trkpt><trkpt lat="43.1321613" lon="11.5400626"><ele>306.0</ele><time>2026-04-04T13:47:09.915Z</time></trkpt><trkpt lat="43.1321915" lon="11.5399242"><ele>306.0</ele><time>2026-04-04T13:47:10.923Z</time></trkpt><trkpt lat="43.132213" lon="11.5397758"><ele>306.0</ele><time>2026-04-04T13:47:11.915Z</time></trkpt><trkpt lat="43.1322225" lon="11.5396259"><ele>306.0</ele><time>2026-04-04T13:47:12.92Z</time></trkpt><trkpt lat="43.1322234" lon="11.5394753"><ele>304.75</ele><time>2026-04-04T13:47:13.913Z</time></trkpt><trkpt lat="43.1322127" lon="11.5393187"><ele>303.5</ele><time>2026-04-04T13:47:14.92Z</time></trkpt><trkpt lat="43.132204" lon="11.5391618"><ele>302.25</ele><time>2026-04-04T13:47:15.917Z</time></trkpt><trkpt lat="43.1322085" lon="11.539007"><ele>301.0</ele><time>2026-04-04T13:47:16.92Z</time></trkpt><trkpt lat="43.1322279" lon="11.5388395"><ele>299.0</ele><time>2026-04-04T13:47:17.919Z</time></trkpt><trkpt lat="43.1322509" lon="11.538673"><ele>297.0</ele><time>2026-04-04T13:47:18.913Z</time></trkpt><trkpt lat="43.132278" lon="11.5385011"><ele>295.0</ele><time>2026-04-04T13:47:19.913Z</time></trkpt><trkpt lat="43.1323168" lon="11.5383168"><ele>293.0</ele><time>2026-04-04T13:47:20.916Z</time></trkpt><trkpt lat="43.132361" lon="11.5381395"><ele>290.33333333333337</ele><time>2026-04-04T13:47:21.922Z</time></trkpt><trkpt lat="43.1324207" lon="11.5379594"><ele>287.6666666666667</ele><time>2026-04-04T13:47:22.916Z</time></trkpt><trkpt lat="43.1324772" lon="11.537765"><ele>285.0</ele><time>2026-04-04T13:47:23.926Z</time></trkpt><trkpt lat="43.1325396" lon="11.5375712"><ele>284.5</ele><time>2026-04-04T13:47:24.916Z</time></trkpt><trkpt lat="43.1326059" lon="11.5373927"><ele>284.0</ele><time>2026-04-04T13:47:25.924Z</time></trkpt><trkpt lat="43.1326817" lon="11.5372249"><ele>283.5</ele><time>2026-04-04T13:47:26.923Z</time></trkpt><trkpt lat="43.1327643" lon="11.5370563"><ele>283.0</ele><time>2026-04-04T13:47:27.925Z</time></trkpt><trkpt lat="43.1328627" lon="11.5369069"><ele>280.3333333333333</ele><time>2026-04-04T13:47:28.92Z</time></trkpt><trkpt lat="43.1329665" lon="11.5367637"><ele>277.6666666666667</ele><time>2026-04-04T13:47:29.925Z</time></trkpt><trkpt lat="43.1330784" lon="11.5366177"><ele>275.0</ele><time>2026-04-04T13:47:30.924Z</time></trkpt><trkpt lat="43.1331937" lon="11.5364651"><ele>275.33333333333337</ele><time>2026-04-04T13:47:31.927Z</time></trkpt><trkpt lat="43.1332997" lon="11.5363088"><ele>275.6666666666667</ele><time>2026-04-04T13:47:32.92Z</time></trkpt><trkpt lat="43.1333975" lon="11.5361365"><ele>276.0</ele><time>2026-04-04T13:47:33.921Z</time></trkpt><trkpt lat="43.1334952" lon="11.5359629"><ele>275.0</ele><time>2026-04-04T13:47:34.919Z</time></trkpt><trkpt lat="43.1335897" lon="11.5357789"><ele>274.0</ele><time>2026-04-04T13:47:35.922Z</time></trkpt><trkpt lat="43.1336797" lon="11.5355735"><ele>273.0</ele><time>2026-04-04T13:47:36.92Z</time></trkpt><trkpt lat="43.1337725" lon="11.5353696"><ele>270.0</ele><time>2026-04-04T13:47:37.917Z</time></trkpt><trkpt lat="43.1338638" lon="11.5351676"><ele>267.0</ele><time>2026-04-04T13:47:38.917Z</time></trkpt><trkpt lat="43.1339514" lon="11.5349617"><ele>264.0</ele><time>2026-04-04T13:47:39.923Z</time></trkpt><trkpt lat="43.1340396" lon="11.5347507"><ele>265.3333333333333</ele><time>2026-04-04T13:47:40.919Z</time></trkpt><trkpt lat="43.1341245" lon="11.5345488"><ele>266.66666666666663</ele><time>2026-04-04T13:47:41.92Z</time></trkpt><trkpt lat="43.1342038" lon="11.5343666"><ele>268.0</ele><time>2026-04-04T13:47:42.925Z</time></trkpt><trkpt lat="43.1342757" lon="11.534193"><ele>268.0</ele><time>2026-04-04T13:47:43.929Z</time></trkpt><trkpt lat="43.134348" lon="11.5340162"><ele>268.0</ele><time>2026-04-04T13:47:44.912Z</time></trkpt><trkpt lat="43.1344167" lon="11.5338416"><ele>268.0</ele><time>2026-04-04T13:47:45.912Z</time></trkpt><trkpt lat="43.1344748" lon="11.5336636"><ele>268.0</ele><time>2026-04-04T13:47:46.917Z</time></trkpt><trkpt lat="43.1345326" lon="11.5334798"><ele>267.0</ele><time>2026-04-04T13:47:47.924Z</time></trkpt><trkpt lat="43.1345879" lon="11.5332922"><ele>266.0</ele><time>2026-04-04T13:47:48.921Z</time></trkpt><trkpt lat="43.1346422" lon="11.5331028"><ele>265.0</ele><time>2026-04-04T13:47:49.915Z</time></trkpt><trkpt lat="43.1346965" lon="11.5329077"><ele>264.0</ele><time>2026-04-04T13:47:50.921Z</time></trkpt><trkpt lat="43.13475" lon="11.5327076"><ele>263.75</ele><time>2026-04-04T13:47:51.923Z</time></trkpt><trkpt lat="43.1347968" lon="11.532515"><ele>263.5</ele><time>2026-04-04T13:47:52.917Z</time></trkpt><trkpt lat="43.1348353" lon="11.5323281"><ele>263.25</ele><time>2026-04-04T13:47:53.922Z</time></trkpt><trkpt lat="43.1348718" lon="11.5321495"><ele>263.0</ele><time>2026-04-04T13:47:54.916Z</time></trkpt><trkpt lat="43.1349041" lon="11.5319785"><ele>265.0</ele><time>2026-04-04T13:47:55.917Z</time></trkpt><trkpt lat="43.1349387" lon="11.5318141"><ele>267.0</ele><time>2026-04-04T13:47:56.921Z</time></trkpt><trkpt lat="43.1349612" lon="11.5316522"><ele>269.0</ele><time>2026-04-04T13:47:57.916Z</time></trkpt><trkpt lat="43.1349817" lon="11.5315084"><ele>271.0</ele><time>2026-04-04T13:47:58.921Z</time></trkpt><trkpt lat="43.1349991" lon="11.5313676"><ele>271.0</ele><time>2026-04-04T13:47:59.923Z</time></trkpt><trkpt lat="43.1350173" lon="11.5312376"><ele>271.0</ele><time>2026-04-04T13:48:00.918Z</time></trkpt><trkpt lat="43.135027" lon="11.5311145"><ele>271.0</ele><time>2026-04-04T13:48:01.923Z</time></trkpt><trkpt lat="43.1350424" lon="11.5309866"><ele>271.0</ele><time>2026-04-04T13:48:02.923Z</time></trkpt><trkpt lat="43.1350579" lon="11.5308583"><ele>271.0</ele><time>2026-04-04T13:48:03.915Z</time></trkpt><trkpt lat="43.1350658" lon="11.5307259"><ele>271.8</ele><time>2026-04-04T13:48:04.916Z</time></trkpt><trkpt lat="43.1350542" lon="11.5305943"><ele>272.6</ele><time>2026-04-04T13:48:05.921Z</time></trkpt><trkpt lat="43.1350241" lon="11.5304695"><ele>273.4</ele><time>2026-04-04T13:48:06.919Z</time></trkpt><trkpt lat="43.1349779" lon="11.5303385"><ele>274.2</ele><time>2026-04-04T13:48:07.919Z</time></trkpt><trkpt lat="43.1349362" lon="11.5301957"><ele>275.0</ele><time>2026-04-04T13:48:08.92Z</time></trkpt><trkpt lat="43.1348918" lon="11.5300556"><ele>272.4</ele><time>2026-04-04T13:48:09.912Z</time></trkpt><trkpt lat="43.134847" lon="11.5299212"><ele>269.8</ele><time>2026-04-04T13:48:10.923Z</time></trkpt><trkpt lat="43.1347972" lon="11.5297836"><ele>267.2</ele><time>2026-04-04T13:48:11.922Z</time></trkpt><trkpt lat="43.134749" lon="11.5296569"><ele>264.6</ele><time>2026-04-04T13:48:12.915Z</time></trkpt><trkpt lat="43.1347058" lon="11.5295324"><ele>262.0</ele><time>2026-04-04T13:48:13.922Z</time></trkpt><trkpt lat="43.1346608" lon="11.5294195"><ele>262.0</ele><time>2026-04-04T13:48:14.922Z</time></trkpt><trkpt lat="43.1346274" lon="11.5293117"><ele>262.0</ele><time>2026-04-04T13:48:15.925Z</time></trkpt><trkpt lat="43.1345905" lon="11.5292052"><ele>262.0</ele><time>2026-04-04T13:48:16.923Z</time></trkpt><trkpt lat="43.1345444" lon="11.5291015"><ele>262.0</ele><time>2026-04-04T13:48:17.915Z</time></trkpt><trkpt lat="43.1345035" lon="11.5290006"><ele>262.0</ele><time>2026-04-04T13:48:18.916Z</time></trkpt><trkpt lat="43.1344665" lon="11.5288915"><ele>262.0</ele><time>2026-04-04T13:48:19.93Z</time></trkpt><trkpt lat="43.1344321" lon="11.5287808"><ele>262.2</ele><time>2026-04-04T13:48:20.921Z</time></trkpt><trkpt lat="43.1344008" lon="11.528669"><ele>262.4</ele><time>2026-04-04T13:48:21.927Z</time></trkpt><trkpt lat="43.1343792" lon="11.5285459"><ele>262.6</ele><time>2026-04-04T13:48:22.918Z</time></trkpt><trkpt lat="43.1343707" lon="11.5284148"><ele>262.8</ele><time>2026-04-04T13:48:23.92Z</time></trkpt><trkpt lat="43.1343725" lon="11.5282821"><ele>263.0</ele><time>2026-04-04T13:48:24.913Z</time></trkpt><trkpt lat="43.1343785" lon="11.5281364"><ele>263.0</ele><time>2026-04-04T13:48:25.913Z</time></trkpt><trkpt lat="43.134386" lon="11.5279761"><ele>263.0</ele><time>2026-04-04T13:48:26.918Z</time></trkpt><trkpt lat="43.1344032" lon="11.5278084"><ele>263.0</ele><time>2026-04-04T13:48:27.916Z</time></trkpt><trkpt lat="43.1344175" lon="11.5276307"><ele>263.0</ele><time>2026-04-04T13:48:28.921Z</time></trkpt><trkpt lat="43.1344337" lon="11.5274461"><ele>262.25</ele><time>2026-04-04T13:48:29.923Z</time></trkpt><trkpt lat="43.1344452" lon="11.5272656"><ele>261.5</ele><time>2026-04-04T13:48:30.914Z</time></trkpt><trkpt lat="43.1344619" lon="11.527079"><ele>260.75</ele><time>2026-04-04T13:48:31.918Z</time></trkpt><trkpt lat="43.1344799" lon="11.5268882"><ele>260.0</ele><time>2026-04-04T13:48:32.917Z</time></trkpt><trkpt lat="43.1344932" lon="11.5266968"><ele>258.5</ele><time>2026-04-04T13:48:33.918Z</time></trkpt><trkpt lat="43.1345067" lon="11.5265107"><ele>257.0</ele><time>2026-04-04T13:48:34.913Z</time></trkpt><trkpt lat="43.1345228" lon="11.5263275"><ele>255.5</ele><time>2026-04-04T13:48:35.926Z</time></trkpt><trkpt lat="43.1345453" lon="11.5261499"><ele>254.0</ele><time>2026-04-04T13:48:36.915Z</time></trkpt><trkpt lat="43.1345783" lon="11.5259769"><ele>253.0</ele><time>2026-04-04T13:48:37.919Z</time></trkpt><trkpt lat="43.1346169" lon="11.5258143"><ele>252.0</ele><time>2026-04-04T13:48:38.92Z</time></trkpt><trkpt lat="43.1346705" lon="11.5256708"><ele>251.0</ele><time>2026-04-04T13:48:39.928Z</time></trkpt><trkpt lat="43.1347309" lon="11.5255205"><ele>250.0</ele><time>2026-04-04T13:48:40.915Z</time></trkpt><trkpt lat="43.1347933" lon="11.5253726"><ele>249.75</ele><time>2026-04-04T13:48:41.925Z</time></trkpt><trkpt lat="43.1348498" lon="11.5252222"><ele>249.5</ele><time>2026-04-04T13:48:42.918Z</time></trkpt><trkpt lat="43.1349027" lon="11.5250623"><ele>249.25</ele><time>2026-04-04T13:48:43.917Z</time></trkpt><trkpt lat="43.1349568" lon="11.5249027"><ele>249.0</ele><time>2026-04-04T13:48:44.922Z</time></trkpt><trkpt lat="43.1350103" lon="11.524731"><ele>249.75</ele><time>2026-04-04T13:48:45.925Z</time></trkpt><trkpt lat="43.1350466" lon="11.524559"><ele>250.5</ele><time>2026-04-04T13:48:46.927Z</time></trkpt><trkpt lat="43.1350717" lon="11.5243936"><ele>251.25</ele><time>2026-04-04T13:48:47.916Z</time></trkpt><trkpt lat="43.1350777" lon="11.5242168"><ele>252.0</ele><time>2026-04-04T13:48:48.916Z</time></trkpt><trkpt lat="43.1350674" lon="11.5240354"><ele>252.0</ele><time>2026-04-04T13:48:49.915Z</time></trkpt><trkpt lat="43.1350556" lon="11.5238287"><ele>252.0</ele><time>2026-04-04T13:48:50.922Z</time></trkpt><trkpt lat="43.1350441" lon="11.5236095"><ele>252.0</ele><time>2026-04-04T13:48:51.912Z</time></trkpt><trkpt lat="43.1350316" lon="11.5233763"><ele>250.33333333333331</ele><time>2026-04-04T13:48:52.911Z</time></trkpt><trkpt lat="43.1350181" lon="11.5231346"><ele>248.66666666666666</ele><time>2026-04-04T13:48:53.93Z</time></trkpt><trkpt lat="43.1350046" lon="11.522884"><ele>247.0</ele><time>2026-04-04T13:48:54.917Z</time></trkpt><trkpt lat="43.1349935" lon="11.5226254"><ele>245.0</ele><time>2026-04-04T13:48:55.914Z</time></trkpt><trkpt lat="43.1349905" lon="11.5223641"><ele>243.0</ele><time>2026-04-04T13:48:56.912Z</time></trkpt><trkpt lat="43.1349917" lon="11.5221119"><ele>241.0</ele><time>2026-04-04T13:48:57.92Z</time></trkpt><trkpt lat="43.1350037" lon="11.5218699"><ele>239.66666666666666</ele><time>2026-04-04T13:48:58.923Z</time></trkpt><trkpt lat="43.1350107" lon="11.5216376"><ele>238.33333333333331</ele><time>2026-04-04T13:48:59.92Z</time></trkpt><trkpt lat="43.1350167" lon="11.5214107"><ele>237.0</ele><time>2026-04-04T13:49:00.915Z</time></trkpt><trkpt lat="43.1350195" lon="11.5211905"><ele>236.66666666666669</ele><time>2026-04-04T13:49:01.913Z</time></trkpt><trkpt lat="43.1350195" lon="11.5209752"><ele>236.33333333333334</ele><time>2026-04-04T13:49:02.92Z</time></trkpt><trkpt lat="43.135012" lon="11.5207605"><ele>236.0</ele><time>2026-04-04T13:49:03.92Z</time></trkpt><trkpt lat="43.1349942" lon="11.5205529"><ele>238.0</ele><time>2026-04-04T13:49:04.91Z</time></trkpt><trkpt lat="43.1349649" lon="11.5203464"><ele>240.0</ele><time>2026-04-04T13:49:05.913Z</time></trkpt><trkpt lat="43.1349259" lon="11.5201452"><ele>242.0</ele><time>2026-04-04T13:49:06.911Z</time></trkpt><trkpt lat="43.1348781" lon="11.5199389"><ele>239.0</ele><time>2026-04-04T13:49:07.914Z</time></trkpt><trkpt lat="43.1348301" lon="11.5197517"><ele>236.0</ele><time>2026-04-04T13:49:08.915Z</time></trkpt><trkpt lat="43.1347818" lon="11.5195799"><ele>233.0</ele><time>2026-04-04T13:49:09.912Z</time></trkpt><trkpt lat="43.1347387" lon="11.5194093"><ele>230.0</ele><time>2026-04-04T13:49:10.911Z</time></trkpt><trkpt lat="43.1347082" lon="11.5192432"><ele>230.0</ele><time>2026-04-04T13:49:11.912Z</time></trkpt><trkpt lat="43.1346852" lon="11.5190702"><ele>230.0</ele><time>2026-04-04T13:49:12.915Z</time></trkpt><trkpt lat="43.1346696" lon="11.5188977"><ele>230.0</ele><time>2026-04-04T13:49:13.911Z</time></trkpt><trkpt lat="43.1346551" lon="11.5187195"><ele>230.0</ele><time>2026-04-04T13:49:14.91Z</time></trkpt><trkpt lat="43.1346456" lon="11.518539"><ele>233.25</ele><time>2026-04-04T13:49:15.915Z</time></trkpt><trkpt lat="43.134644" lon="11.5183581"><ele>236.5</ele><time>2026-04-04T13:49:16.913Z</time></trkpt><trkpt lat="43.134658" lon="11.5181804"><ele>239.75</ele><time>2026-04-04T13:49:17.921Z</time></trkpt><trkpt lat="43.1346805" lon="11.5180147"><ele>243.0</ele><time>2026-04-04T13:49:18.914Z</time></trkpt><trkpt lat="43.1347137" lon="11.5178555"><ele>244.25</ele><time>2026-04-04T13:49:19.919Z</time></trkpt><trkpt lat="43.1347762" lon="11.5177102"><ele>245.5</ele><time>2026-04-04T13:49:20.912Z</time></trkpt><trkpt lat="43.1348463" lon="11.5175845"><ele>246.75</ele><time>2026-04-04T13:49:21.924Z</time></trkpt><trkpt lat="43.1349214" lon="11.5174673"><ele>248.0</ele><time>2026-04-04T13:49:22.916Z</time></trkpt><trkpt lat="43.1349988" lon="11.5173564"><ele>246.0</ele><time>2026-04-04T13:49:23.921Z</time></trkpt><trkpt lat="43.1350741" lon="11.5172359"><ele>244.0</ele><time>2026-04-04T13:49:24.911Z</time></trkpt><trkpt lat="43.1351495" lon="11.5171064"><ele>242.0</ele><time>2026-04-04T13:49:25.914Z</time></trkpt><trkpt lat="43.1352271" lon="11.5169771"><ele>240.0</ele><time>2026-04-04T13:49:26.919Z</time></trkpt><trkpt lat="43.1353032" lon="11.5168403"><ele>240.0</ele><time>2026-04-04T13:49:27.917Z</time></trkpt><trkpt lat="43.1353868" lon="11.5166973"><ele>240.0</ele><time>2026-04-04T13:49:28.915Z</time></trkpt><trkpt lat="43.1354714" lon="11.5165568"><ele>240.0</ele><time>2026-04-04T13:49:29.915Z</time></trkpt><trkpt lat="43.1355563" lon="11.5164161"><ele>240.0</ele><time>2026-04-04T13:49:30.919Z</time></trkpt><trkpt lat="43.1356369" lon="11.5162883"><ele>237.25</ele><time>2026-04-04T13:49:31.919Z</time></trkpt><trkpt lat="43.1357221" lon="11.5161652"><ele>234.5</ele><time>2026-04-04T13:49:32.916Z</time></trkpt><trkpt lat="43.1358078" lon="11.5160479"><ele>231.75</ele><time>2026-04-04T13:49:33.919Z</time></trkpt><trkpt lat="43.1358989" lon="11.5159515"><ele>229.0</ele><time>2026-04-04T13:49:34.908Z</time></trkpt><trkpt lat="43.135989" lon="11.515859"><ele>229.0</ele><time>2026-04-04T13:49:35.916Z</time></trkpt><trkpt lat="43.1360791" lon="11.5157741"><ele>228.99999999999997</ele><time>2026-04-04T13:49:36.921Z</time></trkpt><trkpt lat="43.1361597" lon="11.5156782"><ele>228.99999999999997</ele><time>2026-04-04T13:49:37.918Z</time></trkpt><trkpt lat="43.1362239" lon="11.515569"><ele>229.0</ele><time>2026-04-04T13:49:38.912Z</time></trkpt><trkpt lat="43.1362772" lon="11.5154494"><ele>229.0</ele><time>2026-04-04T13:49:39.92Z</time></trkpt><trkpt lat="43.1363059" lon="11.5153255"><ele>228.39999999999998</ele><time>2026-04-04T13:49:40.928Z</time></trkpt><trkpt lat="43.1363296" lon="11.5152016"><ele>227.79999999999998</ele><time>2026-04-04T13:49:41.917Z</time></trkpt><trkpt lat="43.1363413" lon="11.5150679"><ele>227.20000000000002</ele><time>2026-04-04T13:49:42.916Z</time></trkpt><trkpt lat="43.1363425" lon="11.5149344"><ele>226.60000000000002</ele><time>2026-04-04T13:49:43.919Z</time></trkpt><trkpt lat="43.1363362" lon="11.5148117"><ele>226.0</ele><time>2026-04-04T13:49:44.912Z</time></trkpt><trkpt lat="43.1363245" lon="11.5146831"><ele>226.60000000000002</ele><time>2026-04-04T13:49:45.912Z</time></trkpt><trkpt lat="43.1362946" lon="11.5145639"><ele>227.20000000000002</ele><time>2026-04-04T13:49:46.915Z</time></trkpt><trkpt lat="43.1362533" lon="11.5144539"><ele>227.79999999999998</ele><time>2026-04-04T13:49:47.921Z</time></trkpt><trkpt lat="43.136208" lon="11.51434"><ele>228.39999999999998</ele><time>2026-04-04T13:49:48.922Z</time></trkpt><trkpt lat="43.1361552" lon="11.5142315"><ele>229.0</ele><time>2026-04-04T13:49:49.919Z</time></trkpt><trkpt lat="43.1361016" lon="11.5141305"><ele>229.0</ele><time>2026-04-04T13:49:50.92Z</time></trkpt><trkpt lat="43.1360445" lon="11.5140331"><ele>228.99999999999997</ele><time>2026-04-04T13:49:51.918Z</time></trkpt><trkpt lat="43.1359918" lon="11.5139297"><ele>228.99999999999997</ele><time>2026-04-04T13:49:52.918Z</time></trkpt><trkpt lat="43.1359376" lon="11.5138232"><ele>229.0</ele><time>2026-04-04T13:49:53.929Z</time></trkpt><trkpt lat="43.135885" lon="11.5137169"><ele>229.0</ele><time>2026-04-04T13:49:54.923Z</time></trkpt><trkpt lat="43.1358289" lon="11.5135997"><ele>227.25</ele><time>2026-04-04T13:49:55.912Z</time></trkpt><trkpt lat="43.1357701" lon="11.5134829"><ele>225.5</ele><time>2026-04-04T13:49:56.913Z</time></trkpt><trkpt lat="43.1357104" lon="11.513361"><ele>223.75</ele><time>2026-04-04T13:49:57.914Z</time></trkpt><trkpt lat="43.1356516" lon="11.5132196"><ele>222.0</ele><time>2026-04-04T13:49:58.918Z</time></trkpt><trkpt lat="43.1355917" lon="11.5130635"><ele>223.25</ele><time>2026-04-04T13:49:59.913Z</time></trkpt><trkpt lat="43.1355425" lon="11.5129033"><ele>224.5</ele><time>2026-04-04T13:50:00.919Z</time></trkpt><trkpt lat="43.1354974" lon="11.5127353"><ele>225.75</ele><time>2026-04-04T13:50:01.918Z</time></trkpt><trkpt lat="43.1354498" lon="11.5125765"><ele>227.0</ele><time>2026-04-04T13:50:02.916Z</time></trkpt><trkpt lat="43.1353964" lon="11.5124177"><ele>227.0</ele><time>2026-04-04T13:50:03.919Z</time></trkpt><trkpt lat="43.1353314" lon="11.512274"><ele>227.0</ele><time>2026-04-04T13:50:04.924Z</time></trkpt><trkpt lat="43.1352602" lon="11.5121301"><ele>227.0</ele><time>2026-04-04T13:50:05.911Z</time></trkpt><trkpt lat="43.1351812" lon="11.5119932"><ele>227.0</ele><time>2026-04-04T13:50:06.928Z</time></trkpt><trkpt lat="43.1350972" lon="11.5118575"><ele>228.0</ele><time>2026-04-04T13:50:07.917Z</time></trkpt><trkpt lat="43.1350178" lon="11.5117185"><ele>229.0</ele><time>2026-04-04T13:50:08.923Z</time></trkpt><trkpt lat="43.1349429" lon="11.5115759"><ele>230.0</ele><time>2026-04-04T13:50:09.909Z</time></trkpt><trkpt lat="43.1348719" lon="11.5114335"><ele>231.0</ele><time>2026-04-04T13:50:10.921Z</time></trkpt><trkpt lat="43.1348111" lon="11.5112917"><ele>232.60000000000002</ele><time>2026-04-04T13:50:11.915Z</time></trkpt><trkpt lat="43.1347531" lon="11.5111598"><ele>234.20000000000002</ele><time>2026-04-04T13:50:12.915Z</time></trkpt><trkpt lat="43.1346964" lon="11.5110247"><ele>235.79999999999998</ele><time>2026-04-04T13:50:13.922Z</time></trkpt><trkpt lat="43.1346401" lon="11.5109015"><ele>237.39999999999998</ele><time>2026-04-04T13:50:14.916Z</time></trkpt><trkpt lat="43.1345792" lon="11.5107656"><ele>239.0</ele><time>2026-04-04T13:50:15.919Z</time></trkpt><trkpt lat="43.1345125" lon="11.5106218"><ele>239.0</ele><time>2026-04-04T13:50:16.916Z</time></trkpt><trkpt lat="43.1344348" lon="11.5104694"><ele>239.0</ele><time>2026-04-04T13:50:17.92Z</time></trkpt><trkpt lat="43.1343511" lon="11.5103096"><ele>239.0</ele><time>2026-04-04T13:50:18.911Z</time></trkpt><trkpt lat="43.1342686" lon="11.5101435"><ele>239.0</ele><time>2026-04-04T13:50:19.92Z</time></trkpt><trkpt lat="43.1341894" lon="11.5099731"><ele>237.75</ele><time>2026-04-04T13:50:20.924Z</time></trkpt><trkpt lat="43.1341184" lon="11.5097984"><ele>236.5</ele><time>2026-04-04T13:50:21.917Z</time></trkpt><trkpt lat="43.1340429" lon="11.5096219"><ele>235.25</ele><time>2026-04-04T13:50:22.913Z</time></trkpt><trkpt lat="43.1339693" lon="11.5094451"><ele>234.0</ele><time>2026-04-04T13:50:23.914Z</time></trkpt><trkpt lat="43.1338912" lon="11.5092656"><ele>231.33333333333331</ele><time>2026-04-04T13:50:24.92Z</time></trkpt><trkpt lat="43.1338221" lon="11.5090708"><ele>228.66666666666666</ele><time>2026-04-04T13:50:25.923Z</time></trkpt><trkpt lat="43.1337641" lon="11.5088553"><ele>226.0</ele><time>2026-04-04T13:50:26.918Z</time></trkpt><trkpt lat="43.1337071" lon="11.5086285"><ele>224.0</ele><time>2026-04-04T13:50:27.916Z</time></trkpt><trkpt lat="43.1336553" lon="11.5084021"><ele>222.0</ele><time>2026-04-04T13:50:28.912Z</time></trkpt><trkpt lat="43.1336058" lon="11.5081775"><ele>220.0</ele><time>2026-04-04T13:50:29.912Z</time></trkpt><trkpt lat="43.1335728" lon="11.5079627"><ele>218.0</ele><time>2026-04-04T13:50:30.919Z</time></trkpt><trkpt lat="43.1335543" lon="11.5077284"><ele>216.0</ele><time>2026-04-04T13:50:31.924Z</time></trkpt><trkpt lat="43.1335501" lon="11.5074858"><ele>214.0</ele><time>2026-04-04T13:50:32.909Z</time></trkpt><trkpt lat="43.1335699" lon="11.5072534"><ele>213.33333333333331</ele><time>2026-04-04T13:50:33.92Z</time></trkpt><trkpt lat="43.1335945" lon="11.5070173"><ele>212.66666666666669</ele><time>2026-04-04T13:50:34.914Z</time></trkpt><trkpt lat="43.1336264" lon="11.5067788"><ele>212.0</ele><time>2026-04-04T13:50:35.922Z</time></trkpt><trkpt lat="43.1336608" lon="11.5065418"><ele>212.0</ele><time>2026-04-04T13:50:36.919Z</time></trkpt><trkpt lat="43.1336981" lon="11.506299"><ele>212.0</ele><time>2026-04-04T13:50:37.908Z</time></trkpt><trkpt lat="43.1337303" lon="11.5060567"><ele>212.0</ele><time>2026-04-04T13:50:38.911Z</time></trkpt><trkpt lat="43.1337619" lon="11.505821"><ele>211.66666666666669</ele><time>2026-04-04T13:50:39.909Z</time></trkpt><trkpt lat="43.133791" lon="11.5055923"><ele>211.33333333333331</ele><time>2026-04-04T13:50:40.912Z</time></trkpt><trkpt lat="43.1338152" lon="11.505377"><ele>211.0</ele><time>2026-04-04T13:50:41.906Z</time></trkpt><trkpt lat="43.1338426" lon="11.5051729"><ele>211.0</ele><time>2026-04-04T13:50:42.907Z</time></trkpt><trkpt lat="43.1338638" lon="11.5049737"><ele>211.0</ele><time>2026-04-04T13:50:43.921Z</time></trkpt><trkpt lat="43.1338919" lon="11.5047779"><ele>211.0</ele><time>2026-04-04T13:50:44.903Z</time></trkpt><trkpt lat="43.1339125" lon="11.5045798"><ele>211.0</ele><time>2026-04-04T13:50:45.924Z</time></trkpt><trkpt lat="43.133938" lon="11.5043809"><ele>211.5</ele><time>2026-04-04T13:50:46.916Z</time></trkpt><trkpt lat="43.1339697" lon="11.5041809"><ele>212.0</ele><time>2026-04-04T13:50:47.921Z</time></trkpt><trkpt lat="43.134002" lon="11.5039807"><ele>212.5</ele><time>2026-04-04T13:50:48.922Z</time></trkpt><trkpt lat="43.1340398" lon="11.5037844"><ele>213.0</ele><time>2026-04-04T13:50:49.918Z</time></trkpt><trkpt lat="43.1340727" lon="11.503586"><ele>211.66666666666669</ele><time>2026-04-04T13:50:50.924Z</time></trkpt><trkpt lat="43.1341144" lon="11.5033877"><ele>210.33333333333334</ele><time>2026-04-04T13:50:51.921Z</time></trkpt><trkpt lat="43.1341549" lon="11.5031859"><ele>209.0</ele><time>2026-04-04T13:50:52.917Z</time></trkpt><trkpt lat="43.1341951" lon="11.5029888"><ele>206.66666666666669</ele><time>2026-04-04T13:50:53.923Z</time></trkpt><trkpt lat="43.1342368" lon="11.502786"><ele>204.33333333333331</ele><time>2026-04-04T13:50:54.916Z</time></trkpt><trkpt lat="43.1342715" lon="11.5025871"><ele>202.0</ele><time>2026-04-04T13:50:55.93Z</time></trkpt><trkpt lat="43.134308" lon="11.5023872"><ele>202.0</ele><time>2026-04-04T13:50:56.918Z</time></trkpt><trkpt lat="43.1343479" lon="11.5021802"><ele>202.0</ele><time>2026-04-04T13:50:57.935Z</time></trkpt><trkpt lat="43.1343869" lon="11.501978"><ele>202.0</ele><time>2026-04-04T13:50:58.919Z</time></trkpt><trkpt lat="43.1344319" lon="11.5017784"><ele>199.33333333333331</ele><time>2026-04-04T13:50:59.918Z</time></trkpt><trkpt lat="43.1344763" lon="11.5015749"><ele>196.66666666666669</ele><time>2026-04-04T13:51:00.918Z</time></trkpt><trkpt lat="43.1345149" lon="11.5013706"><ele>194.0</ele><time>2026-04-04T13:51:01.921Z</time></trkpt><trkpt lat="43.1345585" lon="11.5011619"><ele>191.0</ele><time>2026-04-04T13:51:02.923Z</time></trkpt><trkpt lat="43.1345941" lon="11.5009505"><ele>188.0</ele><time>2026-04-04T13:51:03.924Z</time></trkpt><trkpt lat="43.1346305" lon="11.5007347"><ele>185.0</ele><time>2026-04-04T13:51:04.919Z</time></trkpt><trkpt lat="43.1346686" lon="11.5005109"><ele>182.0</ele><time>2026-04-04T13:51:05.924Z</time></trkpt><trkpt lat="43.1347114" lon="11.5002847"><ele>179.0</ele><time>2026-04-04T13:51:06.919Z</time></trkpt><trkpt lat="43.1347589" lon="11.5000618"><ele>176.0</ele><time>2026-04-04T13:51:07.919Z</time></trkpt><trkpt lat="43.1348081" lon="11.4998381"><ele>176.0</ele><time>2026-04-04T13:51:08.923Z</time></trkpt><trkpt lat="43.1348657" lon="11.4996062"><ele>176.0</ele><time>2026-04-04T13:51:09.912Z</time></trkpt><trkpt lat="43.1349335" lon="11.4993653"><ele>176.0</ele><time>2026-04-04T13:51:10.923Z</time></trkpt><trkpt lat="43.1350014" lon="11.4991233"><ele>173.66666666666666</ele><time>2026-04-04T13:51:11.914Z</time></trkpt><trkpt lat="43.1350689" lon="11.498876"><ele>171.33333333333334</ele><time>2026-04-04T13:51:12.914Z</time></trkpt><trkpt lat="43.1351405" lon="11.4986358"><ele>169.0</ele><time>2026-04-04T13:51:13.912Z</time></trkpt><trkpt lat="43.1352143" lon="11.4984008"><ele>166.66666666666669</ele><time>2026-04-04T13:51:14.917Z</time></trkpt><trkpt lat="43.1352853" lon="11.4981761"><ele>164.33333333333334</ele><time>2026-04-04T13:51:15.92Z</time></trkpt><trkpt lat="43.1353579" lon="11.4979552"><ele>162.0</ele><time>2026-04-04T13:51:16.914Z</time></trkpt><trkpt lat="43.1354354" lon="11.4977331"><ele>162.0</ele><time>2026-04-04T13:51:17.922Z</time></trkpt><trkpt lat="43.1355177" lon="11.4975132"><ele>162.0</ele><time>2026-04-04T13:51:18.918Z</time></trkpt><trkpt lat="43.135613" lon="11.4972881"><ele>162.0</ele><time>2026-04-04T13:51:19.916Z</time></trkpt><trkpt lat="43.1357215" lon="11.4970773"><ele>162.0</ele><time>2026-04-04T13:51:20.921Z</time></trkpt><trkpt lat="43.1358421" lon="11.4968724"><ele>162.0</ele><time>2026-04-04T13:51:21.922Z</time></trkpt><trkpt lat="43.1359618" lon="11.4966701"><ele>162.0</ele><time>2026-04-04T13:51:22.92Z</time></trkpt><trkpt lat="43.1360828" lon="11.4964724"><ele>162.0</ele><time>2026-04-04T13:51:23.921Z</time></trkpt><trkpt lat="43.1362043" lon="11.4962707"><ele>162.0</ele><time>2026-04-04T13:51:24.922Z</time></trkpt><trkpt lat="43.1363195" lon="11.4960692"><ele>162.0</ele><time>2026-04-04T13:51:25.933Z</time></trkpt><trkpt lat="43.1364436" lon="11.495863"><ele>161.66666666666666</ele><time>2026-04-04T13:51:26.921Z</time></trkpt><trkpt lat="43.1365645" lon="11.49566"><ele>161.33333333333331</ele><time>2026-04-04T13:51:27.929Z</time></trkpt><trkpt lat="43.136686" lon="11.4954543"><ele>161.0</ele><time>2026-04-04T13:51:28.928Z</time></trkpt><trkpt lat="43.1368064" lon="11.4952426"><ele>163.0</ele><time>2026-04-04T13:51:29.919Z</time></trkpt><trkpt lat="43.136928" lon="11.4950349"><ele>165.0</ele><time>2026-04-04T13:51:30.931Z</time></trkpt><trkpt lat="43.1370543" lon="11.4948265"><ele>167.0</ele><time>2026-04-04T13:51:31.921Z</time></trkpt><trkpt lat="43.1371693" lon="11.494641"><ele>166.33333333333331</ele><time>2026-04-04T13:51:32.918Z</time></trkpt><trkpt lat="43.1372698" lon="11.4944632"><ele>165.66666666666666</ele><time>2026-04-04T13:51:33.921Z</time></trkpt><trkpt lat="43.1373521" lon="11.4942895"><ele>165.0</ele><time>2026-04-04T13:51:34.925Z</time></trkpt><trkpt lat="43.1374148" lon="11.4941054"><ele>165.0</ele><time>2026-04-04T13:51:35.93Z</time></trkpt><trkpt lat="43.1374558" lon="11.4939046"><ele>165.0</ele><time>2026-04-04T13:51:36.917Z</time></trkpt><trkpt lat="43.1374863" lon="11.4936952"><ele>165.0</ele><time>2026-04-04T13:51:37.92Z</time></trkpt><trkpt lat="43.1375091" lon="11.4934797"><ele>166.33333333333334</ele><time>2026-04-04T13:51:38.919Z</time></trkpt><trkpt lat="43.1375316" lon="11.4932611"><ele>167.66666666666669</ele><time>2026-04-04T13:51:39.913Z</time></trkpt><trkpt lat="43.1375495" lon="11.4930434"><ele>169.0</ele><time>2026-04-04T13:51:40.922Z</time></trkpt><trkpt lat="43.1375756" lon="11.4928231"><ele>169.66666666666669</ele><time>2026-04-04T13:51:41.916Z</time></trkpt><trkpt lat="43.1376007" lon="11.4926035"><ele>170.33333333333334</ele><time>2026-04-04T13:51:42.915Z</time></trkpt><trkpt lat="43.1376231" lon="11.4923829"><ele>171.0</ele><time>2026-04-04T13:51:43.923Z</time></trkpt><trkpt lat="43.137648" lon="11.4921738"><ele>172.75</ele><time>2026-04-04T13:51:44.916Z</time></trkpt><trkpt lat="43.1376705" lon="11.4919767"><ele>174.5</ele><time>2026-04-04T13:51:45.921Z</time></trkpt><trkpt lat="43.1376934" lon="11.4917943"><ele>176.25</ele><time>2026-04-04T13:51:46.917Z</time></trkpt><trkpt lat="43.137717" lon="11.4916275"><ele>178.0</ele><time>2026-04-04T13:51:47.915Z</time></trkpt><trkpt lat="43.1377399" lon="11.4914711"><ele>178.0</ele><time>2026-04-04T13:51:48.917Z</time></trkpt><trkpt lat="43.1377642" lon="11.4913325"><ele>178.0</ele><time>2026-04-04T13:51:49.924Z</time></trkpt><trkpt lat="43.1377948" lon="11.4911949"><ele>178.0</ele><time>2026-04-04T13:51:50.916Z</time></trkpt><trkpt lat="43.1378112" lon="11.4910576"><ele>178.0</ele><time>2026-04-04T13:51:51.903Z</time></trkpt><trkpt lat="43.137823" lon="11.4909251"><ele>178.0</ele><time>2026-04-04T13:51:52.909Z</time></trkpt><trkpt lat="43.1378303" lon="11.4907951"><ele>177.8</ele><time>2026-04-04T13:51:53.93Z</time></trkpt><trkpt lat="43.1378289" lon="11.4906639"><ele>177.60000000000002</ele><time>2026-04-04T13:51:54.921Z</time></trkpt><trkpt lat="43.1378198" lon="11.4905195"><ele>177.39999999999998</ele><time>2026-04-04T13:51:55.924Z</time></trkpt><trkpt lat="43.137802" lon="11.4903668"><ele>177.2</ele><time>2026-04-04T13:51:56.919Z</time></trkpt><trkpt lat="43.1377851" lon="11.4902081"><ele>177.0</ele><time>2026-04-04T13:51:57.917Z</time></trkpt><trkpt lat="43.1377708" lon="11.4900509"><ele>177.0</ele><time>2026-04-04T13:51:58.923Z</time></trkpt><trkpt lat="43.1377622" lon="11.489885"><ele>177.0</ele><time>2026-04-04T13:51:59.922Z</time></trkpt><trkpt lat="43.1377497" lon="11.4897127"><ele>177.0</ele><time>2026-04-04T13:52:00.917Z</time></trkpt><trkpt lat="43.1377401" lon="11.4895355"><ele>177.0</ele><time>2026-04-04T13:52:01.911Z</time></trkpt><trkpt lat="43.1377237" lon="11.4893521"><ele>174.0</ele><time>2026-04-04T13:52:02.912Z</time></trkpt><trkpt lat="43.1377125" lon="11.4891683"><ele>171.0</ele><time>2026-04-04T13:52:03.921Z</time></trkpt><trkpt lat="43.1377066" lon="11.4889836"><ele>168.0</ele><time>2026-04-04T13:52:04.91Z</time></trkpt><trkpt lat="43.1377061" lon="11.4888111"><ele>165.0</ele><time>2026-04-04T13:52:05.92Z</time></trkpt><trkpt lat="43.1377066" lon="11.4886558"><ele>163.33333333333334</ele><time>2026-04-04T13:52:06.914Z</time></trkpt><trkpt lat="43.1377062" lon="11.4885313"><ele>161.66666666666666</ele><time>2026-04-04T13:52:07.921Z</time></trkpt><trkpt lat="43.1377022" lon="11.4884183"><ele>160.0</ele><time>2026-04-04T13:52:08.923Z</time></trkpt><trkpt lat="43.137695" lon="11.4882998"><ele>158.33333333333331</ele><time>2026-04-04T13:52:09.922Z</time></trkpt><trkpt lat="43.137691" lon="11.4881746"><ele>156.66666666666666</ele><time>2026-04-04T13:52:10.917Z</time></trkpt><trkpt lat="43.1376922" lon="11.488044"><ele>155.0</ele><time>2026-04-04T13:52:11.914Z</time></trkpt><trkpt lat="43.1376987" lon="11.4879103"><ele>154.33333333333331</ele><time>2026-04-04T13:52:12.911Z</time></trkpt><trkpt lat="43.1377014" lon="11.4877865"><ele>153.66666666666666</ele><time>2026-04-04T13:52:13.924Z</time></trkpt><trkpt lat="43.1376996" lon="11.4876808"><ele>153.0</ele><time>2026-04-04T13:52:14.927Z</time></trkpt><trkpt lat="43.1377028" lon="11.4875823"><ele>152.33333333333334</ele><time>2026-04-04T13:52:15.922Z</time></trkpt><trkpt lat="43.1377018" lon="11.487479"><ele>151.66666666666669</ele><time>2026-04-04T13:52:16.922Z</time></trkpt><trkpt lat="43.1376963" lon="11.4873814"><ele>151.0</ele><time>2026-04-04T13:52:17.918Z</time></trkpt><trkpt lat="43.1376948" lon="11.4872809"><ele>151.0</ele><time>2026-04-04T13:52:18.922Z</time></trkpt><trkpt lat="43.1376989" lon="11.4871779"><ele>151.0</ele><time>2026-04-04T13:52:19.941Z</time></trkpt><trkpt lat="43.1377013" lon="11.487066"><ele>151.0</ele><time>2026-04-04T13:52:20.908Z</time></trkpt><trkpt lat="43.137705" lon="11.4869439"><ele>151.0</ele><time>2026-04-04T13:52:21.916Z</time></trkpt><trkpt lat="43.1377067" lon="11.4868297"><ele>151.0</ele><time>2026-04-04T13:52:22.919Z</time></trkpt><trkpt lat="43.1377042" lon="11.4867029"><ele>151.0</ele><time>2026-04-04T13:52:23.904Z</time></trkpt><trkpt lat="43.1377038" lon="11.48657"><ele>150.5</ele><time>2026-04-04T13:52:24.911Z</time></trkpt><trkpt lat="43.1377002" lon="11.4864373"><ele>150.0</ele><time>2026-04-04T13:52:25.923Z</time></trkpt><trkpt lat="43.137698" lon="11.4862941"><ele>149.5</ele><time>2026-04-04T13:52:26.936Z</time></trkpt><trkpt lat="43.1376969" lon="11.4861615"><ele>149.0</ele><time>2026-04-04T13:52:27.92Z</time></trkpt><trkpt lat="43.1376947" lon="11.4860512"><ele>148.5</ele><time>2026-04-04T13:52:28.919Z</time></trkpt><trkpt lat="43.1376915" lon="11.4859619"><ele>148.0</ele><time>2026-04-04T13:52:29.918Z</time></trkpt><trkpt lat="43.137651" lon="11.4858404"><ele>148.0</ele><time>2026-04-04T13:52:31.923Z</time></trkpt><trkpt lat="43.1375353" lon="11.4858189"><ele>148.0</ele><time>2026-04-04T13:52:33.911Z</time></trkpt><trkpt lat="43.137447" lon="11.485815"><ele>148.0</ele><time>2026-04-04T13:52:34.917Z</time></trkpt><trkpt lat="43.1373611" lon="11.4858247"><ele>148.0</ele><time>2026-04-04T13:52:35.915Z</time></trkpt><trkpt lat="43.1372649" lon="11.4858281"><ele>148.0</ele><time>2026-04-04T13:52:36.909Z</time></trkpt><trkpt lat="43.137165" lon="11.485815"><ele>147.5</ele><time>2026-04-04T13:52:37.912Z</time></trkpt><trkpt lat="43.137055" lon="11.4858079"><ele>147.0</ele><time>2026-04-04T13:52:38.912Z</time></trkpt><trkpt lat="43.1369435" lon="11.4857988"><ele>146.5</ele><time>2026-04-04T13:52:39.919Z</time></trkpt><trkpt lat="43.1368259" lon="11.485792"><ele>146.0</ele><time>2026-04-04T13:52:40.912Z</time></trkpt><trkpt lat="43.1367007" lon="11.4857849"><ele>146.0</ele><time>2026-04-04T13:52:41.905Z</time></trkpt><trkpt lat="43.1365688" lon="11.4857822"><ele>146.0</ele><time>2026-04-04T13:52:42.917Z</time></trkpt><trkpt lat="43.1364445" lon="11.4857828"><ele>146.0</ele><time>2026-04-04T13:52:43.906Z</time></trkpt><trkpt lat="43.1363164" lon="11.485789"><ele>146.0</ele><time>2026-04-04T13:52:44.919Z</time></trkpt><trkpt lat="43.1361835" lon="11.4857844"><ele>146.25</ele><time>2026-04-04T13:52:45.915Z</time></trkpt><trkpt lat="43.1360516" lon="11.4857787"><ele>146.5</ele><time>2026-04-04T13:52:46.909Z</time></trkpt><trkpt lat="43.1359162" lon="11.4857649"><ele>146.75</ele><time>2026-04-04T13:52:47.93Z</time></trkpt><trkpt lat="43.1357802" lon="11.4857574"><ele>147.0</ele><time>2026-04-04T13:52:48.915Z</time></trkpt><trkpt lat="43.1356474" lon="11.4857517"><ele>147.0</ele><time>2026-04-04T13:52:49.914Z</time></trkpt><trkpt lat="43.1355215" lon="11.4857445"><ele>147.0</ele><time>2026-04-04T13:52:50.92Z</time></trkpt><trkpt lat="43.1353985" lon="11.4857417"><ele>147.0</ele><time>2026-04-04T13:52:51.913Z</time></trkpt><trkpt lat="43.1352855" lon="11.485733"><ele>147.0</ele><time>2026-04-04T13:52:52.906Z</time></trkpt><trkpt lat="43.1351811" lon="11.4857273"><ele>147.0</ele><time>2026-04-04T13:52:53.915Z</time></trkpt><trkpt lat="43.1350826" lon="11.4857185"><ele>147.0</ele><time>2026-04-04T13:52:54.915Z</time></trkpt><trkpt lat="43.134994" lon="11.4856985"><ele>147.0</ele><time>2026-04-04T13:52:55.921Z</time></trkpt><trkpt lat="43.1349119" lon="11.4856638"><ele>147.0</ele><time>2026-04-04T13:52:56.918Z</time></trkpt><trkpt lat="43.1348362" lon="11.4856041"><ele>147.0</ele><time>2026-04-04T13:52:57.916Z</time></trkpt><trkpt lat="43.1347707" lon="11.4855296"><ele>147.0</ele><time>2026-04-04T13:52:58.917Z</time></trkpt><trkpt lat="43.1347154" lon="11.4854267"><ele>146.79999999999998</ele><time>2026-04-04T13:52:59.919Z</time></trkpt><trkpt lat="43.1346703" lon="11.4853095"><ele>146.6</ele><time>2026-04-04T13:53:00.905Z</time></trkpt><trkpt lat="43.1346289" lon="11.4851907"><ele>146.39999999999998</ele><time>2026-04-04T13:53:01.913Z</time></trkpt><trkpt lat="43.134598" lon="11.4850734"><ele>146.2</ele><time>2026-04-04T13:53:02.913Z</time></trkpt><trkpt lat="43.1345693" lon="11.4849486"><ele>146.0</ele><time>2026-04-04T13:53:03.915Z</time></trkpt><trkpt lat="43.1345378" lon="11.4848214"><ele>146.0</ele><time>2026-04-04T13:53:04.911Z</time></trkpt><trkpt lat="43.1345047" lon="11.4847064"><ele>146.0</ele><time>2026-04-04T13:53:05.92Z</time></trkpt><trkpt lat="43.1344791" lon="11.4846009"><ele>146.0</ele><time>2026-04-04T13:53:06.916Z</time></trkpt><trkpt lat="43.1344528" lon="11.4845103"><ele>146.0</ele><time>2026-04-04T13:53:07.916Z</time></trkpt><trkpt lat="43.134416" lon="11.4843843"><ele>146.0</ele><time>2026-04-04T13:53:09.912Z</time></trkpt><trkpt lat="43.1343994" lon="11.4842988"><ele>146.0</ele><time>2026-04-04T13:53:13.917Z</time></trkpt><trkpt lat="43.1343613" lon="11.4842094"><ele>145.8</ele><time>2026-04-04T13:53:15.916Z</time></trkpt><trkpt lat="43.1343215" lon="11.4840756"><ele>145.6</ele><time>2026-04-04T13:53:17.916Z</time></trkpt><trkpt lat="43.1342987" lon="11.4839397"><ele>145.4</ele><time>2026-04-04T13:53:19.92Z</time></trkpt><trkpt lat="43.1342824" lon="11.4838083"><ele>145.2</ele><time>2026-04-04T13:53:21.923Z</time></trkpt><trkpt lat="43.1342567" lon="11.4836996"><ele>145.0</ele><time>2026-04-04T13:53:23.923Z</time></trkpt><trkpt lat="43.134221" lon="11.4835729"><ele>145.0</ele><time>2026-04-04T13:53:25.914Z</time></trkpt><trkpt lat="43.1341643" lon="11.483428"><ele>145.0</ele><time>2026-04-04T13:53:27.914Z</time></trkpt><trkpt lat="43.1341407" lon="11.4833234"><ele>145.0</ele><time>2026-04-04T13:53:29.924Z</time></trkpt><trkpt lat="43.1341196" lon="11.4832081"><ele>145.0</ele><time>2026-04-04T13:53:32.918Z</time></trkpt><trkpt lat="43.1342039" lon="11.4831203"><ele>145.0</ele><time>2026-04-04T13:53:35.922Z</time></trkpt><trkpt lat="43.1343231" lon="11.483139"><ele>145.0</ele><time>2026-04-04T13:53:37.92Z</time></trkpt><trkpt lat="43.1343864" lon="11.4831563"><ele>145.0</ele><time>2026-04-04T13:53:38.914Z</time></trkpt><trkpt lat="43.1344538" lon="11.4831612"><ele>145.0</ele><time>2026-04-04T13:53:39.922Z</time></trkpt><trkpt lat="43.1345217" lon="11.4831763"><ele>145.0</ele><time>2026-04-04T13:53:40.914Z</time></trkpt><trkpt lat="43.1345923" lon="11.4831929"><ele>145.0</ele><time>2026-04-04T13:53:41.922Z</time></trkpt><trkpt lat="43.1346614" lon="11.4832084"><ele>145.0</ele><time>2026-04-04T13:53:42.913Z</time></trkpt><trkpt lat="43.1347338" lon="11.4832265"><ele>145.0</ele><time>2026-04-04T13:53:43.924Z</time></trkpt><trkpt lat="43.1348081" lon="11.4832464"><ele>145.0</ele><time>2026-04-04T13:53:44.926Z</time></trkpt><trkpt lat="43.1348859" lon="11.4832622"><ele>145.0</ele><time>2026-04-04T13:53:45.931Z</time></trkpt><trkpt lat="43.1349605" lon="11.4832778"><ele>145.0</ele><time>2026-04-04T13:53:46.914Z</time></trkpt><trkpt lat="43.1350334" lon="11.4832892"><ele>145.0</ele><time>2026-04-04T13:53:47.917Z</time></trkpt><trkpt lat="43.1351019" lon="11.4833025"><ele>145.0</ele><time>2026-04-04T13:53:48.915Z</time></trkpt><trkpt lat="43.1352093" lon="11.4833272"><ele>145.0</ele><time>2026-04-04T13:53:50.921Z</time></trkpt><trkpt lat="43.1352809" lon="11.4833429"><ele>145.2</ele><time>2026-04-04T13:53:52.918Z</time></trkpt><trkpt lat="43.1353669" lon="11.4833708"><ele>145.4</ele><time>2026-04-04T13:53:55.919Z</time></trkpt><trkpt lat="43.1354416" lon="11.4833814"><ele>145.6</ele><time>2026-04-04T13:53:57.912Z</time></trkpt><trkpt lat="43.135569" lon="11.4833851"><ele>145.8</ele><time>2026-04-04T13:53:59.918Z</time></trkpt><trkpt lat="43.1356458" lon="11.4834046"><ele>146.0</ele><time>2026-04-04T13:54:00.926Z</time></trkpt><trkpt lat="43.1357342" lon="11.483413"><ele>146.0</ele><time>2026-04-04T13:54:01.912Z</time></trkpt><trkpt lat="43.1358263" lon="11.4834191"><ele>146.0</ele><time>2026-04-04T13:54:02.924Z</time></trkpt><trkpt lat="43.1359289" lon="11.4834214"><ele>146.0</ele><time>2026-04-04T13:54:03.921Z</time></trkpt><trkpt lat="43.1360397" lon="11.4834218"><ele>146.0</ele><time>2026-04-04T13:54:04.911Z</time></trkpt><trkpt lat="43.1361451" lon="11.4834187"><ele>146.0</ele><time>2026-04-04T13:54:05.911Z</time></trkpt><trkpt lat="43.1362571" lon="11.483415"><ele>146.0</ele><time>2026-04-04T13:54:06.918Z</time></trkpt><trkpt lat="43.1363761" lon="11.4834122"><ele>146.0</ele><time>2026-04-04T13:54:07.92Z</time></trkpt><trkpt lat="43.1364899" lon="11.4834156"><ele>146.0</ele><time>2026-04-04T13:54:08.927Z</time></trkpt><trkpt lat="43.1365948" lon="11.4834144"><ele>146.0</ele><time>2026-04-04T13:54:09.925Z</time></trkpt><trkpt lat="43.1366818" lon="11.4834174"><ele>146.0</ele><time>2026-04-04T13:54:10.919Z</time></trkpt><trkpt lat="43.1367509" lon="11.4834197"><ele>146.0</ele><time>2026-04-04T13:54:11.92Z</time></trkpt><trkpt lat="43.13683" lon="11.4833849"><ele>146.0</ele><time>2026-04-04T13:54:13.919Z</time></trkpt><trkpt lat="43.1368538" lon="11.4832626"><ele>146.0</ele><time>2026-04-04T13:54:16.911Z</time></trkpt><trkpt lat="43.1368452" lon="11.4831721"><ele>146.0</ele><time>2026-04-04T13:54:17.903Z</time></trkpt><trkpt lat="43.136826" lon="11.4830808"><ele>146.0</ele><time>2026-04-04T13:54:18.915Z</time></trkpt><trkpt lat="43.13682" lon="11.4829897"><ele>146.0</ele><time>2026-04-04T13:54:19.911Z</time></trkpt><trkpt lat="43.1368126" lon="11.4828193"><ele>146.0</ele><time>2026-04-04T13:54:21.916Z</time></trkpt><trkpt lat="43.136808" lon="11.4827208"><ele>146.0</ele><time>2026-04-04T13:54:22.917Z</time></trkpt><trkpt lat="43.136803" lon="11.482609"><ele>146.0</ele><time>2026-04-04T13:54:23.914Z</time></trkpt><trkpt lat="43.1368047" lon="11.4824982"><ele>146.0</ele><time>2026-04-04T13:54:24.915Z</time></trkpt><trkpt lat="43.1368003" lon="11.4824038"><ele>146.0</ele><time>2026-04-04T13:54:25.907Z</time></trkpt><trkpt lat="43.1367947" lon="11.4822785"><ele>146.0</ele><time>2026-04-04T13:54:27.912Z</time></trkpt><trkpt lat="43.1367783" lon="11.4821282"><ele>146.16666666666666</ele><time>2026-04-04T13:54:29.915Z</time></trkpt><trkpt lat="43.1367689" lon="11.4820128"><ele>146.33333333333331</ele><time>2026-04-04T13:54:31.911Z</time></trkpt><trkpt lat="43.1367419" lon="11.4819159"><ele>146.5</ele><time>2026-04-04T13:54:34.909Z</time></trkpt><trkpt lat="43.1366946" lon="11.4817812"><ele>146.66666666666666</ele><time>2026-04-04T13:54:36.912Z</time></trkpt><trkpt lat="43.1366732" lon="11.4816875"><ele>146.83333333333334</ele><time>2026-04-04T13:54:37.91Z</time></trkpt><trkpt lat="43.1366492" lon="11.4815744"><ele>147.0</ele><time>2026-04-04T13:54:38.916Z</time></trkpt><trkpt lat="43.1366257" lon="11.4814511"><ele>147.0</ele><time>2026-04-04T13:54:39.914Z</time></trkpt><trkpt lat="43.1365918" lon="11.4813166"><ele>147.0</ele><time>2026-04-04T13:54:40.921Z</time></trkpt><trkpt lat="43.1365477" lon="11.4811788"><ele>147.0</ele><time>2026-04-04T13:54:41.923Z</time></trkpt><trkpt lat="43.1365096" lon="11.4810369"><ele>147.0</ele><time>2026-04-04T13:54:42.909Z</time></trkpt><trkpt lat="43.1364801" lon="11.4809085"><ele>147.0</ele><time>2026-04-04T13:54:43.907Z</time></trkpt><trkpt lat="43.1364535" lon="11.4807947"><ele>146.66666666666666</ele><time>2026-04-04T13:54:44.912Z</time></trkpt><trkpt lat="43.1364276" lon="11.480695"><ele>146.33333333333334</ele><time>2026-04-04T13:54:45.914Z</time></trkpt><trkpt lat="43.136398" lon="11.4805897"><ele>146.0</ele><time>2026-04-04T13:54:46.912Z</time></trkpt><trkpt lat="43.1363728" lon="11.4804796"><ele>145.66666666666669</ele><time>2026-04-04T13:54:47.914Z</time></trkpt><trkpt lat="43.1363474" lon="11.4803681"><ele>145.33333333333334</ele><time>2026-04-04T13:54:48.906Z</time></trkpt><trkpt lat="43.1363173" lon="11.4802516"><ele>145.0</ele><time>2026-04-04T13:54:49.924Z</time></trkpt><trkpt lat="43.1362842" lon="11.4801154"><ele>144.75</ele><time>2026-04-04T13:54:50.917Z</time></trkpt><trkpt lat="43.1362469" lon="11.4799802"><ele>144.5</ele><time>2026-04-04T13:54:51.908Z</time></trkpt><trkpt lat="43.1362096" lon="11.4798337"><ele>144.25</ele><time>2026-04-04T13:54:52.92Z</time></trkpt><trkpt lat="43.1361746" lon="11.4796807"><ele>144.0</ele><time>2026-04-04T13:54:53.923Z</time></trkpt><trkpt lat="43.1361355" lon="11.4795234"><ele>144.0</ele><time>2026-04-04T13:54:54.914Z</time></trkpt><trkpt lat="43.1360993" lon="11.479351"><ele>144.0</ele><time>2026-04-04T13:54:55.919Z</time></trkpt><trkpt lat="43.1360523" lon="11.4791779"><ele>144.0</ele><time>2026-04-04T13:54:56.914Z</time></trkpt><trkpt lat="43.1360065" lon="11.4790073"><ele>144.0</ele><time>2026-04-04T13:54:57.921Z</time></trkpt><trkpt lat="43.1359632" lon="11.4788256"><ele>144.25</ele><time>2026-04-04T13:54:58.92Z</time></trkpt><trkpt lat="43.1359143" lon="11.4786431"><ele>144.5</ele><time>2026-04-04T13:54:59.924Z</time></trkpt><trkpt lat="43.1358743" lon="11.4784529"><ele>144.75</ele><time>2026-04-04T13:55:00.922Z</time></trkpt><trkpt lat="43.1358352" lon="11.4782624"><ele>145.0</ele><time>2026-04-04T13:55:01.925Z</time></trkpt><trkpt lat="43.1357997" lon="11.4780666"><ele>144.0</ele><time>2026-04-04T13:55:02.923Z</time></trkpt><trkpt lat="43.1357565" lon="11.4778652"><ele>143.0</ele><time>2026-04-04T13:55:03.909Z</time></trkpt><trkpt lat="43.1357138" lon="11.4776651"><ele>142.0</ele><time>2026-04-04T13:55:04.912Z</time></trkpt><trkpt lat="43.1356704" lon="11.4774636"><ele>142.0</ele><time>2026-04-04T13:55:05.916Z</time></trkpt><trkpt lat="43.1356251" lon="11.4772562"><ele>142.0</ele><time>2026-04-04T13:55:06.921Z</time></trkpt><trkpt lat="43.1355801" lon="11.4770479"><ele>142.0</ele><time>2026-04-04T13:55:07.914Z</time></trkpt><trkpt lat="43.1355346" lon="11.4768389"><ele>141.33333333333334</ele><time>2026-04-04T13:55:08.912Z</time></trkpt><trkpt lat="43.1354906" lon="11.4766332"><ele>140.66666666666666</ele><time>2026-04-04T13:55:09.913Z</time></trkpt><trkpt lat="43.1354461" lon="11.4764301"><ele>140.0</ele><time>2026-04-04T13:55:10.921Z</time></trkpt><trkpt lat="43.1353991" lon="11.4762374"><ele>139.5</ele><time>2026-04-04T13:55:11.914Z</time></trkpt><trkpt lat="43.1353444" lon="11.4760502"><ele>139.0</ele><time>2026-04-04T13:55:12.913Z</time></trkpt><trkpt lat="43.135295" lon="11.4758588"><ele>138.5</ele><time>2026-04-04T13:55:13.918Z</time></trkpt><trkpt lat="43.1352472" lon="11.4756716"><ele>138.0</ele><time>2026-04-04T13:55:14.92Z</time></trkpt><trkpt lat="43.135198" lon="11.4754821"><ele>138.0</ele><time>2026-04-04T13:55:15.92Z</time></trkpt><trkpt lat="43.1351518" lon="11.4752949"><ele>138.0</ele><time>2026-04-04T13:55:16.92Z</time></trkpt><trkpt lat="43.1351034" lon="11.4750966"><ele>138.0</ele><time>2026-04-04T13:55:17.919Z</time></trkpt><trkpt lat="43.1350613" lon="11.4748941"><ele>138.0</ele><time>2026-04-04T13:55:18.919Z</time></trkpt><trkpt lat="43.1350195" lon="11.4746885"><ele>138.0</ele><time>2026-04-04T13:55:19.909Z</time></trkpt><trkpt lat="43.1349796" lon="11.4744843"><ele>138.0</ele><time>2026-04-04T13:55:20.915Z</time></trkpt><trkpt lat="43.134942" lon="11.4742705"><ele>138.0</ele><time>2026-04-04T13:55:21.917Z</time></trkpt><trkpt lat="43.1348999" lon="11.4740547"><ele>138.0</ele><time>2026-04-04T13:55:22.918Z</time></trkpt><trkpt lat="43.1348561" lon="11.4738412"><ele>138.0</ele><time>2026-04-04T13:55:23.911Z</time></trkpt><trkpt lat="43.1348137" lon="11.4736247"><ele>138.0</ele><time>2026-04-04T13:55:24.918Z</time></trkpt><trkpt lat="43.1347727" lon="11.4734041"><ele>138.0</ele><time>2026-04-04T13:55:25.914Z</time></trkpt><trkpt lat="43.1347299" lon="11.4731815"><ele>138.0</ele><time>2026-04-04T13:55:26.918Z</time></trkpt><trkpt lat="43.1346886" lon="11.4729622"><ele>138.0</ele><time>2026-04-04T13:55:27.912Z</time></trkpt><trkpt lat="43.1346505" lon="11.4727539"><ele>138.0</ele><time>2026-04-04T13:55:28.921Z</time></trkpt><trkpt lat="43.1346127" lon="11.4725481"><ele>138.0</ele><time>2026-04-04T13:55:29.918Z</time></trkpt><trkpt lat="43.1345808" lon="11.4723586"><ele>138.0</ele><time>2026-04-04T13:55:30.919Z</time></trkpt><trkpt lat="43.1345474" lon="11.4721699"><ele>138.0</ele><time>2026-04-04T13:55:31.919Z</time></trkpt><trkpt lat="43.1345114" lon="11.4719938"><ele>138.0</ele><time>2026-04-04T13:55:32.918Z</time></trkpt><trkpt lat="43.1344831" lon="11.4718251"><ele>138.0</ele><time>2026-04-04T13:55:33.917Z</time></trkpt><trkpt lat="43.1344518" lon="11.4716715"><ele>138.0</ele><time>2026-04-04T13:55:34.909Z</time></trkpt><trkpt lat="43.1344263" lon="11.4715355"><ele>138.0</ele><time>2026-04-04T13:55:35.919Z</time></trkpt><trkpt lat="43.1344177" lon="11.4714283"><ele>138.0</ele><time>2026-04-04T13:55:36.91Z</time></trkpt><trkpt lat="43.1344656" lon="11.4712908"><ele>138.0</ele><time>2026-04-04T13:55:38.92Z</time></trkpt><trkpt lat="43.1345812" lon="11.471209"><ele>138.0</ele><time>2026-04-04T13:55:40.904Z</time></trkpt><trkpt lat="43.134659" lon="11.4711838"><ele>138.4</ele><time>2026-04-04T13:55:41.908Z</time></trkpt><trkpt lat="43.1347415" lon="11.4711453"><ele>138.8</ele><time>2026-04-04T13:55:42.905Z</time></trkpt><trkpt lat="43.134839" lon="11.4710989"><ele>139.2</ele><time>2026-04-04T13:55:43.916Z</time></trkpt><trkpt lat="43.1349385" lon="11.4710486"><ele>139.6</ele><time>2026-04-04T13:55:44.917Z</time></trkpt><trkpt lat="43.1350392" lon="11.4709922"><ele>140.0</ele><time>2026-04-04T13:55:45.905Z</time></trkpt><trkpt lat="43.135141" lon="11.4709341"><ele>140.0</ele><time>2026-04-04T13:55:46.903Z</time></trkpt><trkpt lat="43.1352442" lon="11.4708792"><ele>140.0</ele><time>2026-04-04T13:55:47.902Z</time></trkpt><trkpt lat="43.1353477" lon="11.4708237"><ele>140.0</ele><time>2026-04-04T13:55:48.913Z</time></trkpt><trkpt lat="43.1354515" lon="11.4707631"><ele>140.0</ele><time>2026-04-04T13:55:49.912Z</time></trkpt><trkpt lat="43.1355518" lon="11.4707036"><ele>140.0</ele><time>2026-04-04T13:55:50.924Z</time></trkpt><trkpt lat="43.1356494" lon="11.4706515"><ele>140.2</ele><time>2026-04-04T13:55:51.917Z</time></trkpt><trkpt lat="43.1357554" lon="11.4706"><ele>140.4</ele><time>2026-04-04T13:55:52.917Z</time></trkpt><trkpt lat="43.1358612" lon="11.4705418"><ele>140.6</ele><time>2026-04-04T13:55:53.908Z</time></trkpt><trkpt lat="43.1359589" lon="11.470481"><ele>140.8</ele><time>2026-04-04T13:55:54.926Z</time></trkpt><trkpt lat="43.1360638" lon="11.4704188"><ele>141.0</ele><time>2026-04-04T13:55:55.919Z</time></trkpt><trkpt lat="43.1361688" lon="11.4703624"><ele>141.0</ele><time>2026-04-04T13:55:56.908Z</time></trkpt><trkpt lat="43.1362765" lon="11.4703005"><ele>141.0</ele><time>2026-04-04T13:55:57.924Z</time></trkpt><trkpt lat="43.1363848" lon="11.4702412"><ele>141.0</ele><time>2026-04-04T13:55:58.915Z</time></trkpt><trkpt lat="43.1364868" lon="11.4701748"><ele>141.0</ele><time>2026-04-04T13:55:59.915Z</time></trkpt><trkpt lat="43.1365896" lon="11.4701198"><ele>140.8</ele><time>2026-04-04T13:56:00.914Z</time></trkpt><trkpt lat="43.1366909" lon="11.4700601"><ele>140.6</ele><time>2026-04-04T13:56:01.914Z</time></trkpt><trkpt lat="43.136792" lon="11.4699995"><ele>140.4</ele><time>2026-04-04T13:56:02.911Z</time></trkpt><trkpt lat="43.1368908" lon="11.4699424"><ele>140.2</ele><time>2026-04-04T13:56:03.914Z</time></trkpt><trkpt lat="43.1369905" lon="11.4698831"><ele>140.0</ele><time>2026-04-04T13:56:04.915Z</time></trkpt><trkpt lat="43.1370931" lon="11.4698266"><ele>140.0</ele><time>2026-04-04T13:56:05.916Z</time></trkpt><trkpt lat="43.1371947" lon="11.4697704"><ele>140.0</ele><time>2026-04-04T13:56:06.915Z</time></trkpt><trkpt lat="43.1372969" lon="11.4697125"><ele>140.0</ele><time>2026-04-04T13:56:07.913Z</time></trkpt><trkpt lat="43.137394" lon="11.4696445"><ele>140.0</ele><time>2026-04-04T13:56:08.913Z</time></trkpt><trkpt lat="43.1374889" lon="11.4695648"><ele>140.0</ele><time>2026-04-04T13:56:09.916Z</time></trkpt><trkpt lat="43.1375798" lon="11.4694808"><ele>140.2</ele><time>2026-04-04T13:56:10.912Z</time></trkpt><trkpt lat="43.1376722" lon="11.4693983"><ele>140.4</ele><time>2026-04-04T13:56:11.918Z</time></trkpt><trkpt lat="43.1377614" lon="11.4693112"><ele>140.6</ele><time>2026-04-04T13:56:12.913Z</time></trkpt><trkpt lat="43.137853" lon="11.4692195"><ele>140.8</ele><time>2026-04-04T13:56:13.914Z</time></trkpt><trkpt lat="43.1379434" lon="11.4691226"><ele>141.0</ele><time>2026-04-04T13:56:14.915Z</time></trkpt><trkpt lat="43.1380315" lon="11.4690269"><ele>141.0</ele><time>2026-04-04T13:56:15.918Z</time></trkpt><trkpt lat="43.1381254" lon="11.4689341"><ele>141.0</ele><time>2026-04-04T13:56:16.915Z</time></trkpt><trkpt lat="43.1382206" lon="11.4688407"><ele>141.0</ele><time>2026-04-04T13:56:17.916Z</time></trkpt><trkpt lat="43.1383158" lon="11.468746"><ele>141.0</ele><time>2026-04-04T13:56:18.914Z</time></trkpt><trkpt lat="43.1384098" lon="11.468651"><ele>140.75</ele><time>2026-04-04T13:56:19.914Z</time></trkpt><trkpt lat="43.1385037" lon="11.4685542"><ele>140.5</ele><time>2026-04-04T13:56:20.912Z</time></trkpt><trkpt lat="43.1385929" lon="11.4684572"><ele>140.25</ele><time>2026-04-04T13:56:21.916Z</time></trkpt><trkpt lat="43.1386899" lon="11.4683602"><ele>140.0</ele><time>2026-04-04T13:56:22.908Z</time></trkpt><trkpt lat="43.1387889" lon="11.4682576"><ele>140.0</ele><time>2026-04-04T13:56:23.925Z</time></trkpt><trkpt lat="43.1388862" lon="11.4681546"><ele>140.0</ele><time>2026-04-04T13:56:24.918Z</time></trkpt><trkpt lat="43.1389816" lon="11.4680528"><ele>140.0</ele><time>2026-04-04T13:56:25.912Z</time></trkpt><trkpt lat="43.1390769" lon="11.4679492"><ele>140.0</ele><time>2026-04-04T13:56:26.913Z</time></trkpt><trkpt lat="43.139173" lon="11.4678488"><ele>140.5</ele><time>2026-04-04T13:56:27.919Z</time></trkpt><trkpt lat="43.139266" lon="11.4677534"><ele>141.0</ele><time>2026-04-04T13:56:28.92Z</time></trkpt><trkpt lat="43.1393622" lon="11.4676494"><ele>141.5</ele><time>2026-04-04T13:56:29.909Z</time></trkpt><trkpt lat="43.1394583" lon="11.4675457"><ele>142.0</ele><time>2026-04-04T13:56:30.924Z</time></trkpt><trkpt lat="43.1395583" lon="11.4674474"><ele>142.0</ele><time>2026-04-04T13:56:31.917Z</time></trkpt><trkpt lat="43.1396545" lon="11.4673484"><ele>142.0</ele><time>2026-04-04T13:56:32.904Z</time></trkpt><trkpt lat="43.1397521" lon="11.4672536"><ele>142.0</ele><time>2026-04-04T13:56:33.911Z</time></trkpt><trkpt lat="43.1398459" lon="11.467158"><ele>142.0</ele><time>2026-04-04T13:56:34.912Z</time></trkpt><trkpt lat="43.1399445" lon="11.4670617"><ele>142.5</ele><time>2026-04-04T13:56:35.928Z</time></trkpt><trkpt lat="43.1400411" lon="11.4669654"><ele>143.0</ele><time>2026-04-04T13:56:36.912Z</time></trkpt><trkpt lat="43.1401346" lon="11.4668626"><ele>143.5</ele><time>2026-04-04T13:56:37.917Z</time></trkpt><trkpt lat="43.1402296" lon="11.4667607"><ele>144.0</ele><time>2026-04-04T13:56:38.92Z</time></trkpt><trkpt lat="43.1403209" lon="11.4666654"><ele>144.0</ele><time>2026-04-04T13:56:39.913Z</time></trkpt><trkpt lat="43.1404162" lon="11.4665622"><ele>144.0</ele><time>2026-04-04T13:56:40.907Z</time></trkpt><trkpt lat="43.1405123" lon="11.4664637"><ele>144.0</ele><time>2026-04-04T13:56:41.92Z</time></trkpt><trkpt lat="43.1406065" lon="11.4663612"><ele>144.0</ele><time>2026-04-04T13:56:42.917Z</time></trkpt><trkpt lat="43.1406992" lon="11.4662588"><ele>143.75</ele><time>2026-04-04T13:56:43.909Z</time></trkpt><trkpt lat="43.1407907" lon="11.4661597"><ele>143.5</ele><time>2026-04-04T13:56:44.914Z</time></trkpt><trkpt lat="43.1408847" lon="11.4660574"><ele>143.25</ele><time>2026-04-04T13:56:45.908Z</time></trkpt><trkpt lat="43.1409781" lon="11.4659564"><ele>143.0</ele><time>2026-04-04T13:56:46.917Z</time></trkpt><trkpt lat="43.1410768" lon="11.4658543"><ele>143.0</ele><time>2026-04-04T13:56:47.91Z</time></trkpt><trkpt lat="43.1411721" lon="11.4657591"><ele>143.0</ele><time>2026-04-04T13:56:48.912Z</time></trkpt><trkpt lat="43.1412655" lon="11.4656628"><ele>143.0</ele><time>2026-04-04T13:56:49.918Z</time></trkpt><trkpt lat="43.1413586" lon="11.4655587"><ele>143.0</ele><time>2026-04-04T13:56:50.914Z</time></trkpt><trkpt lat="43.141458" lon="11.4654548"><ele>143.5</ele><time>2026-04-04T13:56:51.919Z</time></trkpt><trkpt lat="43.1415506" lon="11.4653557"><ele>144.0</ele><time>2026-04-04T13:56:52.922Z</time></trkpt><trkpt lat="43.1416467" lon="11.4652565"><ele>144.5</ele><time>2026-04-04T13:56:53.912Z</time></trkpt><trkpt lat="43.1417434" lon="11.4651578"><ele>145.0</ele><time>2026-04-04T13:56:54.914Z</time></trkpt><trkpt lat="43.1418385" lon="11.4650553"><ele>145.0</ele><time>2026-04-04T13:56:55.921Z</time></trkpt><trkpt lat="43.1419339" lon="11.464953"><ele>145.0</ele><time>2026-04-04T13:56:56.913Z</time></trkpt><trkpt lat="43.142031" lon="11.4648524"><ele>145.0</ele><time>2026-04-04T13:56:57.913Z</time></trkpt><trkpt lat="43.1421236" lon="11.464755"><ele>145.0</ele><time>2026-04-04T13:56:58.907Z</time></trkpt><trkpt lat="43.1422208" lon="11.4646532"><ele>145.25</ele><time>2026-04-04T13:56:59.912Z</time></trkpt><trkpt lat="43.1423134" lon="11.4645512"><ele>145.5</ele><time>2026-04-04T13:57:00.905Z</time></trkpt><trkpt lat="43.1424079" lon="11.4644506"><ele>145.75</ele><time>2026-04-04T13:57:01.92Z</time></trkpt><trkpt lat="43.1424977" lon="11.4643414"><ele>146.0</ele><time>2026-04-04T13:57:02.919Z</time></trkpt><trkpt lat="43.1425822" lon="11.4642202"><ele>146.0</ele><time>2026-04-04T13:57:03.917Z</time></trkpt><trkpt lat="43.1426667" lon="11.4640931"><ele>146.0</ele><time>2026-04-04T13:57:04.94Z</time></trkpt><trkpt lat="43.142747" lon="11.4639544"><ele>146.0</ele><time>2026-04-04T13:57:05.927Z</time></trkpt><trkpt lat="43.1428167" lon="11.4638058"><ele>146.0</ele><time>2026-04-04T13:57:06.918Z</time></trkpt><trkpt lat="43.1428847" lon="11.46365"><ele>146.25</ele><time>2026-04-04T13:57:07.915Z</time></trkpt><trkpt lat="43.1429544" lon="11.4635002"><ele>146.5</ele><time>2026-04-04T13:57:08.912Z</time></trkpt><trkpt lat="43.1430212" lon="11.4633447"><ele>146.75</ele><time>2026-04-04T13:57:09.916Z</time></trkpt><trkpt lat="43.1430913" lon="11.4631842"><ele>147.0</ele><time>2026-04-04T13:57:10.919Z</time></trkpt><trkpt lat="43.1431625" lon="11.4630137"><ele>148.25</ele><time>2026-04-04T13:57:11.913Z</time></trkpt><trkpt lat="43.1432295" lon="11.4628422"><ele>149.5</ele><time>2026-04-04T13:57:12.915Z</time></trkpt><trkpt lat="43.1432986" lon="11.4626682"><ele>150.75</ele><time>2026-04-04T13:57:13.919Z</time></trkpt><trkpt lat="43.1433676" lon="11.4624899"><ele>152.0</ele><time>2026-04-04T13:57:14.909Z</time></trkpt><trkpt lat="43.143436" lon="11.4623157"><ele>152.0</ele><time>2026-04-04T13:57:15.918Z</time></trkpt><trkpt lat="43.1435096" lon="11.4621507"><ele>152.0</ele><time>2026-04-04T13:57:16.919Z</time></trkpt><trkpt lat="43.1435944" lon="11.4620153"><ele>152.0</ele><time>2026-04-04T13:57:17.924Z</time></trkpt><trkpt lat="43.1436879" lon="11.4618922"><ele>152.0</ele><time>2026-04-04T13:57:18.917Z</time></trkpt><trkpt lat="43.1437926" lon="11.4617881"><ele>151.5</ele><time>2026-04-04T13:57:19.924Z</time></trkpt><trkpt lat="43.1439065" lon="11.4616906"><ele>151.0</ele><time>2026-04-04T13:57:20.915Z</time></trkpt><trkpt lat="43.1440281" lon="11.4616068"><ele>150.5</ele><time>2026-04-04T13:57:21.916Z</time></trkpt><trkpt lat="43.1441637" lon="11.4615296"><ele>150.0</ele><time>2026-04-04T13:57:22.913Z</time></trkpt><trkpt lat="43.1442993" lon="11.4614571"><ele>151.5</ele><time>2026-04-04T13:57:23.914Z</time></trkpt><trkpt lat="43.1444323" lon="11.4613915"><ele>153.0</ele><time>2026-04-04T13:57:24.914Z</time></trkpt><trkpt lat="43.1445634" lon="11.46133"><ele>154.5</ele><time>2026-04-04T13:57:25.918Z</time></trkpt><trkpt lat="43.1446873" lon="11.4612717"><ele>156.0</ele><time>2026-04-04T13:57:26.921Z</time></trkpt><trkpt lat="43.1448058" lon="11.46121"><ele>157.5</ele><time>2026-04-04T13:57:27.913Z</time></trkpt><trkpt lat="43.1449204" lon="11.4611516"><ele>159.0</ele><time>2026-04-04T13:57:28.923Z</time></trkpt><trkpt lat="43.1450306" lon="11.4610933"><ele>160.5</ele><time>2026-04-04T13:57:29.916Z</time></trkpt><trkpt lat="43.1451342" lon="11.4610202"><ele>162.0</ele><time>2026-04-04T13:57:30.912Z</time></trkpt><trkpt lat="43.1452129" lon="11.4609482"><ele>162.0</ele><time>2026-04-04T13:57:31.906Z</time></trkpt><trkpt lat="43.1452766" lon="11.4608949"><ele>162.0</ele><time>2026-04-04T13:57:32.916Z</time></trkpt><trkpt lat="43.1453635" lon="11.4608295"><ele>162.0</ele><time>2026-04-04T13:57:34.907Z</time></trkpt><trkpt lat="43.14547" lon="11.4608042"><ele>162.0</ele><time>2026-04-04T13:57:36.919Z</time></trkpt><trkpt lat="43.1455344" lon="11.460806"><ele>162.0</ele><time>2026-04-04T13:57:37.915Z</time></trkpt><trkpt lat="43.1456086" lon="11.4608019"><ele>162.0</ele><time>2026-04-04T13:57:38.915Z</time></trkpt><trkpt lat="43.1456962" lon="11.4607892"><ele>162.2</ele><time>2026-04-04T13:57:39.91Z</time></trkpt><trkpt lat="43.1457957" lon="11.4607724"><ele>162.39999999999998</ele><time>2026-04-04T13:57:40.914Z</time></trkpt><trkpt lat="43.1458978" lon="11.4607506"><ele>162.60000000000002</ele><time>2026-04-04T13:57:41.909Z</time></trkpt><trkpt lat="43.1460044" lon="11.4607166"><ele>162.8</ele><time>2026-04-04T13:57:42.912Z</time></trkpt><trkpt lat="43.1461116" lon="11.4606885"><ele>163.0</ele><time>2026-04-04T13:57:43.909Z</time></trkpt><trkpt lat="43.1462236" lon="11.4606532"><ele>163.0</ele><time>2026-04-04T13:57:44.91Z</time></trkpt><trkpt lat="43.1463359" lon="11.4606138"><ele>163.0</ele><time>2026-04-04T13:57:45.912Z</time></trkpt><trkpt lat="43.1464527" lon="11.4605772"><ele>163.0</ele><time>2026-04-04T13:57:46.917Z</time></trkpt><trkpt lat="43.1465749" lon="11.4605356"><ele>163.0</ele><time>2026-04-04T13:57:47.916Z</time></trkpt><trkpt lat="43.1467" lon="11.4604989"><ele>162.75</ele><time>2026-04-04T13:57:48.915Z</time></trkpt><trkpt lat="43.1468365" lon="11.4604519"><ele>162.5</ele><time>2026-04-04T13:57:49.906Z</time></trkpt><trkpt lat="43.1469729" lon="11.4604114"><ele>162.25</ele><time>2026-04-04T13:57:50.917Z</time></trkpt><trkpt lat="43.1471184" lon="11.4603691"><ele>162.0</ele><time>2026-04-04T13:57:51.915Z</time></trkpt><trkpt lat="43.1472677" lon="11.4603325"><ele>159.33333333333334</ele><time>2026-04-04T13:57:52.912Z</time></trkpt><trkpt lat="43.147421" lon="11.4602957"><ele>156.66666666666669</ele><time>2026-04-04T13:57:53.916Z</time></trkpt><trkpt lat="43.1475712" lon="11.4602724"><ele>154.0</ele><time>2026-04-04T13:57:54.916Z</time></trkpt><trkpt lat="43.1477171" lon="11.4602576"><ele>154.0</ele><time>2026-04-04T13:57:55.919Z</time></trkpt><trkpt lat="43.1478624" lon="11.4602723"><ele>154.0</ele><time>2026-04-04T13:57:56.914Z</time></trkpt><trkpt lat="43.1479944" lon="11.4603068"><ele>154.0</ele><time>2026-04-04T13:57:57.914Z</time></trkpt><trkpt lat="43.1481176" lon="11.4603543"><ele>154.0</ele><time>2026-04-04T13:57:58.92Z</time></trkpt><trkpt lat="43.1482291" lon="11.4604222"><ele>153.6</ele><time>2026-04-04T13:57:59.915Z</time></trkpt><trkpt lat="43.1483209" lon="11.4605012"><ele>153.2</ele><time>2026-04-04T13:58:00.911Z</time></trkpt><trkpt lat="43.1484004" lon="11.4605951"><ele>152.79999999999998</ele><time>2026-04-04T13:58:01.918Z</time></trkpt><trkpt lat="43.1484663" lon="11.4607085"><ele>152.4</ele><time>2026-04-04T13:58:02.918Z</time></trkpt><trkpt lat="43.1485339" lon="11.4608457"><ele>152.0</ele><time>2026-04-04T13:58:03.915Z</time></trkpt><trkpt lat="43.1486" lon="11.4609957"><ele>152.0</ele><time>2026-04-04T13:58:04.908Z</time></trkpt><trkpt lat="43.1486656" lon="11.4611542"><ele>152.0</ele><time>2026-04-04T13:58:05.911Z</time></trkpt><trkpt lat="43.148736" lon="11.4613247"><ele>152.0</ele><time>2026-04-04T13:58:06.918Z</time></trkpt><trkpt lat="43.1488078" lon="11.4615073"><ele>152.0</ele><time>2026-04-04T13:58:07.919Z</time></trkpt><trkpt lat="43.1488826" lon="11.4616933"><ele>151.33333333333331</ele><time>2026-04-04T13:58:08.914Z</time></trkpt><trkpt lat="43.1489623" lon="11.4618803"><ele>150.66666666666666</ele><time>2026-04-04T13:58:09.909Z</time></trkpt><trkpt lat="43.1490412" lon="11.4620633"><ele>150.0</ele><time>2026-04-04T13:58:10.911Z</time></trkpt><trkpt lat="43.1491147" lon="11.4622367"><ele>148.25</ele><time>2026-04-04T13:58:11.919Z</time></trkpt><trkpt lat="43.1491895" lon="11.4623985"><ele>146.5</ele><time>2026-04-04T13:58:12.912Z</time></trkpt><trkpt lat="43.1492668" lon="11.4625422"><ele>144.75</ele><time>2026-04-04T13:58:13.92Z</time></trkpt><trkpt lat="43.1493479" lon="11.4626735"><ele>143.0</ele><time>2026-04-04T13:58:14.913Z</time></trkpt><trkpt lat="43.1494304" lon="11.4627923"><ele>143.0</ele><time>2026-04-04T13:58:15.918Z</time></trkpt><trkpt lat="43.1495156" lon="11.4628926"><ele>143.0</ele><time>2026-04-04T13:58:16.911Z</time></trkpt><trkpt lat="43.1496088" lon="11.4629838"><ele>143.0</ele><time>2026-04-04T13:58:17.914Z</time></trkpt><trkpt lat="43.1496986" lon="11.4630567"><ele>143.0</ele><time>2026-04-04T13:58:18.921Z</time></trkpt><trkpt lat="43.1497986" lon="11.4630997"><ele>143.0</ele><time>2026-04-04T13:58:19.917Z</time></trkpt><trkpt lat="43.1499025" lon="11.4631142"><ele>143.25</ele><time>2026-04-04T13:58:20.914Z</time></trkpt><trkpt lat="43.1500047" lon="11.4631004"><ele>143.5</ele><time>2026-04-04T13:58:21.912Z</time></trkpt><trkpt lat="43.1501128" lon="11.4630647"><ele>143.75</ele><time>2026-04-04T13:58:22.916Z</time></trkpt><trkpt lat="43.150218" lon="11.4630088"><ele>144.0</ele><time>2026-04-04T13:58:23.913Z</time></trkpt><trkpt lat="43.1503311" lon="11.4629404"><ele>144.0</ele><time>2026-04-04T13:58:24.909Z</time></trkpt><trkpt lat="43.1504555" lon="11.4628617"><ele>144.0</ele><time>2026-04-04T13:58:25.918Z</time></trkpt><trkpt lat="43.150593" lon="11.4627802"><ele>144.0</ele><time>2026-04-04T13:58:26.921Z</time></trkpt><trkpt lat="43.1507349" lon="11.4626983"><ele>144.0</ele><time>2026-04-04T13:58:27.92Z</time></trkpt><trkpt lat="43.1508854" lon="11.4626138"><ele>144.0</ele><time>2026-04-04T13:58:28.911Z</time></trkpt><trkpt lat="43.151049" lon="11.4625278"><ele>144.0</ele><time>2026-04-04T13:58:29.92Z</time></trkpt><trkpt lat="43.1512231" lon="11.4624355"><ele>144.0</ele><time>2026-04-04T13:58:30.91Z</time></trkpt><trkpt lat="43.1513994" lon="11.4623486"><ele>144.33333333333334</ele><time>2026-04-04T13:58:31.912Z</time></trkpt><trkpt lat="43.1515767" lon="11.46226"><ele>144.66666666666669</ele><time>2026-04-04T13:58:32.913Z</time></trkpt><trkpt lat="43.1517586" lon="11.4621581"><ele>145.0</ele><time>2026-04-04T13:58:33.918Z</time></trkpt><trkpt lat="43.151948" lon="11.4620556"><ele>145.0</ele><time>2026-04-04T13:58:34.91Z</time></trkpt><trkpt lat="43.1521378" lon="11.4619549"><ele>145.0</ele><time>2026-04-04T13:58:35.918Z</time></trkpt><trkpt lat="43.1523317" lon="11.4618495"><ele>145.0</ele><time>2026-04-04T13:58:36.917Z</time></trkpt><trkpt lat="43.1525337" lon="11.4617441"><ele>145.0</ele><time>2026-04-04T13:58:37.905Z</time></trkpt><trkpt lat="43.1527388" lon="11.461636"><ele>145.0</ele><time>2026-04-04T13:58:38.904Z</time></trkpt><trkpt lat="43.1529464" lon="11.4615319"><ele>145.0</ele><time>2026-04-04T13:58:39.919Z</time></trkpt><trkpt lat="43.1531578" lon="11.4614211"><ele>144.5</ele><time>2026-04-04T13:58:40.922Z</time></trkpt><trkpt lat="43.1533704" lon="11.4613146"><ele>144.0</ele><time>2026-04-04T13:58:41.907Z</time></trkpt><trkpt lat="43.1535877" lon="11.4611959"><ele>145.5</ele><time>2026-04-04T13:58:42.919Z</time></trkpt><trkpt lat="43.1538062" lon="11.4610842"><ele>147.0</ele><time>2026-04-04T13:58:43.918Z</time></trkpt><trkpt lat="43.1540226" lon="11.4609786"><ele>146.5</ele><time>2026-04-04T13:58:44.913Z</time></trkpt><trkpt lat="43.1542387" lon="11.4608685"><ele>146.0</ele><time>2026-04-04T13:58:45.92Z</time></trkpt><trkpt lat="43.1544558" lon="11.460751"><ele>146.0</ele><time>2026-04-04T13:58:46.918Z</time></trkpt><trkpt lat="43.1546767" lon="11.4606348"><ele>146.0</ele><time>2026-04-04T13:58:47.914Z</time></trkpt><trkpt lat="43.1548971" lon="11.4605177"><ele>146.0</ele><time>2026-04-04T13:58:48.919Z</time></trkpt><trkpt lat="43.155125" lon="11.4603959"><ele>146.0</ele><time>2026-04-04T13:58:49.914Z</time></trkpt><trkpt lat="43.1553518" lon="11.4602757"><ele>146.0</ele><time>2026-04-04T13:58:50.91Z</time></trkpt><trkpt lat="43.1555812" lon="11.4601521"><ele>146.0</ele><time>2026-04-04T13:58:51.922Z</time></trkpt><trkpt lat="43.1558136" lon="11.460032"><ele>146.0</ele><time>2026-04-04T13:58:52.919Z</time></trkpt><trkpt lat="43.1560486" lon="11.4599074"><ele>146.0</ele><time>2026-04-04T13:58:53.915Z</time></trkpt><trkpt lat="43.156287" lon="11.4597792"><ele>146.0</ele><time>2026-04-04T13:58:54.915Z</time></trkpt><trkpt lat="43.1565238" lon="11.4596468"><ele>146.0</ele><time>2026-04-04T13:58:55.914Z</time></trkpt><trkpt lat="43.156742" lon="11.4595315"><ele>146.66666666666666</ele><time>2026-04-04T13:58:56.906Z</time></trkpt><trkpt lat="43.1569478" lon="11.4594203"><ele>147.33333333333334</ele><time>2026-04-04T13:58:57.907Z</time></trkpt><trkpt lat="43.157144" lon="11.4593124"><ele>148.0</ele><time>2026-04-04T13:58:58.91Z</time></trkpt><trkpt lat="43.1573333" lon="11.459209"><ele>147.33333333333334</ele><time>2026-04-04T13:58:59.915Z</time></trkpt><trkpt lat="43.1575176" lon="11.4591099"><ele>146.66666666666666</ele><time>2026-04-04T13:59:00.915Z</time></trkpt><trkpt lat="43.157705" lon="11.4590155"><ele>146.0</ele><time>2026-04-04T13:59:01.913Z</time></trkpt><trkpt lat="43.1578829" lon="11.458922"><ele>146.0</ele><time>2026-04-04T13:59:02.913Z</time></trkpt><trkpt lat="43.1580598" lon="11.4588274"><ele>146.0</ele><time>2026-04-04T13:59:03.911Z</time></trkpt><trkpt lat="43.1582334" lon="11.4587323"><ele>146.0</ele><time>2026-04-04T13:59:04.909Z</time></trkpt><trkpt lat="43.1584014" lon="11.4586346"><ele>145.66666666666666</ele><time>2026-04-04T13:59:05.906Z</time></trkpt><trkpt lat="43.1585716" lon="11.4585432"><ele>145.33333333333334</ele><time>2026-04-04T13:59:06.907Z</time></trkpt><trkpt lat="43.1587452" lon="11.4584523"><ele>145.0</ele><time>2026-04-04T13:59:07.916Z</time></trkpt><trkpt lat="43.1589178" lon="11.458361"><ele>145.33333333333334</ele><time>2026-04-04T13:59:08.912Z</time></trkpt><trkpt lat="43.1590891" lon="11.4582757"><ele>145.66666666666666</ele><time>2026-04-04T13:59:09.915Z</time></trkpt><trkpt lat="43.1592589" lon="11.4581941"><ele>146.0</ele><time>2026-04-04T13:59:10.917Z</time></trkpt><trkpt lat="43.1594215" lon="11.4581103"><ele>146.0</ele><time>2026-04-04T13:59:11.907Z</time></trkpt><trkpt lat="43.1595774" lon="11.4580313"><ele>146.0</ele><time>2026-04-04T13:59:12.915Z</time></trkpt><trkpt lat="43.1597286" lon="11.4579492"><ele>146.0</ele><time>2026-04-04T13:59:13.911Z</time></trkpt><trkpt lat="43.1598725" lon="11.4578739"><ele>146.0</ele><time>2026-04-04T13:59:14.917Z</time></trkpt><trkpt lat="43.1600043" lon="11.4578024"><ele>146.0</ele><time>2026-04-04T13:59:15.921Z</time></trkpt><trkpt lat="43.1601205" lon="11.4577342"><ele>146.0</ele><time>2026-04-04T13:59:16.919Z</time></trkpt><trkpt lat="43.1602144" lon="11.4576667"><ele>146.0</ele><time>2026-04-04T13:59:17.916Z</time></trkpt><trkpt lat="43.1602965" lon="11.4575922"><ele>146.0</ele><time>2026-04-04T13:59:18.916Z</time></trkpt><trkpt lat="43.1603618" lon="11.4575038"><ele>146.0</ele><time>2026-04-04T13:59:19.915Z</time></trkpt><trkpt lat="43.1604148" lon="11.4574004"><ele>146.0</ele><time>2026-04-04T13:59:20.912Z</time></trkpt><trkpt lat="43.1604437" lon="11.457274"><ele>146.0</ele><time>2026-04-04T13:59:21.909Z</time></trkpt><trkpt lat="43.1604626" lon="11.4571459"><ele>146.0</ele><time>2026-04-04T13:59:22.911Z</time></trkpt><trkpt lat="43.1604926" lon="11.4570207"><ele>146.4</ele><time>2026-04-04T13:59:23.911Z</time></trkpt><trkpt lat="43.1605349" lon="11.4569219"><ele>146.8</ele><time>2026-04-04T13:59:24.911Z</time></trkpt><trkpt lat="43.1605881" lon="11.4568675"><ele>147.20000000000002</ele><time>2026-04-04T13:59:25.914Z</time></trkpt><trkpt lat="43.1606957" lon="11.4568274"><ele>147.6</ele><time>2026-04-04T13:59:27.911Z</time></trkpt><trkpt lat="43.1607946" lon="11.4569027"><ele>148.0</ele><time>2026-04-04T13:59:29.916Z</time></trkpt><trkpt lat="43.1608387" lon="11.4569891"><ele>148.0</ele><time>2026-04-04T13:59:30.914Z</time></trkpt><trkpt lat="43.1608761" lon="11.457081"><ele>148.0</ele><time>2026-04-04T13:59:31.911Z</time></trkpt><trkpt lat="43.1609038" lon="11.4571801"><ele>148.0</ele><time>2026-04-04T13:59:32.916Z</time></trkpt><trkpt lat="43.1609337" lon="11.4572928"><ele>148.0</ele><time>2026-04-04T13:59:33.909Z</time></trkpt><trkpt lat="43.1609734" lon="11.457416"><ele>148.0</ele><time>2026-04-04T13:59:34.91Z</time></trkpt><trkpt lat="43.1610197" lon="11.4575462"><ele>148.0</ele><time>2026-04-04T13:59:35.916Z</time></trkpt><trkpt lat="43.1610542" lon="11.4576862"><ele>148.0</ele><time>2026-04-04T13:59:36.913Z</time></trkpt><trkpt lat="43.1610855" lon="11.4578445"><ele>148.0</ele><time>2026-04-04T13:59:37.913Z</time></trkpt><trkpt lat="43.1611099" lon="11.4580331"><ele>148.0</ele><time>2026-04-04T13:59:38.909Z</time></trkpt><trkpt lat="43.161127" lon="11.4582445"><ele>148.0</ele><time>2026-04-04T13:59:39.912Z</time></trkpt><trkpt lat="43.1611454" lon="11.4584822"><ele>147.66666666666669</ele><time>2026-04-04T13:59:40.919Z</time></trkpt><trkpt lat="43.1611592" lon="11.4587394"><ele>147.33333333333334</ele><time>2026-04-04T13:59:41.913Z</time></trkpt><trkpt lat="43.1611846" lon="11.4590214"><ele>147.0</ele><time>2026-04-04T13:59:42.906Z</time></trkpt><trkpt lat="43.1612146" lon="11.4592965"><ele>146.66666666666666</ele><time>2026-04-04T13:59:43.923Z</time></trkpt><trkpt lat="43.1612508" lon="11.4595637"><ele>146.33333333333331</ele><time>2026-04-04T13:59:44.912Z</time></trkpt><trkpt lat="43.1612983" lon="11.4598034"><ele>146.0</ele><time>2026-04-04T13:59:45.915Z</time></trkpt><trkpt lat="43.1613436" lon="11.460008"><ele>146.0</ele><time>2026-04-04T13:59:46.911Z</time></trkpt><trkpt lat="43.1614077" lon="11.460183"><ele>146.0</ele><time>2026-04-04T13:59:47.911Z</time></trkpt><trkpt lat="43.1615065" lon="11.4603308"><ele>146.0</ele><time>2026-04-04T13:59:48.909Z</time></trkpt><trkpt lat="43.1616089" lon="11.4604651"><ele>146.0</ele><time>2026-04-04T13:59:49.912Z</time></trkpt><trkpt lat="43.1617324" lon="11.4605895"><ele>145.66666666666666</ele><time>2026-04-04T13:59:50.91Z</time></trkpt><trkpt lat="43.161866" lon="11.4607256"><ele>145.33333333333334</ele><time>2026-04-04T13:59:51.912Z</time></trkpt><trkpt lat="43.162" lon="11.4608676"><ele>145.0</ele><time>2026-04-04T13:59:52.908Z</time></trkpt><trkpt lat="43.1621374" lon="11.4610113"><ele>145.0</ele><time>2026-04-04T13:59:53.911Z</time></trkpt><trkpt lat="43.162272" lon="11.4611515"><ele>145.0</ele><time>2026-04-04T13:59:54.909Z</time></trkpt><trkpt lat="43.1623986" lon="11.4612834"><ele>145.0</ele><time>2026-04-04T13:59:55.909Z</time></trkpt><trkpt lat="43.1625172" lon="11.4614111"><ele>144.5</ele><time>2026-04-04T13:59:56.909Z</time></trkpt><trkpt lat="43.1626365" lon="11.4615353"><ele>144.0</ele><time>2026-04-04T13:59:57.909Z</time></trkpt><trkpt lat="43.1627485" lon="11.461659"><ele>143.5</ele><time>2026-04-04T13:59:58.916Z</time></trkpt><trkpt lat="43.1628684" lon="11.4617782"><ele>143.0</ele><time>2026-04-04T13:59:59.92Z</time></trkpt><trkpt lat="43.1629941" lon="11.4618954"><ele>143.0</ele><time>2026-04-04T14:00:00.919Z</time></trkpt><trkpt lat="43.1631193" lon="11.4620014"><ele>143.0</ele><time>2026-04-04T14:00:01.908Z</time></trkpt><trkpt lat="43.1632477" lon="11.4620851"><ele>143.0</ele><time>2026-04-04T14:00:02.911Z</time></trkpt><trkpt lat="43.1633677" lon="11.4621531"><ele>143.0</ele><time>2026-04-04T14:00:03.907Z</time></trkpt><trkpt lat="43.1634705" lon="11.4622229"><ele>143.0</ele><time>2026-04-04T14:00:04.906Z</time></trkpt><trkpt lat="43.1635458" lon="11.4623063"><ele>143.0</ele><time>2026-04-04T14:00:05.914Z</time></trkpt><trkpt lat="43.1635986" lon="11.462403"><ele>143.0</ele><time>2026-04-04T14:00:06.915Z</time></trkpt><trkpt lat="43.1636504" lon="11.4625172"><ele>143.0</ele><time>2026-04-04T14:00:07.917Z</time></trkpt><trkpt lat="43.1637055" lon="11.462625"><ele>143.0</ele><time>2026-04-04T14:00:08.913Z</time></trkpt><trkpt lat="43.16378" lon="11.4627202"><ele>143.0</ele><time>2026-04-04T14:00:09.917Z</time></trkpt><trkpt lat="43.1638808" lon="11.4627967"><ele>143.0</ele><time>2026-04-04T14:00:10.912Z</time></trkpt><trkpt lat="43.163989" lon="11.4628481"><ele>143.0</ele><time>2026-04-04T14:00:11.914Z</time></trkpt><trkpt lat="43.1640941" lon="11.4629076"><ele>143.0</ele><time>2026-04-04T14:00:12.916Z</time></trkpt><trkpt lat="43.1641982" lon="11.462985"><ele>143.20000000000002</ele><time>2026-04-04T14:00:13.918Z</time></trkpt><trkpt lat="43.1642965" lon="11.4630676"><ele>143.4</ele><time>2026-04-04T14:00:14.922Z</time></trkpt><trkpt lat="43.1643724" lon="11.4631391"><ele>143.60000000000002</ele><time>2026-04-04T14:00:15.914Z</time></trkpt><trkpt lat="43.1644449" lon="11.4632033"><ele>143.8</ele><time>2026-04-04T14:00:16.918Z</time></trkpt><trkpt lat="43.1645164" lon="11.4632769"><ele>144.0</ele><time>2026-04-04T14:00:17.926Z</time></trkpt><trkpt lat="43.1645819" lon="11.4633636"><ele>144.0</ele><time>2026-04-04T14:00:18.919Z</time></trkpt><trkpt lat="43.1646558" lon="11.4634537"><ele>144.0</ele><time>2026-04-04T14:00:19.916Z</time></trkpt><trkpt lat="43.164733" lon="11.4635413"><ele>144.0</ele><time>2026-04-04T14:00:20.909Z</time></trkpt><trkpt lat="43.1648138" lon="11.4636353"><ele>144.0</ele><time>2026-04-04T14:00:21.917Z</time></trkpt><trkpt lat="43.1649071" lon="11.4637309"><ele>144.0</ele><time>2026-04-04T14:00:22.912Z</time></trkpt><trkpt lat="43.1650053" lon="11.4638244"><ele>144.25</ele><time>2026-04-04T14:00:23.922Z</time></trkpt><trkpt lat="43.1651131" lon="11.4639147"><ele>144.5</ele><time>2026-04-04T14:00:24.922Z</time></trkpt><trkpt lat="43.165226" lon="11.4639932"><ele>144.75</ele><time>2026-04-04T14:00:25.92Z</time></trkpt><trkpt lat="43.1653378" lon="11.4640698"><ele>145.0</ele><time>2026-04-04T14:00:26.922Z</time></trkpt><trkpt lat="43.1654445" lon="11.4641504"><ele>145.0</ele><time>2026-04-04T14:00:27.924Z</time></trkpt><trkpt lat="43.1655435" lon="11.4642241"><ele>145.0</ele><time>2026-04-04T14:00:28.919Z</time></trkpt><trkpt lat="43.1656326" lon="11.4642849"><ele>145.0</ele><time>2026-04-04T14:00:29.92Z</time></trkpt><trkpt lat="43.1657225" lon="11.4643421"><ele>145.0</ele><time>2026-04-04T14:00:30.918Z</time></trkpt><trkpt lat="43.1658101" lon="11.4644012"><ele>145.0</ele><time>2026-04-04T14:00:31.912Z</time></trkpt><trkpt lat="43.1658962" lon="11.4644497"><ele>145.16666666666669</ele><time>2026-04-04T14:00:32.915Z</time></trkpt><trkpt lat="43.1659738" lon="11.4644678"><ele>145.33333333333334</ele><time>2026-04-04T14:00:33.922Z</time></trkpt><trkpt lat="43.1660538" lon="11.4644449"><ele>145.5</ele><time>2026-04-04T14:00:34.915Z</time></trkpt><trkpt lat="43.1661213" lon="11.4643898"><ele>145.66666666666666</ele><time>2026-04-04T14:00:35.913Z</time></trkpt><trkpt lat="43.1661734" lon="11.4643054"><ele>145.83333333333331</ele><time>2026-04-04T14:00:36.916Z</time></trkpt><trkpt lat="43.1662208" lon="11.4641922"><ele>146.0</ele><time>2026-04-04T14:00:37.913Z</time></trkpt><trkpt lat="43.1662717" lon="11.4640772"><ele>146.0</ele><time>2026-04-04T14:00:38.914Z</time></trkpt><trkpt lat="43.1663365" lon="11.4639644"><ele>146.0</ele><time>2026-04-04T14:00:39.919Z</time></trkpt><trkpt lat="43.1664158" lon="11.4638618"><ele>146.0</ele><time>2026-04-04T14:00:40.916Z</time></trkpt><trkpt lat="43.1665017" lon="11.4637605"><ele>146.0</ele><time>2026-04-04T14:00:41.914Z</time></trkpt><trkpt lat="43.1665916" lon="11.4636715"><ele>146.0</ele><time>2026-04-04T14:00:42.917Z</time></trkpt><trkpt lat="43.1666788" lon="11.4635951"><ele>146.16666666666666</ele><time>2026-04-04T14:00:43.916Z</time></trkpt><trkpt lat="43.1667645" lon="11.4635262"><ele>146.33333333333331</ele><time>2026-04-04T14:00:44.92Z</time></trkpt><trkpt lat="43.1668451" lon="11.463465"><ele>146.5</ele><time>2026-04-04T14:00:45.915Z</time></trkpt><trkpt lat="43.1669097" lon="11.4634266"><ele>146.66666666666666</ele><time>2026-04-04T14:00:46.916Z</time></trkpt><trkpt lat="43.1670162" lon="11.4634491"><ele>146.83333333333334</ele><time>2026-04-04T14:00:48.911Z</time></trkpt><trkpt lat="43.1670758" lon="11.4635071"><ele>147.0</ele><time>2026-04-04T14:00:49.922Z</time></trkpt><trkpt lat="43.1671411" lon="11.4635689"><ele>147.0</ele><time>2026-04-04T14:00:50.924Z</time></trkpt><trkpt lat="43.167211" lon="11.4636472"><ele>147.0</ele><time>2026-04-04T14:00:51.911Z</time></trkpt><trkpt lat="43.1672926" lon="11.4637059"><ele>147.0</ele><time>2026-04-04T14:00:52.912Z</time></trkpt><trkpt lat="43.1673924" lon="11.4637635"><ele>147.0</ele><time>2026-04-04T14:00:53.917Z</time></trkpt><trkpt lat="43.1675003" lon="11.4638182"><ele>147.0</ele><time>2026-04-04T14:00:54.911Z</time></trkpt><trkpt lat="43.1676134" lon="11.4638793"><ele>147.2</ele><time>2026-04-04T14:00:55.92Z</time></trkpt><trkpt lat="43.1677274" lon="11.4639381"><ele>147.39999999999998</ele><time>2026-04-04T14:00:56.909Z</time></trkpt><trkpt lat="43.1678264" lon="11.4639997"><ele>147.60000000000002</ele><time>2026-04-04T14:00:57.912Z</time></trkpt><trkpt lat="43.1679198" lon="11.4640572"><ele>147.8</ele><time>2026-04-04T14:00:58.914Z</time></trkpt><trkpt lat="43.1680067" lon="11.4641068"><ele>148.0</ele><time>2026-04-04T14:00:59.912Z</time></trkpt><trkpt lat="43.1680733" lon="11.4641477"><ele>148.0</ele><time>2026-04-04T14:01:00.909Z</time></trkpt><trkpt lat="43.1681577" lon="11.4642283"><ele>148.0</ele><time>2026-04-04T14:01:02.912Z</time></trkpt><trkpt lat="43.1681603" lon="11.4643302"><ele>148.0</ele><time>2026-04-04T14:01:04.913Z</time></trkpt><trkpt lat="43.1681292" lon="11.4644082"><ele>148.0</ele><time>2026-04-04T14:01:05.905Z</time></trkpt><trkpt lat="43.1680978" lon="11.4644884"><ele>148.0</ele><time>2026-04-04T14:01:06.902Z</time></trkpt><trkpt lat="43.1680689" lon="11.4645726"><ele>148.0</ele><time>2026-04-04T14:01:07.91Z</time></trkpt><trkpt lat="43.1680316" lon="11.4647144"><ele>148.20000000000002</ele><time>2026-04-04T14:01:09.914Z</time></trkpt><trkpt lat="43.1679944" lon="11.4648329"><ele>148.4</ele><time>2026-04-04T14:01:11.92Z</time></trkpt><trkpt lat="43.1679602" lon="11.4649702"><ele>148.60000000000002</ele><time>2026-04-04T14:01:13.906Z</time></trkpt><trkpt lat="43.1679535" lon="11.4650964"><ele>148.8</ele><time>2026-04-04T14:01:15.915Z</time></trkpt><trkpt lat="43.1679769" lon="11.4651908"><ele>149.0</ele><time>2026-04-04T14:01:21.912Z</time></trkpt><trkpt lat="43.1680713" lon="11.465297"><ele>149.0</ele><time>2026-04-04T14:01:23.913Z</time></trkpt><trkpt lat="43.1681375" lon="11.465365"><ele>149.0</ele><time>2026-04-04T14:01:24.911Z</time></trkpt><trkpt lat="43.1682263" lon="11.4654312"><ele>149.0</ele><time>2026-04-04T14:01:25.916Z</time></trkpt><trkpt lat="43.1683356" lon="11.4655003"><ele>149.0</ele><time>2026-04-04T14:01:26.909Z</time></trkpt><trkpt lat="43.1684636" lon="11.4655683"><ele>149.0</ele><time>2026-04-04T14:01:27.908Z</time></trkpt><trkpt lat="43.1685962" lon="11.4656301"><ele>149.0</ele><time>2026-04-04T14:01:28.925Z</time></trkpt><trkpt lat="43.1687322" lon="11.4656813"><ele>149.0</ele><time>2026-04-04T14:01:29.913Z</time></trkpt><trkpt lat="43.1688726" lon="11.4657194"><ele>149.0</ele><time>2026-04-04T14:01:30.912Z</time></trkpt><trkpt lat="43.169012" lon="11.4657449"><ele>149.0</ele><time>2026-04-04T14:01:31.911Z</time></trkpt><trkpt lat="43.1691495" lon="11.4657587"><ele>149.25</ele><time>2026-04-04T14:01:32.912Z</time></trkpt><trkpt lat="43.169285" lon="11.4657648"><ele>149.5</ele><time>2026-04-04T14:01:33.916Z</time></trkpt><trkpt lat="43.1694171" lon="11.4657581"><ele>149.75</ele><time>2026-04-04T14:01:34.91Z</time></trkpt><trkpt lat="43.169548" lon="11.4657503"><ele>150.0</ele><time>2026-04-04T14:01:35.913Z</time></trkpt><trkpt lat="43.1696773" lon="11.4657266"><ele>150.0</ele><time>2026-04-04T14:01:36.919Z</time></trkpt><trkpt lat="43.1698026" lon="11.4656955"><ele>150.0</ele><time>2026-04-04T14:01:37.915Z</time></trkpt><trkpt lat="43.1699298" lon="11.4656612"><ele>150.0</ele><time>2026-04-04T14:01:38.911Z</time></trkpt><trkpt lat="43.1700501" lon="11.4656275"><ele>150.0</ele><time>2026-04-04T14:01:39.919Z</time></trkpt><trkpt lat="43.170165" lon="11.4655867"><ele>149.75</ele><time>2026-04-04T14:01:40.919Z</time></trkpt><trkpt lat="43.1702831" lon="11.4655402"><ele>149.5</ele><time>2026-04-04T14:01:41.918Z</time></trkpt><trkpt lat="43.1704038" lon="11.4654829"><ele>149.25</ele><time>2026-04-04T14:01:42.922Z</time></trkpt><trkpt lat="43.1705207" lon="11.4654327"><ele>149.0</ele><time>2026-04-04T14:01:43.915Z</time></trkpt><trkpt lat="43.1706369" lon="11.4653852"><ele>149.0</ele><time>2026-04-04T14:01:44.907Z</time></trkpt><trkpt lat="43.1707533" lon="11.4653417"><ele>149.0</ele><time>2026-04-04T14:01:45.909Z</time></trkpt><trkpt lat="43.1708693" lon="11.4652878"><ele>149.0</ele><time>2026-04-04T14:01:46.908Z</time></trkpt><trkpt lat="43.1709859" lon="11.4652393"><ele>149.0</ele><time>2026-04-04T14:01:47.908Z</time></trkpt><trkpt lat="43.1711053" lon="11.4651937"><ele>149.0</ele><time>2026-04-04T14:01:48.912Z</time></trkpt><trkpt lat="43.1712236" lon="11.4651539"><ele>149.0</ele><time>2026-04-04T14:01:49.906Z</time></trkpt><trkpt lat="43.1713421" lon="11.4651096"><ele>149.0</ele><time>2026-04-04T14:01:50.916Z</time></trkpt><trkpt lat="43.1714661" lon="11.4650618"><ele>149.0</ele><time>2026-04-04T14:01:51.919Z</time></trkpt><trkpt lat="43.1715916" lon="11.4650122"><ele>148.75</ele><time>2026-04-04T14:01:52.91Z</time></trkpt><trkpt lat="43.1717218" lon="11.4649603"><ele>148.5</ele><time>2026-04-04T14:01:53.907Z</time></trkpt><trkpt lat="43.1718531" lon="11.464908"><ele>148.25</ele><time>2026-04-04T14:01:54.927Z</time></trkpt><trkpt lat="43.1719881" lon="11.4648589"><ele>148.0</ele><time>2026-04-04T14:01:55.92Z</time></trkpt><trkpt lat="43.1721248" lon="11.4648031"><ele>148.0</ele><time>2026-04-04T14:01:56.917Z</time></trkpt><trkpt lat="43.1722602" lon="11.4647498"><ele>148.0</ele><time>2026-04-04T14:01:57.911Z</time></trkpt><trkpt lat="43.1724029" lon="11.4646927"><ele>148.0</ele><time>2026-04-04T14:01:58.916Z</time></trkpt><trkpt lat="43.1725438" lon="11.4646331"><ele>148.0</ele><time>2026-04-04T14:01:59.92Z</time></trkpt><trkpt lat="43.1726919" lon="11.4645792"><ele>148.66666666666669</ele><time>2026-04-04T14:02:00.91Z</time></trkpt><trkpt lat="43.1728396" lon="11.4645216"><ele>149.33333333333334</ele><time>2026-04-04T14:02:01.916Z</time></trkpt><trkpt lat="43.1729913" lon="11.4644674"><ele>150.0</ele><time>2026-04-04T14:02:02.91Z</time></trkpt><trkpt lat="43.1731397" lon="11.4644021"><ele>150.0</ele><time>2026-04-04T14:02:03.92Z</time></trkpt><trkpt lat="43.1732762" lon="11.4643421"><ele>150.0</ele><time>2026-04-04T14:02:04.917Z</time></trkpt><trkpt lat="43.1734151" lon="11.4642823"><ele>150.0</ele><time>2026-04-04T14:02:05.906Z</time></trkpt><trkpt lat="43.1735494" lon="11.4642269"><ele>150.0</ele><time>2026-04-04T14:02:06.91Z</time></trkpt><trkpt lat="43.1736776" lon="11.4641784"><ele>150.0</ele><time>2026-04-04T14:02:07.913Z</time></trkpt><trkpt lat="43.1737995" lon="11.4641376"><ele>150.0</ele><time>2026-04-04T14:02:08.911Z</time></trkpt><trkpt lat="43.1739243" lon="11.4640845"><ele>150.0</ele><time>2026-04-04T14:02:09.91Z</time></trkpt><trkpt lat="43.1740495" lon="11.4640352"><ele>150.0</ele><time>2026-04-04T14:02:10.909Z</time></trkpt><trkpt lat="43.1741806" lon="11.4639802"><ele>149.75</ele><time>2026-04-04T14:02:11.918Z</time></trkpt><trkpt lat="43.1743169" lon="11.4639322"><ele>149.5</ele><time>2026-04-04T14:02:12.918Z</time></trkpt><trkpt lat="43.1744537" lon="11.4638757"><ele>149.25</ele><time>2026-04-04T14:02:13.919Z</time></trkpt><trkpt lat="43.1745989" lon="11.4638165"><ele>149.0</ele><time>2026-04-04T14:02:14.911Z</time></trkpt><trkpt lat="43.1747457" lon="11.4637585"><ele>149.33333333333331</ele><time>2026-04-04T14:02:15.916Z</time></trkpt><trkpt lat="43.1748993" lon="11.4636948"><ele>149.66666666666666</ele><time>2026-04-04T14:02:16.906Z</time></trkpt><trkpt lat="43.1750535" lon="11.4636298"><ele>150.0</ele><time>2026-04-04T14:02:17.916Z</time></trkpt><trkpt lat="43.1752046" lon="11.4635674"><ele>150.0</ele><time>2026-04-04T14:02:18.917Z</time></trkpt><trkpt lat="43.1753628" lon="11.4635064"><ele>150.0</ele><time>2026-04-04T14:02:19.915Z</time></trkpt><trkpt lat="43.1755297" lon="11.4634406"><ele>150.0</ele><time>2026-04-04T14:02:20.914Z</time></trkpt><trkpt lat="43.1756976" lon="11.4633755"><ele>150.66666666666666</ele><time>2026-04-04T14:02:21.918Z</time></trkpt><trkpt lat="43.1758666" lon="11.4633113"><ele>151.33333333333331</ele><time>2026-04-04T14:02:22.92Z</time></trkpt><trkpt lat="43.1760391" lon="11.4632381"><ele>152.0</ele><time>2026-04-04T14:02:23.913Z</time></trkpt><trkpt lat="43.1762138" lon="11.4631687"><ele>152.0</ele><time>2026-04-04T14:02:24.916Z</time></trkpt><trkpt lat="43.1763774" lon="11.4631031"><ele>152.0</ele><time>2026-04-04T14:02:25.915Z</time></trkpt><trkpt lat="43.176532" lon="11.4630407"><ele>152.0</ele><time>2026-04-04T14:02:26.914Z</time></trkpt><trkpt lat="43.1766803" lon="11.4629861"><ele>152.25</ele><time>2026-04-04T14:02:27.913Z</time></trkpt><trkpt lat="43.1768197" lon="11.4629322"><ele>152.5</ele><time>2026-04-04T14:02:28.912Z</time></trkpt><trkpt lat="43.1769501" lon="11.462885"><ele>152.75</ele><time>2026-04-04T14:02:29.916Z</time></trkpt><trkpt lat="43.1770734" lon="11.4628318"><ele>153.0</ele><time>2026-04-04T14:02:30.929Z</time></trkpt><trkpt lat="43.1771922" lon="11.4627804"><ele>153.0</ele><time>2026-04-04T14:02:31.919Z</time></trkpt><trkpt lat="43.1773112" lon="11.4627309"><ele>153.0</ele><time>2026-04-04T14:02:32.918Z</time></trkpt><trkpt lat="43.1774332" lon="11.4626791"><ele>153.0</ele><time>2026-04-04T14:02:33.918Z</time></trkpt><trkpt lat="43.1775536" lon="11.4626334"><ele>153.0</ele><time>2026-04-04T14:02:34.926Z</time></trkpt><trkpt lat="43.1776727" lon="11.4625857"><ele>153.25</ele><time>2026-04-04T14:02:35.908Z</time></trkpt><trkpt lat="43.1777903" lon="11.4625414"><ele>153.5</ele><time>2026-04-04T14:02:36.913Z</time></trkpt><trkpt lat="43.1779074" lon="11.4624986"><ele>153.75</ele><time>2026-04-04T14:02:37.91Z</time></trkpt><trkpt lat="43.1780298" lon="11.4624513"><ele>154.0</ele><time>2026-04-04T14:02:38.909Z</time></trkpt><trkpt lat="43.178157" lon="11.4624295"><ele>153.75</ele><time>2026-04-04T14:02:39.913Z</time></trkpt><trkpt lat="43.1782912" lon="11.4624347"><ele>153.5</ele><time>2026-04-04T14:02:40.917Z</time></trkpt><trkpt lat="43.1784168" lon="11.4624729"><ele>153.25</ele><time>2026-04-04T14:02:41.913Z</time></trkpt><trkpt lat="43.1785435" lon="11.462521"><ele>153.0</ele><time>2026-04-04T14:02:42.91Z</time></trkpt><trkpt lat="43.1786737" lon="11.4625705"><ele>153.0</ele><time>2026-04-04T14:02:43.914Z</time></trkpt><trkpt lat="43.1787998" lon="11.4626173"><ele>153.0</ele><time>2026-04-04T14:02:44.923Z</time></trkpt><trkpt lat="43.1789273" lon="11.4626595"><ele>153.0</ele><time>2026-04-04T14:02:45.905Z</time></trkpt><trkpt lat="43.1790537" lon="11.4627018"><ele>153.0</ele><time>2026-04-04T14:02:46.918Z</time></trkpt><trkpt lat="43.1791815" lon="11.4627454"><ele>154.0</ele><time>2026-04-04T14:02:47.911Z</time></trkpt><trkpt lat="43.179313" lon="11.4627749"><ele>155.0</ele><time>2026-04-04T14:02:48.911Z</time></trkpt><trkpt lat="43.179447" lon="11.4627916"><ele>156.0</ele><time>2026-04-04T14:02:49.911Z</time></trkpt><trkpt lat="43.1795772" lon="11.4627861"><ele>157.0</ele><time>2026-04-04T14:02:50.915Z</time></trkpt><trkpt lat="43.1797103" lon="11.4627466"><ele>157.0</ele><time>2026-04-04T14:02:51.918Z</time></trkpt><trkpt lat="43.1798348" lon="11.462682"><ele>157.0</ele><time>2026-04-04T14:02:52.914Z</time></trkpt><trkpt lat="43.1799509" lon="11.4625905"><ele>157.0</ele><time>2026-04-04T14:02:53.928Z</time></trkpt><trkpt lat="43.1800512" lon="11.4624952"><ele>157.0</ele><time>2026-04-04T14:02:54.916Z</time></trkpt><trkpt lat="43.1801397" lon="11.4623755"><ele>157.25</ele><time>2026-04-04T14:02:55.919Z</time></trkpt><trkpt lat="43.1802143" lon="11.4622343"><ele>157.5</ele><time>2026-04-04T14:02:56.913Z</time></trkpt><trkpt lat="43.1802772" lon="11.4620725"><ele>157.75</ele><time>2026-04-04T14:02:57.912Z</time></trkpt><trkpt lat="43.1803388" lon="11.4619046"><ele>158.0</ele><time>2026-04-04T14:02:58.915Z</time></trkpt><trkpt lat="43.1804009" lon="11.4617337"><ele>159.0</ele><time>2026-04-04T14:02:59.911Z</time></trkpt><trkpt lat="43.1804637" lon="11.4615618"><ele>160.0</ele><time>2026-04-04T14:03:00.908Z</time></trkpt><trkpt lat="43.1805422" lon="11.4613904"><ele>161.0</ele><time>2026-04-04T14:03:01.908Z</time></trkpt><trkpt lat="43.1806392" lon="11.4612389"><ele>162.0</ele><time>2026-04-04T14:03:02.905Z</time></trkpt><trkpt lat="43.1807501" lon="11.4610999"><ele>162.0</ele><time>2026-04-04T14:03:03.91Z</time></trkpt><trkpt lat="43.1808672" lon="11.460965"><ele>162.0</ele><time>2026-04-04T14:03:04.908Z</time></trkpt><trkpt lat="43.180991" lon="11.4608339"><ele>162.0</ele><time>2026-04-04T14:03:05.918Z</time></trkpt><trkpt lat="43.1811132" lon="11.4607025"><ele>162.0</ele><time>2026-04-04T14:03:06.911Z</time></trkpt><trkpt lat="43.1812462" lon="11.4605611"><ele>162.0</ele><time>2026-04-04T14:03:07.915Z</time></trkpt><trkpt lat="43.1813856" lon="11.4604156"><ele>162.0</ele><time>2026-04-04T14:03:08.912Z</time></trkpt><trkpt lat="43.1815338" lon="11.4602538"><ele>161.33333333333334</ele><time>2026-04-04T14:03:09.92Z</time></trkpt><trkpt lat="43.1816917" lon="11.4600943"><ele>160.66666666666669</ele><time>2026-04-04T14:03:10.915Z</time></trkpt><trkpt lat="43.1818582" lon="11.4599341"><ele>160.0</ele><time>2026-04-04T14:03:11.92Z</time></trkpt><trkpt lat="43.1820225" lon="11.4597713"><ele>160.0</ele><time>2026-04-04T14:03:12.913Z</time></trkpt><trkpt lat="43.1821918" lon="11.4596157"><ele>160.0</ele><time>2026-04-04T14:03:13.918Z</time></trkpt><trkpt lat="43.1823598" lon="11.4594525"><ele>160.0</ele><time>2026-04-04T14:03:14.919Z</time></trkpt><trkpt lat="43.1825291" lon="11.4592853"><ele>160.0</ele><time>2026-04-04T14:03:15.912Z</time></trkpt><trkpt lat="43.1826982" lon="11.4591086"><ele>160.0</ele><time>2026-04-04T14:03:16.915Z</time></trkpt><trkpt lat="43.1828733" lon="11.4589323"><ele>160.0</ele><time>2026-04-04T14:03:17.917Z</time></trkpt><trkpt lat="43.1830479" lon="11.4587552"><ele>160.66666666666669</ele><time>2026-04-04T14:03:18.911Z</time></trkpt><trkpt lat="43.1832156" lon="11.458586"><ele>161.33333333333334</ele><time>2026-04-04T14:03:19.919Z</time></trkpt><trkpt lat="43.1833805" lon="11.4584337"><ele>162.0</ele><time>2026-04-04T14:03:20.912Z</time></trkpt><trkpt lat="43.1835374" lon="11.4582852"><ele>162.0</ele><time>2026-04-04T14:03:21.911Z</time></trkpt><trkpt lat="43.183685" lon="11.4581348"><ele>162.0</ele><time>2026-04-04T14:03:22.909Z</time></trkpt><trkpt lat="43.1838305" lon="11.4579901"><ele>162.0</ele><time>2026-04-04T14:03:23.912Z</time></trkpt><trkpt lat="43.1839755" lon="11.4578402"><ele>162.33333333333334</ele><time>2026-04-04T14:03:24.913Z</time></trkpt><trkpt lat="43.1841197" lon="11.4576779"><ele>162.66666666666669</ele><time>2026-04-04T14:03:25.912Z</time></trkpt><trkpt lat="43.1842574" lon="11.4575097"><ele>163.0</ele><time>2026-04-04T14:03:26.914Z</time></trkpt><trkpt lat="43.1843892" lon="11.4573434"><ele>163.0</ele><time>2026-04-04T14:03:27.912Z</time></trkpt><trkpt lat="43.1845218" lon="11.4571638"><ele>163.0</ele><time>2026-04-04T14:03:28.911Z</time></trkpt><trkpt lat="43.1846657" lon="11.4569895"><ele>163.0</ele><time>2026-04-04T14:03:29.916Z</time></trkpt><trkpt lat="43.1848073" lon="11.456808"><ele>163.0</ele><time>2026-04-04T14:03:30.917Z</time></trkpt><trkpt lat="43.1849585" lon="11.456618"><ele>163.0</ele><time>2026-04-04T14:03:31.917Z</time></trkpt><trkpt lat="43.1851185" lon="11.4564215"><ele>163.0</ele><time>2026-04-04T14:03:32.909Z</time></trkpt><trkpt lat="43.1852816" lon="11.4562206"><ele>163.66666666666669</ele><time>2026-04-04T14:03:33.913Z</time></trkpt><trkpt lat="43.1854412" lon="11.4560154"><ele>164.33333333333334</ele><time>2026-04-04T14:03:34.909Z</time></trkpt><trkpt lat="43.18561" lon="11.455813"><ele>165.0</ele><time>2026-04-04T14:03:35.91Z</time></trkpt><trkpt lat="43.1857782" lon="11.4556074"><ele>167.0</ele><time>2026-04-04T14:03:36.914Z</time></trkpt><trkpt lat="43.1859534" lon="11.4554087"><ele>169.0</ele><time>2026-04-04T14:03:37.912Z</time></trkpt><trkpt lat="43.1861426" lon="11.4552287"><ele>169.0</ele><time>2026-04-04T14:03:38.908Z</time></trkpt><trkpt lat="43.1863473" lon="11.4550751"><ele>169.0</ele><time>2026-04-04T14:03:39.907Z</time></trkpt><trkpt lat="43.1865567" lon="11.4549292"><ele>169.5</ele><time>2026-04-04T14:03:40.914Z</time></trkpt><trkpt lat="43.1867724" lon="11.4547993"><ele>170.0</ele><time>2026-04-04T14:03:41.914Z</time></trkpt><trkpt lat="43.1869792" lon="11.4546904"><ele>171.66666666666666</ele><time>2026-04-04T14:03:42.912Z</time></trkpt><trkpt lat="43.1871694" lon="11.4545861"><ele>173.33333333333334</ele><time>2026-04-04T14:03:43.913Z</time></trkpt><trkpt lat="43.1873491" lon="11.4544998"><ele>175.0</ele><time>2026-04-04T14:03:44.915Z</time></trkpt><trkpt lat="43.1875178" lon="11.4544077"><ele>176.33333333333334</ele><time>2026-04-04T14:03:45.909Z</time></trkpt><trkpt lat="43.1876788" lon="11.4543193"><ele>177.66666666666666</ele><time>2026-04-04T14:03:46.915Z</time></trkpt><trkpt lat="43.1878197" lon="11.454234"><ele>179.0</ele><time>2026-04-04T14:03:47.915Z</time></trkpt><trkpt lat="43.1879601" lon="11.454161"><ele>179.0</ele><time>2026-04-04T14:03:48.902Z</time></trkpt><trkpt lat="43.1880941" lon="11.4540952"><ele>179.0</ele><time>2026-04-04T14:03:49.911Z</time></trkpt><trkpt lat="43.188228" lon="11.4540548"><ele>179.0</ele><time>2026-04-04T14:03:50.914Z</time></trkpt><trkpt lat="43.1883642" lon="11.4540356"><ele>179.0</ele><time>2026-04-04T14:03:51.911Z</time></trkpt><trkpt lat="43.188505" lon="11.4540287"><ele>179.5</ele><time>2026-04-04T14:03:52.918Z</time></trkpt><trkpt lat="43.1886449" lon="11.4540263"><ele>180.0</ele><time>2026-04-04T14:03:53.911Z</time></trkpt><trkpt lat="43.1887839" lon="11.4540326"><ele>180.5</ele><time>2026-04-04T14:03:54.918Z</time></trkpt><trkpt lat="43.1889265" lon="11.4540326"><ele>181.0</ele><time>2026-04-04T14:03:55.915Z</time></trkpt><trkpt lat="43.1890753" lon="11.454032"><ele>180.0</ele><time>2026-04-04T14:03:56.911Z</time></trkpt><trkpt lat="43.1892243" lon="11.4540339"><ele>179.0</ele><time>2026-04-04T14:03:57.917Z</time></trkpt><trkpt lat="43.189372" lon="11.4540381"><ele>178.0</ele><time>2026-04-04T14:03:58.911Z</time></trkpt><trkpt lat="43.1895128" lon="11.4540346"><ele>177.0</ele><time>2026-04-04T14:03:59.916Z</time></trkpt><trkpt lat="43.1896499" lon="11.4540177"><ele>177.0</ele><time>2026-04-04T14:04:00.906Z</time></trkpt><trkpt lat="43.1897883" lon="11.4539791"><ele>177.0</ele><time>2026-04-04T14:04:01.912Z</time></trkpt><trkpt lat="43.1899243" lon="11.4539056"><ele>177.0</ele><time>2026-04-04T14:04:02.91Z</time></trkpt><trkpt lat="43.1900563" lon="11.4538136"><ele>177.0</ele><time>2026-04-04T14:04:03.913Z</time></trkpt><trkpt lat="43.1901859" lon="11.4537237"><ele>177.0</ele><time>2026-04-04T14:04:04.912Z</time></trkpt><trkpt lat="43.1903088" lon="11.4536463"><ele>177.0</ele><time>2026-04-04T14:04:05.907Z</time></trkpt><trkpt lat="43.190437" lon="11.4535678"><ele>177.0</ele><time>2026-04-04T14:04:06.913Z</time></trkpt><trkpt lat="43.1905714" lon="11.4534909"><ele>177.0</ele><time>2026-04-04T14:04:07.908Z</time></trkpt><trkpt lat="43.1907017" lon="11.4534189"><ele>175.5</ele><time>2026-04-04T14:04:08.91Z</time></trkpt><trkpt lat="43.1908409" lon="11.4533684"><ele>174.0</ele><time>2026-04-04T14:04:09.913Z</time></trkpt><trkpt lat="43.1909755" lon="11.4533482"><ele>172.5</ele><time>2026-04-04T14:04:10.91Z</time></trkpt><trkpt lat="43.1911075" lon="11.4533407"><ele>171.0</ele><time>2026-04-04T14:04:11.907Z</time></trkpt><trkpt lat="43.1912247" lon="11.4533387"><ele>171.0</ele><time>2026-04-04T14:04:12.909Z</time></trkpt><trkpt lat="43.191331" lon="11.4533514"><ele>171.0</ele><time>2026-04-04T14:04:13.919Z</time></trkpt><trkpt lat="43.1914281" lon="11.4533995"><ele>171.0</ele><time>2026-04-04T14:04:14.915Z</time></trkpt><trkpt lat="43.191512" lon="11.4534693"><ele>171.0</ele><time>2026-04-04T14:04:15.921Z</time></trkpt><trkpt lat="43.1915811" lon="11.4535729"><ele>171.0</ele><time>2026-04-04T14:04:16.913Z</time></trkpt><trkpt lat="43.1916465" lon="11.4536947"><ele>169.75</ele><time>2026-04-04T14:04:17.915Z</time></trkpt><trkpt lat="43.1916979" lon="11.4538252"><ele>168.5</ele><time>2026-04-04T14:04:18.914Z</time></trkpt><trkpt lat="43.1917481" lon="11.4539638"><ele>167.25</ele><time>2026-04-04T14:04:19.908Z</time></trkpt><trkpt lat="43.1917994" lon="11.4541107"><ele>166.0</ele><time>2026-04-04T14:04:20.921Z</time></trkpt><trkpt lat="43.1918637" lon="11.4542583"><ele>166.0</ele><time>2026-04-04T14:04:21.909Z</time></trkpt><trkpt lat="43.1919231" lon="11.4544125"><ele>166.0</ele><time>2026-04-04T14:04:22.912Z</time></trkpt><trkpt lat="43.1919872" lon="11.4545608"><ele>166.0</ele><time>2026-04-04T14:04:23.92Z</time></trkpt><trkpt lat="43.1920532" lon="11.4546949"><ele>166.0</ele><time>2026-04-04T14:04:24.912Z</time></trkpt><trkpt lat="43.1921304" lon="11.454804"><ele>166.0</ele><time>2026-04-04T14:04:25.916Z</time></trkpt><trkpt lat="43.1922266" lon="11.4548837"><ele>166.0</ele><time>2026-04-04T14:04:26.916Z</time></trkpt><trkpt lat="43.19233" lon="11.4549412"><ele>166.0</ele><time>2026-04-04T14:04:27.913Z</time></trkpt><trkpt lat="43.1924359" lon="11.4549851"><ele>166.0</ele><time>2026-04-04T14:04:28.909Z</time></trkpt><trkpt lat="43.1925469" lon="11.4550219"><ele>166.0</ele><time>2026-04-04T14:04:29.915Z</time></trkpt><trkpt lat="43.1926617" lon="11.4550255"><ele>166.0</ele><time>2026-04-04T14:04:30.911Z</time></trkpt><trkpt lat="43.1927769" lon="11.4549982"><ele>166.0</ele><time>2026-04-04T14:04:31.909Z</time></trkpt><trkpt lat="43.1928911" lon="11.4549413"><ele>166.0</ele><time>2026-04-04T14:04:32.91Z</time></trkpt><trkpt lat="43.1929838" lon="11.4548587"><ele>166.0</ele><time>2026-04-04T14:04:33.917Z</time></trkpt><trkpt lat="43.193065" lon="11.4547826"><ele>166.0</ele><time>2026-04-04T14:04:34.909Z</time></trkpt><trkpt lat="43.1931252" lon="11.454695"><ele>166.4</ele><time>2026-04-04T14:04:35.908Z</time></trkpt><trkpt lat="43.1931634" lon="11.4545822"><ele>166.8</ele><time>2026-04-04T14:04:36.908Z</time></trkpt><trkpt lat="43.1931716" lon="11.4544616"><ele>167.20000000000002</ele><time>2026-04-04T14:04:37.912Z</time></trkpt><trkpt lat="43.1931611" lon="11.4543283"><ele>167.60000000000002</ele><time>2026-04-04T14:04:38.906Z</time></trkpt><trkpt lat="43.1931336" lon="11.4541698"><ele>168.0</ele><time>2026-04-04T14:04:39.902Z</time></trkpt><trkpt lat="43.1931085" lon="11.454014"><ele>168.0</ele><time>2026-04-04T14:04:40.913Z</time></trkpt><trkpt lat="43.1930787" lon="11.4538635"><ele>168.0</ele><time>2026-04-04T14:04:41.913Z</time></trkpt><trkpt lat="43.1930433" lon="11.4537113"><ele>168.0</ele><time>2026-04-04T14:04:42.918Z</time></trkpt><trkpt lat="43.1929922" lon="11.4535805"><ele>168.0</ele><time>2026-04-04T14:04:43.915Z</time></trkpt><trkpt lat="43.1929246" lon="11.4534482"><ele>167.75</ele><time>2026-04-04T14:04:44.908Z</time></trkpt><trkpt lat="43.1928533" lon="11.4533176"><ele>167.5</ele><time>2026-04-04T14:04:45.913Z</time></trkpt><trkpt lat="43.1927864" lon="11.4531907"><ele>167.25</ele><time>2026-04-04T14:04:46.913Z</time></trkpt><trkpt lat="43.1927382" lon="11.4530516"><ele>167.0</ele><time>2026-04-04T14:04:47.912Z</time></trkpt><trkpt lat="43.192728" lon="11.4529053"><ele>166.5</ele><time>2026-04-04T14:04:48.908Z</time></trkpt><trkpt lat="43.1927437" lon="11.452747"><ele>166.0</ele><time>2026-04-04T14:04:49.913Z</time></trkpt><trkpt lat="43.1927918" lon="11.4525877"><ele>165.5</ele><time>2026-04-04T14:04:50.917Z</time></trkpt><trkpt lat="43.1928654" lon="11.452428"><ele>165.0</ele><time>2026-04-04T14:04:51.906Z</time></trkpt><trkpt lat="43.1929545" lon="11.4522645"><ele>164.33333333333334</ele><time>2026-04-04T14:04:52.91Z</time></trkpt><trkpt lat="43.1930549" lon="11.452107"><ele>163.66666666666669</ele><time>2026-04-04T14:04:53.915Z</time></trkpt><trkpt lat="43.1931581" lon="11.4519272"><ele>163.0</ele><time>2026-04-04T14:04:54.913Z</time></trkpt><trkpt lat="43.19328" lon="11.4517437"><ele>161.33333333333334</ele><time>2026-04-04T14:04:55.911Z</time></trkpt><trkpt lat="43.1934119" lon="11.4515491"><ele>159.66666666666666</ele><time>2026-04-04T14:04:56.912Z</time></trkpt><trkpt lat="43.1935479" lon="11.4513204"><ele>158.0</ele><time>2026-04-04T14:04:57.911Z</time></trkpt><trkpt lat="43.1936883" lon="11.4510781"><ele>158.0</ele><time>2026-04-04T14:04:58.918Z</time></trkpt><trkpt lat="43.1938365" lon="11.4508231"><ele>158.0</ele><time>2026-04-04T14:04:59.92Z</time></trkpt><trkpt lat="43.1939898" lon="11.4505623"><ele>159.0</ele><time>2026-04-04T14:05:00.91Z</time></trkpt><trkpt lat="43.1941397" lon="11.4503008"><ele>160.0</ele><time>2026-04-04T14:05:01.913Z</time></trkpt><trkpt lat="43.1942888" lon="11.4500439"><ele>160.0</ele><time>2026-04-04T14:05:02.918Z</time></trkpt><trkpt lat="43.1944286" lon="11.4498052"><ele>160.0</ele><time>2026-04-04T14:05:03.915Z</time></trkpt><trkpt lat="43.194558" lon="11.449588"><ele>160.0</ele><time>2026-04-04T14:05:04.917Z</time></trkpt><trkpt lat="43.1946769" lon="11.4493805"><ele>160.33333333333334</ele><time>2026-04-04T14:05:05.916Z</time></trkpt><trkpt lat="43.1947905" lon="11.4491844"><ele>160.66666666666666</ele><time>2026-04-04T14:05:06.909Z</time></trkpt><trkpt lat="43.1949033" lon="11.4489871"><ele>161.0</ele><time>2026-04-04T14:05:07.912Z</time></trkpt><trkpt lat="43.1950181" lon="11.4487853"><ele>161.0</ele><time>2026-04-04T14:05:08.917Z</time></trkpt><trkpt lat="43.1951192" lon="11.448573"><ele>161.0</ele><time>2026-04-04T14:05:09.911Z</time></trkpt><trkpt lat="43.1951993" lon="11.448338"><ele>161.0</ele><time>2026-04-04T14:05:10.913Z</time></trkpt><trkpt lat="43.1952721" lon="11.4481047"><ele>162.66666666666666</ele><time>2026-04-04T14:05:11.905Z</time></trkpt><trkpt lat="43.1953326" lon="11.4478799"><ele>164.33333333333334</ele><time>2026-04-04T14:05:12.914Z</time></trkpt><trkpt lat="43.1953835" lon="11.447665"><ele>166.0</ele><time>2026-04-04T14:05:13.911Z</time></trkpt><trkpt lat="43.1954293" lon="11.4474521"><ele>166.0</ele><time>2026-04-04T14:05:14.905Z</time></trkpt><trkpt lat="43.1954727" lon="11.4472419"><ele>166.0</ele><time>2026-04-04T14:05:15.905Z</time></trkpt><trkpt lat="43.1955175" lon="11.4470367"><ele>166.0</ele><time>2026-04-04T14:05:16.912Z</time></trkpt><trkpt lat="43.1955622" lon="11.4468433"><ele>166.75</ele><time>2026-04-04T14:05:17.91Z</time></trkpt><trkpt lat="43.1956039" lon="11.4466488"><ele>167.5</ele><time>2026-04-04T14:05:18.908Z</time></trkpt><trkpt lat="43.1956453" lon="11.4464613"><ele>168.25</ele><time>2026-04-04T14:05:19.912Z</time></trkpt><trkpt lat="43.1956878" lon="11.4462748"><ele>169.0</ele><time>2026-04-04T14:05:20.912Z</time></trkpt><trkpt lat="43.1957274" lon="11.4460937"><ele>167.0</ele><time>2026-04-04T14:05:21.901Z</time></trkpt><trkpt lat="43.1957685" lon="11.4459089"><ele>165.0</ele><time>2026-04-04T14:05:22.911Z</time></trkpt><trkpt lat="43.1958054" lon="11.4457275"><ele>163.0</ele><time>2026-04-04T14:05:23.91Z</time></trkpt><trkpt lat="43.1958443" lon="11.4455515"><ele>161.0</ele><time>2026-04-04T14:05:24.922Z</time></trkpt><trkpt lat="43.1958899" lon="11.4453817"><ele>161.0</ele><time>2026-04-04T14:05:25.91Z</time></trkpt><trkpt lat="43.1959463" lon="11.4452181"><ele>161.0</ele><time>2026-04-04T14:05:26.912Z</time></trkpt><trkpt lat="43.1960133" lon="11.4450687"><ele>161.0</ele><time>2026-04-04T14:05:27.917Z</time></trkpt><trkpt lat="43.1960899" lon="11.4449204"><ele>161.0</ele><time>2026-04-04T14:05:28.909Z</time></trkpt><trkpt lat="43.1961779" lon="11.4447726"><ele>161.0</ele><time>2026-04-04T14:05:29.906Z</time></trkpt><trkpt lat="43.1962681" lon="11.4446416"><ele>161.0</ele><time>2026-04-04T14:05:30.912Z</time></trkpt><trkpt lat="43.1963675" lon="11.4445279"><ele>161.0</ele><time>2026-04-04T14:05:31.916Z</time></trkpt><trkpt lat="43.1964719" lon="11.4444222"><ele>161.0</ele><time>2026-04-04T14:05:32.918Z</time></trkpt><trkpt lat="43.1965819" lon="11.4443307"><ele>160.25</ele><time>2026-04-04T14:05:33.923Z</time></trkpt><trkpt lat="43.1966972" lon="11.4442629"><ele>159.5</ele><time>2026-04-04T14:05:34.921Z</time></trkpt><trkpt lat="43.1968123" lon="11.4441965"><ele>158.75</ele><time>2026-04-04T14:05:35.914Z</time></trkpt><trkpt lat="43.1969292" lon="11.4441328"><ele>158.0</ele><time>2026-04-04T14:05:36.915Z</time></trkpt><trkpt lat="43.197048" lon="11.4440702"><ele>158.0</ele><time>2026-04-04T14:05:37.921Z</time></trkpt><trkpt lat="43.1971654" lon="11.4440109"><ele>158.0</ele><time>2026-04-04T14:05:38.915Z</time></trkpt><trkpt lat="43.1972854" lon="11.4439506"><ele>158.0</ele><time>2026-04-04T14:05:39.91Z</time></trkpt><trkpt lat="43.1974086" lon="11.4438909"><ele>158.0</ele><time>2026-04-04T14:05:40.909Z</time></trkpt><trkpt lat="43.1975335" lon="11.4438321"><ele>158.25</ele><time>2026-04-04T14:05:41.91Z</time></trkpt><trkpt lat="43.1976641" lon="11.4437681"><ele>158.5</ele><time>2026-04-04T14:05:42.921Z</time></trkpt><trkpt lat="43.1977975" lon="11.4436982"><ele>158.75</ele><time>2026-04-04T14:05:43.924Z</time></trkpt><trkpt lat="43.1979353" lon="11.4436333"><ele>159.0</ele><time>2026-04-04T14:05:44.925Z</time></trkpt><trkpt lat="43.1980676" lon="11.4435744"><ele>158.8</ele><time>2026-04-04T14:05:45.915Z</time></trkpt><trkpt lat="43.1981881" lon="11.4435129"><ele>158.60000000000002</ele><time>2026-04-04T14:05:46.91Z</time></trkpt><trkpt lat="43.1982983" lon="11.4434625"><ele>158.4</ele><time>2026-04-04T14:05:47.909Z</time></trkpt><trkpt lat="43.1983832" lon="11.4434324"><ele>158.20000000000002</ele><time>2026-04-04T14:05:48.907Z</time></trkpt><trkpt lat="43.198448" lon="11.4434076"><ele>158.0</ele><time>2026-04-04T14:05:49.92Z</time></trkpt><trkpt lat="43.1985247" lon="11.4434485"><ele>158.0</ele><time>2026-04-04T14:05:51.908Z</time></trkpt><trkpt lat="43.198569" lon="11.4436194"><ele>158.0</ele><time>2026-04-04T14:05:53.912Z</time></trkpt><trkpt lat="43.1985949" lon="11.4437272"><ele>158.0</ele><time>2026-04-04T14:05:54.918Z</time></trkpt><trkpt lat="43.198635" lon="11.4438543"><ele>158.0</ele><time>2026-04-04T14:05:55.922Z</time></trkpt><trkpt lat="43.1986744" lon="11.4440089"><ele>158.0</ele><time>2026-04-04T14:05:56.915Z</time></trkpt><trkpt lat="43.19872" lon="11.4441834"><ele>157.66666666666666</ele><time>2026-04-04T14:05:57.909Z</time></trkpt><trkpt lat="43.1987674" lon="11.4443732"><ele>157.33333333333334</ele><time>2026-04-04T14:05:58.914Z</time></trkpt><trkpt lat="43.1988198" lon="11.4445813"><ele>157.0</ele><time>2026-04-04T14:05:59.908Z</time></trkpt><trkpt lat="43.1988722" lon="11.4447958"><ele>156.66666666666669</ele><time>2026-04-04T14:06:00.901Z</time></trkpt><trkpt lat="43.198922" lon="11.4450269"><ele>156.33333333333334</ele><time>2026-04-04T14:06:01.919Z</time></trkpt><trkpt lat="43.1989793" lon="11.4452725"><ele>156.0</ele><time>2026-04-04T14:06:02.914Z</time></trkpt><trkpt lat="43.1990357" lon="11.4455195"><ele>156.0</ele><time>2026-04-04T14:06:03.91Z</time></trkpt><trkpt lat="43.1990895" lon="11.4457733"><ele>156.0</ele><time>2026-04-04T14:06:04.916Z</time></trkpt><trkpt lat="43.1991543" lon="11.4460334"><ele>156.0</ele><time>2026-04-04T14:06:05.912Z</time></trkpt><trkpt lat="43.1992187" lon="11.4462969"><ele>155.66666666666666</ele><time>2026-04-04T14:06:06.914Z</time></trkpt><trkpt lat="43.1992832" lon="11.4465667"><ele>155.33333333333331</ele><time>2026-04-04T14:06:07.911Z</time></trkpt><trkpt lat="43.1993467" lon="11.4468265"><ele>155.0</ele><time>2026-04-04T14:06:08.91Z</time></trkpt><trkpt lat="43.1994107" lon="11.4470685"><ele>155.0</ele><time>2026-04-04T14:06:09.908Z</time></trkpt><trkpt lat="43.1994674" lon="11.4473055"><ele>155.0</ele><time>2026-04-04T14:06:10.909Z</time></trkpt><trkpt lat="43.199526" lon="11.4475408"><ele>155.0</ele><time>2026-04-04T14:06:11.916Z</time></trkpt><trkpt lat="43.1995864" lon="11.4477785"><ele>155.0</ele><time>2026-04-04T14:06:12.904Z</time></trkpt><trkpt lat="43.1996473" lon="11.4480149"><ele>155.0</ele><time>2026-04-04T14:06:13.911Z</time></trkpt><trkpt lat="43.1997048" lon="11.4482562"><ele>155.0</ele><time>2026-04-04T14:06:14.914Z</time></trkpt><trkpt lat="43.1997644" lon="11.4485058"><ele>155.0</ele><time>2026-04-04T14:06:15.913Z</time></trkpt><trkpt lat="43.1998255" lon="11.4487549"><ele>155.0</ele><time>2026-04-04T14:06:16.906Z</time></trkpt><trkpt lat="43.1998849" lon="11.4490102"><ele>155.0</ele><time>2026-04-04T14:06:17.904Z</time></trkpt><trkpt lat="43.1999414" lon="11.4492528"><ele>155.33333333333331</ele><time>2026-04-04T14:06:18.906Z</time></trkpt><trkpt lat="43.1999977" lon="11.449485"><ele>155.66666666666666</ele><time>2026-04-04T14:06:19.912Z</time></trkpt><trkpt lat="43.2000574" lon="11.4497124"><ele>156.0</ele><time>2026-04-04T14:06:20.91Z</time></trkpt><trkpt lat="43.2001107" lon="11.4499461"><ele>156.0</ele><time>2026-04-04T14:06:21.915Z</time></trkpt><trkpt lat="43.2001669" lon="11.4501827"><ele>156.0</ele><time>2026-04-04T14:06:22.905Z</time></trkpt><trkpt lat="43.200223" lon="11.4504193"><ele>156.0</ele><time>2026-04-04T14:06:23.912Z</time></trkpt><trkpt lat="43.2002818" lon="11.4506587"><ele>156.0</ele><time>2026-04-04T14:06:24.91Z</time></trkpt><trkpt lat="43.2003403" lon="11.4508918"><ele>156.0</ele><time>2026-04-04T14:06:25.918Z</time></trkpt><trkpt lat="43.2003947" lon="11.4511147"><ele>156.0</ele><time>2026-04-04T14:06:26.911Z</time></trkpt><trkpt lat="43.2004444" lon="11.4513238"><ele>155.33333333333334</ele><time>2026-04-04T14:06:27.911Z</time></trkpt><trkpt lat="43.2004856" lon="11.4515268"><ele>154.66666666666669</ele><time>2026-04-04T14:06:28.912Z</time></trkpt><trkpt lat="43.2005259" lon="11.4517248"><ele>154.0</ele><time>2026-04-04T14:06:29.904Z</time></trkpt><trkpt lat="43.2005664" lon="11.45192"><ele>154.0</ele><time>2026-04-04T14:06:30.903Z</time></trkpt><trkpt lat="43.2005985" lon="11.4520973"><ele>154.0</ele><time>2026-04-04T14:06:31.918Z</time></trkpt><trkpt lat="43.2006319" lon="11.4522626"><ele>154.0</ele><time>2026-04-04T14:06:32.911Z</time></trkpt><trkpt lat="43.2006638" lon="11.4524132"><ele>154.0</ele><time>2026-04-04T14:06:33.91Z</time></trkpt><trkpt lat="43.2007053" lon="11.4525437"><ele>153.6</ele><time>2026-04-04T14:06:34.906Z</time></trkpt><trkpt lat="43.2007445" lon="11.4526582"><ele>153.2</ele><time>2026-04-04T14:06:35.912Z</time></trkpt><trkpt lat="43.2007897" lon="11.4527771"><ele>152.79999999999998</ele><time>2026-04-04T14:06:36.908Z</time></trkpt><trkpt lat="43.2008319" lon="11.4528997"><ele>152.4</ele><time>2026-04-04T14:06:37.907Z</time></trkpt><trkpt lat="43.2008674" lon="11.4530271"><ele>152.0</ele><time>2026-04-04T14:06:38.911Z</time></trkpt><trkpt lat="43.2008858" lon="11.4531765"><ele>152.0</ele><time>2026-04-04T14:06:39.905Z</time></trkpt><trkpt lat="43.2008857" lon="11.4533253"><ele>152.0</ele><time>2026-04-04T14:06:40.911Z</time></trkpt><trkpt lat="43.2008784" lon="11.4534689"><ele>152.0</ele><time>2026-04-04T14:06:41.907Z</time></trkpt><trkpt lat="43.2008806" lon="11.4536009"><ele>152.0</ele><time>2026-04-04T14:06:42.907Z</time></trkpt><trkpt lat="43.20088" lon="11.453741"><ele>152.0</ele><time>2026-04-04T14:06:43.912Z</time></trkpt><trkpt lat="43.2008838" lon="11.4538711"><ele>153.16666666666666</ele><time>2026-04-04T14:06:44.909Z</time></trkpt><trkpt lat="43.2008961" lon="11.4539912"><ele>154.33333333333331</ele><time>2026-04-04T14:06:45.908Z</time></trkpt><trkpt lat="43.2009089" lon="11.4540958"><ele>155.5</ele><time>2026-04-04T14:06:46.91Z</time></trkpt><trkpt lat="43.2009247" lon="11.4541994"><ele>156.66666666666666</ele><time>2026-04-04T14:06:47.905Z</time></trkpt><trkpt lat="43.2009383" lon="11.4542974"><ele>157.83333333333334</ele><time>2026-04-04T14:06:48.908Z</time></trkpt><trkpt lat="43.2009418" lon="11.4544091"><ele>159.0</ele><time>2026-04-04T14:06:51.912Z</time></trkpt><trkpt lat="43.2009452" lon="11.4545337"><ele>159.8</ele><time>2026-04-04T14:06:54.924Z</time></trkpt><trkpt lat="43.2009478" lon="11.4546867"><ele>160.60000000000002</ele><time>2026-04-04T14:06:56.903Z</time></trkpt><trkpt lat="43.2009688" lon="11.4548528"><ele>161.4</ele><time>2026-04-04T14:06:58.91Z</time></trkpt><trkpt lat="43.2009773" lon="11.454958"><ele>162.20000000000002</ele><time>2026-04-04T14:06:59.911Z</time></trkpt><trkpt lat="43.2009784" lon="11.455061"><ele>163.0</ele><time>2026-04-04T14:07:00.911Z</time></trkpt><trkpt lat="43.2009759" lon="11.4551658"><ele>163.0</ele><time>2026-04-04T14:07:01.906Z</time></trkpt><trkpt lat="43.2009628" lon="11.4552607"><ele>163.0</ele><time>2026-04-04T14:07:02.908Z</time></trkpt><trkpt lat="43.2009278" lon="11.4553528"><ele>163.0</ele><time>2026-04-04T14:07:03.912Z</time></trkpt><trkpt lat="43.2008779" lon="11.4554522"><ele>163.0</ele><time>2026-04-04T14:07:04.907Z</time></trkpt><trkpt lat="43.2008184" lon="11.4555374"><ele>163.0</ele><time>2026-04-04T14:07:05.915Z</time></trkpt><trkpt lat="43.2007521" lon="11.4556281"><ele>163.0</ele><time>2026-04-04T14:07:06.912Z</time></trkpt><trkpt lat="43.2006898" lon="11.4557143"><ele>162.5</ele><time>2026-04-04T14:07:07.906Z</time></trkpt><trkpt lat="43.200623" lon="11.4558142"><ele>162.0</ele><time>2026-04-04T14:07:08.91Z</time></trkpt><trkpt lat="43.2005597" lon="11.4559043"><ele>161.5</ele><time>2026-04-04T14:07:09.91Z</time></trkpt><trkpt lat="43.2004996" lon="11.4559897"><ele>161.0</ele><time>2026-04-04T14:07:10.911Z</time></trkpt><trkpt lat="43.2004416" lon="11.4560745"><ele>160.5</ele><time>2026-04-04T14:07:11.909Z</time></trkpt><trkpt lat="43.2003904" lon="11.4561581"><ele>160.0</ele><time>2026-04-04T14:07:12.907Z</time></trkpt><trkpt lat="43.2003349" lon="11.4562366"><ele>161.0</ele><time>2026-04-04T14:07:13.903Z</time></trkpt><trkpt lat="43.2002776" lon="11.4563138"><ele>162.0</ele><time>2026-04-04T14:07:14.908Z</time></trkpt><trkpt lat="43.200225" lon="11.4563839"><ele>163.0</ele><time>2026-04-04T14:07:15.91Z</time></trkpt><trkpt lat="43.2001474" lon="11.4564886"><ele>164.0</ele><time>2026-04-04T14:07:17.908Z</time></trkpt><trkpt lat="43.2000743" lon="11.4565863"><ele>165.0</ele><time>2026-04-04T14:07:19.907Z</time></trkpt><trkpt lat="43.2000258" lon="11.4566458"><ele>166.0</ele><time>2026-04-04T14:07:20.908Z</time></trkpt><trkpt lat="43.199965" lon="11.4567251"><ele>166.0</ele><time>2026-04-04T14:07:21.911Z</time></trkpt><trkpt lat="43.1998974" lon="11.4568094"><ele>166.0</ele><time>2026-04-04T14:07:22.906Z</time></trkpt><trkpt lat="43.1998289" lon="11.4568934"><ele>166.0</ele><time>2026-04-04T14:07:23.903Z</time></trkpt><trkpt lat="43.1997588" lon="11.4569826"><ele>166.0</ele><time>2026-04-04T14:07:24.915Z</time></trkpt><trkpt lat="43.1996817" lon="11.4570825"><ele>166.0</ele><time>2026-04-04T14:07:25.907Z</time></trkpt><trkpt lat="43.1996025" lon="11.4571917"><ele>165.8</ele><time>2026-04-04T14:07:26.913Z</time></trkpt><trkpt lat="43.1995159" lon="11.4572964"><ele>165.60000000000002</ele><time>2026-04-04T14:07:27.902Z</time></trkpt><trkpt lat="43.1994362" lon="11.4573899"><ele>165.4</ele><time>2026-04-04T14:07:28.904Z</time></trkpt><trkpt lat="43.1993572" lon="11.4574755"><ele>165.2</ele><time>2026-04-04T14:07:29.916Z</time></trkpt><trkpt lat="43.1992857" lon="11.4575563"><ele>165.0</ele><time>2026-04-04T14:07:30.911Z</time></trkpt><trkpt lat="43.199217" lon="11.4576363"><ele>165.0</ele><time>2026-04-04T14:07:31.919Z</time></trkpt><trkpt lat="43.1991436" lon="11.4577205"><ele>165.0</ele><time>2026-04-04T14:07:32.907Z</time></trkpt><trkpt lat="43.199073" lon="11.4578044"><ele>165.0</ele><time>2026-04-04T14:07:33.916Z</time></trkpt><trkpt lat="43.199" lon="11.4578882"><ele>165.0</ele><time>2026-04-04T14:07:34.906Z</time></trkpt><trkpt lat="43.1989315" lon="11.4579704"><ele>165.0</ele><time>2026-04-04T14:07:35.909Z</time></trkpt><trkpt lat="43.1988713" lon="11.4580439"><ele>164.0</ele><time>2026-04-04T14:07:36.907Z</time></trkpt><trkpt lat="43.1988199" lon="11.4581301"><ele>163.0</ele><time>2026-04-04T14:07:37.908Z</time></trkpt><trkpt lat="43.1987551" lon="11.4582282"><ele>162.0</ele><time>2026-04-04T14:07:38.918Z</time></trkpt><trkpt lat="43.1986832" lon="11.4583388"><ele>161.0</ele><time>2026-04-04T14:07:39.914Z</time></trkpt><trkpt lat="43.1986033" lon="11.4584599"><ele>160.0</ele><time>2026-04-04T14:07:40.917Z</time></trkpt><trkpt lat="43.1985167" lon="11.4585943"><ele>160.0</ele><time>2026-04-04T14:07:41.915Z</time></trkpt><trkpt lat="43.1984271" lon="11.4587411"><ele>160.0</ele><time>2026-04-04T14:07:42.906Z</time></trkpt><trkpt lat="43.1983367" lon="11.4588994"><ele>160.0</ele><time>2026-04-04T14:07:43.913Z</time></trkpt><trkpt lat="43.1982384" lon="11.459069"><ele>160.0</ele><time>2026-04-04T14:07:44.917Z</time></trkpt><trkpt lat="43.1981383" lon="11.4592385"><ele>158.33333333333334</ele><time>2026-04-04T14:07:45.912Z</time></trkpt><trkpt lat="43.1980332" lon="11.4594167"><ele>156.66666666666666</ele><time>2026-04-04T14:07:46.909Z</time></trkpt><trkpt lat="43.1979218" lon="11.4595987"><ele>155.0</ele><time>2026-04-04T14:07:47.916Z</time></trkpt><trkpt lat="43.1978117" lon="11.4597902"><ele>155.0</ele><time>2026-04-04T14:07:48.909Z</time></trkpt><trkpt lat="43.1976956" lon="11.4599775"><ele>155.0</ele><time>2026-04-04T14:07:49.906Z</time></trkpt><trkpt lat="43.1975724" lon="11.4601626"><ele>155.0</ele><time>2026-04-04T14:07:50.92Z</time></trkpt><trkpt lat="43.1974493" lon="11.4603532"><ele>155.33333333333331</ele><time>2026-04-04T14:07:51.916Z</time></trkpt><trkpt lat="43.1973227" lon="11.4605466"><ele>155.66666666666666</ele><time>2026-04-04T14:07:52.908Z</time></trkpt><trkpt lat="43.197193" lon="11.4607395"><ele>156.0</ele><time>2026-04-04T14:07:53.908Z</time></trkpt><trkpt lat="43.1970628" lon="11.4609308"><ele>156.0</ele><time>2026-04-04T14:07:54.913Z</time></trkpt><trkpt lat="43.1969414" lon="11.4611111"><ele>156.0</ele><time>2026-04-04T14:07:55.915Z</time></trkpt><trkpt lat="43.1968229" lon="11.4612836"><ele>156.0</ele><time>2026-04-04T14:07:56.918Z</time></trkpt><trkpt lat="43.1967092" lon="11.4614543"><ele>155.66666666666666</ele><time>2026-04-04T14:07:57.911Z</time></trkpt><trkpt lat="43.1966044" lon="11.4616187"><ele>155.33333333333331</ele><time>2026-04-04T14:07:58.91Z</time></trkpt><trkpt lat="43.1965011" lon="11.4617826"><ele>155.0</ele><time>2026-04-04T14:07:59.902Z</time></trkpt><trkpt lat="43.1964021" lon="11.4619452"><ele>153.66666666666666</ele><time>2026-04-04T14:08:00.911Z</time></trkpt><trkpt lat="43.1963037" lon="11.4621151"><ele>152.33333333333334</ele><time>2026-04-04T14:08:01.905Z</time></trkpt><trkpt lat="43.1962123" lon="11.4622867"><ele>151.0</ele><time>2026-04-04T14:08:02.91Z</time></trkpt><trkpt lat="43.1961262" lon="11.46246"><ele>151.0</ele><time>2026-04-04T14:08:03.912Z</time></trkpt><trkpt lat="43.1960424" lon="11.4626435"><ele>151.0</ele><time>2026-04-04T14:08:04.929Z</time></trkpt><trkpt lat="43.1959667" lon="11.4628381"><ele>151.0</ele><time>2026-04-04T14:08:05.907Z</time></trkpt><trkpt lat="43.1958868" lon="11.4630482"><ele>150.66666666666669</ele><time>2026-04-04T14:08:06.911Z</time></trkpt><trkpt lat="43.1958086" lon="11.4632686"><ele>150.33333333333334</ele><time>2026-04-04T14:08:07.916Z</time></trkpt><trkpt lat="43.1957269" lon="11.4634973"><ele>150.0</ele><time>2026-04-04T14:08:08.911Z</time></trkpt><trkpt lat="43.1956396" lon="11.4637258"><ele>150.33333333333334</ele><time>2026-04-04T14:08:09.913Z</time></trkpt><trkpt lat="43.1955505" lon="11.4639494"><ele>150.66666666666669</ele><time>2026-04-04T14:08:10.914Z</time></trkpt><trkpt lat="43.1954562" lon="11.4641848"><ele>151.0</ele><time>2026-04-04T14:08:11.91Z</time></trkpt><trkpt lat="43.195369" lon="11.4644072"><ele>151.0</ele><time>2026-04-04T14:08:12.924Z</time></trkpt><trkpt lat="43.1952857" lon="11.4646041"><ele>151.0</ele><time>2026-04-04T14:08:13.921Z</time></trkpt><trkpt lat="43.195211" lon="11.4647781"><ele>151.0</ele><time>2026-04-04T14:08:14.915Z</time></trkpt><trkpt lat="43.195143" lon="11.4649289"><ele>151.0</ele><time>2026-04-04T14:08:15.913Z</time></trkpt><trkpt lat="43.1950905" lon="11.4650587"><ele>151.4</ele><time>2026-04-04T14:08:16.906Z</time></trkpt><trkpt lat="43.1950428" lon="11.465177"><ele>151.8</ele><time>2026-04-04T14:08:17.914Z</time></trkpt><trkpt lat="43.1950006" lon="11.46528"><ele>152.20000000000002</ele><time>2026-04-04T14:08:18.914Z</time></trkpt><trkpt lat="43.194964" lon="11.4653635"><ele>152.6</ele><time>2026-04-04T14:08:19.907Z</time></trkpt><trkpt lat="43.1949192" lon="11.4654943"><ele>153.0</ele><time>2026-04-04T14:08:21.911Z</time></trkpt><trkpt lat="43.1949222" lon="11.4656262"><ele>153.33333333333334</ele><time>2026-04-04T14:08:23.908Z</time></trkpt><trkpt lat="43.1949464" lon="11.4657149"><ele>153.66666666666666</ele><time>2026-04-04T14:08:24.92Z</time></trkpt><trkpt lat="43.1949792" lon="11.465809"><ele>154.0</ele><time>2026-04-04T14:08:25.91Z</time></trkpt><trkpt lat="43.1950387" lon="11.4659017"><ele>154.33333333333331</ele><time>2026-04-04T14:08:26.908Z</time></trkpt><trkpt lat="43.1951105" lon="11.4659916"><ele>154.66666666666666</ele><time>2026-04-04T14:08:27.91Z</time></trkpt><trkpt lat="43.1951903" lon="11.4660918"><ele>155.0</ele><time>2026-04-04T14:08:28.913Z</time></trkpt><trkpt lat="43.1952571" lon="11.466191"><ele>155.6</ele><time>2026-04-04T14:08:29.916Z</time></trkpt><trkpt lat="43.1953212" lon="11.4662979"><ele>156.2</ele><time>2026-04-04T14:08:30.916Z</time></trkpt><trkpt lat="43.1953696" lon="11.4664095"><ele>156.8</ele><time>2026-04-04T14:08:31.915Z</time></trkpt><trkpt lat="43.1954127" lon="11.4665378"><ele>157.4</ele><time>2026-04-04T14:08:32.907Z</time></trkpt><trkpt lat="43.1954382" lon="11.4666787"><ele>158.0</ele><time>2026-04-04T14:08:33.909Z</time></trkpt><trkpt lat="43.1954552" lon="11.4668338"><ele>158.0</ele><time>2026-04-04T14:08:34.909Z</time></trkpt><trkpt lat="43.1954688" lon="11.4669975"><ele>158.0</ele><time>2026-04-04T14:08:35.913Z</time></trkpt><trkpt lat="43.1954896" lon="11.4671587"><ele>158.0</ele><time>2026-04-04T14:08:36.915Z</time></trkpt><trkpt lat="43.1955161" lon="11.467301"><ele>158.0</ele><time>2026-04-04T14:08:37.913Z</time></trkpt><trkpt lat="43.1955484" lon="11.4674184"><ele>158.0</ele><time>2026-04-04T14:08:38.912Z</time></trkpt><trkpt lat="43.1955906" lon="11.4675035"><ele>158.33333333333331</ele><time>2026-04-04T14:08:39.912Z</time></trkpt><trkpt lat="43.1956469" lon="11.4675658"><ele>158.66666666666666</ele><time>2026-04-04T14:08:40.922Z</time></trkpt><trkpt lat="43.1957168" lon="11.4676122"><ele>159.0</ele><time>2026-04-04T14:08:41.912Z</time></trkpt><trkpt lat="43.195786" lon="11.4676382"><ele>159.33333333333334</ele><time>2026-04-04T14:08:42.916Z</time></trkpt><trkpt lat="43.1958626" lon="11.4676617"><ele>159.66666666666669</ele><time>2026-04-04T14:08:43.919Z</time></trkpt><trkpt lat="43.1959429" lon="11.4676915"><ele>160.0</ele><time>2026-04-04T14:08:44.916Z</time></trkpt><trkpt lat="43.1960266" lon="11.4677292"><ele>161.0</ele><time>2026-04-04T14:08:45.913Z</time></trkpt><trkpt lat="43.1961099" lon="11.467785"><ele>162.0</ele><time>2026-04-04T14:08:46.92Z</time></trkpt><trkpt lat="43.1961888" lon="11.467856"><ele>163.0</ele><time>2026-04-04T14:08:47.914Z</time></trkpt><trkpt lat="43.1962649" lon="11.4679394"><ele>164.0</ele><time>2026-04-04T14:08:48.917Z</time></trkpt><trkpt lat="43.1963345" lon="11.4680311"><ele>165.0</ele><time>2026-04-04T14:08:49.919Z</time></trkpt><trkpt lat="43.1963971" lon="11.4681348"><ele>165.33333333333334</ele><time>2026-04-04T14:08:50.911Z</time></trkpt><trkpt lat="43.196454" lon="11.4682389"><ele>165.66666666666666</ele><time>2026-04-04T14:08:51.91Z</time></trkpt><trkpt lat="43.1965102" lon="11.4683403"><ele>166.0</ele><time>2026-04-04T14:08:52.918Z</time></trkpt><trkpt lat="43.1965587" lon="11.4684437"><ele>166.33333333333331</ele><time>2026-04-04T14:08:53.909Z</time></trkpt><trkpt lat="43.1965955" lon="11.468548"><ele>166.66666666666666</ele><time>2026-04-04T14:08:54.915Z</time></trkpt><trkpt lat="43.1966201" lon="11.4686518"><ele>167.0</ele><time>2026-04-04T14:08:55.909Z</time></trkpt><trkpt lat="43.1966344" lon="11.4687561"><ele>169.0</ele><time>2026-04-04T14:08:56.921Z</time></trkpt><trkpt lat="43.1966502" lon="11.4688507"><ele>171.0</ele><time>2026-04-04T14:08:57.909Z</time></trkpt><trkpt lat="43.1966829" lon="11.4689384"><ele>173.0</ele><time>2026-04-04T14:08:58.918Z</time></trkpt><trkpt lat="43.1967254" lon="11.4690175"><ele>175.0</ele><time>2026-04-04T14:08:59.907Z</time></trkpt><trkpt lat="43.1967705" lon="11.4690962"><ele>177.0</ele><time>2026-04-04T14:09:00.906Z</time></trkpt><trkpt lat="43.1968182" lon="11.4691739"><ele>179.0</ele><time>2026-04-04T14:09:01.904Z</time></trkpt><trkpt lat="43.1968616" lon="11.4692568"><ele>181.0</ele><time>2026-04-04T14:09:02.916Z</time></trkpt><trkpt lat="43.196909" lon="11.4693361"><ele>181.0</ele><time>2026-04-04T14:09:03.909Z</time></trkpt><trkpt lat="43.1969579" lon="11.4694197"><ele>181.0</ele><time>2026-04-04T14:09:04.913Z</time></trkpt><trkpt lat="43.1970045" lon="11.4695112"><ele>181.0</ele><time>2026-04-04T14:09:05.912Z</time></trkpt><trkpt lat="43.1970505" lon="11.4696075"><ele>181.0</ele><time>2026-04-04T14:09:06.906Z</time></trkpt><trkpt lat="43.1970907" lon="11.4697166"><ele>181.0</ele><time>2026-04-04T14:09:07.91Z</time></trkpt><trkpt lat="43.1971281" lon="11.4698235"><ele>181.0</ele><time>2026-04-04T14:09:08.915Z</time></trkpt><trkpt lat="43.1971716" lon="11.4699371"><ele>181.16666666666669</ele><time>2026-04-04T14:09:09.914Z</time></trkpt><trkpt lat="43.1972117" lon="11.4700557"><ele>181.33333333333334</ele><time>2026-04-04T14:09:10.915Z</time></trkpt><trkpt lat="43.1972559" lon="11.4701776"><ele>181.5</ele><time>2026-04-04T14:09:11.91Z</time></trkpt><trkpt lat="43.1972988" lon="11.4702894"><ele>181.66666666666666</ele><time>2026-04-04T14:09:12.914Z</time></trkpt><trkpt lat="43.1973435" lon="11.4703836"><ele>181.83333333333331</ele><time>2026-04-04T14:09:13.918Z</time></trkpt><trkpt lat="43.1973945" lon="11.4704559"><ele>182.0</ele><time>2026-04-04T14:09:14.919Z</time></trkpt><trkpt lat="43.1974565" lon="11.4705104"><ele>185.0</ele><time>2026-04-04T14:09:15.912Z</time></trkpt><trkpt lat="43.197519" lon="11.4705497"><ele>188.0</ele><time>2026-04-04T14:09:16.911Z</time></trkpt><trkpt lat="43.1975827" lon="11.470572"><ele>191.0</ele><time>2026-04-04T14:09:17.915Z</time></trkpt><trkpt lat="43.1976536" lon="11.4705956"><ele>194.0</ele><time>2026-04-04T14:09:18.911Z</time></trkpt><trkpt lat="43.1977374" lon="11.470607"><ele>197.00000000000003</ele><time>2026-04-04T14:09:19.911Z</time></trkpt><trkpt lat="43.1978249" lon="11.4706136"><ele>200.0</ele><time>2026-04-04T14:09:20.922Z</time></trkpt><trkpt lat="43.1979098" lon="11.4706357"><ele>200.00000000000003</ele><time>2026-04-04T14:09:21.919Z</time></trkpt><trkpt lat="43.1979841" lon="11.4706809"><ele>200.0</ele><time>2026-04-04T14:09:22.918Z</time></trkpt><trkpt lat="43.1980578" lon="11.4707362"><ele>200.0</ele><time>2026-04-04T14:09:23.915Z</time></trkpt><trkpt lat="43.198125" lon="11.4708001"><ele>200.0</ele><time>2026-04-04T14:09:24.916Z</time></trkpt><trkpt lat="43.1981832" lon="11.470873"><ele>200.00000000000003</ele><time>2026-04-04T14:09:25.907Z</time></trkpt><trkpt lat="43.1982424" lon="11.4709405"><ele>200.0</ele><time>2026-04-04T14:09:26.919Z</time></trkpt><trkpt lat="43.1982983" lon="11.4710176"><ele>200.66666666666669</ele><time>2026-04-04T14:09:27.911Z</time></trkpt><trkpt lat="43.1983449" lon="11.4711015"><ele>201.33333333333334</ele><time>2026-04-04T14:09:28.91Z</time></trkpt><trkpt lat="43.19839" lon="11.47119"><ele>202.0</ele><time>2026-04-04T14:09:29.91Z</time></trkpt><trkpt lat="43.198428" lon="11.4712993"><ele>202.66666666666669</ele><time>2026-04-04T14:09:30.914Z</time></trkpt><trkpt lat="43.1984576" lon="11.4714112"><ele>203.33333333333334</ele><time>2026-04-04T14:09:31.91Z</time></trkpt><trkpt lat="43.1984864" lon="11.4715373"><ele>204.0</ele><time>2026-04-04T14:09:32.911Z</time></trkpt><trkpt lat="43.1985104" lon="11.4716683"><ele>205.0</ele><time>2026-04-04T14:09:33.908Z</time></trkpt><trkpt lat="43.1985307" lon="11.4717924"><ele>206.0</ele><time>2026-04-04T14:09:34.905Z</time></trkpt><trkpt lat="43.1985402" lon="11.4719163"><ele>207.0</ele><time>2026-04-04T14:09:35.914Z</time></trkpt><trkpt lat="43.1985431" lon="11.4720274"><ele>208.0</ele><time>2026-04-04T14:09:36.91Z</time></trkpt><trkpt lat="43.1985364" lon="11.4721306"><ele>209.0</ele><time>2026-04-04T14:09:37.91Z</time></trkpt><trkpt lat="43.1985274" lon="11.4722283"><ele>210.0</ele><time>2026-04-04T14:09:38.914Z</time></trkpt><trkpt lat="43.198518" lon="11.4723201"><ele>210.5</ele><time>2026-04-04T14:09:39.911Z</time></trkpt><trkpt lat="43.1984986" lon="11.4724943"><ele>211.0</ele><time>2026-04-04T14:09:41.909Z</time></trkpt><trkpt lat="43.1984866" lon="11.472586"><ele>211.5</ele><time>2026-04-04T14:09:42.91Z</time></trkpt><trkpt lat="43.1984818" lon="11.4726766"><ele>212.0</ele><time>2026-04-04T14:09:43.918Z</time></trkpt><trkpt lat="43.198483" lon="11.4727748"><ele>212.5</ele><time>2026-04-04T14:09:44.911Z</time></trkpt><trkpt lat="43.1984975" lon="11.4728719"><ele>213.0</ele><time>2026-04-04T14:09:45.917Z</time></trkpt><trkpt lat="43.1985317" lon="11.4729753"><ele>213.2</ele><time>2026-04-04T14:09:46.91Z</time></trkpt><trkpt lat="43.1985721" lon="11.4730774"><ele>213.4</ele><time>2026-04-04T14:09:47.904Z</time></trkpt><trkpt lat="43.1986209" lon="11.4731851"><ele>213.59999999999997</ele><time>2026-04-04T14:09:48.912Z</time></trkpt><trkpt lat="43.1986737" lon="11.4732903"><ele>213.79999999999998</ele><time>2026-04-04T14:09:49.909Z</time></trkpt><trkpt lat="43.1987287" lon="11.4733975"><ele>214.0</ele><time>2026-04-04T14:09:50.913Z</time></trkpt><trkpt lat="43.1987828" lon="11.4735083"><ele>214.0</ele><time>2026-04-04T14:09:51.911Z</time></trkpt><trkpt lat="43.1988236" lon="11.4736231"><ele>213.99999999999997</ele><time>2026-04-04T14:09:52.92Z</time></trkpt><trkpt lat="43.1988525" lon="11.4737489"><ele>213.99999999999997</ele><time>2026-04-04T14:09:53.913Z</time></trkpt><trkpt lat="43.1988637" lon="11.4738919"><ele>214.0</ele><time>2026-04-04T14:09:54.915Z</time></trkpt><trkpt lat="43.198861" lon="11.4740248"><ele>214.0</ele><time>2026-04-04T14:09:55.913Z</time></trkpt><trkpt lat="43.198867" lon="11.4741595"><ele>212.2</ele><time>2026-04-04T14:09:56.91Z</time></trkpt><trkpt lat="43.1988915" lon="11.4742888"><ele>210.39999999999998</ele><time>2026-04-04T14:09:57.913Z</time></trkpt><trkpt lat="43.1989246" lon="11.4744133"><ele>208.6</ele><time>2026-04-04T14:09:58.915Z</time></trkpt><trkpt lat="43.1989738" lon="11.4745357"><ele>206.8</ele><time>2026-04-04T14:09:59.92Z</time></trkpt><trkpt lat="43.1990316" lon="11.4746559"><ele>205.0</ele><time>2026-04-04T14:10:00.91Z</time></trkpt><trkpt lat="43.1990937" lon="11.4747697"><ele>203.8</ele><time>2026-04-04T14:10:01.908Z</time></trkpt><trkpt lat="43.1991625" lon="11.4748913"><ele>202.6</ele><time>2026-04-04T14:10:02.91Z</time></trkpt><trkpt lat="43.1992297" lon="11.4750121"><ele>201.39999999999998</ele><time>2026-04-04T14:10:03.92Z</time></trkpt><trkpt lat="43.1992947" lon="11.4751311"><ele>200.2</ele><time>2026-04-04T14:10:04.911Z</time></trkpt><trkpt lat="43.1993593" lon="11.4752529"><ele>199.0</ele><time>2026-04-04T14:10:05.916Z</time></trkpt><trkpt lat="43.1994294" lon="11.4753632"><ele>197.0</ele><time>2026-04-04T14:10:06.91Z</time></trkpt><trkpt lat="43.1995014" lon="11.4754671"><ele>195.0</ele><time>2026-04-04T14:10:07.924Z</time></trkpt><trkpt lat="43.199578" lon="11.475558"><ele>193.0</ele><time>2026-04-04T14:10:08.905Z</time></trkpt><trkpt lat="43.1996606" lon="11.4756366"><ele>191.0</ele><time>2026-04-04T14:10:09.913Z</time></trkpt><trkpt lat="43.1997372" lon="11.4757077"><ele>189.0</ele><time>2026-04-04T14:10:10.911Z</time></trkpt><trkpt lat="43.1998195" lon="11.4757628"><ele>192.39999999999998</ele><time>2026-04-04T14:10:11.903Z</time></trkpt><trkpt lat="43.1999053" lon="11.4758154"><ele>195.8</ele><time>2026-04-04T14:10:12.915Z</time></trkpt><trkpt lat="43.1999848" lon="11.4758762"><ele>199.2</ele><time>2026-04-04T14:10:13.913Z</time></trkpt><trkpt lat="43.200059" lon="11.4759643"><ele>202.60000000000002</ele><time>2026-04-04T14:10:14.919Z</time></trkpt><trkpt lat="43.2001248" lon="11.4760552"><ele>206.0</ele><time>2026-04-04T14:10:15.909Z</time></trkpt><trkpt lat="43.2002016" lon="11.4761413"><ele>206.0</ele><time>2026-04-04T14:10:16.916Z</time></trkpt><trkpt lat="43.2002841" lon="11.4762243"><ele>206.0</ele><time>2026-04-04T14:10:17.916Z</time></trkpt><trkpt lat="43.200369" lon="11.4763065"><ele>206.0</ele><time>2026-04-04T14:10:18.916Z</time></trkpt><trkpt lat="43.2004587" lon="11.4763976"><ele>206.0</ele><time>2026-04-04T14:10:19.917Z</time></trkpt><trkpt lat="43.20055" lon="11.4764982"><ele>206.0</ele><time>2026-04-04T14:10:20.911Z</time></trkpt><trkpt lat="43.2006381" lon="11.476603"><ele>206.0</ele><time>2026-04-04T14:10:21.913Z</time></trkpt><trkpt lat="43.2007192" lon="11.4767247"><ele>206.0</ele><time>2026-04-04T14:10:22.914Z</time></trkpt><trkpt lat="43.2007929" lon="11.4768674"><ele>206.0</ele><time>2026-04-04T14:10:23.914Z</time></trkpt><trkpt lat="43.2008614" lon="11.4770204"><ele>206.0</ele><time>2026-04-04T14:10:24.916Z</time></trkpt><trkpt lat="43.2009343" lon="11.4771808"><ele>206.0</ele><time>2026-04-04T14:10:25.914Z</time></trkpt><trkpt lat="43.2010067" lon="11.4773458"><ele>206.0</ele><time>2026-04-04T14:10:26.917Z</time></trkpt><trkpt lat="43.2010781" lon="11.477517"><ele>206.0</ele><time>2026-04-04T14:10:27.915Z</time></trkpt><trkpt lat="43.2011443" lon="11.4777015"><ele>206.0</ele><time>2026-04-04T14:10:28.908Z</time></trkpt><trkpt lat="43.2012124" lon="11.4778792"><ele>204.33333333333334</ele><time>2026-04-04T14:10:29.915Z</time></trkpt><trkpt lat="43.201283" lon="11.4780547"><ele>202.66666666666669</ele><time>2026-04-04T14:10:30.913Z</time></trkpt><trkpt lat="43.20136" lon="11.478233"><ele>201.0</ele><time>2026-04-04T14:10:31.918Z</time></trkpt><trkpt lat="43.2014384" lon="11.4784233"><ele>203.66666666666669</ele><time>2026-04-04T14:10:32.916Z</time></trkpt><trkpt lat="43.2015148" lon="11.4786115"><ele>206.33333333333334</ele><time>2026-04-04T14:10:33.915Z</time></trkpt><trkpt lat="43.2015904" lon="11.4788054"><ele>209.0</ele><time>2026-04-04T14:10:34.916Z</time></trkpt><trkpt lat="43.2016596" lon="11.4790104"><ele>210.0</ele><time>2026-04-04T14:10:35.916Z</time></trkpt><trkpt lat="43.2017234" lon="11.4792246"><ele>211.0</ele><time>2026-04-04T14:10:36.913Z</time></trkpt><trkpt lat="43.2017801" lon="11.4794395"><ele>212.0</ele><time>2026-04-04T14:10:37.91Z</time></trkpt><trkpt lat="43.2018336" lon="11.4796417"><ele>212.0</ele><time>2026-04-04T14:10:38.916Z</time></trkpt><trkpt lat="43.2018837" lon="11.4798257"><ele>212.0</ele><time>2026-04-04T14:10:39.914Z</time></trkpt><trkpt lat="43.2019376" lon="11.4799951"><ele>212.0</ele><time>2026-04-04T14:10:40.913Z</time></trkpt><trkpt lat="43.2019917" lon="11.480151"><ele>212.0</ele><time>2026-04-04T14:10:41.912Z</time></trkpt><trkpt lat="43.2020492" lon="11.4803085"><ele>211.25</ele><time>2026-04-04T14:10:42.912Z</time></trkpt><trkpt lat="43.2021093" lon="11.4804655"><ele>210.5</ele><time>2026-04-04T14:10:43.912Z</time></trkpt><trkpt lat="43.2021699" lon="11.4806282"><ele>209.75</ele><time>2026-04-04T14:10:44.915Z</time></trkpt><trkpt lat="43.2022194" lon="11.4807985"><ele>209.0</ele><time>2026-04-04T14:10:45.912Z</time></trkpt><trkpt lat="43.2022519" lon="11.480978"><ele>209.0</ele><time>2026-04-04T14:10:46.913Z</time></trkpt><trkpt lat="43.2022753" lon="11.4811508"><ele>209.0</ele><time>2026-04-04T14:10:47.916Z</time></trkpt><trkpt lat="43.2022973" lon="11.4813279"><ele>209.0</ele><time>2026-04-04T14:10:48.904Z</time></trkpt><trkpt lat="43.2023149" lon="11.4815143"><ele>209.0</ele><time>2026-04-04T14:10:49.911Z</time></trkpt><trkpt lat="43.202326" lon="11.4816846"><ele>210.0</ele><time>2026-04-04T14:10:50.916Z</time></trkpt><trkpt lat="43.2023309" lon="11.4818383"><ele>211.0</ele><time>2026-04-04T14:10:51.917Z</time></trkpt><trkpt lat="43.2023276" lon="11.4819722"><ele>211.99999999999997</ele><time>2026-04-04T14:10:52.909Z</time></trkpt><trkpt lat="43.202308" lon="11.4820929"><ele>213.0</ele><time>2026-04-04T14:10:53.914Z</time></trkpt><trkpt lat="43.2022842" lon="11.4822136"><ele>214.0</ele><time>2026-04-04T14:10:54.913Z</time></trkpt><trkpt lat="43.2022567" lon="11.4823268"><ele>215.49999999999997</ele><time>2026-04-04T14:10:55.908Z</time></trkpt><trkpt lat="43.2022317" lon="11.4824453"><ele>217.0</ele><time>2026-04-04T14:10:56.908Z</time></trkpt><trkpt lat="43.202216" lon="11.4825667"><ele>218.5</ele><time>2026-04-04T14:10:57.91Z</time></trkpt><trkpt lat="43.2022078" lon="11.4826857"><ele>220.0</ele><time>2026-04-04T14:10:58.914Z</time></trkpt><trkpt lat="43.2022048" lon="11.4828053"><ele>221.49999999999997</ele><time>2026-04-04T14:10:59.914Z</time></trkpt><trkpt lat="43.2022116" lon="11.4829325"><ele>223.0</ele><time>2026-04-04T14:11:00.907Z</time></trkpt><trkpt lat="43.2022106" lon="11.4830539"><ele>225.33333333333331</ele><time>2026-04-04T14:11:01.91Z</time></trkpt><trkpt lat="43.2021914" lon="11.4831662"><ele>227.66666666666666</ele><time>2026-04-04T14:11:02.91Z</time></trkpt><trkpt lat="43.2021596" lon="11.4832674"><ele>230.0</ele><time>2026-04-04T14:11:03.913Z</time></trkpt><trkpt lat="43.2021242" lon="11.4833644"><ele>232.33333333333331</ele><time>2026-04-04T14:11:04.91Z</time></trkpt><trkpt lat="43.2020744" lon="11.4834454"><ele>234.66666666666666</ele><time>2026-04-04T14:11:05.906Z</time></trkpt><trkpt lat="43.2020152" lon="11.4835333"><ele>237.0</ele><time>2026-04-04T14:11:06.907Z</time></trkpt><trkpt lat="43.2019526" lon="11.4836254"><ele>237.0</ele><time>2026-04-04T14:11:07.91Z</time></trkpt><trkpt lat="43.2018913" lon="11.4837182"><ele>237.0</ele><time>2026-04-04T14:11:08.913Z</time></trkpt><trkpt lat="43.2018392" lon="11.4838128"><ele>237.0</ele><time>2026-04-04T14:11:09.918Z</time></trkpt><trkpt lat="43.2017966" lon="11.4839015"><ele>237.0</ele><time>2026-04-04T14:11:10.914Z</time></trkpt><trkpt lat="43.2017667" lon="11.48399"><ele>237.0</ele><time>2026-04-04T14:11:11.909Z</time></trkpt><trkpt lat="43.2017766" lon="11.4841518"><ele>237.0</ele><time>2026-04-04T14:11:13.916Z</time></trkpt><trkpt lat="43.2018349" lon="11.4842906"><ele>241.0</ele><time>2026-04-04T14:11:15.91Z</time></trkpt><trkpt lat="43.2019017" lon="11.4844254"><ele>245.0</ele><time>2026-04-04T14:11:17.907Z</time></trkpt><trkpt lat="43.2019629" lon="11.484565"><ele>249.0</ele><time>2026-04-04T14:11:19.911Z</time></trkpt><trkpt lat="43.2020213" lon="11.4847025"><ele>253.0</ele><time>2026-04-04T14:11:21.917Z</time></trkpt><trkpt lat="43.2020705" lon="11.4848477"><ele>253.14285714285717</ele><time>2026-04-04T14:11:23.935Z</time></trkpt><trkpt lat="43.2020927" lon="11.4849378"><ele>253.28571428571428</ele><time>2026-04-04T14:11:24.918Z</time></trkpt><trkpt lat="43.2021094" lon="11.4850287"><ele>253.42857142857144</ele><time>2026-04-04T14:11:25.908Z</time></trkpt><trkpt lat="43.2021235" lon="11.4851196"><ele>253.57142857142858</ele><time>2026-04-04T14:11:26.914Z</time></trkpt><trkpt lat="43.2021431" lon="11.4852141"><ele>253.71428571428572</ele><time>2026-04-04T14:11:27.906Z</time></trkpt><trkpt lat="43.2021629" lon="11.4853176"><ele>253.85714285714286</ele><time>2026-04-04T14:11:28.908Z</time></trkpt><trkpt lat="43.2021795" lon="11.485416"><ele>254.0</ele><time>2026-04-04T14:11:29.911Z</time></trkpt><trkpt lat="43.2021983" lon="11.4855042"><ele>254.0</ele><time>2026-04-04T14:11:30.91Z</time></trkpt><trkpt lat="43.2022184" lon="11.4855975"><ele>254.0</ele><time>2026-04-04T14:11:31.914Z</time></trkpt><trkpt lat="43.2022378" lon="11.4856954"><ele>254.0</ele><time>2026-04-04T14:11:32.908Z</time></trkpt><trkpt lat="43.2022609" lon="11.485795"><ele>254.0</ele><time>2026-04-04T14:11:33.907Z</time></trkpt><trkpt lat="43.2022922" lon="11.485889"><ele>254.0</ele><time>2026-04-04T14:11:34.904Z</time></trkpt><trkpt lat="43.2023215" lon="11.4859758"><ele>254.0</ele><time>2026-04-04T14:11:35.92Z</time></trkpt><trkpt lat="43.2023563" lon="11.4860688"><ele>254.0</ele><time>2026-04-04T14:11:36.908Z</time></trkpt><trkpt lat="43.2023928" lon="11.4861518"><ele>254.33333333333334</ele><time>2026-04-04T14:11:37.907Z</time></trkpt><trkpt lat="43.2024316" lon="11.4862285"><ele>254.66666666666669</ele><time>2026-04-04T14:11:38.918Z</time></trkpt><trkpt lat="43.2024821" lon="11.4863074"><ele>255.0</ele><time>2026-04-04T14:11:39.915Z</time></trkpt><trkpt lat="43.2025383" lon="11.4863809"><ele>255.33333333333331</ele><time>2026-04-04T14:11:40.923Z</time></trkpt><trkpt lat="43.2025993" lon="11.4864585"><ele>255.66666666666666</ele><time>2026-04-04T14:11:41.916Z</time></trkpt><trkpt lat="43.2026656" lon="11.4865381"><ele>256.0</ele><time>2026-04-04T14:11:42.917Z</time></trkpt><trkpt lat="43.2027332" lon="11.4866215"><ele>254.4</ele><time>2026-04-04T14:11:43.917Z</time></trkpt><trkpt lat="43.202797" lon="11.4867027"><ele>252.8</ele><time>2026-04-04T14:11:44.912Z</time></trkpt><trkpt lat="43.2028675" lon="11.4867947"><ele>251.20000000000002</ele><time>2026-04-04T14:11:45.908Z</time></trkpt><trkpt lat="43.2029454" lon="11.4868847"><ele>249.60000000000002</ele><time>2026-04-04T14:11:46.916Z</time></trkpt><trkpt lat="43.2030243" lon="11.4869818"><ele>248.0</ele><time>2026-04-04T14:11:47.923Z</time></trkpt><trkpt lat="43.2031057" lon="11.4870827"><ele>248.2</ele><time>2026-04-04T14:11:48.917Z</time></trkpt><trkpt lat="43.203189" lon="11.4871841"><ele>248.4</ele><time>2026-04-04T14:11:49.918Z</time></trkpt><trkpt lat="43.2032695" lon="11.4872877"><ele>248.59999999999997</ele><time>2026-04-04T14:11:50.921Z</time></trkpt><trkpt lat="43.203348" lon="11.4873933"><ele>248.79999999999998</ele><time>2026-04-04T14:11:51.909Z</time></trkpt><trkpt lat="43.2034233" lon="11.4874854"><ele>249.0</ele><time>2026-04-04T14:11:52.914Z</time></trkpt><trkpt lat="43.2034973" lon="11.4875674"><ele>249.0</ele><time>2026-04-04T14:11:53.913Z</time></trkpt><trkpt lat="43.2035575" lon="11.4876422"><ele>249.0</ele><time>2026-04-04T14:11:54.915Z</time></trkpt><trkpt lat="43.2036183" lon="11.4877155"><ele>249.0</ele><time>2026-04-04T14:11:55.914Z</time></trkpt><trkpt lat="43.203673" lon="11.4878002"><ele>249.0</ele><time>2026-04-04T14:11:56.919Z</time></trkpt><trkpt lat="43.203718" lon="11.4878919"><ele>249.0</ele><time>2026-04-04T14:11:57.909Z</time></trkpt><trkpt lat="43.203771" lon="11.4879897"><ele>249.0</ele><time>2026-04-04T14:11:58.919Z</time></trkpt><trkpt lat="43.2038229" lon="11.4880895"><ele>246.39999999999998</ele><time>2026-04-04T14:11:59.92Z</time></trkpt><trkpt lat="43.2038774" lon="11.4881934"><ele>243.79999999999998</ele><time>2026-04-04T14:12:00.916Z</time></trkpt><trkpt lat="43.2039387" lon="11.4883009"><ele>241.20000000000002</ele><time>2026-04-04T14:12:01.918Z</time></trkpt><trkpt lat="43.2039979" lon="11.4884071"><ele>238.60000000000002</ele><time>2026-04-04T14:12:02.915Z</time></trkpt><trkpt lat="43.2040552" lon="11.4885115"><ele>236.0</ele><time>2026-04-04T14:12:03.908Z</time></trkpt><trkpt lat="43.2041152" lon="11.4886123"><ele>238.4</ele><time>2026-04-04T14:12:04.912Z</time></trkpt><trkpt lat="43.2041739" lon="11.4887069"><ele>240.8</ele><time>2026-04-04T14:12:05.919Z</time></trkpt><trkpt lat="43.20424" lon="11.4887991"><ele>243.20000000000002</ele><time>2026-04-04T14:12:06.922Z</time></trkpt><trkpt lat="43.2043058" lon="11.4888931"><ele>245.60000000000002</ele><time>2026-04-04T14:12:07.91Z</time></trkpt><trkpt lat="43.2043767" lon="11.4889943"><ele>248.0</ele><time>2026-04-04T14:12:08.918Z</time></trkpt><trkpt lat="43.2044375" lon="11.4891004"><ele>248.0</ele><time>2026-04-04T14:12:09.919Z</time></trkpt><trkpt lat="43.2044974" lon="11.4892164"><ele>248.0</ele><time>2026-04-04T14:12:10.922Z</time></trkpt><trkpt lat="43.2045502" lon="11.4893442"><ele>248.0</ele><time>2026-04-04T14:12:11.906Z</time></trkpt><trkpt lat="43.2045937" lon="11.4894797"><ele>248.0</ele><time>2026-04-04T14:12:12.913Z</time></trkpt><trkpt lat="43.2046303" lon="11.4896027"><ele>248.0</ele><time>2026-04-04T14:12:13.909Z</time></trkpt><trkpt lat="43.2046691" lon="11.4897269"><ele>250.4</ele><time>2026-04-04T14:12:14.911Z</time></trkpt><trkpt lat="43.2047046" lon="11.4898495"><ele>252.8</ele><time>2026-04-04T14:12:15.903Z</time></trkpt><trkpt lat="43.2047437" lon="11.4899751"><ele>255.2</ele><time>2026-04-04T14:12:16.904Z</time></trkpt><trkpt lat="43.2047847" lon="11.490091"><ele>257.6</ele><time>2026-04-04T14:12:17.909Z</time></trkpt><trkpt lat="43.2048386" lon="11.4901996"><ele>260.0</ele><time>2026-04-04T14:12:18.91Z</time></trkpt><trkpt lat="43.2048951" lon="11.4903076"><ele>260.0</ele><time>2026-04-04T14:12:19.907Z</time></trkpt><trkpt lat="43.2049527" lon="11.490411"><ele>260.0</ele><time>2026-04-04T14:12:20.907Z</time></trkpt><trkpt lat="43.2050138" lon="11.4904987"><ele>260.0</ele><time>2026-04-04T14:12:21.912Z</time></trkpt><trkpt lat="43.2050789" lon="11.4905912"><ele>260.0</ele><time>2026-04-04T14:12:22.904Z</time></trkpt><trkpt lat="43.2051486" lon="11.4906807"><ele>260.0</ele><time>2026-04-04T14:12:23.908Z</time></trkpt><trkpt lat="43.2052233" lon="11.4907586"><ele>259.7142857142857</ele><time>2026-04-04T14:12:24.912Z</time></trkpt><trkpt lat="43.2052983" lon="11.4908137"><ele>259.42857142857144</ele><time>2026-04-04T14:12:25.908Z</time></trkpt><trkpt lat="43.2053698" lon="11.490848"><ele>259.1428571428571</ele><time>2026-04-04T14:12:26.91Z</time></trkpt><trkpt lat="43.2054426" lon="11.490869"><ele>258.8571428571429</ele><time>2026-04-04T14:12:27.911Z</time></trkpt><trkpt lat="43.2055112" lon="11.4908837"><ele>258.57142857142856</ele><time>2026-04-04T14:12:28.911Z</time></trkpt><trkpt lat="43.2055791" lon="11.4908884"><ele>258.2857142857143</ele><time>2026-04-04T14:12:29.917Z</time></trkpt><trkpt lat="43.2056481" lon="11.4908895"><ele>258.0</ele><time>2026-04-04T14:12:30.912Z</time></trkpt><trkpt lat="43.2057114" lon="11.4908905"><ele>257.99999999999994</ele><time>2026-04-04T14:12:31.908Z</time></trkpt><trkpt lat="43.2057763" lon="11.4908926"><ele>258.0</ele><time>2026-04-04T14:12:32.901Z</time></trkpt><trkpt lat="43.2058429" lon="11.4908784"><ele>258.0</ele><time>2026-04-04T14:12:33.901Z</time></trkpt><trkpt lat="43.2059098" lon="11.490877"><ele>258.0</ele><time>2026-04-04T14:12:34.908Z</time></trkpt><trkpt lat="43.2059781" lon="11.4908702"><ele>258.0</ele><time>2026-04-04T14:12:35.904Z</time></trkpt><trkpt lat="43.2060502" lon="11.4908687"><ele>257.99999999999994</ele><time>2026-04-04T14:12:36.909Z</time></trkpt><trkpt lat="43.2061187" lon="11.4908638"><ele>258.0</ele><time>2026-04-04T14:12:37.915Z</time></trkpt><trkpt lat="43.2061822" lon="11.4908648"><ele>257.99999999999994</ele><time>2026-04-04T14:12:38.914Z</time></trkpt><trkpt lat="43.2062509" lon="11.4908768"><ele>258.0</ele><time>2026-04-04T14:12:39.917Z</time></trkpt><trkpt lat="43.206318" lon="11.4908906"><ele>258.0</ele><time>2026-04-04T14:12:40.917Z</time></trkpt><trkpt lat="43.2063868" lon="11.4909114"><ele>258.0</ele><time>2026-04-04T14:12:41.916Z</time></trkpt><trkpt lat="43.2064512" lon="11.4909495"><ele>258.0</ele><time>2026-04-04T14:12:42.917Z</time></trkpt><trkpt lat="43.206509" lon="11.490998"><ele>257.99999999999994</ele><time>2026-04-04T14:12:43.914Z</time></trkpt><trkpt lat="43.206569" lon="11.491046"><ele>258.0</ele><time>2026-04-04T14:12:44.912Z</time></trkpt><trkpt lat="43.2066196" lon="11.4911067"><ele>257.85714285714283</ele><time>2026-04-04T14:12:45.904Z</time></trkpt><trkpt lat="43.2066657" lon="11.4911759"><ele>257.7142857142857</ele><time>2026-04-04T14:12:46.914Z</time></trkpt><trkpt lat="43.2067113" lon="11.4912437"><ele>257.57142857142856</ele><time>2026-04-04T14:12:47.904Z</time></trkpt><trkpt lat="43.2067506" lon="11.4913214"><ele>257.42857142857144</ele><time>2026-04-04T14:12:48.913Z</time></trkpt><trkpt lat="43.206782" lon="11.4913971"><ele>257.2857142857143</ele><time>2026-04-04T14:12:49.909Z</time></trkpt><trkpt lat="43.206812" lon="11.4914743"><ele>257.1428571428571</ele><time>2026-04-04T14:12:50.909Z</time></trkpt><trkpt lat="43.2068634" lon="11.4916089"><ele>257.0</ele><time>2026-04-04T14:12:52.915Z</time></trkpt><trkpt lat="43.2069122" lon="11.4917191"><ele>256.2</ele><time>2026-04-04T14:12:54.909Z</time></trkpt><trkpt lat="43.2069638" lon="11.4918241"><ele>255.39999999999998</ele><time>2026-04-04T14:12:56.913Z</time></trkpt><trkpt lat="43.2070242" lon="11.4919289"><ele>254.60000000000002</ele><time>2026-04-04T14:12:58.913Z</time></trkpt><trkpt lat="43.2070906" lon="11.4920344"><ele>253.8</ele><time>2026-04-04T14:13:00.907Z</time></trkpt><trkpt lat="43.2071796" lon="11.4921248"><ele>253.0</ele><time>2026-04-04T14:13:02.908Z</time></trkpt><trkpt lat="43.2072745" lon="11.4922052"><ele>252.28571428571433</ele><time>2026-04-04T14:13:04.916Z</time></trkpt><trkpt lat="43.2073263" lon="11.492258"><ele>251.57142857142858</ele><time>2026-04-04T14:13:05.912Z</time></trkpt><trkpt lat="43.2073803" lon="11.4923118"><ele>250.8571428571429</ele><time>2026-04-04T14:13:06.91Z</time></trkpt><trkpt lat="43.2074377" lon="11.4923655"><ele>250.14285714285717</ele><time>2026-04-04T14:13:07.908Z</time></trkpt><trkpt lat="43.2075026" lon="11.4924252"><ele>249.42857142857144</ele><time>2026-04-04T14:13:08.912Z</time></trkpt><trkpt lat="43.2075697" lon="11.4924958"><ele>248.71428571428572</ele><time>2026-04-04T14:13:09.91Z</time></trkpt><trkpt lat="43.2076336" lon="11.4925717"><ele>248.0</ele><time>2026-04-04T14:13:10.915Z</time></trkpt><trkpt lat="43.2077056" lon="11.4926519"><ele>248.0</ele><time>2026-04-04T14:13:11.907Z</time></trkpt><trkpt lat="43.2077806" lon="11.4927318"><ele>248.0</ele><time>2026-04-04T14:13:12.904Z</time></trkpt><trkpt lat="43.2078582" lon="11.4928086"><ele>248.0</ele><time>2026-04-04T14:13:13.912Z</time></trkpt><trkpt lat="43.2079316" lon="11.49289"><ele>248.0</ele><time>2026-04-04T14:13:14.918Z</time></trkpt><trkpt lat="43.208007" lon="11.4929678"><ele>248.0</ele><time>2026-04-04T14:13:15.914Z</time></trkpt><trkpt lat="43.2080825" lon="11.4930435"><ele>248.4</ele><time>2026-04-04T14:13:16.908Z</time></trkpt><trkpt lat="43.2081551" lon="11.4931103"><ele>248.8</ele><time>2026-04-04T14:13:17.912Z</time></trkpt><trkpt lat="43.2082241" lon="11.4931809"><ele>249.2</ele><time>2026-04-04T14:13:18.905Z</time></trkpt><trkpt lat="43.2083048" lon="11.4932504"><ele>249.6</ele><time>2026-04-04T14:13:19.911Z</time></trkpt><trkpt lat="43.2083868" lon="11.4933155"><ele>250.0</ele><time>2026-04-04T14:13:20.913Z</time></trkpt><trkpt lat="43.2084688" lon="11.4933765"><ele>249.99999999999997</ele><time>2026-04-04T14:13:21.905Z</time></trkpt><trkpt lat="43.2085433" lon="11.4934397"><ele>250.0</ele><time>2026-04-04T14:13:22.911Z</time></trkpt><trkpt lat="43.2086104" lon="11.4934986"><ele>250.0</ele><time>2026-04-04T14:13:23.909Z</time></trkpt><trkpt lat="43.2086812" lon="11.4935619"><ele>250.0</ele><time>2026-04-04T14:13:24.911Z</time></trkpt><trkpt lat="43.2087475" lon="11.4936254"><ele>249.99999999999997</ele><time>2026-04-04T14:13:25.918Z</time></trkpt><trkpt lat="43.2088065" lon="11.4937011"><ele>250.0</ele><time>2026-04-04T14:13:26.912Z</time></trkpt><trkpt lat="43.208856" lon="11.4937861"><ele>251.49999999999997</ele><time>2026-04-04T14:13:27.912Z</time></trkpt><trkpt lat="43.2089037" lon="11.4938804"><ele>253.0</ele><time>2026-04-04T14:13:28.909Z</time></trkpt><trkpt lat="43.208945" lon="11.4939788"><ele>254.5</ele><time>2026-04-04T14:13:29.92Z</time></trkpt><trkpt lat="43.2089846" lon="11.4940836"><ele>256.0</ele><time>2026-04-04T14:13:30.915Z</time></trkpt><trkpt lat="43.2090201" lon="11.4941873"><ele>257.5</ele><time>2026-04-04T14:13:31.912Z</time></trkpt><trkpt lat="43.2090514" lon="11.4942989"><ele>259.0</ele><time>2026-04-04T14:13:32.915Z</time></trkpt><trkpt lat="43.2090898" lon="11.4944063"><ele>259.0</ele><time>2026-04-04T14:13:33.922Z</time></trkpt><trkpt lat="43.2091217" lon="11.4945239"><ele>259.0</ele><time>2026-04-04T14:13:34.915Z</time></trkpt><trkpt lat="43.2091469" lon="11.494646"><ele>259.0</ele><time>2026-04-04T14:13:35.911Z</time></trkpt><trkpt lat="43.2091735" lon="11.4947645"><ele>259.0</ele><time>2026-04-04T14:13:36.902Z</time></trkpt><trkpt lat="43.2091915" lon="11.4948824"><ele>259.0</ele><time>2026-04-04T14:13:37.914Z</time></trkpt><trkpt lat="43.2092108" lon="11.4949987"><ele>259.0</ele><time>2026-04-04T14:13:38.911Z</time></trkpt><trkpt lat="43.2092247" lon="11.4951123"><ele>259.3333333333333</ele><time>2026-04-04T14:13:39.906Z</time></trkpt><trkpt lat="43.209239" lon="11.49522"><ele>259.66666666666663</ele><time>2026-04-04T14:13:40.909Z</time></trkpt><trkpt lat="43.2092486" lon="11.4953086"><ele>260.0</ele><time>2026-04-04T14:13:41.904Z</time></trkpt><trkpt lat="43.2092605" lon="11.4953981"><ele>260.3333333333333</ele><time>2026-04-04T14:13:42.908Z</time></trkpt><trkpt lat="43.2093097" lon="11.4955396"><ele>260.6666666666667</ele><time>2026-04-04T14:13:44.902Z</time></trkpt><trkpt lat="43.2093748" lon="11.4956787"><ele>261.0</ele><time>2026-04-04T14:13:46.907Z</time></trkpt><trkpt lat="43.2094283" lon="11.495826"><ele>261.5</ele><time>2026-04-04T14:13:48.909Z</time></trkpt><trkpt lat="43.2094819" lon="11.4959637"><ele>262.0</ele><time>2026-04-04T14:13:50.915Z</time></trkpt><trkpt lat="43.2095159" lon="11.496105"><ele>262.5</ele><time>2026-04-04T14:13:52.915Z</time></trkpt><trkpt lat="43.2095596" lon="11.4962503"><ele>263.0</ele><time>2026-04-04T14:13:54.919Z</time></trkpt><trkpt lat="43.20961" lon="11.4963903"><ele>263.5</ele><time>2026-04-04T14:13:56.907Z</time></trkpt><trkpt lat="43.2096763" lon="11.4965236"><ele>264.0</ele><time>2026-04-04T14:13:58.917Z</time></trkpt><trkpt lat="43.2097562" lon="11.4966358"><ele>264.5</ele><time>2026-04-04T14:14:00.918Z</time></trkpt><trkpt lat="43.209837" lon="11.4967322"><ele>265.0</ele><time>2026-04-04T14:14:02.919Z</time></trkpt><trkpt lat="43.2099348" lon="11.4968145"><ele>265.0</ele><time>2026-04-04T14:14:04.918Z</time></trkpt><trkpt lat="43.2100427" lon="11.4968862"><ele>265.0</ele><time>2026-04-04T14:14:06.913Z</time></trkpt><trkpt lat="43.210147" lon="11.4969755"><ele>265.0</ele><time>2026-04-04T14:14:08.91Z</time></trkpt><trkpt lat="43.2102629" lon="11.497062"><ele>265.0</ele><time>2026-04-04T14:14:10.909Z</time></trkpt><trkpt lat="43.2103234" lon="11.4971008"><ele>265.0</ele><time>2026-04-04T14:14:11.903Z</time></trkpt><trkpt lat="43.2103903" lon="11.497147"><ele>264.85714285714283</ele><time>2026-04-04T14:14:12.912Z</time></trkpt><trkpt lat="43.2104514" lon="11.4971977"><ele>264.7142857142857</ele><time>2026-04-04T14:14:13.905Z</time></trkpt><trkpt lat="43.2105097" lon="11.4972437"><ele>264.57142857142856</ele><time>2026-04-04T14:14:14.916Z</time></trkpt><trkpt lat="43.2105696" lon="11.49729"><ele>264.42857142857144</ele><time>2026-04-04T14:14:15.906Z</time></trkpt><trkpt lat="43.210629" lon="11.4973368"><ele>264.2857142857143</ele><time>2026-04-04T14:14:16.912Z</time></trkpt><trkpt lat="43.2106871" lon="11.497391"><ele>264.1428571428571</ele><time>2026-04-04T14:14:17.912Z</time></trkpt><trkpt lat="43.2107395" lon="11.4974521"><ele>264.0</ele><time>2026-04-04T14:14:18.908Z</time></trkpt><trkpt lat="43.2107844" lon="11.4975263"><ele>264.0</ele><time>2026-04-04T14:14:19.916Z</time></trkpt><trkpt lat="43.2108207" lon="11.4976063"><ele>264.0</ele><time>2026-04-04T14:14:20.92Z</time></trkpt><trkpt lat="43.2108486" lon="11.4976945"><ele>264.0</ele><time>2026-04-04T14:14:21.914Z</time></trkpt><trkpt lat="43.2108665" lon="11.4977876"><ele>264.0</ele><time>2026-04-04T14:14:22.918Z</time></trkpt><trkpt lat="43.2108827" lon="11.497883"><ele>264.0</ele><time>2026-04-04T14:14:23.906Z</time></trkpt><trkpt lat="43.2108985" lon="11.4979753"><ele>264.0</ele><time>2026-04-04T14:14:24.91Z</time></trkpt><trkpt lat="43.2109163" lon="11.4980658"><ele>264.0</ele><time>2026-04-04T14:14:25.918Z</time></trkpt><trkpt lat="43.2109333" lon="11.4981525"><ele>263.1666666666667</ele><time>2026-04-04T14:14:26.908Z</time></trkpt><trkpt lat="43.2109634" lon="11.4983109"><ele>262.3333333333333</ele><time>2026-04-04T14:14:28.914Z</time></trkpt><trkpt lat="43.2110141" lon="11.498455"><ele>261.5</ele><time>2026-04-04T14:14:30.912Z</time></trkpt><trkpt lat="43.2110568" lon="11.4985192"><ele>260.66666666666663</ele><time>2026-04-04T14:14:31.919Z</time></trkpt><trkpt lat="43.211116" lon="11.4985788"><ele>259.8333333333333</ele><time>2026-04-04T14:14:32.916Z</time></trkpt><trkpt lat="43.2111743" lon="11.4986155"><ele>259.0</ele><time>2026-04-04T14:14:33.917Z</time></trkpt><trkpt lat="43.2112354" lon="11.4986376"><ele>259.0</ele><time>2026-04-04T14:14:34.917Z</time></trkpt><trkpt lat="43.2112993" lon="11.4986571"><ele>259.0</ele><time>2026-04-04T14:14:35.916Z</time></trkpt><trkpt lat="43.2113617" lon="11.4986701"><ele>259.0</ele><time>2026-04-04T14:14:36.907Z</time></trkpt><trkpt lat="43.2114917" lon="11.4986588"><ele>259.0</ele><time>2026-04-04T14:14:38.913Z</time></trkpt><trkpt lat="43.2115573" lon="11.49865"><ele>259.0</ele><time>2026-04-04T14:14:39.914Z</time></trkpt><trkpt lat="43.2116234" lon="11.4986364"><ele>259.0</ele><time>2026-04-04T14:14:40.914Z</time></trkpt><trkpt lat="43.2117432" lon="11.4986069"><ele>257.5</ele><time>2026-04-04T14:14:42.915Z</time></trkpt><trkpt lat="43.2118446" lon="11.4985782"><ele>256.0</ele><time>2026-04-04T14:14:44.917Z</time></trkpt><trkpt lat="43.2119258" lon="11.4985719"><ele>254.5</ele><time>2026-04-04T14:14:46.919Z</time></trkpt><trkpt lat="43.2120199" lon="11.4986368"><ele>253.0</ele><time>2026-04-04T14:14:48.912Z</time></trkpt><trkpt lat="43.2120737" lon="11.4986945"><ele>251.49999999999997</ele><time>2026-04-04T14:14:49.905Z</time></trkpt><trkpt lat="43.212126" lon="11.498771"><ele>250.0</ele><time>2026-04-04T14:14:50.908Z</time></trkpt><trkpt lat="43.2121607" lon="11.49885"><ele>248.99999999999997</ele><time>2026-04-04T14:14:51.91Z</time></trkpt><trkpt lat="43.2121874" lon="11.498942"><ele>248.0</ele><time>2026-04-04T14:14:52.911Z</time></trkpt><trkpt lat="43.2122093" lon="11.4990361"><ele>247.0</ele><time>2026-04-04T14:14:53.913Z</time></trkpt><trkpt lat="43.2122246" lon="11.4991266"><ele>246.0</ele><time>2026-04-04T14:14:54.911Z</time></trkpt><trkpt lat="43.2122211" lon="11.4992194"><ele>244.99999999999997</ele><time>2026-04-04T14:14:55.909Z</time></trkpt><trkpt lat="43.2122056" lon="11.4993078"><ele>244.0</ele><time>2026-04-04T14:14:56.91Z</time></trkpt><trkpt lat="43.2121401" lon="11.4994557"><ele>243.99999999999997</ele><time>2026-04-04T14:14:58.914Z</time></trkpt><trkpt lat="43.2120966" lon="11.4995234"><ele>244.0</ele><time>2026-04-04T14:14:59.911Z</time></trkpt><trkpt lat="43.2120336" lon="11.4995686"><ele>243.99999999999997</ele><time>2026-04-04T14:15:00.914Z</time></trkpt><trkpt lat="43.211957" lon="11.499601"><ele>243.99999999999997</ele><time>2026-04-04T14:15:01.905Z</time></trkpt><trkpt lat="43.2118839" lon="11.4996226"><ele>244.0</ele><time>2026-04-04T14:15:02.909Z</time></trkpt><trkpt lat="43.2118129" lon="11.4996495"><ele>243.99999999999997</ele><time>2026-04-04T14:15:03.909Z</time></trkpt><trkpt lat="43.2117404" lon="11.4996852"><ele>243.99999999999997</ele><time>2026-04-04T14:15:04.921Z</time></trkpt><trkpt lat="43.2116803" lon="11.4997371"><ele>241.83333333333331</ele><time>2026-04-04T14:15:05.915Z</time></trkpt><trkpt lat="43.2116323" lon="11.499825"><ele>239.66666666666666</ele><time>2026-04-04T14:15:06.913Z</time></trkpt><trkpt lat="43.2115908" lon="11.4999279"><ele>237.5</ele><time>2026-04-04T14:15:07.907Z</time></trkpt><trkpt lat="43.2115578" lon="11.5000332"><ele>235.33333333333331</ele><time>2026-04-04T14:15:08.91Z</time></trkpt><trkpt lat="43.2115248" lon="11.5001453"><ele>233.16666666666666</ele><time>2026-04-04T14:15:09.908Z</time></trkpt><trkpt lat="43.2114888" lon="11.500273"><ele>231.0</ele><time>2026-04-04T14:15:10.921Z</time></trkpt><trkpt lat="43.2114592" lon="11.500403"><ele>229.0</ele><time>2026-04-04T14:15:11.919Z</time></trkpt><trkpt lat="43.211432" lon="11.5005362"><ele>227.0</ele><time>2026-04-04T14:15:12.915Z</time></trkpt><trkpt lat="43.2114115" lon="11.5006668"><ele>225.0</ele><time>2026-04-04T14:15:13.911Z</time></trkpt><trkpt lat="43.2113857" lon="11.5007826"><ele>223.0</ele><time>2026-04-04T14:15:14.913Z</time></trkpt><trkpt lat="43.2113479" lon="11.5008767"><ele>221.0</ele><time>2026-04-04T14:15:15.909Z</time></trkpt><trkpt lat="43.2112985" lon="11.500958"><ele>219.0</ele><time>2026-04-04T14:15:16.905Z</time></trkpt><trkpt lat="43.211237" lon="11.5010174"><ele>219.0</ele><time>2026-04-04T14:15:17.907Z</time></trkpt><trkpt lat="43.2111701" lon="11.5010626"><ele>219.0</ele><time>2026-04-04T14:15:18.906Z</time></trkpt><trkpt lat="43.2110943" lon="11.5010946"><ele>219.0</ele><time>2026-04-04T14:15:19.909Z</time></trkpt><trkpt lat="43.2110157" lon="11.5011334"><ele>219.0</ele><time>2026-04-04T14:15:20.909Z</time></trkpt><trkpt lat="43.2109392" lon="11.5011781"><ele>219.0</ele><time>2026-04-04T14:15:21.906Z</time></trkpt><trkpt lat="43.2108611" lon="11.5012367"><ele>219.0</ele><time>2026-04-04T14:15:22.914Z</time></trkpt><trkpt lat="43.2107811" lon="11.5013145"><ele>219.2</ele><time>2026-04-04T14:15:23.906Z</time></trkpt><trkpt lat="43.2107017" lon="11.5014032"><ele>219.39999999999998</ele><time>2026-04-04T14:15:24.912Z</time></trkpt><trkpt lat="43.2106315" lon="11.5015021"><ele>219.6</ele><time>2026-04-04T14:15:25.914Z</time></trkpt><trkpt lat="43.2105871" lon="11.5015964"><ele>219.8</ele><time>2026-04-04T14:15:26.91Z</time></trkpt><trkpt lat="43.2105491" lon="11.5017082"><ele>220.0</ele><time>2026-04-04T14:15:27.902Z</time></trkpt><trkpt lat="43.2105127" lon="11.501829"><ele>219.99999999999997</ele><time>2026-04-04T14:15:28.909Z</time></trkpt><trkpt lat="43.2104789" lon="11.5019464"><ele>220.0</ele><time>2026-04-04T14:15:29.912Z</time></trkpt><trkpt lat="43.210447" lon="11.5020644"><ele>220.0</ele><time>2026-04-04T14:15:30.904Z</time></trkpt><trkpt lat="43.2104138" lon="11.5021717"><ele>220.0</ele><time>2026-04-04T14:15:31.908Z</time></trkpt><trkpt lat="43.2103715" lon="11.502263"><ele>219.99999999999997</ele><time>2026-04-04T14:15:32.907Z</time></trkpt><trkpt lat="43.210311" lon="11.5023338"><ele>220.0</ele><time>2026-04-04T14:15:33.912Z</time></trkpt><trkpt lat="43.2102506" lon="11.5024015"><ele>221.66666666666666</ele><time>2026-04-04T14:15:34.914Z</time></trkpt><trkpt lat="43.2101824" lon="11.5024648"><ele>223.33333333333331</ele><time>2026-04-04T14:15:35.916Z</time></trkpt><trkpt lat="43.2101136" lon="11.5025345"><ele>225.0</ele><time>2026-04-04T14:15:36.911Z</time></trkpt><trkpt lat="43.2100473" lon="11.5026052"><ele>226.66666666666669</ele><time>2026-04-04T14:15:37.911Z</time></trkpt><trkpt lat="43.2099762" lon="11.5026731"><ele>228.33333333333334</ele><time>2026-04-04T14:15:38.912Z</time></trkpt><trkpt lat="43.2099111" lon="11.5027403"><ele>230.0</ele><time>2026-04-04T14:15:39.906Z</time></trkpt><trkpt lat="43.2098434" lon="11.5028016"><ele>228.99999999999997</ele><time>2026-04-04T14:15:40.911Z</time></trkpt><trkpt lat="43.2097781" lon="11.5028656"><ele>228.0</ele><time>2026-04-04T14:15:41.906Z</time></trkpt><trkpt lat="43.2097155" lon="11.5029254"><ele>227.0</ele><time>2026-04-04T14:15:42.913Z</time></trkpt><trkpt lat="43.209659" lon="11.5029855"><ele>226.0</ele><time>2026-04-04T14:15:43.912Z</time></trkpt><trkpt lat="43.2096008" lon="11.5030451"><ele>225.0</ele><time>2026-04-04T14:15:44.911Z</time></trkpt><trkpt lat="43.2095441" lon="11.5031052"><ele>224.0</ele><time>2026-04-04T14:15:45.898Z</time></trkpt><trkpt lat="43.2094936" lon="11.5031597"><ele>223.0</ele><time>2026-04-04T14:15:46.903Z</time></trkpt><trkpt lat="43.2094454" lon="11.5032175"><ele>222.33333333333331</ele><time>2026-04-04T14:15:47.915Z</time></trkpt><trkpt lat="43.2093579" lon="11.5033321"><ele>221.66666666666666</ele><time>2026-04-04T14:15:49.91Z</time></trkpt><trkpt lat="43.2093122" lon="11.5033958"><ele>221.0</ele><time>2026-04-04T14:15:50.908Z</time></trkpt><trkpt lat="43.2092626" lon="11.5034729"><ele>220.33333333333331</ele><time>2026-04-04T14:15:51.914Z</time></trkpt><trkpt lat="43.2092151" lon="11.5035485"><ele>219.66666666666666</ele><time>2026-04-04T14:15:52.908Z</time></trkpt><trkpt lat="43.2091682" lon="11.5036329"><ele>219.0</ele><time>2026-04-04T14:15:53.909Z</time></trkpt><trkpt lat="43.209121" lon="11.5037143"><ele>217.16666666666666</ele><time>2026-04-04T14:15:54.914Z</time></trkpt><trkpt lat="43.2090742" lon="11.5038041"><ele>215.33333333333331</ele><time>2026-04-04T14:15:55.91Z</time></trkpt><trkpt lat="43.2090292" lon="11.503893"><ele>213.5</ele><time>2026-04-04T14:15:56.915Z</time></trkpt><trkpt lat="43.2089803" lon="11.5039785"><ele>211.66666666666666</ele><time>2026-04-04T14:15:57.91Z</time></trkpt><trkpt lat="43.2089315" lon="11.5040609"><ele>209.83333333333331</ele><time>2026-04-04T14:15:58.905Z</time></trkpt><trkpt lat="43.2088844" lon="11.5041412"><ele>208.0</ele><time>2026-04-04T14:15:59.908Z</time></trkpt><trkpt lat="43.2088382" lon="11.5042158"><ele>207.99999999999997</ele><time>2026-04-04T14:16:00.913Z</time></trkpt><trkpt lat="43.208791" lon="11.5042926"><ele>208.0</ele><time>2026-04-04T14:16:01.91Z</time></trkpt><trkpt lat="43.2087388" lon="11.5043659"><ele>208.0</ele><time>2026-04-04T14:16:02.904Z</time></trkpt><trkpt lat="43.2086827" lon="11.5044282"><ele>208.0</ele><time>2026-04-04T14:16:03.909Z</time></trkpt><trkpt lat="43.2086152" lon="11.5044739"><ele>207.99999999999997</ele><time>2026-04-04T14:16:04.907Z</time></trkpt><trkpt lat="43.2085418" lon="11.5045076"><ele>208.0</ele><time>2026-04-04T14:16:05.911Z</time></trkpt><trkpt lat="43.2084562" lon="11.504535"><ele>207.99999999999997</ele><time>2026-04-04T14:16:06.904Z</time></trkpt><trkpt lat="43.2083684" lon="11.5045548"><ele>208.0</ele><time>2026-04-04T14:16:07.908Z</time></trkpt><trkpt lat="43.2082841" lon="11.5045682"><ele>208.0</ele><time>2026-04-04T14:16:08.91Z</time></trkpt><trkpt lat="43.2082008" lon="11.504578"><ele>208.0</ele><time>2026-04-04T14:16:09.908Z</time></trkpt><trkpt lat="43.2081157" lon="11.5045823"><ele>207.99999999999997</ele><time>2026-04-04T14:16:10.91Z</time></trkpt><trkpt lat="43.2080308" lon="11.5045853"><ele>208.0</ele><time>2026-04-04T14:16:11.911Z</time></trkpt><trkpt lat="43.2079576" lon="11.5045754"><ele>204.8</ele><time>2026-04-04T14:16:12.906Z</time></trkpt><trkpt lat="43.2078897" lon="11.5045511"><ele>201.60000000000002</ele><time>2026-04-04T14:16:13.904Z</time></trkpt><trkpt lat="43.2077905" lon="11.5045313"><ele>198.39999999999998</ele><time>2026-04-04T14:16:15.902Z</time></trkpt><trkpt lat="43.2077448" lon="11.5046485"><ele>195.2</ele><time>2026-04-04T14:16:18.901Z</time></trkpt><trkpt lat="43.2078077" lon="11.5047277"><ele>192.0</ele><time>2026-04-04T14:16:20.91Z</time></trkpt><trkpt lat="43.2079228" lon="11.504794"><ele>192.0</ele><time>2026-04-04T14:16:22.908Z</time></trkpt><trkpt lat="43.2080009" lon="11.5048289"><ele>192.0</ele><time>2026-04-04T14:16:23.91Z</time></trkpt><trkpt lat="43.2080909" lon="11.5048718"><ele>192.0</ele><time>2026-04-04T14:16:24.913Z</time></trkpt><trkpt lat="43.2081833" lon="11.5049285"><ele>192.0</ele><time>2026-04-04T14:16:25.91Z</time></trkpt><trkpt lat="43.2082735" lon="11.5049845"><ele>192.0</ele><time>2026-04-04T14:16:26.909Z</time></trkpt><trkpt lat="43.2083684" lon="11.5050354"><ele>192.0</ele><time>2026-04-04T14:16:27.909Z</time></trkpt><trkpt lat="43.2084579" lon="11.5050779"><ele>192.0</ele><time>2026-04-04T14:16:28.911Z</time></trkpt><trkpt lat="43.2085507" lon="11.5050975"><ele>192.0</ele><time>2026-04-04T14:16:29.911Z</time></trkpt><trkpt lat="43.2086337" lon="11.5051087"><ele>192.0</ele><time>2026-04-04T14:16:30.904Z</time></trkpt><trkpt lat="43.2087189" lon="11.5051135"><ele>192.0</ele><time>2026-04-04T14:16:31.913Z</time></trkpt><trkpt lat="43.2087982" lon="11.5051317"><ele>192.0</ele><time>2026-04-04T14:16:32.904Z</time></trkpt><trkpt lat="43.208869" lon="11.5051493"><ele>192.0</ele><time>2026-04-04T14:16:33.915Z</time></trkpt><trkpt lat="43.2089395" lon="11.5051665"><ele>192.0</ele><time>2026-04-04T14:16:34.907Z</time></trkpt><trkpt lat="43.2090147" lon="11.5051585"><ele>192.0</ele><time>2026-04-04T14:16:35.911Z</time></trkpt><trkpt lat="43.2090898" lon="11.5051314"><ele>192.0</ele><time>2026-04-04T14:16:36.907Z</time></trkpt><trkpt lat="43.2091629" lon="11.5051023"><ele>192.0</ele><time>2026-04-04T14:16:37.912Z</time></trkpt><trkpt lat="43.2092346" lon="11.505059"><ele>192.0</ele><time>2026-04-04T14:16:38.908Z</time></trkpt><trkpt lat="43.2093043" lon="11.5050055"><ele>190.83333333333334</ele><time>2026-04-04T14:16:39.906Z</time></trkpt><trkpt lat="43.2093689" lon="11.5049583"><ele>189.66666666666666</ele><time>2026-04-04T14:16:40.912Z</time></trkpt><trkpt lat="43.2094405" lon="11.5049196"><ele>188.5</ele><time>2026-04-04T14:16:41.908Z</time></trkpt><trkpt lat="43.2095131" lon="11.5048978"><ele>187.33333333333331</ele><time>2026-04-04T14:16:42.905Z</time></trkpt><trkpt lat="43.2095964" lon="11.5048952"><ele>186.16666666666666</ele><time>2026-04-04T14:16:43.911Z</time></trkpt><trkpt lat="43.2096857" lon="11.5049192"><ele>185.0</ele><time>2026-04-04T14:16:44.907Z</time></trkpt><trkpt lat="43.2097686" lon="11.5049734"><ele>183.4</ele><time>2026-04-04T14:16:45.907Z</time></trkpt><trkpt lat="43.2098563" lon="11.5050474"><ele>181.8</ele><time>2026-04-04T14:16:46.907Z</time></trkpt><trkpt lat="43.209935" lon="11.5051293"><ele>180.2</ele><time>2026-04-04T14:16:47.913Z</time></trkpt><trkpt lat="43.2100129" lon="11.5052028"><ele>178.6</ele><time>2026-04-04T14:16:48.907Z</time></trkpt><trkpt lat="43.2100879" lon="11.5052812"><ele>177.0</ele><time>2026-04-04T14:16:49.909Z</time></trkpt><trkpt lat="43.2101629" lon="11.5053469"><ele>177.0</ele><time>2026-04-04T14:16:50.91Z</time></trkpt><trkpt lat="43.2102494" lon="11.5054021"><ele>177.0</ele><time>2026-04-04T14:16:51.906Z</time></trkpt><trkpt lat="43.2103435" lon="11.5054284"><ele>177.0</ele><time>2026-04-04T14:16:52.907Z</time></trkpt><trkpt lat="43.2104425" lon="11.5054376"><ele>177.0</ele><time>2026-04-04T14:16:53.912Z</time></trkpt><trkpt lat="43.2105402" lon="11.5054456"><ele>177.0</ele><time>2026-04-04T14:16:54.91Z</time></trkpt><trkpt lat="43.2106384" lon="11.5054479"><ele>176.39999999999998</ele><time>2026-04-04T14:16:55.908Z</time></trkpt><trkpt lat="43.2107438" lon="11.5054391"><ele>175.79999999999998</ele><time>2026-04-04T14:16:56.904Z</time></trkpt><trkpt lat="43.2108494" lon="11.5054189"><ele>175.2</ele><time>2026-04-04T14:16:57.917Z</time></trkpt><trkpt lat="43.2109482" lon="11.5053887"><ele>174.6</ele><time>2026-04-04T14:16:58.906Z</time></trkpt><trkpt lat="43.2110417" lon="11.5053598"><ele>174.0</ele><time>2026-04-04T14:16:59.901Z</time></trkpt><trkpt lat="43.2111293" lon="11.505344"><ele>174.0</ele><time>2026-04-04T14:17:00.913Z</time></trkpt><trkpt lat="43.2112076" lon="11.5053595"><ele>174.0</ele><time>2026-04-04T14:17:01.909Z</time></trkpt><trkpt lat="43.2112838" lon="11.5054046"><ele>174.0</ele><time>2026-04-04T14:17:02.901Z</time></trkpt><trkpt lat="43.2113455" lon="11.5054906"><ele>174.0</ele><time>2026-04-04T14:17:03.908Z</time></trkpt><trkpt lat="43.2113972" lon="11.5055989"><ele>174.0</ele><time>2026-04-04T14:17:04.915Z</time></trkpt><trkpt lat="43.2114386" lon="11.5057233"><ele>174.0</ele><time>2026-04-04T14:17:05.908Z</time></trkpt><trkpt lat="43.2114792" lon="11.5058573"><ele>171.75</ele><time>2026-04-04T14:17:06.914Z</time></trkpt><trkpt lat="43.2115181" lon="11.505994"><ele>169.5</ele><time>2026-04-04T14:17:07.902Z</time></trkpt><trkpt lat="43.2115562" lon="11.5061344"><ele>167.25</ele><time>2026-04-04T14:17:08.91Z</time></trkpt><trkpt lat="43.2116018" lon="11.5062865"><ele>165.0</ele><time>2026-04-04T14:17:09.911Z</time></trkpt><trkpt lat="43.2116485" lon="11.5064488"><ele>165.0</ele><time>2026-04-04T14:17:10.905Z</time></trkpt><trkpt lat="43.2116966" lon="11.5066058"><ele>165.0</ele><time>2026-04-04T14:17:11.908Z</time></trkpt><trkpt lat="43.2117416" lon="11.506768"><ele>165.0</ele><time>2026-04-04T14:17:12.907Z</time></trkpt><trkpt lat="43.211788" lon="11.5069222"><ele>165.0</ele><time>2026-04-04T14:17:13.908Z</time></trkpt><trkpt lat="43.2118326" lon="11.5070833"><ele>164.8</ele><time>2026-04-04T14:17:14.921Z</time></trkpt><trkpt lat="43.2118771" lon="11.5072324"><ele>164.6</ele><time>2026-04-04T14:17:15.912Z</time></trkpt><trkpt lat="43.2119149" lon="11.5073678"><ele>164.39999999999998</ele><time>2026-04-04T14:17:16.908Z</time></trkpt><trkpt lat="43.2119572" lon="11.5074819"><ele>164.2</ele><time>2026-04-04T14:17:17.906Z</time></trkpt><trkpt lat="43.2120085" lon="11.5075783"><ele>164.0</ele><time>2026-04-04T14:17:18.912Z</time></trkpt><trkpt lat="43.2120674" lon="11.5076577"><ele>164.0</ele><time>2026-04-04T14:17:19.903Z</time></trkpt><trkpt lat="43.2121379" lon="11.5077297"><ele>164.0</ele><time>2026-04-04T14:17:20.909Z</time></trkpt><trkpt lat="43.2122232" lon="11.5077894"><ele>164.0</ele><time>2026-04-04T14:17:21.906Z</time></trkpt><trkpt lat="43.2123219" lon="11.5078355"><ele>164.0</ele><time>2026-04-04T14:17:22.9Z</time></trkpt><trkpt lat="43.2124118" lon="11.5078896"><ele>164.0</ele><time>2026-04-04T14:17:23.923Z</time></trkpt><trkpt lat="43.2125026" lon="11.5079584"><ele>163.6</ele><time>2026-04-04T14:17:24.909Z</time></trkpt><trkpt lat="43.2125745" lon="11.5080475"><ele>163.2</ele><time>2026-04-04T14:17:25.909Z</time></trkpt><trkpt lat="43.2126315" lon="11.5081552"><ele>162.79999999999998</ele><time>2026-04-04T14:17:26.904Z</time></trkpt><trkpt lat="43.2126804" lon="11.508278"><ele>162.39999999999998</ele><time>2026-04-04T14:17:27.909Z</time></trkpt><trkpt lat="43.2127318" lon="11.5084083"><ele>162.0</ele><time>2026-04-04T14:17:28.91Z</time></trkpt><trkpt lat="43.2127874" lon="11.5085432"><ele>162.0</ele><time>2026-04-04T14:17:29.908Z</time></trkpt><trkpt lat="43.2128485" lon="11.5086753"><ele>162.0</ele><time>2026-04-04T14:17:30.901Z</time></trkpt><trkpt lat="43.2129166" lon="11.5088166"><ele>162.0</ele><time>2026-04-04T14:17:31.903Z</time></trkpt><trkpt lat="43.2129842" lon="11.5089594"><ele>162.0</ele><time>2026-04-04T14:17:32.909Z</time></trkpt><trkpt lat="43.2130598" lon="11.5090975"><ele>161.75</ele><time>2026-04-04T14:17:33.902Z</time></trkpt><trkpt lat="43.2131267" lon="11.5092422"><ele>161.5</ele><time>2026-04-04T14:17:34.91Z</time></trkpt><trkpt lat="43.2131909" lon="11.509378"><ele>161.25</ele><time>2026-04-04T14:17:35.908Z</time></trkpt><trkpt lat="43.2132562" lon="11.5094979"><ele>161.0</ele><time>2026-04-04T14:17:36.913Z</time></trkpt><trkpt lat="43.2133311" lon="11.5096104"><ele>161.4</ele><time>2026-04-04T14:17:37.91Z</time></trkpt><trkpt lat="43.2134064" lon="11.5097074"><ele>161.8</ele><time>2026-04-04T14:17:38.911Z</time></trkpt><trkpt lat="43.2134902" lon="11.5097966"><ele>162.20000000000002</ele><time>2026-04-04T14:17:39.906Z</time></trkpt><trkpt lat="43.2135812" lon="11.5098895"><ele>162.60000000000002</ele><time>2026-04-04T14:17:40.914Z</time></trkpt><trkpt lat="43.2136748" lon="11.5099949"><ele>163.0</ele><time>2026-04-04T14:17:41.908Z</time></trkpt><trkpt lat="43.213762" lon="11.5101122"><ele>163.0</ele><time>2026-04-04T14:17:42.909Z</time></trkpt><trkpt lat="43.2138434" lon="11.5102366"><ele>163.0</ele><time>2026-04-04T14:17:43.91Z</time></trkpt><trkpt lat="43.2139193" lon="11.5103672"><ele>163.0</ele><time>2026-04-04T14:17:44.911Z</time></trkpt><trkpt lat="43.2139893" lon="11.5104985"><ele>163.0</ele><time>2026-04-04T14:17:45.903Z</time></trkpt><trkpt lat="43.2140634" lon="11.5106266"><ele>163.2</ele><time>2026-04-04T14:17:46.896Z</time></trkpt><trkpt lat="43.2141271" lon="11.5107509"><ele>163.4</ele><time>2026-04-04T14:17:47.902Z</time></trkpt><trkpt lat="43.2141917" lon="11.5108751"><ele>163.6</ele><time>2026-04-04T14:17:48.909Z</time></trkpt><trkpt lat="43.2142372" lon="11.5109942"><ele>163.79999999999998</ele><time>2026-04-04T14:17:49.906Z</time></trkpt><trkpt lat="43.2142629" lon="11.511119"><ele>164.0</ele><time>2026-04-04T14:17:50.904Z</time></trkpt><trkpt lat="43.2142729" lon="11.511239"><ele>164.33333333333331</ele><time>2026-04-04T14:17:51.912Z</time></trkpt><trkpt lat="43.2142607" lon="11.5113457"><ele>164.66666666666666</ele><time>2026-04-04T14:17:52.903Z</time></trkpt><trkpt lat="43.2142434" lon="11.511452"><ele>165.0</ele><time>2026-04-04T14:17:53.906Z</time></trkpt><trkpt lat="43.2142243" lon="11.5115683"><ele>165.33333333333334</ele><time>2026-04-04T14:17:54.894Z</time></trkpt><trkpt lat="43.2142065" lon="11.5116787"><ele>165.66666666666669</ele><time>2026-04-04T14:17:55.909Z</time></trkpt><trkpt lat="43.2142022" lon="11.5117804"><ele>166.0</ele><time>2026-04-04T14:17:56.904Z</time></trkpt><trkpt lat="43.2142125" lon="11.5118756"><ele>166.0</ele><time>2026-04-04T14:17:57.905Z</time></trkpt><trkpt lat="43.2142345" lon="11.5119663"><ele>166.0</ele><time>2026-04-04T14:17:58.907Z</time></trkpt><trkpt lat="43.2142687" lon="11.5120609"><ele>166.0</ele><time>2026-04-04T14:17:59.906Z</time></trkpt><trkpt lat="43.2143077" lon="11.5121562"><ele>166.0</ele><time>2026-04-04T14:18:00.896Z</time></trkpt><trkpt lat="43.2143595" lon="11.5122441"><ele>166.0</ele><time>2026-04-04T14:18:01.904Z</time></trkpt><trkpt lat="43.2144221" lon="11.5123195"><ele>166.0</ele><time>2026-04-04T14:18:02.912Z</time></trkpt><trkpt lat="43.2144873" lon="11.5123835"><ele>166.4</ele><time>2026-04-04T14:18:03.901Z</time></trkpt><trkpt lat="43.2145623" lon="11.5124498"><ele>166.8</ele><time>2026-04-04T14:18:04.908Z</time></trkpt><trkpt lat="43.2146395" lon="11.5125279"><ele>167.20000000000002</ele><time>2026-04-04T14:18:05.9Z</time></trkpt><trkpt lat="43.2147244" lon="11.5126139"><ele>167.60000000000002</ele><time>2026-04-04T14:18:06.915Z</time></trkpt><trkpt lat="43.2148138" lon="11.5127021"><ele>168.0</ele><time>2026-04-04T14:18:07.914Z</time></trkpt><trkpt lat="43.2149088" lon="11.5127958"><ele>170.5</ele><time>2026-04-04T14:18:08.907Z</time></trkpt><trkpt lat="43.2150065" lon="11.512897"><ele>173.0</ele><time>2026-04-04T14:18:09.915Z</time></trkpt><trkpt lat="43.2151041" lon="11.5129971"><ele>175.5</ele><time>2026-04-04T14:18:10.907Z</time></trkpt><trkpt lat="43.2151978" lon="11.5130989"><ele>178.0</ele><time>2026-04-04T14:18:11.909Z</time></trkpt><trkpt lat="43.2152836" lon="11.5132042"><ele>178.4</ele><time>2026-04-04T14:18:12.908Z</time></trkpt><trkpt lat="43.2153607" lon="11.5133166"><ele>178.8</ele><time>2026-04-04T14:18:13.899Z</time></trkpt><trkpt lat="43.2154234" lon="11.5134405"><ele>179.2</ele><time>2026-04-04T14:18:14.909Z</time></trkpt><trkpt lat="43.215471" lon="11.5135803"><ele>179.6</ele><time>2026-04-04T14:18:15.91Z</time></trkpt><trkpt lat="43.2155016" lon="11.5137088"><ele>180.0</ele><time>2026-04-04T14:18:16.904Z</time></trkpt><trkpt lat="43.2155187" lon="11.5138383"><ele>180.4</ele><time>2026-04-04T14:18:17.913Z</time></trkpt><trkpt lat="43.2155361" lon="11.5139538"><ele>180.8</ele><time>2026-04-04T14:18:18.904Z</time></trkpt><trkpt lat="43.215555" lon="11.5140653"><ele>181.2</ele><time>2026-04-04T14:18:19.904Z</time></trkpt><trkpt lat="43.2155808" lon="11.5141822"><ele>181.6</ele><time>2026-04-04T14:18:20.903Z</time></trkpt><trkpt lat="43.2156157" lon="11.5143021"><ele>182.0</ele><time>2026-04-04T14:18:21.913Z</time></trkpt><trkpt lat="43.2156592" lon="11.5144316"><ele>182.5</ele><time>2026-04-04T14:18:22.906Z</time></trkpt><trkpt lat="43.2157081" lon="11.514569"><ele>183.0</ele><time>2026-04-04T14:18:23.902Z</time></trkpt><trkpt lat="43.2157537" lon="11.5147157"><ele>183.5</ele><time>2026-04-04T14:18:24.906Z</time></trkpt><trkpt lat="43.2158043" lon="11.5148678"><ele>184.0</ele><time>2026-04-04T14:18:25.904Z</time></trkpt><trkpt lat="43.2158544" lon="11.5150168"><ele>181.5</ele><time>2026-04-04T14:18:26.905Z</time></trkpt><trkpt lat="43.2159064" lon="11.5151659"><ele>179.0</ele><time>2026-04-04T14:18:27.908Z</time></trkpt><trkpt lat="43.2159631" lon="11.5153181"><ele>176.5</ele><time>2026-04-04T14:18:28.911Z</time></trkpt><trkpt lat="43.2160172" lon="11.5154752"><ele>174.0</ele><time>2026-04-04T14:18:29.91Z</time></trkpt><trkpt lat="43.2160777" lon="11.5156373"><ele>172.5</ele><time>2026-04-04T14:18:30.908Z</time></trkpt><trkpt lat="43.216141" lon="11.515794"><ele>171.0</ele><time>2026-04-04T14:18:31.899Z</time></trkpt><trkpt lat="43.2162179" lon="11.5159552"><ele>169.5</ele><time>2026-04-04T14:18:32.904Z</time></trkpt><trkpt lat="43.2162993" lon="11.5161123"><ele>168.0</ele><time>2026-04-04T14:18:33.911Z</time></trkpt><trkpt lat="43.2163839" lon="11.5162744"><ele>168.33333333333334</ele><time>2026-04-04T14:18:34.909Z</time></trkpt><trkpt lat="43.2164743" lon="11.5164442"><ele>168.66666666666669</ele><time>2026-04-04T14:18:35.903Z</time></trkpt><trkpt lat="43.2165642" lon="11.5166107"><ele>169.0</ele><time>2026-04-04T14:18:36.912Z</time></trkpt><trkpt lat="43.2166498" lon="11.5167755"><ele>169.0</ele><time>2026-04-04T14:18:37.911Z</time></trkpt><trkpt lat="43.2167288" lon="11.5169418"><ele>169.0</ele><time>2026-04-04T14:18:38.908Z</time></trkpt><trkpt lat="43.216807" lon="11.5171065"><ele>169.0</ele><time>2026-04-04T14:18:39.909Z</time></trkpt><trkpt lat="43.2168754" lon="11.5172657"><ele>169.0</ele><time>2026-04-04T14:18:40.914Z</time></trkpt><trkpt lat="43.216939" lon="11.5174231"><ele>169.0</ele><time>2026-04-04T14:18:41.908Z</time></trkpt><trkpt lat="43.2170007" lon="11.5175752"><ele>169.0</ele><time>2026-04-04T14:18:42.907Z</time></trkpt><trkpt lat="43.2170594" lon="11.5177301"><ele>169.0</ele><time>2026-04-04T14:18:43.902Z</time></trkpt><trkpt lat="43.2171189" lon="11.517881"><ele>169.0</ele><time>2026-04-04T14:18:44.909Z</time></trkpt><trkpt lat="43.2171791" lon="11.518034"><ele>169.0</ele><time>2026-04-04T14:18:45.912Z</time></trkpt><trkpt lat="43.2172386" lon="11.5181871"><ele>169.0</ele><time>2026-04-04T14:18:46.907Z</time></trkpt><trkpt lat="43.2172969" lon="11.51834"><ele>169.0</ele><time>2026-04-04T14:18:47.911Z</time></trkpt><trkpt lat="43.2173527" lon="11.5184931"><ele>169.0</ele><time>2026-04-04T14:18:48.903Z</time></trkpt><trkpt lat="43.2174067" lon="11.5186548"><ele>170.25</ele><time>2026-04-04T14:18:49.909Z</time></trkpt><trkpt lat="43.2174491" lon="11.5188355"><ele>171.5</ele><time>2026-04-04T14:18:50.904Z</time></trkpt><trkpt lat="43.21748" lon="11.5190268"><ele>172.75</ele><time>2026-04-04T14:18:51.905Z</time></trkpt><trkpt lat="43.2174911" lon="11.5192135"><ele>174.0</ele><time>2026-04-04T14:18:52.908Z</time></trkpt><trkpt lat="43.2174815" lon="11.5193952"><ele>175.5</ele><time>2026-04-04T14:18:53.913Z</time></trkpt><trkpt lat="43.2174623" lon="11.5195736"><ele>177.0</ele><time>2026-04-04T14:18:54.911Z</time></trkpt><trkpt lat="43.2174499" lon="11.5197502"><ele>178.5</ele><time>2026-04-04T14:18:55.924Z</time></trkpt><trkpt lat="43.2174352" lon="11.5199247"><ele>180.0</ele><time>2026-04-04T14:18:56.899Z</time></trkpt><trkpt lat="43.2174252" lon="11.5200845"><ele>180.0</ele><time>2026-04-04T14:18:57.911Z</time></trkpt><trkpt lat="43.2174187" lon="11.5202443"><ele>180.0</ele><time>2026-04-04T14:18:58.906Z</time></trkpt><trkpt lat="43.2174145" lon="11.5203933"><ele>180.0</ele><time>2026-04-04T14:18:59.908Z</time></trkpt><trkpt lat="43.2174044" lon="11.5205459"><ele>180.0</ele><time>2026-04-04T14:19:00.908Z</time></trkpt><trkpt lat="43.2174066" lon="11.5206841"><ele>180.0</ele><time>2026-04-04T14:19:01.906Z</time></trkpt><trkpt lat="43.2174102" lon="11.5207808"><ele>179.8</ele><time>2026-04-04T14:19:02.902Z</time></trkpt><trkpt lat="43.2174166" lon="11.5208682"><ele>179.6</ele><time>2026-04-04T14:19:03.903Z</time></trkpt><trkpt lat="43.2174722" lon="11.5210051"><ele>179.39999999999998</ele><time>2026-04-04T14:19:05.903Z</time></trkpt><trkpt lat="43.2175478" lon="11.5211417"><ele>179.2</ele><time>2026-04-04T14:19:07.899Z</time></trkpt><trkpt lat="43.2175924" lon="11.5212129"><ele>179.0</ele><time>2026-04-04T14:19:08.912Z</time></trkpt><trkpt lat="43.2176451" lon="11.5212919"><ele>179.0</ele><time>2026-04-04T14:19:09.91Z</time></trkpt><trkpt lat="43.2177109" lon="11.5213533"><ele>179.0</ele><time>2026-04-04T14:19:10.906Z</time></trkpt><trkpt lat="43.2177848" lon="11.5214075"><ele>179.0</ele><time>2026-04-04T14:19:11.908Z</time></trkpt><trkpt lat="43.2178603" lon="11.5214582"><ele>179.0</ele><time>2026-04-04T14:19:12.914Z</time></trkpt><trkpt lat="43.2179346" lon="11.5215017"><ele>179.0</ele><time>2026-04-04T14:19:13.909Z</time></trkpt><trkpt lat="43.2180067" lon="11.5215483"><ele>179.0</ele><time>2026-04-04T14:19:14.905Z</time></trkpt><trkpt lat="43.2180721" lon="11.5216091"><ele>179.00000000000003</ele><time>2026-04-04T14:19:15.909Z</time></trkpt><trkpt lat="43.2181268" lon="11.521685"><ele>179.0</ele><time>2026-04-04T14:19:16.903Z</time></trkpt><trkpt lat="43.2181556" lon="11.5217769"><ele>179.0</ele><time>2026-04-04T14:19:17.908Z</time></trkpt><trkpt lat="43.2181742" lon="11.5218782"><ele>179.0</ele><time>2026-04-04T14:19:18.907Z</time></trkpt><trkpt lat="43.2181724" lon="11.5219725"><ele>179.0</ele><time>2026-04-04T14:19:19.902Z</time></trkpt><trkpt lat="43.2181767" lon="11.5220746"><ele>179.00000000000003</ele><time>2026-04-04T14:19:20.907Z</time></trkpt><trkpt lat="43.21819" lon="11.5221779"><ele>179.0</ele><time>2026-04-04T14:19:21.906Z</time></trkpt><trkpt lat="43.2182084" lon="11.5222877"><ele>179.16666666666666</ele><time>2026-04-04T14:19:22.917Z</time></trkpt><trkpt lat="43.2182345" lon="11.522388"><ele>179.33333333333331</ele><time>2026-04-04T14:19:23.904Z</time></trkpt><trkpt lat="43.2182682" lon="11.5224929"><ele>179.5</ele><time>2026-04-04T14:19:24.914Z</time></trkpt><trkpt lat="43.218301" lon="11.5225993"><ele>179.66666666666666</ele><time>2026-04-04T14:19:25.91Z</time></trkpt><trkpt lat="43.2183367" lon="11.5227056"><ele>179.83333333333334</ele><time>2026-04-04T14:19:26.913Z</time></trkpt><trkpt lat="43.2183643" lon="11.522817"><ele>180.0</ele><time>2026-04-04T14:19:27.915Z</time></trkpt><trkpt lat="43.2183983" lon="11.5229328"><ele>178.4</ele><time>2026-04-04T14:19:28.91Z</time></trkpt><trkpt lat="43.2184419" lon="11.523046"><ele>176.8</ele><time>2026-04-04T14:19:29.906Z</time></trkpt><trkpt lat="43.2184843" lon="11.5231635"><ele>175.2</ele><time>2026-04-04T14:19:30.909Z</time></trkpt><trkpt lat="43.2185403" lon="11.5232851"><ele>173.6</ele><time>2026-04-04T14:19:31.917Z</time></trkpt><trkpt lat="43.2186027" lon="11.5234094"><ele>172.0</ele><time>2026-04-04T14:19:32.916Z</time></trkpt><trkpt lat="43.2186711" lon="11.5235377"><ele>172.0</ele><time>2026-04-04T14:19:33.906Z</time></trkpt><trkpt lat="43.2187481" lon="11.5236743"><ele>172.0</ele><time>2026-04-04T14:19:34.907Z</time></trkpt><trkpt lat="43.2188291" lon="11.5238172"><ele>172.0</ele><time>2026-04-04T14:19:35.904Z</time></trkpt><trkpt lat="43.2189162" lon="11.5239717"><ele>172.0</ele><time>2026-04-04T14:19:36.913Z</time></trkpt><trkpt lat="43.219008" lon="11.524128"><ele>172.0</ele><time>2026-04-04T14:19:37.916Z</time></trkpt><trkpt lat="43.2190991" lon="11.5242874"><ele>172.0</ele><time>2026-04-04T14:19:38.913Z</time></trkpt><trkpt lat="43.2191985" lon="11.5244483"><ele>172.0</ele><time>2026-04-04T14:19:39.908Z</time></trkpt><trkpt lat="43.2192916" lon="11.5245909"><ele>172.0</ele><time>2026-04-04T14:19:40.905Z</time></trkpt><trkpt lat="43.2193724" lon="11.5247104"><ele>171.16666666666669</ele><time>2026-04-04T14:19:41.918Z</time></trkpt><trkpt lat="43.2194508" lon="11.5248144"><ele>170.33333333333334</ele><time>2026-04-04T14:19:42.915Z</time></trkpt><trkpt lat="43.2195273" lon="11.5248908"><ele>169.5</ele><time>2026-04-04T14:19:43.908Z</time></trkpt><trkpt lat="43.2196023" lon="11.5249438"><ele>168.66666666666666</ele><time>2026-04-04T14:19:44.915Z</time></trkpt><trkpt lat="43.2196673" lon="11.5249811"><ele>167.83333333333331</ele><time>2026-04-04T14:19:45.907Z</time></trkpt><trkpt lat="43.2197375" lon="11.5249978"><ele>167.0</ele><time>2026-04-04T14:19:46.919Z</time></trkpt><trkpt lat="43.219814" lon="11.5250035"><ele>167.85714285714286</ele><time>2026-04-04T14:19:47.901Z</time></trkpt><trkpt lat="43.2198861" lon="11.5249994"><ele>168.71428571428572</ele><time>2026-04-04T14:19:48.91Z</time></trkpt><trkpt lat="43.2199546" lon="11.524989"><ele>169.57142857142856</ele><time>2026-04-04T14:19:49.91Z</time></trkpt><trkpt lat="43.2200244" lon="11.5249643"><ele>170.42857142857144</ele><time>2026-04-04T14:19:50.909Z</time></trkpt><trkpt lat="43.2200918" lon="11.5249341"><ele>171.2857142857143</ele><time>2026-04-04T14:19:51.91Z</time></trkpt><trkpt lat="43.2201532" lon="11.5249073"><ele>172.14285714285714</ele><time>2026-04-04T14:19:52.9Z</time></trkpt><trkpt lat="43.2202184" lon="11.5248765"><ele>173.0</ele><time>2026-04-04T14:19:53.901Z</time></trkpt><trkpt lat="43.2202879" lon="11.5248504"><ele>173.0</ele><time>2026-04-04T14:19:54.901Z</time></trkpt><trkpt lat="43.2203593" lon="11.5248367"><ele>173.0</ele><time>2026-04-04T14:19:55.901Z</time></trkpt><trkpt lat="43.2204309" lon="11.5248438"><ele>173.0</ele><time>2026-04-04T14:19:56.912Z</time></trkpt><trkpt lat="43.2205052" lon="11.5248627"><ele>173.0</ele><time>2026-04-04T14:19:57.897Z</time></trkpt><trkpt lat="43.2205816" lon="11.5248981"><ele>173.0</ele><time>2026-04-04T14:19:58.908Z</time></trkpt><trkpt lat="43.2206549" lon="11.5249498"><ele>173.0</ele><time>2026-04-04T14:19:59.904Z</time></trkpt><trkpt lat="43.2207189" lon="11.5250106"><ele>173.83333333333331</ele><time>2026-04-04T14:20:00.907Z</time></trkpt><trkpt lat="43.2207858" lon="11.5250708"><ele>174.66666666666666</ele><time>2026-04-04T14:20:01.904Z</time></trkpt><trkpt lat="43.2208579" lon="11.5251361"><ele>175.5</ele><time>2026-04-04T14:20:02.908Z</time></trkpt><trkpt lat="43.2209351" lon="11.5251918"><ele>176.33333333333334</ele><time>2026-04-04T14:20:03.913Z</time></trkpt><trkpt lat="43.2210205" lon="11.52524"><ele>177.16666666666669</ele><time>2026-04-04T14:20:04.909Z</time></trkpt><trkpt lat="43.2211153" lon="11.5252643"><ele>178.0</ele><time>2026-04-04T14:20:05.906Z</time></trkpt><trkpt lat="43.2212104" lon="11.5252829"><ele>178.0</ele><time>2026-04-04T14:20:06.907Z</time></trkpt><trkpt lat="43.221312" lon="11.5253013"><ele>178.0</ele><time>2026-04-04T14:20:07.912Z</time></trkpt><trkpt lat="43.221415" lon="11.5253235"><ele>178.0</ele><time>2026-04-04T14:20:08.907Z</time></trkpt><trkpt lat="43.2215215" lon="11.5253409"><ele>178.0</ele><time>2026-04-04T14:20:09.902Z</time></trkpt><trkpt lat="43.2216272" lon="11.5253624"><ele>178.0</ele><time>2026-04-04T14:20:10.903Z</time></trkpt><trkpt lat="43.2217357" lon="11.5253806"><ele>179.2</ele><time>2026-04-04T14:20:11.907Z</time></trkpt><trkpt lat="43.2218434" lon="11.5253946"><ele>180.4</ele><time>2026-04-04T14:20:12.908Z</time></trkpt><trkpt lat="43.2219421" lon="11.525415"><ele>181.6</ele><time>2026-04-04T14:20:13.912Z</time></trkpt><trkpt lat="43.2220325" lon="11.5254207"><ele>182.79999999999998</ele><time>2026-04-04T14:20:14.903Z</time></trkpt><trkpt lat="43.2221246" lon="11.5254354"><ele>184.0</ele><time>2026-04-04T14:20:15.904Z</time></trkpt><trkpt lat="43.2222183" lon="11.5254495"><ele>181.39999999999998</ele><time>2026-04-04T14:20:16.902Z</time></trkpt><trkpt lat="43.2223086" lon="11.5254624"><ele>178.8</ele><time>2026-04-04T14:20:17.901Z</time></trkpt><trkpt lat="43.2223935" lon="11.525472"><ele>176.2</ele><time>2026-04-04T14:20:18.903Z</time></trkpt><trkpt lat="43.2224852" lon="11.5254707"><ele>173.60000000000002</ele><time>2026-04-04T14:20:19.907Z</time></trkpt><trkpt lat="43.2225776" lon="11.5254773"><ele>171.0</ele><time>2026-04-04T14:20:20.895Z</time></trkpt><trkpt lat="43.2226743" lon="11.5254936"><ele>170.66666666666666</ele><time>2026-04-04T14:20:21.905Z</time></trkpt><trkpt lat="43.2227593" lon="11.5255383"><ele>170.33333333333334</ele><time>2026-04-04T14:20:22.906Z</time></trkpt><trkpt lat="43.2228409" lon="11.5256032"><ele>170.0</ele><time>2026-04-04T14:20:23.908Z</time></trkpt><trkpt lat="43.2229098" lon="11.5256836"><ele>169.66666666666669</ele><time>2026-04-04T14:20:24.906Z</time></trkpt><trkpt lat="43.2229704" lon="11.5257567"><ele>169.33333333333334</ele><time>2026-04-04T14:20:25.911Z</time></trkpt><trkpt lat="43.2230366" lon="11.525824"><ele>169.0</ele><time>2026-04-04T14:20:26.9Z</time></trkpt><trkpt lat="43.2230962" lon="11.5258742"><ele>170.16666666666669</ele><time>2026-04-04T14:20:27.908Z</time></trkpt><trkpt lat="43.2231561" lon="11.525906"><ele>171.33333333333334</ele><time>2026-04-04T14:20:28.91Z</time></trkpt><trkpt lat="43.2232237" lon="11.5259307"><ele>172.5</ele><time>2026-04-04T14:20:29.911Z</time></trkpt><trkpt lat="43.2233488" lon="11.5259619"><ele>173.66666666666666</ele><time>2026-04-04T14:20:31.905Z</time></trkpt><trkpt lat="43.2234265" lon="11.5259657"><ele>174.83333333333331</ele><time>2026-04-04T14:20:32.904Z</time></trkpt><trkpt lat="43.2235159" lon="11.5259657"><ele>176.0</ele><time>2026-04-04T14:20:33.902Z</time></trkpt><trkpt lat="43.2236117" lon="11.5259655"><ele>176.0</ele><time>2026-04-04T14:20:34.907Z</time></trkpt><trkpt lat="43.2237084" lon="11.525967"><ele>176.0</ele><time>2026-04-04T14:20:35.91Z</time></trkpt><trkpt lat="43.223811" lon="11.5259677"><ele>176.0</ele><time>2026-04-04T14:20:36.91Z</time></trkpt><trkpt lat="43.2239162" lon="11.5259575"><ele>176.0</ele><time>2026-04-04T14:20:37.901Z</time></trkpt><trkpt lat="43.2240287" lon="11.5259441"><ele>176.0</ele><time>2026-04-04T14:20:38.904Z</time></trkpt><trkpt lat="43.2241467" lon="11.5259267"><ele>176.25</ele><time>2026-04-04T14:20:39.914Z</time></trkpt><trkpt lat="43.2242727" lon="11.5259125"><ele>176.5</ele><time>2026-04-04T14:20:40.908Z</time></trkpt><trkpt lat="43.2243977" lon="11.5259228"><ele>176.75</ele><time>2026-04-04T14:20:41.907Z</time></trkpt><trkpt lat="43.2245271" lon="11.525946"><ele>177.0</ele><time>2026-04-04T14:20:42.908Z</time></trkpt><trkpt lat="43.2246547" lon="11.525982"><ele>177.0</ele><time>2026-04-04T14:20:43.907Z</time></trkpt><trkpt lat="43.2247743" lon="11.5260142"><ele>177.0</ele><time>2026-04-04T14:20:44.909Z</time></trkpt><trkpt lat="43.2248739" lon="11.5260402"><ele>177.0</ele><time>2026-04-04T14:20:45.907Z</time></trkpt><trkpt lat="43.2249603" lon="11.5260653"><ele>177.0</ele><time>2026-04-04T14:20:46.909Z</time></trkpt><trkpt lat="43.2250506" lon="11.5260871"><ele>177.0</ele><time>2026-04-04T14:20:47.904Z</time></trkpt><trkpt lat="43.2251413" lon="11.5261056"><ele>177.75</ele><time>2026-04-04T14:20:48.905Z</time></trkpt><trkpt lat="43.2252453" lon="11.5261366"><ele>178.5</ele><time>2026-04-04T14:20:49.91Z</time></trkpt><trkpt lat="43.22535" lon="11.526177"><ele>179.25</ele><time>2026-04-04T14:20:50.905Z</time></trkpt><trkpt lat="43.2254635" lon="11.5262059"><ele>180.0</ele><time>2026-04-04T14:20:51.902Z</time></trkpt><trkpt lat="43.2255803" lon="11.526238"><ele>179.0</ele><time>2026-04-04T14:20:52.906Z</time></trkpt><trkpt lat="43.2256946" lon="11.5262755"><ele>178.0</ele><time>2026-04-04T14:20:53.907Z</time></trkpt><trkpt lat="43.225801" lon="11.5263187"><ele>177.0</ele><time>2026-04-04T14:20:54.905Z</time></trkpt><trkpt lat="43.2259053" lon="11.5263571"><ele>176.0</ele><time>2026-04-04T14:20:55.912Z</time></trkpt><trkpt lat="43.2260106" lon="11.5263809"><ele>175.0</ele><time>2026-04-04T14:20:56.901Z</time></trkpt><trkpt lat="43.2261061" lon="11.5264016"><ele>175.0</ele><time>2026-04-04T14:20:57.916Z</time></trkpt><trkpt lat="43.2262087" lon="11.5264088"><ele>175.0</ele><time>2026-04-04T14:20:58.909Z</time></trkpt><trkpt lat="43.2263079" lon="11.5264031"><ele>175.0</ele><time>2026-04-04T14:20:59.906Z</time></trkpt><trkpt lat="43.2264068" lon="11.5263921"><ele>175.0</ele><time>2026-04-04T14:21:00.913Z</time></trkpt><trkpt lat="43.2265103" lon="11.5263829"><ele>175.0</ele><time>2026-04-04T14:21:01.907Z</time></trkpt><trkpt lat="43.2266098" lon="11.5263753"><ele>175.4</ele><time>2026-04-04T14:21:02.909Z</time></trkpt><trkpt lat="43.2267068" lon="11.5263722"><ele>175.8</ele><time>2026-04-04T14:21:03.904Z</time></trkpt><trkpt lat="43.2268011" lon="11.5263746"><ele>176.2</ele><time>2026-04-04T14:21:04.916Z</time></trkpt><trkpt lat="43.226903" lon="11.5263772"><ele>176.6</ele><time>2026-04-04T14:21:05.906Z</time></trkpt><trkpt lat="43.2270019" lon="11.526379"><ele>177.0</ele><time>2026-04-04T14:21:06.905Z</time></trkpt><trkpt lat="43.2271009" lon="11.5263856"><ele>177.0</ele><time>2026-04-04T14:21:07.923Z</time></trkpt><trkpt lat="43.2271884" lon="11.5264027"><ele>177.0</ele><time>2026-04-04T14:21:08.901Z</time></trkpt><trkpt lat="43.2272585" lon="11.5264392"><ele>177.0</ele><time>2026-04-04T14:21:09.909Z</time></trkpt><trkpt lat="43.2273198" lon="11.5264773"><ele>177.0</ele><time>2026-04-04T14:21:10.904Z</time></trkpt><trkpt lat="43.2273803" lon="11.5265283"><ele>177.0</ele><time>2026-04-04T14:21:11.902Z</time></trkpt><trkpt lat="43.227446" lon="11.5265968"><ele>177.0</ele><time>2026-04-04T14:21:12.903Z</time></trkpt><trkpt lat="43.2275191" lon="11.5266746"><ele>176.2</ele><time>2026-04-04T14:21:13.906Z</time></trkpt><trkpt lat="43.2275928" lon="11.5267475"><ele>175.39999999999998</ele><time>2026-04-04T14:21:14.909Z</time></trkpt><trkpt lat="43.2276745" lon="11.5268274"><ele>174.60000000000002</ele><time>2026-04-04T14:21:15.911Z</time></trkpt><trkpt lat="43.2277554" lon="11.5269112"><ele>173.8</ele><time>2026-04-04T14:21:16.901Z</time></trkpt><trkpt lat="43.2278373" lon="11.5269999"><ele>173.0</ele><time>2026-04-04T14:21:17.916Z</time></trkpt><trkpt lat="43.2279148" lon="11.5270791"><ele>172.8</ele><time>2026-04-04T14:21:18.911Z</time></trkpt><trkpt lat="43.2279937" lon="11.5271489"><ele>172.60000000000002</ele><time>2026-04-04T14:21:19.909Z</time></trkpt><trkpt lat="43.2280799" lon="11.5272014"><ele>172.39999999999998</ele><time>2026-04-04T14:21:20.911Z</time></trkpt><trkpt lat="43.228167" lon="11.5272425"><ele>172.2</ele><time>2026-04-04T14:21:21.907Z</time></trkpt><trkpt lat="43.228253" lon="11.5272903"><ele>172.0</ele><time>2026-04-04T14:21:22.901Z</time></trkpt><trkpt lat="43.2283488" lon="11.5273312"><ele>171.2</ele><time>2026-04-04T14:21:23.91Z</time></trkpt><trkpt lat="43.2284498" lon="11.5273749"><ele>170.39999999999998</ele><time>2026-04-04T14:21:24.909Z</time></trkpt><trkpt lat="43.2285502" lon="11.5274244"><ele>169.60000000000002</ele><time>2026-04-04T14:21:25.916Z</time></trkpt><trkpt lat="43.2286532" lon="11.5274886"><ele>168.8</ele><time>2026-04-04T14:21:26.912Z</time></trkpt><trkpt lat="43.2287524" lon="11.5275691"><ele>168.0</ele><time>2026-04-04T14:21:27.909Z</time></trkpt><trkpt lat="43.2288469" lon="11.5276691"><ele>168.0</ele><time>2026-04-04T14:21:28.909Z</time></trkpt><trkpt lat="43.2289421" lon="11.5277888"><ele>168.0</ele><time>2026-04-04T14:21:29.905Z</time></trkpt><trkpt lat="43.2290348" lon="11.5279074"><ele>168.0</ele><time>2026-04-04T14:21:30.914Z</time></trkpt><trkpt lat="43.2291221" lon="11.5280188"><ele>168.0</ele><time>2026-04-04T14:21:31.913Z</time></trkpt><trkpt lat="43.2292049" lon="11.5281227"><ele>169.2</ele><time>2026-04-04T14:21:32.913Z</time></trkpt><trkpt lat="43.229288" lon="11.5282193"><ele>170.4</ele><time>2026-04-04T14:21:33.907Z</time></trkpt><trkpt lat="43.2293717" lon="11.5283094"><ele>171.6</ele><time>2026-04-04T14:21:34.912Z</time></trkpt><trkpt lat="43.2294514" lon="11.528399"><ele>172.79999999999998</ele><time>2026-04-04T14:21:35.908Z</time></trkpt><trkpt lat="43.2295242" lon="11.5284818"><ele>174.0</ele><time>2026-04-04T14:21:36.912Z</time></trkpt><trkpt lat="43.2295897" lon="11.5285505"><ele>174.0</ele><time>2026-04-04T14:21:37.908Z</time></trkpt><trkpt lat="43.2296428" lon="11.5286171"><ele>174.0</ele><time>2026-04-04T14:21:38.907Z</time></trkpt><trkpt lat="43.2297326" lon="11.5287047"><ele>174.0</ele><time>2026-04-04T14:21:40.906Z</time></trkpt><trkpt lat="43.2297934" lon="11.5287445"><ele>174.0</ele><time>2026-04-04T14:21:42.92Z</time></trkpt><trkpt lat="43.2298677" lon="11.5287595"><ele>174.0</ele><time>2026-04-04T14:21:49.909Z</time></trkpt><trkpt lat="43.2299494" lon="11.5288324"><ele>174.0</ele><time>2026-04-04T14:21:51.906Z</time></trkpt><trkpt lat="43.2299936" lon="11.5289004"><ele>174.39999999999998</ele><time>2026-04-04T14:21:52.906Z</time></trkpt><trkpt lat="43.2300537" lon="11.528981"><ele>174.8</ele><time>2026-04-04T14:21:53.915Z</time></trkpt><trkpt lat="43.2301229" lon="11.5290872"><ele>175.2</ele><time>2026-04-04T14:21:54.911Z</time></trkpt><trkpt lat="43.2301917" lon="11.5291939"><ele>175.60000000000002</ele><time>2026-04-04T14:21:55.911Z</time></trkpt><trkpt lat="43.2302709" lon="11.529311"><ele>176.0</ele><time>2026-04-04T14:21:56.911Z</time></trkpt><trkpt lat="43.2303594" lon="11.5294255"><ele>176.0</ele><time>2026-04-04T14:21:57.909Z</time></trkpt><trkpt lat="43.2304461" lon="11.5295446"><ele>176.0</ele><time>2026-04-04T14:21:58.918Z</time></trkpt><trkpt lat="43.2305432" lon="11.5296635"><ele>176.0</ele><time>2026-04-04T14:21:59.902Z</time></trkpt><trkpt lat="43.2306398" lon="11.5297932"><ele>176.0</ele><time>2026-04-04T14:22:00.908Z</time></trkpt><trkpt lat="43.2307354" lon="11.5299213"><ele>175.0</ele><time>2026-04-04T14:22:01.908Z</time></trkpt><trkpt lat="43.2308343" lon="11.530055"><ele>174.0</ele><time>2026-04-04T14:22:02.919Z</time></trkpt><trkpt lat="43.2309309" lon="11.5301943"><ele>173.0</ele><time>2026-04-04T14:22:03.91Z</time></trkpt><trkpt lat="43.231037" lon="11.5303337"><ele>172.0</ele><time>2026-04-04T14:22:04.91Z</time></trkpt><trkpt lat="43.2311367" lon="11.5304723"><ele>171.25</ele><time>2026-04-04T14:22:05.902Z</time></trkpt><trkpt lat="43.231227" lon="11.530624"><ele>170.5</ele><time>2026-04-04T14:22:06.915Z</time></trkpt><trkpt lat="43.2313033" lon="11.5307902"><ele>169.75</ele><time>2026-04-04T14:22:07.911Z</time></trkpt><trkpt lat="43.2313706" lon="11.5309662"><ele>169.0</ele><time>2026-04-04T14:22:08.902Z</time></trkpt><trkpt lat="43.2314237" lon="11.5311548"><ele>169.33333333333334</ele><time>2026-04-04T14:22:09.904Z</time></trkpt><trkpt lat="43.2314758" lon="11.5313574"><ele>169.66666666666666</ele><time>2026-04-04T14:22:10.906Z</time></trkpt><trkpt lat="43.2315226" lon="11.5315536"><ele>170.0</ele><time>2026-04-04T14:22:11.912Z</time></trkpt><trkpt lat="43.2315618" lon="11.5317518"><ele>170.0</ele><time>2026-04-04T14:22:12.907Z</time></trkpt><trkpt lat="43.2315981" lon="11.5319536"><ele>170.0</ele><time>2026-04-04T14:22:13.905Z</time></trkpt><trkpt lat="43.2316385" lon="11.5321524"><ele>170.0</ele><time>2026-04-04T14:22:14.902Z</time></trkpt><trkpt lat="43.2316836" lon="11.5323537"><ele>170.0</ele><time>2026-04-04T14:22:15.903Z</time></trkpt><trkpt lat="43.2317227" lon="11.5325518"><ele>170.0</ele><time>2026-04-04T14:22:16.901Z</time></trkpt><trkpt lat="43.2317622" lon="11.5327468"><ele>170.0</ele><time>2026-04-04T14:22:17.909Z</time></trkpt><trkpt lat="43.2318008" lon="11.5329407"><ele>170.0</ele><time>2026-04-04T14:22:18.908Z</time></trkpt><trkpt lat="43.2318393" lon="11.533136"><ele>170.0</ele><time>2026-04-04T14:22:19.906Z</time></trkpt><trkpt lat="43.2318751" lon="11.5333312"><ele>170.0</ele><time>2026-04-04T14:22:20.91Z</time></trkpt><trkpt lat="43.2319128" lon="11.5335253"><ele>170.0</ele><time>2026-04-04T14:22:21.9Z</time></trkpt><trkpt lat="43.231955" lon="11.5337129"><ele>170.0</ele><time>2026-04-04T14:22:22.911Z</time></trkpt><trkpt lat="43.2320055" lon="11.5338933"><ele>169.5</ele><time>2026-04-04T14:22:23.904Z</time></trkpt><trkpt lat="43.2320845" lon="11.5340553"><ele>169.0</ele><time>2026-04-04T14:22:24.908Z</time></trkpt><trkpt lat="43.2321875" lon="11.5342047"><ele>168.5</ele><time>2026-04-04T14:22:25.913Z</time></trkpt><trkpt lat="43.2323036" lon="11.5343352"><ele>168.0</ele><time>2026-04-04T14:22:26.899Z</time></trkpt><trkpt lat="43.2324257" lon="11.5344507"><ele>168.5</ele><time>2026-04-04T14:22:27.897Z</time></trkpt><trkpt lat="43.2325505" lon="11.5345555"><ele>169.0</ele><time>2026-04-04T14:22:28.9Z</time></trkpt><trkpt lat="43.2326794" lon="11.5346535"><ele>169.5</ele><time>2026-04-04T14:22:29.911Z</time></trkpt><trkpt lat="43.2328022" lon="11.5347519"><ele>170.0</ele><time>2026-04-04T14:22:30.905Z</time></trkpt><trkpt lat="43.2329296" lon="11.5348465"><ele>170.0</ele><time>2026-04-04T14:22:31.905Z</time></trkpt><trkpt lat="43.2330615" lon="11.5349404"><ele>170.0</ele><time>2026-04-04T14:22:32.901Z</time></trkpt><trkpt lat="43.2331899" lon="11.5350365"><ele>170.0</ele><time>2026-04-04T14:22:33.906Z</time></trkpt><trkpt lat="43.2333129" lon="11.5351372"><ele>170.0</ele><time>2026-04-04T14:22:34.91Z</time></trkpt><trkpt lat="43.2334324" lon="11.5352418"><ele>169.75</ele><time>2026-04-04T14:22:35.905Z</time></trkpt><trkpt lat="43.2335479" lon="11.5353637"><ele>169.5</ele><time>2026-04-04T14:22:36.905Z</time></trkpt><trkpt lat="43.2336464" lon="11.5355004"><ele>169.25</ele><time>2026-04-04T14:22:37.905Z</time></trkpt><trkpt lat="43.2337344" lon="11.5356488"><ele>169.0</ele><time>2026-04-04T14:22:38.902Z</time></trkpt><trkpt lat="43.2338187" lon="11.5357997"><ele>169.0</ele><time>2026-04-04T14:22:39.902Z</time></trkpt><trkpt lat="43.2339005" lon="11.5359552"><ele>169.0</ele><time>2026-04-04T14:22:40.907Z</time></trkpt><trkpt lat="43.2339793" lon="11.5361157"><ele>169.0</ele><time>2026-04-04T14:22:41.907Z</time></trkpt><trkpt lat="43.2340623" lon="11.5362737"><ele>169.0</ele><time>2026-04-04T14:22:42.907Z</time></trkpt><trkpt lat="43.2341472" lon="11.5364312"><ele>169.75</ele><time>2026-04-04T14:22:43.897Z</time></trkpt><trkpt lat="43.2342327" lon="11.5365862"><ele>170.5</ele><time>2026-04-04T14:22:44.908Z</time></trkpt><trkpt lat="43.2343146" lon="11.5367413"><ele>171.25</ele><time>2026-04-04T14:22:45.903Z</time></trkpt><trkpt lat="43.2344005" lon="11.5368946"><ele>172.0</ele><time>2026-04-04T14:22:46.895Z</time></trkpt><trkpt lat="43.2344801" lon="11.5370472"><ele>172.0</ele><time>2026-04-04T14:22:47.907Z</time></trkpt><trkpt lat="43.2345631" lon="11.5372064"><ele>172.0</ele><time>2026-04-04T14:22:48.906Z</time></trkpt><trkpt lat="43.2346446" lon="11.5373627"><ele>172.0</ele><time>2026-04-04T14:22:49.904Z</time></trkpt><trkpt lat="43.2347258" lon="11.5375186"><ele>172.0</ele><time>2026-04-04T14:22:50.901Z</time></trkpt><trkpt lat="43.2348074" lon="11.5376791"><ele>172.5</ele><time>2026-04-04T14:22:51.905Z</time></trkpt><trkpt lat="43.2348878" lon="11.5378377"><ele>173.0</ele><time>2026-04-04T14:22:52.907Z</time></trkpt><trkpt lat="43.2349697" lon="11.5379917"><ele>173.5</ele><time>2026-04-04T14:22:53.903Z</time></trkpt><trkpt lat="43.2350517" lon="11.5381453"><ele>174.0</ele><time>2026-04-04T14:22:54.908Z</time></trkpt><trkpt lat="43.2351346" lon="11.5382933"><ele>174.0</ele><time>2026-04-04T14:22:55.907Z</time></trkpt><trkpt lat="43.235218" lon="11.538435"><ele>174.0</ele><time>2026-04-04T14:22:56.905Z</time></trkpt><trkpt lat="43.2352984" lon="11.5385776"><ele>174.0</ele><time>2026-04-04T14:22:57.902Z</time></trkpt><trkpt lat="43.235379" lon="11.5387232"><ele>174.0</ele><time>2026-04-04T14:22:58.903Z</time></trkpt><trkpt lat="43.2354574" lon="11.5388694"><ele>173.75</ele><time>2026-04-04T14:22:59.912Z</time></trkpt><trkpt lat="43.2355361" lon="11.5390048"><ele>173.5</ele><time>2026-04-04T14:23:00.903Z</time></trkpt><trkpt lat="43.2356075" lon="11.5391425"><ele>173.25</ele><time>2026-04-04T14:23:01.898Z</time></trkpt><trkpt lat="43.2356756" lon="11.5392719"><ele>173.0</ele><time>2026-04-04T14:23:02.91Z</time></trkpt><trkpt lat="43.235738" lon="11.539396"><ele>173.5</ele><time>2026-04-04T14:23:03.905Z</time></trkpt><trkpt lat="43.2358001" lon="11.539525"><ele>174.0</ele><time>2026-04-04T14:23:04.908Z</time></trkpt><trkpt lat="43.2358559" lon="11.5396463"><ele>174.5</ele><time>2026-04-04T14:23:05.904Z</time></trkpt><trkpt lat="43.2358963" lon="11.5397985"><ele>175.0</ele><time>2026-04-04T14:23:06.91Z</time></trkpt><trkpt lat="43.2359098" lon="11.5399595"><ele>175.0</ele><time>2026-04-04T14:23:07.902Z</time></trkpt><trkpt lat="43.235908" lon="11.540116"><ele>175.0</ele><time>2026-04-04T14:23:08.908Z</time></trkpt><trkpt lat="43.2358977" lon="11.540278"><ele>175.0</ele><time>2026-04-04T14:23:09.905Z</time></trkpt><trkpt lat="43.2358867" lon="11.5404213"><ele>175.0</ele><time>2026-04-04T14:23:10.913Z</time></trkpt><trkpt lat="43.2358734" lon="11.540554"><ele>175.0</ele><time>2026-04-04T14:23:11.919Z</time></trkpt><trkpt lat="43.2358682" lon="11.5406706"><ele>175.0</ele><time>2026-04-04T14:23:12.905Z</time></trkpt><trkpt lat="43.2358614" lon="11.5407828"><ele>175.0</ele><time>2026-04-04T14:23:13.908Z</time></trkpt><trkpt lat="43.2358564" lon="11.5408908"><ele>175.0</ele><time>2026-04-04T14:23:14.908Z</time></trkpt><trkpt lat="43.2358491" lon="11.540986"><ele>175.0</ele><time>2026-04-04T14:23:15.91Z</time></trkpt><trkpt lat="43.2358491" lon="11.5411458"><ele>175.0</ele><time>2026-04-04T14:23:17.905Z</time></trkpt><trkpt lat="43.2358433" lon="11.5412965"><ele>175.8</ele><time>2026-04-04T14:23:19.906Z</time></trkpt><trkpt lat="43.2358314" lon="11.5414477"><ele>176.6</ele><time>2026-04-04T14:23:21.905Z</time></trkpt><trkpt lat="43.23582" lon="11.5415982"><ele>177.39999999999998</ele><time>2026-04-04T14:23:23.906Z</time></trkpt><trkpt lat="43.2358156" lon="11.5417075"><ele>178.2</ele><time>2026-04-04T14:23:25.905Z</time></trkpt><trkpt lat="43.23586" lon="11.5415718"><ele>179.0</ele><time>2026-04-04T14:23:32.911Z</time></trkpt><trkpt lat="43.2358602" lon="11.5414684"><ele>179.0</ele><time>2026-04-04T14:23:33.9Z</time></trkpt><trkpt lat="43.2358604" lon="11.5413457"><ele>179.0</ele><time>2026-04-04T14:23:34.902Z</time></trkpt><trkpt lat="43.2358564" lon="11.5412415"><ele>179.0</ele><time>2026-04-04T14:23:35.905Z</time></trkpt><trkpt lat="43.2358118" lon="11.5411185"><ele>179.0</ele><time>2026-04-04T14:23:37.901Z</time></trkpt><trkpt lat="43.2357368" lon="11.5410602"><ele>179.0</ele><time>2026-04-04T14:23:39.906Z</time></trkpt><trkpt lat="43.2356124" lon="11.5410462"><ele>177.66666666666666</ele><time>2026-04-04T14:23:41.906Z</time></trkpt><trkpt lat="43.2355452" lon="11.541056"><ele>176.33333333333331</ele><time>2026-04-04T14:23:42.899Z</time></trkpt><trkpt lat="43.2354748" lon="11.5410633"><ele>175.0</ele><time>2026-04-04T14:23:43.904Z</time></trkpt><trkpt lat="43.2353941" lon="11.5410693"><ele>173.66666666666666</ele><time>2026-04-04T14:23:44.902Z</time></trkpt><trkpt lat="43.2353072" lon="11.5410732"><ele>172.33333333333334</ele><time>2026-04-04T14:23:45.903Z</time></trkpt><trkpt lat="43.2352255" lon="11.5410799"><ele>171.0</ele><time>2026-04-04T14:23:46.905Z</time></trkpt><trkpt lat="43.2351492" lon="11.5410866"><ele>171.0</ele><time>2026-04-04T14:23:47.897Z</time></trkpt><trkpt lat="43.2350787" lon="11.5410933"><ele>171.0</ele><time>2026-04-04T14:23:48.899Z</time></trkpt><trkpt lat="43.234962" lon="11.5411022"><ele>171.0</ele><time>2026-04-04T14:23:50.899Z</time></trkpt><trkpt lat="43.2348652" lon="11.5411092"><ele>171.0</ele><time>2026-04-04T14:23:52.899Z</time></trkpt><trkpt lat="43.2347735" lon="11.5411137"><ele>171.0</ele><time>2026-04-04T14:23:54.902Z</time></trkpt><trkpt lat="43.2347069" lon="11.5411136"><ele>171.0</ele><time>2026-04-04T14:23:56.904Z</time></trkpt><trkpt lat="43.2346481" lon="11.5411582"><ele>171.0</ele><time>2026-04-04T14:23:59.909Z</time></trkpt><trkpt lat="43.2347377" lon="11.5411515"><ele>171.0</ele><time>2026-04-04T14:24:24.906Z</time></trkpt><trkpt lat="43.2348615" lon="11.5411097"><ele>171.0</ele><time>2026-04-04T14:24:26.902Z</time></trkpt><trkpt lat="43.2349421" lon="11.5411058"><ele>171.0</ele><time>2026-04-04T14:24:27.902Z</time></trkpt><trkpt lat="43.2350283" lon="11.541101"><ele>171.0</ele><time>2026-04-04T14:24:28.912Z</time></trkpt><trkpt lat="43.2351217" lon="11.5410896"><ele>171.0</ele><time>2026-04-04T14:24:29.898Z</time></trkpt><trkpt lat="43.2352194" lon="11.5410807"><ele>171.0</ele><time>2026-04-04T14:24:30.901Z</time></trkpt><trkpt lat="43.2353171" lon="11.5410742"><ele>171.0</ele><time>2026-04-04T14:24:31.894Z</time></trkpt><trkpt lat="43.2354115" lon="11.5410699"><ele>171.0</ele><time>2026-04-04T14:24:32.914Z</time></trkpt><trkpt lat="43.2355037" lon="11.5410693"><ele>171.0</ele><time>2026-04-04T14:24:33.903Z</time></trkpt><trkpt lat="43.2355865" lon="11.5410691"><ele>171.66666666666666</ele><time>2026-04-04T14:24:34.901Z</time></trkpt><trkpt lat="43.2356612" lon="11.5410732"><ele>172.33333333333334</ele><time>2026-04-04T14:24:35.899Z</time></trkpt><trkpt lat="43.2357248" lon="11.541079"><ele>173.0</ele><time>2026-04-04T14:24:36.9Z</time></trkpt><trkpt lat="43.2357977" lon="11.5411058"><ele>173.66666666666669</ele><time>2026-04-04T14:24:38.912Z</time></trkpt><trkpt lat="43.2358421" lon="11.5412242"><ele>174.33333333333334</ele><time>2026-04-04T14:24:41.902Z</time></trkpt><trkpt lat="43.2358336" lon="11.5413894"><ele>175.0</ele><time>2026-04-04T14:24:43.907Z</time></trkpt><trkpt lat="43.2358341" lon="11.5414946"><ele>175.8</ele><time>2026-04-04T14:24:44.901Z</time></trkpt><trkpt lat="43.235825" lon="11.5416285"><ele>176.6</ele><time>2026-04-04T14:24:45.898Z</time></trkpt><trkpt lat="43.2358206" lon="11.5417725"><ele>177.39999999999998</ele><time>2026-04-04T14:24:46.903Z</time></trkpt><trkpt lat="43.2358155" lon="11.5419226"><ele>178.2</ele><time>2026-04-04T14:24:47.904Z</time></trkpt><trkpt lat="43.2358037" lon="11.5420778"><ele>179.0</ele><time>2026-04-04T14:24:48.899Z</time></trkpt><trkpt lat="43.2357888" lon="11.5422356"><ele>179.0</ele><time>2026-04-04T14:24:49.9Z</time></trkpt><trkpt lat="43.235782" lon="11.5424024"><ele>179.0</ele><time>2026-04-04T14:24:50.904Z</time></trkpt><trkpt lat="43.2357741" lon="11.5425773"><ele>179.0</ele><time>2026-04-04T14:24:51.902Z</time></trkpt><trkpt lat="43.2357693" lon="11.5427552"><ele>179.0</ele><time>2026-04-04T14:24:52.896Z</time></trkpt><trkpt lat="43.235761" lon="11.5429181"><ele>178.75</ele><time>2026-04-04T14:24:53.897Z</time></trkpt><trkpt lat="43.235759" lon="11.5430875"><ele>178.5</ele><time>2026-04-04T14:24:54.897Z</time></trkpt><trkpt lat="43.235751" lon="11.543267"><ele>178.25</ele><time>2026-04-04T14:24:55.898Z</time></trkpt><trkpt lat="43.2357444" lon="11.5434446"><ele>178.0</ele><time>2026-04-04T14:24:56.897Z</time></trkpt><trkpt lat="43.2357346" lon="11.5436011"><ele>178.0</ele><time>2026-04-04T14:24:57.91Z</time></trkpt><trkpt lat="43.2357284" lon="11.5437171"><ele>178.0</ele><time>2026-04-04T14:24:58.903Z</time></trkpt><trkpt lat="43.2357209" lon="11.5438325"><ele>178.0</ele><time>2026-04-04T14:25:00.906Z</time></trkpt><trkpt lat="43.2357648" lon="11.5437327"><ele>178.0</ele><time>2026-04-04T14:25:05.903Z</time></trkpt><trkpt lat="43.2357662" lon="11.5436425"><ele>178.0</ele><time>2026-04-04T14:25:06.902Z</time></trkpt><trkpt lat="43.2357661" lon="11.5435384"><ele>178.0</ele><time>2026-04-04T14:25:07.911Z</time></trkpt><trkpt lat="43.2357661" lon="11.5434363"><ele>178.0</ele><time>2026-04-04T14:25:08.901Z</time></trkpt><trkpt lat="43.2357745" lon="11.5433383"><ele>178.0</ele><time>2026-04-04T14:25:09.9Z</time></trkpt><trkpt lat="43.2357569" lon="11.5432016"><ele>178.0</ele><time>2026-04-04T14:25:11.908Z</time></trkpt><trkpt lat="43.2356708" lon="11.5431901"><ele>178.0</ele><time>2026-04-04T14:25:14.902Z</time></trkpt><trkpt lat="43.2355971" lon="11.5431911"><ele>178.0</ele><time>2026-04-04T14:25:17.893Z</time></trkpt><trkpt lat="43.2355314" lon="11.543194"><ele>178.0</ele><time>2026-04-04T14:25:21.902Z</time></trkpt><trkpt lat="43.235595" lon="11.543241"><ele>178.0</ele><time>2026-04-04T14:25:24.908Z</time></trkpt><trkpt lat="43.2356606" lon="11.5432385"><ele>178.0</ele><time>2026-04-04T14:25:26.897Z</time></trkpt><trkpt lat="43.2357306" lon="11.5432284"><ele>178.0</ele><time>2026-04-04T14:48:32.92Z</time></trkpt><trkpt lat="43.2357463" lon="11.543349"><ele>178.0</ele><time>2026-04-04T14:48:34.904Z</time></trkpt><trkpt lat="43.2357405" lon="11.5434365"><ele>178.0</ele><time>2026-04-04T14:48:35.91Z</time></trkpt><trkpt lat="43.2357369" lon="11.5435416"><ele>178.0</ele><time>2026-04-04T14:48:36.914Z</time></trkpt><trkpt lat="43.2357347" lon="11.5436615"><ele>177.8</ele><time>2026-04-04T14:48:37.913Z</time></trkpt><trkpt lat="43.2357359" lon="11.5437915"><ele>177.60000000000002</ele><time>2026-04-04T14:48:38.892Z</time></trkpt><trkpt lat="43.2357307" lon="11.5439359"><ele>177.39999999999998</ele><time>2026-04-04T14:48:39.918Z</time></trkpt><trkpt lat="43.2357244" lon="11.5440884"><ele>177.2</ele><time>2026-04-04T14:48:40.917Z</time></trkpt><trkpt lat="43.235715" lon="11.5442623"><ele>177.0</ele><time>2026-04-04T14:48:41.923Z</time></trkpt><trkpt lat="43.2357122" lon="11.5444385"><ele>176.75</ele><time>2026-04-04T14:48:42.912Z</time></trkpt><trkpt lat="43.2357091" lon="11.544617"><ele>176.5</ele><time>2026-04-04T14:48:43.897Z</time></trkpt><trkpt lat="43.2357091" lon="11.5447982"><ele>176.25</ele><time>2026-04-04T14:48:44.9Z</time></trkpt><trkpt lat="43.235716" lon="11.5449689"><ele>176.0</ele><time>2026-04-04T14:48:45.911Z</time></trkpt><trkpt lat="43.2357445" lon="11.5451288"><ele>176.0</ele><time>2026-04-04T14:48:46.907Z</time></trkpt><trkpt lat="43.2357778" lon="11.5452741"><ele>176.0</ele><time>2026-04-04T14:48:47.911Z</time></trkpt><trkpt lat="43.2358173" lon="11.5454187"><ele>176.0</ele><time>2026-04-04T14:48:48.917Z</time></trkpt><trkpt lat="43.2358604" lon="11.5455693"><ele>176.0</ele><time>2026-04-04T14:48:49.907Z</time></trkpt><trkpt lat="43.2359054" lon="11.5456985"><ele>176.0</ele><time>2026-04-04T14:48:50.913Z</time></trkpt><trkpt lat="43.235946" lon="11.5458167"><ele>176.0</ele><time>2026-04-04T14:48:51.897Z</time></trkpt><trkpt lat="43.2359844" lon="11.5459226"><ele>176.0</ele><time>2026-04-04T14:48:52.894Z</time></trkpt><trkpt lat="43.236023" lon="11.5460133"><ele>176.0</ele><time>2026-04-04T14:48:53.929Z</time></trkpt><trkpt lat="43.2360715" lon="11.5461135"><ele>176.0</ele><time>2026-04-04T14:48:54.913Z</time></trkpt><trkpt lat="43.2361329" lon="11.5462322"><ele>176.0</ele><time>2026-04-04T14:48:55.921Z</time></trkpt><trkpt lat="43.2362212" lon="11.5463574"><ele>176.5</ele><time>2026-04-04T14:48:56.923Z</time></trkpt><trkpt lat="43.2363112" lon="11.5465041"><ele>177.0</ele><time>2026-04-04T14:48:57.916Z</time></trkpt><trkpt lat="43.2364054" lon="11.5466494"><ele>177.5</ele><time>2026-04-04T14:48:58.908Z</time></trkpt><trkpt lat="43.2365089" lon="11.5468048"><ele>178.0</ele><time>2026-04-04T14:48:59.908Z</time></trkpt><trkpt lat="43.2366212" lon="11.5469726"><ele>176.66666666666669</ele><time>2026-04-04T14:49:00.921Z</time></trkpt><trkpt lat="43.2367407" lon="11.5471313"><ele>175.33333333333334</ele><time>2026-04-04T14:49:01.924Z</time></trkpt><trkpt lat="43.2368701" lon="11.5472947"><ele>174.0</ele><time>2026-04-04T14:49:02.915Z</time></trkpt><trkpt lat="43.2370022" lon="11.5474481"><ele>174.0</ele><time>2026-04-04T14:49:03.909Z</time></trkpt><trkpt lat="43.2371377" lon="11.5476037"><ele>174.0</ele><time>2026-04-04T14:49:04.919Z</time></trkpt><trkpt lat="43.2372748" lon="11.5477589"><ele>174.0</ele><time>2026-04-04T14:49:05.92Z</time></trkpt><trkpt lat="43.2374165" lon="11.5479166"><ele>174.66666666666666</ele><time>2026-04-04T14:49:06.919Z</time></trkpt><trkpt lat="43.2375557" lon="11.5480773"><ele>175.33333333333331</ele><time>2026-04-04T14:49:07.924Z</time></trkpt><trkpt lat="43.2376979" lon="11.5482374"><ele>176.0</ele><time>2026-04-04T14:49:08.912Z</time></trkpt><trkpt lat="43.237845" lon="11.5483947"><ele>176.0</ele><time>2026-04-04T14:49:09.907Z</time></trkpt><trkpt lat="43.2379983" lon="11.5485525"><ele>176.0</ele><time>2026-04-04T14:49:10.915Z</time></trkpt><trkpt lat="43.2381558" lon="11.5487039"><ele>176.0</ele><time>2026-04-04T14:49:11.915Z</time></trkpt><trkpt lat="43.2383137" lon="11.5488467"><ele>176.0</ele><time>2026-04-04T14:49:12.914Z</time></trkpt><trkpt lat="43.2384788" lon="11.5489885"><ele>176.0</ele><time>2026-04-04T14:49:13.935Z</time></trkpt><trkpt lat="43.2386454" lon="11.5491302"><ele>176.0</ele><time>2026-04-04T14:49:14.912Z</time></trkpt><trkpt lat="43.2388205" lon="11.5492609"><ele>175.66666666666666</ele><time>2026-04-04T14:49:15.916Z</time></trkpt><trkpt lat="43.2389988" lon="11.5493926"><ele>175.33333333333334</ele><time>2026-04-04T14:49:16.922Z</time></trkpt><trkpt lat="43.2391725" lon="11.5495378"><ele>175.0</ele><time>2026-04-04T14:49:17.922Z</time></trkpt><trkpt lat="43.2393374" lon="11.5496982"><ele>175.0</ele><time>2026-04-04T14:49:18.915Z</time></trkpt><trkpt lat="43.2394916" lon="11.5498753"><ele>175.0</ele><time>2026-04-04T14:49:19.916Z</time></trkpt><trkpt lat="43.2396274" lon="11.550051"><ele>175.0</ele><time>2026-04-04T14:49:20.915Z</time></trkpt><trkpt lat="43.2397567" lon="11.5502264"><ele>174.33333333333334</ele><time>2026-04-04T14:49:21.909Z</time></trkpt><trkpt lat="43.239883" lon="11.5504015"><ele>173.66666666666666</ele><time>2026-04-04T14:49:22.908Z</time></trkpt><trkpt lat="43.2400051" lon="11.550573"><ele>173.0</ele><time>2026-04-04T14:49:23.914Z</time></trkpt><trkpt lat="43.2401259" lon="11.550741"><ele>173.0</ele><time>2026-04-04T14:49:24.915Z</time></trkpt><trkpt lat="43.2402499" lon="11.550909"><ele>173.0</ele><time>2026-04-04T14:49:25.916Z</time></trkpt><trkpt lat="43.2403695" lon="11.5510742"><ele>173.0</ele><time>2026-04-04T14:49:26.916Z</time></trkpt><trkpt lat="43.2404835" lon="11.5512409"><ele>172.5</ele><time>2026-04-04T14:49:27.904Z</time></trkpt><trkpt lat="43.2405941" lon="11.5513968"><ele>172.0</ele><time>2026-04-04T14:49:28.909Z</time></trkpt><trkpt lat="43.2406971" lon="11.5515354"><ele>171.5</ele><time>2026-04-04T14:49:29.917Z</time></trkpt><trkpt lat="43.2407777" lon="11.5516568"><ele>171.0</ele><time>2026-04-04T14:49:30.92Z</time></trkpt><trkpt lat="43.2408269" lon="11.5517726"><ele>172.60000000000002</ele><time>2026-04-04T14:49:31.91Z</time></trkpt><trkpt lat="43.2408287" lon="11.551887"><ele>174.2</ele><time>2026-04-04T14:49:32.902Z</time></trkpt><trkpt lat="43.2408025" lon="11.5520099"><ele>175.8</ele><time>2026-04-04T14:49:33.9Z</time></trkpt><trkpt lat="43.240756" lon="11.5521353"><ele>177.39999999999998</ele><time>2026-04-04T14:49:34.901Z</time></trkpt><trkpt lat="43.2407011" lon="11.552242"><ele>179.0</ele><time>2026-04-04T14:49:35.902Z</time></trkpt><trkpt lat="43.2406516" lon="11.5523554"><ele>177.79999999999998</ele><time>2026-04-04T14:49:36.915Z</time></trkpt><trkpt lat="43.2406018" lon="11.5524616"><ele>176.6</ele><time>2026-04-04T14:49:37.914Z</time></trkpt><trkpt lat="43.240559" lon="11.5525606"><ele>175.4</ele><time>2026-04-04T14:49:38.902Z</time></trkpt><trkpt lat="43.2405138" lon="11.5526428"><ele>174.2</ele><time>2026-04-04T14:49:39.899Z</time></trkpt><trkpt lat="43.2404472" lon="11.5527898"><ele>173.0</ele><time>2026-04-04T14:49:41.912Z</time></trkpt><trkpt lat="43.2403919" lon="11.5529208"><ele>173.0</ele><time>2026-04-04T14:49:43.911Z</time></trkpt><trkpt lat="43.2403968" lon="11.5530554"><ele>173.0</ele><time>2026-04-04T14:49:45.908Z</time></trkpt><trkpt lat="43.2404667" lon="11.5531448"><ele>173.0</ele><time>2026-04-04T14:49:47.926Z</time></trkpt><trkpt lat="43.2405719" lon="11.5532326"><ele>173.0</ele><time>2026-04-04T14:49:49.918Z</time></trkpt><trkpt lat="43.2406383" lon="11.5532734"><ele>173.0</ele><time>2026-04-04T14:49:50.91Z</time></trkpt><trkpt lat="43.2407038" lon="11.5533151"><ele>173.33333333333331</ele><time>2026-04-04T14:49:51.909Z</time></trkpt><trkpt lat="43.2407725" lon="11.5533617"><ele>173.66666666666666</ele><time>2026-04-04T14:49:52.917Z</time></trkpt><trkpt lat="43.2408346" lon="11.553416"><ele>174.0</ele><time>2026-04-04T14:49:53.914Z</time></trkpt><trkpt lat="43.2409013" lon="11.5534624"><ele>174.33333333333334</ele><time>2026-04-04T14:49:54.915Z</time></trkpt><trkpt lat="43.2409686" lon="11.5535154"><ele>174.66666666666669</ele><time>2026-04-04T14:49:55.911Z</time></trkpt><trkpt lat="43.2410373" lon="11.5535655"><ele>175.0</ele><time>2026-04-04T14:49:56.908Z</time></trkpt><trkpt lat="43.2411044" lon="11.5536249"><ele>175.0</ele><time>2026-04-04T14:49:57.912Z</time></trkpt><trkpt lat="43.2411727" lon="11.5536779"><ele>175.0</ele><time>2026-04-04T14:49:58.906Z</time></trkpt><trkpt lat="43.2412488" lon="11.5537283"><ele>175.0</ele><time>2026-04-04T14:49:59.912Z</time></trkpt><trkpt lat="43.2413268" lon="11.5537675"><ele>175.0</ele><time>2026-04-04T14:50:00.925Z</time></trkpt><trkpt lat="43.2414091" lon="11.5537938"><ele>175.0</ele><time>2026-04-04T14:50:01.913Z</time></trkpt><trkpt lat="43.2415018" lon="11.5538206"><ele>175.0</ele><time>2026-04-04T14:50:02.907Z</time></trkpt><trkpt lat="43.2416016" lon="11.5538229"><ele>175.6</ele><time>2026-04-04T14:50:03.92Z</time></trkpt><trkpt lat="43.2417027" lon="11.5538216"><ele>176.2</ele><time>2026-04-04T14:50:04.909Z</time></trkpt><trkpt lat="43.2418002" lon="11.5538272"><ele>176.8</ele><time>2026-04-04T14:50:05.908Z</time></trkpt><trkpt lat="43.2419021" lon="11.5538443"><ele>177.4</ele><time>2026-04-04T14:50:06.911Z</time></trkpt><trkpt lat="43.2420009" lon="11.5538794"><ele>178.0</ele><time>2026-04-04T14:50:07.907Z</time></trkpt><trkpt lat="43.2420912" lon="11.5539307"><ele>178.0</ele><time>2026-04-04T14:50:08.913Z</time></trkpt><trkpt lat="43.2421893" lon="11.5539943"><ele>178.0</ele><time>2026-04-04T14:50:09.908Z</time></trkpt><trkpt lat="43.2422766" lon="11.5540651"><ele>178.0</ele><time>2026-04-04T14:50:10.916Z</time></trkpt><trkpt lat="43.242362" lon="11.5541361"><ele>178.0</ele><time>2026-04-04T14:50:11.909Z</time></trkpt><trkpt lat="43.2424514" lon="11.554208"><ele>178.0</ele><time>2026-04-04T14:50:12.91Z</time></trkpt><trkpt lat="43.2425354" lon="11.554273"><ele>181.2</ele><time>2026-04-04T14:50:13.907Z</time></trkpt><trkpt lat="43.2426145" lon="11.5543332"><ele>184.4</ele><time>2026-04-04T14:50:14.912Z</time></trkpt><trkpt lat="43.242696" lon="11.5543845"><ele>187.6</ele><time>2026-04-04T14:50:15.914Z</time></trkpt><trkpt lat="43.2427799" lon="11.5544312"><ele>190.79999999999998</ele><time>2026-04-04T14:50:16.906Z</time></trkpt><trkpt lat="43.2428706" lon="11.5544636"><ele>194.0</ele><time>2026-04-04T14:50:17.906Z</time></trkpt><trkpt lat="43.2429589" lon="11.5544887"><ele>194.0</ele><time>2026-04-04T14:50:18.904Z</time></trkpt><trkpt lat="43.243049" lon="11.5545048"><ele>194.0</ele><time>2026-04-04T14:50:19.91Z</time></trkpt><trkpt lat="43.2431448" lon="11.5545076"><ele>194.0</ele><time>2026-04-04T14:50:20.909Z</time></trkpt><trkpt lat="43.2432447" lon="11.5545172"><ele>194.0</ele><time>2026-04-04T14:50:21.909Z</time></trkpt><trkpt lat="43.2433489" lon="11.5545114"><ele>194.0</ele><time>2026-04-04T14:50:22.909Z</time></trkpt><trkpt lat="43.2434542" lon="11.5544975"><ele>193.2</ele><time>2026-04-04T14:50:23.92Z</time></trkpt><trkpt lat="43.2435532" lon="11.5544762"><ele>192.39999999999998</ele><time>2026-04-04T14:50:24.897Z</time></trkpt><trkpt lat="43.2436646" lon="11.554461"><ele>191.6</ele><time>2026-04-04T14:50:25.898Z</time></trkpt><trkpt lat="43.2437719" lon="11.5544451"><ele>190.8</ele><time>2026-04-04T14:50:26.906Z</time></trkpt><trkpt lat="43.2438856" lon="11.5544238"><ele>190.0</ele><time>2026-04-04T14:50:27.914Z</time></trkpt><trkpt lat="43.2440102" lon="11.5544011"><ele>190.0</ele><time>2026-04-04T14:50:28.92Z</time></trkpt><trkpt lat="43.244137" lon="11.5543865"><ele>190.0</ele><time>2026-04-04T14:50:29.919Z</time></trkpt><trkpt lat="43.2442721" lon="11.5543761"><ele>190.0</ele><time>2026-04-04T14:50:30.911Z</time></trkpt><trkpt lat="43.244408" lon="11.5543629"><ele>190.0</ele><time>2026-04-04T14:50:31.901Z</time></trkpt><trkpt lat="43.2445506" lon="11.5543445"><ele>190.0</ele><time>2026-04-04T14:50:32.907Z</time></trkpt><trkpt lat="43.2446904" lon="11.5543248"><ele>190.0</ele><time>2026-04-04T14:50:33.914Z</time></trkpt><trkpt lat="43.2448377" lon="11.5543068"><ele>190.0</ele><time>2026-04-04T14:50:34.911Z</time></trkpt><trkpt lat="43.2449837" lon="11.5542814"><ele>190.0</ele><time>2026-04-04T14:50:35.921Z</time></trkpt><trkpt lat="43.2451308" lon="11.5542561"><ele>188.66666666666669</ele><time>2026-04-04T14:50:36.923Z</time></trkpt><trkpt lat="43.2452827" lon="11.5542316"><ele>187.33333333333334</ele><time>2026-04-04T14:50:37.917Z</time></trkpt><trkpt lat="43.2454334" lon="11.554212"><ele>186.0</ele><time>2026-04-04T14:50:38.914Z</time></trkpt><trkpt lat="43.2455891" lon="11.5541889"><ele>183.0</ele><time>2026-04-04T14:50:39.919Z</time></trkpt><trkpt lat="43.2457434" lon="11.5541744"><ele>180.0</ele><time>2026-04-04T14:50:40.911Z</time></trkpt><trkpt lat="43.245895" lon="11.5541566"><ele>177.0</ele><time>2026-04-04T14:50:41.902Z</time></trkpt><trkpt lat="43.246051" lon="11.5541399"><ele>177.0</ele><time>2026-04-04T14:50:42.909Z</time></trkpt><trkpt lat="43.2461975" lon="11.5541196"><ele>177.0</ele><time>2026-04-04T14:50:43.913Z</time></trkpt><trkpt lat="43.2463367" lon="11.5541057"><ele>177.0</ele><time>2026-04-04T14:50:44.911Z</time></trkpt><trkpt lat="43.2464735" lon="11.5541042"><ele>177.0</ele><time>2026-04-04T14:50:45.912Z</time></trkpt><trkpt lat="43.2466028" lon="11.5541247"><ele>175.75</ele><time>2026-04-04T14:50:46.912Z</time></trkpt><trkpt lat="43.2467312" lon="11.5541689"><ele>174.5</ele><time>2026-04-04T14:50:47.908Z</time></trkpt><trkpt lat="43.2468543" lon="11.5542264"><ele>173.25</ele><time>2026-04-04T14:50:48.912Z</time></trkpt><trkpt lat="43.2469827" lon="11.5543006"><ele>172.0</ele><time>2026-04-04T14:50:49.923Z</time></trkpt><trkpt lat="43.2471082" lon="11.5544016"><ele>172.0</ele><time>2026-04-04T14:50:50.912Z</time></trkpt><trkpt lat="43.247232" lon="11.5544948"><ele>172.0</ele><time>2026-04-04T14:50:51.92Z</time></trkpt><trkpt lat="43.2473556" lon="11.5545898"><ele>172.0</ele><time>2026-04-04T14:50:52.918Z</time></trkpt><trkpt lat="43.247477" lon="11.5546887"><ele>172.0</ele><time>2026-04-04T14:50:53.911Z</time></trkpt><trkpt lat="43.2475952" lon="11.5547771"><ele>173.39999999999998</ele><time>2026-04-04T14:50:54.905Z</time></trkpt><trkpt lat="43.247703" lon="11.5548662"><ele>174.79999999999998</ele><time>2026-04-04T14:50:55.917Z</time></trkpt><trkpt lat="43.247788" lon="11.5549512"><ele>176.2</ele><time>2026-04-04T14:50:56.905Z</time></trkpt><trkpt lat="43.2478594" lon="11.5550364"><ele>177.6</ele><time>2026-04-04T14:50:57.921Z</time></trkpt><trkpt lat="43.2479188" lon="11.5551315"><ele>179.0</ele><time>2026-04-04T14:50:58.911Z</time></trkpt><trkpt lat="43.247975" lon="11.5552352"><ele>179.0</ele><time>2026-04-04T14:50:59.931Z</time></trkpt><trkpt lat="43.2480312" lon="11.5553321"><ele>179.0</ele><time>2026-04-04T14:51:00.909Z</time></trkpt><trkpt lat="43.2480923" lon="11.5554238"><ele>179.0</ele><time>2026-04-04T14:51:01.903Z</time></trkpt><trkpt lat="43.2481604" lon="11.5555143"><ele>179.0</ele><time>2026-04-04T14:51:02.907Z</time></trkpt><trkpt lat="43.2482375" lon="11.5555987"><ele>179.0</ele><time>2026-04-04T14:51:03.899Z</time></trkpt><trkpt lat="43.2483256" lon="11.5556693"><ele>180.6</ele><time>2026-04-04T14:51:04.914Z</time></trkpt><trkpt lat="43.2484139" lon="11.5557495"><ele>182.2</ele><time>2026-04-04T14:51:05.913Z</time></trkpt><trkpt lat="43.2485112" lon="11.5558267"><ele>183.79999999999998</ele><time>2026-04-04T14:51:06.908Z</time></trkpt><trkpt lat="43.2486064" lon="11.5558954"><ele>185.39999999999998</ele><time>2026-04-04T14:51:07.909Z</time></trkpt><trkpt lat="43.2486982" lon="11.5559582"><ele>187.0</ele><time>2026-04-04T14:51:08.901Z</time></trkpt><trkpt lat="43.248792" lon="11.5560109"><ele>187.0</ele><time>2026-04-04T14:51:09.907Z</time></trkpt><trkpt lat="43.2488903" lon="11.5560546"><ele>187.0</ele><time>2026-04-04T14:51:10.913Z</time></trkpt><trkpt lat="43.248988" lon="11.5560772"><ele>187.0</ele><time>2026-04-04T14:51:11.915Z</time></trkpt><trkpt lat="43.2490894" lon="11.556069"><ele>187.0</ele><time>2026-04-04T14:51:12.912Z</time></trkpt><trkpt lat="43.2491973" lon="11.5560525"><ele>187.0</ele><time>2026-04-04T14:51:13.919Z</time></trkpt><trkpt lat="43.2493065" lon="11.5560232"><ele>189.25</ele><time>2026-04-04T14:51:14.915Z</time></trkpt><trkpt lat="43.2494295" lon="11.5559934"><ele>191.5</ele><time>2026-04-04T14:51:15.916Z</time></trkpt><trkpt lat="43.2495638" lon="11.5559713"><ele>193.75</ele><time>2026-04-04T14:51:16.906Z</time></trkpt><trkpt lat="43.2497009" lon="11.5559549"><ele>196.0</ele><time>2026-04-04T14:51:17.908Z</time></trkpt><trkpt lat="43.249826" lon="11.5559407"><ele>196.75</ele><time>2026-04-04T14:51:18.912Z</time></trkpt><trkpt lat="43.2499436" lon="11.5559237"><ele>197.5</ele><time>2026-04-04T14:51:19.903Z</time></trkpt><trkpt lat="43.2500517" lon="11.5558955"><ele>198.25</ele><time>2026-04-04T14:51:20.904Z</time></trkpt><trkpt lat="43.2501562" lon="11.5558318"><ele>199.0</ele><time>2026-04-04T14:51:21.924Z</time></trkpt><trkpt lat="43.2502547" lon="11.5557545"><ele>199.0</ele><time>2026-04-04T14:51:22.904Z</time></trkpt><trkpt lat="43.2503488" lon="11.5556737"><ele>199.0</ele><time>2026-04-04T14:51:23.902Z</time></trkpt><trkpt lat="43.2504284" lon="11.5555836"><ele>199.0</ele><time>2026-04-04T14:51:24.898Z</time></trkpt><trkpt lat="43.2505014" lon="11.5555052"><ele>199.0</ele><time>2026-04-04T14:51:25.899Z</time></trkpt><trkpt lat="43.2505582" lon="11.5554385"><ele>199.0</ele><time>2026-04-04T14:51:26.914Z</time></trkpt><trkpt lat="43.2506173" lon="11.5553746"><ele>201.66666666666666</ele><time>2026-04-04T14:51:27.907Z</time></trkpt><trkpt lat="43.2506713" lon="11.5553156"><ele>204.33333333333331</ele><time>2026-04-04T14:51:28.914Z</time></trkpt><trkpt lat="43.2507217" lon="11.5552553"><ele>207.0</ele><time>2026-04-04T14:51:29.918Z</time></trkpt><trkpt lat="43.2508181" lon="11.5551408"><ele>209.66666666666669</ele><time>2026-04-04T14:51:31.905Z</time></trkpt><trkpt lat="43.2508776" lon="11.5550848"><ele>212.33333333333334</ele><time>2026-04-04T14:51:32.909Z</time></trkpt><trkpt lat="43.2509352" lon="11.555026"><ele>215.0</ele><time>2026-04-04T14:51:33.911Z</time></trkpt><trkpt lat="43.2509957" lon="11.5549718"><ele>215.0</ele><time>2026-04-04T14:51:34.907Z</time></trkpt><trkpt lat="43.251065" lon="11.554923"><ele>215.0</ele><time>2026-04-04T14:51:35.905Z</time></trkpt><trkpt lat="43.2511494" lon="11.5548749"><ele>215.0</ele><time>2026-04-04T14:51:36.914Z</time></trkpt><trkpt lat="43.2512327" lon="11.5548351"><ele>215.0</ele><time>2026-04-04T14:51:37.922Z</time></trkpt><trkpt lat="43.2513288" lon="11.5547969"><ele>215.0</ele><time>2026-04-04T14:51:38.906Z</time></trkpt><trkpt lat="43.251439" lon="11.5547507"><ele>214.5</ele><time>2026-04-04T14:51:39.914Z</time></trkpt><trkpt lat="43.2515547" lon="11.5547087"><ele>214.0</ele><time>2026-04-04T14:51:40.906Z</time></trkpt><trkpt lat="43.2516795" lon="11.5546782"><ele>213.5</ele><time>2026-04-04T14:51:41.905Z</time></trkpt><trkpt lat="43.2518" lon="11.554644"><ele>213.0</ele><time>2026-04-04T14:51:42.909Z</time></trkpt><trkpt lat="43.2519167" lon="11.554612"><ele>213.0</ele><time>2026-04-04T14:51:43.919Z</time></trkpt><trkpt lat="43.2520213" lon="11.5545978"><ele>213.0</ele><time>2026-04-04T14:51:44.921Z</time></trkpt><trkpt lat="43.252116" lon="11.5545882"><ele>213.0</ele><time>2026-04-04T14:51:45.913Z</time></trkpt><trkpt lat="43.2522118" lon="11.5545914"><ele>213.0</ele><time>2026-04-04T14:51:46.914Z</time></trkpt><trkpt lat="43.2523147" lon="11.5546148"><ele>213.0</ele><time>2026-04-04T14:51:47.918Z</time></trkpt><trkpt lat="43.2524296" lon="11.554655"><ele>213.25</ele><time>2026-04-04T14:51:48.908Z</time></trkpt><trkpt lat="43.2525536" lon="11.5546954"><ele>213.5</ele><time>2026-04-04T14:51:49.918Z</time></trkpt><trkpt lat="43.2526799" lon="11.5547082"><ele>213.75</ele><time>2026-04-04T14:51:50.923Z</time></trkpt><trkpt lat="43.2528083" lon="11.5546973"><ele>214.0</ele><time>2026-04-04T14:51:51.925Z</time></trkpt><trkpt lat="43.2529434" lon="11.5546704"><ele>214.0</ele><time>2026-04-04T14:51:52.92Z</time></trkpt><trkpt lat="43.2530775" lon="11.5546354"><ele>214.0</ele><time>2026-04-04T14:51:53.905Z</time></trkpt><trkpt lat="43.2532012" lon="11.5545931"><ele>214.0</ele><time>2026-04-04T14:51:54.91Z</time></trkpt><trkpt lat="43.2533131" lon="11.5545399"><ele>214.0</ele><time>2026-04-04T14:51:55.916Z</time></trkpt><trkpt lat="43.2534178" lon="11.5544804"><ele>216.99999999999997</ele><time>2026-04-04T14:51:56.921Z</time></trkpt><trkpt lat="43.2535091" lon="11.5544108"><ele>220.0</ele><time>2026-04-04T14:51:57.91Z</time></trkpt><trkpt lat="43.2535867" lon="11.5543479"><ele>223.0</ele><time>2026-04-04T14:51:58.91Z</time></trkpt><trkpt lat="43.2536499" lon="11.5543"><ele>226.0</ele><time>2026-04-04T14:51:59.916Z</time></trkpt><trkpt lat="43.2537187" lon="11.5542465"><ele>228.99999999999997</ele><time>2026-04-04T14:52:00.91Z</time></trkpt><trkpt lat="43.253791" lon="11.5541801"><ele>232.0</ele><time>2026-04-04T14:52:01.921Z</time></trkpt><trkpt lat="43.2538635" lon="11.5540999"><ele>232.0</ele><time>2026-04-04T14:52:02.921Z</time></trkpt><trkpt lat="43.2539246" lon="11.5540098"><ele>232.0</ele><time>2026-04-04T14:52:03.934Z</time></trkpt><trkpt lat="43.2539828" lon="11.5539027"><ele>232.0</ele><time>2026-04-04T14:52:04.912Z</time></trkpt><trkpt lat="43.2540197" lon="11.5537936"><ele>232.0</ele><time>2026-04-04T14:52:05.914Z</time></trkpt><trkpt lat="43.2540457" lon="11.5536722"><ele>232.0</ele><time>2026-04-04T14:52:06.905Z</time></trkpt><trkpt lat="43.2540555" lon="11.5535499"><ele>234.16666666666666</ele><time>2026-04-04T14:52:07.916Z</time></trkpt><trkpt lat="43.2540638" lon="11.5534424"><ele>236.33333333333331</ele><time>2026-04-04T14:52:08.911Z</time></trkpt><trkpt lat="43.2540745" lon="11.5533364"><ele>238.5</ele><time>2026-04-04T14:52:09.913Z</time></trkpt><trkpt lat="43.2540906" lon="11.553228"><ele>240.66666666666669</ele><time>2026-04-04T14:52:10.919Z</time></trkpt><trkpt lat="43.254116" lon="11.5531421"><ele>242.83333333333334</ele><time>2026-04-04T14:52:11.896Z</time></trkpt><trkpt lat="43.2541542" lon="11.5530729"><ele>245.0</ele><time>2026-04-04T14:52:12.909Z</time></trkpt><trkpt lat="43.2542302" lon="11.5529829"><ele>245.0</ele><time>2026-04-04T14:52:14.909Z</time></trkpt><trkpt lat="43.2543405" lon="11.5529283"><ele>245.0</ele><time>2026-04-04T14:52:16.908Z</time></trkpt><trkpt lat="43.2544094" lon="11.5529175"><ele>245.0</ele><time>2026-04-04T14:52:17.914Z</time></trkpt><trkpt lat="43.2545347" lon="11.5529159"><ele>245.0</ele><time>2026-04-04T14:52:19.925Z</time></trkpt><trkpt lat="43.2546037" lon="11.5529149"><ele>245.0</ele><time>2026-04-04T14:52:20.906Z</time></trkpt><trkpt lat="43.2546816" lon="11.5529096"><ele>245.0</ele><time>2026-04-04T14:52:21.918Z</time></trkpt><trkpt lat="43.2547675" lon="11.5529009"><ele>245.0</ele><time>2026-04-04T14:52:22.908Z</time></trkpt><trkpt lat="43.2548607" lon="11.552896"><ele>245.0</ele><time>2026-04-04T14:52:23.92Z</time></trkpt><trkpt lat="43.2549622" lon="11.5528863"><ele>245.0</ele><time>2026-04-04T14:52:24.91Z</time></trkpt><trkpt lat="43.255066" lon="11.5528813"><ele>245.0</ele><time>2026-04-04T14:52:25.926Z</time></trkpt><trkpt lat="43.2551636" lon="11.5528749"><ele>245.50000000000003</ele><time>2026-04-04T14:52:26.906Z</time></trkpt><trkpt lat="43.2552572" lon="11.5528713"><ele>246.0</ele><time>2026-04-04T14:52:27.922Z</time></trkpt><trkpt lat="43.2553406" lon="11.552876"><ele>246.5</ele><time>2026-04-04T14:52:28.917Z</time></trkpt><trkpt lat="43.2554198" lon="11.55288"><ele>247.0</ele><time>2026-04-04T14:52:29.927Z</time></trkpt><trkpt lat="43.2555045" lon="11.5529034"><ele>247.50000000000003</ele><time>2026-04-04T14:52:30.922Z</time></trkpt><trkpt lat="43.2555998" lon="11.5529331"><ele>248.0</ele><time>2026-04-04T14:52:31.919Z</time></trkpt><trkpt lat="43.255699" lon="11.552985"><ele>248.8</ele><time>2026-04-04T14:52:32.917Z</time></trkpt><trkpt lat="43.2557942" lon="11.5530339"><ele>249.60000000000002</ele><time>2026-04-04T14:52:33.908Z</time></trkpt><trkpt lat="43.2558941" lon="11.5531009"><ele>250.39999999999998</ele><time>2026-04-04T14:52:34.919Z</time></trkpt><trkpt lat="43.2559942" lon="11.5531709"><ele>251.2</ele><time>2026-04-04T14:52:35.915Z</time></trkpt><trkpt lat="43.2561046" lon="11.5532417"><ele>252.0</ele><time>2026-04-04T14:52:36.911Z</time></trkpt><trkpt lat="43.2562105" lon="11.5533132"><ele>252.0</ele><time>2026-04-04T14:52:37.914Z</time></trkpt><trkpt lat="43.2563195" lon="11.5533835"><ele>252.0</ele><time>2026-04-04T14:52:38.924Z</time></trkpt><trkpt lat="43.2564317" lon="11.5534531"><ele>252.0</ele><time>2026-04-04T14:52:39.906Z</time></trkpt><trkpt lat="43.256538" lon="11.5535181"><ele>252.0</ele><time>2026-04-04T14:52:40.914Z</time></trkpt><trkpt lat="43.2566447" lon="11.5535759"><ele>251.75</ele><time>2026-04-04T14:52:41.916Z</time></trkpt><trkpt lat="43.2567534" lon="11.5536277"><ele>251.5</ele><time>2026-04-04T14:52:42.913Z</time></trkpt><trkpt lat="43.2568687" lon="11.5536615"><ele>251.25</ele><time>2026-04-04T14:52:43.924Z</time></trkpt><trkpt lat="43.2569805" lon="11.5536846"><ele>251.0</ele><time>2026-04-04T14:52:44.93Z</time></trkpt><trkpt lat="43.2570986" lon="11.5536814"><ele>251.0</ele><time>2026-04-04T14:52:45.918Z</time></trkpt><trkpt lat="43.2572202" lon="11.5536738"><ele>251.0</ele><time>2026-04-04T14:52:46.913Z</time></trkpt><trkpt lat="43.2573396" lon="11.5536399"><ele>251.0</ele><time>2026-04-04T14:52:47.906Z</time></trkpt><trkpt lat="43.2574591" lon="11.5535991"><ele>251.0</ele><time>2026-04-04T14:52:48.918Z</time></trkpt><trkpt lat="43.257577" lon="11.5535511"><ele>251.20000000000002</ele><time>2026-04-04T14:52:49.899Z</time></trkpt><trkpt lat="43.2576936" lon="11.5534967"><ele>251.40000000000003</ele><time>2026-04-04T14:52:50.904Z</time></trkpt><trkpt lat="43.2578091" lon="11.5534412"><ele>251.6</ele><time>2026-04-04T14:52:51.912Z</time></trkpt><trkpt lat="43.2579104" lon="11.5533877"><ele>251.8</ele><time>2026-04-04T14:52:52.914Z</time></trkpt><trkpt lat="43.2579979" lon="11.5533469"><ele>252.0</ele><time>2026-04-04T14:52:53.912Z</time></trkpt><trkpt lat="43.2580768" lon="11.553309"><ele>252.0</ele><time>2026-04-04T14:52:54.917Z</time></trkpt><trkpt lat="43.2581576" lon="11.5532721"><ele>252.0</ele><time>2026-04-04T14:52:55.904Z</time></trkpt><trkpt lat="43.2582384" lon="11.5532456"><ele>252.0</ele><time>2026-04-04T14:52:56.913Z</time></trkpt><trkpt lat="43.258321" lon="11.5532245"><ele>252.0</ele><time>2026-04-04T14:52:57.917Z</time></trkpt><trkpt lat="43.2584028" lon="11.5532054"><ele>252.0</ele><time>2026-04-04T14:52:58.914Z</time></trkpt><trkpt lat="43.258487" lon="11.5531871"><ele>252.0</ele><time>2026-04-04T14:52:59.923Z</time></trkpt><trkpt lat="43.258574" lon="11.5531722"><ele>252.0</ele><time>2026-04-04T14:53:00.903Z</time></trkpt><trkpt lat="43.2586576" lon="11.5531478"><ele>252.0</ele><time>2026-04-04T14:53:01.933Z</time></trkpt><trkpt lat="43.2587414" lon="11.5531255"><ele>252.0</ele><time>2026-04-04T14:53:02.91Z</time></trkpt><trkpt lat="43.2588299" lon="11.5530929"><ele>252.0</ele><time>2026-04-04T14:53:03.926Z</time></trkpt><trkpt lat="43.2589148" lon="11.5530522"><ele>252.0</ele><time>2026-04-04T14:53:04.911Z</time></trkpt><trkpt lat="43.2589972" lon="11.5530007"><ele>252.0</ele><time>2026-04-04T14:53:05.915Z</time></trkpt><trkpt lat="43.2590723" lon="11.5529439"><ele>251.0</ele><time>2026-04-04T14:53:06.915Z</time></trkpt><trkpt lat="43.2591329" lon="11.5528785"><ele>250.0</ele><time>2026-04-04T14:53:07.915Z</time></trkpt><trkpt lat="43.2591824" lon="11.5528159"><ele>249.0</ele><time>2026-04-04T14:53:08.917Z</time></trkpt><trkpt lat="43.2592295" lon="11.552755"><ele>248.0</ele><time>2026-04-04T14:53:09.911Z</time></trkpt><trkpt lat="43.2593124" lon="11.5526483"><ele>247.0</ele><time>2026-04-04T14:53:11.915Z</time></trkpt><trkpt lat="43.2593875" lon="11.5525537"><ele>246.0</ele><time>2026-04-04T14:53:13.908Z</time></trkpt><trkpt lat="43.2594527" lon="11.5524416"><ele>246.0</ele><time>2026-04-04T14:53:15.907Z</time></trkpt><trkpt lat="43.2595053" lon="11.5522955"><ele>246.0</ele><time>2026-04-04T14:53:17.917Z</time></trkpt><trkpt lat="43.2595258" lon="11.552213"><ele>246.0</ele><time>2026-04-04T14:53:18.911Z</time></trkpt><trkpt lat="43.2595512" lon="11.5521238"><ele>246.0</ele><time>2026-04-04T14:53:19.898Z</time></trkpt><trkpt lat="43.2595741" lon="11.5520322"><ele>246.0</ele><time>2026-04-04T14:53:20.907Z</time></trkpt><trkpt lat="43.259597" lon="11.5519382"><ele>246.0</ele><time>2026-04-04T14:53:21.957Z</time></trkpt><trkpt lat="43.2596201" lon="11.5518399"><ele>246.0</ele><time>2026-04-04T14:53:22.904Z</time></trkpt><trkpt lat="43.2596392" lon="11.5517385"><ele>246.0</ele><time>2026-04-04T14:53:23.906Z</time></trkpt><trkpt lat="43.2596565" lon="11.551649"><ele>246.0</ele><time>2026-04-04T14:53:24.903Z</time></trkpt><trkpt lat="43.2596844" lon="11.55152"><ele>246.0</ele><time>2026-04-04T14:53:26.914Z</time></trkpt><trkpt lat="43.2597123" lon="11.5513943"><ele>246.0</ele><time>2026-04-04T14:53:29.919Z</time></trkpt><trkpt lat="43.2597289" lon="11.5513014"><ele>246.0</ele><time>2026-04-04T14:53:31.897Z</time></trkpt><trkpt lat="43.2597711" lon="11.5511884"><ele>246.0</ele><time>2026-04-04T14:53:34.913Z</time></trkpt><trkpt lat="43.2598122" lon="11.5511197"><ele>246.0</ele><time>2026-04-04T14:53:37.916Z</time></trkpt><trkpt lat="43.2597476" lon="11.5511689"><ele>246.0</ele><time>2026-04-04T14:53:45.907Z</time></trkpt><trkpt lat="43.2597237" lon="11.5512894"><ele>246.0</ele><time>2026-04-04T14:53:47.921Z</time></trkpt><trkpt lat="43.259716" lon="11.5514178"><ele>246.0</ele><time>2026-04-04T14:53:49.907Z</time></trkpt><trkpt lat="43.2597354" lon="11.5513262"><ele>246.0</ele><time>2026-04-04T14:54:01.909Z</time></trkpt><trkpt lat="43.2597733" lon="11.5511866"><ele>246.33333333333334</ele><time>2026-04-04T14:54:03.913Z</time></trkpt><trkpt lat="43.2598041" lon="11.5511083"><ele>246.66666666666669</ele><time>2026-04-04T14:54:04.923Z</time></trkpt><trkpt lat="43.2598358" lon="11.5510253"><ele>247.0</ele><time>2026-04-04T14:54:05.913Z</time></trkpt><trkpt lat="43.2598744" lon="11.5509368"><ele>247.33333333333334</ele><time>2026-04-04T14:54:06.915Z</time></trkpt><trkpt lat="43.259927" lon="11.5508426"><ele>247.66666666666669</ele><time>2026-04-04T14:54:07.923Z</time></trkpt><trkpt lat="43.2599853" lon="11.550741"><ele>248.0</ele><time>2026-04-04T14:54:08.914Z</time></trkpt><trkpt lat="43.26005" lon="11.5506342"><ele>248.0</ele><time>2026-04-04T14:54:09.904Z</time></trkpt><trkpt lat="43.2601185" lon="11.550516"><ele>248.0</ele><time>2026-04-04T14:54:10.916Z</time></trkpt><trkpt lat="43.2601941" lon="11.5503895"><ele>248.0</ele><time>2026-04-04T14:54:11.92Z</time></trkpt><trkpt lat="43.2602751" lon="11.5502687"><ele>248.0</ele><time>2026-04-04T14:54:12.91Z</time></trkpt><trkpt lat="43.260366" lon="11.5501627"><ele>246.25</ele><time>2026-04-04T14:54:13.919Z</time></trkpt><trkpt lat="43.2604703" lon="11.5500762"><ele>244.5</ele><time>2026-04-04T14:54:14.918Z</time></trkpt><trkpt lat="43.2605761" lon="11.5500134"><ele>242.75</ele><time>2026-04-04T14:54:15.917Z</time></trkpt><trkpt lat="43.2606927" lon="11.5499677"><ele>241.0</ele><time>2026-04-04T14:54:16.909Z</time></trkpt><trkpt lat="43.2608097" lon="11.5499315"><ele>239.0</ele><time>2026-04-04T14:54:17.921Z</time></trkpt><trkpt lat="43.2609301" lon="11.5499151"><ele>237.0</ele><time>2026-04-04T14:54:18.924Z</time></trkpt><trkpt lat="43.2610466" lon="11.5499193"><ele>235.0</ele><time>2026-04-04T14:54:19.913Z</time></trkpt><trkpt lat="43.2611571" lon="11.5499324"><ele>233.0</ele><time>2026-04-04T14:54:20.906Z</time></trkpt><trkpt lat="43.261263" lon="11.5499462"><ele>233.0</ele><time>2026-04-04T14:54:21.906Z</time></trkpt><trkpt lat="43.261374" lon="11.5499538"><ele>233.0</ele><time>2026-04-04T14:54:22.902Z</time></trkpt><trkpt lat="43.2614872" lon="11.5499428"><ele>233.0</ele><time>2026-04-04T14:54:23.917Z</time></trkpt><trkpt lat="43.261588" lon="11.5499108"><ele>233.0</ele><time>2026-04-04T14:54:24.922Z</time></trkpt><trkpt lat="43.2616844" lon="11.5498704"><ele>233.0</ele><time>2026-04-04T14:54:25.918Z</time></trkpt><trkpt lat="43.2617871" lon="11.549828"><ele>233.33333333333334</ele><time>2026-04-04T14:54:26.917Z</time></trkpt><trkpt lat="43.261874" lon="11.549782"><ele>233.66666666666669</ele><time>2026-04-04T14:54:27.913Z</time></trkpt><trkpt lat="43.2619349" lon="11.5497375"><ele>234.0</ele><time>2026-04-04T14:54:28.917Z</time></trkpt><trkpt lat="43.261991" lon="11.5496973"><ele>234.33333333333331</ele><time>2026-04-04T14:54:31.907Z</time></trkpt><trkpt lat="43.2620648" lon="11.5495991"><ele>234.66666666666666</ele><time>2026-04-04T14:57:58.902Z</time></trkpt><trkpt lat="43.2621166" lon="11.5495442"><ele>235.0</ele><time>2026-04-04T14:57:59.926Z</time></trkpt><trkpt lat="43.2621785" lon="11.549467"><ele>235.4</ele><time>2026-04-04T14:58:00.928Z</time></trkpt><trkpt lat="43.2622499" lon="11.5493774"><ele>235.8</ele><time>2026-04-04T14:58:01.933Z</time></trkpt><trkpt lat="43.2623291" lon="11.5492905"><ele>236.2</ele><time>2026-04-04T14:58:02.923Z</time></trkpt><trkpt lat="43.2624116" lon="11.5491842"><ele>236.6</ele><time>2026-04-04T14:58:03.915Z</time></trkpt><trkpt lat="43.2624966" lon="11.5490644"><ele>237.0</ele><time>2026-04-04T14:58:04.933Z</time></trkpt><trkpt lat="43.2625763" lon="11.5489361"><ele>239.25</ele><time>2026-04-04T14:58:05.908Z</time></trkpt><trkpt lat="43.2626521" lon="11.54879"><ele>241.5</ele><time>2026-04-04T14:58:06.908Z</time></trkpt><trkpt lat="43.2627303" lon="11.5486432"><ele>243.75</ele><time>2026-04-04T14:58:07.904Z</time></trkpt><trkpt lat="43.2628059" lon="11.5484942"><ele>246.0</ele><time>2026-04-04T14:58:08.915Z</time></trkpt><trkpt lat="43.2628786" lon="11.5483601"><ele>247.60000000000002</ele><time>2026-04-04T14:58:09.904Z</time></trkpt><trkpt lat="43.2629455" lon="11.548226"><ele>249.20000000000002</ele><time>2026-04-04T14:58:10.908Z</time></trkpt><trkpt lat="43.2630075" lon="11.5481"><ele>250.79999999999998</ele><time>2026-04-04T14:58:11.904Z</time></trkpt><trkpt lat="43.2630585" lon="11.5479666"><ele>252.39999999999998</ele><time>2026-04-04T14:58:12.918Z</time></trkpt><trkpt lat="43.2631026" lon="11.5478353"><ele>254.0</ele><time>2026-04-04T14:58:13.918Z</time></trkpt><trkpt lat="43.2631491" lon="11.5477054"><ele>256.5</ele><time>2026-04-04T14:58:14.902Z</time></trkpt><trkpt lat="43.2632088" lon="11.5475773"><ele>259.0</ele><time>2026-04-04T14:58:15.925Z</time></trkpt><trkpt lat="43.2632781" lon="11.547451"><ele>261.5</ele><time>2026-04-04T14:58:16.917Z</time></trkpt><trkpt lat="43.2633591" lon="11.5473379"><ele>264.0</ele><time>2026-04-04T14:58:17.909Z</time></trkpt><trkpt lat="43.2634493" lon="11.5472422"><ele>264.0</ele><time>2026-04-04T14:58:18.904Z</time></trkpt><trkpt lat="43.2635345" lon="11.5471614"><ele>264.0</ele><time>2026-04-04T14:58:19.916Z</time></trkpt><trkpt lat="43.263622" lon="11.5470727"><ele>264.0</ele><time>2026-04-04T14:58:20.9Z</time></trkpt><trkpt lat="43.2637227" lon="11.5469806"><ele>264.0</ele><time>2026-04-04T14:58:21.9Z</time></trkpt><trkpt lat="43.2638291" lon="11.5468869"><ele>264.0</ele><time>2026-04-04T14:58:22.909Z</time></trkpt><trkpt lat="43.2639341" lon="11.5467935"><ele>264.0</ele><time>2026-04-04T14:58:23.899Z</time></trkpt><trkpt lat="43.2640349" lon="11.5466869"><ele>264.0</ele><time>2026-04-04T14:58:24.929Z</time></trkpt><trkpt lat="43.2641304" lon="11.5465848"><ele>264.0</ele><time>2026-04-04T14:58:25.922Z</time></trkpt><trkpt lat="43.2642138" lon="11.5464773"><ele>264.0</ele><time>2026-04-04T14:58:26.924Z</time></trkpt><trkpt lat="43.2642909" lon="11.546376"><ele>264.0</ele><time>2026-04-04T14:58:27.914Z</time></trkpt><trkpt lat="43.2643635" lon="11.5462618"><ele>264.0</ele><time>2026-04-04T14:58:28.912Z</time></trkpt><trkpt lat="43.2644216" lon="11.5461216"><ele>264.0</ele><time>2026-04-04T14:58:29.919Z</time></trkpt><trkpt lat="43.2644705" lon="11.5459804"><ele>264.0</ele><time>2026-04-04T14:58:30.914Z</time></trkpt><trkpt lat="43.2645079" lon="11.5458269"><ele>267.0</ele><time>2026-04-04T14:58:31.92Z</time></trkpt><trkpt lat="43.2645369" lon="11.5456688"><ele>270.0</ele><time>2026-04-04T14:58:32.919Z</time></trkpt><trkpt lat="43.2645628" lon="11.5455061"><ele>273.0</ele><time>2026-04-04T14:58:33.931Z</time></trkpt><trkpt lat="43.264591" lon="11.5453379"><ele>276.0</ele><time>2026-04-04T14:58:34.915Z</time></trkpt><trkpt lat="43.2646176" lon="11.5451696"><ele>276.25</ele><time>2026-04-04T14:58:35.921Z</time></trkpt><trkpt lat="43.2646393" lon="11.5450099"><ele>276.5</ele><time>2026-04-04T14:58:36.917Z</time></trkpt><trkpt lat="43.2646623" lon="11.5448591"><ele>276.75</ele><time>2026-04-04T14:58:37.922Z</time></trkpt><trkpt lat="43.2646941" lon="11.5447162"><ele>277.0</ele><time>2026-04-04T14:58:38.924Z</time></trkpt><trkpt lat="43.2647322" lon="11.5445725"><ele>271.0</ele><time>2026-04-04T14:58:39.914Z</time></trkpt><trkpt lat="43.2647925" lon="11.5444369"><ele>265.0</ele><time>2026-04-04T14:58:40.919Z</time></trkpt><trkpt lat="43.2648591" lon="11.5442965"><ele>259.0</ele><time>2026-04-04T14:58:41.92Z</time></trkpt><trkpt lat="43.2649377" lon="11.5441597"><ele>253.0</ele><time>2026-04-04T14:58:42.913Z</time></trkpt><trkpt lat="43.2650082" lon="11.544015"><ele>253.0</ele><time>2026-04-04T14:58:43.927Z</time></trkpt><trkpt lat="43.2650723" lon="11.5438573"><ele>253.0</ele><time>2026-04-04T14:58:44.92Z</time></trkpt><trkpt lat="43.265126" lon="11.5436886"><ele>253.0</ele><time>2026-04-04T14:58:45.912Z</time></trkpt><trkpt lat="43.2651721" lon="11.5435278"><ele>253.0</ele><time>2026-04-04T14:58:46.919Z</time></trkpt><trkpt lat="43.2652066" lon="11.5433644"><ele>250.75</ele><time>2026-04-04T14:58:47.922Z</time></trkpt><trkpt lat="43.2652216" lon="11.5431974"><ele>248.5</ele><time>2026-04-04T14:58:48.923Z</time></trkpt><trkpt lat="43.2652146" lon="11.5430286"><ele>246.25</ele><time>2026-04-04T14:58:49.921Z</time></trkpt><trkpt lat="43.2652013" lon="11.5428546"><ele>244.0</ele><time>2026-04-04T14:58:50.912Z</time></trkpt><trkpt lat="43.2651941" lon="11.5426669"><ele>242.25</ele><time>2026-04-04T14:58:51.917Z</time></trkpt><trkpt lat="43.2652058" lon="11.542489"><ele>240.5</ele><time>2026-04-04T14:58:52.917Z</time></trkpt><trkpt lat="43.2652454" lon="11.5423287"><ele>238.75</ele><time>2026-04-04T14:58:53.92Z</time></trkpt><trkpt lat="43.2652875" lon="11.5421871"><ele>237.0</ele><time>2026-04-04T14:58:54.911Z</time></trkpt><trkpt lat="43.2653417" lon="11.5420457"><ele>236.25</ele><time>2026-04-04T14:58:55.917Z</time></trkpt><trkpt lat="43.2653921" lon="11.5418918"><ele>235.5</ele><time>2026-04-04T14:58:56.911Z</time></trkpt><trkpt lat="43.2654345" lon="11.5417325"><ele>234.75</ele><time>2026-04-04T14:58:57.921Z</time></trkpt><trkpt lat="43.2654707" lon="11.5415605"><ele>234.0</ele><time>2026-04-04T14:58:58.926Z</time></trkpt><trkpt lat="43.2654943" lon="11.5413771"><ele>235.0</ele><time>2026-04-04T14:58:59.922Z</time></trkpt><trkpt lat="43.2655128" lon="11.5411939"><ele>236.0</ele><time>2026-04-04T14:59:00.914Z</time></trkpt><trkpt lat="43.2655283" lon="11.5410177"><ele>237.0</ele><time>2026-04-04T14:59:01.921Z</time></trkpt><trkpt lat="43.2655446" lon="11.5408577"><ele>238.0</ele><time>2026-04-04T14:59:02.91Z</time></trkpt><trkpt lat="43.2655688" lon="11.5407191"><ele>237.99999999999997</ele><time>2026-04-04T14:59:03.9Z</time></trkpt><trkpt lat="43.2656028" lon="11.5405981"><ele>238.0</ele><time>2026-04-04T14:59:04.905Z</time></trkpt><trkpt lat="43.2656426" lon="11.5405013"><ele>238.0</ele><time>2026-04-04T14:59:05.904Z</time></trkpt><trkpt lat="43.2657203" lon="11.5404101"><ele>238.0</ele><time>2026-04-04T14:59:07.919Z</time></trkpt><trkpt lat="43.265767" lon="11.5403463"><ele>237.99999999999997</ele><time>2026-04-04T14:59:17.9Z</time></trkpt><trkpt lat="43.2658091" lon="11.5402737"><ele>238.0</ele><time>2026-04-04T14:59:19.906Z</time></trkpt><trkpt lat="43.2658991" lon="11.5401423"><ele>239.49999999999997</ele><time>2026-04-04T14:59:21.897Z</time></trkpt><trkpt lat="43.2659518" lon="11.5400569"><ele>241.0</ele><time>2026-04-04T14:59:22.896Z</time></trkpt><trkpt lat="43.2660093" lon="11.5399708"><ele>242.5</ele><time>2026-04-04T14:59:23.892Z</time></trkpt><trkpt lat="43.2660728" lon="11.5398792"><ele>244.0</ele><time>2026-04-04T14:59:24.904Z</time></trkpt><trkpt lat="43.2661335" lon="11.5397864"><ele>245.49999999999997</ele><time>2026-04-04T14:59:25.903Z</time></trkpt><trkpt lat="43.2661958" lon="11.5396856"><ele>247.0</ele><time>2026-04-04T14:59:26.896Z</time></trkpt><trkpt lat="43.2662574" lon="11.5395798"><ele>248.0</ele><time>2026-04-04T14:59:27.9Z</time></trkpt><trkpt lat="43.2663158" lon="11.5394709"><ele>249.0</ele><time>2026-04-04T14:59:28.911Z</time></trkpt><trkpt lat="43.2663769" lon="11.5393555"><ele>250.0</ele><time>2026-04-04T14:59:29.908Z</time></trkpt><trkpt lat="43.2664371" lon="11.5392479"><ele>251.0</ele><time>2026-04-04T14:59:30.904Z</time></trkpt><trkpt lat="43.2664967" lon="11.5391489"><ele>252.0</ele><time>2026-04-04T14:59:31.898Z</time></trkpt><trkpt lat="43.2665738" lon="11.5390659"><ele>248.5</ele><time>2026-04-04T14:59:32.911Z</time></trkpt><trkpt lat="43.2666637" lon="11.5389914"><ele>245.0</ele><time>2026-04-04T14:59:33.899Z</time></trkpt><trkpt lat="43.2667695" lon="11.5389426"><ele>241.5</ele><time>2026-04-04T14:59:34.904Z</time></trkpt><trkpt lat="43.2668841" lon="11.5388825"><ele>238.0</ele><time>2026-04-04T14:59:35.899Z</time></trkpt><trkpt lat="43.2670005" lon="11.5388207"><ele>238.0</ele><time>2026-04-04T14:59:36.912Z</time></trkpt><trkpt lat="43.2671162" lon="11.5387473"><ele>238.0</ele><time>2026-04-04T14:59:37.908Z</time></trkpt><trkpt lat="43.2672303" lon="11.5386692"><ele>238.0</ele><time>2026-04-04T14:59:38.902Z</time></trkpt><trkpt lat="43.267345" lon="11.5385906"><ele>238.0</ele><time>2026-04-04T14:59:39.906Z</time></trkpt><trkpt lat="43.2674534" lon="11.5385227"><ele>237.0</ele><time>2026-04-04T14:59:40.907Z</time></trkpt><trkpt lat="43.2675499" lon="11.5384572"><ele>236.0</ele><time>2026-04-04T14:59:41.906Z</time></trkpt><trkpt lat="43.2676417" lon="11.5383977"><ele>235.0</ele><time>2026-04-04T14:59:42.907Z</time></trkpt><trkpt lat="43.267725" lon="11.5383407"><ele>234.0</ele><time>2026-04-04T14:59:43.897Z</time></trkpt><trkpt lat="43.2678154" lon="11.5382758"><ele>233.0</ele><time>2026-04-04T14:59:44.911Z</time></trkpt><trkpt lat="43.2679055" lon="11.5382021"><ele>233.0</ele><time>2026-04-04T14:59:45.904Z</time></trkpt><trkpt lat="43.2680041" lon="11.5381256"><ele>233.0</ele><time>2026-04-04T14:59:46.906Z</time></trkpt><trkpt lat="43.2681078" lon="11.5380493"><ele>233.0</ele><time>2026-04-04T14:59:47.906Z</time></trkpt><trkpt lat="43.2682154" lon="11.5379736"><ele>233.0</ele><time>2026-04-04T14:59:48.901Z</time></trkpt><trkpt lat="43.2683193" lon="11.537901"><ele>229.8</ele><time>2026-04-04T14:59:49.916Z</time></trkpt><trkpt lat="43.2684213" lon="11.5378318"><ele>226.60000000000002</ele><time>2026-04-04T14:59:50.92Z</time></trkpt><trkpt lat="43.2685193" lon="11.5377616"><ele>223.39999999999998</ele><time>2026-04-04T14:59:51.907Z</time></trkpt><trkpt lat="43.2686138" lon="11.5377092"><ele>220.2</ele><time>2026-04-04T14:59:52.908Z</time></trkpt><trkpt lat="43.2687132" lon="11.5376767"><ele>217.0</ele><time>2026-04-04T14:59:53.915Z</time></trkpt><trkpt lat="43.2688072" lon="11.5376777"><ele>217.0</ele><time>2026-04-04T14:59:54.908Z</time></trkpt><trkpt lat="43.2689028" lon="11.5376993"><ele>217.0</ele><time>2026-04-04T14:59:55.904Z</time></trkpt><trkpt lat="43.2689978" lon="11.5377303"><ele>217.0</ele><time>2026-04-04T14:59:56.906Z</time></trkpt><trkpt lat="43.2690901" lon="11.5377562"><ele>217.0</ele><time>2026-04-04T14:59:57.908Z</time></trkpt><trkpt lat="43.2691836" lon="11.5377747"><ele>217.0</ele><time>2026-04-04T14:59:58.919Z</time></trkpt><trkpt lat="43.2692885" lon="11.5377846"><ele>214.66666666666666</ele><time>2026-04-04T14:59:59.907Z</time></trkpt><trkpt lat="43.2693925" lon="11.5377792"><ele>212.33333333333331</ele><time>2026-04-04T15:00:00.91Z</time></trkpt><trkpt lat="43.2694835" lon="11.5377635"><ele>210.0</ele><time>2026-04-04T15:00:01.904Z</time></trkpt><trkpt lat="43.2695583" lon="11.5377362"><ele>207.66666666666669</ele><time>2026-04-04T15:00:02.91Z</time></trkpt><trkpt lat="43.2696301" lon="11.5377119"><ele>205.33333333333334</ele><time>2026-04-04T15:00:03.904Z</time></trkpt><trkpt lat="43.2696954" lon="11.5376823"><ele>203.0</ele><time>2026-04-04T15:00:04.9Z</time></trkpt><trkpt lat="43.2697557" lon="11.5376514"><ele>200.83333333333334</ele><time>2026-04-04T15:00:05.905Z</time></trkpt><trkpt lat="43.2698637" lon="11.5375935"><ele>198.66666666666669</ele><time>2026-04-04T15:00:07.915Z</time></trkpt><trkpt lat="43.2699693" lon="11.5375374"><ele>196.5</ele><time>2026-04-04T15:00:09.907Z</time></trkpt><trkpt lat="43.2700321" lon="11.5375179"><ele>194.33333333333334</ele><time>2026-04-04T15:00:10.904Z</time></trkpt><trkpt lat="43.2701028" lon="11.537515"><ele>192.16666666666669</ele><time>2026-04-04T15:00:11.906Z</time></trkpt><trkpt lat="43.2701832" lon="11.5375416"><ele>190.0</ele><time>2026-04-04T15:00:12.904Z</time></trkpt><trkpt lat="43.2702735" lon="11.5375787"><ele>190.0</ele><time>2026-04-04T15:00:13.901Z</time></trkpt><trkpt lat="43.2703709" lon="11.5376283"><ele>190.0</ele><time>2026-04-04T15:00:14.908Z</time></trkpt><trkpt lat="43.2704685" lon="11.5376636"><ele>190.0</ele><time>2026-04-04T15:00:15.91Z</time></trkpt><trkpt lat="43.2705693" lon="11.5376924"><ele>190.0</ele><time>2026-04-04T15:00:16.906Z</time></trkpt><trkpt lat="43.2706655" lon="11.5377184"><ele>190.0</ele><time>2026-04-04T15:00:17.912Z</time></trkpt><trkpt lat="43.2707617" lon="11.5377538"><ele>189.0</ele><time>2026-04-04T15:00:18.9Z</time></trkpt><trkpt lat="43.2708506" lon="11.5378145"><ele>188.0</ele><time>2026-04-04T15:00:19.906Z</time></trkpt><trkpt lat="43.270934" lon="11.5378869"><ele>187.0</ele><time>2026-04-04T15:00:20.909Z</time></trkpt><trkpt lat="43.2710198" lon="11.5379698"><ele>186.0</ele><time>2026-04-04T15:00:21.913Z</time></trkpt><trkpt lat="43.2710966" lon="11.5380703"><ele>185.0</ele><time>2026-04-04T15:00:22.909Z</time></trkpt><trkpt lat="43.2711642" lon="11.5381781"><ele>184.6</ele><time>2026-04-04T15:00:23.909Z</time></trkpt><trkpt lat="43.2712308" lon="11.5383053"><ele>184.2</ele><time>2026-04-04T15:00:24.911Z</time></trkpt><trkpt lat="43.2712903" lon="11.5384293"><ele>183.8</ele><time>2026-04-04T15:00:25.909Z</time></trkpt><trkpt lat="43.2713465" lon="11.5385598"><ele>183.4</ele><time>2026-04-04T15:00:26.902Z</time></trkpt><trkpt lat="43.2713983" lon="11.5386934"><ele>183.0</ele><time>2026-04-04T15:00:27.916Z</time></trkpt><trkpt lat="43.2714484" lon="11.5388236"><ele>184.0</ele><time>2026-04-04T15:00:28.915Z</time></trkpt><trkpt lat="43.2715017" lon="11.5389531"><ele>185.0</ele><time>2026-04-04T15:00:29.912Z</time></trkpt><trkpt lat="43.271561" lon="11.5390799"><ele>186.0</ele><time>2026-04-04T15:00:30.917Z</time></trkpt><trkpt lat="43.2716152" lon="11.539214"><ele>187.0</ele><time>2026-04-04T15:00:31.91Z</time></trkpt><trkpt lat="43.271676" lon="11.5393619"><ele>187.0</ele><time>2026-04-04T15:00:32.915Z</time></trkpt><trkpt lat="43.2717391" lon="11.5395097"><ele>187.0</ele><time>2026-04-04T15:00:33.912Z</time></trkpt><trkpt lat="43.2717943" lon="11.5396584"><ele>187.0</ele><time>2026-04-04T15:00:34.903Z</time></trkpt><trkpt lat="43.2718526" lon="11.5398196"><ele>187.0</ele><time>2026-04-04T15:00:35.908Z</time></trkpt><trkpt lat="43.271922" lon="11.5399869"><ele>187.66666666666669</ele><time>2026-04-04T15:00:36.908Z</time></trkpt><trkpt lat="43.2719902" lon="11.5401666"><ele>188.33333333333334</ele><time>2026-04-04T15:00:37.903Z</time></trkpt><trkpt lat="43.2720651" lon="11.5403583"><ele>189.0</ele><time>2026-04-04T15:00:38.908Z</time></trkpt><trkpt lat="43.2721423" lon="11.5405452"><ele>189.66666666666666</ele><time>2026-04-04T15:00:39.906Z</time></trkpt><trkpt lat="43.2722192" lon="11.5407371"><ele>190.33333333333331</ele><time>2026-04-04T15:00:40.916Z</time></trkpt><trkpt lat="43.2722964" lon="11.5409374"><ele>191.0</ele><time>2026-04-04T15:00:41.906Z</time></trkpt><trkpt lat="43.2723657" lon="11.5411373"><ele>195.0</ele><time>2026-04-04T15:00:42.909Z</time></trkpt><trkpt lat="43.2724184" lon="11.5413471"><ele>199.0</ele><time>2026-04-04T15:00:43.908Z</time></trkpt><trkpt lat="43.2724597" lon="11.5415528"><ele>203.0</ele><time>2026-04-04T15:00:44.912Z</time></trkpt><trkpt lat="43.272486" lon="11.5417594"><ele>203.0</ele><time>2026-04-04T15:00:45.908Z</time></trkpt><trkpt lat="43.2725089" lon="11.5419609"><ele>203.0</ele><time>2026-04-04T15:00:46.909Z</time></trkpt><trkpt lat="43.2725244" lon="11.5421481"><ele>203.0</ele><time>2026-04-04T15:00:47.911Z</time></trkpt><trkpt lat="43.2725429" lon="11.5423132"><ele>203.0</ele><time>2026-04-04T15:00:48.905Z</time></trkpt><trkpt lat="43.2725663" lon="11.5424675"><ele>204.33333333333334</ele><time>2026-04-04T15:00:49.909Z</time></trkpt><trkpt lat="43.2725929" lon="11.5426025"><ele>205.66666666666669</ele><time>2026-04-04T15:00:50.909Z</time></trkpt><trkpt lat="43.2726221" lon="11.5427203"><ele>207.0</ele><time>2026-04-04T15:00:51.903Z</time></trkpt><trkpt lat="43.2726569" lon="11.5428118"><ele>208.33333333333331</ele><time>2026-04-04T15:00:52.909Z</time></trkpt><trkpt lat="43.2727042" lon="11.5428764"><ele>209.66666666666666</ele><time>2026-04-04T15:00:53.905Z</time></trkpt><trkpt lat="43.2727626" lon="11.5429208"><ele>211.0</ele><time>2026-04-04T15:00:54.909Z</time></trkpt><trkpt lat="43.2728286" lon="11.5429252"><ele>210.99999999999997</ele><time>2026-04-04T15:00:55.901Z</time></trkpt><trkpt lat="43.2728967" lon="11.5429064"><ele>211.0</ele><time>2026-04-04T15:00:56.904Z</time></trkpt><trkpt lat="43.2729702" lon="11.5428866"><ele>211.0</ele><time>2026-04-04T15:00:57.918Z</time></trkpt><trkpt lat="43.2730521" lon="11.5428691"><ele>211.0</ele><time>2026-04-04T15:00:58.907Z</time></trkpt><trkpt lat="43.2731213" lon="11.5428774"><ele>210.99999999999997</ele><time>2026-04-04T15:00:59.904Z</time></trkpt><trkpt lat="43.2731934" lon="11.5429119"><ele>211.0</ele><time>2026-04-04T15:01:00.909Z</time></trkpt><trkpt lat="43.2732675" lon="11.5429577"><ele>214.49999999999997</ele><time>2026-04-04T15:01:01.911Z</time></trkpt><trkpt lat="43.273334" lon="11.5430098"><ele>218.0</ele><time>2026-04-04T15:01:02.904Z</time></trkpt><trkpt lat="43.2734033" lon="11.5430735"><ele>221.5</ele><time>2026-04-04T15:01:03.901Z</time></trkpt><trkpt lat="43.2734762" lon="11.5431388"><ele>225.0</ele><time>2026-04-04T15:01:04.902Z</time></trkpt><trkpt lat="43.2735379" lon="11.5432163"><ele>228.49999999999997</ele><time>2026-04-04T15:01:05.907Z</time></trkpt><trkpt lat="43.2735865" lon="11.5432959"><ele>232.0</ele><time>2026-04-04T15:01:06.906Z</time></trkpt><trkpt lat="43.2736147" lon="11.5433887"><ele>232.00000000000003</ele><time>2026-04-04T15:01:07.907Z</time></trkpt><trkpt lat="43.2736267" lon="11.5434843"><ele>232.0</ele><time>2026-04-04T15:01:08.909Z</time></trkpt><trkpt lat="43.2736216" lon="11.543585"><ele>232.00000000000003</ele><time>2026-04-04T15:01:09.903Z</time></trkpt><trkpt lat="43.2735985" lon="11.5436831"><ele>232.00000000000003</ele><time>2026-04-04T15:01:10.904Z</time></trkpt><trkpt lat="43.2735695" lon="11.5437705"><ele>232.0</ele><time>2026-04-04T15:01:11.904Z</time></trkpt><trkpt lat="43.2735302" lon="11.5438528"><ele>232.00000000000003</ele><time>2026-04-04T15:01:12.909Z</time></trkpt><trkpt lat="43.27348" lon="11.5439293"><ele>232.00000000000003</ele><time>2026-04-04T15:01:13.907Z</time></trkpt><trkpt lat="43.2734322" lon="11.5439977"><ele>233.33333333333331</ele><time>2026-04-04T15:01:14.907Z</time></trkpt><trkpt lat="43.2733895" lon="11.5440665"><ele>234.66666666666666</ele><time>2026-04-04T15:01:15.907Z</time></trkpt><trkpt lat="43.273322" lon="11.5441838"><ele>236.0</ele><time>2026-04-04T15:01:17.906Z</time></trkpt><trkpt lat="43.2732738" lon="11.544285"><ele>237.33333333333331</ele><time>2026-04-04T15:01:19.91Z</time></trkpt><trkpt lat="43.2732293" lon="11.5443877"><ele>238.66666666666666</ele><time>2026-04-04T15:01:21.908Z</time></trkpt><trkpt lat="43.2731961" lon="11.5444997"><ele>240.0</ele><time>2026-04-04T15:01:23.902Z</time></trkpt><trkpt lat="43.2731719" lon="11.5446348"><ele>241.0</ele><time>2026-04-04T15:01:25.908Z</time></trkpt><trkpt lat="43.2731681" lon="11.5448092"><ele>242.0</ele><time>2026-04-04T15:01:27.916Z</time></trkpt><trkpt lat="43.273165" lon="11.5449046"><ele>243.0</ele><time>2026-04-04T15:01:28.904Z</time></trkpt><trkpt lat="43.273156" lon="11.5450054"><ele>244.0</ele><time>2026-04-04T15:01:29.91Z</time></trkpt><trkpt lat="43.2731502" lon="11.5451228"><ele>245.0</ele><time>2026-04-04T15:01:30.915Z</time></trkpt><trkpt lat="43.2731461" lon="11.5452514"><ele>246.75</ele><time>2026-04-04T15:01:31.9Z</time></trkpt><trkpt lat="43.2731492" lon="11.5453996"><ele>248.5</ele><time>2026-04-04T15:01:32.904Z</time></trkpt><trkpt lat="43.2731571" lon="11.5455646"><ele>250.25</ele><time>2026-04-04T15:01:33.903Z</time></trkpt><trkpt lat="43.2731681" lon="11.545746"><ele>252.0</ele><time>2026-04-04T15:01:34.902Z</time></trkpt><trkpt lat="43.2731914" lon="11.5459342"><ele>252.0</ele><time>2026-04-04T15:01:35.899Z</time></trkpt><trkpt lat="43.2732311" lon="11.5461186"><ele>252.0</ele><time>2026-04-04T15:01:36.916Z</time></trkpt><trkpt lat="43.2732854" lon="11.5463059"><ele>252.0</ele><time>2026-04-04T15:01:37.903Z</time></trkpt><trkpt lat="43.2733456" lon="11.5464831"><ele>252.0</ele><time>2026-04-04T15:01:38.913Z</time></trkpt><trkpt lat="43.2734066" lon="11.5466349"><ele>253.8</ele><time>2026-04-04T15:01:39.904Z</time></trkpt><trkpt lat="43.2734708" lon="11.5467652"><ele>255.6</ele><time>2026-04-04T15:01:40.908Z</time></trkpt><trkpt lat="43.2735473" lon="11.5468754"><ele>257.40000000000003</ele><time>2026-04-04T15:01:41.915Z</time></trkpt><trkpt lat="43.2736402" lon="11.5469649"><ele>259.2</ele><time>2026-04-04T15:01:42.904Z</time></trkpt><trkpt lat="43.2737333" lon="11.5470238"><ele>261.0</ele><time>2026-04-04T15:01:43.912Z</time></trkpt><trkpt lat="43.27384" lon="11.5470689"><ele>265.5</ele><time>2026-04-04T15:01:44.908Z</time></trkpt><trkpt lat="43.2739512" lon="11.547095"><ele>270.0</ele><time>2026-04-04T15:01:45.901Z</time></trkpt><trkpt lat="43.2740659" lon="11.5470957"><ele>274.5</ele><time>2026-04-04T15:01:46.898Z</time></trkpt><trkpt lat="43.2741788" lon="11.5470823"><ele>279.0</ele><time>2026-04-04T15:01:47.911Z</time></trkpt><trkpt lat="43.2742915" lon="11.5470691"><ele>279.0</ele><time>2026-04-04T15:01:48.905Z</time></trkpt><trkpt lat="43.2743946" lon="11.5470564"><ele>279.0</ele><time>2026-04-04T15:01:49.904Z</time></trkpt><trkpt lat="43.2744968" lon="11.5470496"><ele>279.0</ele><time>2026-04-04T15:01:50.901Z</time></trkpt><trkpt lat="43.2745893" lon="11.5470588"><ele>279.0</ele><time>2026-04-04T15:01:51.91Z</time></trkpt><trkpt lat="43.274666" lon="11.5470872"><ele>279.0</ele><time>2026-04-04T15:01:52.9Z</time></trkpt><trkpt lat="43.2747425" lon="11.5471339"><ele>280.4</ele><time>2026-04-04T15:01:53.915Z</time></trkpt><trkpt lat="43.2748165" lon="11.5472023"><ele>281.79999999999995</ele><time>2026-04-04T15:01:54.903Z</time></trkpt><trkpt lat="43.2748965" lon="11.5472805"><ele>283.20000000000005</ele><time>2026-04-04T15:01:55.902Z</time></trkpt><trkpt lat="43.2749888" lon="11.5473506"><ele>284.6</ele><time>2026-04-04T15:01:56.903Z</time></trkpt><trkpt lat="43.2750801" lon="11.5474343"><ele>286.0</ele><time>2026-04-04T15:01:57.906Z</time></trkpt><trkpt lat="43.2751841" lon="11.547536"><ele>286.0</ele><time>2026-04-04T15:01:58.902Z</time></trkpt><trkpt lat="43.2753027" lon="11.5476326"><ele>286.0</ele><time>2026-04-04T15:01:59.912Z</time></trkpt><trkpt lat="43.2754164" lon="11.5477312"><ele>286.0</ele><time>2026-04-04T15:02:00.911Z</time></trkpt><trkpt lat="43.2755184" lon="11.5478144"><ele>286.0</ele><time>2026-04-04T15:02:01.899Z</time></trkpt><trkpt lat="43.2756191" lon="11.5478886"><ele>289.0</ele><time>2026-04-04T15:02:02.913Z</time></trkpt><trkpt lat="43.2757209" lon="11.5479467"><ele>292.0</ele><time>2026-04-04T15:02:03.914Z</time></trkpt><trkpt lat="43.2758243" lon="11.548001"><ele>295.0</ele><time>2026-04-04T15:02:04.908Z</time></trkpt><trkpt lat="43.2759311" lon="11.5480432"><ele>298.0</ele><time>2026-04-04T15:02:05.914Z</time></trkpt><trkpt lat="43.2760362" lon="11.5480795"><ele>301.0</ele><time>2026-04-04T15:02:06.909Z</time></trkpt><trkpt lat="43.276139" lon="11.5481178"><ele>301.0</ele><time>2026-04-04T15:02:07.916Z</time></trkpt><trkpt lat="43.2762433" lon="11.5481589"><ele>301.0</ele><time>2026-04-04T15:02:08.9Z</time></trkpt><trkpt lat="43.2763389" lon="11.5481996"><ele>301.0</ele><time>2026-04-04T15:02:09.9Z</time></trkpt><trkpt lat="43.27643" lon="11.5482401"><ele>301.0</ele><time>2026-04-04T15:02:10.909Z</time></trkpt><trkpt lat="43.2765233" lon="11.5482849"><ele>301.0</ele><time>2026-04-04T15:02:11.91Z</time></trkpt><trkpt lat="43.2766168" lon="11.5483424"><ele>299.25</ele><time>2026-04-04T15:02:12.901Z</time></trkpt><trkpt lat="43.2767179" lon="11.5484084"><ele>297.5</ele><time>2026-04-04T15:02:13.899Z</time></trkpt><trkpt lat="43.2768173" lon="11.548492"><ele>295.75</ele><time>2026-04-04T15:02:14.902Z</time></trkpt><trkpt lat="43.2769149" lon="11.5485918"><ele>294.0</ele><time>2026-04-04T15:02:15.902Z</time></trkpt><trkpt lat="43.2770185" lon="11.5486905"><ele>292.75</ele><time>2026-04-04T15:02:16.899Z</time></trkpt><trkpt lat="43.2771188" lon="11.5487947"><ele>291.5</ele><time>2026-04-04T15:02:17.911Z</time></trkpt><trkpt lat="43.2772184" lon="11.5488889"><ele>290.25</ele><time>2026-04-04T15:02:18.905Z</time></trkpt><trkpt lat="43.2773152" lon="11.5489705"><ele>289.0</ele><time>2026-04-04T15:02:19.912Z</time></trkpt><trkpt lat="43.2774054" lon="11.5490464"><ele>289.0</ele><time>2026-04-04T15:02:20.905Z</time></trkpt><trkpt lat="43.2774946" lon="11.5491138"><ele>289.0</ele><time>2026-04-04T15:02:21.908Z</time></trkpt><trkpt lat="43.2775838" lon="11.5491852"><ele>289.0</ele><time>2026-04-04T15:02:22.898Z</time></trkpt><trkpt lat="43.2776713" lon="11.5492559"><ele>289.0</ele><time>2026-04-04T15:02:23.913Z</time></trkpt><trkpt lat="43.2777678" lon="11.5493196"><ele>289.0</ele><time>2026-04-04T15:02:24.907Z</time></trkpt><trkpt lat="43.2778674" lon="11.5493665"><ele>289.0</ele><time>2026-04-04T15:02:25.905Z</time></trkpt><trkpt lat="43.2779701" lon="11.5493925"><ele>289.0</ele><time>2026-04-04T15:02:26.907Z</time></trkpt><trkpt lat="43.2780749" lon="11.5494021"><ele>289.0</ele><time>2026-04-04T15:02:27.908Z</time></trkpt><trkpt lat="43.2781826" lon="11.5494079"><ele>289.0</ele><time>2026-04-04T15:02:28.897Z</time></trkpt><trkpt lat="43.2782905" lon="11.5494157"><ele>289.0</ele><time>2026-04-04T15:02:29.894Z</time></trkpt><trkpt lat="43.2784119" lon="11.5494157"><ele>285.25</ele><time>2026-04-04T15:02:30.905Z</time></trkpt><trkpt lat="43.278535" lon="11.5494244"><ele>281.5</ele><time>2026-04-04T15:02:31.908Z</time></trkpt><trkpt lat="43.2786564" lon="11.5494276"><ele>277.75</ele><time>2026-04-04T15:02:32.903Z</time></trkpt><trkpt lat="43.2787707" lon="11.5494416"><ele>274.0</ele><time>2026-04-04T15:02:33.901Z</time></trkpt><trkpt lat="43.2788741" lon="11.5494713"><ele>273.59999999999997</ele><time>2026-04-04T15:02:34.907Z</time></trkpt><trkpt lat="43.2789781" lon="11.5495194"><ele>273.2</ele><time>2026-04-04T15:02:35.905Z</time></trkpt><trkpt lat="43.2790775" lon="11.5495916"><ele>272.79999999999995</ele><time>2026-04-04T15:02:36.908Z</time></trkpt><trkpt lat="43.2791813" lon="11.5496616"><ele>272.4</ele><time>2026-04-04T15:02:37.898Z</time></trkpt><trkpt lat="43.2792792" lon="11.5497291"><ele>272.0</ele><time>2026-04-04T15:02:38.908Z</time></trkpt><trkpt lat="43.2793845" lon="11.5497878"><ele>272.0</ele><time>2026-04-04T15:02:39.905Z</time></trkpt><trkpt lat="43.2794932" lon="11.5498439"><ele>272.0</ele><time>2026-04-04T15:02:40.904Z</time></trkpt><trkpt lat="43.2796058" lon="11.5498832"><ele>272.0</ele><time>2026-04-04T15:02:41.902Z</time></trkpt><trkpt lat="43.2797163" lon="11.5498974"><ele>272.0</ele><time>2026-04-04T15:02:42.908Z</time></trkpt><trkpt lat="43.2798273" lon="11.5498925"><ele>271.25</ele><time>2026-04-04T15:02:43.904Z</time></trkpt><trkpt lat="43.2799424" lon="11.5498721"><ele>270.5</ele><time>2026-04-04T15:02:44.908Z</time></trkpt><trkpt lat="43.2800626" lon="11.5498418"><ele>269.75</ele><time>2026-04-04T15:02:45.908Z</time></trkpt><trkpt lat="43.2801833" lon="11.5497932"><ele>269.0</ele><time>2026-04-04T15:02:46.907Z</time></trkpt><trkpt lat="43.2803023" lon="11.5497208"><ele>269.0</ele><time>2026-04-04T15:02:47.899Z</time></trkpt><trkpt lat="43.2804164" lon="11.5496419"><ele>269.0</ele><time>2026-04-04T15:02:48.905Z</time></trkpt><trkpt lat="43.2805208" lon="11.5495605"><ele>269.0</ele><time>2026-04-04T15:02:49.899Z</time></trkpt><trkpt lat="43.2806231" lon="11.5494581"><ele>269.0</ele><time>2026-04-04T15:02:50.899Z</time></trkpt><trkpt lat="43.2807133" lon="11.5493534"><ele>271.4</ele><time>2026-04-04T15:02:51.91Z</time></trkpt><trkpt lat="43.2807922" lon="11.5492326"><ele>273.79999999999995</ele><time>2026-04-04T15:02:52.898Z</time></trkpt><trkpt lat="43.2808577" lon="11.5491171"><ele>276.20000000000005</ele><time>2026-04-04T15:02:53.904Z</time></trkpt><trkpt lat="43.2809125" lon="11.5490173"><ele>278.6</ele><time>2026-04-04T15:02:54.905Z</time></trkpt><trkpt lat="43.2809638" lon="11.5489251"><ele>281.0</ele><time>2026-04-04T15:02:55.903Z</time></trkpt><trkpt lat="43.2810284" lon="11.5488319"><ele>281.0</ele><time>2026-04-04T15:02:56.898Z</time></trkpt><trkpt lat="43.2810924" lon="11.5487468"><ele>281.0</ele><time>2026-04-04T15:02:57.902Z</time></trkpt><trkpt lat="43.2811608" lon="11.5486632"><ele>281.0</ele><time>2026-04-04T15:02:58.919Z</time></trkpt><trkpt lat="43.281239" lon="11.5485791"><ele>281.0</ele><time>2026-04-04T15:02:59.899Z</time></trkpt><trkpt lat="43.281319" lon="11.5485049"><ele>281.0</ele><time>2026-04-04T15:03:00.913Z</time></trkpt><trkpt lat="43.2814004" lon="11.54843"><ele>285.0</ele><time>2026-04-04T15:03:01.899Z</time></trkpt><trkpt lat="43.2814775" lon="11.5483518"><ele>289.0</ele><time>2026-04-04T15:03:02.896Z</time></trkpt><trkpt lat="43.2815562" lon="11.5482755"><ele>293.0</ele><time>2026-04-04T15:03:03.9Z</time></trkpt><trkpt lat="43.2816301" lon="11.5481969"><ele>297.0</ele><time>2026-04-04T15:03:04.909Z</time></trkpt><trkpt lat="43.2817093" lon="11.5481373"><ele>301.0</ele><time>2026-04-04T15:03:05.9Z</time></trkpt><trkpt lat="43.2817948" lon="11.548091"><ele>301.0</ele><time>2026-04-04T15:03:06.909Z</time></trkpt><trkpt lat="43.2818813" lon="11.548063"><ele>301.0</ele><time>2026-04-04T15:03:07.901Z</time></trkpt><trkpt lat="43.2819673" lon="11.5480583"><ele>301.0</ele><time>2026-04-04T15:03:08.907Z</time></trkpt><trkpt lat="43.2820447" lon="11.5480694"><ele>301.0</ele><time>2026-04-04T15:03:09.905Z</time></trkpt><trkpt lat="43.2821172" lon="11.548081"><ele>301.0</ele><time>2026-04-04T15:03:10.897Z</time></trkpt><trkpt lat="43.2821973" lon="11.5480936"><ele>301.0</ele><time>2026-04-04T15:03:11.899Z</time></trkpt><trkpt lat="43.2822751" lon="11.5480995"><ele>302.16666666666663</ele><time>2026-04-04T15:03:12.896Z</time></trkpt><trkpt lat="43.2823632" lon="11.5481072"><ele>303.3333333333333</ele><time>2026-04-04T15:03:13.902Z</time></trkpt><trkpt lat="43.2824511" lon="11.5481176"><ele>304.5</ele><time>2026-04-04T15:03:14.901Z</time></trkpt><trkpt lat="43.2825423" lon="11.5481302"><ele>305.6666666666667</ele><time>2026-04-04T15:03:15.906Z</time></trkpt><trkpt lat="43.2826273" lon="11.5481479"><ele>306.83333333333337</ele><time>2026-04-04T15:03:16.905Z</time></trkpt><trkpt lat="43.282708" lon="11.5481643"><ele>308.0</ele><time>2026-04-04T15:03:17.897Z</time></trkpt><trkpt lat="43.2827836" lon="11.5481865"><ele>308.0</ele><time>2026-04-04T15:03:18.899Z</time></trkpt><trkpt lat="43.2828652" lon="11.5482191"><ele>308.0</ele><time>2026-04-04T15:03:19.901Z</time></trkpt><trkpt lat="43.2829349" lon="11.5482546"><ele>308.0</ele><time>2026-04-04T15:03:20.907Z</time></trkpt><trkpt lat="43.283008" lon="11.5483004"><ele>308.0</ele><time>2026-04-04T15:03:21.911Z</time></trkpt><trkpt lat="43.2830831" lon="11.5483577"><ele>308.0</ele><time>2026-04-04T15:03:22.904Z</time></trkpt><trkpt lat="43.2831546" lon="11.5484282"><ele>308.0</ele><time>2026-04-04T15:03:23.894Z</time></trkpt><trkpt lat="43.2832353" lon="11.5485016"><ele>309.6</ele><time>2026-04-04T15:03:24.902Z</time></trkpt><trkpt lat="43.283317" lon="11.5485823"><ele>311.20000000000005</ele><time>2026-04-04T15:03:25.908Z</time></trkpt><trkpt lat="43.2834085" lon="11.5486522"><ele>312.8</ele><time>2026-04-04T15:03:26.906Z</time></trkpt><trkpt lat="43.2835028" lon="11.5487068"><ele>314.40000000000003</ele><time>2026-04-04T15:03:27.9Z</time></trkpt><trkpt lat="43.2836059" lon="11.5487516"><ele>316.0</ele><time>2026-04-04T15:03:28.909Z</time></trkpt><trkpt lat="43.2837195" lon="11.5487782"><ele>316.0</ele><time>2026-04-04T15:03:29.896Z</time></trkpt><trkpt lat="43.2838325" lon="11.5487951"><ele>316.0</ele><time>2026-04-04T15:03:30.899Z</time></trkpt><trkpt lat="43.2839406" lon="11.5488025"><ele>316.0</ele><time>2026-04-04T15:03:31.896Z</time></trkpt><trkpt lat="43.2840395" lon="11.5488005"><ele>316.0</ele><time>2026-04-04T15:03:32.9Z</time></trkpt><trkpt lat="43.2841252" lon="11.5487772"><ele>316.0</ele><time>2026-04-04T15:03:33.904Z</time></trkpt><trkpt lat="43.2842103" lon="11.5487248"><ele>311.8</ele><time>2026-04-04T15:03:34.905Z</time></trkpt><trkpt lat="43.284292" lon="11.5486429"><ele>307.6</ele><time>2026-04-04T15:03:35.903Z</time></trkpt><trkpt lat="43.2843562" lon="11.5485377"><ele>303.4</ele><time>2026-04-04T15:03:36.903Z</time></trkpt><trkpt lat="43.2844167" lon="11.548412"><ele>299.2</ele><time>2026-04-04T15:03:37.899Z</time></trkpt><trkpt lat="43.2844776" lon="11.5482621"><ele>295.0</ele><time>2026-04-04T15:03:38.899Z</time></trkpt><trkpt lat="43.2845417" lon="11.5481036"><ele>295.0</ele><time>2026-04-04T15:03:39.901Z</time></trkpt><trkpt lat="43.2846015" lon="11.547939"><ele>295.0</ele><time>2026-04-04T15:03:40.899Z</time></trkpt><trkpt lat="43.2846618" lon="11.5477767"><ele>295.0</ele><time>2026-04-04T15:03:41.904Z</time></trkpt><trkpt lat="43.2847032" lon="11.5476304"><ele>295.0</ele><time>2026-04-04T15:03:42.902Z</time></trkpt><trkpt lat="43.2847296" lon="11.5474799"><ele>293.0</ele><time>2026-04-04T15:03:43.895Z</time></trkpt><trkpt lat="43.2847475" lon="11.5473285"><ele>291.0</ele><time>2026-04-04T15:03:44.891Z</time></trkpt><trkpt lat="43.2847607" lon="11.5471772"><ele>289.0</ele><time>2026-04-04T15:03:45.903Z</time></trkpt><trkpt lat="43.284777" lon="11.5470364"><ele>287.0</ele><time>2026-04-04T15:03:46.9Z</time></trkpt><trkpt lat="43.2848202" lon="11.5469118"><ele>285.0</ele><time>2026-04-04T15:03:47.896Z</time></trkpt><trkpt lat="43.2848814" lon="11.5468155"><ele>290.0</ele><time>2026-04-04T15:03:48.906Z</time></trkpt><trkpt lat="43.2849515" lon="11.5467258"><ele>295.0</ele><time>2026-04-04T15:03:49.895Z</time></trkpt><trkpt lat="43.2850229" lon="11.5466556"><ele>300.0</ele><time>2026-04-04T15:03:50.902Z</time></trkpt><trkpt lat="43.2850963" lon="11.5465847"><ele>305.0</ele><time>2026-04-04T15:03:51.896Z</time></trkpt><trkpt lat="43.2851782" lon="11.5465327"><ele>310.0</ele><time>2026-04-04T15:03:52.902Z</time></trkpt><trkpt lat="43.2852669" lon="11.5464822"><ele>310.0</ele><time>2026-04-04T15:03:53.889Z</time></trkpt><trkpt lat="43.2853634" lon="11.5464333"><ele>310.0</ele><time>2026-04-04T15:03:54.893Z</time></trkpt><trkpt lat="43.2854677" lon="11.5463929"><ele>310.0</ele><time>2026-04-04T15:03:55.899Z</time></trkpt><trkpt lat="43.2855686" lon="11.546355"><ele>310.0</ele><time>2026-04-04T15:03:56.916Z</time></trkpt><trkpt lat="43.285668" lon="11.546308"><ele>310.0</ele><time>2026-04-04T15:03:57.897Z</time></trkpt><trkpt lat="43.2857701" lon="11.5462399"><ele>310.8</ele><time>2026-04-04T15:03:58.893Z</time></trkpt><trkpt lat="43.2858652" lon="11.5461636"><ele>311.6</ele><time>2026-04-04T15:03:59.905Z</time></trkpt><trkpt lat="43.285957" lon="11.5460799"><ele>312.4</ele><time>2026-04-04T15:04:00.895Z</time></trkpt><trkpt lat="43.2860466" lon="11.5459915"><ele>313.2</ele><time>2026-04-04T15:04:01.898Z</time></trkpt><trkpt lat="43.286135" lon="11.5459269"><ele>314.0</ele><time>2026-04-04T15:04:02.895Z</time></trkpt><trkpt lat="43.2862299" lon="11.5458716"><ele>314.0</ele><time>2026-04-04T15:04:03.894Z</time></trkpt><trkpt lat="43.2863199" lon="11.5458601"><ele>314.0</ele><time>2026-04-04T15:04:04.899Z</time></trkpt><trkpt lat="43.2864132" lon="11.5458705"><ele>314.0</ele><time>2026-04-04T15:04:05.899Z</time></trkpt><trkpt lat="43.2865024" lon="11.545907"><ele>314.0</ele><time>2026-04-04T15:04:06.895Z</time></trkpt><trkpt lat="43.2865864" lon="11.5459586"><ele>314.0</ele><time>2026-04-04T15:04:07.906Z</time></trkpt><trkpt lat="43.286662" lon="11.5460174"><ele>313.6666666666667</ele><time>2026-04-04T15:04:08.899Z</time></trkpt><trkpt lat="43.2867347" lon="11.5460741"><ele>313.33333333333337</ele><time>2026-04-04T15:04:09.9Z</time></trkpt><trkpt lat="43.2868111" lon="11.5461068"><ele>313.0</ele><time>2026-04-04T15:04:10.899Z</time></trkpt><trkpt lat="43.2868945" lon="11.5461234"><ele>312.6666666666667</ele><time>2026-04-04T15:04:11.896Z</time></trkpt><trkpt lat="43.286984" lon="11.5461102"><ele>312.3333333333333</ele><time>2026-04-04T15:04:12.899Z</time></trkpt><trkpt lat="43.2870702" lon="11.5460809"><ele>312.0</ele><time>2026-04-04T15:04:13.896Z</time></trkpt><trkpt lat="43.287144" lon="11.5460285"><ele>312.0</ele><time>2026-04-04T15:04:14.903Z</time></trkpt><trkpt lat="43.2872046" lon="11.5459628"><ele>312.0</ele><time>2026-04-04T15:04:15.896Z</time></trkpt><trkpt lat="43.2872425" lon="11.5458751"><ele>312.0</ele><time>2026-04-04T15:04:16.896Z</time></trkpt><trkpt lat="43.2872685" lon="11.5457679"><ele>312.0</ele><time>2026-04-04T15:04:17.899Z</time></trkpt><trkpt lat="43.2872964" lon="11.5456579"><ele>312.0</ele><time>2026-04-04T15:04:18.899Z</time></trkpt><trkpt lat="43.2873259" lon="11.545518"><ele>312.0</ele><time>2026-04-04T15:04:19.912Z</time></trkpt><trkpt lat="43.2873577" lon="11.5453549"><ele>309.25</ele><time>2026-04-04T15:04:20.907Z</time></trkpt><trkpt lat="43.2873751" lon="11.5451847"><ele>306.5</ele><time>2026-04-04T15:04:21.91Z</time></trkpt><trkpt lat="43.2873822" lon="11.5449985"><ele>303.75</ele><time>2026-04-04T15:04:22.899Z</time></trkpt><trkpt lat="43.2873925" lon="11.5448045"><ele>301.0</ele><time>2026-04-04T15:04:23.901Z</time></trkpt><trkpt lat="43.287421" lon="11.544608"><ele>300.5</ele><time>2026-04-04T15:04:24.905Z</time></trkpt><trkpt lat="43.2874609" lon="11.544429"><ele>300.0</ele><time>2026-04-04T15:04:25.906Z</time></trkpt><trkpt lat="43.2875113" lon="11.5442687"><ele>299.5</ele><time>2026-04-04T15:04:26.909Z</time></trkpt><trkpt lat="43.2875581" lon="11.5441279"><ele>299.0</ele><time>2026-04-04T15:04:27.896Z</time></trkpt><trkpt lat="43.2875976" lon="11.543996"><ele>299.0</ele><time>2026-04-04T15:04:28.898Z</time></trkpt><trkpt lat="43.2876258" lon="11.5438491"><ele>299.0</ele><time>2026-04-04T15:04:29.901Z</time></trkpt><trkpt lat="43.2876346" lon="11.5436917"><ele>299.0</ele><time>2026-04-04T15:04:30.9Z</time></trkpt><trkpt lat="43.2876304" lon="11.5435172"><ele>299.0</ele><time>2026-04-04T15:04:31.901Z</time></trkpt><trkpt lat="43.287634" lon="11.5433337"><ele>297.75</ele><time>2026-04-04T15:04:32.901Z</time></trkpt><trkpt lat="43.2876618" lon="11.543139"><ele>296.5</ele><time>2026-04-04T15:04:33.901Z</time></trkpt><trkpt lat="43.2877058" lon="11.5429522"><ele>295.25</ele><time>2026-04-04T15:04:34.903Z</time></trkpt><trkpt lat="43.2877549" lon="11.5427853"><ele>294.0</ele><time>2026-04-04T15:04:35.912Z</time></trkpt><trkpt lat="43.2878005" lon="11.5426341"><ele>291.0</ele><time>2026-04-04T15:04:36.906Z</time></trkpt><trkpt lat="43.2878581" lon="11.5424967"><ele>288.0</ele><time>2026-04-04T15:04:37.907Z</time></trkpt><trkpt lat="43.2879301" lon="11.5423601"><ele>285.0</ele><time>2026-04-04T15:04:38.9Z</time></trkpt><trkpt lat="43.2880093" lon="11.5422279"><ele>282.0</ele><time>2026-04-04T15:04:39.9Z</time></trkpt><trkpt lat="43.2880897" lon="11.542091"><ele>287.0</ele><time>2026-04-04T15:04:40.905Z</time></trkpt><trkpt lat="43.2881599" lon="11.5419386"><ele>292.0</ele><time>2026-04-04T15:04:41.896Z</time></trkpt><trkpt lat="43.288214" lon="11.5417914"><ele>297.0</ele><time>2026-04-04T15:04:42.898Z</time></trkpt><trkpt lat="43.2882616" lon="11.5416499"><ele>302.0</ele><time>2026-04-04T15:04:43.904Z</time></trkpt><trkpt lat="43.2883106" lon="11.541529"><ele>302.0</ele><time>2026-04-04T15:04:44.905Z</time></trkpt><trkpt lat="43.2883744" lon="11.5414305"><ele>302.0</ele><time>2026-04-04T15:04:45.912Z</time></trkpt><trkpt lat="43.2884572" lon="11.5413542"><ele>302.0</ele><time>2026-04-04T15:04:46.904Z</time></trkpt><trkpt lat="43.2885496" lon="11.5412848"><ele>302.0</ele><time>2026-04-04T15:04:47.901Z</time></trkpt><trkpt lat="43.2886622" lon="11.5412333"><ele>302.0</ele><time>2026-04-04T15:04:48.917Z</time></trkpt><trkpt lat="43.2887885" lon="11.5411948"><ele>302.0</ele><time>2026-04-04T15:04:49.902Z</time></trkpt><trkpt lat="43.2889202" lon="11.5411529"><ele>302.0</ele><time>2026-04-04T15:04:50.901Z</time></trkpt><trkpt lat="43.2890477" lon="11.541112"><ele>302.0</ele><time>2026-04-04T15:04:51.9Z</time></trkpt><trkpt lat="43.2891562" lon="11.5410801"><ele>302.0</ele><time>2026-04-04T15:04:52.905Z</time></trkpt><trkpt lat="43.2892548" lon="11.5410541"><ele>302.0</ele><time>2026-04-04T15:04:53.909Z</time></trkpt><trkpt lat="43.2893461" lon="11.5410495"><ele>302.0</ele><time>2026-04-04T15:04:54.903Z</time></trkpt><trkpt lat="43.2894458" lon="11.5410758"><ele>302.0</ele><time>2026-04-04T15:04:55.9Z</time></trkpt><trkpt lat="43.2895503" lon="11.541111"><ele>302.0</ele><time>2026-04-04T15:04:56.904Z</time></trkpt><trkpt lat="43.2896633" lon="11.5411554"><ele>302.0</ele><time>2026-04-04T15:04:57.904Z</time></trkpt><trkpt lat="43.2897817" lon="11.5411757"><ele>302.0</ele><time>2026-04-04T15:04:58.903Z</time></trkpt><trkpt lat="43.2898978" lon="11.5411806"><ele>302.0</ele><time>2026-04-04T15:04:59.905Z</time></trkpt><trkpt lat="43.2900073" lon="11.5411683"><ele>302.0</ele><time>2026-04-04T15:05:00.904Z</time></trkpt><trkpt lat="43.2901038" lon="11.541159"><ele>302.0</ele><time>2026-04-04T15:05:01.897Z</time></trkpt><trkpt lat="43.2902118" lon="11.5411654"><ele>302.0</ele><time>2026-04-04T15:05:02.901Z</time></trkpt><trkpt lat="43.2903129" lon="11.5411756"><ele>302.0</ele><time>2026-04-04T15:05:03.911Z</time></trkpt><trkpt lat="43.290412" lon="11.5411925"><ele>302.0</ele><time>2026-04-04T15:05:04.903Z</time></trkpt><trkpt lat="43.2905046" lon="11.5412189"><ele>302.0</ele><time>2026-04-04T15:05:05.912Z</time></trkpt><trkpt lat="43.2905989" lon="11.5412564"><ele>302.0</ele><time>2026-04-04T15:05:06.905Z</time></trkpt><trkpt lat="43.2906972" lon="11.5413111"><ele>302.0</ele><time>2026-04-04T15:05:07.906Z</time></trkpt><trkpt lat="43.2908013" lon="11.5413488"><ele>302.4</ele><time>2026-04-04T15:05:08.906Z</time></trkpt><trkpt lat="43.2909048" lon="11.5413597"><ele>302.79999999999995</ele><time>2026-04-04T15:05:09.903Z</time></trkpt><trkpt lat="43.2909998" lon="11.54134"><ele>303.2</ele><time>2026-04-04T15:05:10.897Z</time></trkpt><trkpt lat="43.2910916" lon="11.5412811"><ele>303.59999999999997</ele><time>2026-04-04T15:05:11.905Z</time></trkpt><trkpt lat="43.2911711" lon="11.5412073"><ele>304.0</ele><time>2026-04-04T15:05:12.899Z</time></trkpt><trkpt lat="43.2912376" lon="11.5411157"><ele>304.0</ele><time>2026-04-04T15:05:13.897Z</time></trkpt><trkpt lat="43.2912934" lon="11.541011"><ele>304.0</ele><time>2026-04-04T15:05:14.911Z</time></trkpt><trkpt lat="43.2913352" lon="11.5409028"><ele>304.0</ele><time>2026-04-04T15:05:15.898Z</time></trkpt><trkpt lat="43.2913453" lon="11.5407789"><ele>304.0</ele><time>2026-04-04T15:05:16.915Z</time></trkpt><trkpt lat="43.2913344" lon="11.5406505"><ele>304.0</ele><time>2026-04-04T15:05:17.907Z</time></trkpt><trkpt lat="43.2913202" lon="11.5405068"><ele>303.59999999999997</ele><time>2026-04-04T15:05:18.897Z</time></trkpt><trkpt lat="43.2913093" lon="11.5403525"><ele>303.2</ele><time>2026-04-04T15:05:19.91Z</time></trkpt><trkpt lat="43.291313" lon="11.5401959"><ele>302.79999999999995</ele><time>2026-04-04T15:05:20.902Z</time></trkpt><trkpt lat="43.2913363" lon="11.5400505"><ele>302.4</ele><time>2026-04-04T15:05:21.911Z</time></trkpt><trkpt lat="43.2913806" lon="11.5399076"><ele>302.0</ele><time>2026-04-04T15:05:22.903Z</time></trkpt><trkpt lat="43.2914321" lon="11.539758"><ele>303.25</ele><time>2026-04-04T15:05:23.908Z</time></trkpt><trkpt lat="43.2914852" lon="11.5396017"><ele>304.5</ele><time>2026-04-04T15:05:24.913Z</time></trkpt><trkpt lat="43.2915456" lon="11.5394528"><ele>305.75</ele><time>2026-04-04T15:05:25.907Z</time></trkpt><trkpt lat="43.2916071" lon="11.5392988"><ele>307.0</ele><time>2026-04-04T15:05:26.902Z</time></trkpt><trkpt lat="43.291667" lon="11.5391432"><ele>308.66666666666663</ele><time>2026-04-04T15:05:27.911Z</time></trkpt><trkpt lat="43.2917227" lon="11.5390141"><ele>310.3333333333333</ele><time>2026-04-04T15:05:28.903Z</time></trkpt><trkpt lat="43.2917827" lon="11.5389148"><ele>312.0</ele><time>2026-04-04T15:05:29.904Z</time></trkpt><trkpt lat="43.2918439" lon="11.5388502"><ele>313.6666666666667</ele><time>2026-04-04T15:05:30.905Z</time></trkpt><trkpt lat="43.2919152" lon="11.538801"><ele>315.33333333333337</ele><time>2026-04-04T15:05:31.909Z</time></trkpt><trkpt lat="43.2919948" lon="11.5387792"><ele>317.0</ele><time>2026-04-04T15:05:32.9Z</time></trkpt><trkpt lat="43.2920877" lon="11.5387843"><ele>317.0</ele><time>2026-04-04T15:05:33.901Z</time></trkpt><trkpt lat="43.2921827" lon="11.5388074"><ele>317.0</ele><time>2026-04-04T15:05:34.898Z</time></trkpt><trkpt lat="43.2922703" lon="11.5388427"><ele>317.0</ele><time>2026-04-04T15:05:35.901Z</time></trkpt><trkpt lat="43.2923627" lon="11.5388809"><ele>317.0</ele><time>2026-04-04T15:05:36.903Z</time></trkpt><trkpt lat="43.2924564" lon="11.5389053"><ele>317.0</ele><time>2026-04-04T15:05:37.898Z</time></trkpt><trkpt lat="43.292543" lon="11.5389172"><ele>317.0</ele><time>2026-04-04T15:05:38.907Z</time></trkpt><trkpt lat="43.2926306" lon="11.5389101"><ele>317.0</ele><time>2026-04-04T15:05:39.902Z</time></trkpt><trkpt lat="43.2927124" lon="11.5388732"><ele>317.0</ele><time>2026-04-04T15:05:40.907Z</time></trkpt><trkpt lat="43.2927858" lon="11.5388109"><ele>317.0</ele><time>2026-04-04T15:05:41.91Z</time></trkpt><trkpt lat="43.2928626" lon="11.5387351"><ele>317.0</ele><time>2026-04-04T15:05:42.898Z</time></trkpt><trkpt lat="43.292942" lon="11.5386583"><ele>316.0</ele><time>2026-04-04T15:05:43.908Z</time></trkpt><trkpt lat="43.2930231" lon="11.5385791"><ele>315.0</ele><time>2026-04-04T15:05:44.908Z</time></trkpt><trkpt lat="43.29311" lon="11.5385015"><ele>314.0</ele><time>2026-04-04T15:05:45.902Z</time></trkpt><trkpt lat="43.2932014" lon="11.5384122"><ele>313.0</ele><time>2026-04-04T15:05:46.909Z</time></trkpt><trkpt lat="43.2932928" lon="11.5383208"><ele>312.0</ele><time>2026-04-04T15:05:47.899Z</time></trkpt><trkpt lat="43.2933899" lon="11.5382262"><ele>312.0</ele><time>2026-04-04T15:05:48.905Z</time></trkpt><trkpt lat="43.2934932" lon="11.5381367"><ele>312.0</ele><time>2026-04-04T15:05:49.922Z</time></trkpt><trkpt lat="43.2935931" lon="11.5380438"><ele>312.0</ele><time>2026-04-04T15:05:50.913Z</time></trkpt><trkpt lat="43.2936944" lon="11.53795"><ele>312.0</ele><time>2026-04-04T15:05:51.907Z</time></trkpt><trkpt lat="43.293794" lon="11.5378634"><ele>312.25</ele><time>2026-04-04T15:05:52.902Z</time></trkpt><trkpt lat="43.2938895" lon="11.5377719"><ele>312.5</ele><time>2026-04-04T15:05:53.92Z</time></trkpt><trkpt lat="43.2939812" lon="11.5376797"><ele>312.75</ele><time>2026-04-04T15:05:54.908Z</time></trkpt><trkpt lat="43.2940691" lon="11.5375856"><ele>313.0</ele><time>2026-04-04T15:05:55.912Z</time></trkpt><trkpt lat="43.2941529" lon="11.5374917"><ele>313.0</ele><time>2026-04-04T15:05:56.908Z</time></trkpt><trkpt lat="43.294234" lon="11.5374032"><ele>313.0</ele><time>2026-04-04T15:05:57.904Z</time></trkpt><trkpt lat="43.294313" lon="11.5373016"><ele>313.0</ele><time>2026-04-04T15:05:58.902Z</time></trkpt><trkpt lat="43.2943945" lon="11.5372084"><ele>313.0</ele><time>2026-04-04T15:05:59.905Z</time></trkpt><trkpt lat="43.2944787" lon="11.5371242"><ele>313.0</ele><time>2026-04-04T15:06:00.895Z</time></trkpt><trkpt lat="43.2945634" lon="11.5370481"><ele>311.8</ele><time>2026-04-04T15:06:01.908Z</time></trkpt><trkpt lat="43.2946474" lon="11.5369854"><ele>310.6</ele><time>2026-04-04T15:06:02.897Z</time></trkpt><trkpt lat="43.2947351" lon="11.5369323"><ele>309.4</ele><time>2026-04-04T15:06:03.904Z</time></trkpt><trkpt lat="43.2948207" lon="11.5368825"><ele>308.2</ele><time>2026-04-04T15:06:04.904Z</time></trkpt><trkpt lat="43.2949069" lon="11.5368316"><ele>307.0</ele><time>2026-04-04T15:06:05.897Z</time></trkpt><trkpt lat="43.294997" lon="11.5367891"><ele>307.0</ele><time>2026-04-04T15:06:06.905Z</time></trkpt><trkpt lat="43.2950901" lon="11.5367566"><ele>307.0</ele><time>2026-04-04T15:06:07.903Z</time></trkpt><trkpt lat="43.2951861" lon="11.5367353"><ele>307.0</ele><time>2026-04-04T15:06:08.9Z</time></trkpt><trkpt lat="43.2952796" lon="11.5367092"><ele>307.0</ele><time>2026-04-04T15:06:09.903Z</time></trkpt><trkpt lat="43.295361" lon="11.5366499"><ele>307.0</ele><time>2026-04-04T15:06:10.907Z</time></trkpt><trkpt lat="43.2954414" lon="11.5365636"><ele>307.0</ele><time>2026-04-04T15:06:11.899Z</time></trkpt><trkpt lat="43.2955136" lon="11.5364666"><ele>307.0</ele><time>2026-04-04T15:06:12.911Z</time></trkpt><trkpt lat="43.2955705" lon="11.5363505"><ele>307.0</ele><time>2026-04-04T15:06:13.907Z</time></trkpt><trkpt lat="43.2956266" lon="11.5362208"><ele>307.0</ele><time>2026-04-04T15:06:14.904Z</time></trkpt><trkpt lat="43.2956741" lon="11.5360922"><ele>307.0</ele><time>2026-04-04T15:06:15.9Z</time></trkpt><trkpt lat="43.2957227" lon="11.5359493"><ele>311.0</ele><time>2026-04-04T15:06:16.906Z</time></trkpt><trkpt lat="43.2957681" lon="11.5357998"><ele>315.0</ele><time>2026-04-04T15:06:17.908Z</time></trkpt><trkpt lat="43.2958054" lon="11.535658"><ele>319.0</ele><time>2026-04-04T15:06:18.921Z</time></trkpt><trkpt lat="43.2958221" lon="11.5355051"><ele>323.0</ele><time>2026-04-04T15:06:19.908Z</time></trkpt><trkpt lat="43.2958299" lon="11.5353477"><ele>323.79999999999995</ele><time>2026-04-04T15:06:20.902Z</time></trkpt><trkpt lat="43.2958407" lon="11.5351896"><ele>324.6</ele><time>2026-04-04T15:06:21.903Z</time></trkpt><trkpt lat="43.2958483" lon="11.5350441"><ele>325.4</ele><time>2026-04-04T15:06:22.905Z</time></trkpt><trkpt lat="43.2958474" lon="11.5349216"><ele>326.20000000000005</ele><time>2026-04-04T15:06:23.895Z</time></trkpt><trkpt lat="43.2958338" lon="11.5348085"><ele>327.0</ele><time>2026-04-04T15:06:24.898Z</time></trkpt><trkpt lat="43.2958031" lon="11.5347084"><ele>327.0</ele><time>2026-04-04T15:06:25.907Z</time></trkpt><trkpt lat="43.2957463" lon="11.5346354"><ele>327.0</ele><time>2026-04-04T15:06:26.901Z</time></trkpt><trkpt lat="43.2956759" lon="11.5345803"><ele>327.0</ele><time>2026-04-04T15:06:27.913Z</time></trkpt><trkpt lat="43.295589" lon="11.5345129"><ele>327.0</ele><time>2026-04-04T15:06:28.9Z</time></trkpt><trkpt lat="43.2954988" lon="11.5344398"><ele>327.0</ele><time>2026-04-04T15:06:29.916Z</time></trkpt><trkpt lat="43.2954031" lon="11.5343598"><ele>327.6</ele><time>2026-04-04T15:06:30.905Z</time></trkpt><trkpt lat="43.2953143" lon="11.5342808"><ele>328.20000000000005</ele><time>2026-04-04T15:06:31.901Z</time></trkpt><trkpt lat="43.2952444" lon="11.5341909"><ele>328.8</ele><time>2026-04-04T15:06:32.916Z</time></trkpt><trkpt lat="43.2951848" lon="11.5340952"><ele>329.4</ele><time>2026-04-04T15:06:33.899Z</time></trkpt><trkpt lat="43.2951186" lon="11.5340074"><ele>330.0</ele><time>2026-04-04T15:06:34.895Z</time></trkpt><trkpt lat="43.2950384" lon="11.5339347"><ele>330.0</ele><time>2026-04-04T15:06:35.909Z</time></trkpt><trkpt lat="43.294953" lon="11.5338812"><ele>330.0</ele><time>2026-04-04T15:06:36.902Z</time></trkpt><trkpt lat="43.2948658" lon="11.5338289"><ele>330.0</ele><time>2026-04-04T15:06:37.896Z</time></trkpt><trkpt lat="43.2947841" lon="11.5337844"><ele>330.0</ele><time>2026-04-04T15:06:38.902Z</time></trkpt><trkpt lat="43.2947015" lon="11.5337376"><ele>330.0</ele><time>2026-04-04T15:06:39.905Z</time></trkpt><trkpt lat="43.2946277" lon="11.5336864"><ele>330.0</ele><time>2026-04-04T15:06:40.906Z</time></trkpt><trkpt lat="43.2945623" lon="11.5336017"><ele>329.1666666666667</ele><time>2026-04-04T15:06:41.915Z</time></trkpt><trkpt lat="43.2945155" lon="11.533503"><ele>328.3333333333333</ele><time>2026-04-04T15:06:42.916Z</time></trkpt><trkpt lat="43.2944906" lon="11.5333976"><ele>327.5</ele><time>2026-04-04T15:06:43.905Z</time></trkpt><trkpt lat="43.2944774" lon="11.5332831"><ele>326.66666666666663</ele><time>2026-04-04T15:06:44.906Z</time></trkpt><trkpt lat="43.2944748" lon="11.5331602"><ele>325.8333333333333</ele><time>2026-04-04T15:06:45.901Z</time></trkpt><trkpt lat="43.2944706" lon="11.5330294"><ele>325.0</ele><time>2026-04-04T15:06:46.903Z</time></trkpt><trkpt lat="43.2944706" lon="11.5328878"><ele>325.0</ele><time>2026-04-04T15:06:47.903Z</time></trkpt><trkpt lat="43.2944662" lon="11.5327492"><ele>325.0</ele><time>2026-04-04T15:06:48.904Z</time></trkpt><trkpt lat="43.2944732" lon="11.532605"><ele>325.0</ele><time>2026-04-04T15:06:49.894Z</time></trkpt><trkpt lat="43.2944868" lon="11.5324664"><ele>325.0</ele><time>2026-04-04T15:06:50.898Z</time></trkpt><trkpt lat="43.2945103" lon="11.5323247"><ele>325.0</ele><time>2026-04-04T15:06:51.903Z</time></trkpt><trkpt lat="43.2945455" lon="11.5321888"><ele>325.4</ele><time>2026-04-04T15:06:52.904Z</time></trkpt><trkpt lat="43.2945904" lon="11.532049"><ele>325.8</ele><time>2026-04-04T15:06:53.905Z</time></trkpt><trkpt lat="43.2946352" lon="11.5319068"><ele>326.20000000000005</ele><time>2026-04-04T15:06:54.905Z</time></trkpt><trkpt lat="43.2946878" lon="11.5317692"><ele>326.6</ele><time>2026-04-04T15:06:55.907Z</time></trkpt><trkpt lat="43.2947476" lon="11.5316441"><ele>327.0</ele><time>2026-04-04T15:06:56.903Z</time></trkpt><trkpt lat="43.294811" lon="11.5315221"><ele>325.6</ele><time>2026-04-04T15:06:57.904Z</time></trkpt><trkpt lat="43.2948761" lon="11.53141"><ele>324.20000000000005</ele><time>2026-04-04T15:06:58.897Z</time></trkpt><trkpt lat="43.2949438" lon="11.5312954"><ele>322.8</ele><time>2026-04-04T15:06:59.903Z</time></trkpt><trkpt lat="43.29501" lon="11.5311814"><ele>321.4</ele><time>2026-04-04T15:07:00.904Z</time></trkpt><trkpt lat="43.2950835" lon="11.5310726"><ele>320.0</ele><time>2026-04-04T15:07:01.905Z</time></trkpt><trkpt lat="43.2951694" lon="11.5309726"><ele>320.0</ele><time>2026-04-04T15:07:02.91Z</time></trkpt><trkpt lat="43.2952617" lon="11.5308865"><ele>320.0</ele><time>2026-04-04T15:07:03.91Z</time></trkpt><trkpt lat="43.2953647" lon="11.5308091"><ele>320.0</ele><time>2026-04-04T15:07:04.905Z</time></trkpt><trkpt lat="43.2954708" lon="11.5307328"><ele>320.0</ele><time>2026-04-04T15:07:05.921Z</time></trkpt><trkpt lat="43.2955792" lon="11.530666"><ele>317.0</ele><time>2026-04-04T15:07:06.904Z</time></trkpt><trkpt lat="43.2956824" lon="11.5306034"><ele>314.0</ele><time>2026-04-04T15:07:07.899Z</time></trkpt><trkpt lat="43.2957819" lon="11.5305492"><ele>311.0</ele><time>2026-04-04T15:07:08.912Z</time></trkpt><trkpt lat="43.2958823" lon="11.5304992"><ele>308.0</ele><time>2026-04-04T15:07:09.909Z</time></trkpt><trkpt lat="43.2959866" lon="11.5304599"><ele>305.0</ele><time>2026-04-04T15:07:10.898Z</time></trkpt><trkpt lat="43.2960877" lon="11.5304199"><ele>305.6</ele><time>2026-04-04T15:07:11.902Z</time></trkpt><trkpt lat="43.2961855" lon="11.5303827"><ele>306.2</ele><time>2026-04-04T15:07:12.903Z</time></trkpt><trkpt lat="43.296281" lon="11.5303455"><ele>306.8</ele><time>2026-04-04T15:07:13.899Z</time></trkpt><trkpt lat="43.2963724" lon="11.5303051"><ele>307.4</ele><time>2026-04-04T15:07:14.899Z</time></trkpt><trkpt lat="43.2964537" lon="11.5302623"><ele>308.0</ele><time>2026-04-04T15:07:15.9Z</time></trkpt><trkpt lat="43.296527" lon="11.5302184"><ele>305.6</ele><time>2026-04-04T15:07:16.9Z</time></trkpt><trkpt lat="43.2965886" lon="11.5301687"><ele>303.20000000000005</ele><time>2026-04-04T15:07:17.906Z</time></trkpt><trkpt lat="43.2966469" lon="11.530031"><ele>300.8</ele><time>2026-04-04T15:07:19.907Z</time></trkpt><trkpt lat="43.296602" lon="11.5298678"><ele>298.40000000000003</ele><time>2026-04-04T15:07:21.9Z</time></trkpt><trkpt lat="43.2965474" lon="11.5298002"><ele>296.0</ele><time>2026-04-04T15:07:22.907Z</time></trkpt><trkpt lat="43.2964787" lon="11.5297456"><ele>298.40000000000003</ele><time>2026-04-04T15:07:23.905Z</time></trkpt><trkpt lat="43.2963943" lon="11.5296956"><ele>300.8</ele><time>2026-04-04T15:07:24.904Z</time></trkpt><trkpt lat="43.2962968" lon="11.5296579"><ele>303.20000000000005</ele><time>2026-04-04T15:07:25.898Z</time></trkpt><trkpt lat="43.2961914" lon="11.5296226"><ele>305.6</ele><time>2026-04-04T15:07:26.897Z</time></trkpt><trkpt lat="43.2960895" lon="11.5295918"><ele>308.0</ele><time>2026-04-04T15:07:27.899Z</time></trkpt><trkpt lat="43.2959895" lon="11.5295627"><ele>305.8</ele><time>2026-04-04T15:07:28.897Z</time></trkpt><trkpt lat="43.2958905" lon="11.5295143"><ele>303.6</ele><time>2026-04-04T15:07:29.903Z</time></trkpt><trkpt lat="43.2957945" lon="11.5294439"><ele>301.4</ele><time>2026-04-04T15:07:30.904Z</time></trkpt><trkpt lat="43.2956933" lon="11.529368"><ele>299.2</ele><time>2026-04-04T15:07:31.901Z</time></trkpt><trkpt lat="43.2955866" lon="11.5293076"><ele>297.0</ele><time>2026-04-04T15:07:32.902Z</time></trkpt><trkpt lat="43.2954891" lon="11.5292643"><ele>297.0</ele><time>2026-04-04T15:07:33.905Z</time></trkpt><trkpt lat="43.2954061" lon="11.529225"><ele>297.0</ele><time>2026-04-04T15:07:34.902Z</time></trkpt><trkpt lat="43.2953464" lon="11.5291803"><ele>297.0</ele><time>2026-04-04T15:07:35.893Z</time></trkpt><trkpt lat="43.2953062" lon="11.5290558"><ele>297.0</ele><time>2026-04-04T15:07:37.893Z</time></trkpt><trkpt lat="43.2953625" lon="11.5289155"><ele>297.0</ele><time>2026-04-04T15:07:39.899Z</time></trkpt><trkpt lat="43.2954154" lon="11.5288498"><ele>297.0</ele><time>2026-04-04T15:07:40.898Z</time></trkpt><trkpt lat="43.2954837" lon="11.5288055"><ele>297.0</ele><time>2026-04-04T15:07:41.895Z</time></trkpt><trkpt lat="43.2955524" lon="11.528756"><ele>297.0</ele><time>2026-04-04T15:07:42.909Z</time></trkpt><trkpt lat="43.2956305" lon="11.5287002"><ele>297.0</ele><time>2026-04-04T15:07:43.899Z</time></trkpt><trkpt lat="43.2957027" lon="11.5286328"><ele>297.0</ele><time>2026-04-04T15:07:44.907Z</time></trkpt><trkpt lat="43.2957689" lon="11.5285615"><ele>297.0</ele><time>2026-04-04T15:07:45.9Z</time></trkpt><trkpt lat="43.2958258" lon="11.5284795"><ele>297.0</ele><time>2026-04-04T15:07:46.901Z</time></trkpt><trkpt lat="43.2958697" lon="11.5283814"><ele>296.0</ele><time>2026-04-04T15:07:47.916Z</time></trkpt><trkpt lat="43.2959" lon="11.5282748"><ele>295.0</ele><time>2026-04-04T15:07:48.903Z</time></trkpt><trkpt lat="43.2959226" lon="11.5281554"><ele>294.0</ele><time>2026-04-04T15:07:49.902Z</time></trkpt><trkpt lat="43.2959373" lon="11.5280109"><ele>293.0</ele><time>2026-04-04T15:07:50.9Z</time></trkpt><trkpt lat="43.2959564" lon="11.5278602"><ele>292.0</ele><time>2026-04-04T15:07:51.907Z</time></trkpt><trkpt lat="43.2959771" lon="11.5277025"><ele>292.0</ele><time>2026-04-04T15:07:52.903Z</time></trkpt><trkpt lat="43.2959972" lon="11.5275445"><ele>292.0</ele><time>2026-04-04T15:07:53.902Z</time></trkpt><trkpt lat="43.2960194" lon="11.5273777"><ele>292.0</ele><time>2026-04-04T15:07:54.904Z</time></trkpt><trkpt lat="43.2960523" lon="11.5272237"><ele>292.0</ele><time>2026-04-04T15:07:55.907Z</time></trkpt><trkpt lat="43.2960964" lon="11.5270776"><ele>290.0</ele><time>2026-04-04T15:07:56.891Z</time></trkpt><trkpt lat="43.2961595" lon="11.5269362"><ele>288.0</ele><time>2026-04-04T15:07:57.904Z</time></trkpt><trkpt lat="43.2962406" lon="11.5267859"><ele>286.0</ele><time>2026-04-04T15:07:58.907Z</time></trkpt><trkpt lat="43.2963242" lon="11.5266264"><ele>284.0</ele><time>2026-04-04T15:07:59.902Z</time></trkpt><trkpt lat="43.2964164" lon="11.5264858"><ele>285.0</ele><time>2026-04-04T15:08:00.902Z</time></trkpt><trkpt lat="43.2965034" lon="11.5263625"><ele>286.0</ele><time>2026-04-04T15:08:01.903Z</time></trkpt><trkpt lat="43.2965832" lon="11.5262571"><ele>287.0</ele><time>2026-04-04T15:08:02.897Z</time></trkpt><trkpt lat="43.2966616" lon="11.5261652"><ele>288.0</ele><time>2026-04-04T15:08:03.899Z</time></trkpt><trkpt lat="43.296726" lon="11.5260651"><ele>289.0</ele><time>2026-04-04T15:08:04.902Z</time></trkpt><trkpt lat="43.2967632" lon="11.525954"><ele>289.0</ele><time>2026-04-04T15:08:05.903Z</time></trkpt><trkpt lat="43.2967755" lon="11.5258462"><ele>289.0</ele><time>2026-04-04T15:08:06.903Z</time></trkpt><trkpt lat="43.2967722" lon="11.5257362"><ele>289.0</ele><time>2026-04-04T15:08:07.899Z</time></trkpt><trkpt lat="43.2967585" lon="11.5256205"><ele>289.0</ele><time>2026-04-04T15:08:08.904Z</time></trkpt><trkpt lat="43.2967505" lon="11.5254856"><ele>289.0</ele><time>2026-04-04T15:08:09.9Z</time></trkpt><trkpt lat="43.2967477" lon="11.5253438"><ele>289.0</ele><time>2026-04-04T15:08:10.912Z</time></trkpt><trkpt lat="43.2967568" lon="11.5252046"><ele>289.59999999999997</ele><time>2026-04-04T15:08:11.899Z</time></trkpt><trkpt lat="43.2967625" lon="11.5250724"><ele>290.2</ele><time>2026-04-04T15:08:12.901Z</time></trkpt><trkpt lat="43.2967465" lon="11.5249478"><ele>290.79999999999995</ele><time>2026-04-04T15:08:13.903Z</time></trkpt><trkpt lat="43.2967156" lon="11.5248261"><ele>291.4</ele><time>2026-04-04T15:08:14.905Z</time></trkpt><trkpt lat="43.2966709" lon="11.524705"><ele>292.0</ele><time>2026-04-04T15:08:15.9Z</time></trkpt><trkpt lat="43.2966319" lon="11.5245854"><ele>294.0</ele><time>2026-04-04T15:08:16.899Z</time></trkpt><trkpt lat="43.2966034" lon="11.5244616"><ele>296.0</ele><time>2026-04-04T15:08:17.907Z</time></trkpt><trkpt lat="43.2965801" lon="11.5243275"><ele>298.0</ele><time>2026-04-04T15:08:18.899Z</time></trkpt><trkpt lat="43.2965649" lon="11.5241852"><ele>300.0</ele><time>2026-04-04T15:08:19.9Z</time></trkpt><trkpt lat="43.2965483" lon="11.5240436"><ele>302.0</ele><time>2026-04-04T15:08:20.907Z</time></trkpt><trkpt lat="43.2965292" lon="11.5239184"><ele>302.0</ele><time>2026-04-04T15:08:21.913Z</time></trkpt><trkpt lat="43.2965097" lon="11.523816"><ele>302.0</ele><time>2026-04-04T15:08:22.907Z</time></trkpt><trkpt lat="43.2964893" lon="11.5237318"><ele>302.0</ele><time>2026-04-04T15:08:23.896Z</time></trkpt><trkpt lat="43.2964553" lon="11.523579"><ele>302.0</ele><time>2026-04-04T15:08:25.9Z</time></trkpt><trkpt lat="43.2964411" lon="11.5234189"><ele>302.0</ele><time>2026-04-04T15:08:27.895Z</time></trkpt><trkpt lat="43.2964374" lon="11.523332"><ele>302.0</ele><time>2026-04-04T15:08:28.895Z</time></trkpt><trkpt lat="43.2964362" lon="11.5232261"><ele>302.6666666666667</ele><time>2026-04-04T15:08:29.889Z</time></trkpt><trkpt lat="43.2964309" lon="11.5231121"><ele>303.33333333333337</ele><time>2026-04-04T15:08:30.888Z</time></trkpt><trkpt lat="43.296428" lon="11.5229936"><ele>304.0</ele><time>2026-04-04T15:08:31.897Z</time></trkpt><trkpt lat="43.2964256" lon="11.5228717"><ele>304.6666666666667</ele><time>2026-04-04T15:08:32.892Z</time></trkpt><trkpt lat="43.2964389" lon="11.5227612"><ele>305.3333333333333</ele><time>2026-04-04T15:08:33.894Z</time></trkpt><trkpt lat="43.296462" lon="11.5226465"><ele>306.0</ele><time>2026-04-04T15:08:34.897Z</time></trkpt><trkpt lat="43.2964929" lon="11.5225404"><ele>306.0</ele><time>2026-04-04T15:08:35.895Z</time></trkpt><trkpt lat="43.2965403" lon="11.5224436"><ele>306.0</ele><time>2026-04-04T15:08:36.896Z</time></trkpt><trkpt lat="43.2965863" lon="11.5223696"><ele>306.0</ele><time>2026-04-04T15:08:37.89Z</time></trkpt><trkpt lat="43.2966312" lon="11.5223082"><ele>306.0</ele><time>2026-04-04T15:08:38.895Z</time></trkpt><trkpt lat="43.2966926" lon="11.5222064"><ele>306.0</ele><time>2026-04-04T15:08:40.893Z</time></trkpt><trkpt lat="43.2967055" lon="11.5221161"><ele>306.0</ele><time>2026-04-04T15:08:42.899Z</time></trkpt><trkpt lat="43.2967053" lon="11.5220009"><ele>304.3333333333333</ele><time>2026-04-04T15:08:44.897Z</time></trkpt><trkpt lat="43.2967117" lon="11.5218695"><ele>302.6666666666667</ele><time>2026-04-04T15:08:46.897Z</time></trkpt><trkpt lat="43.2967168" lon="11.5217452"><ele>301.0</ele><time>2026-04-04T15:08:48.893Z</time></trkpt><trkpt lat="43.2967238" lon="11.5216375"><ele>299.33333333333337</ele><time>2026-04-04T15:08:50.897Z</time></trkpt><trkpt lat="43.2967899" lon="11.521573"><ele>297.6666666666667</ele><time>2026-04-04T15:11:07.904Z</time></trkpt><trkpt lat="43.2968678" lon="11.5215224"><ele>296.0</ele><time>2026-04-04T15:11:09.897Z</time></trkpt><trkpt lat="43.2969328" lon="11.5214794"><ele>296.0</ele><time>2026-04-04T15:11:10.906Z</time></trkpt><trkpt lat="43.2970054" lon="11.5214371"><ele>296.0</ele><time>2026-04-04T15:11:11.906Z</time></trkpt><trkpt lat="43.2970807" lon="11.521391"><ele>296.0</ele><time>2026-04-04T15:11:12.902Z</time></trkpt><trkpt lat="43.2971603" lon="11.5213559"><ele>296.0</ele><time>2026-04-04T15:11:13.9Z</time></trkpt><trkpt lat="43.2972441" lon="11.5213296"><ele>296.0</ele><time>2026-04-04T15:11:14.895Z</time></trkpt><trkpt lat="43.2973307" lon="11.5213117"><ele>296.0</ele><time>2026-04-04T15:11:15.898Z</time></trkpt><trkpt lat="43.2974083" lon="11.5213111"><ele>297.33333333333337</ele><time>2026-04-04T15:11:16.901Z</time></trkpt><trkpt lat="43.2974831" lon="11.5213362"><ele>298.6666666666667</ele><time>2026-04-04T15:11:17.901Z</time></trkpt><trkpt lat="43.2975519" lon="11.5213704"><ele>300.0</ele><time>2026-04-04T15:11:18.896Z</time></trkpt><trkpt lat="43.2976185" lon="11.5214211"><ele>301.3333333333333</ele><time>2026-04-04T15:11:19.9Z</time></trkpt><trkpt lat="43.2976856" lon="11.5214782"><ele>302.66666666666663</ele><time>2026-04-04T15:11:20.903Z</time></trkpt><trkpt lat="43.2977534" lon="11.5215473"><ele>304.0</ele><time>2026-04-04T15:11:21.897Z</time></trkpt><trkpt lat="43.2978236" lon="11.5216188"><ele>304.0</ele><time>2026-04-04T15:11:22.896Z</time></trkpt><trkpt lat="43.297893" lon="11.5217117"><ele>304.0</ele><time>2026-04-04T15:11:23.903Z</time></trkpt><trkpt lat="43.2979642" lon="11.5218131"><ele>304.0</ele><time>2026-04-04T15:11:24.899Z</time></trkpt><trkpt lat="43.2980261" lon="11.5219223"><ele>304.0</ele><time>2026-04-04T15:11:25.95Z</time></trkpt><trkpt lat="43.2980782" lon="11.5220346"><ele>304.0</ele><time>2026-04-04T15:11:26.907Z</time></trkpt><trkpt lat="43.2981356" lon="11.5221409"><ele>304.16666666666663</ele><time>2026-04-04T15:11:27.901Z</time></trkpt><trkpt lat="43.2982045" lon="11.5222196"><ele>304.3333333333333</ele><time>2026-04-04T15:11:28.898Z</time></trkpt><trkpt lat="43.2982779" lon="11.5222648"><ele>304.5</ele><time>2026-04-04T15:11:29.904Z</time></trkpt><trkpt lat="43.2983589" lon="11.5222828"><ele>304.6666666666667</ele><time>2026-04-04T15:11:30.901Z</time></trkpt><trkpt lat="43.2984405" lon="11.5222638"><ele>304.83333333333337</ele><time>2026-04-04T15:11:31.903Z</time></trkpt><trkpt lat="43.2985277" lon="11.5222446"><ele>305.0</ele><time>2026-04-04T15:11:32.9Z</time></trkpt><trkpt lat="43.2986161" lon="11.5222411"><ele>305.0</ele><time>2026-04-04T15:11:33.903Z</time></trkpt><trkpt lat="43.2986963" lon="11.5222794"><ele>305.0</ele><time>2026-04-04T15:11:34.898Z</time></trkpt><trkpt lat="43.2987749" lon="11.5223454"><ele>305.0</ele><time>2026-04-04T15:11:35.903Z</time></trkpt><trkpt lat="43.2988544" lon="11.5224185"><ele>305.0</ele><time>2026-04-04T15:11:36.902Z</time></trkpt><trkpt lat="43.2989401" lon="11.5224703"><ele>305.0</ele><time>2026-04-04T15:11:37.901Z</time></trkpt><trkpt lat="43.2990457" lon="11.5224913"><ele>303.6</ele><time>2026-04-04T15:11:38.907Z</time></trkpt><trkpt lat="43.2991498" lon="11.5224949"><ele>302.2</ele><time>2026-04-04T15:11:39.898Z</time></trkpt><trkpt lat="43.2992484" lon="11.5224885"><ele>300.8</ele><time>2026-04-04T15:11:40.9Z</time></trkpt><trkpt lat="43.2993429" lon="11.5224647"><ele>299.4</ele><time>2026-04-04T15:11:41.932Z</time></trkpt><trkpt lat="43.2994335" lon="11.5224224"><ele>298.0</ele><time>2026-04-04T15:11:42.908Z</time></trkpt><trkpt lat="43.2995179" lon="11.5223649"><ele>298.0</ele><time>2026-04-04T15:11:43.9Z</time></trkpt><trkpt lat="43.2996048" lon="11.5223125"><ele>298.0</ele><time>2026-04-04T15:11:44.898Z</time></trkpt><trkpt lat="43.2996967" lon="11.5222502"><ele>298.0</ele><time>2026-04-04T15:11:45.898Z</time></trkpt><trkpt lat="43.2998049" lon="11.5222105"><ele>298.0</ele><time>2026-04-04T15:11:46.895Z</time></trkpt><trkpt lat="43.2999058" lon="11.5222021"><ele>298.0</ele><time>2026-04-04T15:11:47.897Z</time></trkpt><trkpt lat="43.3000238" lon="11.5221997"><ele>298.2</ele><time>2026-04-04T15:11:48.899Z</time></trkpt><trkpt lat="43.3001451" lon="11.5222104"><ele>298.4</ele><time>2026-04-04T15:11:49.896Z</time></trkpt><trkpt lat="43.3002512" lon="11.5222425"><ele>298.59999999999997</ele><time>2026-04-04T15:11:50.885Z</time></trkpt><trkpt lat="43.3003512" lon="11.5222932"><ele>298.8</ele><time>2026-04-04T15:11:51.901Z</time></trkpt><trkpt lat="43.3004492" lon="11.5223472"><ele>299.0</ele><time>2026-04-04T15:11:52.894Z</time></trkpt><trkpt lat="43.3005584" lon="11.5223968"><ele>297.75</ele><time>2026-04-04T15:11:53.896Z</time></trkpt><trkpt lat="43.3006716" lon="11.5224412"><ele>296.5</ele><time>2026-04-04T15:11:54.911Z</time></trkpt><trkpt lat="43.3007931" lon="11.5224779"><ele>295.25</ele><time>2026-04-04T15:11:55.901Z</time></trkpt><trkpt lat="43.300921" lon="11.5225216"><ele>294.0</ele><time>2026-04-04T15:11:56.931Z</time></trkpt><trkpt lat="43.3010498" lon="11.5225656"><ele>294.0</ele><time>2026-04-04T15:11:57.903Z</time></trkpt><trkpt lat="43.3011674" lon="11.5226224"><ele>294.0</ele><time>2026-04-04T15:11:58.905Z</time></trkpt><trkpt lat="43.3012774" lon="11.5226889"><ele>294.0</ele><time>2026-04-04T15:11:59.9Z</time></trkpt><trkpt lat="43.3013813" lon="11.5227574"><ele>294.0</ele><time>2026-04-04T15:12:00.896Z</time></trkpt><trkpt lat="43.3014893" lon="11.5228096"><ele>293.0</ele><time>2026-04-04T15:12:01.902Z</time></trkpt><trkpt lat="43.3016147" lon="11.5228468"><ele>292.0</ele><time>2026-04-04T15:12:02.911Z</time></trkpt><trkpt lat="43.3017458" lon="11.5228816"><ele>291.0</ele><time>2026-04-04T15:12:03.902Z</time></trkpt><trkpt lat="43.3018783" lon="11.5229077"><ele>290.0</ele><time>2026-04-04T15:12:04.903Z</time></trkpt><trkpt lat="43.3020057" lon="11.52292"><ele>290.5</ele><time>2026-04-04T15:12:05.899Z</time></trkpt><trkpt lat="43.3021332" lon="11.5229155"><ele>291.0</ele><time>2026-04-04T15:12:06.901Z</time></trkpt><trkpt lat="43.3022531" lon="11.5228826"><ele>291.5</ele><time>2026-04-04T15:12:07.906Z</time></trkpt><trkpt lat="43.3023676" lon="11.5228277"><ele>292.0</ele><time>2026-04-04T15:12:08.904Z</time></trkpt><trkpt lat="43.302481" lon="11.5227751"><ele>292.0</ele><time>2026-04-04T15:12:09.899Z</time></trkpt><trkpt lat="43.3025985" lon="11.5227284"><ele>292.0</ele><time>2026-04-04T15:12:10.904Z</time></trkpt><trkpt lat="43.302721" lon="11.5226987"><ele>292.0</ele><time>2026-04-04T15:12:11.894Z</time></trkpt><trkpt lat="43.3028397" lon="11.5226794"><ele>292.0</ele><time>2026-04-04T15:12:12.914Z</time></trkpt><trkpt lat="43.3029574" lon="11.5226682"><ele>292.0</ele><time>2026-04-04T15:12:13.898Z</time></trkpt><trkpt lat="43.3030691" lon="11.522666"><ele>292.0</ele><time>2026-04-04T15:12:14.929Z</time></trkpt><trkpt lat="43.3031754" lon="11.5226809"><ele>292.0</ele><time>2026-04-04T15:12:15.905Z</time></trkpt><trkpt lat="43.3032719" lon="11.5227197"><ele>292.0</ele><time>2026-04-04T15:12:16.898Z</time></trkpt><trkpt lat="43.3033567" lon="11.522777"><ele>292.0</ele><time>2026-04-04T15:12:17.904Z</time></trkpt><trkpt lat="43.3034232" lon="11.5228546"><ele>295.2</ele><time>2026-04-04T15:12:18.898Z</time></trkpt><trkpt lat="43.303494" lon="11.5229527"><ele>298.4</ele><time>2026-04-04T15:12:19.896Z</time></trkpt><trkpt lat="43.3035589" lon="11.5230673"><ele>301.6</ele><time>2026-04-04T15:12:20.903Z</time></trkpt><trkpt lat="43.3036273" lon="11.5231897"><ele>304.8</ele><time>2026-04-04T15:12:21.898Z</time></trkpt><trkpt lat="43.3036933" lon="11.5233148"><ele>308.0</ele><time>2026-04-04T15:12:22.889Z</time></trkpt><trkpt lat="43.3037621" lon="11.5234534"><ele>308.0</ele><time>2026-04-04T15:12:23.898Z</time></trkpt><trkpt lat="43.3038391" lon="11.5235795"><ele>308.0</ele><time>2026-04-04T15:12:24.899Z</time></trkpt><trkpt lat="43.3039169" lon="11.5236848"><ele>308.0</ele><time>2026-04-04T15:12:25.902Z</time></trkpt><trkpt lat="43.3039989" lon="11.5237687"><ele>308.0</ele><time>2026-04-04T15:12:26.897Z</time></trkpt><trkpt lat="43.3040864" lon="11.5238186"><ele>308.0</ele><time>2026-04-04T15:12:27.908Z</time></trkpt><trkpt lat="43.3041752" lon="11.5238266"><ele>305.2</ele><time>2026-04-04T15:12:28.912Z</time></trkpt><trkpt lat="43.3042599" lon="11.5238089"><ele>302.4</ele><time>2026-04-04T15:12:29.904Z</time></trkpt><trkpt lat="43.3043338" lon="11.5237638"><ele>299.59999999999997</ele><time>2026-04-04T15:12:30.907Z</time></trkpt><trkpt lat="43.3044101" lon="11.5236915"><ele>296.8</ele><time>2026-04-04T15:12:31.937Z</time></trkpt><trkpt lat="43.3044812" lon="11.5235989"><ele>294.0</ele><time>2026-04-04T15:12:32.904Z</time></trkpt><trkpt lat="43.3045522" lon="11.5235032"><ele>294.0</ele><time>2026-04-04T15:12:33.909Z</time></trkpt><trkpt lat="43.3046194" lon="11.5233937"><ele>294.0</ele><time>2026-04-04T15:12:34.908Z</time></trkpt><trkpt lat="43.3046827" lon="11.5232974"><ele>294.0</ele><time>2026-04-04T15:12:35.919Z</time></trkpt><trkpt lat="43.3047595" lon="11.5232225"><ele>294.0</ele><time>2026-04-04T15:12:36.906Z</time></trkpt><trkpt lat="43.3048446" lon="11.5231505"><ele>294.0</ele><time>2026-04-04T15:12:37.903Z</time></trkpt><trkpt lat="43.3049326" lon="11.5231024"><ele>295.3333333333333</ele><time>2026-04-04T15:12:38.908Z</time></trkpt><trkpt lat="43.3050201" lon="11.5230614"><ele>296.6666666666667</ele><time>2026-04-04T15:12:39.906Z</time></trkpt><trkpt lat="43.3051006" lon="11.5230186"><ele>298.0</ele><time>2026-04-04T15:12:40.907Z</time></trkpt><trkpt lat="43.3051812" lon="11.522978"><ele>299.33333333333337</ele><time>2026-04-04T15:12:41.907Z</time></trkpt><trkpt lat="43.3052632" lon="11.522932"><ele>300.6666666666667</ele><time>2026-04-04T15:12:42.9Z</time></trkpt><trkpt lat="43.3053528" lon="11.5228911"><ele>302.0</ele><time>2026-04-04T15:12:43.908Z</time></trkpt><trkpt lat="43.3054366" lon="11.5228502"><ele>302.0</ele><time>2026-04-04T15:12:44.904Z</time></trkpt><trkpt lat="43.3055205" lon="11.5228137"><ele>302.0</ele><time>2026-04-04T15:12:45.898Z</time></trkpt><trkpt lat="43.3056017" lon="11.5227817"><ele>302.0</ele><time>2026-04-04T15:12:46.902Z</time></trkpt><trkpt lat="43.3056829" lon="11.5227718"><ele>302.0</ele><time>2026-04-04T15:12:47.903Z</time></trkpt><trkpt lat="43.3057652" lon="11.5227762"><ele>302.0</ele><time>2026-04-04T15:12:48.896Z</time></trkpt><trkpt lat="43.3058401" lon="11.5227954"><ele>302.0</ele><time>2026-04-04T15:12:49.927Z</time></trkpt><trkpt lat="43.3059141" lon="11.5228321"><ele>304.4</ele><time>2026-04-04T15:12:50.901Z</time></trkpt><trkpt lat="43.3059965" lon="11.5228665"><ele>306.79999999999995</ele><time>2026-04-04T15:12:51.906Z</time></trkpt><trkpt lat="43.3060796" lon="11.522904"><ele>309.2</ele><time>2026-04-04T15:12:52.899Z</time></trkpt><trkpt lat="43.3061635" lon="11.5229397"><ele>311.59999999999997</ele><time>2026-04-04T15:12:53.896Z</time></trkpt><trkpt lat="43.3062555" lon="11.5229751"><ele>314.0</ele><time>2026-04-04T15:12:54.898Z</time></trkpt><trkpt lat="43.3063547" lon="11.5229972"><ele>316.2</ele><time>2026-04-04T15:12:55.905Z</time></trkpt><trkpt lat="43.3064562" lon="11.5230147"><ele>318.4</ele><time>2026-04-04T15:12:56.897Z</time></trkpt><trkpt lat="43.3065623" lon="11.523038"><ele>320.6</ele><time>2026-04-04T15:12:57.896Z</time></trkpt><trkpt lat="43.3066666" lon="11.5230483"><ele>322.8</ele><time>2026-04-04T15:12:58.897Z</time></trkpt><trkpt lat="43.3067758" lon="11.5230569"><ele>325.0</ele><time>2026-04-04T15:12:59.897Z</time></trkpt><trkpt lat="43.306878" lon="11.5230561"><ele>325.0</ele><time>2026-04-04T15:13:00.91Z</time></trkpt><trkpt lat="43.306981" lon="11.5230534"><ele>325.0</ele><time>2026-04-04T15:13:01.906Z</time></trkpt><trkpt lat="43.307085" lon="11.52305"><ele>325.0</ele><time>2026-04-04T15:13:02.899Z</time></trkpt><trkpt lat="43.3071855" lon="11.5230462"><ele>325.0</ele><time>2026-04-04T15:13:03.902Z</time></trkpt><trkpt lat="43.3072819" lon="11.5230539"><ele>325.0</ele><time>2026-04-04T15:13:04.904Z</time></trkpt><trkpt lat="43.3073659" lon="11.5230737"><ele>325.16666666666663</ele><time>2026-04-04T15:13:05.903Z</time></trkpt><trkpt lat="43.3074404" lon="11.5231121"><ele>325.3333333333333</ele><time>2026-04-04T15:13:06.902Z</time></trkpt><trkpt lat="43.3075185" lon="11.5231631"><ele>325.5</ele><time>2026-04-04T15:13:07.908Z</time></trkpt><trkpt lat="43.3075891" lon="11.5232371"><ele>325.6666666666667</ele><time>2026-04-04T15:13:08.902Z</time></trkpt><trkpt lat="43.3076616" lon="11.5233102"><ele>325.83333333333337</ele><time>2026-04-04T15:13:09.904Z</time></trkpt><trkpt lat="43.3077326" lon="11.5233872"><ele>326.0</ele><time>2026-04-04T15:13:10.904Z</time></trkpt><trkpt lat="43.3078142" lon="11.5234602"><ele>326.0</ele><time>2026-04-04T15:13:11.905Z</time></trkpt><trkpt lat="43.3078957" lon="11.523526"><ele>326.0</ele><time>2026-04-04T15:13:12.908Z</time></trkpt><trkpt lat="43.3079764" lon="11.5235997"><ele>326.0</ele><time>2026-04-04T15:13:13.898Z</time></trkpt><trkpt lat="43.3080646" lon="11.5236728"><ele>326.0</ele><time>2026-04-04T15:13:14.902Z</time></trkpt><trkpt lat="43.3081506" lon="11.5237434"><ele>326.0</ele><time>2026-04-04T15:13:15.905Z</time></trkpt><trkpt lat="43.3082374" lon="11.5238131"><ele>326.0</ele><time>2026-04-04T15:13:16.905Z</time></trkpt><trkpt lat="43.3083174" lon="11.5238752"><ele>326.0</ele><time>2026-04-04T15:13:17.915Z</time></trkpt><trkpt lat="43.3083902" lon="11.5239301"><ele>326.0</ele><time>2026-04-04T15:13:18.912Z</time></trkpt><trkpt lat="43.3084595" lon="11.5239919"><ele>326.0</ele><time>2026-04-04T15:13:19.928Z</time></trkpt><trkpt lat="43.308517" lon="11.5240651"><ele>326.0</ele><time>2026-04-04T15:13:20.906Z</time></trkpt><trkpt lat="43.3085683" lon="11.5241435"><ele>326.0</ele><time>2026-04-04T15:13:21.91Z</time></trkpt><trkpt lat="43.3086138" lon="11.5242178"><ele>326.0</ele><time>2026-04-04T15:13:22.911Z</time></trkpt><trkpt lat="43.3086575" lon="11.5242857"><ele>326.0</ele><time>2026-04-04T15:13:23.899Z</time></trkpt><trkpt lat="43.3087111" lon="11.5243914"><ele>326.0</ele><time>2026-04-04T15:13:25.899Z</time></trkpt><trkpt lat="43.3087808" lon="11.5244027"><ele>326.0</ele><time>2026-04-04T15:13:27.905Z</time></trkpt><trkpt lat="43.3088303" lon="11.5242903"><ele>326.0</ele><time>2026-04-04T15:13:29.914Z</time></trkpt><trkpt lat="43.3088678" lon="11.5241425"><ele>326.0</ele><time>2026-04-04T15:13:31.905Z</time></trkpt><trkpt lat="43.3088969" lon="11.5239608"><ele>326.0</ele><time>2026-04-04T15:13:33.908Z</time></trkpt><trkpt lat="43.3089037" lon="11.5238431"><ele>326.0</ele><time>2026-04-04T15:13:34.907Z</time></trkpt><trkpt lat="43.3089029" lon="11.523716"><ele>326.0</ele><time>2026-04-04T15:13:35.903Z</time></trkpt><trkpt lat="43.3088958" lon="11.5236044"><ele>326.0</ele><time>2026-04-04T15:13:36.971Z</time></trkpt><trkpt lat="43.3088812" lon="11.5235017"><ele>326.0</ele><time>2026-04-04T15:13:37.901Z</time></trkpt><trkpt lat="43.3088655" lon="11.5233971"><ele>326.0</ele><time>2026-04-04T15:13:38.907Z</time></trkpt><trkpt lat="43.3088717" lon="11.5232942"><ele>324.0</ele><time>2026-04-04T15:13:39.902Z</time></trkpt><trkpt lat="43.3089104" lon="11.5231848"><ele>322.0</ele><time>2026-04-04T15:13:40.901Z</time></trkpt><trkpt lat="43.3089719" lon="11.5230783"><ele>320.0</ele><time>2026-04-04T15:13:41.902Z</time></trkpt><trkpt lat="43.3090484" lon="11.5229865"><ele>318.0</ele><time>2026-04-04T15:13:42.912Z</time></trkpt><trkpt lat="43.309135" lon="11.5228825"><ele>316.0</ele><time>2026-04-04T15:13:43.902Z</time></trkpt><trkpt lat="43.3092345" lon="11.5227864"><ele>314.5</ele><time>2026-04-04T15:13:44.905Z</time></trkpt><trkpt lat="43.3093494" lon="11.5226925"><ele>313.0</ele><time>2026-04-04T15:13:45.904Z</time></trkpt><trkpt lat="43.3094795" lon="11.5226205"><ele>311.5</ele><time>2026-04-04T15:13:46.905Z</time></trkpt><trkpt lat="43.3096007" lon="11.5225334"><ele>310.0</ele><time>2026-04-04T15:13:47.898Z</time></trkpt><trkpt lat="43.3097038" lon="11.5224082"><ele>309.25</ele><time>2026-04-04T15:13:48.902Z</time></trkpt><trkpt lat="43.3097969" lon="11.5222652"><ele>308.5</ele><time>2026-04-04T15:13:49.9Z</time></trkpt><trkpt lat="43.3098552" lon="11.5221081"><ele>307.75</ele><time>2026-04-04T15:13:50.906Z</time></trkpt><trkpt lat="43.3098751" lon="11.5219164"><ele>307.0</ele><time>2026-04-04T15:13:51.898Z</time></trkpt><trkpt lat="43.3098583" lon="11.5217072"><ele>306.5</ele><time>2026-04-04T15:13:52.911Z</time></trkpt><trkpt lat="43.3098098" lon="11.5215233"><ele>306.0</ele><time>2026-04-04T15:13:53.906Z</time></trkpt><trkpt lat="43.3097562" lon="11.5213244"><ele>305.5</ele><time>2026-04-04T15:13:54.931Z</time></trkpt><trkpt lat="43.3097259" lon="11.5211202"><ele>305.0</ele><time>2026-04-04T15:13:55.897Z</time></trkpt><trkpt lat="43.3097092" lon="11.5208957"><ele>302.0</ele><time>2026-04-04T15:13:56.899Z</time></trkpt><trkpt lat="43.3096955" lon="11.5206763"><ele>299.0</ele><time>2026-04-04T15:13:57.908Z</time></trkpt><trkpt lat="43.3096811" lon="11.5204536"><ele>296.0</ele><time>2026-04-04T15:13:58.9Z</time></trkpt><trkpt lat="43.3096639" lon="11.5202348"><ele>296.0</ele><time>2026-04-04T15:13:59.912Z</time></trkpt><trkpt lat="43.3096488" lon="11.5200337"><ele>296.0</ele><time>2026-04-04T15:14:00.904Z</time></trkpt><trkpt lat="43.3096586" lon="11.5198336"><ele>296.0</ele><time>2026-04-04T15:14:01.9Z</time></trkpt><trkpt lat="43.3097008" lon="11.5196376"><ele>296.0</ele><time>2026-04-04T15:14:02.91Z</time></trkpt><trkpt lat="43.3097633" lon="11.5194401"><ele>296.0</ele><time>2026-04-04T15:14:03.907Z</time></trkpt><trkpt lat="43.3098301" lon="11.5192462"><ele>296.0</ele><time>2026-04-04T15:14:04.9Z</time></trkpt><trkpt lat="43.3098899" lon="11.5190494"><ele>296.0</ele><time>2026-04-04T15:14:05.907Z</time></trkpt><trkpt lat="43.3099307" lon="11.5188519"><ele>295.6666666666667</ele><time>2026-04-04T15:14:06.905Z</time></trkpt><trkpt lat="43.3099304" lon="11.5186263"><ele>295.3333333333333</ele><time>2026-04-04T15:14:07.904Z</time></trkpt><trkpt lat="43.3099002" lon="11.5184042"><ele>295.0</ele><time>2026-04-04T15:14:08.9Z</time></trkpt><trkpt lat="43.3098373" lon="11.5181854"><ele>295.0</ele><time>2026-04-04T15:14:09.905Z</time></trkpt><trkpt lat="43.3097623" lon="11.517995"><ele>295.0</ele><time>2026-04-04T15:14:10.908Z</time></trkpt><trkpt lat="43.3096534" lon="11.5178197"><ele>295.0</ele><time>2026-04-04T15:14:11.906Z</time></trkpt><trkpt lat="43.3095396" lon="11.5176544"><ele>293.3333333333333</ele><time>2026-04-04T15:14:12.904Z</time></trkpt><trkpt lat="43.3094252" lon="11.5174949"><ele>291.6666666666667</ele><time>2026-04-04T15:14:13.926Z</time></trkpt><trkpt lat="43.3093177" lon="11.5173405"><ele>290.0</ele><time>2026-04-04T15:14:14.903Z</time></trkpt><trkpt lat="43.3092338" lon="11.5171788"><ele>291.0</ele><time>2026-04-04T15:14:15.906Z</time></trkpt><trkpt lat="43.3091815" lon="11.5170047"><ele>292.0</ele><time>2026-04-04T15:14:16.899Z</time></trkpt><trkpt lat="43.3091659" lon="11.5168301"><ele>293.0</ele><time>2026-04-04T15:14:17.901Z</time></trkpt><trkpt lat="43.3091887" lon="11.5166673"><ele>294.0</ele><time>2026-04-04T15:14:18.907Z</time></trkpt><trkpt lat="43.3092533" lon="11.5165498"><ele>294.0</ele><time>2026-04-04T15:14:19.902Z</time></trkpt><trkpt lat="43.3093369" lon="11.5164496"><ele>294.0</ele><time>2026-04-04T15:14:20.905Z</time></trkpt><trkpt lat="43.3094388" lon="11.5163413"><ele>294.0</ele><time>2026-04-04T15:14:21.894Z</time></trkpt><trkpt lat="43.3095328" lon="11.5162227"><ele>294.0</ele><time>2026-04-04T15:14:22.897Z</time></trkpt><trkpt lat="43.3096303" lon="11.5160895"><ele>295.0</ele><time>2026-04-04T15:14:23.904Z</time></trkpt><trkpt lat="43.3097285" lon="11.5159502"><ele>296.0</ele><time>2026-04-04T15:14:24.897Z</time></trkpt><trkpt lat="43.3098388" lon="11.5158109"><ele>297.0</ele><time>2026-04-04T15:14:25.889Z</time></trkpt><trkpt lat="43.3099588" lon="11.5156702"><ele>298.0</ele><time>2026-04-04T15:14:26.9Z</time></trkpt><trkpt lat="43.3100876" lon="11.5155371"><ele>295.0</ele><time>2026-04-04T15:14:27.901Z</time></trkpt><trkpt lat="43.3102348" lon="11.5154326"><ele>292.0</ele><time>2026-04-04T15:14:28.893Z</time></trkpt><trkpt lat="43.3103973" lon="11.5153488"><ele>289.0</ele><time>2026-04-04T15:14:29.903Z</time></trkpt><trkpt lat="43.3105723" lon="11.5152832"><ele>287.0</ele><time>2026-04-04T15:14:30.936Z</time></trkpt><trkpt lat="43.3107542" lon="11.5152221"><ele>285.0</ele><time>2026-04-04T15:14:31.897Z</time></trkpt><trkpt lat="43.310943" lon="11.5151753"><ele>283.0</ele><time>2026-04-04T15:14:32.907Z</time></trkpt><trkpt lat="43.3111354" lon="11.5151465"><ele>283.0</ele><time>2026-04-04T15:14:33.912Z</time></trkpt><trkpt lat="43.3113286" lon="11.5151487"><ele>283.0</ele><time>2026-04-04T15:14:34.902Z</time></trkpt><trkpt lat="43.3115135" lon="11.5151504"><ele>283.0</ele><time>2026-04-04T15:14:35.901Z</time></trkpt><trkpt lat="43.3116853" lon="11.5151449"><ele>285.0</ele><time>2026-04-04T15:14:36.905Z</time></trkpt><trkpt lat="43.3118405" lon="11.5151183"><ele>287.0</ele><time>2026-04-04T15:14:37.914Z</time></trkpt><trkpt lat="43.3119681" lon="11.5150556"><ele>289.0</ele><time>2026-04-04T15:14:38.908Z</time></trkpt><trkpt lat="43.3120733" lon="11.5149296"><ele>291.0</ele><time>2026-04-04T15:14:39.907Z</time></trkpt><trkpt lat="43.3121572" lon="11.514782"><ele>291.0</ele><time>2026-04-04T15:14:40.904Z</time></trkpt><trkpt lat="43.3122303" lon="11.5146149"><ele>291.0</ele><time>2026-04-04T15:14:41.902Z</time></trkpt><trkpt lat="43.3123061" lon="11.5144516"><ele>291.0</ele><time>2026-04-04T15:14:42.908Z</time></trkpt><trkpt lat="43.3123955" lon="11.514306"><ele>291.0</ele><time>2026-04-04T15:14:43.913Z</time></trkpt><trkpt lat="43.3124938" lon="11.5141923"><ele>292.5</ele><time>2026-04-04T15:14:44.893Z</time></trkpt><trkpt lat="43.3126034" lon="11.5140892"><ele>294.0</ele><time>2026-04-04T15:14:45.907Z</time></trkpt><trkpt lat="43.3127231" lon="11.5139903"><ele>295.5</ele><time>2026-04-04T15:14:46.924Z</time></trkpt><trkpt lat="43.3128525" lon="11.5139058"><ele>297.0</ele><time>2026-04-04T15:14:47.899Z</time></trkpt><trkpt lat="43.3129902" lon="11.5138438"><ele>297.5</ele><time>2026-04-04T15:14:48.909Z</time></trkpt><trkpt lat="43.313136" lon="11.5138339"><ele>298.0</ele><time>2026-04-04T15:14:49.908Z</time></trkpt><trkpt lat="43.3132846" lon="11.5138577"><ele>298.5</ele><time>2026-04-04T15:14:50.905Z</time></trkpt><trkpt lat="43.3134282" lon="11.513917"><ele>299.0</ele><time>2026-04-04T15:14:51.902Z</time></trkpt><trkpt lat="43.3135625" lon="11.5140056"><ele>299.0</ele><time>2026-04-04T15:14:52.895Z</time></trkpt><trkpt lat="43.3136866" lon="11.5141082"><ele>299.0</ele><time>2026-04-04T15:14:53.913Z</time></trkpt><trkpt lat="43.3138007" lon="11.514222"><ele>299.0</ele><time>2026-04-04T15:14:54.904Z</time></trkpt><trkpt lat="43.3139148" lon="11.5143508"><ele>299.0</ele><time>2026-04-04T15:14:55.905Z</time></trkpt><trkpt lat="43.3140234" lon="11.5144791"><ele>299.0</ele><time>2026-04-04T15:14:56.92Z</time></trkpt><trkpt lat="43.3141318" lon="11.514579"><ele>299.0</ele><time>2026-04-04T15:14:57.907Z</time></trkpt><trkpt lat="43.3142343" lon="11.5146267"><ele>299.0</ele><time>2026-04-04T15:14:58.901Z</time></trkpt><trkpt lat="43.3143406" lon="11.5146292"><ele>299.0</ele><time>2026-04-04T15:14:59.906Z</time></trkpt><trkpt lat="43.3144348" lon="11.514558"><ele>299.25</ele><time>2026-04-04T15:15:00.909Z</time></trkpt><trkpt lat="43.3145267" lon="11.5144589"><ele>299.5</ele><time>2026-04-04T15:15:01.907Z</time></trkpt><trkpt lat="43.3146074" lon="11.5143237"><ele>299.75</ele><time>2026-04-04T15:15:02.928Z</time></trkpt><trkpt lat="43.3146756" lon="11.5141816"><ele>300.0</ele><time>2026-04-04T15:15:03.901Z</time></trkpt><trkpt lat="43.314736" lon="11.5140543"><ele>300.8</ele><time>2026-04-04T15:15:04.909Z</time></trkpt><trkpt lat="43.3148064" lon="11.5139668"><ele>301.6</ele><time>2026-04-04T15:15:05.908Z</time></trkpt><trkpt lat="43.3148968" lon="11.5139021"><ele>302.4</ele><time>2026-04-04T15:15:06.905Z</time></trkpt><trkpt lat="43.3150013" lon="11.513878"><ele>303.2</ele><time>2026-04-04T15:15:07.905Z</time></trkpt><trkpt lat="43.3151085" lon="11.5138647"><ele>304.0</ele><time>2026-04-04T15:15:08.9Z</time></trkpt><trkpt lat="43.3152147" lon="11.5138579"><ele>304.0</ele><time>2026-04-04T15:15:09.903Z</time></trkpt><trkpt lat="43.3153142" lon="11.5138614"><ele>304.0</ele><time>2026-04-04T15:15:10.906Z</time></trkpt><trkpt lat="43.3154043" lon="11.5138735"><ele>304.0</ele><time>2026-04-04T15:15:11.904Z</time></trkpt><trkpt lat="43.3154685" lon="11.5139253"><ele>304.0</ele><time>2026-04-04T15:15:12.904Z</time></trkpt><trkpt lat="43.3155155" lon="11.5140135"><ele>304.0</ele><time>2026-04-04T15:15:13.903Z</time></trkpt><trkpt lat="43.315553" lon="11.5141349"><ele>304.0</ele><time>2026-04-04T15:15:14.899Z</time></trkpt><trkpt lat="43.3155564" lon="11.5142735"><ele>304.0</ele><time>2026-04-04T15:15:15.908Z</time></trkpt><trkpt lat="43.315564" lon="11.5144297"><ele>304.0</ele><time>2026-04-04T15:15:16.909Z</time></trkpt><trkpt lat="43.3155771" lon="11.5145802"><ele>304.0</ele><time>2026-04-04T15:15:17.907Z</time></trkpt><trkpt lat="43.3156074" lon="11.5147273"><ele>304.0</ele><time>2026-04-04T15:15:18.941Z</time></trkpt><trkpt lat="43.3156563" lon="11.5148551"><ele>304.0</ele><time>2026-04-04T15:15:19.902Z</time></trkpt><trkpt lat="43.3157181" lon="11.5149692"><ele>302.75</ele><time>2026-04-04T15:15:20.901Z</time></trkpt><trkpt lat="43.3158014" lon="11.5150793"><ele>301.5</ele><time>2026-04-04T15:15:21.9Z</time></trkpt><trkpt lat="43.3158933" lon="11.5151742"><ele>300.25</ele><time>2026-04-04T15:15:22.899Z</time></trkpt><trkpt lat="43.3159981" lon="11.5152373"><ele>299.0</ele><time>2026-04-04T15:15:23.903Z</time></trkpt><trkpt lat="43.3161197" lon="11.5152648"><ele>299.0</ele><time>2026-04-04T15:15:24.909Z</time></trkpt><trkpt lat="43.3162498" lon="11.5152496"><ele>299.0</ele><time>2026-04-04T15:15:25.896Z</time></trkpt><trkpt lat="43.3163883" lon="11.5152095"><ele>299.0</ele><time>2026-04-04T15:15:26.902Z</time></trkpt><trkpt lat="43.3165305" lon="11.5151562"><ele>299.0</ele><time>2026-04-04T15:15:27.902Z</time></trkpt><trkpt lat="43.3166741" lon="11.5150989"><ele>299.33333333333337</ele><time>2026-04-04T15:15:28.9Z</time></trkpt><trkpt lat="43.3168245" lon="11.5150404"><ele>299.6666666666667</ele><time>2026-04-04T15:15:29.903Z</time></trkpt><trkpt lat="43.3169765" lon="11.5149699"><ele>300.0</ele><time>2026-04-04T15:15:30.909Z</time></trkpt><trkpt lat="43.317127" lon="11.5149042"><ele>300.25</ele><time>2026-04-04T15:15:31.891Z</time></trkpt><trkpt lat="43.3172706" lon="11.5148391"><ele>300.5</ele><time>2026-04-04T15:15:32.914Z</time></trkpt><trkpt lat="43.317399" lon="11.514748"><ele>300.75</ele><time>2026-04-04T15:15:33.9Z</time></trkpt><trkpt lat="43.3175035" lon="11.5146165"><ele>301.0</ele><time>2026-04-04T15:15:34.901Z</time></trkpt><trkpt lat="43.3175857" lon="11.5144589"><ele>301.0</ele><time>2026-04-04T15:15:35.916Z</time></trkpt><trkpt lat="43.3176385" lon="11.5142868"><ele>301.0</ele><time>2026-04-04T15:15:36.941Z</time></trkpt><trkpt lat="43.3176811" lon="11.514081"><ele>301.0</ele><time>2026-04-04T15:15:37.899Z</time></trkpt><trkpt lat="43.3177152" lon="11.5138792"><ele>301.0</ele><time>2026-04-04T15:15:38.904Z</time></trkpt><trkpt lat="43.3177716" lon="11.5137067"><ele>300.25</ele><time>2026-04-04T15:15:39.918Z</time></trkpt><trkpt lat="43.317859" lon="11.5135764"><ele>299.5</ele><time>2026-04-04T15:15:40.911Z</time></trkpt><trkpt lat="43.317967" lon="11.5134774"><ele>298.75</ele><time>2026-04-04T15:15:41.899Z</time></trkpt><trkpt lat="43.3180966" lon="11.5134149"><ele>298.0</ele><time>2026-04-04T15:15:42.908Z</time></trkpt><trkpt lat="43.3182277" lon="11.5133762"><ele>298.0</ele><time>2026-04-04T15:15:43.896Z</time></trkpt><trkpt lat="43.3183601" lon="11.5133846"><ele>298.0</ele><time>2026-04-04T15:15:44.909Z</time></trkpt><trkpt lat="43.3184829" lon="11.5134188"><ele>298.0</ele><time>2026-04-04T15:15:45.908Z</time></trkpt><trkpt lat="43.3185927" lon="11.5134969"><ele>298.0</ele><time>2026-04-04T15:15:46.902Z</time></trkpt><trkpt lat="43.3186777" lon="11.5136099"><ele>298.5</ele><time>2026-04-04T15:15:47.902Z</time></trkpt><trkpt lat="43.3187256" lon="11.5137422"><ele>299.0</ele><time>2026-04-04T15:15:48.909Z</time></trkpt><trkpt lat="43.3187486" lon="11.5138937"><ele>299.5</ele><time>2026-04-04T15:15:49.908Z</time></trkpt><trkpt lat="43.3187381" lon="11.5140509"><ele>300.0</ele><time>2026-04-04T15:15:50.907Z</time></trkpt><trkpt lat="43.3186975" lon="11.5142141"><ele>300.0</ele><time>2026-04-04T15:15:52.01Z</time></trkpt><trkpt lat="43.318628" lon="11.5143588"><ele>300.0</ele><time>2026-04-04T15:15:52.968Z</time></trkpt><trkpt lat="43.3185415" lon="11.5144713"><ele>300.0</ele><time>2026-04-04T15:15:53.96Z</time></trkpt><trkpt lat="43.3184463" lon="11.5145733"><ele>300.0</ele><time>2026-04-04T15:15:54.956Z</time></trkpt><trkpt lat="43.3183737" lon="11.5146695"><ele>299.6</ele><time>2026-04-04T15:15:55.961Z</time></trkpt><trkpt lat="43.3183311" lon="11.5148008"><ele>299.2</ele><time>2026-04-04T15:15:56.953Z</time></trkpt><trkpt lat="43.3183497" lon="11.51492"><ele>298.8</ele><time>2026-04-04T15:15:57.948Z</time></trkpt><trkpt lat="43.3184371" lon="11.515008"><ele>298.4</ele><time>2026-04-04T15:15:59.942Z</time></trkpt><trkpt lat="43.3185472" lon="11.5149001"><ele>298.0</ele><time>2026-04-04T15:16:01.955Z</time></trkpt><trkpt lat="43.3186149" lon="11.5148072"><ele>298.0</ele><time>2026-04-04T15:16:02.953Z</time></trkpt><trkpt lat="43.3186908" lon="11.5147023"><ele>298.0</ele><time>2026-04-04T15:16:03.959Z</time></trkpt><trkpt lat="43.3187667" lon="11.5145904"><ele>298.0</ele><time>2026-04-04T15:16:04.955Z</time></trkpt><trkpt lat="43.3188416" lon="11.5144717"><ele>298.0</ele><time>2026-04-04T15:16:05.944Z</time></trkpt><trkpt lat="43.3189024" lon="11.5143588"><ele>298.0</ele><time>2026-04-04T15:16:06.962Z</time></trkpt><trkpt lat="43.3189549" lon="11.5142504"><ele>297.0</ele><time>2026-04-04T15:16:07.962Z</time></trkpt><trkpt lat="43.3189917" lon="11.5141346"><ele>296.0</ele><time>2026-04-04T15:16:08.953Z</time></trkpt><trkpt lat="43.319008" lon="11.5140093"><ele>295.0</ele><time>2026-04-04T15:16:09.96Z</time></trkpt><trkpt lat="43.3190078" lon="11.51387"><ele>294.0</ele><time>2026-04-04T15:16:10.963Z</time></trkpt><trkpt lat="43.3190019" lon="11.5137253"><ele>293.0</ele><time>2026-04-04T15:16:11.951Z</time></trkpt><trkpt lat="43.3189906" lon="11.5135685"><ele>292.25</ele><time>2026-04-04T15:16:12.956Z</time></trkpt><trkpt lat="43.3190014" lon="11.5134015"><ele>291.5</ele><time>2026-04-04T15:16:13.954Z</time></trkpt><trkpt lat="43.3190433" lon="11.5132549"><ele>290.75</ele><time>2026-04-04T15:16:14.951Z</time></trkpt><trkpt lat="43.3191093" lon="11.5130923"><ele>290.0</ele><time>2026-04-04T15:16:15.959Z</time></trkpt><trkpt lat="43.3191793" lon="11.5129393"><ele>287.75</ele><time>2026-04-04T15:16:16.944Z</time></trkpt><trkpt lat="43.3192264" lon="11.5127732"><ele>285.5</ele><time>2026-04-04T15:16:17.959Z</time></trkpt><trkpt lat="43.3192463" lon="11.5125864"><ele>283.25</ele><time>2026-04-04T15:16:18.955Z</time></trkpt><trkpt lat="43.3192438" lon="11.5123682"><ele>281.0</ele><time>2026-04-04T15:16:19.945Z</time></trkpt><trkpt lat="43.3192433" lon="11.5121589"><ele>279.0</ele><time>2026-04-04T15:16:20.955Z</time></trkpt><trkpt lat="43.3192332" lon="11.5119475"><ele>277.0</ele><time>2026-04-04T15:16:21.958Z</time></trkpt><trkpt lat="43.3192024" lon="11.5117477"><ele>275.0</ele><time>2026-04-04T15:16:22.959Z</time></trkpt><trkpt lat="43.319171" lon="11.5115563"><ele>273.0</ele><time>2026-04-04T15:16:23.956Z</time></trkpt><trkpt lat="43.3191438" lon="11.5113643"><ele>270.75</ele><time>2026-04-04T15:16:24.958Z</time></trkpt><trkpt lat="43.3191265" lon="11.5111651"><ele>268.5</ele><time>2026-04-04T15:16:25.963Z</time></trkpt><trkpt lat="43.3191267" lon="11.5109641"><ele>266.25</ele><time>2026-04-04T15:16:26.954Z</time></trkpt><trkpt lat="43.3191513" lon="11.5107702"><ele>264.0</ele><time>2026-04-04T15:16:27.953Z</time></trkpt><trkpt lat="43.319196" lon="11.5105826"><ele>264.0</ele><time>2026-04-04T15:16:28.942Z</time></trkpt><trkpt lat="43.3192742" lon="11.5104177"><ele>264.0</ele><time>2026-04-04T15:16:29.953Z</time></trkpt><trkpt lat="43.3193738" lon="11.5102636"><ele>264.0</ele><time>2026-04-04T15:16:30.955Z</time></trkpt><trkpt lat="43.3194832" lon="11.510092"><ele>260.6666666666667</ele><time>2026-04-04T15:16:31.953Z</time></trkpt><trkpt lat="43.3195886" lon="11.509903"><ele>257.33333333333337</ele><time>2026-04-04T15:16:32.955Z</time></trkpt><trkpt lat="43.3196859" lon="11.5097107"><ele>254.0</ele><time>2026-04-04T15:16:33.954Z</time></trkpt><trkpt lat="43.3197559" lon="11.5095088"><ele>251.66666666666669</ele><time>2026-04-04T15:16:34.944Z</time></trkpt><trkpt lat="43.3198075" lon="11.5093011"><ele>249.33333333333331</ele><time>2026-04-04T15:16:35.942Z</time></trkpt><trkpt lat="43.3198404" lon="11.5090894"><ele>247.0</ele><time>2026-04-04T15:16:36.948Z</time></trkpt><trkpt lat="43.319863" lon="11.5088732"><ele>247.0</ele><time>2026-04-04T15:16:37.955Z</time></trkpt><trkpt lat="43.3198719" lon="11.5086592"><ele>247.0</ele><time>2026-04-04T15:16:38.941Z</time></trkpt><trkpt lat="43.3198597" lon="11.5084658"><ele>247.0</ele><time>2026-04-04T15:16:39.945Z</time></trkpt><trkpt lat="43.3198426" lon="11.5082935"><ele>247.0</ele><time>2026-04-04T15:16:40.939Z</time></trkpt><trkpt lat="43.3198216" lon="11.5081244"><ele>247.0</ele><time>2026-04-04T15:16:41.952Z</time></trkpt><trkpt lat="43.3198062" lon="11.5079598"><ele>247.0</ele><time>2026-04-04T15:16:42.941Z</time></trkpt><trkpt lat="43.3197929" lon="11.5077858"><ele>247.0</ele><time>2026-04-04T15:16:43.945Z</time></trkpt><trkpt lat="43.3197789" lon="11.5076016"><ele>247.0</ele><time>2026-04-04T15:16:44.954Z</time></trkpt><trkpt lat="43.3197644" lon="11.5074083"><ele>246.5</ele><time>2026-04-04T15:16:45.944Z</time></trkpt><trkpt lat="43.3197481" lon="11.5072096"><ele>246.0</ele><time>2026-04-04T15:16:46.947Z</time></trkpt><trkpt lat="43.3197292" lon="11.5070049"><ele>245.5</ele><time>2026-04-04T15:16:47.95Z</time></trkpt><trkpt lat="43.31971" lon="11.5067959"><ele>245.0</ele><time>2026-04-04T15:16:48.952Z</time></trkpt><trkpt lat="43.3196938" lon="11.5065965"><ele>245.2</ele><time>2026-04-04T15:16:49.943Z</time></trkpt><trkpt lat="43.3196959" lon="11.5064181"><ele>245.4</ele><time>2026-04-04T15:16:50.947Z</time></trkpt><trkpt lat="43.3197337" lon="11.5062629"><ele>245.60000000000002</ele><time>2026-04-04T15:16:51.953Z</time></trkpt><trkpt lat="43.3197877" lon="11.5061421"><ele>245.8</ele><time>2026-04-04T15:16:52.943Z</time></trkpt><trkpt lat="43.3198653" lon="11.5060717"><ele>246.0</ele><time>2026-04-04T15:16:53.948Z</time></trkpt><trkpt lat="43.3199582" lon="11.5060186"><ele>245.5</ele><time>2026-04-04T15:16:54.948Z</time></trkpt><trkpt lat="43.3200579" lon="11.5059766"><ele>245.0</ele><time>2026-04-04T15:16:55.948Z</time></trkpt><trkpt lat="43.3201679" lon="11.5059386"><ele>244.5</ele><time>2026-04-04T15:16:56.952Z</time></trkpt><trkpt lat="43.320285" lon="11.5058954"><ele>244.0</ele><time>2026-04-04T15:16:57.954Z</time></trkpt><trkpt lat="43.3204094" lon="11.5058437"><ele>244.0</ele><time>2026-04-04T15:16:58.957Z</time></trkpt><trkpt lat="43.3205415" lon="11.5057906"><ele>244.0</ele><time>2026-04-04T15:16:59.949Z</time></trkpt><trkpt lat="43.3206767" lon="11.5057413"><ele>244.0</ele><time>2026-04-04T15:17:00.959Z</time></trkpt><trkpt lat="43.3208222" lon="11.5056977"><ele>244.0</ele><time>2026-04-04T15:17:01.947Z</time></trkpt><trkpt lat="43.3209688" lon="11.5056699"><ele>244.75</ele><time>2026-04-04T15:17:02.956Z</time></trkpt><trkpt lat="43.3211054" lon="11.505679"><ele>245.5</ele><time>2026-04-04T15:17:03.951Z</time></trkpt><trkpt lat="43.3212439" lon="11.5057231"><ele>246.25</ele><time>2026-04-04T15:17:04.95Z</time></trkpt><trkpt lat="43.3213804" lon="11.5058133"><ele>247.0</ele><time>2026-04-04T15:17:05.957Z</time></trkpt><trkpt lat="43.3215052" lon="11.5059353"><ele>249.66666666666666</ele><time>2026-04-04T15:17:06.944Z</time></trkpt><trkpt lat="43.3216128" lon="11.5060871"><ele>252.33333333333331</ele><time>2026-04-04T15:17:07.953Z</time></trkpt><trkpt lat="43.321722" lon="11.5062432"><ele>255.0</ele><time>2026-04-04T15:17:08.962Z</time></trkpt><trkpt lat="43.3218294" lon="11.5064007"><ele>255.0</ele><time>2026-04-04T15:17:09.945Z</time></trkpt><trkpt lat="43.3219401" lon="11.5065642"><ele>255.0</ele><time>2026-04-04T15:17:10.949Z</time></trkpt><trkpt lat="43.3220544" lon="11.5067367"><ele>255.0</ele><time>2026-04-04T15:17:11.95Z</time></trkpt><trkpt lat="43.3221776" lon="11.5069142"><ele>259.6666666666667</ele><time>2026-04-04T15:17:12.948Z</time></trkpt><trkpt lat="43.3222973" lon="11.5070907"><ele>264.33333333333337</ele><time>2026-04-04T15:17:13.959Z</time></trkpt><trkpt lat="43.3224206" lon="11.5072673"><ele>269.0</ele><time>2026-04-04T15:17:14.959Z</time></trkpt><trkpt lat="43.3225417" lon="11.50743"><ele>269.0</ele><time>2026-04-04T15:17:15.955Z</time></trkpt><trkpt lat="43.3226712" lon="11.5075479"><ele>269.0</ele><time>2026-04-04T15:17:16.949Z</time></trkpt><trkpt lat="43.3228136" lon="11.5076162"><ele>269.0</ele><time>2026-04-04T15:17:17.953Z</time></trkpt><trkpt lat="43.322961" lon="11.5076362"><ele>271.0</ele><time>2026-04-04T15:17:18.948Z</time></trkpt><trkpt lat="43.3231129" lon="11.5076419"><ele>273.0</ele><time>2026-04-04T15:17:19.968Z</time></trkpt><trkpt lat="43.3232674" lon="11.5076421"><ele>275.0</ele><time>2026-04-04T15:17:20.96Z</time></trkpt><trkpt lat="43.3234244" lon="11.5076519"><ele>275.0</ele><time>2026-04-04T15:17:21.957Z</time></trkpt><trkpt lat="43.3235876" lon="11.5076755"><ele>275.0</ele><time>2026-04-04T15:17:22.945Z</time></trkpt><trkpt lat="43.3237396" lon="11.5077321"><ele>275.0</ele><time>2026-04-04T15:17:23.942Z</time></trkpt><trkpt lat="43.3238781" lon="11.5078124"><ele>278.0</ele><time>2026-04-04T15:17:24.93Z</time></trkpt><trkpt lat="43.323992" lon="11.5079451"><ele>281.0</ele><time>2026-04-04T15:17:25.934Z</time></trkpt><trkpt lat="43.3240849" lon="11.5080992"><ele>284.0</ele><time>2026-04-04T15:17:26.94Z</time></trkpt><trkpt lat="43.3241659" lon="11.5082813"><ele>284.0</ele><time>2026-04-04T15:17:27.939Z</time></trkpt><trkpt lat="43.3242462" lon="11.5084746"><ele>284.0</ele><time>2026-04-04T15:17:28.946Z</time></trkpt><trkpt lat="43.3243278" lon="11.5086698"><ele>284.0</ele><time>2026-04-04T15:17:29.953Z</time></trkpt><trkpt lat="43.3244071" lon="11.5088735"><ele>286.6666666666667</ele><time>2026-04-04T15:17:30.951Z</time></trkpt><trkpt lat="43.3244877" lon="11.5090777"><ele>289.3333333333333</ele><time>2026-04-04T15:17:31.946Z</time></trkpt><trkpt lat="43.3245847" lon="11.5092558"><ele>292.0</ele><time>2026-04-04T15:17:32.944Z</time></trkpt><trkpt lat="43.3247093" lon="11.5093919"><ele>291.25</ele><time>2026-04-04T15:17:33.941Z</time></trkpt><trkpt lat="43.3248399" lon="11.5094585"><ele>290.5</ele><time>2026-04-04T15:17:34.946Z</time></trkpt><trkpt lat="43.3249889" lon="11.5094944"><ele>289.75</ele><time>2026-04-04T15:17:35.948Z</time></trkpt><trkpt lat="43.3251348" lon="11.5094896"><ele>289.0</ele><time>2026-04-04T15:17:36.941Z</time></trkpt><trkpt lat="43.325281" lon="11.5094423"><ele>289.0</ele><time>2026-04-04T15:17:37.942Z</time></trkpt><trkpt lat="43.3254296" lon="11.5093793"><ele>289.0</ele><time>2026-04-04T15:17:38.954Z</time></trkpt><trkpt lat="43.3255838" lon="11.5093063"><ele>289.0</ele><time>2026-04-04T15:17:39.944Z</time></trkpt><trkpt lat="43.3257381" lon="11.5092373"><ele>289.3333333333333</ele><time>2026-04-04T15:17:40.948Z</time></trkpt><trkpt lat="43.3258996" lon="11.5091638"><ele>289.6666666666667</ele><time>2026-04-04T15:17:41.954Z</time></trkpt><trkpt lat="43.3260627" lon="11.509094"><ele>290.0</ele><time>2026-04-04T15:17:42.952Z</time></trkpt><trkpt lat="43.3262335" lon="11.5090202"><ele>291.0</ele><time>2026-04-04T15:17:43.95Z</time></trkpt><trkpt lat="43.3264043" lon="11.5089379"><ele>292.0</ele><time>2026-04-04T15:17:44.952Z</time></trkpt><trkpt lat="43.3265771" lon="11.5088418"><ele>293.0</ele><time>2026-04-04T15:17:45.947Z</time></trkpt><trkpt lat="43.3267517" lon="11.508746"><ele>293.6666666666667</ele><time>2026-04-04T15:17:46.938Z</time></trkpt><trkpt lat="43.3269281" lon="11.5086413"><ele>294.3333333333333</ele><time>2026-04-04T15:17:47.943Z</time></trkpt><trkpt lat="43.3271083" lon="11.5085312"><ele>295.0</ele><time>2026-04-04T15:17:48.942Z</time></trkpt><trkpt lat="43.3272865" lon="11.508417"><ele>296.3333333333333</ele><time>2026-04-04T15:17:49.948Z</time></trkpt><trkpt lat="43.3274691" lon="11.5083013"><ele>297.6666666666667</ele><time>2026-04-04T15:17:50.953Z</time></trkpt><trkpt lat="43.3276517" lon="11.5081854"><ele>299.0</ele><time>2026-04-04T15:17:51.956Z</time></trkpt><trkpt lat="43.3278291" lon="11.5080749"><ele>299.0</ele><time>2026-04-04T15:17:52.949Z</time></trkpt><trkpt lat="43.328004" lon="11.5079665"><ele>299.0</ele><time>2026-04-04T15:17:53.945Z</time></trkpt><trkpt lat="43.3281784" lon="11.5078562"><ele>299.0</ele><time>2026-04-04T15:17:54.949Z</time></trkpt><trkpt lat="43.32835" lon="11.5077365"><ele>300.33333333333337</ele><time>2026-04-04T15:17:55.947Z</time></trkpt><trkpt lat="43.3285236" lon="11.5076315"><ele>301.6666666666667</ele><time>2026-04-04T15:17:56.952Z</time></trkpt><trkpt lat="43.3286945" lon="11.5075227"><ele>303.0</ele><time>2026-04-04T15:17:57.952Z</time></trkpt><trkpt lat="43.328864" lon="11.5074197"><ele>304.3333333333333</ele><time>2026-04-04T15:17:58.942Z</time></trkpt><trkpt lat="43.3290339" lon="11.5073219"><ele>305.66666666666663</ele><time>2026-04-04T15:17:59.941Z</time></trkpt><trkpt lat="43.3292114" lon="11.5072364"><ele>307.0</ele><time>2026-04-04T15:18:00.956Z</time></trkpt><trkpt lat="43.3293977" lon="11.5071766"><ele>307.0</ele><time>2026-04-04T15:18:01.955Z</time></trkpt><trkpt lat="43.3295927" lon="11.5071299"><ele>307.0</ele><time>2026-04-04T15:18:02.956Z</time></trkpt><trkpt lat="43.3297829" lon="11.5070916"><ele>307.0</ele><time>2026-04-04T15:18:03.957Z</time></trkpt><trkpt lat="43.3299716" lon="11.5070579"><ele>307.0</ele><time>2026-04-04T15:18:04.943Z</time></trkpt><trkpt lat="43.3301602" lon="11.5070208"><ele>307.0</ele><time>2026-04-04T15:18:05.954Z</time></trkpt><trkpt lat="43.3303549" lon="11.5069826"><ele>307.0</ele><time>2026-04-04T15:18:06.943Z</time></trkpt><trkpt lat="43.3305493" lon="11.5069527"><ele>308.3333333333333</ele><time>2026-04-04T15:18:07.954Z</time></trkpt><trkpt lat="43.3307408" lon="11.5069173"><ele>309.6666666666667</ele><time>2026-04-04T15:18:08.95Z</time></trkpt><trkpt lat="43.3309353" lon="11.506877"><ele>311.0</ele><time>2026-04-04T15:18:09.95Z</time></trkpt><trkpt lat="43.3311275" lon="11.506831"><ele>311.0</ele><time>2026-04-04T15:18:10.946Z</time></trkpt><trkpt lat="43.3313165" lon="11.5067608"><ele>311.0</ele><time>2026-04-04T15:18:11.934Z</time></trkpt><trkpt lat="43.3315078" lon="11.5066586"><ele>311.0</ele><time>2026-04-04T15:18:12.949Z</time></trkpt><trkpt lat="43.3316973" lon="11.5065313"><ele>312.0</ele><time>2026-04-04T15:18:13.943Z</time></trkpt><trkpt lat="43.3318851" lon="11.5064062"><ele>313.0</ele><time>2026-04-04T15:18:14.946Z</time></trkpt><trkpt lat="43.3320789" lon="11.506279"><ele>314.0</ele><time>2026-04-04T15:18:15.948Z</time></trkpt><trkpt lat="43.3322748" lon="11.5061477"><ele>314.6666666666667</ele><time>2026-04-04T15:18:16.943Z</time></trkpt><trkpt lat="43.3324693" lon="11.5060343"><ele>315.3333333333333</ele><time>2026-04-04T15:18:17.94Z</time></trkpt><trkpt lat="43.3326693" lon="11.5059277"><ele>316.0</ele><time>2026-04-04T15:18:18.952Z</time></trkpt><trkpt lat="43.3328714" lon="11.5058568"><ele>316.0</ele><time>2026-04-04T15:18:19.94Z</time></trkpt><trkpt lat="43.3330732" lon="11.5058029"><ele>316.0</ele><time>2026-04-04T15:18:20.943Z</time></trkpt><trkpt lat="43.3332832" lon="11.5057625"><ele>316.0</ele><time>2026-04-04T15:18:21.941Z</time></trkpt><trkpt lat="43.3334957" lon="11.5057185"><ele>316.0</ele><time>2026-04-04T15:18:22.957Z</time></trkpt><trkpt lat="43.3337055" lon="11.5056756"><ele>316.0</ele><time>2026-04-04T15:18:23.946Z</time></trkpt><trkpt lat="43.3339148" lon="11.5056305"><ele>316.0</ele><time>2026-04-04T15:18:24.943Z</time></trkpt><trkpt lat="43.3341287" lon="11.5055876"><ele>315.66666666666663</ele><time>2026-04-04T15:18:25.946Z</time></trkpt><trkpt lat="43.3343399" lon="11.5055449"><ele>315.3333333333333</ele><time>2026-04-04T15:18:26.952Z</time></trkpt><trkpt lat="43.3345514" lon="11.5054979"><ele>315.0</ele><time>2026-04-04T15:18:27.937Z</time></trkpt><trkpt lat="43.3347637" lon="11.5054573"><ele>314.6666666666667</ele><time>2026-04-04T15:18:28.948Z</time></trkpt><trkpt lat="43.3349736" lon="11.5054149"><ele>314.33333333333337</ele><time>2026-04-04T15:18:29.946Z</time></trkpt><trkpt lat="43.3351837" lon="11.5053693"><ele>314.0</ele><time>2026-04-04T15:18:30.942Z</time></trkpt><trkpt lat="43.3353972" lon="11.5053267"><ele>315.33333333333337</ele><time>2026-04-04T15:18:31.954Z</time></trkpt><trkpt lat="43.3356083" lon="11.5052834"><ele>316.6666666666667</ele><time>2026-04-04T15:18:32.94Z</time></trkpt><trkpt lat="43.3358229" lon="11.5052369"><ele>318.0</ele><time>2026-04-04T15:18:33.942Z</time></trkpt><trkpt lat="43.3360329" lon="11.5051949"><ele>318.0</ele><time>2026-04-04T15:18:34.949Z</time></trkpt><trkpt lat="43.3362459" lon="11.5051554"><ele>318.0</ele><time>2026-04-04T15:18:35.942Z</time></trkpt><trkpt lat="43.3364533" lon="11.5051127"><ele>318.0</ele><time>2026-04-04T15:18:36.94Z</time></trkpt><trkpt lat="43.336661" lon="11.5050881"><ele>320.0</ele><time>2026-04-04T15:18:37.941Z</time></trkpt><trkpt lat="43.3368676" lon="11.5050825"><ele>322.0</ele><time>2026-04-04T15:18:38.945Z</time></trkpt><trkpt lat="43.3370693" lon="11.5051098"><ele>324.0</ele><time>2026-04-04T15:18:39.939Z</time></trkpt><trkpt lat="43.3372612" lon="11.5051786"><ele>324.3333333333333</ele><time>2026-04-04T15:18:40.942Z</time></trkpt><trkpt lat="43.3374513" lon="11.5052698"><ele>324.66666666666663</ele><time>2026-04-04T15:18:41.948Z</time></trkpt><trkpt lat="43.3376381" lon="11.505387"><ele>325.0</ele><time>2026-04-04T15:18:42.94Z</time></trkpt><trkpt lat="43.3378226" lon="11.5055083"><ele>326.3333333333333</ele><time>2026-04-04T15:18:43.939Z</time></trkpt><trkpt lat="43.3380066" lon="11.5056337"><ele>327.6666666666667</ele><time>2026-04-04T15:18:44.94Z</time></trkpt><trkpt lat="43.3381903" lon="11.5057398"><ele>329.0</ele><time>2026-04-04T15:18:45.941Z</time></trkpt><trkpt lat="43.3383798" lon="11.5058181"><ele>330.0</ele><time>2026-04-04T15:18:46.929Z</time></trkpt><trkpt lat="43.3385722" lon="11.5058734"><ele>331.0</ele><time>2026-04-04T15:18:47.939Z</time></trkpt><trkpt lat="43.3387681" lon="11.5058817"><ele>332.0</ele><time>2026-04-04T15:18:48.945Z</time></trkpt><trkpt lat="43.3389655" lon="11.5058697"><ele>333.6666666666667</ele><time>2026-04-04T15:18:49.936Z</time></trkpt><trkpt lat="43.3391465" lon="11.505827"><ele>335.3333333333333</ele><time>2026-04-04T15:18:50.946Z</time></trkpt><trkpt lat="43.339317" lon="11.5057722"><ele>337.0</ele><time>2026-04-04T15:18:51.94Z</time></trkpt><trkpt lat="43.3394787" lon="11.5057104"><ele>337.0</ele><time>2026-04-04T15:18:52.946Z</time></trkpt><trkpt lat="43.3396261" lon="11.505652"><ele>337.0</ele><time>2026-04-04T15:18:53.946Z</time></trkpt><trkpt lat="43.3397612" lon="11.5056045"><ele>337.0</ele><time>2026-04-04T15:18:54.935Z</time></trkpt><trkpt lat="43.3398837" lon="11.5055606"><ele>337.0</ele><time>2026-04-04T15:18:55.937Z</time></trkpt><trkpt lat="43.3399963" lon="11.5055236"><ele>336.8</ele><time>2026-04-04T15:18:56.933Z</time></trkpt><trkpt lat="43.3401069" lon="11.505489"><ele>336.6</ele><time>2026-04-04T15:18:57.941Z</time></trkpt><trkpt lat="43.3402079" lon="11.5054533"><ele>336.40000000000003</ele><time>2026-04-04T15:18:58.95Z</time></trkpt><trkpt lat="43.3403063" lon="11.50542"><ele>336.20000000000005</ele><time>2026-04-04T15:18:59.944Z</time></trkpt><trkpt lat="43.3403972" lon="11.5053839"><ele>336.0</ele><time>2026-04-04T15:19:00.939Z</time></trkpt><trkpt lat="43.3404738" lon="11.5053598"><ele>335.8333333333333</ele><time>2026-04-04T15:19:01.941Z</time></trkpt><trkpt lat="43.3405666" lon="11.5053343"><ele>335.6666666666667</ele><time>2026-04-04T15:19:03.947Z</time></trkpt><trkpt lat="43.3406568" lon="11.5053786"><ele>335.5</ele><time>2026-04-04T15:19:06.943Z</time></trkpt><trkpt lat="43.3407557" lon="11.5054003"><ele>335.33333333333337</ele><time>2026-04-04T15:19:08.941Z</time></trkpt><trkpt lat="43.3408193" lon="11.5053623"><ele>335.1666666666667</ele><time>2026-04-04T15:19:09.94Z</time></trkpt><trkpt lat="43.3408813" lon="11.5053053"><ele>335.0</ele><time>2026-04-04T15:19:10.94Z</time></trkpt><trkpt lat="43.3409467" lon="11.5052554"><ele>335.0</ele><time>2026-04-04T15:19:11.946Z</time></trkpt><trkpt lat="43.3410176" lon="11.5052049"><ele>335.0</ele><time>2026-04-04T15:19:12.946Z</time></trkpt><trkpt lat="43.3410986" lon="11.5051615"><ele>335.0</ele><time>2026-04-04T15:19:13.941Z</time></trkpt><trkpt lat="43.3411905" lon="11.5051251"><ele>335.0</ele><time>2026-04-04T15:19:14.942Z</time></trkpt><trkpt lat="43.3412852" lon="11.5050977"><ele>335.0</ele><time>2026-04-04T15:19:15.953Z</time></trkpt><trkpt lat="43.3413766" lon="11.5050686"><ele>335.0</ele><time>2026-04-04T15:19:16.951Z</time></trkpt><trkpt lat="43.3414675" lon="11.5050383"><ele>335.0</ele><time>2026-04-04T15:19:17.948Z</time></trkpt><trkpt lat="43.3415617" lon="11.505019"><ele>335.0</ele><time>2026-04-04T15:19:18.954Z</time></trkpt><trkpt lat="43.341646" lon="11.505006"><ele>335.0</ele><time>2026-04-04T15:19:19.955Z</time></trkpt><trkpt lat="43.3417214" lon="11.504992"><ele>335.0</ele><time>2026-04-04T15:19:20.946Z</time></trkpt><trkpt lat="43.3418019" lon="11.5049762"><ele>335.0</ele><time>2026-04-04T15:19:21.951Z</time></trkpt><trkpt lat="43.3418931" lon="11.50495"><ele>335.0</ele><time>2026-04-04T15:19:22.943Z</time></trkpt><trkpt lat="43.3419893" lon="11.5049343"><ele>335.0</ele><time>2026-04-04T15:19:23.951Z</time></trkpt><trkpt lat="43.3420857" lon="11.504915"><ele>335.0</ele><time>2026-04-04T15:19:24.949Z</time></trkpt><trkpt lat="43.3421777" lon="11.5049027"><ele>335.0</ele><time>2026-04-04T15:19:25.949Z</time></trkpt><trkpt lat="43.342265" lon="11.504882"><ele>335.0</ele><time>2026-04-04T15:19:26.946Z</time></trkpt><trkpt lat="43.3423569" lon="11.5048717"><ele>335.5</ele><time>2026-04-04T15:19:27.954Z</time></trkpt><trkpt lat="43.3424402" lon="11.5048572"><ele>336.0</ele><time>2026-04-04T15:19:28.942Z</time></trkpt><trkpt lat="43.3425237" lon="11.5048351"><ele>336.5</ele><time>2026-04-04T15:19:29.953Z</time></trkpt><trkpt lat="43.3426103" lon="11.5048109"><ele>337.0</ele><time>2026-04-04T15:19:30.941Z</time></trkpt><trkpt lat="43.3427001" lon="11.5047921"><ele>337.5</ele><time>2026-04-04T15:19:31.941Z</time></trkpt><trkpt lat="43.3427951" lon="11.5047793"><ele>338.0</ele><time>2026-04-04T15:19:32.943Z</time></trkpt><trkpt lat="43.3428973" lon="11.5047597"><ele>338.0</ele><time>2026-04-04T15:19:33.949Z</time></trkpt><trkpt lat="43.3430022" lon="11.5047397"><ele>338.0</ele><time>2026-04-04T15:19:34.948Z</time></trkpt><trkpt lat="43.3431129" lon="11.5047171"><ele>338.0</ele><time>2026-04-04T15:19:35.955Z</time></trkpt><trkpt lat="43.3432295" lon="11.5046996"><ele>338.0</ele><time>2026-04-04T15:19:36.963Z</time></trkpt><trkpt lat="43.3433433" lon="11.5046794"><ele>338.0</ele><time>2026-04-04T15:19:37.963Z</time></trkpt><trkpt lat="43.343463" lon="11.5046595"><ele>338.0</ele><time>2026-04-04T15:19:38.965Z</time></trkpt><trkpt lat="43.3435912" lon="11.5046342"><ele>338.0</ele><time>2026-04-04T15:19:39.96Z</time></trkpt><trkpt lat="43.3437167" lon="11.5046049"><ele>338.0</ele><time>2026-04-04T15:19:40.977Z</time></trkpt><trkpt lat="43.3438454" lon="11.5045797"><ele>337.5</ele><time>2026-04-04T15:19:41.967Z</time></trkpt><trkpt lat="43.3439715" lon="11.5045525"><ele>337.0</ele><time>2026-04-04T15:19:42.959Z</time></trkpt><trkpt lat="43.3440956" lon="11.5045375"><ele>336.5</ele><time>2026-04-04T15:19:43.959Z</time></trkpt><trkpt lat="43.3442106" lon="11.504512"><ele>336.0</ele><time>2026-04-04T15:19:44.96Z</time></trkpt><trkpt lat="43.3443248" lon="11.5044901"><ele>336.0</ele><time>2026-04-04T15:19:45.964Z</time></trkpt><trkpt lat="43.34443" lon="11.5044697"><ele>336.0</ele><time>2026-04-04T15:19:46.969Z</time></trkpt><trkpt lat="43.3445337" lon="11.5044556"><ele>336.0</ele><time>2026-04-04T15:19:47.961Z</time></trkpt><trkpt lat="43.3446209" lon="11.5044442"><ele>336.0</ele><time>2026-04-04T15:19:48.957Z</time></trkpt><trkpt lat="43.3446994" lon="11.5044439"><ele>336.0</ele><time>2026-04-04T15:19:49.967Z</time></trkpt><trkpt lat="43.3447899" lon="11.5043645"><ele>337.1666666666667</ele><time>2026-04-04T15:19:51.9Z</time></trkpt><trkpt lat="43.3448093" lon="11.5042809"><ele>338.3333333333333</ele><time>2026-04-04T15:19:52.895Z</time></trkpt><trkpt lat="43.3448356" lon="11.5041857"><ele>339.5</ele><time>2026-04-04T15:19:53.904Z</time></trkpt><trkpt lat="43.3448727" lon="11.5040914"><ele>340.66666666666663</ele><time>2026-04-04T15:19:54.897Z</time></trkpt><trkpt lat="43.3449132" lon="11.5039889"><ele>341.8333333333333</ele><time>2026-04-04T15:19:55.89Z</time></trkpt><trkpt lat="43.3449608" lon="11.5038868"><ele>343.0</ele><time>2026-04-04T15:19:56.895Z</time></trkpt><trkpt lat="43.3450006" lon="11.5037736"><ele>343.0</ele><time>2026-04-04T15:19:57.901Z</time></trkpt><trkpt lat="43.3450194" lon="11.5036679"><ele>343.0</ele><time>2026-04-04T15:19:58.892Z</time></trkpt><trkpt lat="43.3450278" lon="11.5035275"><ele>343.0</ele><time>2026-04-04T15:20:00.897Z</time></trkpt><trkpt lat="43.3449778" lon="11.5034018"><ele>343.0</ele><time>2026-04-04T15:20:02.896Z</time></trkpt><trkpt lat="43.3449438" lon="11.503324"><ele>343.0</ele><time>2026-04-04T15:20:03.894Z</time></trkpt><trkpt lat="43.3449115" lon="11.5032258"><ele>343.0</ele><time>2026-04-04T15:20:04.901Z</time></trkpt><trkpt lat="43.3448967" lon="11.5031227"><ele>343.0</ele><time>2026-04-04T15:20:05.896Z</time></trkpt><trkpt lat="43.3448945" lon="11.5029991"><ele>343.0</ele><time>2026-04-04T15:20:06.898Z</time></trkpt><trkpt lat="43.3449024" lon="11.5028813"><ele>343.0</ele><time>2026-04-04T15:20:07.89Z</time></trkpt><trkpt lat="43.3449172" lon="11.5027533"><ele>343.0</ele><time>2026-04-04T15:20:08.906Z</time></trkpt><trkpt lat="43.3449567" lon="11.5026063"><ele>343.0</ele><time>2026-04-04T15:20:09.906Z</time></trkpt><trkpt lat="43.3450011" lon="11.5024623"><ele>343.25</ele><time>2026-04-04T15:20:10.901Z</time></trkpt><trkpt lat="43.3450486" lon="11.502317"><ele>343.5</ele><time>2026-04-04T15:20:11.9Z</time></trkpt><trkpt lat="43.3451049" lon="11.5021513"><ele>343.75</ele><time>2026-04-04T15:20:12.899Z</time></trkpt><trkpt lat="43.3451577" lon="11.5019925"><ele>344.0</ele><time>2026-04-04T15:20:13.899Z</time></trkpt><trkpt lat="43.3452042" lon="11.5018579"><ele>342.4</ele><time>2026-04-04T15:20:14.895Z</time></trkpt><trkpt lat="43.3452262" lon="11.5017376"><ele>340.79999999999995</ele><time>2026-04-04T15:20:15.901Z</time></trkpt><trkpt lat="43.3452266" lon="11.5016178"><ele>339.20000000000005</ele><time>2026-04-04T15:20:16.893Z</time></trkpt><trkpt lat="43.3452118" lon="11.5014915"><ele>337.6</ele><time>2026-04-04T15:20:17.891Z</time></trkpt><trkpt lat="43.3451836" lon="11.5013669"><ele>336.0</ele><time>2026-04-04T15:20:18.888Z</time></trkpt><trkpt lat="43.3451431" lon="11.501235"><ele>335.8</ele><time>2026-04-04T15:20:19.889Z</time></trkpt><trkpt lat="43.3450919" lon="11.5011232"><ele>335.6</ele><time>2026-04-04T15:20:20.891Z</time></trkpt><trkpt lat="43.3450335" lon="11.5010071"><ele>335.4</ele><time>2026-04-04T15:20:21.895Z</time></trkpt><trkpt lat="43.3449798" lon="11.5008952"><ele>335.2</ele><time>2026-04-04T15:20:22.895Z</time></trkpt><trkpt lat="43.3449387" lon="11.5007922"><ele>335.0</ele><time>2026-04-04T15:20:23.894Z</time></trkpt><trkpt lat="43.3449609" lon="11.5006664"><ele>335.0</ele><time>2026-04-04T15:20:25.908Z</time></trkpt><trkpt lat="43.3450407" lon="11.5005917"><ele>335.0</ele><time>2026-04-04T15:20:27.902Z</time></trkpt><trkpt lat="43.3450669" lon="11.500507"><ele>335.0</ele><time>2026-04-04T15:20:34.901Z</time></trkpt><trkpt lat="43.3450417" lon="11.5004105"><ele>335.0</ele><time>2026-04-04T15:20:35.904Z</time></trkpt><trkpt lat="43.3450125" lon="11.5003224"><ele>335.0</ele><time>2026-04-04T15:20:36.9Z</time></trkpt><trkpt lat="43.3449791" lon="11.500221"><ele>335.0</ele><time>2026-04-04T15:20:37.901Z</time></trkpt><trkpt lat="43.3449409" lon="11.5001064"><ele>335.0</ele><time>2026-04-04T15:20:38.895Z</time></trkpt><trkpt lat="43.3448902" lon="11.499974"><ele>335.0</ele><time>2026-04-04T15:20:39.902Z</time></trkpt><trkpt lat="43.344831" lon="11.4998203"><ele>335.0</ele><time>2026-04-04T15:20:40.895Z</time></trkpt><trkpt lat="43.3447657" lon="11.4996574"><ele>335.0</ele><time>2026-04-04T15:20:41.894Z</time></trkpt><trkpt lat="43.3447001" lon="11.4994816"><ele>335.33333333333337</ele><time>2026-04-04T15:20:42.902Z</time></trkpt><trkpt lat="43.3446262" lon="11.4992977"><ele>335.6666666666667</ele><time>2026-04-04T15:20:43.901Z</time></trkpt><trkpt lat="43.344548" lon="11.4991041"><ele>336.0</ele><time>2026-04-04T15:20:44.905Z</time></trkpt><trkpt lat="43.3444762" lon="11.4989014"><ele>335.3333333333333</ele><time>2026-04-04T15:20:45.903Z</time></trkpt><trkpt lat="43.344403" lon="11.4986846"><ele>334.66666666666663</ele><time>2026-04-04T15:20:46.896Z</time></trkpt><trkpt lat="43.3443283" lon="11.4984657"><ele>334.0</ele><time>2026-04-04T15:20:47.899Z</time></trkpt><trkpt lat="43.3442526" lon="11.4982431"><ele>334.0</ele><time>2026-04-04T15:20:48.901Z</time></trkpt><trkpt lat="43.3441789" lon="11.4980156"><ele>334.0</ele><time>2026-04-04T15:20:49.901Z</time></trkpt><trkpt lat="43.3441003" lon="11.4978097"><ele>334.0</ele><time>2026-04-04T15:20:50.893Z</time></trkpt><trkpt lat="43.3440283" lon="11.497624"><ele>334.0</ele><time>2026-04-04T15:20:51.897Z</time></trkpt><trkpt lat="43.3439657" lon="11.4974527"><ele>334.0</ele><time>2026-04-04T15:20:52.901Z</time></trkpt><trkpt lat="43.3439157" lon="11.4973093"><ele>334.0</ele><time>2026-04-04T15:20:53.906Z</time></trkpt><trkpt lat="43.3438698" lon="11.497195"><ele>334.0</ele><time>2026-04-04T15:20:54.891Z</time></trkpt><trkpt lat="43.3438374" lon="11.4971048"><ele>334.0</ele><time>2026-04-04T15:20:55.902Z</time></trkpt><trkpt lat="43.343784" lon="11.4970232"><ele>334.0</ele><time>2026-04-04T15:20:56.901Z</time></trkpt><trkpt lat="43.3437271" lon="11.4969318"><ele>334.0</ele><time>2026-04-04T15:20:57.894Z</time></trkpt><trkpt lat="43.3436548" lon="11.4968351"><ele>334.0</ele><time>2026-04-04T15:20:58.895Z</time></trkpt><trkpt lat="43.343573" lon="11.4967347"><ele>334.0</ele><time>2026-04-04T15:20:59.897Z</time></trkpt><trkpt lat="43.3434951" lon="11.4966303"><ele>334.0</ele><time>2026-04-04T15:21:00.9Z</time></trkpt><trkpt lat="43.3434142" lon="11.4965269"><ele>334.0</ele><time>2026-04-04T15:21:01.901Z</time></trkpt><trkpt lat="43.3433387" lon="11.4964337"><ele>334.0</ele><time>2026-04-04T15:21:02.898Z</time></trkpt><trkpt lat="43.3432603" lon="11.4963498"><ele>334.0</ele><time>2026-04-04T15:21:03.909Z</time></trkpt><trkpt lat="43.3431831" lon="11.4962643"><ele>334.0</ele><time>2026-04-04T15:21:04.891Z</time></trkpt><trkpt lat="43.3430927" lon="11.4961693"><ele>334.0</ele><time>2026-04-04T15:21:05.902Z</time></trkpt><trkpt lat="43.3429998" lon="11.4960627"><ele>333.25</ele><time>2026-04-04T15:21:06.903Z</time></trkpt><trkpt lat="43.3428987" lon="11.4959527"><ele>332.5</ele><time>2026-04-04T15:21:07.901Z</time></trkpt><trkpt lat="43.342798" lon="11.4958272"><ele>331.75</ele><time>2026-04-04T15:21:08.893Z</time></trkpt><trkpt lat="43.3426898" lon="11.4956948"><ele>331.0</ele><time>2026-04-04T15:21:09.9Z</time></trkpt><trkpt lat="43.3425749" lon="11.4955464"><ele>328.3333333333333</ele><time>2026-04-04T15:21:10.902Z</time></trkpt><trkpt lat="43.3424532" lon="11.4953945"><ele>325.6666666666667</ele><time>2026-04-04T15:21:11.897Z</time></trkpt><trkpt lat="43.3423271" lon="11.4952465"><ele>323.0</ele><time>2026-04-04T15:21:12.897Z</time></trkpt><trkpt lat="43.342196" lon="11.4950923"><ele>320.6666666666667</ele><time>2026-04-04T15:21:13.899Z</time></trkpt><trkpt lat="43.3420583" lon="11.4949407"><ele>318.3333333333333</ele><time>2026-04-04T15:21:14.895Z</time></trkpt><trkpt lat="43.3419189" lon="11.4947849"><ele>316.0</ele><time>2026-04-04T15:21:15.895Z</time></trkpt><trkpt lat="43.3417851" lon="11.4946205"><ele>315.0</ele><time>2026-04-04T15:21:16.903Z</time></trkpt><trkpt lat="43.3416596" lon="11.4944636"><ele>314.0</ele><time>2026-04-04T15:21:17.893Z</time></trkpt><trkpt lat="43.3415392" lon="11.4943162"><ele>313.0</ele><time>2026-04-04T15:21:18.895Z</time></trkpt><trkpt lat="43.3414178" lon="11.4941693"><ele>311.0</ele><time>2026-04-04T15:21:19.895Z</time></trkpt><trkpt lat="43.3413012" lon="11.4940297"><ele>309.0</ele><time>2026-04-04T15:21:20.898Z</time></trkpt><trkpt lat="43.3411852" lon="11.4938974"><ele>307.0</ele><time>2026-04-04T15:21:21.905Z</time></trkpt><trkpt lat="43.3410733" lon="11.493768"><ele>307.75</ele><time>2026-04-04T15:21:22.902Z</time></trkpt><trkpt lat="43.3409703" lon="11.4936433"><ele>308.5</ele><time>2026-04-04T15:21:23.896Z</time></trkpt><trkpt lat="43.3408676" lon="11.4935195"><ele>309.25</ele><time>2026-04-04T15:21:24.895Z</time></trkpt><trkpt lat="43.3407623" lon="11.4933934"><ele>310.0</ele><time>2026-04-04T15:21:25.897Z</time></trkpt><trkpt lat="43.3406566" lon="11.493267"><ele>310.0</ele><time>2026-04-04T15:21:26.895Z</time></trkpt><trkpt lat="43.3405462" lon="11.4931363"><ele>310.0</ele><time>2026-04-04T15:21:27.893Z</time></trkpt><trkpt lat="43.3404356" lon="11.4930019"><ele>310.0</ele><time>2026-04-04T15:21:28.907Z</time></trkpt><trkpt lat="43.3403255" lon="11.4928594"><ele>310.0</ele><time>2026-04-04T15:21:29.897Z</time></trkpt><trkpt lat="43.3402137" lon="11.4927013"><ele>310.3333333333333</ele><time>2026-04-04T15:21:30.895Z</time></trkpt><trkpt lat="43.340095" lon="11.4925384"><ele>310.6666666666667</ele><time>2026-04-04T15:21:31.896Z</time></trkpt><trkpt lat="43.3399816" lon="11.4923698"><ele>311.0</ele><time>2026-04-04T15:21:32.895Z</time></trkpt><trkpt lat="43.3398608" lon="11.4921886"><ele>309.6666666666667</ele><time>2026-04-04T15:21:33.899Z</time></trkpt><trkpt lat="43.3397366" lon="11.4919983"><ele>308.3333333333333</ele><time>2026-04-04T15:21:34.896Z</time></trkpt><trkpt lat="43.3396089" lon="11.4918071"><ele>307.0</ele><time>2026-04-04T15:21:35.903Z</time></trkpt><trkpt lat="43.3394796" lon="11.4916131"><ele>307.0</ele><time>2026-04-04T15:21:36.895Z</time></trkpt><trkpt lat="43.3393435" lon="11.4914065"><ele>307.0</ele><time>2026-04-04T15:21:37.892Z</time></trkpt><trkpt lat="43.339201" lon="11.4912025"><ele>307.0</ele><time>2026-04-04T15:21:38.907Z</time></trkpt><trkpt lat="43.3390569" lon="11.4909957"><ele>306.66666666666663</ele><time>2026-04-04T15:21:39.896Z</time></trkpt><trkpt lat="43.3388998" lon="11.490803"><ele>306.3333333333333</ele><time>2026-04-04T15:21:40.901Z</time></trkpt><trkpt lat="43.3387249" lon="11.4906284"><ele>306.0</ele><time>2026-04-04T15:21:41.898Z</time></trkpt><trkpt lat="43.3385487" lon="11.4904525"><ele>305.0</ele><time>2026-04-04T15:21:42.896Z</time></trkpt><trkpt lat="43.3383716" lon="11.4902676"><ele>304.0</ele><time>2026-04-04T15:21:43.906Z</time></trkpt><trkpt lat="43.3381967" lon="11.4900818"><ele>303.0</ele><time>2026-04-04T15:21:44.898Z</time></trkpt><trkpt lat="43.3380256" lon="11.489899"><ele>301.3333333333333</ele><time>2026-04-04T15:21:45.9Z</time></trkpt><trkpt lat="43.3378666" lon="11.4897307"><ele>299.66666666666663</ele><time>2026-04-04T15:21:46.904Z</time></trkpt><trkpt lat="43.3377083" lon="11.4895664"><ele>298.0</ele><time>2026-04-04T15:21:47.9Z</time></trkpt><trkpt lat="43.3375559" lon="11.4894029"><ele>297.66666666666663</ele><time>2026-04-04T15:21:48.898Z</time></trkpt><trkpt lat="43.337403" lon="11.4892412"><ele>297.3333333333333</ele><time>2026-04-04T15:21:49.896Z</time></trkpt><trkpt lat="43.3372454" lon="11.4890899"><ele>297.0</ele><time>2026-04-04T15:21:50.895Z</time></trkpt><trkpt lat="43.3370841" lon="11.488956"><ele>297.6666666666667</ele><time>2026-04-04T15:21:51.898Z</time></trkpt><trkpt lat="43.3369003" lon="11.4888477"><ele>298.33333333333337</ele><time>2026-04-04T15:21:52.899Z</time></trkpt><trkpt lat="43.3367173" lon="11.4887424"><ele>299.0</ele><time>2026-04-04T15:21:53.908Z</time></trkpt><trkpt lat="43.3365451" lon="11.4886102"><ele>299.0</ele><time>2026-04-04T15:21:54.895Z</time></trkpt><trkpt lat="43.3364075" lon="11.4884387"><ele>299.0</ele><time>2026-04-04T15:21:55.898Z</time></trkpt><trkpt lat="43.3362825" lon="11.4882423"><ele>299.0</ele><time>2026-04-04T15:21:56.901Z</time></trkpt><trkpt lat="43.3361552" lon="11.4880494"><ele>296.33333333333337</ele><time>2026-04-04T15:21:57.894Z</time></trkpt><trkpt lat="43.3360203" lon="11.4878547"><ele>293.6666666666667</ele><time>2026-04-04T15:21:58.89Z</time></trkpt><trkpt lat="43.3358705" lon="11.4876827"><ele>291.0</ele><time>2026-04-04T15:21:59.897Z</time></trkpt><trkpt lat="43.3357293" lon="11.4875072"><ele>291.0</ele><time>2026-04-04T15:22:00.905Z</time></trkpt><trkpt lat="43.3356034" lon="11.4872965"><ele>291.0</ele><time>2026-04-04T15:22:01.902Z</time></trkpt><trkpt lat="43.3354932" lon="11.4870706"><ele>291.0</ele><time>2026-04-04T15:22:02.893Z</time></trkpt><trkpt lat="43.3353891" lon="11.4868448"><ele>292.0</ele><time>2026-04-04T15:22:03.904Z</time></trkpt><trkpt lat="43.3352931" lon="11.4866233"><ele>293.0</ele><time>2026-04-04T15:22:04.904Z</time></trkpt><trkpt lat="43.3352014" lon="11.4864021"><ele>294.0</ele><time>2026-04-04T15:22:05.901Z</time></trkpt><trkpt lat="43.3351134" lon="11.4861831"><ele>291.0</ele><time>2026-04-04T15:22:06.901Z</time></trkpt><trkpt lat="43.3350338" lon="11.4859511"><ele>288.0</ele><time>2026-04-04T15:22:07.9Z</time></trkpt><trkpt lat="43.3349758" lon="11.4856973"><ele>285.0</ele><time>2026-04-04T15:22:08.894Z</time></trkpt><trkpt lat="43.3349274" lon="11.4854409"><ele>283.0</ele><time>2026-04-04T15:22:09.905Z</time></trkpt><trkpt lat="43.3348892" lon="11.4851713"><ele>281.0</ele><time>2026-04-04T15:22:10.901Z</time></trkpt><trkpt lat="43.3348528" lon="11.4848977"><ele>279.0</ele><time>2026-04-04T15:22:11.901Z</time></trkpt><trkpt lat="43.3348163" lon="11.4846235"><ele>277.6666666666667</ele><time>2026-04-04T15:22:12.897Z</time></trkpt><trkpt lat="43.3347865" lon="11.484349"><ele>276.33333333333337</ele><time>2026-04-04T15:22:13.9Z</time></trkpt><trkpt lat="43.3347626" lon="11.4840839"><ele>275.0</ele><time>2026-04-04T15:22:14.892Z</time></trkpt><trkpt lat="43.3347421" lon="11.4838211"><ele>274.6666666666667</ele><time>2026-04-04T15:22:15.891Z</time></trkpt><trkpt lat="43.3347245" lon="11.4835692"><ele>274.3333333333333</ele><time>2026-04-04T15:22:16.897Z</time></trkpt><trkpt lat="43.3347094" lon="11.4833217"><ele>274.0</ele><time>2026-04-04T15:22:17.892Z</time></trkpt><trkpt lat="43.3346899" lon="11.4830793"><ele>276.3333333333333</ele><time>2026-04-04T15:22:18.897Z</time></trkpt><trkpt lat="43.334662" lon="11.4828426"><ele>278.6666666666667</ele><time>2026-04-04T15:22:19.904Z</time></trkpt><trkpt lat="43.3346283" lon="11.4826118"><ele>281.0</ele><time>2026-04-04T15:22:20.892Z</time></trkpt><trkpt lat="43.3345975" lon="11.4823878"><ele>281.0</ele><time>2026-04-04T15:22:21.897Z</time></trkpt><trkpt lat="43.334594" lon="11.4821794"><ele>281.0</ele><time>2026-04-04T15:22:22.907Z</time></trkpt><trkpt lat="43.3346336" lon="11.4819768"><ele>281.0</ele><time>2026-04-04T15:22:23.896Z</time></trkpt><trkpt lat="43.3347043" lon="11.4817914"><ele>280.33333333333337</ele><time>2026-04-04T15:22:24.902Z</time></trkpt><trkpt lat="43.3347938" lon="11.4815998"><ele>279.6666666666667</ele><time>2026-04-04T15:22:25.896Z</time></trkpt><trkpt lat="43.3348983" lon="11.4814099"><ele>279.0</ele><time>2026-04-04T15:22:26.897Z</time></trkpt><trkpt lat="43.3350118" lon="11.4812273"><ele>279.0</ele><time>2026-04-04T15:22:27.904Z</time></trkpt><trkpt lat="43.3351197" lon="11.4810398"><ele>279.0</ele><time>2026-04-04T15:22:28.896Z</time></trkpt><trkpt lat="43.3352234" lon="11.4808602"><ele>279.0</ele><time>2026-04-04T15:22:29.897Z</time></trkpt><trkpt lat="43.3353189" lon="11.4806992"><ele>279.0</ele><time>2026-04-04T15:22:30.897Z</time></trkpt><trkpt lat="43.3354085" lon="11.4805582"><ele>279.0</ele><time>2026-04-04T15:22:31.901Z</time></trkpt><trkpt lat="43.3355097" lon="11.4804319"><ele>279.0</ele><time>2026-04-04T15:22:32.907Z</time></trkpt><trkpt lat="43.3356264" lon="11.4803229"><ele>279.0</ele><time>2026-04-04T15:22:33.899Z</time></trkpt><trkpt lat="43.3357562" lon="11.4802236"><ele>279.3333333333333</ele><time>2026-04-04T15:22:34.907Z</time></trkpt><trkpt lat="43.3358868" lon="11.4801136"><ele>279.66666666666663</ele><time>2026-04-04T15:22:35.897Z</time></trkpt><trkpt lat="43.336022" lon="11.479999"><ele>280.0</ele><time>2026-04-04T15:22:36.899Z</time></trkpt><trkpt lat="43.336161" lon="11.4798755"><ele>280.0</ele><time>2026-04-04T15:22:37.903Z</time></trkpt><trkpt lat="43.3363001" lon="11.4797529"><ele>280.0</ele><time>2026-04-04T15:22:38.892Z</time></trkpt><trkpt lat="43.3364424" lon="11.479615"><ele>280.0</ele><time>2026-04-04T15:22:39.899Z</time></trkpt><trkpt lat="43.3365868" lon="11.4794922"><ele>278.66666666666663</ele><time>2026-04-04T15:22:40.895Z</time></trkpt><trkpt lat="43.3367362" lon="11.4793876"><ele>277.3333333333333</ele><time>2026-04-04T15:22:41.904Z</time></trkpt><trkpt lat="43.3368949" lon="11.4793184"><ele>276.0</ele><time>2026-04-04T15:22:42.911Z</time></trkpt><trkpt lat="43.3370561" lon="11.4792741"><ele>276.0</ele><time>2026-04-04T15:22:43.897Z</time></trkpt><trkpt lat="43.3372166" lon="11.4792621"><ele>276.0</ele><time>2026-04-04T15:22:44.902Z</time></trkpt><trkpt lat="43.3373727" lon="11.4792595"><ele>276.0</ele><time>2026-04-04T15:22:45.9Z</time></trkpt><trkpt lat="43.3375298" lon="11.4792538"><ele>275.5</ele><time>2026-04-04T15:22:46.894Z</time></trkpt><trkpt lat="43.3376702" lon="11.4792147"><ele>275.0</ele><time>2026-04-04T15:22:47.896Z</time></trkpt><trkpt lat="43.3377818" lon="11.4791486"><ele>274.5</ele><time>2026-04-04T15:22:48.895Z</time></trkpt><trkpt lat="43.3378594" lon="11.4790425"><ele>274.0</ele><time>2026-04-04T15:22:49.894Z</time></trkpt><trkpt lat="43.3379053" lon="11.4789051"><ele>273.25</ele><time>2026-04-04T15:22:50.897Z</time></trkpt><trkpt lat="43.337911" lon="11.4787334"><ele>272.5</ele><time>2026-04-04T15:22:51.905Z</time></trkpt><trkpt lat="43.3378831" lon="11.4785631"><ele>271.75</ele><time>2026-04-04T15:22:52.9Z</time></trkpt><trkpt lat="43.3378403" lon="11.478365"><ele>271.0</ele><time>2026-04-04T15:22:53.898Z</time></trkpt><trkpt lat="43.3377977" lon="11.4781635"><ele>271.0</ele><time>2026-04-04T15:22:54.902Z</time></trkpt><trkpt lat="43.3377539" lon="11.4779447"><ele>271.0</ele><time>2026-04-04T15:22:55.9Z</time></trkpt><trkpt lat="43.3377054" lon="11.4777022"><ele>271.0</ele><time>2026-04-04T15:22:56.899Z</time></trkpt><trkpt lat="43.3376552" lon="11.4774563"><ele>269.3333333333333</ele><time>2026-04-04T15:22:57.894Z</time></trkpt><trkpt lat="43.3376029" lon="11.4772214"><ele>267.6666666666667</ele><time>2026-04-04T15:22:58.906Z</time></trkpt><trkpt lat="43.3375573" lon="11.4769946"><ele>266.0</ele><time>2026-04-04T15:22:59.897Z</time></trkpt><trkpt lat="43.3375224" lon="11.4767795"><ele>265.0</ele><time>2026-04-04T15:23:00.893Z</time></trkpt><trkpt lat="43.3375024" lon="11.4765542"><ele>264.0</ele><time>2026-04-04T15:23:01.889Z</time></trkpt><trkpt lat="43.3375218" lon="11.4763257"><ele>263.0</ele><time>2026-04-04T15:23:02.912Z</time></trkpt><trkpt lat="43.3375756" lon="11.4760974"><ele>262.33333333333337</ele><time>2026-04-04T15:23:03.89Z</time></trkpt><trkpt lat="43.3376409" lon="11.4758753"><ele>261.6666666666667</ele><time>2026-04-04T15:23:04.893Z</time></trkpt><trkpt lat="43.337697" lon="11.4756273"><ele>261.0</ele><time>2026-04-04T15:23:05.902Z</time></trkpt><trkpt lat="43.3377351" lon="11.4753684"><ele>258.3333333333333</ele><time>2026-04-04T15:23:06.891Z</time></trkpt><trkpt lat="43.3377728" lon="11.4751103"><ele>255.66666666666666</ele><time>2026-04-04T15:23:07.901Z</time></trkpt><trkpt lat="43.3378235" lon="11.4748534"><ele>253.0</ele><time>2026-04-04T15:23:08.895Z</time></trkpt><trkpt lat="43.3378941" lon="11.4746105"><ele>252.0</ele><time>2026-04-04T15:23:09.891Z</time></trkpt><trkpt lat="43.3379672" lon="11.4743921"><ele>251.0</ele><time>2026-04-04T15:23:10.896Z</time></trkpt><trkpt lat="43.3380403" lon="11.4742049"><ele>250.0</ele><time>2026-04-04T15:23:11.9Z</time></trkpt><trkpt lat="43.3381395" lon="11.4740702"><ele>250.0</ele><time>2026-04-04T15:23:12.899Z</time></trkpt><trkpt lat="43.3382685" lon="11.4739665"><ele>250.0</ele><time>2026-04-04T15:23:13.894Z</time></trkpt><trkpt lat="43.338413" lon="11.4738778"><ele>250.0</ele><time>2026-04-04T15:23:14.892Z</time></trkpt><trkpt lat="43.338567" lon="11.4738422"><ele>250.0</ele><time>2026-04-04T15:23:15.898Z</time></trkpt><trkpt lat="43.3387329" lon="11.4738244"><ele>250.0</ele><time>2026-04-04T15:23:16.896Z</time></trkpt><trkpt lat="43.3389039" lon="11.4737947"><ele>250.0</ele><time>2026-04-04T15:23:17.894Z</time></trkpt><trkpt lat="43.3390601" lon="11.4737443"><ele>245.66666666666666</ele><time>2026-04-04T15:23:18.893Z</time></trkpt><trkpt lat="43.3391893" lon="11.4736191"><ele>241.33333333333331</ele><time>2026-04-04T15:23:19.897Z</time></trkpt><trkpt lat="43.3393077" lon="11.4734433"><ele>237.0</ele><time>2026-04-04T15:23:20.897Z</time></trkpt><trkpt lat="43.3394238" lon="11.4732482"><ele>237.0</ele><time>2026-04-04T15:23:21.899Z</time></trkpt><trkpt lat="43.3395403" lon="11.4730462"><ele>237.0</ele><time>2026-04-04T15:23:22.899Z</time></trkpt><trkpt lat="43.3396576" lon="11.4728349"><ele>237.0</ele><time>2026-04-04T15:23:23.901Z</time></trkpt><trkpt lat="43.3397715" lon="11.4726038"><ele>234.66666666666669</ele><time>2026-04-04T15:23:24.901Z</time></trkpt><trkpt lat="43.3398823" lon="11.4723763"><ele>232.33333333333334</ele><time>2026-04-04T15:23:25.892Z</time></trkpt><trkpt lat="43.3399844" lon="11.4721702"><ele>230.0</ele><time>2026-04-04T15:23:26.897Z</time></trkpt><trkpt lat="43.3400556" lon="11.471947"><ele>230.0</ele><time>2026-04-04T15:23:27.899Z</time></trkpt><trkpt lat="43.3400947" lon="11.4716982"><ele>230.0</ele><time>2026-04-04T15:23:28.899Z</time></trkpt><trkpt lat="43.3400993" lon="11.4714548"><ele>230.0</ele><time>2026-04-04T15:23:29.897Z</time></trkpt><trkpt lat="43.3400719" lon="11.4712273"><ele>231.0</ele><time>2026-04-04T15:23:30.897Z</time></trkpt><trkpt lat="43.3400045" lon="11.4709963"><ele>232.0</ele><time>2026-04-04T15:23:31.897Z</time></trkpt><trkpt lat="43.3399313" lon="11.4707829"><ele>233.0</ele><time>2026-04-04T15:23:32.893Z</time></trkpt><trkpt lat="43.3398778" lon="11.4705772"><ele>233.66666666666669</ele><time>2026-04-04T15:23:33.891Z</time></trkpt><trkpt lat="43.3398542" lon="11.4703778"><ele>234.33333333333331</ele><time>2026-04-04T15:23:34.899Z</time></trkpt><trkpt lat="43.3398696" lon="11.4701622"><ele>235.0</ele><time>2026-04-04T15:23:35.898Z</time></trkpt><trkpt lat="43.3399103" lon="11.4699426"><ele>235.0</ele><time>2026-04-04T15:23:36.902Z</time></trkpt><trkpt lat="43.3399713" lon="11.4697214"><ele>235.0</ele><time>2026-04-04T15:23:37.893Z</time></trkpt><trkpt lat="43.3400579" lon="11.4695293"><ele>235.0</ele><time>2026-04-04T15:23:38.896Z</time></trkpt><trkpt lat="43.3401622" lon="11.4693656"><ele>234.25</ele><time>2026-04-04T15:23:39.894Z</time></trkpt><trkpt lat="43.3402882" lon="11.4692367"><ele>233.5</ele><time>2026-04-04T15:23:40.897Z</time></trkpt><trkpt lat="43.3404262" lon="11.4691695"><ele>232.75</ele><time>2026-04-04T15:23:41.893Z</time></trkpt><trkpt lat="43.3405678" lon="11.4691553"><ele>232.0</ele><time>2026-04-04T15:23:42.889Z</time></trkpt><trkpt lat="43.3407048" lon="11.4691911"><ele>233.5</ele><time>2026-04-04T15:23:43.893Z</time></trkpt><trkpt lat="43.3408433" lon="11.4692551"><ele>235.0</ele><time>2026-04-04T15:23:44.893Z</time></trkpt><trkpt lat="43.3409844" lon="11.4693208"><ele>236.5</ele><time>2026-04-04T15:23:45.892Z</time></trkpt><trkpt lat="43.3411217" lon="11.4693669"><ele>238.0</ele><time>2026-04-04T15:23:46.897Z</time></trkpt><trkpt lat="43.3412529" lon="11.4693731"><ele>238.0</ele><time>2026-04-04T15:23:47.892Z</time></trkpt><trkpt lat="43.341382" lon="11.469349"><ele>238.0</ele><time>2026-04-04T15:23:48.907Z</time></trkpt><trkpt lat="43.3414996" lon="11.4692891"><ele>238.0</ele><time>2026-04-04T15:23:49.893Z</time></trkpt><trkpt lat="43.3416154" lon="11.4692091"><ele>238.0</ele><time>2026-04-04T15:23:50.908Z</time></trkpt><trkpt lat="43.3417185" lon="11.4690872"><ele>238.75</ele><time>2026-04-04T15:23:51.897Z</time></trkpt><trkpt lat="43.3417912" lon="11.468932"><ele>239.5</ele><time>2026-04-04T15:23:52.893Z</time></trkpt><trkpt lat="43.3418469" lon="11.4687554"><ele>240.25</ele><time>2026-04-04T15:23:53.895Z</time></trkpt><trkpt lat="43.3418691" lon="11.4685624"><ele>241.0</ele><time>2026-04-04T15:23:54.892Z</time></trkpt><trkpt lat="43.3418691" lon="11.4683637"><ele>241.0</ele><time>2026-04-04T15:23:55.896Z</time></trkpt><trkpt lat="43.3418573" lon="11.4681503"><ele>241.0</ele><time>2026-04-04T15:23:56.901Z</time></trkpt><trkpt lat="43.341847" lon="11.4679252"><ele>241.0</ele><time>2026-04-04T15:23:57.894Z</time></trkpt><trkpt lat="43.3418364" lon="11.4676971"><ele>243.0</ele><time>2026-04-04T15:23:58.897Z</time></trkpt><trkpt lat="43.3418293" lon="11.4674636"><ele>245.0</ele><time>2026-04-04T15:23:59.894Z</time></trkpt><trkpt lat="43.3418226" lon="11.4672213"><ele>247.0</ele><time>2026-04-04T15:24:00.9Z</time></trkpt><trkpt lat="43.3418222" lon="11.4669712"><ele>249.0</ele><time>2026-04-04T15:24:01.888Z</time></trkpt><trkpt lat="43.3418139" lon="11.4667212"><ele>251.0</ele><time>2026-04-04T15:24:02.903Z</time></trkpt><trkpt lat="43.3417866" lon="11.4664664"><ele>253.0</ele><time>2026-04-04T15:24:03.898Z</time></trkpt><trkpt lat="43.3417291" lon="11.4662217"><ele>253.66666666666666</ele><time>2026-04-04T15:24:04.896Z</time></trkpt><trkpt lat="43.3416334" lon="11.4659928"><ele>254.33333333333331</ele><time>2026-04-04T15:24:05.898Z</time></trkpt><trkpt lat="43.3415384" lon="11.4657834"><ele>255.0</ele><time>2026-04-04T15:24:06.895Z</time></trkpt><trkpt lat="43.3414727" lon="11.465594"><ele>255.5</ele><time>2026-04-04T15:24:07.902Z</time></trkpt><trkpt lat="43.3414603" lon="11.4654069"><ele>256.0</ele><time>2026-04-04T15:24:08.897Z</time></trkpt><trkpt lat="43.3414877" lon="11.4652249"><ele>256.5</ele><time>2026-04-04T15:24:09.896Z</time></trkpt><trkpt lat="43.3415518" lon="11.4650832"><ele>257.0</ele><time>2026-04-04T15:24:10.9Z</time></trkpt><trkpt lat="43.3416536" lon="11.464997"><ele>257.0</ele><time>2026-04-04T15:24:11.889Z</time></trkpt><trkpt lat="43.341773" lon="11.4649344"><ele>257.0</ele><time>2026-04-04T15:24:12.907Z</time></trkpt><trkpt lat="43.3418933" lon="11.4649481"><ele>257.0</ele><time>2026-04-04T15:24:13.902Z</time></trkpt><trkpt lat="43.3420113" lon="11.4650158"><ele>257.0</ele><time>2026-04-04T15:24:14.892Z</time></trkpt><trkpt lat="43.3421212" lon="11.4651314"><ele>257.75</ele><time>2026-04-04T15:24:15.896Z</time></trkpt><trkpt lat="43.3422316" lon="11.4652574"><ele>258.5</ele><time>2026-04-04T15:24:16.889Z</time></trkpt><trkpt lat="43.342337" lon="11.4653831"><ele>259.25</ele><time>2026-04-04T15:24:17.902Z</time></trkpt><trkpt lat="43.3424468" lon="11.4654984"><ele>260.0</ele><time>2026-04-04T15:24:18.905Z</time></trkpt><trkpt lat="43.3425693" lon="11.4655903"><ele>260.0</ele><time>2026-04-04T15:24:19.893Z</time></trkpt><trkpt lat="43.3426953" lon="11.4656451"><ele>260.0</ele><time>2026-04-04T15:24:20.892Z</time></trkpt><trkpt lat="43.3428167" lon="11.4656373"><ele>260.0</ele><time>2026-04-04T15:24:21.902Z</time></trkpt><trkpt lat="43.3429368" lon="11.4655964"><ele>260.0</ele><time>2026-04-04T15:24:22.904Z</time></trkpt><trkpt lat="43.3430576" lon="11.4655237"><ele>260.5</ele><time>2026-04-04T15:24:23.903Z</time></trkpt><trkpt lat="43.3431905" lon="11.4654528"><ele>261.0</ele><time>2026-04-04T15:24:24.898Z</time></trkpt><trkpt lat="43.3433287" lon="11.4653924"><ele>261.5</ele><time>2026-04-04T15:24:25.905Z</time></trkpt><trkpt lat="43.3434787" lon="11.4653554"><ele>262.0</ele><time>2026-04-04T15:24:26.895Z</time></trkpt><trkpt lat="43.3436303" lon="11.4653661"><ele>262.66666666666663</ele><time>2026-04-04T15:24:27.896Z</time></trkpt><trkpt lat="43.3437992" lon="11.4654075"><ele>263.3333333333333</ele><time>2026-04-04T15:24:28.891Z</time></trkpt><trkpt lat="43.3439711" lon="11.4654576"><ele>264.0</ele><time>2026-04-04T15:24:29.894Z</time></trkpt><trkpt lat="43.3441494" lon="11.465503"><ele>264.0</ele><time>2026-04-04T15:24:30.9Z</time></trkpt><trkpt lat="43.3443248" lon="11.4655472"><ele>264.0</ele><time>2026-04-04T15:24:31.907Z</time></trkpt><trkpt lat="43.3445069" lon="11.4655867"><ele>264.0</ele><time>2026-04-04T15:24:32.898Z</time></trkpt><trkpt lat="43.3446836" lon="11.4656293"><ele>266.6666666666667</ele><time>2026-04-04T15:24:33.899Z</time></trkpt><trkpt lat="43.344863" lon="11.4656843"><ele>269.33333333333337</ele><time>2026-04-04T15:24:34.897Z</time></trkpt><trkpt lat="43.345024" lon="11.4657636"><ele>272.0</ele><time>2026-04-04T15:24:35.91Z</time></trkpt><trkpt lat="43.3451703" lon="11.4658597"><ele>272.0</ele><time>2026-04-04T15:24:36.902Z</time></trkpt><trkpt lat="43.3453051" lon="11.4659452"><ele>272.0</ele><time>2026-04-04T15:24:37.899Z</time></trkpt><trkpt lat="43.345436" lon="11.4660004"><ele>272.0</ele><time>2026-04-04T15:24:38.899Z</time></trkpt><trkpt lat="43.3455715" lon="11.4660143"><ele>272.0</ele><time>2026-04-04T15:24:39.905Z</time></trkpt><trkpt lat="43.3457102" lon="11.4659959"><ele>273.25</ele><time>2026-04-04T15:24:40.895Z</time></trkpt><trkpt lat="43.345849" lon="11.4659566"><ele>274.5</ele><time>2026-04-04T15:24:41.899Z</time></trkpt><trkpt lat="43.3459758" lon="11.4659163"><ele>275.75</ele><time>2026-04-04T15:24:42.898Z</time></trkpt><trkpt lat="43.3461078" lon="11.4658887"><ele>277.0</ele><time>2026-04-04T15:24:43.898Z</time></trkpt><trkpt lat="43.3462365" lon="11.4658908"><ele>277.0</ele><time>2026-04-04T15:24:44.89Z</time></trkpt><trkpt lat="43.3463521" lon="11.465901"><ele>277.0</ele><time>2026-04-04T15:24:45.896Z</time></trkpt><trkpt lat="43.3464536" lon="11.4659156"><ele>277.0</ele><time>2026-04-04T15:24:46.897Z</time></trkpt><trkpt lat="43.3465468" lon="11.4659099"><ele>277.0</ele><time>2026-04-04T15:24:47.898Z</time></trkpt><trkpt lat="43.3466432" lon="11.4658821"><ele>277.0</ele><time>2026-04-04T15:24:48.899Z</time></trkpt><trkpt lat="43.3467354" lon="11.4658285"><ele>276.75</ele><time>2026-04-04T15:24:49.895Z</time></trkpt><trkpt lat="43.3468265" lon="11.4657571"><ele>276.5</ele><time>2026-04-04T15:24:50.893Z</time></trkpt><trkpt lat="43.3469063" lon="11.4656543"><ele>276.25</ele><time>2026-04-04T15:24:51.893Z</time></trkpt><trkpt lat="43.3469928" lon="11.4655282"><ele>276.0</ele><time>2026-04-04T15:24:52.896Z</time></trkpt><trkpt lat="43.3470881" lon="11.4654033"><ele>275.0</ele><time>2026-04-04T15:24:53.896Z</time></trkpt><trkpt lat="43.3471915" lon="11.4652638"><ele>274.0</ele><time>2026-04-04T15:24:54.897Z</time></trkpt><trkpt lat="43.3473027" lon="11.4651217"><ele>273.0</ele><time>2026-04-04T15:24:55.897Z</time></trkpt><trkpt lat="43.347411" lon="11.4649649"><ele>274.0</ele><time>2026-04-04T15:24:56.895Z</time></trkpt><trkpt lat="43.3475176" lon="11.4648128"><ele>275.0</ele><time>2026-04-04T15:24:57.896Z</time></trkpt><trkpt lat="43.3476336" lon="11.4646823"><ele>276.0</ele><time>2026-04-04T15:24:58.902Z</time></trkpt><trkpt lat="43.3477559" lon="11.4645745"><ele>277.0</ele><time>2026-04-04T15:24:59.909Z</time></trkpt><trkpt lat="43.347899" lon="11.4645082"><ele>280.0</ele><time>2026-04-04T15:25:00.9Z</time></trkpt><trkpt lat="43.3480504" lon="11.4644794"><ele>283.0</ele><time>2026-04-04T15:25:01.89Z</time></trkpt><trkpt lat="43.3482072" lon="11.4644589"><ele>286.0</ele><time>2026-04-04T15:25:02.897Z</time></trkpt><trkpt lat="43.3483591" lon="11.464441"><ele>286.0</ele><time>2026-04-04T15:25:03.902Z</time></trkpt><trkpt lat="43.348512" lon="11.4644333"><ele>286.0</ele><time>2026-04-04T15:25:04.892Z</time></trkpt><trkpt lat="43.348661" lon="11.4644253"><ele>286.0</ele><time>2026-04-04T15:25:05.893Z</time></trkpt><trkpt lat="43.3488159" lon="11.4644235"><ele>287.5</ele><time>2026-04-04T15:25:06.9Z</time></trkpt><trkpt lat="43.3489627" lon="11.4644464"><ele>289.0</ele><time>2026-04-04T15:25:07.898Z</time></trkpt><trkpt lat="43.3490936" lon="11.4645235"><ele>290.5</ele><time>2026-04-04T15:25:08.904Z</time></trkpt><trkpt lat="43.3492082" lon="11.4646527"><ele>292.0</ele><time>2026-04-04T15:25:09.895Z</time></trkpt><trkpt lat="43.3493195" lon="11.4647798"><ele>295.0</ele><time>2026-04-04T15:25:10.896Z</time></trkpt><trkpt lat="43.34944" lon="11.464893"><ele>298.0</ele><time>2026-04-04T15:25:11.9Z</time></trkpt><trkpt lat="43.3495593" lon="11.4649799"><ele>301.0</ele><time>2026-04-04T15:25:12.895Z</time></trkpt><trkpt lat="43.3496906" lon="11.4650148"><ele>304.0</ele><time>2026-04-04T15:25:13.896Z</time></trkpt><trkpt lat="43.3498241" lon="11.4649902"><ele>303.5</ele><time>2026-04-04T15:25:14.895Z</time></trkpt><trkpt lat="43.3499429" lon="11.4648941"><ele>303.0</ele><time>2026-04-04T15:25:15.906Z</time></trkpt><trkpt lat="43.3500062" lon="11.4647543"><ele>302.5</ele><time>2026-04-04T15:25:16.896Z</time></trkpt><trkpt lat="43.3500495" lon="11.4645767"><ele>302.0</ele><time>2026-04-04T15:25:17.898Z</time></trkpt><trkpt lat="43.3500977" lon="11.4644015"><ele>302.0</ele><time>2026-04-04T15:25:18.902Z</time></trkpt><trkpt lat="43.3501463" lon="11.4642339"><ele>302.0</ele><time>2026-04-04T15:25:19.888Z</time></trkpt><trkpt lat="43.350219" lon="11.4640803"><ele>302.0</ele><time>2026-04-04T15:25:20.899Z</time></trkpt><trkpt lat="43.3503202" lon="11.4639637"><ele>302.0</ele><time>2026-04-04T15:25:21.9Z</time></trkpt><trkpt lat="43.3504327" lon="11.4638582"><ele>301.25</ele><time>2026-04-04T15:25:22.895Z</time></trkpt><trkpt lat="43.3505046" lon="11.4637374"><ele>300.5</ele><time>2026-04-04T15:25:23.886Z</time></trkpt><trkpt lat="43.3505295" lon="11.4635872"><ele>299.75</ele><time>2026-04-04T15:25:24.897Z</time></trkpt><trkpt lat="43.3505073" lon="11.4634137"><ele>299.0</ele><time>2026-04-04T15:25:25.887Z</time></trkpt><trkpt lat="43.3504598" lon="11.4632566"><ele>299.0</ele><time>2026-04-04T15:25:26.885Z</time></trkpt><trkpt lat="43.3503809" lon="11.4631126"><ele>299.0</ele><time>2026-04-04T15:25:27.901Z</time></trkpt><trkpt lat="43.3502928" lon="11.4629946"><ele>299.0</ele><time>2026-04-04T15:25:28.896Z</time></trkpt><trkpt lat="43.3502001" lon="11.4628948"><ele>299.0</ele><time>2026-04-04T15:25:29.895Z</time></trkpt><trkpt lat="43.3501407" lon="11.4627798"><ele>300.33333333333337</ele><time>2026-04-04T15:25:30.894Z</time></trkpt><trkpt lat="43.3501224" lon="11.4626547"><ele>301.6666666666667</ele><time>2026-04-04T15:25:31.906Z</time></trkpt><trkpt lat="43.3501293" lon="11.4625501"><ele>303.0</ele><time>2026-04-04T15:25:32.893Z</time></trkpt><trkpt lat="43.3501651" lon="11.4624628"><ele>304.3333333333333</ele><time>2026-04-04T15:25:33.888Z</time></trkpt><trkpt lat="43.3502379" lon="11.4624232"><ele>305.66666666666663</ele><time>2026-04-04T15:25:34.895Z</time></trkpt><trkpt lat="43.3503317" lon="11.4623861"><ele>307.0</ele><time>2026-04-04T15:25:35.889Z</time></trkpt><trkpt lat="43.3504446" lon="11.4623393"><ele>307.0</ele><time>2026-04-04T15:25:36.89Z</time></trkpt><trkpt lat="43.3505664" lon="11.4622797"><ele>307.0</ele><time>2026-04-04T15:25:37.897Z</time></trkpt><trkpt lat="43.3506754" lon="11.4622292"><ele>307.0</ele><time>2026-04-04T15:25:38.891Z</time></trkpt><trkpt lat="43.3507917" lon="11.4621788"><ele>307.0</ele><time>2026-04-04T15:25:39.891Z</time></trkpt><trkpt lat="43.3508992" lon="11.462108"><ele>307.0</ele><time>2026-04-04T15:25:40.889Z</time></trkpt><trkpt lat="43.351003" lon="11.4620277"><ele>307.0</ele><time>2026-04-04T15:25:41.883Z</time></trkpt><trkpt lat="43.351106" lon="11.4619458"><ele>307.0</ele><time>2026-04-04T15:25:42.884Z</time></trkpt><trkpt lat="43.3512105" lon="11.4618702"><ele>307.0</ele><time>2026-04-04T15:25:43.903Z</time></trkpt><trkpt lat="43.3513132" lon="11.4618065"><ele>308.2</ele><time>2026-04-04T15:25:44.888Z</time></trkpt><trkpt lat="43.3514088" lon="11.4617733"><ele>309.4</ele><time>2026-04-04T15:25:45.891Z</time></trkpt><trkpt lat="43.3515003" lon="11.461764"><ele>310.6</ele><time>2026-04-04T15:25:46.898Z</time></trkpt><trkpt lat="43.3515898" lon="11.4618072"><ele>311.8</ele><time>2026-04-04T15:25:47.884Z</time></trkpt><trkpt lat="43.3516777" lon="11.4618566"><ele>313.0</ele><time>2026-04-04T15:25:48.884Z</time></trkpt><trkpt lat="43.3517834" lon="11.4618902"><ele>313.0</ele><time>2026-04-04T15:25:49.888Z</time></trkpt><trkpt lat="43.3518988" lon="11.4618793"><ele>313.0</ele><time>2026-04-04T15:25:50.882Z</time></trkpt><trkpt lat="43.3520167" lon="11.4618297"><ele>313.0</ele><time>2026-04-04T15:25:51.889Z</time></trkpt><trkpt lat="43.3521384" lon="11.4617599"><ele>313.0</ele><time>2026-04-04T15:25:52.89Z</time></trkpt><trkpt lat="43.3522689" lon="11.4616914"><ele>314.0</ele><time>2026-04-04T15:25:53.888Z</time></trkpt><trkpt lat="43.3523975" lon="11.4616284"><ele>315.0</ele><time>2026-04-04T15:25:54.881Z</time></trkpt><trkpt lat="43.3525207" lon="11.461588"><ele>316.0</ele><time>2026-04-04T15:25:55.882Z</time></trkpt><trkpt lat="43.3526411" lon="11.4615559"><ele>317.0</ele><time>2026-04-04T15:25:56.89Z</time></trkpt><trkpt lat="43.3527424" lon="11.4615158"><ele>317.0</ele><time>2026-04-04T15:25:57.892Z</time></trkpt><trkpt lat="43.3528274" lon="11.4614405"><ele>317.0</ele><time>2026-04-04T15:25:58.885Z</time></trkpt><trkpt lat="43.3528708" lon="11.4613181"><ele>317.0</ele><time>2026-04-04T15:25:59.899Z</time></trkpt><trkpt lat="43.3528904" lon="11.4611629"><ele>317.0</ele><time>2026-04-04T15:26:00.894Z</time></trkpt><trkpt lat="43.3529054" lon="11.4609913"><ele>317.0</ele><time>2026-04-04T15:26:01.895Z</time></trkpt><trkpt lat="43.3529451" lon="11.4608203"><ele>316.0</ele><time>2026-04-04T15:26:02.901Z</time></trkpt><trkpt lat="43.3530196" lon="11.4606976"><ele>315.0</ele><time>2026-04-04T15:26:03.889Z</time></trkpt><trkpt lat="43.3531223" lon="11.4606303"><ele>314.0</ele><time>2026-04-04T15:26:04.895Z</time></trkpt><trkpt lat="43.3532323" lon="11.4605968"><ele>313.0</ele><time>2026-04-04T15:26:05.891Z</time></trkpt><trkpt lat="43.3533533" lon="11.4606049"><ele>313.0</ele><time>2026-04-04T15:26:06.895Z</time></trkpt><trkpt lat="43.3534734" lon="11.460606"><ele>313.0</ele><time>2026-04-04T15:26:07.891Z</time></trkpt><trkpt lat="43.35359" lon="11.4605964"><ele>313.0</ele><time>2026-04-04T15:26:08.896Z</time></trkpt><trkpt lat="43.3536956" lon="11.4605597"><ele>313.0</ele><time>2026-04-04T15:26:09.9Z</time></trkpt><trkpt lat="43.3537668" lon="11.4604701"><ele>313.0</ele><time>2026-04-04T15:26:10.894Z</time></trkpt><trkpt lat="43.353799" lon="11.460336"><ele>309.5</ele><time>2026-04-04T15:26:11.886Z</time></trkpt><trkpt lat="43.3537936" lon="11.4601964"><ele>306.0</ele><time>2026-04-04T15:26:12.888Z</time></trkpt><trkpt lat="43.3537384" lon="11.4600697"><ele>302.5</ele><time>2026-04-04T15:26:13.89Z</time></trkpt><trkpt lat="43.3536648" lon="11.459942"><ele>299.0</ele><time>2026-04-04T15:26:14.897Z</time></trkpt><trkpt lat="43.3535651" lon="11.4598198"><ele>299.0</ele><time>2026-04-04T15:26:15.888Z</time></trkpt><trkpt lat="43.3534591" lon="11.4596803"><ele>299.0</ele><time>2026-04-04T15:26:16.886Z</time></trkpt><trkpt lat="43.3533402" lon="11.4595356"><ele>299.0</ele><time>2026-04-04T15:26:17.893Z</time></trkpt><trkpt lat="43.3532291" lon="11.4593771"><ele>299.0</ele><time>2026-04-04T15:26:18.895Z</time></trkpt><trkpt lat="43.3531182" lon="11.4592091"><ele>299.0</ele><time>2026-04-04T15:26:19.891Z</time></trkpt><trkpt lat="43.353013" lon="11.4590121"><ele>299.0</ele><time>2026-04-04T15:26:20.893Z</time></trkpt><trkpt lat="43.3529209" lon="11.4587908"><ele>294.0</ele><time>2026-04-04T15:26:21.882Z</time></trkpt><trkpt lat="43.3528352" lon="11.4585613"><ele>289.0</ele><time>2026-04-04T15:26:22.884Z</time></trkpt><trkpt lat="43.3527437" lon="11.458341"><ele>284.0</ele><time>2026-04-04T15:26:23.882Z</time></trkpt><trkpt lat="43.3526453" lon="11.4581112"><ele>283.6666666666667</ele><time>2026-04-04T15:26:24.894Z</time></trkpt><trkpt lat="43.3525489" lon="11.4578826"><ele>283.3333333333333</ele><time>2026-04-04T15:26:25.889Z</time></trkpt><trkpt lat="43.3524622" lon="11.4576489"><ele>283.0</ele><time>2026-04-04T15:26:26.892Z</time></trkpt><trkpt lat="43.3523838" lon="11.4574289"><ele>283.0</ele><time>2026-04-04T15:26:27.902Z</time></trkpt><trkpt lat="43.3523262" lon="11.4572132"><ele>283.0</ele><time>2026-04-04T15:26:28.896Z</time></trkpt><trkpt lat="43.3522749" lon="11.4570198"><ele>283.0</ele><time>2026-04-04T15:26:29.887Z</time></trkpt><trkpt lat="43.3522354" lon="11.4568293"><ele>281.25</ele><time>2026-04-04T15:26:30.893Z</time></trkpt><trkpt lat="43.3522095" lon="11.4566562"><ele>279.5</ele><time>2026-04-04T15:26:31.894Z</time></trkpt><trkpt lat="43.352222" lon="11.4564921"><ele>277.75</ele><time>2026-04-04T15:26:32.896Z</time></trkpt><trkpt lat="43.3522773" lon="11.4563333"><ele>276.0</ele><time>2026-04-04T15:26:33.893Z</time></trkpt><trkpt lat="43.3523568" lon="11.4561968"><ele>274.40000000000003</ele><time>2026-04-04T15:26:34.893Z</time></trkpt><trkpt lat="43.3524336" lon="11.4561294"><ele>272.8</ele><time>2026-04-04T15:26:35.902Z</time></trkpt><trkpt lat="43.3525259" lon="11.456102"><ele>271.20000000000005</ele><time>2026-04-04T15:26:36.895Z</time></trkpt><trkpt lat="43.3526307" lon="11.456124"><ele>269.6</ele><time>2026-04-04T15:26:37.905Z</time></trkpt><trkpt lat="43.352754" lon="11.4561452"><ele>268.0</ele><time>2026-04-04T15:26:38.899Z</time></trkpt><trkpt lat="43.3528701" lon="11.4561372"><ele>268.0</ele><time>2026-04-04T15:26:39.9Z</time></trkpt><trkpt lat="43.3529771" lon="11.4560693"><ele>268.0</ele><time>2026-04-04T15:26:40.883Z</time></trkpt><trkpt lat="43.3530623" lon="11.4559547"><ele>268.0</ele><time>2026-04-04T15:26:41.891Z</time></trkpt><trkpt lat="43.353143" lon="11.4558016"><ele>268.0</ele><time>2026-04-04T15:26:42.892Z</time></trkpt><trkpt lat="43.3532108" lon="11.4556401"><ele>268.0</ele><time>2026-04-04T15:26:43.896Z</time></trkpt><trkpt lat="43.3532659" lon="11.4554593"><ele>268.0</ele><time>2026-04-04T15:26:44.892Z</time></trkpt><trkpt lat="43.3533262" lon="11.4552896"><ele>268.0</ele><time>2026-04-04T15:26:45.894Z</time></trkpt><trkpt lat="43.3533948" lon="11.4551642"><ele>268.0</ele><time>2026-04-04T15:26:46.893Z</time></trkpt><trkpt lat="43.353484" lon="11.4550943"><ele>268.4</ele><time>2026-04-04T15:26:47.896Z</time></trkpt><trkpt lat="43.3535995" lon="11.455079"><ele>268.8</ele><time>2026-04-04T15:26:48.887Z</time></trkpt><trkpt lat="43.3537004" lon="11.4551359"><ele>269.2</ele><time>2026-04-04T15:26:49.889Z</time></trkpt><trkpt lat="43.3537786" lon="11.4552321"><ele>269.6</ele><time>2026-04-04T15:26:50.894Z</time></trkpt><trkpt lat="43.3538423" lon="11.4553669"><ele>270.0</ele><time>2026-04-04T15:26:51.888Z</time></trkpt><trkpt lat="43.3539032" lon="11.4554846"><ele>270.0</ele><time>2026-04-04T15:26:52.888Z</time></trkpt><trkpt lat="43.3539679" lon="11.4555537"><ele>270.0</ele><time>2026-04-04T15:26:53.899Z</time></trkpt><trkpt lat="43.3540347" lon="11.455557"><ele>270.0</ele><time>2026-04-04T15:26:54.894Z</time></trkpt><trkpt lat="43.3540908" lon="11.4555023"><ele>270.0</ele><time>2026-04-04T15:26:55.898Z</time></trkpt><trkpt lat="43.3541188" lon="11.455399"><ele>270.0</ele><time>2026-04-04T15:26:56.885Z</time></trkpt><trkpt lat="43.3541099" lon="11.4552796"><ele>270.0</ele><time>2026-04-04T15:26:57.893Z</time></trkpt><trkpt lat="43.3540735" lon="11.4551529"><ele>267.75</ele><time>2026-04-04T15:26:58.898Z</time></trkpt><trkpt lat="43.3540292" lon="11.4550153"><ele>265.5</ele><time>2026-04-04T15:26:59.892Z</time></trkpt><trkpt lat="43.3539871" lon="11.4548569"><ele>263.25</ele><time>2026-04-04T15:27:00.882Z</time></trkpt><trkpt lat="43.3539415" lon="11.4546813"><ele>261.0</ele><time>2026-04-04T15:27:01.884Z</time></trkpt><trkpt lat="43.3538842" lon="11.4544692"><ele>258.3333333333333</ele><time>2026-04-04T15:27:02.883Z</time></trkpt><trkpt lat="43.3538259" lon="11.4542464"><ele>255.66666666666666</ele><time>2026-04-04T15:27:03.893Z</time></trkpt><trkpt lat="43.3537571" lon="11.4540187"><ele>253.0</ele><time>2026-04-04T15:27:04.89Z</time></trkpt><trkpt lat="43.3536666" lon="11.4537871"><ele>252.0</ele><time>2026-04-04T15:27:05.893Z</time></trkpt><trkpt lat="43.3535496" lon="11.453562"><ele>251.0</ele><time>2026-04-04T15:27:06.889Z</time></trkpt><trkpt lat="43.3534228" lon="11.4533446"><ele>250.0</ele><time>2026-04-04T15:27:07.886Z</time></trkpt><trkpt lat="43.3532864" lon="11.4531522"><ele>250.0</ele><time>2026-04-04T15:27:08.884Z</time></trkpt><trkpt lat="43.353149" lon="11.4529652"><ele>250.0</ele><time>2026-04-04T15:27:09.892Z</time></trkpt><trkpt lat="43.3530205" lon="11.4527841"><ele>250.0</ele><time>2026-04-04T15:27:10.89Z</time></trkpt><trkpt lat="43.3529181" lon="11.4525956"><ele>246.0</ele><time>2026-04-04T15:27:11.885Z</time></trkpt><trkpt lat="43.3528305" lon="11.4523891"><ele>242.0</ele><time>2026-04-04T15:27:12.887Z</time></trkpt><trkpt lat="43.3527588" lon="11.4521797"><ele>238.0</ele><time>2026-04-04T15:27:13.891Z</time></trkpt><trkpt lat="43.3527086" lon="11.4519631"><ele>235.66666666666666</ele><time>2026-04-04T15:27:14.89Z</time></trkpt><trkpt lat="43.3526934" lon="11.4517196"><ele>233.33333333333331</ele><time>2026-04-04T15:27:15.899Z</time></trkpt><trkpt lat="43.352707" lon="11.4514709"><ele>231.0</ele><time>2026-04-04T15:27:16.898Z</time></trkpt><trkpt lat="43.3527337" lon="11.4512308"><ele>229.66666666666669</ele><time>2026-04-04T15:27:17.9Z</time></trkpt><trkpt lat="43.3527605" lon="11.4509691"><ele>228.33333333333334</ele><time>2026-04-04T15:27:18.898Z</time></trkpt><trkpt lat="43.3527867" lon="11.4506943"><ele>227.0</ele><time>2026-04-04T15:27:19.893Z</time></trkpt><trkpt lat="43.3528115" lon="11.4504185"><ele>226.66666666666669</ele><time>2026-04-04T15:27:20.891Z</time></trkpt><trkpt lat="43.352839" lon="11.4501443"><ele>226.33333333333331</ele><time>2026-04-04T15:27:21.898Z</time></trkpt><trkpt lat="43.3528613" lon="11.4498884"><ele>226.0</ele><time>2026-04-04T15:27:22.895Z</time></trkpt><trkpt lat="43.3528687" lon="11.4496604"><ele>228.0</ele><time>2026-04-04T15:27:23.902Z</time></trkpt><trkpt lat="43.3528267" lon="11.4494605"><ele>230.0</ele><time>2026-04-04T15:27:24.896Z</time></trkpt><trkpt lat="43.3527523" lon="11.449274"><ele>232.0</ele><time>2026-04-04T15:27:25.896Z</time></trkpt><trkpt lat="43.3526354" lon="11.4491128"><ele>232.0</ele><time>2026-04-04T15:27:26.895Z</time></trkpt><trkpt lat="43.352498" lon="11.4489982"><ele>232.0</ele><time>2026-04-04T15:27:27.894Z</time></trkpt><trkpt lat="43.3523464" lon="11.4488854"><ele>232.0</ele><time>2026-04-04T15:27:28.897Z</time></trkpt><trkpt lat="43.3521984" lon="11.4487922"><ele>232.5</ele><time>2026-04-04T15:27:29.891Z</time></trkpt><trkpt lat="43.352067" lon="11.4486778"><ele>233.0</ele><time>2026-04-04T15:27:30.903Z</time></trkpt><trkpt lat="43.3519608" lon="11.4485546"><ele>233.5</ele><time>2026-04-04T15:27:31.9Z</time></trkpt><trkpt lat="43.3518843" lon="11.4484015"><ele>234.0</ele><time>2026-04-04T15:27:32.893Z</time></trkpt><trkpt lat="43.3518343" lon="11.4482058"><ele>234.0</ele><time>2026-04-04T15:27:33.896Z</time></trkpt><trkpt lat="43.3518073" lon="11.4479995"><ele>234.0</ele><time>2026-04-04T15:27:34.9Z</time></trkpt><trkpt lat="43.3517948" lon="11.4477852"><ele>234.0</ele><time>2026-04-04T15:27:35.892Z</time></trkpt><trkpt lat="43.3517883" lon="11.4475719"><ele>234.0</ele><time>2026-04-04T15:27:36.89Z</time></trkpt><trkpt lat="43.3517845" lon="11.4473443"><ele>234.0</ele><time>2026-04-04T15:27:37.896Z</time></trkpt><trkpt lat="43.3517868" lon="11.4471193"><ele>234.0</ele><time>2026-04-04T15:27:38.893Z</time></trkpt><trkpt lat="43.3517904" lon="11.4468798"><ele>234.33333333333331</ele><time>2026-04-04T15:27:39.902Z</time></trkpt><trkpt lat="43.3517914" lon="11.4466446"><ele>234.66666666666666</ele><time>2026-04-04T15:27:40.905Z</time></trkpt><trkpt lat="43.3517915" lon="11.4464027"><ele>235.0</ele><time>2026-04-04T15:27:41.897Z</time></trkpt><trkpt lat="43.3517853" lon="11.4461581"><ele>236.66666666666666</ele><time>2026-04-04T15:27:42.897Z</time></trkpt><trkpt lat="43.3517848" lon="11.4459199"><ele>238.33333333333331</ele><time>2026-04-04T15:27:43.901Z</time></trkpt><trkpt lat="43.351787" lon="11.4456849"><ele>240.0</ele><time>2026-04-04T15:27:44.905Z</time></trkpt><trkpt lat="43.3517829" lon="11.4454433"><ele>241.33333333333331</ele><time>2026-04-04T15:27:45.897Z</time></trkpt><trkpt lat="43.3517724" lon="11.445203"><ele>242.66666666666666</ele><time>2026-04-04T15:27:46.892Z</time></trkpt><trkpt lat="43.3517498" lon="11.44497"><ele>244.0</ele><time>2026-04-04T15:27:47.892Z</time></trkpt><trkpt lat="43.3517101" lon="11.4447508"><ele>244.5</ele><time>2026-04-04T15:27:48.887Z</time></trkpt><trkpt lat="43.3516622" lon="11.4445592"><ele>245.0</ele><time>2026-04-04T15:27:49.895Z</time></trkpt><trkpt lat="43.3516171" lon="11.4443675"><ele>245.5</ele><time>2026-04-04T15:27:50.897Z</time></trkpt><trkpt lat="43.3515787" lon="11.4441688"><ele>246.0</ele><time>2026-04-04T15:27:51.893Z</time></trkpt><trkpt lat="43.3515534" lon="11.4439683"><ele>244.25</ele><time>2026-04-04T15:27:52.894Z</time></trkpt><trkpt lat="43.3515375" lon="11.4437664"><ele>242.5</ele><time>2026-04-04T15:27:53.903Z</time></trkpt><trkpt lat="43.3515426" lon="11.4435707"><ele>240.75</ele><time>2026-04-04T15:27:54.895Z</time></trkpt><trkpt lat="43.3515811" lon="11.4434141"><ele>239.0</ele><time>2026-04-04T15:27:55.907Z</time></trkpt><trkpt lat="43.3516579" lon="11.4432739"><ele>239.0</ele><time>2026-04-04T15:27:56.891Z</time></trkpt><trkpt lat="43.3517587" lon="11.443189"><ele>239.0</ele><time>2026-04-04T15:27:57.89Z</time></trkpt><trkpt lat="43.3518836" lon="11.4431204"><ele>239.0</ele><time>2026-04-04T15:27:58.893Z</time></trkpt><trkpt lat="43.3520269" lon="11.4430589"><ele>239.0</ele><time>2026-04-04T15:27:59.892Z</time></trkpt><trkpt lat="43.3521714" lon="11.4430052"><ele>236.66666666666669</ele><time>2026-04-04T15:28:00.901Z</time></trkpt><trkpt lat="43.3523211" lon="11.4429572"><ele>234.33333333333331</ele><time>2026-04-04T15:28:01.9Z</time></trkpt><trkpt lat="43.3524754" lon="11.4429103"><ele>232.0</ele><time>2026-04-04T15:28:02.894Z</time></trkpt><trkpt lat="43.3526236" lon="11.4428487"><ele>232.0</ele><time>2026-04-04T15:28:03.903Z</time></trkpt><trkpt lat="43.3527342" lon="11.4427476"><ele>232.0</ele><time>2026-04-04T15:28:04.893Z</time></trkpt><trkpt lat="43.3528004" lon="11.4426363"><ele>232.0</ele><time>2026-04-04T15:28:05.892Z</time></trkpt><trkpt lat="43.3528196" lon="11.442487"><ele>232.0</ele><time>2026-04-04T15:28:06.891Z</time></trkpt><trkpt lat="43.3528121" lon="11.442342"><ele>232.0</ele><time>2026-04-04T15:28:07.9Z</time></trkpt><trkpt lat="43.3527951" lon="11.4421811"><ele>232.0</ele><time>2026-04-04T15:28:08.891Z</time></trkpt><trkpt lat="43.3527587" lon="11.4420158"><ele>232.0</ele><time>2026-04-04T15:28:09.887Z</time></trkpt><trkpt lat="43.3527038" lon="11.4418509"><ele>232.0</ele><time>2026-04-04T15:28:10.901Z</time></trkpt><trkpt lat="43.352629" lon="11.4416823"><ele>234.66666666666666</ele><time>2026-04-04T15:28:11.892Z</time></trkpt><trkpt lat="43.3525288" lon="11.441529"><ele>237.33333333333331</ele><time>2026-04-04T15:28:12.891Z</time></trkpt><trkpt lat="43.3524113" lon="11.4413902"><ele>240.0</ele><time>2026-04-04T15:28:13.899Z</time></trkpt><trkpt lat="43.3522764" lon="11.4412771"><ele>241.66666666666669</ele><time>2026-04-04T15:28:14.89Z</time></trkpt><trkpt lat="43.3521196" lon="11.4412117"><ele>243.33333333333334</ele><time>2026-04-04T15:28:15.887Z</time></trkpt><trkpt lat="43.3519536" lon="11.44117"><ele>245.0</ele><time>2026-04-04T15:28:16.896Z</time></trkpt><trkpt lat="43.3518133" lon="11.4411441"><ele>245.0</ele><time>2026-04-04T15:28:17.893Z</time></trkpt><trkpt lat="43.3516918" lon="11.4411204"><ele>245.0</ele><time>2026-04-04T15:28:18.889Z</time></trkpt><trkpt lat="43.3515877" lon="11.4410625"><ele>245.0</ele><time>2026-04-04T15:28:19.899Z</time></trkpt><trkpt lat="43.351499" lon="11.4409562"><ele>245.0</ele><time>2026-04-04T15:28:20.896Z</time></trkpt><trkpt lat="43.3514367" lon="11.4408142"><ele>245.0</ele><time>2026-04-04T15:28:21.898Z</time></trkpt><trkpt lat="43.3514117" lon="11.4406621"><ele>245.0</ele><time>2026-04-04T15:28:22.894Z</time></trkpt><trkpt lat="43.351403" lon="11.4405056"><ele>245.0</ele><time>2026-04-04T15:28:23.888Z</time></trkpt><trkpt lat="43.3513989" lon="11.4403513"><ele>245.0</ele><time>2026-04-04T15:28:24.895Z</time></trkpt><trkpt lat="43.3514079" lon="11.4402124"><ele>245.0</ele><time>2026-04-04T15:28:25.89Z</time></trkpt><trkpt lat="43.3514205" lon="11.4400923"><ele>246.00000000000003</ele><time>2026-04-04T15:28:26.897Z</time></trkpt><trkpt lat="43.3514332" lon="11.4399747"><ele>247.0</ele><time>2026-04-04T15:28:27.897Z</time></trkpt><trkpt lat="43.3514529" lon="11.4398815"><ele>248.0</ele><time>2026-04-04T15:28:28.894Z</time></trkpt><trkpt lat="43.3514806" lon="11.4398009"><ele>249.0</ele><time>2026-04-04T15:28:29.891Z</time></trkpt><trkpt lat="43.3515303" lon="11.4397205"><ele>250.00000000000003</ele><time>2026-04-04T15:28:30.898Z</time></trkpt><trkpt lat="43.3515939" lon="11.4396413"><ele>251.0</ele><time>2026-04-04T15:28:31.887Z</time></trkpt><trkpt lat="43.351675" lon="11.4395823"><ele>251.0</ele><time>2026-04-04T15:28:32.892Z</time></trkpt><trkpt lat="43.3517718" lon="11.4395137"><ele>251.0</ele><time>2026-04-04T15:28:33.9Z</time></trkpt><trkpt lat="43.3518792" lon="11.4394575"><ele>251.0</ele><time>2026-04-04T15:28:34.89Z</time></trkpt><trkpt lat="43.3519971" lon="11.4394"><ele>251.0</ele><time>2026-04-04T15:28:35.901Z</time></trkpt><trkpt lat="43.3521119" lon="11.4393671"><ele>252.75</ele><time>2026-04-04T15:28:36.892Z</time></trkpt><trkpt lat="43.3522333" lon="11.4393267"><ele>254.5</ele><time>2026-04-04T15:28:37.889Z</time></trkpt><trkpt lat="43.3523502" lon="11.4392454"><ele>256.25</ele><time>2026-04-04T15:28:38.889Z</time></trkpt><trkpt lat="43.3524543" lon="11.4391217"><ele>258.0</ele><time>2026-04-04T15:28:39.89Z</time></trkpt><trkpt lat="43.3525546" lon="11.4389953"><ele>258.0</ele><time>2026-04-04T15:28:40.899Z</time></trkpt><trkpt lat="43.3526709" lon="11.4388737"><ele>258.0</ele><time>2026-04-04T15:28:41.896Z</time></trkpt><trkpt lat="43.3527969" lon="11.4387535"><ele>258.0</ele><time>2026-04-04T15:28:42.897Z</time></trkpt><trkpt lat="43.35293" lon="11.4386385"><ele>260.3333333333333</ele><time>2026-04-04T15:28:43.894Z</time></trkpt><trkpt lat="43.3530682" lon="11.4385425"><ele>262.66666666666663</ele><time>2026-04-04T15:28:44.9Z</time></trkpt><trkpt lat="43.3532024" lon="11.4384575"><ele>265.0</ele><time>2026-04-04T15:28:45.893Z</time></trkpt><trkpt lat="43.353347" lon="11.43839"><ele>265.0</ele><time>2026-04-04T15:28:46.89Z</time></trkpt><trkpt lat="43.3534944" lon="11.4383342"><ele>265.0</ele><time>2026-04-04T15:28:47.898Z</time></trkpt><trkpt lat="43.3536498" lon="11.4382961"><ele>265.0</ele><time>2026-04-04T15:28:48.896Z</time></trkpt><trkpt lat="43.3538015" lon="11.43826"><ele>265.25</ele><time>2026-04-04T15:28:49.891Z</time></trkpt><trkpt lat="43.3539505" lon="11.4382245"><ele>265.5</ele><time>2026-04-04T15:28:50.887Z</time></trkpt><trkpt lat="43.3540984" lon="11.4381862"><ele>265.75</ele><time>2026-04-04T15:28:51.895Z</time></trkpt><trkpt lat="43.3542421" lon="11.4381543"><ele>266.0</ele><time>2026-04-04T15:28:52.899Z</time></trkpt><trkpt lat="43.3543867" lon="11.438127"><ele>266.0</ele><time>2026-04-04T15:28:53.901Z</time></trkpt><trkpt lat="43.3545297" lon="11.4381167"><ele>266.0</ele><time>2026-04-04T15:28:54.892Z</time></trkpt><trkpt lat="43.3546735" lon="11.4381145"><ele>266.0</ele><time>2026-04-04T15:28:55.904Z</time></trkpt><trkpt lat="43.3548215" lon="11.4381267"><ele>266.0</ele><time>2026-04-04T15:28:56.892Z</time></trkpt><trkpt lat="43.3549756" lon="11.4381516"><ele>266.6666666666667</ele><time>2026-04-04T15:28:57.892Z</time></trkpt><trkpt lat="43.3551299" lon="11.4381756"><ele>267.3333333333333</ele><time>2026-04-04T15:28:58.896Z</time></trkpt><trkpt lat="43.3552812" lon="11.4382068"><ele>268.0</ele><time>2026-04-04T15:28:59.89Z</time></trkpt><trkpt lat="43.3554328" lon="11.4382401"><ele>267.5</ele><time>2026-04-04T15:29:00.894Z</time></trkpt><trkpt lat="43.3555775" lon="11.4382756"><ele>267.0</ele><time>2026-04-04T15:29:01.886Z</time></trkpt><trkpt lat="43.3557143" lon="11.4383117"><ele>266.5</ele><time>2026-04-04T15:29:02.896Z</time></trkpt><trkpt lat="43.355836" lon="11.4383468"><ele>266.0</ele><time>2026-04-04T15:29:03.899Z</time></trkpt><trkpt lat="43.3559508" lon="11.4383759"><ele>266.0</ele><time>2026-04-04T15:29:04.901Z</time></trkpt><trkpt lat="43.3560667" lon="11.4384029"><ele>266.0</ele><time>2026-04-04T15:29:05.894Z</time></trkpt><trkpt lat="43.3561863" lon="11.4384227"><ele>266.0</ele><time>2026-04-04T15:29:06.894Z</time></trkpt><trkpt lat="43.356315" lon="11.4384409"><ele>266.0</ele><time>2026-04-04T15:29:07.895Z</time></trkpt><trkpt lat="43.3564443" lon="11.4384656"><ele>265.75</ele><time>2026-04-04T15:29:08.899Z</time></trkpt><trkpt lat="43.3565815" lon="11.4384982"><ele>265.5</ele><time>2026-04-04T15:29:09.891Z</time></trkpt><trkpt lat="43.3567244" lon="11.4385352"><ele>265.25</ele><time>2026-04-04T15:29:10.891Z</time></trkpt><trkpt lat="43.3568708" lon="11.4385662"><ele>265.0</ele><time>2026-04-04T15:29:11.898Z</time></trkpt><trkpt lat="43.3570257" lon="11.4385888"><ele>265.0</ele><time>2026-04-04T15:29:12.892Z</time></trkpt><trkpt lat="43.3571773" lon="11.4385704"><ele>265.0</ele><time>2026-04-04T15:29:13.895Z</time></trkpt><trkpt lat="43.3573338" lon="11.4385312"><ele>265.0</ele><time>2026-04-04T15:29:14.892Z</time></trkpt><trkpt lat="43.3574895" lon="11.4384772"><ele>265.0</ele><time>2026-04-04T15:29:15.898Z</time></trkpt><trkpt lat="43.3576423" lon="11.438426"><ele>265.0</ele><time>2026-04-04T15:29:16.893Z</time></trkpt><trkpt lat="43.3577958" lon="11.4383797"><ele>265.0</ele><time>2026-04-04T15:29:17.894Z</time></trkpt><trkpt lat="43.3579447" lon="11.4383311"><ele>265.5</ele><time>2026-04-04T15:29:18.888Z</time></trkpt><trkpt lat="43.3580832" lon="11.4382675"><ele>266.0</ele><time>2026-04-04T15:29:19.897Z</time></trkpt><trkpt lat="43.3582023" lon="11.4381533"><ele>266.5</ele><time>2026-04-04T15:29:20.895Z</time></trkpt><trkpt lat="43.3582978" lon="11.4379866"><ele>267.0</ele><time>2026-04-04T15:29:21.891Z</time></trkpt><trkpt lat="43.3583575" lon="11.4377897"><ele>267.6666666666667</ele><time>2026-04-04T15:29:22.89Z</time></trkpt><trkpt lat="43.3583884" lon="11.4375717"><ele>268.33333333333337</ele><time>2026-04-04T15:29:23.897Z</time></trkpt><trkpt lat="43.3583933" lon="11.4373471"><ele>269.0</ele><time>2026-04-04T15:29:24.896Z</time></trkpt><trkpt lat="43.3583841" lon="11.4371184"><ele>269.0</ele><time>2026-04-04T15:29:25.891Z</time></trkpt><trkpt lat="43.3583653" lon="11.4369164"><ele>269.0</ele><time>2026-04-04T15:29:26.897Z</time></trkpt><trkpt lat="43.3583538" lon="11.43672"><ele>269.0</ele><time>2026-04-04T15:29:27.896Z</time></trkpt><trkpt lat="43.3583701" lon="11.4365193"><ele>269.0</ele><time>2026-04-04T15:29:28.9Z</time></trkpt><trkpt lat="43.3584067" lon="11.436329"><ele>269.0</ele><time>2026-04-04T15:29:29.889Z</time></trkpt><trkpt lat="43.3584366" lon="11.4361317"><ele>269.0</ele><time>2026-04-04T15:29:30.892Z</time></trkpt><trkpt lat="43.3584752" lon="11.4359251"><ele>269.0</ele><time>2026-04-04T15:29:31.892Z</time></trkpt><trkpt lat="43.3585219" lon="11.4357177"><ele>269.0</ele><time>2026-04-04T15:29:32.892Z</time></trkpt><trkpt lat="43.3585803" lon="11.4355119"><ele>269.0</ele><time>2026-04-04T15:29:33.896Z</time></trkpt><trkpt lat="43.3586516" lon="11.435313"><ele>269.0</ele><time>2026-04-04T15:29:34.893Z</time></trkpt><trkpt lat="43.3587344" lon="11.4351119"><ele>269.6666666666667</ele><time>2026-04-04T15:29:35.889Z</time></trkpt><trkpt lat="43.3588159" lon="11.4349093"><ele>270.3333333333333</ele><time>2026-04-04T15:29:36.894Z</time></trkpt><trkpt lat="43.3588884" lon="11.4347042"><ele>271.0</ele><time>2026-04-04T15:29:37.897Z</time></trkpt><trkpt lat="43.3589332" lon="11.4344732"><ele>268.3333333333333</ele><time>2026-04-04T15:29:38.892Z</time></trkpt><trkpt lat="43.3589591" lon="11.4342315"><ele>265.6666666666667</ele><time>2026-04-04T15:29:39.89Z</time></trkpt><trkpt lat="43.3589578" lon="11.4339884"><ele>263.0</ele><time>2026-04-04T15:29:40.895Z</time></trkpt><trkpt lat="43.3589413" lon="11.4337321"><ele>263.0</ele><time>2026-04-04T15:29:41.893Z</time></trkpt><trkpt lat="43.3589088" lon="11.4334804"><ele>263.0</ele><time>2026-04-04T15:29:42.89Z</time></trkpt><trkpt lat="43.3588758" lon="11.4332246"><ele>263.0</ele><time>2026-04-04T15:29:43.891Z</time></trkpt><trkpt lat="43.3588522" lon="11.4329674"><ele>263.0</ele><time>2026-04-04T15:29:44.886Z</time></trkpt><trkpt lat="43.3588493" lon="11.4326975"><ele>263.0</ele><time>2026-04-04T15:29:45.894Z</time></trkpt><trkpt lat="43.3588607" lon="11.4324216"><ele>263.0</ele><time>2026-04-04T15:29:46.899Z</time></trkpt><trkpt lat="43.3588933" lon="11.4321512"><ele>262.33333333333337</ele><time>2026-04-04T15:29:47.893Z</time></trkpt><trkpt lat="43.3589424" lon="11.4318815"><ele>261.6666666666667</ele><time>2026-04-04T15:29:48.893Z</time></trkpt><trkpt lat="43.3589993" lon="11.4316128"><ele>261.0</ele><time>2026-04-04T15:29:49.891Z</time></trkpt><trkpt lat="43.3590547" lon="11.4313438"><ele>262.0</ele><time>2026-04-04T15:29:50.893Z</time></trkpt><trkpt lat="43.359107" lon="11.4310727"><ele>263.0</ele><time>2026-04-04T15:29:51.885Z</time></trkpt><trkpt lat="43.359151" lon="11.4308224"><ele>264.0</ele><time>2026-04-04T15:29:52.896Z</time></trkpt><trkpt lat="43.3591929" lon="11.4305669"><ele>264.3333333333333</ele><time>2026-04-04T15:29:53.9Z</time></trkpt><trkpt lat="43.3592169" lon="11.4303188"><ele>264.66666666666663</ele><time>2026-04-04T15:29:54.901Z</time></trkpt><trkpt lat="43.3592158" lon="11.4300583"><ele>265.0</ele><time>2026-04-04T15:29:55.891Z</time></trkpt><trkpt lat="43.3591987" lon="11.4297955"><ele>263.0</ele><time>2026-04-04T15:29:56.895Z</time></trkpt><trkpt lat="43.359174" lon="11.4295412"><ele>261.0</ele><time>2026-04-04T15:29:57.894Z</time></trkpt><trkpt lat="43.3591302" lon="11.4292828"><ele>259.0</ele><time>2026-04-04T15:29:58.901Z</time></trkpt><trkpt lat="43.3590693" lon="11.429051"><ele>259.0</ele><time>2026-04-04T15:29:59.903Z</time></trkpt><trkpt lat="43.3589894" lon="11.4288445"><ele>259.0</ele><time>2026-04-04T15:30:00.895Z</time></trkpt><trkpt lat="43.3588912" lon="11.4286472"><ele>259.0</ele><time>2026-04-04T15:30:01.901Z</time></trkpt><trkpt lat="43.3587721" lon="11.4284594"><ele>258.0</ele><time>2026-04-04T15:30:02.901Z</time></trkpt><trkpt lat="43.3586249" lon="11.4282765"><ele>257.0</ele><time>2026-04-04T15:30:03.895Z</time></trkpt><trkpt lat="43.3584946" lon="11.4280753"><ele>256.0</ele><time>2026-04-04T15:30:04.897Z</time></trkpt><trkpt lat="43.3583669" lon="11.4278713"><ele>256.0</ele><time>2026-04-04T15:30:05.898Z</time></trkpt><trkpt lat="43.3582395" lon="11.427665"><ele>256.0</ele><time>2026-04-04T15:30:06.891Z</time></trkpt><trkpt lat="43.358113" lon="11.4274728"><ele>256.0</ele><time>2026-04-04T15:30:07.898Z</time></trkpt><trkpt lat="43.3579872" lon="11.4272946"><ele>255.0</ele><time>2026-04-04T15:30:08.892Z</time></trkpt><trkpt lat="43.357842" lon="11.4271473"><ele>254.0</ele><time>2026-04-04T15:30:09.889Z</time></trkpt><trkpt lat="43.3576809" lon="11.4270367"><ele>253.0</ele><time>2026-04-04T15:30:10.893Z</time></trkpt><trkpt lat="43.3575139" lon="11.4269271"><ele>253.0</ele><time>2026-04-04T15:30:11.894Z</time></trkpt><trkpt lat="43.3573415" lon="11.4268174"><ele>253.0</ele><time>2026-04-04T15:30:12.901Z</time></trkpt><trkpt lat="43.3571698" lon="11.4267095"><ele>253.0</ele><time>2026-04-04T15:30:13.894Z</time></trkpt><trkpt lat="43.3570009" lon="11.4265982"><ele>254.0</ele><time>2026-04-04T15:30:14.893Z</time></trkpt><trkpt lat="43.3568286" lon="11.4264829"><ele>255.0</ele><time>2026-04-04T15:30:15.891Z</time></trkpt><trkpt lat="43.356658" lon="11.4263601"><ele>256.0</ele><time>2026-04-04T15:30:16.889Z</time></trkpt><trkpt lat="43.3564929" lon="11.4262126"><ele>252.66666666666666</ele><time>2026-04-04T15:30:17.895Z</time></trkpt><trkpt lat="43.3563429" lon="11.4260322"><ele>249.33333333333331</ele><time>2026-04-04T15:30:18.896Z</time></trkpt><trkpt lat="43.356196" lon="11.425841"><ele>246.0</ele><time>2026-04-04T15:30:19.892Z</time></trkpt><trkpt lat="43.3560574" lon="11.425642"><ele>244.0</ele><time>2026-04-04T15:30:20.89Z</time></trkpt><trkpt lat="43.355914" lon="11.4254405"><ele>242.0</ele><time>2026-04-04T15:30:21.887Z</time></trkpt><trkpt lat="43.3557805" lon="11.4252618"><ele>240.0</ele><time>2026-04-04T15:30:22.892Z</time></trkpt><trkpt lat="43.3556439" lon="11.4250913"><ele>240.0</ele><time>2026-04-04T15:30:23.895Z</time></trkpt><trkpt lat="43.3555136" lon="11.4249245"><ele>240.0</ele><time>2026-04-04T15:30:24.894Z</time></trkpt><trkpt lat="43.3553866" lon="11.424749"><ele>240.0</ele><time>2026-04-04T15:30:25.899Z</time></trkpt><trkpt lat="43.3552611" lon="11.4245793"><ele>239.0</ele><time>2026-04-04T15:30:26.895Z</time></trkpt><trkpt lat="43.3551422" lon="11.4244234"><ele>238.0</ele><time>2026-04-04T15:30:27.893Z</time></trkpt><trkpt lat="43.355045" lon="11.4242792"><ele>237.0</ele><time>2026-04-04T15:30:28.894Z</time></trkpt><trkpt lat="43.3549848" lon="11.4241328"><ele>236.0</ele><time>2026-04-04T15:30:29.889Z</time></trkpt><trkpt lat="43.3549554" lon="11.4239603"><ele>235.0</ele><time>2026-04-04T15:30:30.895Z</time></trkpt><trkpt lat="43.3549665" lon="11.4237696"><ele>234.0</ele><time>2026-04-04T15:30:31.892Z</time></trkpt><trkpt lat="43.3550088" lon="11.4235773"><ele>233.0</ele><time>2026-04-04T15:30:32.893Z</time></trkpt><trkpt lat="43.3550582" lon="11.4233799"><ele>232.0</ele><time>2026-04-04T15:30:33.908Z</time></trkpt><trkpt lat="43.3551075" lon="11.4231834"><ele>232.0</ele><time>2026-04-04T15:30:34.893Z</time></trkpt><trkpt lat="43.3551572" lon="11.4229817"><ele>232.0</ele><time>2026-04-04T15:30:35.898Z</time></trkpt><trkpt lat="43.3552107" lon="11.4227493"><ele>232.0</ele><time>2026-04-04T15:30:36.889Z</time></trkpt><trkpt lat="43.3552561" lon="11.4224945"><ele>229.66666666666666</ele><time>2026-04-04T15:30:37.893Z</time></trkpt><trkpt lat="43.3552925" lon="11.4222287"><ele>227.33333333333331</ele><time>2026-04-04T15:30:38.89Z</time></trkpt><trkpt lat="43.355326" lon="11.421959"><ele>225.0</ele><time>2026-04-04T15:30:39.897Z</time></trkpt><trkpt lat="43.3553527" lon="11.4216916"><ele>222.66666666666669</ele><time>2026-04-04T15:30:40.9Z</time></trkpt><trkpt lat="43.355379" lon="11.4214085"><ele>220.33333333333334</ele><time>2026-04-04T15:30:41.885Z</time></trkpt><trkpt lat="43.3554148" lon="11.4211299"><ele>218.0</ele><time>2026-04-04T15:30:42.89Z</time></trkpt><trkpt lat="43.3554564" lon="11.4208452"><ele>217.66666666666669</ele><time>2026-04-04T15:30:43.891Z</time></trkpt><trkpt lat="43.3555024" lon="11.420559"><ele>217.33333333333331</ele><time>2026-04-04T15:30:44.883Z</time></trkpt><trkpt lat="43.3555546" lon="11.4202751"><ele>217.0</ele><time>2026-04-04T15:30:45.893Z</time></trkpt><trkpt lat="43.35561" lon="11.4200034"><ele>217.0</ele><time>2026-04-04T15:30:46.888Z</time></trkpt><trkpt lat="43.3556768" lon="11.4197542"><ele>217.0</ele><time>2026-04-04T15:30:47.886Z</time></trkpt><trkpt lat="43.3557593" lon="11.4195175"><ele>217.0</ele><time>2026-04-04T15:30:48.898Z</time></trkpt><trkpt lat="43.3558506" lon="11.419288"><ele>216.66666666666666</ele><time>2026-04-04T15:30:49.898Z</time></trkpt><trkpt lat="43.35595" lon="11.4190744"><ele>216.33333333333331</ele><time>2026-04-04T15:30:50.888Z</time></trkpt><trkpt lat="43.3560541" lon="11.4188655"><ele>216.0</ele><time>2026-04-04T15:30:51.901Z</time></trkpt><trkpt lat="43.3561552" lon="11.4186539"><ele>216.33333333333331</ele><time>2026-04-04T15:30:52.889Z</time></trkpt><trkpt lat="43.356252" lon="11.4184559"><ele>216.66666666666666</ele><time>2026-04-04T15:30:53.894Z</time></trkpt><trkpt lat="43.3563409" lon="11.4182556"><ele>217.0</ele><time>2026-04-04T15:30:54.891Z</time></trkpt><trkpt lat="43.356426" lon="11.4180634"><ele>217.5</ele><time>2026-04-04T15:30:55.897Z</time></trkpt><trkpt lat="43.3565133" lon="11.4178829"><ele>218.0</ele><time>2026-04-04T15:30:56.9Z</time></trkpt><trkpt lat="43.3565957" lon="11.4177167"><ele>218.5</ele><time>2026-04-04T15:30:57.895Z</time></trkpt><trkpt lat="43.3566722" lon="11.4175478"><ele>219.0</ele><time>2026-04-04T15:30:58.894Z</time></trkpt><trkpt lat="43.356741" lon="11.4173851"><ele>219.0</ele><time>2026-04-04T15:30:59.9Z</time></trkpt><trkpt lat="43.3568027" lon="11.4172362"><ele>218.99999999999997</ele><time>2026-04-04T15:31:00.892Z</time></trkpt><trkpt lat="43.356841" lon="11.4171052"><ele>218.99999999999997</ele><time>2026-04-04T15:31:01.894Z</time></trkpt><trkpt lat="43.3568536" lon="11.4169922"><ele>219.0</ele><time>2026-04-04T15:31:02.895Z</time></trkpt><trkpt lat="43.3568654" lon="11.4169015"><ele>219.0</ele><time>2026-04-04T15:31:03.888Z</time></trkpt><trkpt lat="43.3569262" lon="11.4168396"><ele>219.0</ele><time>2026-04-04T15:31:06.891Z</time></trkpt><trkpt lat="43.3570075" lon="11.4169063"><ele>218.99999999999997</ele><time>2026-04-04T15:31:08.887Z</time></trkpt><trkpt lat="43.3571037" lon="11.4170483"><ele>218.99999999999997</ele><time>2026-04-04T15:31:10.893Z</time></trkpt><trkpt lat="43.3571589" lon="11.4171227"><ele>219.0</ele><time>2026-04-04T15:31:11.882Z</time></trkpt><trkpt lat="43.3572119" lon="11.4172054"><ele>219.0</ele><time>2026-04-04T15:31:12.887Z</time></trkpt><trkpt lat="43.3572743" lon="11.4172975"><ele>219.2</ele><time>2026-04-04T15:31:13.89Z</time></trkpt><trkpt lat="43.3573395" lon="11.4173958"><ele>219.39999999999998</ele><time>2026-04-04T15:31:14.885Z</time></trkpt><trkpt lat="43.3574092" lon="11.4175049"><ele>219.6</ele><time>2026-04-04T15:31:15.898Z</time></trkpt><trkpt lat="43.3574796" lon="11.4176166"><ele>219.8</ele><time>2026-04-04T15:31:16.89Z</time></trkpt><trkpt lat="43.357551" lon="11.4177309"><ele>220.0</ele><time>2026-04-04T15:31:17.889Z</time></trkpt><trkpt lat="43.3576357" lon="11.4178591"><ele>219.75</ele><time>2026-04-04T15:31:18.889Z</time></trkpt><trkpt lat="43.3577298" lon="11.4179979"><ele>219.5</ele><time>2026-04-04T15:31:19.89Z</time></trkpt><trkpt lat="43.3578345" lon="11.4181378"><ele>219.25</ele><time>2026-04-04T15:31:20.886Z</time></trkpt><trkpt lat="43.3579385" lon="11.4182819"><ele>219.0</ele><time>2026-04-04T15:31:21.89Z</time></trkpt><trkpt lat="43.358134" lon="11.418577"><ele>219.66666666666669</ele><time>2026-04-04T15:31:23.896Z</time></trkpt><trkpt lat="43.358229" lon="11.4187448"><ele>220.33333333333334</ele><time>2026-04-04T15:31:24.889Z</time></trkpt><trkpt lat="43.358327" lon="11.4189088"><ele>221.0</ele><time>2026-04-04T15:31:25.894Z</time></trkpt><trkpt lat="43.3584282" lon="11.4190637"><ele>221.33333333333334</ele><time>2026-04-04T15:31:26.89Z</time></trkpt><trkpt lat="43.3585312" lon="11.4192243"><ele>221.66666666666669</ele><time>2026-04-04T15:31:27.888Z</time></trkpt><trkpt lat="43.3586358" lon="11.4193851"><ele>222.0</ele><time>2026-04-04T15:31:28.887Z</time></trkpt><trkpt lat="43.358735" lon="11.4195471"><ele>222.75</ele><time>2026-04-04T15:31:29.895Z</time></trkpt><trkpt lat="43.3588321" lon="11.4196974"><ele>223.5</ele><time>2026-04-04T15:31:30.888Z</time></trkpt><trkpt lat="43.3589303" lon="11.419825"><ele>224.25</ele><time>2026-04-04T15:31:31.895Z</time></trkpt><trkpt lat="43.3590393" lon="11.4199051"><ele>225.0</ele><time>2026-04-04T15:31:32.887Z</time></trkpt><trkpt lat="43.3591637" lon="11.4199232"><ele>225.75</ele><time>2026-04-04T15:31:33.891Z</time></trkpt><trkpt lat="43.3592971" lon="11.4199298"><ele>226.5</ele><time>2026-04-04T15:31:34.891Z</time></trkpt><trkpt lat="43.3594353" lon="11.4198966"><ele>227.25</ele><time>2026-04-04T15:31:35.893Z</time></trkpt><trkpt lat="43.3595764" lon="11.4198417"><ele>228.0</ele><time>2026-04-04T15:31:36.894Z</time></trkpt><trkpt lat="43.3597201" lon="11.4197835"><ele>228.66666666666669</ele><time>2026-04-04T15:31:37.895Z</time></trkpt><trkpt lat="43.3598725" lon="11.4197236"><ele>229.33333333333334</ele><time>2026-04-04T15:31:38.894Z</time></trkpt><trkpt lat="43.3600312" lon="11.4196693"><ele>230.0</ele><time>2026-04-04T15:31:39.89Z</time></trkpt><trkpt lat="43.3601916" lon="11.4196107"><ele>230.0</ele><time>2026-04-04T15:31:40.897Z</time></trkpt><trkpt lat="43.3603586" lon="11.4195509"><ele>230.0</ele><time>2026-04-04T15:31:41.891Z</time></trkpt><trkpt lat="43.3605313" lon="11.41949"><ele>230.0</ele><time>2026-04-04T15:31:42.896Z</time></trkpt><trkpt lat="43.3607063" lon="11.4194259"><ele>230.66666666666669</ele><time>2026-04-04T15:31:43.896Z</time></trkpt><trkpt lat="43.3608819" lon="11.4193574"><ele>231.33333333333331</ele><time>2026-04-04T15:31:44.893Z</time></trkpt><trkpt lat="43.3610624" lon="11.4192953"><ele>232.0</ele><time>2026-04-04T15:31:45.889Z</time></trkpt><trkpt lat="43.361243" lon="11.4192368"><ele>234.0</ele><time>2026-04-04T15:31:46.901Z</time></trkpt><trkpt lat="43.3614183" lon="11.4191761"><ele>236.0</ele><time>2026-04-04T15:31:47.891Z</time></trkpt><trkpt lat="43.3615756" lon="11.4190858"><ele>238.0</ele><time>2026-04-04T15:31:48.894Z</time></trkpt><trkpt lat="43.3617141" lon="11.4189727"><ele>235.66666666666666</ele><time>2026-04-04T15:31:49.892Z</time></trkpt><trkpt lat="43.3618139" lon="11.4188083"><ele>233.33333333333331</ele><time>2026-04-04T15:31:50.889Z</time></trkpt><trkpt lat="43.3619019" lon="11.4186363"><ele>231.0</ele><time>2026-04-04T15:31:51.895Z</time></trkpt><trkpt lat="43.3620014" lon="11.4184917"><ele>231.0</ele><time>2026-04-04T15:31:52.896Z</time></trkpt><trkpt lat="43.3621076" lon="11.4183673"><ele>231.0</ele><time>2026-04-04T15:31:53.893Z</time></trkpt><trkpt lat="43.362224" lon="11.4182874"><ele>231.0</ele><time>2026-04-04T15:31:54.906Z</time></trkpt><trkpt lat="43.3623453" lon="11.4182537"><ele>231.0</ele><time>2026-04-04T15:31:55.889Z</time></trkpt><trkpt lat="43.362467" lon="11.4182639"><ele>232.5</ele><time>2026-04-04T15:31:56.894Z</time></trkpt><trkpt lat="43.362588" lon="11.418307"><ele>234.0</ele><time>2026-04-04T15:31:57.887Z</time></trkpt><trkpt lat="43.3627104" lon="11.418353"><ele>235.5</ele><time>2026-04-04T15:31:58.888Z</time></trkpt><trkpt lat="43.3628295" lon="11.4183918"><ele>237.0</ele><time>2026-04-04T15:31:59.892Z</time></trkpt><trkpt lat="43.3629529" lon="11.4184184"><ele>237.75</ele><time>2026-04-04T15:32:00.895Z</time></trkpt><trkpt lat="43.3630789" lon="11.4184371"><ele>238.5</ele><time>2026-04-04T15:32:01.897Z</time></trkpt><trkpt lat="43.3632073" lon="11.4184581"><ele>239.25</ele><time>2026-04-04T15:32:02.897Z</time></trkpt><trkpt lat="43.3633405" lon="11.4184671"><ele>240.0</ele><time>2026-04-04T15:32:03.895Z</time></trkpt><trkpt lat="43.3634703" lon="11.4184675"><ele>240.0</ele><time>2026-04-04T15:32:04.888Z</time></trkpt><trkpt lat="43.3636065" lon="11.4184659"><ele>240.0</ele><time>2026-04-04T15:32:05.89Z</time></trkpt><trkpt lat="43.3637394" lon="11.4184649"><ele>240.0</ele><time>2026-04-04T15:32:06.892Z</time></trkpt><trkpt lat="43.36388" lon="11.4184716"><ele>240.0</ele><time>2026-04-04T15:32:07.887Z</time></trkpt><trkpt lat="43.3640239" lon="11.4184898"><ele>241.0</ele><time>2026-04-04T15:32:08.893Z</time></trkpt><trkpt lat="43.3641643" lon="11.4185438"><ele>242.0</ele><time>2026-04-04T15:32:09.894Z</time></trkpt><trkpt lat="43.3642926" lon="11.4186379"><ele>243.0</ele><time>2026-04-04T15:32:10.897Z</time></trkpt><trkpt lat="43.3644182" lon="11.4187625"><ele>244.0</ele><time>2026-04-04T15:32:11.892Z</time></trkpt><trkpt lat="43.3645315" lon="11.4189132"><ele>243.75</ele><time>2026-04-04T15:32:12.906Z</time></trkpt><trkpt lat="43.3646337" lon="11.4190667"><ele>243.5</ele><time>2026-04-04T15:32:13.896Z</time></trkpt><trkpt lat="43.3647301" lon="11.419225"><ele>243.25</ele><time>2026-04-04T15:32:14.895Z</time></trkpt><trkpt lat="43.3648243" lon="11.4193814"><ele>243.0</ele><time>2026-04-04T15:32:15.898Z</time></trkpt><trkpt lat="43.3649187" lon="11.4195119"><ele>243.0</ele><time>2026-04-04T15:32:16.895Z</time></trkpt><trkpt lat="43.3650307" lon="11.4196161"><ele>243.0</ele><time>2026-04-04T15:32:17.898Z</time></trkpt><trkpt lat="43.3651681" lon="11.4196909"><ele>243.0</ele><time>2026-04-04T15:32:18.895Z</time></trkpt><trkpt lat="43.3653262" lon="11.419715"><ele>243.0</ele><time>2026-04-04T15:32:19.889Z</time></trkpt><trkpt lat="43.3655033" lon="11.4197062"><ele>240.66666666666669</ele><time>2026-04-04T15:32:20.902Z</time></trkpt><trkpt lat="43.3656941" lon="11.4196425"><ele>238.33333333333334</ele><time>2026-04-04T15:32:21.892Z</time></trkpt><trkpt lat="43.3658748" lon="11.4195397"><ele>236.0</ele><time>2026-04-04T15:32:22.891Z</time></trkpt><trkpt lat="43.3660619" lon="11.4194268"><ele>236.0</ele><time>2026-04-04T15:32:23.899Z</time></trkpt><trkpt lat="43.3662585" lon="11.4193009"><ele>236.0</ele><time>2026-04-04T15:32:24.893Z</time></trkpt><trkpt lat="43.3664748" lon="11.4191771"><ele>236.5</ele><time>2026-04-04T15:32:25.891Z</time></trkpt><trkpt lat="43.3666993" lon="11.4190388"><ele>237.0</ele><time>2026-04-04T15:32:26.894Z</time></trkpt><trkpt lat="43.3669352" lon="11.4188935"><ele>236.5</ele><time>2026-04-04T15:32:27.898Z</time></trkpt><trkpt lat="43.3671854" lon="11.4187406"><ele>236.0</ele><time>2026-04-04T15:32:28.892Z</time></trkpt><trkpt lat="43.3674462" lon="11.4185792"><ele>236.0</ele><time>2026-04-04T15:32:29.894Z</time></trkpt><trkpt lat="43.3677145" lon="11.4184141"><ele>236.0</ele><time>2026-04-04T15:32:30.891Z</time></trkpt><trkpt lat="43.3679849" lon="11.418248"><ele>234.5</ele><time>2026-04-04T15:32:31.897Z</time></trkpt><trkpt lat="43.3682496" lon="11.4180823"><ele>233.0</ele><time>2026-04-04T15:32:32.898Z</time></trkpt><trkpt lat="43.368496" lon="11.4179282"><ele>233.0</ele><time>2026-04-04T15:32:33.894Z</time></trkpt><trkpt lat="43.3687286" lon="11.4177841"><ele>233.0</ele><time>2026-04-04T15:32:34.895Z</time></trkpt><trkpt lat="43.3689479" lon="11.41765"><ele>235.0</ele><time>2026-04-04T15:32:35.899Z</time></trkpt><trkpt lat="43.3691588" lon="11.4175149"><ele>237.0</ele><time>2026-04-04T15:32:36.895Z</time></trkpt><trkpt lat="43.369359" lon="11.4173916"><ele>237.0</ele><time>2026-04-04T15:32:37.89Z</time></trkpt><trkpt lat="43.369553" lon="11.4172844"><ele>237.0</ele><time>2026-04-04T15:32:38.886Z</time></trkpt><trkpt lat="43.3697493" lon="11.4172055"><ele>237.0</ele><time>2026-04-04T15:32:39.895Z</time></trkpt><trkpt lat="43.3699429" lon="11.4171611"><ele>235.66666666666669</ele><time>2026-04-04T15:32:40.901Z</time></trkpt><trkpt lat="43.3701332" lon="11.4171445"><ele>234.33333333333334</ele><time>2026-04-04T15:32:41.898Z</time></trkpt><trkpt lat="43.3703245" lon="11.4171463"><ele>233.0</ele><time>2026-04-04T15:32:42.893Z</time></trkpt><trkpt lat="43.3705129" lon="11.4171406"><ele>232.66666666666669</ele><time>2026-04-04T15:32:43.897Z</time></trkpt><trkpt lat="43.3706999" lon="11.4171135"><ele>232.33333333333331</ele><time>2026-04-04T15:32:44.886Z</time></trkpt><trkpt lat="43.3708848" lon="11.4170647"><ele>232.0</ele><time>2026-04-04T15:32:45.888Z</time></trkpt><trkpt lat="43.3710475" lon="11.4169497"><ele>232.0</ele><time>2026-04-04T15:32:46.895Z</time></trkpt><trkpt lat="43.3711877" lon="11.4167768"><ele>232.0</ele><time>2026-04-04T15:32:47.895Z</time></trkpt><trkpt lat="43.3713228" lon="11.4165942"><ele>232.0</ele><time>2026-04-04T15:32:48.895Z</time></trkpt><trkpt lat="43.3714527" lon="11.4163972"><ele>233.0</ele><time>2026-04-04T15:32:49.891Z</time></trkpt><trkpt lat="43.3715851" lon="11.4162072"><ele>234.0</ele><time>2026-04-04T15:32:50.886Z</time></trkpt><trkpt lat="43.3717138" lon="11.4160439"><ele>235.0</ele><time>2026-04-04T15:32:51.889Z</time></trkpt><trkpt lat="43.3718441" lon="11.4158946"><ele>235.0</ele><time>2026-04-04T15:32:52.895Z</time></trkpt><trkpt lat="43.3719874" lon="11.4157639"><ele>235.0</ele><time>2026-04-04T15:32:53.895Z</time></trkpt><trkpt lat="43.372151" lon="11.4156537"><ele>235.0</ele><time>2026-04-04T15:32:54.891Z</time></trkpt><trkpt lat="43.3723194" lon="11.4155614"><ele>235.66666666666666</ele><time>2026-04-04T15:32:55.895Z</time></trkpt><trkpt lat="43.3724862" lon="11.415478"><ele>236.33333333333331</ele><time>2026-04-04T15:32:56.89Z</time></trkpt><trkpt lat="43.3726472" lon="11.4153666"><ele>237.0</ele><time>2026-04-04T15:32:57.903Z</time></trkpt><trkpt lat="43.3727879" lon="11.4152186"><ele>237.0</ele><time>2026-04-04T15:32:58.895Z</time></trkpt><trkpt lat="43.3729235" lon="11.4150385"><ele>237.0</ele><time>2026-04-04T15:32:59.9Z</time></trkpt><trkpt lat="43.3730529" lon="11.414849"><ele>237.0</ele><time>2026-04-04T15:33:00.891Z</time></trkpt><trkpt lat="43.3731896" lon="11.4146592"><ele>237.0</ele><time>2026-04-04T15:33:01.892Z</time></trkpt><trkpt lat="43.3733331" lon="11.4144795"><ele>237.0</ele><time>2026-04-04T15:33:02.896Z</time></trkpt><trkpt lat="43.3734897" lon="11.4143147"><ele>237.0</ele><time>2026-04-04T15:33:03.89Z</time></trkpt><trkpt lat="43.3736517" lon="11.4141571"><ele>237.0</ele><time>2026-04-04T15:33:04.903Z</time></trkpt><trkpt lat="43.3738067" lon="11.4140069"><ele>237.0</ele><time>2026-04-04T15:33:05.883Z</time></trkpt><trkpt lat="43.3739491" lon="11.4138653"><ele>237.0</ele><time>2026-04-04T15:33:06.884Z</time></trkpt><trkpt lat="43.3740949" lon="11.4137471"><ele>237.33333333333331</ele><time>2026-04-04T15:33:07.89Z</time></trkpt><trkpt lat="43.3742503" lon="11.4136582"><ele>237.66666666666666</ele><time>2026-04-04T15:33:08.886Z</time></trkpt><trkpt lat="43.3744123" lon="11.4136054"><ele>238.0</ele><time>2026-04-04T15:33:09.888Z</time></trkpt><trkpt lat="43.3745846" lon="11.4135843"><ele>238.66666666666666</ele><time>2026-04-04T15:33:10.891Z</time></trkpt><trkpt lat="43.3747585" lon="11.4135834"><ele>239.33333333333331</ele><time>2026-04-04T15:33:11.89Z</time></trkpt><trkpt lat="43.3749332" lon="11.4135754"><ele>240.0</ele><time>2026-04-04T15:33:12.889Z</time></trkpt><trkpt lat="43.3751069" lon="11.4135771"><ele>240.0</ele><time>2026-04-04T15:33:13.894Z</time></trkpt><trkpt lat="43.3752865" lon="11.4135732"><ele>240.0</ele><time>2026-04-04T15:33:14.9Z</time></trkpt><trkpt lat="43.3754718" lon="11.4135576"><ele>240.0</ele><time>2026-04-04T15:33:15.894Z</time></trkpt><trkpt lat="43.3756522" lon="11.4135554"><ele>241.33333333333331</ele><time>2026-04-04T15:33:16.89Z</time></trkpt><trkpt lat="43.3758416" lon="11.4135481"><ele>242.66666666666666</ele><time>2026-04-04T15:33:17.9Z</time></trkpt><trkpt lat="43.3760293" lon="11.4135425"><ele>244.0</ele><time>2026-04-04T15:33:18.894Z</time></trkpt><trkpt lat="43.3762184" lon="11.4135402"><ele>245.33333333333331</ele><time>2026-04-04T15:33:19.892Z</time></trkpt><trkpt lat="43.3764095" lon="11.4135401"><ele>246.66666666666669</ele><time>2026-04-04T15:33:20.896Z</time></trkpt><trkpt lat="43.3765978" lon="11.4135288"><ele>248.0</ele><time>2026-04-04T15:33:21.894Z</time></trkpt><trkpt lat="43.3767861" lon="11.4135049"><ele>248.0</ele><time>2026-04-04T15:33:22.892Z</time></trkpt><trkpt lat="43.3769773" lon="11.4134677"><ele>248.0</ele><time>2026-04-04T15:33:23.902Z</time></trkpt><trkpt lat="43.3771672" lon="11.4134148"><ele>248.0</ele><time>2026-04-04T15:33:24.896Z</time></trkpt><trkpt lat="43.3773588" lon="11.413363"><ele>249.33333333333334</ele><time>2026-04-04T15:33:25.894Z</time></trkpt><trkpt lat="43.3775534" lon="11.4133215"><ele>250.66666666666669</ele><time>2026-04-04T15:33:26.893Z</time></trkpt><trkpt lat="43.3777529" lon="11.4132885"><ele>252.0</ele><time>2026-04-04T15:33:27.903Z</time></trkpt><trkpt lat="43.3779514" lon="11.4132724"><ele>252.33333333333331</ele><time>2026-04-04T15:33:28.902Z</time></trkpt><trkpt lat="43.378147" lon="11.4132763"><ele>252.66666666666666</ele><time>2026-04-04T15:33:29.897Z</time></trkpt><trkpt lat="43.3783446" lon="11.4133038"><ele>253.0</ele><time>2026-04-04T15:33:30.9Z</time></trkpt><trkpt lat="43.3785348" lon="11.4133708"><ele>253.0</ele><time>2026-04-04T15:33:31.9Z</time></trkpt><trkpt lat="43.3787215" lon="11.4134816"><ele>253.0</ele><time>2026-04-04T15:33:32.893Z</time></trkpt><trkpt lat="43.3789035" lon="11.413596"><ele>253.0</ele><time>2026-04-04T15:33:33.896Z</time></trkpt><trkpt lat="43.3790846" lon="11.4137043"><ele>254.0</ele><time>2026-04-04T15:33:34.894Z</time></trkpt><trkpt lat="43.3792624" lon="11.4138081"><ele>255.0</ele><time>2026-04-04T15:33:35.901Z</time></trkpt><trkpt lat="43.379436" lon="11.4139054"><ele>256.0</ele><time>2026-04-04T15:33:36.898Z</time></trkpt><trkpt lat="43.3796031" lon="11.4140051"><ele>257.66666666666663</ele><time>2026-04-04T15:33:37.89Z</time></trkpt><trkpt lat="43.3797625" lon="11.4140945"><ele>259.3333333333333</ele><time>2026-04-04T15:33:38.898Z</time></trkpt><trkpt lat="43.379927" lon="11.4141647"><ele>261.0</ele><time>2026-04-04T15:33:39.901Z</time></trkpt><trkpt lat="43.3800931" lon="11.4142092"><ele>261.0</ele><time>2026-04-04T15:33:40.899Z</time></trkpt><trkpt lat="43.3802549" lon="11.4142014"><ele>261.0</ele><time>2026-04-04T15:33:41.895Z</time></trkpt><trkpt lat="43.3804021" lon="11.4141376"><ele>261.0</ele><time>2026-04-04T15:33:42.897Z</time></trkpt><trkpt lat="43.3805418" lon="11.414045"><ele>261.6666666666667</ele><time>2026-04-04T15:33:43.898Z</time></trkpt><trkpt lat="43.3806798" lon="11.4139275"><ele>262.33333333333337</ele><time>2026-04-04T15:33:44.888Z</time></trkpt><trkpt lat="43.3808114" lon="11.4137832"><ele>263.0</ele><time>2026-04-04T15:33:45.896Z</time></trkpt><trkpt lat="43.3809379" lon="11.4136249"><ele>260.6666666666667</ele><time>2026-04-04T15:33:46.897Z</time></trkpt><trkpt lat="43.3810658" lon="11.4134557"><ele>258.3333333333333</ele><time>2026-04-04T15:33:47.894Z</time></trkpt><trkpt lat="43.3811947" lon="11.41329"><ele>256.0</ele><time>2026-04-04T15:33:48.9Z</time></trkpt><trkpt lat="43.3813257" lon="11.4131429"><ele>254.0</ele><time>2026-04-04T15:33:49.895Z</time></trkpt><trkpt lat="43.381461" lon="11.4130425"><ele>252.0</ele><time>2026-04-04T15:33:50.898Z</time></trkpt><trkpt lat="43.3816135" lon="11.4129804"><ele>250.0</ele><time>2026-04-04T15:33:51.885Z</time></trkpt><trkpt lat="43.381782" lon="11.412964"><ele>250.0</ele><time>2026-04-04T15:33:52.895Z</time></trkpt><trkpt lat="43.3819478" lon="11.4129685"><ele>250.0</ele><time>2026-04-04T15:33:53.891Z</time></trkpt><trkpt lat="43.3821162" lon="11.4130087"><ele>250.0</ele><time>2026-04-04T15:33:54.892Z</time></trkpt><trkpt lat="43.3822711" lon="11.4130926"><ele>253.33333333333331</ele><time>2026-04-04T15:33:55.887Z</time></trkpt><trkpt lat="43.3824323" lon="11.4132061"><ele>256.6666666666667</ele><time>2026-04-04T15:33:56.889Z</time></trkpt><trkpt lat="43.3825864" lon="11.4133109"><ele>260.0</ele><time>2026-04-04T15:33:57.896Z</time></trkpt><trkpt lat="43.3827425" lon="11.4134182"><ele>260.0</ele><time>2026-04-04T15:33:58.891Z</time></trkpt><trkpt lat="43.3829053" lon="11.4135246"><ele>260.0</ele><time>2026-04-04T15:33:59.893Z</time></trkpt><trkpt lat="43.3830711" lon="11.4136342"><ele>260.0</ele><time>2026-04-04T15:34:00.888Z</time></trkpt><trkpt lat="43.383237" lon="11.41373"><ele>258.33333333333337</ele><time>2026-04-04T15:34:01.896Z</time></trkpt><trkpt lat="43.3834144" lon="11.4137883"><ele>256.6666666666667</ele><time>2026-04-04T15:34:02.904Z</time></trkpt><trkpt lat="43.3836004" lon="11.413815"><ele>255.0</ele><time>2026-04-04T15:34:03.89Z</time></trkpt><trkpt lat="43.383791" lon="11.4138375"><ele>255.0</ele><time>2026-04-04T15:34:04.892Z</time></trkpt><trkpt lat="43.3839843" lon="11.4138396"><ele>255.0</ele><time>2026-04-04T15:34:05.892Z</time></trkpt><trkpt lat="43.3841694" lon="11.4138083"><ele>255.0</ele><time>2026-04-04T15:34:06.895Z</time></trkpt><trkpt lat="43.3843495" lon="11.413745"><ele>255.0</ele><time>2026-04-04T15:34:07.891Z</time></trkpt><trkpt lat="43.3845304" lon="11.4136712"><ele>255.0</ele><time>2026-04-04T15:34:08.9Z</time></trkpt><trkpt lat="43.3847065" lon="11.4135784"><ele>255.0</ele><time>2026-04-04T15:34:09.892Z</time></trkpt><trkpt lat="43.384886" lon="11.4134838"><ele>256.6666666666667</ele><time>2026-04-04T15:34:10.897Z</time></trkpt><trkpt lat="43.3850614" lon="11.4133878"><ele>258.33333333333337</ele><time>2026-04-04T15:34:11.895Z</time></trkpt><trkpt lat="43.3852323" lon="11.4132879"><ele>260.0</ele><time>2026-04-04T15:34:12.891Z</time></trkpt><trkpt lat="43.3853846" lon="11.4132022"><ele>259.75</ele><time>2026-04-04T15:34:13.892Z</time></trkpt><trkpt lat="43.3855205" lon="11.4131317"><ele>259.5</ele><time>2026-04-04T15:34:14.895Z</time></trkpt><trkpt lat="43.3856468" lon="11.4131089"><ele>259.25</ele><time>2026-04-04T15:34:15.893Z</time></trkpt><trkpt lat="43.3857698" lon="11.4131256"><ele>259.0</ele><time>2026-04-04T15:34:16.898Z</time></trkpt><trkpt lat="43.3858858" lon="11.4132179"><ele>259.0</ele><time>2026-04-04T15:34:17.891Z</time></trkpt><trkpt lat="43.3859911" lon="11.4133436"><ele>259.0</ele><time>2026-04-04T15:34:18.89Z</time></trkpt><trkpt lat="43.386097" lon="11.4134816"><ele>259.0</ele><time>2026-04-04T15:34:19.893Z</time></trkpt><trkpt lat="43.3862053" lon="11.4136272"><ele>259.0</ele><time>2026-04-04T15:34:20.892Z</time></trkpt><trkpt lat="43.3863247" lon="11.4137492"><ele>257.66666666666663</ele><time>2026-04-04T15:34:21.893Z</time></trkpt><trkpt lat="43.3864591" lon="11.4138313"><ele>256.3333333333333</ele><time>2026-04-04T15:34:22.902Z</time></trkpt><trkpt lat="43.3866141" lon="11.4138483"><ele>255.0</ele><time>2026-04-04T15:34:23.89Z</time></trkpt><trkpt lat="43.3867686" lon="11.4138066"><ele>255.0</ele><time>2026-04-04T15:34:24.903Z</time></trkpt><trkpt lat="43.3869275" lon="11.413738"><ele>255.0</ele><time>2026-04-04T15:34:25.893Z</time></trkpt><trkpt lat="43.3870785" lon="11.4136539"><ele>255.0</ele><time>2026-04-04T15:34:26.891Z</time></trkpt><trkpt lat="43.3872295" lon="11.4135803"><ele>254.33333333333331</ele><time>2026-04-04T15:34:27.893Z</time></trkpt><trkpt lat="43.3873924" lon="11.4135159"><ele>253.66666666666666</ele><time>2026-04-04T15:34:28.896Z</time></trkpt><trkpt lat="43.3875559" lon="11.4134777"><ele>253.0</ele><time>2026-04-04T15:34:29.904Z</time></trkpt><trkpt lat="43.3877385" lon="11.4134733"><ele>253.0</ele><time>2026-04-04T15:34:30.895Z</time></trkpt><trkpt lat="43.3879184" lon="11.4134818"><ele>253.0</ele><time>2026-04-04T15:34:31.893Z</time></trkpt><trkpt lat="43.3880979" lon="11.4134993"><ele>253.0</ele><time>2026-04-04T15:34:32.89Z</time></trkpt><trkpt lat="43.3882825" lon="11.4135428"><ele>253.33333333333331</ele><time>2026-04-04T15:34:33.902Z</time></trkpt><trkpt lat="43.3884629" lon="11.4135986"><ele>253.66666666666669</ele><time>2026-04-04T15:34:34.893Z</time></trkpt><trkpt lat="43.3886385" lon="11.4136455"><ele>254.0</ele><time>2026-04-04T15:34:35.885Z</time></trkpt><trkpt lat="43.3888188" lon="11.4136945"><ele>253.33333333333334</ele><time>2026-04-04T15:34:36.892Z</time></trkpt><trkpt lat="43.3890013" lon="11.4137429"><ele>252.66666666666669</ele><time>2026-04-04T15:34:37.902Z</time></trkpt><trkpt lat="43.3891856" lon="11.4137979"><ele>252.0</ele><time>2026-04-04T15:34:38.896Z</time></trkpt><trkpt lat="43.3893697" lon="11.4138517"><ele>253.66666666666669</ele><time>2026-04-04T15:34:39.897Z</time></trkpt><trkpt lat="43.3895574" lon="11.4139086"><ele>255.33333333333334</ele><time>2026-04-04T15:34:40.895Z</time></trkpt><trkpt lat="43.3897447" lon="11.4139638"><ele>257.0</ele><time>2026-04-04T15:34:41.884Z</time></trkpt><trkpt lat="43.3899408" lon="11.4140209"><ele>257.0</ele><time>2026-04-04T15:34:42.893Z</time></trkpt><trkpt lat="43.3901288" lon="11.4140743"><ele>257.0</ele><time>2026-04-04T15:34:43.903Z</time></trkpt><trkpt lat="43.3903241" lon="11.4141138"><ele>257.0</ele><time>2026-04-04T15:34:44.891Z</time></trkpt><trkpt lat="43.3905216" lon="11.4141397"><ele>257.0</ele><time>2026-04-04T15:34:45.89Z</time></trkpt><trkpt lat="43.3907238" lon="11.414146"><ele>257.0</ele><time>2026-04-04T15:34:46.893Z</time></trkpt><trkpt lat="43.3909233" lon="11.4141373"><ele>257.0</ele><time>2026-04-04T15:34:47.895Z</time></trkpt><trkpt lat="43.3911256" lon="11.4141089"><ele>257.0</ele><time>2026-04-04T15:34:48.896Z</time></trkpt><trkpt lat="43.3913231" lon="11.4140565"><ele>257.0</ele><time>2026-04-04T15:34:49.892Z</time></trkpt><trkpt lat="43.391512" lon="11.4139625"><ele>257.0</ele><time>2026-04-04T15:34:50.897Z</time></trkpt><trkpt lat="43.3916997" lon="11.4138472"><ele>256.6666666666667</ele><time>2026-04-04T15:34:51.889Z</time></trkpt><trkpt lat="43.391879" lon="11.4136999"><ele>256.3333333333333</ele><time>2026-04-04T15:34:52.899Z</time></trkpt><trkpt lat="43.3920532" lon="11.4135379"><ele>256.0</ele><time>2026-04-04T15:34:53.893Z</time></trkpt><trkpt lat="43.3922163" lon="11.4133513"><ele>255.66666666666666</ele><time>2026-04-04T15:34:54.896Z</time></trkpt><trkpt lat="43.3923582" lon="11.4131308"><ele>255.33333333333331</ele><time>2026-04-04T15:34:55.893Z</time></trkpt><trkpt lat="43.3924772" lon="11.4128835"><ele>255.0</ele><time>2026-04-04T15:34:56.896Z</time></trkpt><trkpt lat="43.3925859" lon="11.4126261"><ele>254.33333333333331</ele><time>2026-04-04T15:34:57.893Z</time></trkpt><trkpt lat="43.3926922" lon="11.4123726"><ele>253.66666666666666</ele><time>2026-04-04T15:34:58.889Z</time></trkpt><trkpt lat="43.3927981" lon="11.4121424"><ele>253.0</ele><time>2026-04-04T15:34:59.89Z</time></trkpt><trkpt lat="43.3929001" lon="11.4119141"><ele>253.66666666666666</ele><time>2026-04-04T15:35:00.894Z</time></trkpt><trkpt lat="43.3930015" lon="11.4116986"><ele>254.33333333333331</ele><time>2026-04-04T15:35:01.89Z</time></trkpt><trkpt lat="43.3931088" lon="11.4114894"><ele>255.0</ele><time>2026-04-04T15:35:02.897Z</time></trkpt><trkpt lat="43.3932149" lon="11.4112888"><ele>255.0</ele><time>2026-04-04T15:35:03.89Z</time></trkpt><trkpt lat="43.3933211" lon="11.4110836"><ele>255.0</ele><time>2026-04-04T15:35:04.91Z</time></trkpt><trkpt lat="43.3934206" lon="11.4108921"><ele>255.0</ele><time>2026-04-04T15:35:05.894Z</time></trkpt><trkpt lat="43.3935107" lon="11.4106905"><ele>253.66666666666669</ele><time>2026-04-04T15:35:06.892Z</time></trkpt><trkpt lat="43.393595" lon="11.4104826"><ele>252.33333333333334</ele><time>2026-04-04T15:35:07.896Z</time></trkpt><trkpt lat="43.393653" lon="11.4102536"><ele>251.0</ele><time>2026-04-04T15:35:08.898Z</time></trkpt><trkpt lat="43.3937133" lon="11.4100257"><ele>251.0</ele><time>2026-04-04T15:35:09.897Z</time></trkpt><trkpt lat="43.393768" lon="11.4097983"><ele>251.0</ele><time>2026-04-04T15:35:10.889Z</time></trkpt><trkpt lat="43.3938311" lon="11.409582"><ele>251.0</ele><time>2026-04-04T15:35:11.891Z</time></trkpt><trkpt lat="43.3938983" lon="11.4093675"><ele>252.33333333333334</ele><time>2026-04-04T15:35:12.893Z</time></trkpt><trkpt lat="43.3939648" lon="11.4091563"><ele>253.66666666666669</ele><time>2026-04-04T15:35:13.889Z</time></trkpt><trkpt lat="43.3940444" lon="11.4089523"><ele>255.0</ele><time>2026-04-04T15:35:14.895Z</time></trkpt><trkpt lat="43.3941326" lon="11.4087449"><ele>255.0</ele><time>2026-04-04T15:35:15.894Z</time></trkpt><trkpt lat="43.3942266" lon="11.4085368"><ele>255.0</ele><time>2026-04-04T15:35:16.89Z</time></trkpt><trkpt lat="43.3943202" lon="11.4083417"><ele>255.0</ele><time>2026-04-04T15:35:17.892Z</time></trkpt><trkpt lat="43.3944064" lon="11.408146"><ele>253.66666666666669</ele><time>2026-04-04T15:35:18.893Z</time></trkpt><trkpt lat="43.3944895" lon="11.4079532"><ele>252.33333333333334</ele><time>2026-04-04T15:35:19.89Z</time></trkpt><trkpt lat="43.3945706" lon="11.407768"><ele>251.0</ele><time>2026-04-04T15:35:20.902Z</time></trkpt><trkpt lat="43.394649" lon="11.4075952"><ele>252.5</ele><time>2026-04-04T15:35:21.893Z</time></trkpt><trkpt lat="43.3947255" lon="11.4074271"><ele>254.0</ele><time>2026-04-04T15:35:22.9Z</time></trkpt><trkpt lat="43.3947962" lon="11.4072592"><ele>255.5</ele><time>2026-04-04T15:35:23.888Z</time></trkpt><trkpt lat="43.3948772" lon="11.4071015"><ele>257.0</ele><time>2026-04-04T15:35:24.888Z</time></trkpt><trkpt lat="43.3949764" lon="11.4069376"><ele>257.0</ele><time>2026-04-04T15:35:25.899Z</time></trkpt><trkpt lat="43.3950916" lon="11.4067713"><ele>257.0</ele><time>2026-04-04T15:35:26.89Z</time></trkpt><trkpt lat="43.3952105" lon="11.4065937"><ele>257.0</ele><time>2026-04-04T15:35:27.889Z</time></trkpt><trkpt lat="43.395332" lon="11.4064208"><ele>258.0</ele><time>2026-04-04T15:35:28.894Z</time></trkpt><trkpt lat="43.3954673" lon="11.4062476"><ele>259.0</ele><time>2026-04-04T15:35:29.892Z</time></trkpt><trkpt lat="43.3956119" lon="11.4060768"><ele>260.0</ele><time>2026-04-04T15:35:30.896Z</time></trkpt><trkpt lat="43.3957675" lon="11.4059051"><ele>260.0</ele><time>2026-04-04T15:35:31.894Z</time></trkpt><trkpt lat="43.3959216" lon="11.4057342"><ele>260.0</ele><time>2026-04-04T15:35:32.896Z</time></trkpt><trkpt lat="43.3960818" lon="11.4055564"><ele>260.0</ele><time>2026-04-04T15:35:33.9Z</time></trkpt><trkpt lat="43.3962394" lon="11.4053764"><ele>261.6666666666667</ele><time>2026-04-04T15:35:34.892Z</time></trkpt><trkpt lat="43.3963961" lon="11.4051867"><ele>263.3333333333333</ele><time>2026-04-04T15:35:35.899Z</time></trkpt><trkpt lat="43.3965588" lon="11.4049921"><ele>265.0</ele><time>2026-04-04T15:35:36.907Z</time></trkpt><trkpt lat="43.3967166" lon="11.4048004"><ele>262.3333333333333</ele><time>2026-04-04T15:35:37.898Z</time></trkpt><trkpt lat="43.3968681" lon="11.4046119"><ele>259.6666666666667</ele><time>2026-04-04T15:35:38.896Z</time></trkpt><trkpt lat="43.3970074" lon="11.4044361"><ele>257.0</ele><time>2026-04-04T15:35:39.896Z</time></trkpt><trkpt lat="43.3971416" lon="11.4042677"><ele>257.0</ele><time>2026-04-04T15:35:40.891Z</time></trkpt><trkpt lat="43.3972682" lon="11.4041033"><ele>257.0</ele><time>2026-04-04T15:35:41.896Z</time></trkpt><trkpt lat="43.3973983" lon="11.4039362"><ele>257.0</ele><time>2026-04-04T15:35:42.893Z</time></trkpt><trkpt lat="43.3975296" lon="11.4037775"><ele>257.0</ele><time>2026-04-04T15:35:43.902Z</time></trkpt><trkpt lat="43.3976593" lon="11.4036262"><ele>257.0</ele><time>2026-04-04T15:35:44.891Z</time></trkpt><trkpt lat="43.3977871" lon="11.4034807"><ele>257.0</ele><time>2026-04-04T15:35:45.9Z</time></trkpt><trkpt lat="43.3979139" lon="11.40334"><ele>258.75</ele><time>2026-04-04T15:35:46.892Z</time></trkpt><trkpt lat="43.3980399" lon="11.4032172"><ele>260.5</ele><time>2026-04-04T15:35:47.896Z</time></trkpt><trkpt lat="43.3981706" lon="11.4031422"><ele>262.25</ele><time>2026-04-04T15:35:48.892Z</time></trkpt><trkpt lat="43.3983035" lon="11.4031126"><ele>264.0</ele><time>2026-04-04T15:35:49.888Z</time></trkpt><trkpt lat="43.3984361" lon="11.4031115"><ele>264.0</ele><time>2026-04-04T15:35:50.889Z</time></trkpt><trkpt lat="43.3985833" lon="11.4031416"><ele>264.0</ele><time>2026-04-04T15:35:51.891Z</time></trkpt><trkpt lat="43.3987273" lon="11.4031864"><ele>264.0</ele><time>2026-04-04T15:35:52.888Z</time></trkpt><trkpt lat="43.3988705" lon="11.4032489"><ele>264.0</ele><time>2026-04-04T15:35:53.896Z</time></trkpt><trkpt lat="43.3990128" lon="11.403322"><ele>264.0</ele><time>2026-04-04T15:35:54.889Z</time></trkpt><trkpt lat="43.3991604" lon="11.4033976"><ele>264.0</ele><time>2026-04-04T15:35:55.889Z</time></trkpt><trkpt lat="43.3993001" lon="11.4034965"><ele>264.0</ele><time>2026-04-04T15:35:56.894Z</time></trkpt><trkpt lat="43.3994201" lon="11.4036108"><ele>264.0</ele><time>2026-04-04T15:35:57.889Z</time></trkpt><trkpt lat="43.3995315" lon="11.4037379"><ele>264.0</ele><time>2026-04-04T15:35:58.892Z</time></trkpt><trkpt lat="43.3996271" lon="11.4038871"><ele>264.0</ele><time>2026-04-04T15:35:59.895Z</time></trkpt><trkpt lat="43.3997094" lon="11.404052"><ele>264.0</ele><time>2026-04-04T15:36:00.889Z</time></trkpt><trkpt lat="43.3997879" lon="11.4042277"><ele>263.6666666666667</ele><time>2026-04-04T15:36:01.885Z</time></trkpt><trkpt lat="43.3998682" lon="11.4043999"><ele>263.33333333333337</ele><time>2026-04-04T15:36:02.897Z</time></trkpt><trkpt lat="43.3999655" lon="11.4045649"><ele>263.0</ele><time>2026-04-04T15:36:03.891Z</time></trkpt><trkpt lat="43.4000712" lon="11.4047162"><ele>267.6666666666667</ele><time>2026-04-04T15:36:04.89Z</time></trkpt><trkpt lat="43.4001936" lon="11.4048594"><ele>272.3333333333333</ele><time>2026-04-04T15:36:05.898Z</time></trkpt><trkpt lat="43.4003278" lon="11.4049725"><ele>277.0</ele><time>2026-04-04T15:36:06.897Z</time></trkpt><trkpt lat="43.4004632" lon="11.4050845"><ele>272.0</ele><time>2026-04-04T15:36:07.893Z</time></trkpt><trkpt lat="43.4006078" lon="11.4051858"><ele>267.0</ele><time>2026-04-04T15:36:08.896Z</time></trkpt><trkpt lat="43.4007453" lon="11.4052919"><ele>262.0</ele><time>2026-04-04T15:36:09.888Z</time></trkpt><trkpt lat="43.4008783" lon="11.405393"><ele>262.0</ele><time>2026-04-04T15:36:10.887Z</time></trkpt><trkpt lat="43.4010134" lon="11.4054929"><ele>262.0</ele><time>2026-04-04T15:36:11.896Z</time></trkpt><trkpt lat="43.401144" lon="11.4055916"><ele>262.0</ele><time>2026-04-04T15:36:12.896Z</time></trkpt><trkpt lat="43.401269" lon="11.4056966"><ele>262.0</ele><time>2026-04-04T15:36:13.893Z</time></trkpt><trkpt lat="43.4014083" lon="11.4058052"><ele>261.66666666666663</ele><time>2026-04-04T15:36:14.888Z</time></trkpt><trkpt lat="43.4015487" lon="11.4059121"><ele>261.3333333333333</ele><time>2026-04-04T15:36:15.896Z</time></trkpt><trkpt lat="43.4016842" lon="11.4060171"><ele>261.0</ele><time>2026-04-04T15:36:16.896Z</time></trkpt><trkpt lat="43.4018169" lon="11.4061173"><ele>261.0</ele><time>2026-04-04T15:36:17.892Z</time></trkpt><trkpt lat="43.4019503" lon="11.406196"><ele>261.0</ele><time>2026-04-04T15:36:18.893Z</time></trkpt><trkpt lat="43.402088" lon="11.4062408"><ele>261.0</ele><time>2026-04-04T15:36:19.891Z</time></trkpt><trkpt lat="43.4022261" lon="11.4062653"><ele>261.0</ele><time>2026-04-04T15:36:20.897Z</time></trkpt><trkpt lat="43.4023637" lon="11.4062321"><ele>262.0</ele><time>2026-04-04T15:36:21.893Z</time></trkpt><trkpt lat="43.4025059" lon="11.4061366"><ele>263.0</ele><time>2026-04-04T15:36:22.902Z</time></trkpt><trkpt lat="43.4026339" lon="11.40601"><ele>264.0</ele><time>2026-04-04T15:36:23.888Z</time></trkpt><trkpt lat="43.4027631" lon="11.4058861"><ele>264.0</ele><time>2026-04-04T15:36:24.897Z</time></trkpt><trkpt lat="43.4028962" lon="11.4057726"><ele>264.0</ele><time>2026-04-04T15:36:25.904Z</time></trkpt><trkpt lat="43.4030443" lon="11.405694"><ele>264.0</ele><time>2026-04-04T15:36:26.891Z</time></trkpt><trkpt lat="43.4032037" lon="11.4056307"><ele>262.3333333333333</ele><time>2026-04-04T15:36:27.886Z</time></trkpt><trkpt lat="43.4033631" lon="11.4055685"><ele>260.66666666666663</ele><time>2026-04-04T15:36:28.895Z</time></trkpt><trkpt lat="43.4035167" lon="11.4055087"><ele>259.0</ele><time>2026-04-04T15:36:29.893Z</time></trkpt><trkpt lat="43.4036739" lon="11.4054556"><ele>261.3333333333333</ele><time>2026-04-04T15:36:30.889Z</time></trkpt><trkpt lat="43.4038348" lon="11.4053897"><ele>263.6666666666667</ele><time>2026-04-04T15:36:31.888Z</time></trkpt><trkpt lat="43.4039908" lon="11.4053178"><ele>266.0</ele><time>2026-04-04T15:36:32.887Z</time></trkpt><trkpt lat="43.404135" lon="11.4052441"><ele>266.0</ele><time>2026-04-04T15:36:33.892Z</time></trkpt><trkpt lat="43.4042731" lon="11.4051555"><ele>266.0</ele><time>2026-04-04T15:36:34.894Z</time></trkpt><trkpt lat="43.4044051" lon="11.405068"><ele>266.0</ele><time>2026-04-04T15:36:35.888Z</time></trkpt><trkpt lat="43.4045277" lon="11.4049776"><ele>266.0</ele><time>2026-04-04T15:36:36.89Z</time></trkpt><trkpt lat="43.4046419" lon="11.4048937"><ele>267.25</ele><time>2026-04-04T15:36:37.889Z</time></trkpt><trkpt lat="43.4047671" lon="11.4048431"><ele>268.5</ele><time>2026-04-04T15:36:38.895Z</time></trkpt><trkpt lat="43.4049024" lon="11.4048341"><ele>269.75</ele><time>2026-04-04T15:36:39.888Z</time></trkpt><trkpt lat="43.4050545" lon="11.4048417"><ele>271.0</ele><time>2026-04-04T15:36:40.892Z</time></trkpt><trkpt lat="43.4052104" lon="11.4048552"><ele>271.0</ele><time>2026-04-04T15:36:41.901Z</time></trkpt><trkpt lat="43.4053796" lon="11.4048443"><ele>271.0</ele><time>2026-04-04T15:36:42.889Z</time></trkpt><trkpt lat="43.4055523" lon="11.4048257"><ele>271.0</ele><time>2026-04-04T15:36:43.892Z</time></trkpt><trkpt lat="43.4057448" lon="11.4047984"><ele>272.0</ele><time>2026-04-04T15:36:44.893Z</time></trkpt><trkpt lat="43.4059402" lon="11.4047609"><ele>273.0</ele><time>2026-04-04T15:36:45.895Z</time></trkpt><trkpt lat="43.4061267" lon="11.4047159"><ele>274.0</ele><time>2026-04-04T15:36:46.899Z</time></trkpt><trkpt lat="43.4063087" lon="11.4046487"><ele>272.0</ele><time>2026-04-04T15:36:47.897Z</time></trkpt><trkpt lat="43.4064881" lon="11.4045661"><ele>270.0</ele><time>2026-04-04T15:36:48.887Z</time></trkpt><trkpt lat="43.4066733" lon="11.4044688"><ele>268.0</ele><time>2026-04-04T15:36:49.893Z</time></trkpt><trkpt lat="43.4068515" lon="11.4043722"><ele>268.0</ele><time>2026-04-04T15:36:50.9Z</time></trkpt><trkpt lat="43.4070367" lon="11.4042742"><ele>268.0</ele><time>2026-04-04T15:36:51.89Z</time></trkpt><trkpt lat="43.4072205" lon="11.4041826"><ele>268.0</ele><time>2026-04-04T15:36:52.889Z</time></trkpt><trkpt lat="43.4074113" lon="11.4040962"><ele>271.66666666666663</ele><time>2026-04-04T15:36:53.887Z</time></trkpt><trkpt lat="43.4075998" lon="11.4040199"><ele>275.3333333333333</ele><time>2026-04-04T15:36:54.896Z</time></trkpt><trkpt lat="43.4077818" lon="11.4039547"><ele>279.0</ele><time>2026-04-04T15:36:55.89Z</time></trkpt><trkpt lat="43.4079567" lon="11.4039015"><ele>280.0</ele><time>2026-04-04T15:36:56.889Z</time></trkpt><trkpt lat="43.4081184" lon="11.4038603"><ele>281.0</ele><time>2026-04-04T15:36:57.885Z</time></trkpt><trkpt lat="43.4082616" lon="11.4038473"><ele>282.0</ele><time>2026-04-04T15:36:58.883Z</time></trkpt><trkpt lat="43.408395" lon="11.4038318"><ele>283.0</ele><time>2026-04-04T15:36:59.9Z</time></trkpt><trkpt lat="43.4085179" lon="11.4038156"><ele>282.0</ele><time>2026-04-04T15:37:00.894Z</time></trkpt><trkpt lat="43.4086272" lon="11.4037777"><ele>281.0</ele><time>2026-04-04T15:37:01.888Z</time></trkpt><trkpt lat="43.4087263" lon="11.403702"><ele>280.0</ele><time>2026-04-04T15:37:02.898Z</time></trkpt><trkpt lat="43.4088111" lon="11.4035953"><ele>279.0</ele><time>2026-04-04T15:37:03.888Z</time></trkpt><trkpt lat="43.4088947" lon="11.403474"><ele>279.0</ele><time>2026-04-04T15:37:04.899Z</time></trkpt><trkpt lat="43.4089811" lon="11.4033412"><ele>279.0</ele><time>2026-04-04T15:37:05.895Z</time></trkpt><trkpt lat="43.4090757" lon="11.4031996"><ele>279.0</ele><time>2026-04-04T15:37:06.889Z</time></trkpt><trkpt lat="43.40917" lon="11.4030565"><ele>279.0</ele><time>2026-04-04T15:37:07.892Z</time></trkpt><trkpt lat="43.4092712" lon="11.4029173"><ele>274.6666666666667</ele><time>2026-04-04T15:37:08.901Z</time></trkpt><trkpt lat="43.4093744" lon="11.4027669"><ele>270.33333333333337</ele><time>2026-04-04T15:37:09.894Z</time></trkpt><trkpt lat="43.4094831" lon="11.4026112"><ele>266.0</ele><time>2026-04-04T15:37:10.894Z</time></trkpt><trkpt lat="43.4096011" lon="11.4024387"><ele>266.33333333333337</ele><time>2026-04-04T15:37:11.889Z</time></trkpt><trkpt lat="43.4097223" lon="11.4022632"><ele>266.6666666666667</ele><time>2026-04-04T15:37:12.893Z</time></trkpt><trkpt lat="43.4098473" lon="11.4020749"><ele>267.0</ele><time>2026-04-04T15:37:13.891Z</time></trkpt><trkpt lat="43.4099768" lon="11.4018777"><ele>267.0</ele><time>2026-04-04T15:37:14.887Z</time></trkpt><trkpt lat="43.410114" lon="11.4016758"><ele>267.0</ele><time>2026-04-04T15:37:15.9Z</time></trkpt><trkpt lat="43.4102488" lon="11.4014775"><ele>267.0</ele><time>2026-04-04T15:37:16.893Z</time></trkpt><trkpt lat="43.4103855" lon="11.4012787"><ele>269.3333333333333</ele><time>2026-04-04T15:37:17.893Z</time></trkpt><trkpt lat="43.4105288" lon="11.4010857"><ele>271.66666666666663</ele><time>2026-04-04T15:37:18.889Z</time></trkpt><trkpt lat="43.4106824" lon="11.400894"><ele>274.0</ele><time>2026-04-04T15:37:19.895Z</time></trkpt><trkpt lat="43.4108339" lon="11.4006904"><ele>271.3333333333333</ele><time>2026-04-04T15:37:20.894Z</time></trkpt><trkpt lat="43.4109844" lon="11.4004799"><ele>268.6666666666667</ele><time>2026-04-04T15:37:21.89Z</time></trkpt><trkpt lat="43.4111308" lon="11.400268"><ele>266.0</ele><time>2026-04-04T15:37:22.889Z</time></trkpt><trkpt lat="43.4112763" lon="11.4000625"><ele>266.33333333333337</ele><time>2026-04-04T15:37:23.89Z</time></trkpt><trkpt lat="43.4114151" lon="11.399858"><ele>266.6666666666667</ele><time>2026-04-04T15:37:24.905Z</time></trkpt><trkpt lat="43.4115488" lon="11.399671"><ele>267.0</ele><time>2026-04-04T15:37:25.891Z</time></trkpt><trkpt lat="43.4116748" lon="11.3994888"><ele>267.0</ele><time>2026-04-04T15:37:26.891Z</time></trkpt><trkpt lat="43.4118021" lon="11.3993161"><ele>267.0</ele><time>2026-04-04T15:37:27.893Z</time></trkpt><trkpt lat="43.4119495" lon="11.3991797"><ele>267.0</ele><time>2026-04-04T15:37:28.892Z</time></trkpt><trkpt lat="43.4121108" lon="11.3990639"><ele>267.0</ele><time>2026-04-04T15:37:29.896Z</time></trkpt><trkpt lat="43.4122845" lon="11.3989866"><ele>267.0</ele><time>2026-04-04T15:37:30.891Z</time></trkpt><trkpt lat="43.4124662" lon="11.3989413"><ele>267.0</ele><time>2026-04-04T15:37:31.901Z</time></trkpt><trkpt lat="43.4126547" lon="11.3989329"><ele>267.0</ele><time>2026-04-04T15:37:32.899Z</time></trkpt><trkpt lat="43.4128413" lon="11.398944"><ele>267.0</ele><time>2026-04-04T15:37:33.894Z</time></trkpt><trkpt lat="43.4130355" lon="11.3989738"><ele>267.0</ele><time>2026-04-04T15:37:34.895Z</time></trkpt><trkpt lat="43.4132347" lon="11.3989987"><ele>267.3333333333333</ele><time>2026-04-04T15:37:35.892Z</time></trkpt><trkpt lat="43.4134337" lon="11.3990265"><ele>267.66666666666663</ele><time>2026-04-04T15:37:36.889Z</time></trkpt><trkpt lat="43.4136371" lon="11.3990517"><ele>268.0</ele><time>2026-04-04T15:37:37.889Z</time></trkpt><trkpt lat="43.4138418" lon="11.3990713"><ele>268.66666666666663</ele><time>2026-04-04T15:37:38.89Z</time></trkpt><trkpt lat="43.4140485" lon="11.39909"><ele>269.3333333333333</ele><time>2026-04-04T15:37:39.896Z</time></trkpt><trkpt lat="43.4142596" lon="11.3991136"><ele>270.0</ele><time>2026-04-04T15:37:40.887Z</time></trkpt><trkpt lat="43.4144718" lon="11.3991415"><ele>271.3333333333333</ele><time>2026-04-04T15:37:41.881Z</time></trkpt><trkpt lat="43.4146747" lon="11.3991642"><ele>272.66666666666663</ele><time>2026-04-04T15:37:42.885Z</time></trkpt><trkpt lat="43.4148627" lon="11.3991649"><ele>274.0</ele><time>2026-04-04T15:37:43.887Z</time></trkpt><trkpt lat="43.4150491" lon="11.3991511"><ele>274.0</ele><time>2026-04-04T15:37:44.889Z</time></trkpt><trkpt lat="43.4152351" lon="11.3990977"><ele>274.0</ele><time>2026-04-04T15:37:45.888Z</time></trkpt><trkpt lat="43.415423" lon="11.3990172"><ele>274.0</ele><time>2026-04-04T15:37:46.892Z</time></trkpt><trkpt lat="43.4156112" lon="11.3989297"><ele>274.0</ele><time>2026-04-04T15:37:47.89Z</time></trkpt><trkpt lat="43.4158016" lon="11.3988403"><ele>274.0</ele><time>2026-04-04T15:37:48.898Z</time></trkpt><trkpt lat="43.415992" lon="11.3987469"><ele>274.0</ele><time>2026-04-04T15:37:49.88Z</time></trkpt><trkpt lat="43.4161771" lon="11.3986556"><ele>278.66666666666663</ele><time>2026-04-04T15:37:50.884Z</time></trkpt><trkpt lat="43.4163673" lon="11.3985743"><ele>283.3333333333333</ele><time>2026-04-04T15:37:51.888Z</time></trkpt><trkpt lat="43.4165548" lon="11.398494"><ele>288.0</ele><time>2026-04-04T15:37:52.89Z</time></trkpt><trkpt lat="43.4167357" lon="11.3984269"><ele>288.0</ele><time>2026-04-04T15:37:53.884Z</time></trkpt><trkpt lat="43.4169112" lon="11.3983822"><ele>288.0</ele><time>2026-04-04T15:37:54.886Z</time></trkpt><trkpt lat="43.4170802" lon="11.398381"><ele>288.0</ele><time>2026-04-04T15:37:55.884Z</time></trkpt><trkpt lat="43.4172502" lon="11.3984261"><ele>290.3333333333333</ele><time>2026-04-04T15:37:56.885Z</time></trkpt><trkpt lat="43.4174165" lon="11.3984983"><ele>292.66666666666663</ele><time>2026-04-04T15:37:57.886Z</time></trkpt><trkpt lat="43.4175828" lon="11.3985873"><ele>295.0</ele><time>2026-04-04T15:37:58.883Z</time></trkpt><trkpt lat="43.4177385" lon="11.3987137"><ele>293.3333333333333</ele><time>2026-04-04T15:37:59.88Z</time></trkpt><trkpt lat="43.4178775" lon="11.3988725"><ele>291.6666666666667</ele><time>2026-04-04T15:38:00.885Z</time></trkpt><trkpt lat="43.417996" lon="11.3990739"><ele>290.0</ele><time>2026-04-04T15:38:01.876Z</time></trkpt><trkpt lat="43.4181143" lon="11.3992808"><ele>290.0</ele><time>2026-04-04T15:38:02.879Z</time></trkpt><trkpt lat="43.4182454" lon="11.3994709"><ele>290.0</ele><time>2026-04-04T15:38:03.882Z</time></trkpt><trkpt lat="43.4183868" lon="11.3996512"><ele>290.0</ele><time>2026-04-04T15:38:04.881Z</time></trkpt><trkpt lat="43.4185286" lon="11.3998295"><ele>288.6666666666667</ele><time>2026-04-04T15:38:05.89Z</time></trkpt><trkpt lat="43.4186774" lon="11.4000175"><ele>287.3333333333333</ele><time>2026-04-04T15:38:06.879Z</time></trkpt><trkpt lat="43.4188267" lon="11.4002105"><ele>286.0</ele><time>2026-04-04T15:38:07.877Z</time></trkpt><trkpt lat="43.4189664" lon="11.4004107"><ele>282.66666666666663</ele><time>2026-04-04T15:38:08.884Z</time></trkpt><trkpt lat="43.4190926" lon="11.4006186"><ele>279.3333333333333</ele><time>2026-04-04T15:38:09.883Z</time></trkpt><trkpt lat="43.4192029" lon="11.4008423"><ele>276.0</ele><time>2026-04-04T15:38:10.879Z</time></trkpt><trkpt lat="43.4192947" lon="11.4010768"><ele>276.0</ele><time>2026-04-04T15:38:11.891Z</time></trkpt><trkpt lat="43.4193864" lon="11.4013105"><ele>276.0</ele><time>2026-04-04T15:38:12.886Z</time></trkpt><trkpt lat="43.4194642" lon="11.4015572"><ele>276.0</ele><time>2026-04-04T15:38:13.876Z</time></trkpt><trkpt lat="43.4195401" lon="11.4017975"><ele>276.0</ele><time>2026-04-04T15:38:14.886Z</time></trkpt><trkpt lat="43.4196256" lon="11.4020191"><ele>276.0</ele><time>2026-04-04T15:38:15.881Z</time></trkpt><trkpt lat="43.4197209" lon="11.4022055"><ele>276.0</ele><time>2026-04-04T15:38:16.885Z</time></trkpt><trkpt lat="43.4198379" lon="11.4023628"><ele>278.3333333333333</ele><time>2026-04-04T15:38:17.88Z</time></trkpt><trkpt lat="43.4199711" lon="11.4024864"><ele>280.66666666666663</ele><time>2026-04-04T15:38:18.893Z</time></trkpt><trkpt lat="43.4201192" lon="11.4025894"><ele>283.0</ele><time>2026-04-04T15:38:19.888Z</time></trkpt><trkpt lat="43.4202714" lon="11.4026899"><ele>283.0</ele><time>2026-04-04T15:38:20.883Z</time></trkpt><trkpt lat="43.4204318" lon="11.40278"><ele>283.0</ele><time>2026-04-04T15:38:21.881Z</time></trkpt><trkpt lat="43.4205943" lon="11.4028773"><ele>283.0</ele><time>2026-04-04T15:38:22.883Z</time></trkpt><trkpt lat="43.4207546" lon="11.4029689"><ele>284.0</ele><time>2026-04-04T15:38:23.887Z</time></trkpt><trkpt lat="43.4209027" lon="11.4030986"><ele>285.0</ele><time>2026-04-04T15:38:24.887Z</time></trkpt><trkpt lat="43.4210436" lon="11.4032574"><ele>286.0</ele><time>2026-04-04T15:38:25.886Z</time></trkpt><trkpt lat="43.4211806" lon="11.4034306"><ele>286.66666666666663</ele><time>2026-04-04T15:38:26.881Z</time></trkpt><trkpt lat="43.4213193" lon="11.4035995"><ele>287.3333333333333</ele><time>2026-04-04T15:38:27.883Z</time></trkpt><trkpt lat="43.4214615" lon="11.403767"><ele>288.0</ele><time>2026-04-04T15:38:28.882Z</time></trkpt><trkpt lat="43.4216028" lon="11.4039349"><ele>288.0</ele><time>2026-04-04T15:38:29.885Z</time></trkpt><trkpt lat="43.421736" lon="11.4041248"><ele>288.0</ele><time>2026-04-04T15:38:30.882Z</time></trkpt><trkpt lat="43.4218621" lon="11.4042999"><ele>288.0</ele><time>2026-04-04T15:38:31.885Z</time></trkpt><trkpt lat="43.4219727" lon="11.4044731"><ele>288.0</ele><time>2026-04-04T15:38:32.887Z</time></trkpt><trkpt lat="43.4220732" lon="11.4046344"><ele>288.0</ele><time>2026-04-04T15:38:33.884Z</time></trkpt><trkpt lat="43.4221795" lon="11.4047625"><ele>288.0</ele><time>2026-04-04T15:38:34.88Z</time></trkpt><trkpt lat="43.4222995" lon="11.4048675"><ele>288.0</ele><time>2026-04-04T15:38:35.892Z</time></trkpt><trkpt lat="43.4224277" lon="11.4049418"><ele>287.5</ele><time>2026-04-04T15:38:36.89Z</time></trkpt><trkpt lat="43.4225592" lon="11.4049918"><ele>287.0</ele><time>2026-04-04T15:38:37.89Z</time></trkpt><trkpt lat="43.4226877" lon="11.4050184"><ele>286.5</ele><time>2026-04-04T15:38:38.885Z</time></trkpt><trkpt lat="43.4228141" lon="11.405022"><ele>286.0</ele><time>2026-04-04T15:38:39.893Z</time></trkpt><trkpt lat="43.4229175" lon="11.4049787"><ele>285.75</ele><time>2026-04-04T15:38:40.888Z</time></trkpt><trkpt lat="43.422988" lon="11.4048723"><ele>285.5</ele><time>2026-04-04T15:38:41.889Z</time></trkpt><trkpt lat="43.4230447" lon="11.4047386"><ele>285.25</ele><time>2026-04-04T15:38:42.893Z</time></trkpt><trkpt lat="43.4231127" lon="11.4045953"><ele>285.0</ele><time>2026-04-04T15:38:43.89Z</time></trkpt><trkpt lat="43.4231898" lon="11.4044514"><ele>286.25</ele><time>2026-04-04T15:38:44.893Z</time></trkpt><trkpt lat="43.4232948" lon="11.4043278"><ele>287.5</ele><time>2026-04-04T15:38:45.891Z</time></trkpt><trkpt lat="43.4234286" lon="11.4042246"><ele>288.75</ele><time>2026-04-04T15:38:46.887Z</time></trkpt><trkpt lat="43.4235755" lon="11.4041548"><ele>290.0</ele><time>2026-04-04T15:38:47.887Z</time></trkpt><trkpt lat="43.4237107" lon="11.4041172"><ele>288.5</ele><time>2026-04-04T15:38:48.887Z</time></trkpt><trkpt lat="43.4238398" lon="11.4041017"><ele>287.0</ele><time>2026-04-04T15:38:49.888Z</time></trkpt><trkpt lat="43.4239725" lon="11.4041204"><ele>285.5</ele><time>2026-04-04T15:38:50.89Z</time></trkpt><trkpt lat="43.4241068" lon="11.4041433"><ele>284.0</ele><time>2026-04-04T15:38:51.887Z</time></trkpt><trkpt lat="43.4242534" lon="11.4041697"><ele>284.0</ele><time>2026-04-04T15:38:52.884Z</time></trkpt><trkpt lat="43.4244053" lon="11.404162"><ele>284.0</ele><time>2026-04-04T15:38:53.885Z</time></trkpt><trkpt lat="43.4245599" lon="11.4041414"><ele>284.0</ele><time>2026-04-04T15:38:54.888Z</time></trkpt><trkpt lat="43.4247162" lon="11.4041155"><ele>284.6666666666667</ele><time>2026-04-04T15:38:55.895Z</time></trkpt><trkpt lat="43.4248684" lon="11.404098"><ele>285.3333333333333</ele><time>2026-04-04T15:38:56.888Z</time></trkpt><trkpt lat="43.4250193" lon="11.4040847"><ele>286.0</ele><time>2026-04-04T15:38:57.901Z</time></trkpt><trkpt lat="43.4251595" lon="11.4041434"><ele>286.0</ele><time>2026-04-04T15:38:58.885Z</time></trkpt><trkpt lat="43.4252916" lon="11.4042612"><ele>286.0</ele><time>2026-04-04T15:38:59.88Z</time></trkpt><trkpt lat="43.4254263" lon="11.4043595"><ele>286.0</ele><time>2026-04-04T15:39:00.895Z</time></trkpt><trkpt lat="43.4255742" lon="11.4044476"><ele>289.66666666666663</ele><time>2026-04-04T15:39:01.879Z</time></trkpt><trkpt lat="43.4257231" lon="11.4045239"><ele>293.3333333333333</ele><time>2026-04-04T15:39:02.881Z</time></trkpt><trkpt lat="43.4258738" lon="11.4045969"><ele>297.0</ele><time>2026-04-04T15:39:03.882Z</time></trkpt><trkpt lat="43.4260264" lon="11.4046575"><ele>297.5</ele><time>2026-04-04T15:39:04.885Z</time></trkpt><trkpt lat="43.426171" lon="11.404715"><ele>298.0</ele><time>2026-04-04T15:39:05.886Z</time></trkpt><trkpt lat="43.4263004" lon="11.4047979"><ele>298.5</ele><time>2026-04-04T15:39:06.882Z</time></trkpt><trkpt lat="43.4264083" lon="11.4049294"><ele>299.0</ele><time>2026-04-04T15:39:07.886Z</time></trkpt><trkpt lat="43.4265035" lon="11.4050959"><ele>299.0</ele><time>2026-04-04T15:39:08.884Z</time></trkpt><trkpt lat="43.4265895" lon="11.405266"><ele>299.0</ele><time>2026-04-04T15:39:09.887Z</time></trkpt><trkpt lat="43.4266669" lon="11.4054364"><ele>299.0</ele><time>2026-04-04T15:39:10.887Z</time></trkpt><trkpt lat="43.4267377" lon="11.4056151"><ele>299.0</ele><time>2026-04-04T15:39:11.884Z</time></trkpt><trkpt lat="43.4267706" lon="11.405812"><ele>295.6666666666667</ele><time>2026-04-04T15:39:12.893Z</time></trkpt><trkpt lat="43.426764" lon="11.4060243"><ele>292.3333333333333</ele><time>2026-04-04T15:39:13.888Z</time></trkpt><trkpt lat="43.4267493" lon="11.4062351"><ele>289.0</ele><time>2026-04-04T15:39:14.896Z</time></trkpt><trkpt lat="43.4267298" lon="11.4064506"><ele>288.5</ele><time>2026-04-04T15:39:15.885Z</time></trkpt><trkpt lat="43.4267045" lon="11.4066681"><ele>288.0</ele><time>2026-04-04T15:39:16.886Z</time></trkpt><trkpt lat="43.4266809" lon="11.4068709"><ele>287.5</ele><time>2026-04-04T15:39:17.882Z</time></trkpt><trkpt lat="43.4266684" lon="11.4070445"><ele>287.0</ele><time>2026-04-04T15:39:18.891Z</time></trkpt><trkpt lat="43.4267136" lon="11.4071862"><ele>287.0</ele><time>2026-04-04T15:39:19.889Z</time></trkpt><trkpt lat="43.4267893" lon="11.4073111"><ele>287.0</ele><time>2026-04-04T15:39:20.894Z</time></trkpt><trkpt lat="43.4268917" lon="11.4074061"><ele>287.0</ele><time>2026-04-04T15:39:21.895Z</time></trkpt><trkpt lat="43.4270209" lon="11.4075013"><ele>287.0</ele><time>2026-04-04T15:39:22.892Z</time></trkpt><trkpt lat="43.427139" lon="11.4076056"><ele>287.6666666666667</ele><time>2026-04-04T15:39:23.896Z</time></trkpt><trkpt lat="43.4272564" lon="11.4077409"><ele>288.3333333333333</ele><time>2026-04-04T15:39:24.892Z</time></trkpt><trkpt lat="43.427375" lon="11.4078829"><ele>289.0</ele><time>2026-04-04T15:39:25.887Z</time></trkpt><trkpt lat="43.4274932" lon="11.4080169"><ele>289.0</ele><time>2026-04-04T15:39:26.89Z</time></trkpt><trkpt lat="43.4276159" lon="11.408161"><ele>289.0</ele><time>2026-04-04T15:39:27.899Z</time></trkpt><trkpt lat="43.42775" lon="11.4082727"><ele>289.0</ele><time>2026-04-04T15:39:28.895Z</time></trkpt><trkpt lat="43.4278915" lon="11.4083482"><ele>291.66666666666663</ele><time>2026-04-04T15:39:29.89Z</time></trkpt><trkpt lat="43.4280492" lon="11.4083894"><ele>294.3333333333333</ele><time>2026-04-04T15:39:30.892Z</time></trkpt><trkpt lat="43.4282193" lon="11.4084165"><ele>297.0</ele><time>2026-04-04T15:39:31.885Z</time></trkpt><trkpt lat="43.4283867" lon="11.4084206"><ele>297.0</ele><time>2026-04-04T15:39:32.891Z</time></trkpt><trkpt lat="43.4285426" lon="11.4084201"><ele>297.0</ele><time>2026-04-04T15:39:33.888Z</time></trkpt><trkpt lat="43.4286909" lon="11.4084565"><ele>297.0</ele><time>2026-04-04T15:39:34.891Z</time></trkpt><trkpt lat="43.428815" lon="11.4085616"><ele>297.3333333333333</ele><time>2026-04-04T15:39:35.886Z</time></trkpt><trkpt lat="43.428909" lon="11.408715"><ele>297.66666666666663</ele><time>2026-04-04T15:39:36.885Z</time></trkpt><trkpt lat="43.4290015" lon="11.4088869"><ele>298.0</ele><time>2026-04-04T15:39:37.883Z</time></trkpt><trkpt lat="43.4290952" lon="11.4090767"><ele>298.0</ele><time>2026-04-04T15:39:38.886Z</time></trkpt><trkpt lat="43.4291872" lon="11.4092611"><ele>298.0</ele><time>2026-04-04T15:39:39.888Z</time></trkpt><trkpt lat="43.4292842" lon="11.4094433"><ele>298.0</ele><time>2026-04-04T15:39:40.884Z</time></trkpt><trkpt lat="43.4293869" lon="11.4096227"><ele>298.66666666666663</ele><time>2026-04-04T15:39:41.888Z</time></trkpt><trkpt lat="43.4295206" lon="11.4097717"><ele>299.3333333333333</ele><time>2026-04-04T15:39:42.894Z</time></trkpt><trkpt lat="43.4296573" lon="11.4099029"><ele>300.0</ele><time>2026-04-04T15:39:43.886Z</time></trkpt><trkpt lat="43.429806" lon="11.4100229"><ele>300.0</ele><time>2026-04-04T15:39:44.888Z</time></trkpt><trkpt lat="43.4299738" lon="11.4101026"><ele>300.0</ele><time>2026-04-04T15:39:45.886Z</time></trkpt><trkpt lat="43.4301304" lon="11.410189"><ele>300.0</ele><time>2026-04-04T15:39:46.896Z</time></trkpt><trkpt lat="43.4302621" lon="11.4103018"><ele>300.0</ele><time>2026-04-04T15:39:47.892Z</time></trkpt><trkpt lat="43.4303845" lon="11.4104393"><ele>300.0</ele><time>2026-04-04T15:39:48.894Z</time></trkpt><trkpt lat="43.4304984" lon="11.4106078"><ele>300.0</ele><time>2026-04-04T15:39:49.885Z</time></trkpt><trkpt lat="43.4306008" lon="11.4107849"><ele>298.3333333333333</ele><time>2026-04-04T15:39:50.891Z</time></trkpt><trkpt lat="43.4306879" lon="11.4109783"><ele>296.66666666666663</ele><time>2026-04-04T15:39:51.888Z</time></trkpt><trkpt lat="43.4307573" lon="11.4111876"><ele>295.0</ele><time>2026-04-04T15:39:52.879Z</time></trkpt><trkpt lat="43.4308177" lon="11.4113977"><ele>295.0</ele><time>2026-04-04T15:39:53.89Z</time></trkpt><trkpt lat="43.4308745" lon="11.4115949"><ele>295.0</ele><time>2026-04-04T15:39:54.881Z</time></trkpt><trkpt lat="43.4309376" lon="11.4117599"><ele>295.0</ele><time>2026-04-04T15:39:55.878Z</time></trkpt><trkpt lat="43.4310216" lon="11.4119047"><ele>295.0</ele><time>2026-04-04T15:39:56.895Z</time></trkpt><trkpt lat="43.4311215" lon="11.4120368"><ele>294.25</ele><time>2026-04-04T15:39:57.899Z</time></trkpt><trkpt lat="43.4312284" lon="11.4121784"><ele>293.5</ele><time>2026-04-04T15:39:58.885Z</time></trkpt><trkpt lat="43.4313208" lon="11.4123197"><ele>292.75</ele><time>2026-04-04T15:39:59.888Z</time></trkpt><trkpt lat="43.4314049" lon="11.4124519"><ele>292.0</ele><time>2026-04-04T15:40:00.89Z</time></trkpt><trkpt lat="43.4314907" lon="11.41255"><ele>294.0</ele><time>2026-04-04T15:40:01.885Z</time></trkpt><trkpt lat="43.4315735" lon="11.4126106"><ele>296.0</ele><time>2026-04-04T15:40:02.892Z</time></trkpt><trkpt lat="43.4316565" lon="11.4126703"><ele>298.0</ele><time>2026-04-04T15:40:03.885Z</time></trkpt><trkpt lat="43.431742" lon="11.4127446"><ele>300.0</ele><time>2026-04-04T15:40:04.89Z</time></trkpt><trkpt lat="43.4318038" lon="11.4128593"><ele>302.0</ele><time>2026-04-04T15:40:05.904Z</time></trkpt><trkpt lat="43.4318373" lon="11.4130155"><ele>302.0</ele><time>2026-04-04T15:40:06.901Z</time></trkpt><trkpt lat="43.4318506" lon="11.4131923"><ele>302.0</ele><time>2026-04-04T15:40:07.887Z</time></trkpt><trkpt lat="43.4318229" lon="11.4133754"><ele>302.0</ele><time>2026-04-04T15:40:08.892Z</time></trkpt><trkpt lat="43.4317763" lon="11.4135484"><ele>302.0</ele><time>2026-04-04T15:40:09.892Z</time></trkpt><trkpt lat="43.4317108" lon="11.4137132"><ele>302.25</ele><time>2026-04-04T15:40:10.888Z</time></trkpt><trkpt lat="43.4316204" lon="11.4138665"><ele>302.5</ele><time>2026-04-04T15:40:11.894Z</time></trkpt><trkpt lat="43.4315207" lon="11.4139987"><ele>302.75</ele><time>2026-04-04T15:40:12.892Z</time></trkpt><trkpt lat="43.431389" lon="11.4140843"><ele>303.0</ele><time>2026-04-04T15:40:13.9Z</time></trkpt><trkpt lat="43.4312499" lon="11.4141307"><ele>303.0</ele><time>2026-04-04T15:40:14.891Z</time></trkpt><trkpt lat="43.4311021" lon="11.4141657"><ele>303.0</ele><time>2026-04-04T15:40:15.892Z</time></trkpt><trkpt lat="43.4309634" lon="11.4142198"><ele>303.0</ele><time>2026-04-04T15:40:16.899Z</time></trkpt><trkpt lat="43.4308318" lon="11.4142935"><ele>303.0</ele><time>2026-04-04T15:40:17.889Z</time></trkpt><trkpt lat="43.4307154" lon="11.4143879"><ele>303.0</ele><time>2026-04-04T15:40:18.897Z</time></trkpt><trkpt lat="43.4306196" lon="11.4144933"><ele>303.0</ele><time>2026-04-04T15:40:19.897Z</time></trkpt><trkpt lat="43.430528" lon="11.4146309"><ele>303.0</ele><time>2026-04-04T15:40:20.89Z</time></trkpt><trkpt lat="43.4304284" lon="11.4147793"><ele>303.0</ele><time>2026-04-04T15:40:21.887Z</time></trkpt><trkpt lat="43.4303202" lon="11.4149383"><ele>302.3333333333333</ele><time>2026-04-04T15:40:22.899Z</time></trkpt><trkpt lat="43.4302135" lon="11.4150711"><ele>301.66666666666663</ele><time>2026-04-04T15:40:23.896Z</time></trkpt><trkpt lat="43.430082" lon="11.4151893"><ele>301.0</ele><time>2026-04-04T15:40:24.891Z</time></trkpt><trkpt lat="43.4299487" lon="11.4153087"><ele>301.0</ele><time>2026-04-04T15:40:25.895Z</time></trkpt><trkpt lat="43.429814" lon="11.4154245"><ele>301.0</ele><time>2026-04-04T15:40:26.896Z</time></trkpt><trkpt lat="43.4296912" lon="11.4155457"><ele>301.0</ele><time>2026-04-04T15:40:27.877Z</time></trkpt><trkpt lat="43.4295853" lon="11.4156705"><ele>301.0</ele><time>2026-04-04T15:40:28.886Z</time></trkpt><trkpt lat="43.4295214" lon="11.4158086"><ele>300.6</ele><time>2026-04-04T15:40:29.899Z</time></trkpt><trkpt lat="43.4294903" lon="11.4159524"><ele>300.20000000000005</ele><time>2026-04-04T15:40:30.903Z</time></trkpt><trkpt lat="43.4294907" lon="11.4160879"><ele>299.79999999999995</ele><time>2026-04-04T15:40:31.895Z</time></trkpt><trkpt lat="43.4295292" lon="11.4162307"><ele>299.4</ele><time>2026-04-04T15:40:32.886Z</time></trkpt><trkpt lat="43.4295975" lon="11.4163732"><ele>299.0</ele><time>2026-04-04T15:40:33.893Z</time></trkpt><trkpt lat="43.4296713" lon="11.4165053"><ele>301.75</ele><time>2026-04-04T15:40:34.889Z</time></trkpt><trkpt lat="43.4297458" lon="11.4166352"><ele>304.5</ele><time>2026-04-04T15:40:35.892Z</time></trkpt><trkpt lat="43.4298396" lon="11.4167244"><ele>307.25</ele><time>2026-04-04T15:40:36.896Z</time></trkpt><trkpt lat="43.4299483" lon="11.4167712"><ele>310.0</ele><time>2026-04-04T15:40:37.894Z</time></trkpt><trkpt lat="43.4300702" lon="11.4167907"><ele>310.0</ele><time>2026-04-04T15:40:38.892Z</time></trkpt><trkpt lat="43.4301948" lon="11.416791"><ele>310.0</ele><time>2026-04-04T15:40:39.887Z</time></trkpt><trkpt lat="43.4303082" lon="11.4167984"><ele>310.0</ele><time>2026-04-04T15:40:40.904Z</time></trkpt><trkpt lat="43.4304173" lon="11.416815"><ele>310.0</ele><time>2026-04-04T15:40:41.891Z</time></trkpt><trkpt lat="43.4305185" lon="11.4168468"><ele>311.0</ele><time>2026-04-04T15:40:42.891Z</time></trkpt><trkpt lat="43.4306245" lon="11.4168768"><ele>312.0</ele><time>2026-04-04T15:40:43.902Z</time></trkpt><trkpt lat="43.4307286" lon="11.4169155"><ele>313.0</ele><time>2026-04-04T15:40:44.891Z</time></trkpt><trkpt lat="43.4308317" lon="11.416969"><ele>314.0</ele><time>2026-04-04T15:40:45.902Z</time></trkpt><trkpt lat="43.4309378" lon="11.4170251"><ele>315.0</ele><time>2026-04-04T15:40:46.893Z</time></trkpt><trkpt lat="43.4310277" lon="11.4171013"><ele>313.75</ele><time>2026-04-04T15:40:47.885Z</time></trkpt><trkpt lat="43.4311055" lon="11.4171971"><ele>312.5</ele><time>2026-04-04T15:40:48.892Z</time></trkpt><trkpt lat="43.4311764" lon="11.4172995"><ele>311.25</ele><time>2026-04-04T15:40:49.892Z</time></trkpt><trkpt lat="43.4312596" lon="11.4174284"><ele>310.0</ele><time>2026-04-04T15:40:50.895Z</time></trkpt><trkpt lat="43.4313514" lon="11.4175651"><ele>310.0</ele><time>2026-04-04T15:40:51.901Z</time></trkpt><trkpt lat="43.4314517" lon="11.417706"><ele>310.0</ele><time>2026-04-04T15:40:52.889Z</time></trkpt><trkpt lat="43.4315654" lon="11.4178527"><ele>310.0</ele><time>2026-04-04T15:40:53.904Z</time></trkpt><trkpt lat="43.4316769" lon="11.4180237"><ele>306.3333333333333</ele><time>2026-04-04T15:40:54.89Z</time></trkpt><trkpt lat="43.4317986" lon="11.4182064"><ele>302.6666666666667</ele><time>2026-04-04T15:40:55.888Z</time></trkpt><trkpt lat="43.4319199" lon="11.418408"><ele>299.0</ele><time>2026-04-04T15:40:56.891Z</time></trkpt><trkpt lat="43.4320462" lon="11.4186145"><ele>300.6666666666667</ele><time>2026-04-04T15:40:57.893Z</time></trkpt><trkpt lat="43.4321793" lon="11.4188289"><ele>302.3333333333333</ele><time>2026-04-04T15:40:58.893Z</time></trkpt><trkpt lat="43.4323126" lon="11.4190425"><ele>304.0</ele><time>2026-04-04T15:40:59.901Z</time></trkpt><trkpt lat="43.4324517" lon="11.4192555"><ele>304.0</ele><time>2026-04-04T15:41:00.884Z</time></trkpt><trkpt lat="43.4325891" lon="11.4194606"><ele>304.0</ele><time>2026-04-04T15:41:01.899Z</time></trkpt><trkpt lat="43.4327134" lon="11.4196612"><ele>304.0</ele><time>2026-04-04T15:41:02.893Z</time></trkpt><trkpt lat="43.4328193" lon="11.4198702"><ele>303.66666666666663</ele><time>2026-04-04T15:41:03.889Z</time></trkpt><trkpt lat="43.4329055" lon="11.4200997"><ele>303.3333333333333</ele><time>2026-04-04T15:41:04.884Z</time></trkpt><trkpt lat="43.432993" lon="11.4203167"><ele>303.0</ele><time>2026-04-04T15:41:05.9Z</time></trkpt><trkpt lat="43.4330768" lon="11.4205173"><ele>303.0</ele><time>2026-04-04T15:41:06.895Z</time></trkpt><trkpt lat="43.4331705" lon="11.4206837"><ele>303.0</ele><time>2026-04-04T15:41:07.897Z</time></trkpt><trkpt lat="43.4332721" lon="11.4208167"><ele>303.0</ele><time>2026-04-04T15:41:08.888Z</time></trkpt><trkpt lat="43.4333874" lon="11.420879"><ele>303.0</ele><time>2026-04-04T15:41:09.908Z</time></trkpt><trkpt lat="43.4335206" lon="11.4208733"><ele>303.0</ele><time>2026-04-04T15:41:10.894Z</time></trkpt><trkpt lat="43.4336449" lon="11.4208168"><ele>303.0</ele><time>2026-04-04T15:41:11.895Z</time></trkpt><trkpt lat="43.4337396" lon="11.4207244"><ele>303.0</ele><time>2026-04-04T15:41:12.892Z</time></trkpt><trkpt lat="43.4338298" lon="11.4206006"><ele>303.0</ele><time>2026-04-04T15:41:13.898Z</time></trkpt><trkpt lat="43.433934" lon="11.4204573"><ele>307.3333333333333</ele><time>2026-04-04T15:41:14.9Z</time></trkpt><trkpt lat="43.4340469" lon="11.4203032"><ele>311.66666666666663</ele><time>2026-04-04T15:41:15.903Z</time></trkpt><trkpt lat="43.4341698" lon="11.4201484"><ele>316.0</ele><time>2026-04-04T15:41:16.89Z</time></trkpt><trkpt lat="43.4342968" lon="11.4200012"><ele>316.0</ele><time>2026-04-04T15:41:17.893Z</time></trkpt><trkpt lat="43.4344389" lon="11.4198548"><ele>316.0</ele><time>2026-04-04T15:41:18.893Z</time></trkpt><trkpt lat="43.4345826" lon="11.419698"><ele>316.0</ele><time>2026-04-04T15:41:19.89Z</time></trkpt><trkpt lat="43.4347335" lon="11.4195399"><ele>317.0</ele><time>2026-04-04T15:41:20.889Z</time></trkpt><trkpt lat="43.434889" lon="11.4193946"><ele>318.0</ele><time>2026-04-04T15:41:21.891Z</time></trkpt><trkpt lat="43.4350435" lon="11.4192753"><ele>319.0</ele><time>2026-04-04T15:41:22.883Z</time></trkpt><trkpt lat="43.4351898" lon="11.4191773"><ele>319.0</ele><time>2026-04-04T15:41:23.9Z</time></trkpt><trkpt lat="43.4353349" lon="11.4191123"><ele>319.0</ele><time>2026-04-04T15:41:24.9Z</time></trkpt><trkpt lat="43.4354907" lon="11.4190946"><ele>319.0</ele><time>2026-04-04T15:41:25.892Z</time></trkpt><trkpt lat="43.4356583" lon="11.419111"><ele>318.0</ele><time>2026-04-04T15:41:26.9Z</time></trkpt><trkpt lat="43.435827" lon="11.4191377"><ele>317.0</ele><time>2026-04-04T15:41:27.882Z</time></trkpt><trkpt lat="43.4360008" lon="11.4191668"><ele>316.0</ele><time>2026-04-04T15:41:28.891Z</time></trkpt><trkpt lat="43.4361742" lon="11.419202"><ele>317.3333333333333</ele><time>2026-04-04T15:41:29.89Z</time></trkpt><trkpt lat="43.4363502" lon="11.4192443"><ele>318.6666666666667</ele><time>2026-04-04T15:41:30.889Z</time></trkpt><trkpt lat="43.4365384" lon="11.4192797"><ele>320.0</ele><time>2026-04-04T15:41:31.906Z</time></trkpt><trkpt lat="43.4367239" lon="11.4193161"><ele>320.0</ele><time>2026-04-04T15:41:32.893Z</time></trkpt><trkpt lat="43.4369098" lon="11.4193572"><ele>320.0</ele><time>2026-04-04T15:41:33.888Z</time></trkpt><trkpt lat="43.437093" lon="11.4193883"><ele>320.0</ele><time>2026-04-04T15:41:34.899Z</time></trkpt><trkpt lat="43.4372843" lon="11.419427"><ele>321.0</ele><time>2026-04-04T15:41:35.898Z</time></trkpt><trkpt lat="43.4374751" lon="11.4194667"><ele>322.0</ele><time>2026-04-04T15:41:36.888Z</time></trkpt><trkpt lat="43.4376694" lon="11.4194986"><ele>323.0</ele><time>2026-04-04T15:41:37.896Z</time></trkpt><trkpt lat="43.4378672" lon="11.4195294"><ele>324.6666666666667</ele><time>2026-04-04T15:41:38.896Z</time></trkpt><trkpt lat="43.4380637" lon="11.4195588"><ele>326.3333333333333</ele><time>2026-04-04T15:41:39.901Z</time></trkpt><trkpt lat="43.438265" lon="11.4195864"><ele>328.0</ele><time>2026-04-04T15:41:40.887Z</time></trkpt><trkpt lat="43.4384646" lon="11.4196104"><ele>328.0</ele><time>2026-04-04T15:41:41.906Z</time></trkpt><trkpt lat="43.4386648" lon="11.4196361"><ele>328.0</ele><time>2026-04-04T15:41:42.891Z</time></trkpt><trkpt lat="43.4388565" lon="11.4196666"><ele>328.0</ele><time>2026-04-04T15:41:43.882Z</time></trkpt><trkpt lat="43.4390456" lon="11.4197169"><ele>324.66666666666663</ele><time>2026-04-04T15:41:44.888Z</time></trkpt><trkpt lat="43.4392272" lon="11.4197984"><ele>321.3333333333333</ele><time>2026-04-04T15:41:45.888Z</time></trkpt><trkpt lat="43.4394076" lon="11.4199181"><ele>318.0</ele><time>2026-04-04T15:41:46.886Z</time></trkpt><trkpt lat="43.4395851" lon="11.4200559"><ele>317.6666666666667</ele><time>2026-04-04T15:41:47.901Z</time></trkpt><trkpt lat="43.4397626" lon="11.4201957"><ele>317.33333333333337</ele><time>2026-04-04T15:41:48.884Z</time></trkpt><trkpt lat="43.4399353" lon="11.4203422"><ele>317.0</ele><time>2026-04-04T15:41:49.889Z</time></trkpt><trkpt lat="43.4401069" lon="11.4204898"><ele>317.0</ele><time>2026-04-04T15:41:50.885Z</time></trkpt><trkpt lat="43.4402808" lon="11.4206321"><ele>317.0</ele><time>2026-04-04T15:41:51.9Z</time></trkpt><trkpt lat="43.440447" lon="11.4207858"><ele>317.0</ele><time>2026-04-04T15:41:52.882Z</time></trkpt><trkpt lat="43.4406171" lon="11.4209355"><ele>321.33333333333337</ele><time>2026-04-04T15:41:53.885Z</time></trkpt><trkpt lat="43.4407843" lon="11.4210864"><ele>325.6666666666667</ele><time>2026-04-04T15:41:54.89Z</time></trkpt><trkpt lat="43.4409492" lon="11.4212085"><ele>330.0</ele><time>2026-04-04T15:41:55.892Z</time></trkpt><trkpt lat="43.4411166" lon="11.4213121"><ele>327.6666666666667</ele><time>2026-04-04T15:41:56.901Z</time></trkpt><trkpt lat="43.4413061" lon="11.4213706"><ele>325.33333333333337</ele><time>2026-04-04T15:41:57.891Z</time></trkpt><trkpt lat="43.4414896" lon="11.4214127"><ele>323.0</ele><time>2026-04-04T15:41:58.888Z</time></trkpt><trkpt lat="43.4416754" lon="11.4214369"><ele>323.0</ele><time>2026-04-04T15:41:59.893Z</time></trkpt><trkpt lat="43.4418516" lon="11.4214686"><ele>323.0</ele><time>2026-04-04T15:42:00.893Z</time></trkpt><trkpt lat="43.4420213" lon="11.4214962"><ele>323.0</ele><time>2026-04-04T15:42:01.891Z</time></trkpt><trkpt lat="43.4421878" lon="11.4215184"><ele>324.6666666666667</ele><time>2026-04-04T15:42:02.897Z</time></trkpt><trkpt lat="43.4423563" lon="11.4215457"><ele>326.3333333333333</ele><time>2026-04-04T15:42:03.888Z</time></trkpt><trkpt lat="43.4425234" lon="11.4215667"><ele>328.0</ele><time>2026-04-04T15:42:04.896Z</time></trkpt><trkpt lat="43.4426919" lon="11.4215818"><ele>328.0</ele><time>2026-04-04T15:42:05.889Z</time></trkpt><trkpt lat="43.4428619" lon="11.4215885"><ele>328.0</ele><time>2026-04-04T15:42:06.896Z</time></trkpt><trkpt lat="43.4430288" lon="11.421578"><ele>328.0</ele><time>2026-04-04T15:42:07.892Z</time></trkpt><trkpt lat="43.4431896" lon="11.4215526"><ele>328.0</ele><time>2026-04-04T15:42:08.9Z</time></trkpt><trkpt lat="43.4433371" lon="11.4214833"><ele>328.0</ele><time>2026-04-04T15:42:09.897Z</time></trkpt><trkpt lat="43.4434889" lon="11.4213894"><ele>328.0</ele><time>2026-04-04T15:42:10.892Z</time></trkpt><trkpt lat="43.4436338" lon="11.4212917"><ele>331.0</ele><time>2026-04-04T15:42:11.889Z</time></trkpt><trkpt lat="43.4437739" lon="11.4211924"><ele>334.0</ele><time>2026-04-04T15:42:12.888Z</time></trkpt><trkpt lat="43.4439072" lon="11.4210964"><ele>337.0</ele><time>2026-04-04T15:42:13.896Z</time></trkpt><trkpt lat="43.4440392" lon="11.4209967"><ele>337.0</ele><time>2026-04-04T15:42:14.893Z</time></trkpt><trkpt lat="43.4441692" lon="11.4208938"><ele>337.0</ele><time>2026-04-04T15:42:15.894Z</time></trkpt><trkpt lat="43.4442874" lon="11.4207643"><ele>337.0</ele><time>2026-04-04T15:42:16.894Z</time></trkpt><trkpt lat="43.4443926" lon="11.4206108"><ele>337.66666666666663</ele><time>2026-04-04T15:42:17.895Z</time></trkpt><trkpt lat="43.4444929" lon="11.4204553"><ele>338.3333333333333</ele><time>2026-04-04T15:42:18.893Z</time></trkpt><trkpt lat="43.4446062" lon="11.4203173"><ele>339.0</ele><time>2026-04-04T15:42:19.903Z</time></trkpt><trkpt lat="43.4447421" lon="11.420193"><ele>339.0</ele><time>2026-04-04T15:42:20.895Z</time></trkpt><trkpt lat="43.4448859" lon="11.4201021"><ele>339.0</ele><time>2026-04-04T15:42:21.889Z</time></trkpt><trkpt lat="43.4450197" lon="11.420016"><ele>339.0</ele><time>2026-04-04T15:42:22.889Z</time></trkpt><trkpt lat="43.4451494" lon="11.4199424"><ele>339.0</ele><time>2026-04-04T15:42:23.893Z</time></trkpt><trkpt lat="43.44527" lon="11.4198635"><ele>339.0</ele><time>2026-04-04T15:42:24.894Z</time></trkpt><trkpt lat="43.4453904" lon="11.4197974"><ele>339.0</ele><time>2026-04-04T15:42:25.892Z</time></trkpt><trkpt lat="43.4454906" lon="11.4197291"><ele>339.0</ele><time>2026-04-04T15:42:26.89Z</time></trkpt><trkpt lat="43.445568" lon="11.4196527"><ele>339.0</ele><time>2026-04-04T15:42:27.883Z</time></trkpt><trkpt lat="43.4456282" lon="11.4195169"><ele>337.75</ele><time>2026-04-04T15:42:28.893Z</time></trkpt><trkpt lat="43.4456516" lon="11.4193548"><ele>336.5</ele><time>2026-04-04T15:42:29.893Z</time></trkpt><trkpt lat="43.4456512" lon="11.4191852"><ele>335.25</ele><time>2026-04-04T15:42:30.892Z</time></trkpt><trkpt lat="43.4456541" lon="11.4190176"><ele>334.0</ele><time>2026-04-04T15:42:31.892Z</time></trkpt><trkpt lat="43.4456507" lon="11.4188502"><ele>336.0</ele><time>2026-04-04T15:42:32.892Z</time></trkpt><trkpt lat="43.4456546" lon="11.4186773"><ele>338.0</ele><time>2026-04-04T15:42:33.891Z</time></trkpt><trkpt lat="43.4456632" lon="11.4185103"><ele>340.0</ele><time>2026-04-04T15:42:34.896Z</time></trkpt><trkpt lat="43.4456908" lon="11.4183316"><ele>342.0</ele><time>2026-04-04T15:42:35.895Z</time></trkpt><trkpt lat="43.4457447" lon="11.4181544"><ele>344.5</ele><time>2026-04-04T15:42:36.894Z</time></trkpt><trkpt lat="43.4458035" lon="11.4179833"><ele>347.0</ele><time>2026-04-04T15:42:37.901Z</time></trkpt><trkpt lat="43.4458655" lon="11.4178284"><ele>349.5</ele><time>2026-04-04T15:42:38.9Z</time></trkpt><trkpt lat="43.4459389" lon="11.4176943"><ele>352.0</ele><time>2026-04-04T15:42:39.89Z</time></trkpt><trkpt lat="43.4460249" lon="11.41759"><ele>352.0</ele><time>2026-04-04T15:42:40.886Z</time></trkpt><trkpt lat="43.4461257" lon="11.4175121"><ele>352.0</ele><time>2026-04-04T15:42:41.89Z</time></trkpt><trkpt lat="43.4462448" lon="11.4174763"><ele>352.0</ele><time>2026-04-04T15:42:42.896Z</time></trkpt><trkpt lat="43.4463734" lon="11.4174831"><ele>352.0</ele><time>2026-04-04T15:42:43.888Z</time></trkpt><trkpt lat="43.4464984" lon="11.417506"><ele>349.0</ele><time>2026-04-04T15:42:44.889Z</time></trkpt><trkpt lat="43.4466225" lon="11.4175472"><ele>346.0</ele><time>2026-04-04T15:42:45.893Z</time></trkpt><trkpt lat="43.4467688" lon="11.4175976"><ele>343.0</ele><time>2026-04-04T15:42:46.899Z</time></trkpt><trkpt lat="43.4469363" lon="11.4176284"><ele>340.0</ele><time>2026-04-04T15:42:47.885Z</time></trkpt><trkpt lat="43.4471208" lon="11.4176672"><ele>339.3333333333333</ele><time>2026-04-04T15:42:48.891Z</time></trkpt><trkpt lat="43.4473247" lon="11.4177163"><ele>338.6666666666667</ele><time>2026-04-04T15:42:49.886Z</time></trkpt><trkpt lat="43.4475204" lon="11.4177922"><ele>338.0</ele><time>2026-04-04T15:42:50.901Z</time></trkpt><trkpt lat="43.4477116" lon="11.4179049"><ele>335.6666666666667</ele><time>2026-04-04T15:42:51.891Z</time></trkpt><trkpt lat="43.4478893" lon="11.4180534"><ele>333.3333333333333</ele><time>2026-04-04T15:42:52.887Z</time></trkpt><trkpt lat="43.4480475" lon="11.4182193"><ele>331.0</ele><time>2026-04-04T15:42:53.892Z</time></trkpt><trkpt lat="43.448206" lon="11.4183635"><ele>331.0</ele><time>2026-04-04T15:42:54.891Z</time></trkpt><trkpt lat="43.4483661" lon="11.4184638"><ele>331.0</ele><time>2026-04-04T15:42:55.889Z</time></trkpt><trkpt lat="43.4485513" lon="11.4185176"><ele>331.0</ele><time>2026-04-04T15:42:56.888Z</time></trkpt><trkpt lat="43.4487326" lon="11.4185351"><ele>331.0</ele><time>2026-04-04T15:42:57.889Z</time></trkpt><trkpt lat="43.4489268" lon="11.4185418"><ele>331.0</ele><time>2026-04-04T15:42:58.895Z</time></trkpt><trkpt lat="43.4491216" lon="11.4185605"><ele>331.0</ele><time>2026-04-04T15:42:59.892Z</time></trkpt><trkpt lat="43.4493057" lon="11.4186072"><ele>331.0</ele><time>2026-04-04T15:43:00.885Z</time></trkpt><trkpt lat="43.4494887" lon="11.4186729"><ele>331.0</ele><time>2026-04-04T15:43:01.889Z</time></trkpt><trkpt lat="43.4496703" lon="11.4187619"><ele>331.0</ele><time>2026-04-04T15:43:02.896Z</time></trkpt><trkpt lat="43.4498498" lon="11.418843"><ele>328.66666666666663</ele><time>2026-04-04T15:43:03.892Z</time></trkpt><trkpt lat="43.4500269" lon="11.418919"><ele>326.3333333333333</ele><time>2026-04-04T15:43:04.894Z</time></trkpt><trkpt lat="43.4501919" lon="11.4189778"><ele>324.0</ele><time>2026-04-04T15:43:05.893Z</time></trkpt><trkpt lat="43.4503563" lon="11.4190007"><ele>324.6666666666667</ele><time>2026-04-04T15:43:06.886Z</time></trkpt><trkpt lat="43.4505141" lon="11.4190184"><ele>325.33333333333337</ele><time>2026-04-04T15:43:07.904Z</time></trkpt><trkpt lat="43.45066" lon="11.419049"><ele>326.0</ele><time>2026-04-04T15:43:08.9Z</time></trkpt><trkpt lat="43.4508158" lon="11.4190896"><ele>326.0</ele><time>2026-04-04T15:43:09.895Z</time></trkpt><trkpt lat="43.4509631" lon="11.4191509"><ele>326.0</ele><time>2026-04-04T15:43:10.899Z</time></trkpt><trkpt lat="43.4510938" lon="11.4192285"><ele>326.0</ele><time>2026-04-04T15:43:11.894Z</time></trkpt><trkpt lat="43.4512199" lon="11.4193284"><ele>326.0</ele><time>2026-04-04T15:43:12.917Z</time></trkpt><trkpt lat="43.4513502" lon="11.4194355"><ele>327.6666666666667</ele><time>2026-04-04T15:43:13.89Z</time></trkpt><trkpt lat="43.4514754" lon="11.4195597"><ele>329.3333333333333</ele><time>2026-04-04T15:43:14.903Z</time></trkpt><trkpt lat="43.4515948" lon="11.4196963"><ele>331.0</ele><time>2026-04-04T15:43:15.898Z</time></trkpt><trkpt lat="43.451699" lon="11.4198537"><ele>331.0</ele><time>2026-04-04T15:43:16.895Z</time></trkpt><trkpt lat="43.4518044" lon="11.4200313"><ele>331.0</ele><time>2026-04-04T15:43:17.894Z</time></trkpt><trkpt lat="43.4519093" lon="11.4202167"><ele>331.0</ele><time>2026-04-04T15:43:18.897Z</time></trkpt><trkpt lat="43.4520228" lon="11.420394"><ele>332.3333333333333</ele><time>2026-04-04T15:43:19.906Z</time></trkpt><trkpt lat="43.4521364" lon="11.4205758"><ele>333.6666666666667</ele><time>2026-04-04T15:43:20.893Z</time></trkpt><trkpt lat="43.4522476" lon="11.4207597"><ele>335.0</ele><time>2026-04-04T15:43:21.893Z</time></trkpt><trkpt lat="43.4523716" lon="11.4209437"><ele>335.0</ele><time>2026-04-04T15:43:22.888Z</time></trkpt><trkpt lat="43.4525109" lon="11.4211069"><ele>335.0</ele><time>2026-04-04T15:43:23.904Z</time></trkpt><trkpt lat="43.4526664" lon="11.4212609"><ele>335.0</ele><time>2026-04-04T15:43:24.899Z</time></trkpt><trkpt lat="43.4528298" lon="11.4213967"><ele>334.0</ele><time>2026-04-04T15:43:25.894Z</time></trkpt><trkpt lat="43.4530049" lon="11.4215472"><ele>333.0</ele><time>2026-04-04T15:43:26.892Z</time></trkpt><trkpt lat="43.4531604" lon="11.421736"><ele>332.0</ele><time>2026-04-04T15:43:27.896Z</time></trkpt><trkpt lat="43.4533118" lon="11.4219475"><ele>329.6666666666667</ele><time>2026-04-04T15:43:28.891Z</time></trkpt><trkpt lat="43.4534545" lon="11.4221714"><ele>327.3333333333333</ele><time>2026-04-04T15:43:29.894Z</time></trkpt><trkpt lat="43.4535968" lon="11.4223981"><ele>325.0</ele><time>2026-04-04T15:43:30.894Z</time></trkpt><trkpt lat="43.453742" lon="11.4226243"><ele>327.0</ele><time>2026-04-04T15:43:31.895Z</time></trkpt><trkpt lat="43.4538769" lon="11.4228407"><ele>329.0</ele><time>2026-04-04T15:43:32.89Z</time></trkpt><trkpt lat="43.454006" lon="11.4230511"><ele>331.0</ele><time>2026-04-04T15:43:33.89Z</time></trkpt><trkpt lat="43.4541356" lon="11.4232466"><ele>331.0</ele><time>2026-04-04T15:43:34.898Z</time></trkpt><trkpt lat="43.4542609" lon="11.4234317"><ele>331.0</ele><time>2026-04-04T15:43:35.893Z</time></trkpt><trkpt lat="43.454387" lon="11.4235914"><ele>331.0</ele><time>2026-04-04T15:43:36.893Z</time></trkpt><trkpt lat="43.4545063" lon="11.4237098"><ele>331.66666666666663</ele><time>2026-04-04T15:43:37.897Z</time></trkpt><trkpt lat="43.454627" lon="11.4238254"><ele>332.3333333333333</ele><time>2026-04-04T15:43:38.894Z</time></trkpt><trkpt lat="43.4547459" lon="11.4239408"><ele>333.0</ele><time>2026-04-04T15:43:39.897Z</time></trkpt><trkpt lat="43.454878" lon="11.4240657"><ele>333.0</ele><time>2026-04-04T15:43:40.892Z</time></trkpt><trkpt lat="43.4550059" lon="11.4241955"><ele>333.0</ele><time>2026-04-04T15:43:41.9Z</time></trkpt><trkpt lat="43.455138" lon="11.4243367"><ele>333.0</ele><time>2026-04-04T15:43:42.892Z</time></trkpt><trkpt lat="43.4552774" lon="11.4244862"><ele>333.0</ele><time>2026-04-04T15:43:43.904Z</time></trkpt><trkpt lat="43.4554137" lon="11.4246359"><ele>333.0</ele><time>2026-04-04T15:43:44.9Z</time></trkpt><trkpt lat="43.455554" lon="11.4247961"><ele>333.0</ele><time>2026-04-04T15:43:45.895Z</time></trkpt><trkpt lat="43.4556972" lon="11.4249615"><ele>334.3333333333333</ele><time>2026-04-04T15:43:46.896Z</time></trkpt><trkpt lat="43.455848" lon="11.4251224"><ele>335.66666666666663</ele><time>2026-04-04T15:43:47.892Z</time></trkpt><trkpt lat="43.4559915" lon="11.4252725"><ele>337.0</ele><time>2026-04-04T15:43:48.894Z</time></trkpt><trkpt lat="43.4561345" lon="11.4253977"><ele>338.66666666666663</ele><time>2026-04-04T15:43:49.89Z</time></trkpt><trkpt lat="43.4562928" lon="11.4254737"><ele>340.3333333333333</ele><time>2026-04-04T15:43:50.897Z</time></trkpt><trkpt lat="43.4564554" lon="11.4255105"><ele>342.0</ele><time>2026-04-04T15:43:51.895Z</time></trkpt><trkpt lat="43.4566242" lon="11.4255362"><ele>342.0</ele><time>2026-04-04T15:43:52.894Z</time></trkpt><trkpt lat="43.4568018" lon="11.4255705"><ele>342.0</ele><time>2026-04-04T15:43:53.899Z</time></trkpt><trkpt lat="43.4569926" lon="11.4256198"><ele>342.0</ele><time>2026-04-04T15:43:54.894Z</time></trkpt><trkpt lat="43.4571864" lon="11.4256808"><ele>340.0</ele><time>2026-04-04T15:43:55.896Z</time></trkpt><trkpt lat="43.4573865" lon="11.4257605"><ele>338.0</ele><time>2026-04-04T15:43:56.896Z</time></trkpt><trkpt lat="43.4575881" lon="11.4258439"><ele>336.0</ele><time>2026-04-04T15:43:57.893Z</time></trkpt><trkpt lat="43.4577887" lon="11.4259329"><ele>336.0</ele><time>2026-04-04T15:43:58.909Z</time></trkpt><trkpt lat="43.4579853" lon="11.4260189"><ele>336.0</ele><time>2026-04-04T15:43:59.895Z</time></trkpt><trkpt lat="43.4581881" lon="11.4261071"><ele>336.0</ele><time>2026-04-04T15:44:00.892Z</time></trkpt><trkpt lat="43.4583849" lon="11.4261891"><ele>336.0</ele><time>2026-04-04T15:44:01.901Z</time></trkpt><trkpt lat="43.4585811" lon="11.4262742"><ele>336.0</ele><time>2026-04-04T15:44:02.901Z</time></trkpt><trkpt lat="43.4587665" lon="11.4263526"><ele>336.0</ele><time>2026-04-04T15:44:03.887Z</time></trkpt><trkpt lat="43.4589402" lon="11.4264303"><ele>337.0</ele><time>2026-04-04T15:44:04.901Z</time></trkpt><trkpt lat="43.4591017" lon="11.4264963"><ele>338.0</ele><time>2026-04-04T15:44:05.894Z</time></trkpt><trkpt lat="43.4592584" lon="11.4265636"><ele>339.0</ele><time>2026-04-04T15:44:06.894Z</time></trkpt><trkpt lat="43.4594018" lon="11.4266292"><ele>339.0</ele><time>2026-04-04T15:44:07.905Z</time></trkpt><trkpt lat="43.459539" lon="11.4266974"><ele>339.0</ele><time>2026-04-04T15:44:08.891Z</time></trkpt><trkpt lat="43.4596831" lon="11.4267601"><ele>339.0</ele><time>2026-04-04T15:44:09.907Z</time></trkpt><trkpt lat="43.4598314" lon="11.4268269"><ele>340.3333333333333</ele><time>2026-04-04T15:44:10.904Z</time></trkpt><trkpt lat="43.4599777" lon="11.4268913"><ele>341.66666666666663</ele><time>2026-04-04T15:44:11.892Z</time></trkpt><trkpt lat="43.4601298" lon="11.4269592"><ele>343.0</ele><time>2026-04-04T15:44:12.897Z</time></trkpt><trkpt lat="43.4602861" lon="11.4270294"><ele>343.0</ele><time>2026-04-04T15:44:13.898Z</time></trkpt><trkpt lat="43.4604479" lon="11.4271074"><ele>343.0</ele><time>2026-04-04T15:44:14.892Z</time></trkpt><trkpt lat="43.4606043" lon="11.4272095"><ele>343.0</ele><time>2026-04-04T15:44:15.891Z</time></trkpt><trkpt lat="43.4607545" lon="11.4273384"><ele>342.0</ele><time>2026-04-04T15:44:16.897Z</time></trkpt><trkpt lat="43.460898" lon="11.4274845"><ele>341.0</ele><time>2026-04-04T15:44:17.897Z</time></trkpt><trkpt lat="43.4610416" lon="11.4276416"><ele>340.0</ele><time>2026-04-04T15:44:18.893Z</time></trkpt><trkpt lat="43.4611791" lon="11.4277927"><ele>340.66666666666663</ele><time>2026-04-04T15:44:19.891Z</time></trkpt><trkpt lat="43.4613204" lon="11.4279434"><ele>341.3333333333333</ele><time>2026-04-04T15:44:20.898Z</time></trkpt><trkpt lat="43.4614651" lon="11.4280957"><ele>342.0</ele><time>2026-04-04T15:44:21.896Z</time></trkpt><trkpt lat="43.4616015" lon="11.4282423"><ele>342.0</ele><time>2026-04-04T15:44:22.902Z</time></trkpt><trkpt lat="43.4617346" lon="11.428392"><ele>342.0</ele><time>2026-04-04T15:44:23.903Z</time></trkpt><trkpt lat="43.4618682" lon="11.4285422"><ele>342.0</ele><time>2026-04-04T15:44:24.898Z</time></trkpt><trkpt lat="43.4619993" lon="11.4286959"><ele>343.3333333333333</ele><time>2026-04-04T15:44:25.899Z</time></trkpt><trkpt lat="43.4621252" lon="11.4288495"><ele>344.66666666666663</ele><time>2026-04-04T15:44:26.892Z</time></trkpt><trkpt lat="43.4622465" lon="11.4289965"><ele>346.0</ele><time>2026-04-04T15:44:27.895Z</time></trkpt><trkpt lat="43.4623684" lon="11.4291455"><ele>346.0</ele><time>2026-04-04T15:44:28.897Z</time></trkpt><trkpt lat="43.4624916" lon="11.4292948"><ele>346.0</ele><time>2026-04-04T15:44:29.899Z</time></trkpt><trkpt lat="43.4626101" lon="11.4294491"><ele>346.0</ele><time>2026-04-04T15:44:30.899Z</time></trkpt><trkpt lat="43.4627277" lon="11.4295978"><ele>346.0</ele><time>2026-04-04T15:44:31.902Z</time></trkpt><trkpt lat="43.4628394" lon="11.4297513"><ele>346.0</ele><time>2026-04-04T15:44:32.899Z</time></trkpt><trkpt lat="43.462942" lon="11.4299173"><ele>346.0</ele><time>2026-04-04T15:44:33.897Z</time></trkpt><trkpt lat="43.4630333" lon="11.4300831"><ele>346.3333333333333</ele><time>2026-04-04T15:44:34.905Z</time></trkpt><trkpt lat="43.4631304" lon="11.4302603"><ele>346.6666666666667</ele><time>2026-04-04T15:44:35.89Z</time></trkpt><trkpt lat="43.4632286" lon="11.4304177"><ele>347.0</ele><time>2026-04-04T15:44:36.897Z</time></trkpt><trkpt lat="43.4633313" lon="11.4305747"><ele>347.0</ele><time>2026-04-04T15:44:37.891Z</time></trkpt><trkpt lat="43.4634364" lon="11.4307312"><ele>347.0</ele><time>2026-04-04T15:44:38.895Z</time></trkpt><trkpt lat="43.4635392" lon="11.4308955"><ele>347.0</ele><time>2026-04-04T15:44:39.9Z</time></trkpt><trkpt lat="43.4636233" lon="11.431066"><ele>347.0</ele><time>2026-04-04T15:44:40.893Z</time></trkpt><trkpt lat="43.4636994" lon="11.4312408"><ele>347.0</ele><time>2026-04-04T15:44:41.888Z</time></trkpt><trkpt lat="43.463774" lon="11.4314181"><ele>347.0</ele><time>2026-04-04T15:44:42.898Z</time></trkpt><trkpt lat="43.4638459" lon="11.4315947"><ele>347.0</ele><time>2026-04-04T15:44:43.905Z</time></trkpt><trkpt lat="43.4639185" lon="11.4317721"><ele>347.5</ele><time>2026-04-04T15:44:44.891Z</time></trkpt><trkpt lat="43.4639877" lon="11.4319515"><ele>348.0</ele><time>2026-04-04T15:44:45.901Z</time></trkpt><trkpt lat="43.4640483" lon="11.4321302"><ele>348.5</ele><time>2026-04-04T15:44:46.895Z</time></trkpt><trkpt lat="43.46411" lon="11.4323037"><ele>349.0</ele><time>2026-04-04T15:44:47.9Z</time></trkpt><trkpt lat="43.4641728" lon="11.4324559"><ele>349.0</ele><time>2026-04-04T15:44:48.893Z</time></trkpt><trkpt lat="43.4642482" lon="11.4326025"><ele>349.0</ele><time>2026-04-04T15:44:49.891Z</time></trkpt><trkpt lat="43.4643277" lon="11.4327309"><ele>349.0</ele><time>2026-04-04T15:44:50.89Z</time></trkpt><trkpt lat="43.4644053" lon="11.4328507"><ele>349.0</ele><time>2026-04-04T15:44:51.895Z</time></trkpt><trkpt lat="43.4644985" lon="11.4329539"><ele>348.75</ele><time>2026-04-04T15:44:52.9Z</time></trkpt><trkpt lat="43.4646031" lon="11.4330415"><ele>348.5</ele><time>2026-04-04T15:44:53.907Z</time></trkpt><trkpt lat="43.464714" lon="11.4331139"><ele>348.25</ele><time>2026-04-04T15:44:54.895Z</time></trkpt><trkpt lat="43.4648268" lon="11.4331883"><ele>348.0</ele><time>2026-04-04T15:44:55.891Z</time></trkpt><trkpt lat="43.46493" lon="11.4332774"><ele>348.0</ele><time>2026-04-04T15:44:56.893Z</time></trkpt><trkpt lat="43.4650323" lon="11.4333889"><ele>348.0</ele><time>2026-04-04T15:44:57.895Z</time></trkpt><trkpt lat="43.4651305" lon="11.4335028"><ele>348.0</ele><time>2026-04-04T15:44:58.893Z</time></trkpt><trkpt lat="43.4652159" lon="11.4336295"><ele>348.0</ele><time>2026-04-04T15:44:59.892Z</time></trkpt><trkpt lat="43.4653031" lon="11.433763"><ele>348.0</ele><time>2026-04-04T15:45:00.899Z</time></trkpt><trkpt lat="43.4653958" lon="11.4338877"><ele>348.0</ele><time>2026-04-04T15:45:01.895Z</time></trkpt><trkpt lat="43.4654943" lon="11.4340063"><ele>348.0</ele><time>2026-04-04T15:45:02.893Z</time></trkpt><trkpt lat="43.4656017" lon="11.4341027"><ele>348.0</ele><time>2026-04-04T15:45:03.895Z</time></trkpt><trkpt lat="43.4657188" lon="11.4341655"><ele>348.0</ele><time>2026-04-04T15:45:04.897Z</time></trkpt><trkpt lat="43.4658445" lon="11.4342192"><ele>348.0</ele><time>2026-04-04T15:45:05.893Z</time></trkpt><trkpt lat="43.4659595" lon="11.4342581"><ele>348.0</ele><time>2026-04-04T15:45:06.905Z</time></trkpt><trkpt lat="43.4660599" lon="11.4342922"><ele>348.0</ele><time>2026-04-04T15:45:07.89Z</time></trkpt><trkpt lat="43.4661534" lon="11.4343176"><ele>348.0</ele><time>2026-04-04T15:45:08.895Z</time></trkpt><trkpt lat="43.4662499" lon="11.4343436"><ele>348.5</ele><time>2026-04-04T15:45:09.896Z</time></trkpt><trkpt lat="43.4663476" lon="11.4343584"><ele>349.0</ele><time>2026-04-04T15:45:10.896Z</time></trkpt><trkpt lat="43.4664347" lon="11.4343572"><ele>349.5</ele><time>2026-04-04T15:45:11.902Z</time></trkpt><trkpt lat="43.4665255" lon="11.4343622"><ele>350.0</ele><time>2026-04-04T15:45:12.886Z</time></trkpt><trkpt lat="43.4666104" lon="11.4343634"><ele>350.5</ele><time>2026-04-04T15:45:13.893Z</time></trkpt><trkpt lat="43.4666921" lon="11.434364"><ele>351.0</ele><time>2026-04-04T15:45:14.892Z</time></trkpt><trkpt lat="43.4667719" lon="11.4343573"><ele>351.0</ele><time>2026-04-04T15:45:15.89Z</time></trkpt><trkpt lat="43.466848" lon="11.4343498"><ele>351.0</ele><time>2026-04-04T15:45:16.895Z</time></trkpt><trkpt lat="43.4669184" lon="11.4343292"><ele>351.0</ele><time>2026-04-04T15:45:17.892Z</time></trkpt><trkpt lat="43.4669885" lon="11.4343093"><ele>351.0</ele><time>2026-04-04T15:45:18.889Z</time></trkpt><trkpt lat="43.4670558" lon="11.434298"><ele>351.0</ele><time>2026-04-04T15:45:19.895Z</time></trkpt><trkpt lat="43.4671724" lon="11.4342821"><ele>351.0</ele><time>2026-04-04T15:45:21.904Z</time></trkpt><trkpt lat="43.4672767" lon="11.4342504"><ele>351.5</ele><time>2026-04-04T15:45:23.892Z</time></trkpt><trkpt lat="43.4673499" lon="11.4342282"><ele>352.0</ele><time>2026-04-04T15:45:25.891Z</time></trkpt><trkpt lat="43.4674374" lon="11.4341941"><ele>352.5</ele><time>2026-04-04T15:45:29.891Z</time></trkpt><trkpt lat="43.4675042" lon="11.434274"><ele>353.0</ele><time>2026-04-04T15:45:31.894Z</time></trkpt><trkpt lat="43.4675031" lon="11.4343689"><ele>353.5</ele><time>2026-04-04T15:45:33.892Z</time></trkpt><trkpt lat="43.4674467" lon="11.4344082"><ele>354.0</ele><time>2026-04-04T15:45:35.885Z</time></trkpt><trkpt lat="43.4673993" lon="11.4343504"><ele>354.0</ele><time>2026-04-04T15:45:40.895Z</time></trkpt><trkpt lat="43.4674622" lon="11.4343223"><ele>354.0</ele><time>2026-04-04T15:45:45.895Z</time></trkpt></trkseg></trk></gpx>